<?xml version="1.0" encoding="UTF-8"?>
<gpx xmlns="http://www.topografix.com/GPX/1/1" xmlns:xsi="http://www.w3.org/2001/XMLSchema-instance" xmlns:topogps="http://www.topo-gps.com/xmlschemas/TopoGPSExtension/v3" version="1.1" creator="Topo GPS 9.0.3 (Android) - https://www.topo-gps.com" xsi:schemaLocation="http://www.topografix.com/GPX/1/1 http://www.topografix.com/GPX/1/1/gpx.xsd http://www.topo-gps.com/xmlschemas/TopoGPSExtension/v3 http://www.topo-gps.com/xmlschemas/TopoGPSExtensionv3.xsd">
<metadata>
<name>verbindingsroute 1 Android</name>
<desc></desc>
<author>
<name></name>
<link href="">
</link>
</author>
<copyright author="">
<year>2026</year>
<license></license>
</copyright>
<time>2026-02-13T16:29:49Z</time>
<extensions>
<topogps:routetype type="0"></topogps:routetype>
<topogps:version>9.0.3</topogps:version>
<topogps:uid>0</topogps:uid>
<topogps:uidversion>0</topogps:uidversion>
</extensions>
</metadata>
<trk>
<name>verbindingsroute 1 Android</name>
<desc></desc>
<type>walking</type>
<trkseg>
<trkpt lat="52.345605" lon="4.581949">
<ele>6.8</ele>
<time>2026-02-13T15:03:59Z</time>
</trkpt>
<trkpt lat="52.345606" lon="4.581950">
<ele>6.8</ele>
<time>2026-02-13T15:04:00Z</time>
</trkpt>
<trkpt lat="52.345605" lon="4.581950">
<ele>6.8</ele>
<time>2026-02-13T15:04:01Z</time>
</trkpt>
<trkpt lat="52.345605" lon="4.581950">
<ele>6.8</ele>
<time>2026-02-13T15:04:02Z</time>
</trkpt>
<trkpt lat="52.345604" lon="4.581943">
<ele>6.8</ele>
<time>2026-02-13T15:04:03Z</time>
</trkpt>
<trkpt lat="52.345603" lon="4.581926">
<ele>6.8</ele>
<time>2026-02-13T15:04:04Z</time>
</trkpt>
<trkpt lat="52.345603" lon="4.581907">
<ele>6.8</ele>
<time>2026-02-13T15:04:05Z</time>
</trkpt>
<trkpt lat="52.345604" lon="4.581893">
<ele>6.8</ele>
<time>2026-02-13T15:04:06Z</time>
</trkpt>
<trkpt lat="52.345601" lon="4.581877">
<ele>6.8</ele>
<time>2026-02-13T15:04:07Z</time>
</trkpt>
<trkpt lat="52.345600" lon="4.581859">
<ele>6.8</ele>
<time>2026-02-13T15:04:08Z</time>
</trkpt>
<trkpt lat="52.345600" lon="4.581847">
<ele>6.8</ele>
<time>2026-02-13T15:04:09Z</time>
</trkpt>
<trkpt lat="52.345598" lon="4.581837">
<ele>6.8</ele>
<time>2026-02-13T15:04:10Z</time>
</trkpt>
<trkpt lat="52.345591" lon="4.581831">
<ele>6.8</ele>
<time>2026-02-13T15:04:11Z</time>
</trkpt>
<trkpt lat="52.345581" lon="4.581827">
<ele>6.8</ele>
<time>2026-02-13T15:04:12Z</time>
</trkpt>
<trkpt lat="52.345571" lon="4.581821">
<ele>6.8</ele>
<time>2026-02-13T15:04:13Z</time>
</trkpt>
<trkpt lat="52.345557" lon="4.581818">
<ele>6.8</ele>
<time>2026-02-13T15:04:14Z</time>
</trkpt>
<trkpt lat="52.345542" lon="4.581819">
<ele>6.8</ele>
<time>2026-02-13T15:04:15Z</time>
</trkpt>
<trkpt lat="52.345530" lon="4.581827">
<ele>6.8</ele>
<time>2026-02-13T15:04:16Z</time>
</trkpt>
<trkpt lat="52.345516" lon="4.581827">
<ele>6.8</ele>
<time>2026-02-13T15:04:17Z</time>
</trkpt>
<trkpt lat="52.345509" lon="4.581824">
<ele>6.2</ele>
<time>2026-02-13T15:04:17Z</time>
</trkpt>
<trkpt lat="52.345492" lon="4.581822">
<ele>6.8</ele>
<time>2026-02-13T15:04:18Z</time>
</trkpt>
<trkpt lat="52.345488" lon="4.581819">
<ele>6.1</ele>
<time>2026-02-13T15:04:19Z</time>
</trkpt>
<trkpt lat="52.345479" lon="4.581820">
<ele>6.1</ele>
<time>2026-02-13T15:04:19Z</time>
</trkpt>
<trkpt lat="52.345472" lon="4.581815">
<ele>6.0</ele>
<time>2026-02-13T15:04:20Z</time>
</trkpt>
<trkpt lat="52.345466" lon="4.581815">
<ele>6.0</ele>
<time>2026-02-13T15:04:20Z</time>
</trkpt>
<trkpt lat="52.345457" lon="4.581812">
<ele>6.0</ele>
<time>2026-02-13T15:04:21Z</time>
</trkpt>
<trkpt lat="52.345451" lon="4.581813">
<ele>6.0</ele>
<time>2026-02-13T15:04:21Z</time>
</trkpt>
<trkpt lat="52.345443" lon="4.581810">
<ele>6.0</ele>
<time>2026-02-13T15:04:22Z</time>
</trkpt>
<trkpt lat="52.345436" lon="4.581810">
<ele>6.0</ele>
<time>2026-02-13T15:04:23Z</time>
</trkpt>
<trkpt lat="52.345424" lon="4.581805">
<ele>6.4</ele>
<time>2026-02-13T15:04:23Z</time>
</trkpt>
<trkpt lat="52.345420" lon="4.581799">
<ele>6.4</ele>
<time>2026-02-13T15:04:24Z</time>
</trkpt>
<trkpt lat="52.345413" lon="4.581798">
<ele>6.4</ele>
<time>2026-02-13T15:04:24Z</time>
</trkpt>
<trkpt lat="52.345407" lon="4.581792">
<ele>6.4</ele>
<time>2026-02-13T15:04:25Z</time>
</trkpt>
<trkpt lat="52.345400" lon="4.581791">
<ele>6.4</ele>
<time>2026-02-13T15:04:26Z</time>
</trkpt>
<trkpt lat="52.345393" lon="4.581785">
<ele>6.4</ele>
<time>2026-02-13T15:04:26Z</time>
</trkpt>
<trkpt lat="52.345385" lon="4.581779">
<ele>6.4</ele>
<time>2026-02-13T15:04:27Z</time>
</trkpt>
<trkpt lat="52.345378" lon="4.581776">
<ele>6.4</ele>
<time>2026-02-13T15:04:27Z</time>
</trkpt>
<trkpt lat="52.345371" lon="4.581772">
<ele>6.4</ele>
<time>2026-02-13T15:04:28Z</time>
</trkpt>
<trkpt lat="52.345361" lon="4.581771">
<ele>6.4</ele>
<time>2026-02-13T15:04:28Z</time>
</trkpt>
<trkpt lat="52.345356" lon="4.581767">
<ele>6.4</ele>
<time>2026-02-13T15:04:29Z</time>
</trkpt>
<trkpt lat="52.345348" lon="4.581765">
<ele>6.4</ele>
<time>2026-02-13T15:04:30Z</time>
</trkpt>
<trkpt lat="52.345340" lon="4.581760">
<ele>6.4</ele>
<time>2026-02-13T15:04:31Z</time>
</trkpt>
<trkpt lat="52.345333" lon="4.581754">
<ele>6.4</ele>
<time>2026-02-13T15:04:31Z</time>
</trkpt>
<trkpt lat="52.345328" lon="4.581751">
<ele>6.4</ele>
<time>2026-02-13T15:04:32Z</time>
</trkpt>
<trkpt lat="52.345320" lon="4.581748">
<ele>6.4</ele>
<time>2026-02-13T15:04:32Z</time>
</trkpt>
<trkpt lat="52.345315" lon="4.581745">
<ele>6.4</ele>
<time>2026-02-13T15:04:33Z</time>
</trkpt>
<trkpt lat="52.345307" lon="4.581744">
<ele>6.4</ele>
<time>2026-02-13T15:04:33Z</time>
</trkpt>
<trkpt lat="52.345302" lon="4.581740">
<ele>6.4</ele>
<time>2026-02-13T15:04:34Z</time>
</trkpt>
<trkpt lat="52.345293" lon="4.581736">
<ele>6.4</ele>
<time>2026-02-13T15:04:35Z</time>
</trkpt>
<trkpt lat="52.345282" lon="4.581731">
<ele>6.4</ele>
<time>2026-02-13T15:04:35Z</time>
</trkpt>
<trkpt lat="52.345269" lon="4.581725">
<ele>6.4</ele>
<time>2026-02-13T15:04:36Z</time>
</trkpt>
<trkpt lat="52.345257" lon="4.581717">
<ele>6.4</ele>
<time>2026-02-13T15:04:37Z</time>
</trkpt>
<trkpt lat="52.345245" lon="4.581707">
<ele>6.4</ele>
<time>2026-02-13T15:04:38Z</time>
</trkpt>
<trkpt lat="52.345231" lon="4.581697">
<ele>6.4</ele>
<time>2026-02-13T15:04:40Z</time>
</trkpt>
<trkpt lat="52.345219" lon="4.581691">
<ele>6.4</ele>
<time>2026-02-13T15:04:41Z</time>
</trkpt>
<trkpt lat="52.345209" lon="4.581687">
<ele>6.4</ele>
<time>2026-02-13T15:04:41Z</time>
</trkpt>
<trkpt lat="52.345197" lon="4.581680">
<ele>6.5</ele>
<time>2026-02-13T15:04:42Z</time>
</trkpt>
<trkpt lat="52.345185" lon="4.581673">
<ele>6.6</ele>
<time>2026-02-13T15:04:44Z</time>
</trkpt>
<trkpt lat="52.345174" lon="4.581671">
<ele>6.6</ele>
<time>2026-02-13T15:04:44Z</time>
</trkpt>
<trkpt lat="52.345163" lon="4.581665">
<ele>6.4</ele>
<time>2026-02-13T15:04:45Z</time>
</trkpt>
<trkpt lat="52.345149" lon="4.581656">
<ele>6.5</ele>
<time>2026-02-13T15:04:47Z</time>
</trkpt>
<trkpt lat="52.345135" lon="4.581650">
<ele>6.4</ele>
<time>2026-02-13T15:04:48Z</time>
</trkpt>
<trkpt lat="52.345123" lon="4.581644">
<ele>6.4</ele>
<time>2026-02-13T15:04:48Z</time>
</trkpt>
<trkpt lat="52.345117" lon="4.581641">
<ele>6.4</ele>
<time>2026-02-13T15:04:49Z</time>
</trkpt>
<trkpt lat="52.345110" lon="4.581638">
<ele>6.4</ele>
<time>2026-02-13T15:04:50Z</time>
</trkpt>
<trkpt lat="52.345103" lon="4.581636">
<ele>6.3</ele>
<time>2026-02-13T15:04:50Z</time>
</trkpt>
<trkpt lat="52.345097" lon="4.581633">
<ele>6.3</ele>
<time>2026-02-13T15:04:51Z</time>
</trkpt>
<trkpt lat="52.345089" lon="4.581627">
<ele>6.3</ele>
<time>2026-02-13T15:04:51Z</time>
</trkpt>
<trkpt lat="52.345079" lon="4.581613">
<ele>6.3</ele>
<time>2026-02-13T15:04:52Z</time>
</trkpt>
<trkpt lat="52.345072" lon="4.581606">
<ele>6.3</ele>
<time>2026-02-13T15:04:53Z</time>
</trkpt>
<trkpt lat="52.345066" lon="4.581601">
<ele>6.3</ele>
<time>2026-02-13T15:04:53Z</time>
</trkpt>
<trkpt lat="52.345052" lon="4.581594">
<ele>6.3</ele>
<time>2026-02-13T15:04:54Z</time>
</trkpt>
<trkpt lat="52.345040" lon="4.581591">
<ele>6.3</ele>
<time>2026-02-13T15:04:55Z</time>
</trkpt>
<trkpt lat="52.345033" lon="4.581590">
<ele>6.3</ele>
<time>2026-02-13T15:04:55Z</time>
</trkpt>
<trkpt lat="52.345026" lon="4.581588">
<ele>6.3</ele>
<time>2026-02-13T15:04:56Z</time>
</trkpt>
<trkpt lat="52.345011" lon="4.581586">
<ele>6.3</ele>
<time>2026-02-13T15:04:57Z</time>
</trkpt>
<trkpt lat="52.345003" lon="4.581586">
<ele>6.3</ele>
<time>2026-02-13T15:04:57Z</time>
</trkpt>
<trkpt lat="52.344995" lon="4.581584">
<ele>6.4</ele>
<time>2026-02-13T15:04:58Z</time>
</trkpt>
<trkpt lat="52.344987" lon="4.581582">
<ele>6.4</ele>
<time>2026-02-13T15:04:58Z</time>
</trkpt>
<trkpt lat="52.344975" lon="4.581577">
<ele>6.4</ele>
<time>2026-02-13T15:04:59Z</time>
</trkpt>
<trkpt lat="52.344967" lon="4.581576">
<ele>6.4</ele>
<time>2026-02-13T15:05:00Z</time>
</trkpt>
<trkpt lat="52.344959" lon="4.581575">
<ele>5.3</ele>
<time>2026-02-13T15:05:00Z</time>
</trkpt>
<trkpt lat="52.344953" lon="4.581574">
<ele>5.3</ele>
<time>2026-02-13T15:05:01Z</time>
</trkpt>
<trkpt lat="52.344943" lon="4.581573">
<ele>5.3</ele>
<time>2026-02-13T15:05:01Z</time>
</trkpt>
<trkpt lat="52.344936" lon="4.581574">
<ele>6.6</ele>
<time>2026-02-13T15:05:02Z</time>
</trkpt>
<trkpt lat="52.344930" lon="4.581574">
<ele>6.6</ele>
<time>2026-02-13T15:05:02Z</time>
</trkpt>
<trkpt lat="52.344923" lon="4.581576">
<ele>4.4</ele>
<time>2026-02-13T15:05:03Z</time>
</trkpt>
<trkpt lat="52.344916" lon="4.581577">
<ele>4.4</ele>
<time>2026-02-13T15:05:03Z</time>
</trkpt>
<trkpt lat="52.344910" lon="4.581576">
<ele>4.4</ele>
<time>2026-02-13T15:05:04Z</time>
</trkpt>
<trkpt lat="52.344903" lon="4.581578">
<ele>4.4</ele>
<time>2026-02-13T15:05:04Z</time>
</trkpt>
<trkpt lat="52.344897" lon="4.581582">
<ele>6.7</ele>
<time>2026-02-13T15:05:05Z</time>
</trkpt>
<trkpt lat="52.344889" lon="4.581582">
<ele>6.7</ele>
<time>2026-02-13T15:05:05Z</time>
</trkpt>
<trkpt lat="52.344883" lon="4.581585">
<ele>4.3</ele>
<time>2026-02-13T15:05:06Z</time>
</trkpt>
<trkpt lat="52.344872" lon="4.581584">
<ele>5.3</ele>
<time>2026-02-13T15:05:06Z</time>
</trkpt>
<trkpt lat="52.344862" lon="4.581583">
<ele>5.3</ele>
<time>2026-02-13T15:05:07Z</time>
</trkpt>
<trkpt lat="52.344856" lon="4.581583">
<ele>5.3</ele>
<time>2026-02-13T15:05:08Z</time>
</trkpt>
<trkpt lat="52.344845" lon="4.581579">
<ele>5.3</ele>
<time>2026-02-13T15:05:09Z</time>
</trkpt>
<trkpt lat="52.344837" lon="4.581575">
<ele>5.3</ele>
<time>2026-02-13T15:05:09Z</time>
</trkpt>
<trkpt lat="52.344830" lon="4.581572">
<ele>6.4</ele>
<time>2026-02-13T15:05:10Z</time>
</trkpt>
<trkpt lat="52.344823" lon="4.581567">
<ele>6.4</ele>
<time>2026-02-13T15:05:10Z</time>
</trkpt>
<trkpt lat="52.344814" lon="4.581562">
<ele>6.4</ele>
<time>2026-02-13T15:05:11Z</time>
</trkpt>
<trkpt lat="52.344809" lon="4.581562">
<ele>6.4</ele>
<time>2026-02-13T15:05:12Z</time>
</trkpt>
<trkpt lat="52.344807" lon="4.581558">
<ele>6.4</ele>
<time>2026-02-13T15:05:12Z</time>
</trkpt>
<trkpt lat="52.344799" lon="4.581545">
<ele>6.4</ele>
<time>2026-02-13T15:05:13Z</time>
</trkpt>
<trkpt lat="52.344795" lon="4.581538">
<ele>6.4</ele>
<time>2026-02-13T15:05:13Z</time>
</trkpt>
<trkpt lat="52.344787" lon="4.581525">
<ele>6.4</ele>
<time>2026-02-13T15:05:14Z</time>
</trkpt>
<trkpt lat="52.344782" lon="4.581515">
<ele>6.4</ele>
<time>2026-02-13T15:05:14Z</time>
</trkpt>
<trkpt lat="52.344777" lon="4.581502">
<ele>6.4</ele>
<time>2026-02-13T15:05:15Z</time>
</trkpt>
<trkpt lat="52.344772" lon="4.581492">
<ele>6.4</ele>
<time>2026-02-13T15:05:15Z</time>
</trkpt>
<trkpt lat="52.344767" lon="4.581482">
<ele>6.4</ele>
<time>2026-02-13T15:05:16Z</time>
</trkpt>
<trkpt lat="52.344765" lon="4.581478">
<ele>6.4</ele>
<time>2026-02-13T15:05:16Z</time>
</trkpt>
<trkpt lat="52.344758" lon="4.581448">
<ele>6.4</ele>
<time>2026-02-13T15:05:17Z</time>
</trkpt>
<trkpt lat="52.344761" lon="4.581433">
<ele>6.4</ele>
<time>2026-02-13T15:05:18Z</time>
</trkpt>
<trkpt lat="52.344759" lon="4.581423">
<ele>6.4</ele>
<time>2026-02-13T15:05:19Z</time>
</trkpt>
<trkpt lat="52.344758" lon="4.581412">
<ele>6.4</ele>
<time>2026-02-13T15:05:19Z</time>
</trkpt>
<trkpt lat="52.344753" lon="4.581406">
<ele>6.4</ele>
<time>2026-02-13T15:05:20Z</time>
</trkpt>
<trkpt lat="52.344750" lon="4.581398">
<ele>6.4</ele>
<time>2026-02-13T15:05:20Z</time>
</trkpt>
<trkpt lat="52.344748" lon="4.581389">
<ele>6.4</ele>
<time>2026-02-13T15:05:21Z</time>
</trkpt>
<trkpt lat="52.344738" lon="4.581370">
<ele>6.4</ele>
<time>2026-02-13T15:05:22Z</time>
</trkpt>
<trkpt lat="52.344725" lon="4.581351">
<ele>6.4</ele>
<time>2026-02-13T15:05:22Z</time>
</trkpt>
<trkpt lat="52.344717" lon="4.581338">
<ele>6.4</ele>
<time>2026-02-13T15:05:23Z</time>
</trkpt>
<trkpt lat="52.344706" lon="4.581315">
<ele>6.4</ele>
<time>2026-02-13T15:05:25Z</time>
</trkpt>
<trkpt lat="52.344699" lon="4.581295">
<ele>6.4</ele>
<time>2026-02-13T15:05:26Z</time>
</trkpt>
<trkpt lat="52.344698" lon="4.581285">
<ele>4.5</ele>
<time>2026-02-13T15:05:26Z</time>
</trkpt>
<trkpt lat="52.344695" lon="4.581274">
<ele>4.5</ele>
<time>2026-02-13T15:05:27Z</time>
</trkpt>
<trkpt lat="52.344693" lon="4.581263">
<ele>6.4</ele>
<time>2026-02-13T15:05:27Z</time>
</trkpt>
<trkpt lat="52.344688" lon="4.581243">
<ele>6.4</ele>
<time>2026-02-13T15:05:28Z</time>
</trkpt>
<trkpt lat="52.344688" lon="4.581239">
<ele>6.4</ele>
<time>2026-02-13T15:05:28Z</time>
</trkpt>
<trkpt lat="52.344686" lon="4.581229">
<ele>6.4</ele>
<time>2026-02-13T15:05:29Z</time>
</trkpt>
<trkpt lat="52.344684" lon="4.581219">
<ele>6.4</ele>
<time>2026-02-13T15:05:29Z</time>
</trkpt>
<trkpt lat="52.344681" lon="4.581205">
<ele>6.4</ele>
<time>2026-02-13T15:05:30Z</time>
</trkpt>
<trkpt lat="52.344678" lon="4.581183">
<ele>6.4</ele>
<time>2026-02-13T15:05:30Z</time>
</trkpt>
<trkpt lat="52.344674" lon="4.581171">
<ele>4.4</ele>
<time>2026-02-13T15:05:31Z</time>
</trkpt>
<trkpt lat="52.344671" lon="4.581159">
<ele>4.4</ele>
<time>2026-02-13T15:05:31Z</time>
</trkpt>
<trkpt lat="52.344665" lon="4.581139">
<ele>4.8</ele>
<time>2026-02-13T15:05:32Z</time>
</trkpt>
<trkpt lat="52.344658" lon="4.581116">
<ele>5.7</ele>
<time>2026-02-13T15:05:33Z</time>
</trkpt>
<trkpt lat="52.344653" lon="4.581094">
<ele>5.8</ele>
<time>2026-02-13T15:05:34Z</time>
</trkpt>
<trkpt lat="52.344648" lon="4.581082">
<ele>5.8</ele>
<time>2026-02-13T15:05:35Z</time>
</trkpt>
<trkpt lat="52.344644" lon="4.581070">
<ele>5.8</ele>
<time>2026-02-13T15:05:35Z</time>
</trkpt>
<trkpt lat="52.344640" lon="4.581062">
<ele>4.7</ele>
<time>2026-02-13T15:05:36Z</time>
</trkpt>
<trkpt lat="52.344636" lon="4.581051">
<ele>4.7</ele>
<time>2026-02-13T15:05:36Z</time>
</trkpt>
<trkpt lat="52.344633" lon="4.581042">
<ele>4.7</ele>
<time>2026-02-13T15:05:37Z</time>
</trkpt>
<trkpt lat="52.344628" lon="4.581025">
<ele>4.8</ele>
<time>2026-02-13T15:05:38Z</time>
</trkpt>
<trkpt lat="52.344621" lon="4.581006">
<ele>6.0</ele>
<time>2026-02-13T15:05:39Z</time>
</trkpt>
<trkpt lat="52.344615" lon="4.580994">
<ele>3.8</ele>
<time>2026-02-13T15:05:39Z</time>
</trkpt>
<trkpt lat="52.344610" lon="4.580983">
<ele>5.9</ele>
<time>2026-02-13T15:05:40Z</time>
</trkpt>
<trkpt lat="52.344604" lon="4.580974">
<ele>6.4</ele>
<time>2026-02-13T15:05:41Z</time>
</trkpt>
<trkpt lat="52.344596" lon="4.580958">
<ele>6.4</ele>
<time>2026-02-13T15:05:41Z</time>
</trkpt>
<trkpt lat="52.344590" lon="4.580945">
<ele>6.4</ele>
<time>2026-02-13T15:05:42Z</time>
</trkpt>
<trkpt lat="52.344587" lon="4.580931">
<ele>4.8</ele>
<time>2026-02-13T15:05:43Z</time>
</trkpt>
<trkpt lat="52.344583" lon="4.580912">
<ele>4.8</ele>
<time>2026-02-13T15:05:43Z</time>
</trkpt>
<trkpt lat="52.344580" lon="4.580900">
<ele>4.8</ele>
<time>2026-02-13T15:05:44Z</time>
</trkpt>
<trkpt lat="52.344577" lon="4.580888">
<ele>4.8</ele>
<time>2026-02-13T15:05:44Z</time>
</trkpt>
<trkpt lat="52.344569" lon="4.580855">
<ele>6.2</ele>
<time>2026-02-13T15:05:46Z</time>
</trkpt>
<trkpt lat="52.344564" lon="4.580841">
<ele>6.4</ele>
<time>2026-02-13T15:05:46Z</time>
</trkpt>
<trkpt lat="52.344559" lon="4.580833">
<ele>6.0</ele>
<time>2026-02-13T15:05:47Z</time>
</trkpt>
<trkpt lat="52.344555" lon="4.580822">
<ele>6.0</ele>
<time>2026-02-13T15:05:47Z</time>
</trkpt>
<trkpt lat="52.344546" lon="4.580803">
<ele>6.4</ele>
<time>2026-02-13T15:05:48Z</time>
</trkpt>
<trkpt lat="52.344537" lon="4.580779">
<ele>4.8</ele>
<time>2026-02-13T15:05:49Z</time>
</trkpt>
<trkpt lat="52.344531" lon="4.580765">
<ele>4.8</ele>
<time>2026-02-13T15:05:50Z</time>
</trkpt>
<trkpt lat="52.344527" lon="4.580750">
<ele>4.8</ele>
<time>2026-02-13T15:05:51Z</time>
</trkpt>
<trkpt lat="52.344520" lon="4.580725">
<ele>4.7</ele>
<time>2026-02-13T15:05:52Z</time>
</trkpt>
<trkpt lat="52.344511" lon="4.580706">
<ele>4.7</ele>
<time>2026-02-13T15:05:53Z</time>
</trkpt>
<trkpt lat="52.344505" lon="4.580700">
<ele>6.4</ele>
<time>2026-02-13T15:05:53Z</time>
</trkpt>
<trkpt lat="52.344494" lon="4.580693">
<ele>6.4</ele>
<time>2026-02-13T15:05:54Z</time>
</trkpt>
<trkpt lat="52.344483" lon="4.580684">
<ele>6.4</ele>
<time>2026-02-13T15:05:55Z</time>
</trkpt>
<trkpt lat="52.344475" lon="4.580674">
<ele>6.4</ele>
<time>2026-02-13T15:05:55Z</time>
</trkpt>
<trkpt lat="52.344463" lon="4.580656">
<ele>3.7</ele>
<time>2026-02-13T15:05:56Z</time>
</trkpt>
<trkpt lat="52.344459" lon="4.580644">
<ele>4.6</ele>
<time>2026-02-13T15:05:57Z</time>
</trkpt>
<trkpt lat="52.344454" lon="4.580634">
<ele>4.6</ele>
<time>2026-02-13T15:05:57Z</time>
</trkpt>
<trkpt lat="52.344448" lon="4.580624">
<ele>4.6</ele>
<time>2026-02-13T15:05:58Z</time>
</trkpt>
<trkpt lat="52.344439" lon="4.580601">
<ele>4.6</ele>
<time>2026-02-13T15:05:59Z</time>
</trkpt>
<trkpt lat="52.344437" lon="4.580587">
<ele>4.6</ele>
<time>2026-02-13T15:05:59Z</time>
</trkpt>
<trkpt lat="52.344435" lon="4.580566">
<ele>1.1</ele>
<time>2026-02-13T15:06:00Z</time>
</trkpt>
<trkpt lat="52.344433" lon="4.580541">
<ele>1.1</ele>
<time>2026-02-13T15:06:01Z</time>
</trkpt>
<trkpt lat="52.344431" lon="4.580519">
<ele>1.1</ele>
<time>2026-02-13T15:06:01Z</time>
</trkpt>
<trkpt lat="52.344430" lon="4.580494">
<ele>0.6</ele>
<time>2026-02-13T15:06:02Z</time>
</trkpt>
<trkpt lat="52.344430" lon="4.580480">
<ele>-0.2</ele>
<time>2026-02-13T15:06:03Z</time>
</trkpt>
<trkpt lat="52.344427" lon="4.580467">
<ele>-0.2</ele>
<time>2026-02-13T15:06:03Z</time>
</trkpt>
<trkpt lat="52.344426" lon="4.580454">
<ele>-0.4</ele>
<time>2026-02-13T15:06:04Z</time>
</trkpt>
<trkpt lat="52.344424" lon="4.580440">
<ele>-0.4</ele>
<time>2026-02-13T15:06:04Z</time>
</trkpt>
<trkpt lat="52.344424" lon="4.580428">
<ele>4.2</ele>
<time>2026-02-13T15:06:05Z</time>
</trkpt>
<trkpt lat="52.344422" lon="4.580415">
<ele>4.2</ele>
<time>2026-02-13T15:06:05Z</time>
</trkpt>
<trkpt lat="52.344422" lon="4.580403">
<ele>4.6</ele>
<time>2026-02-13T15:06:06Z</time>
</trkpt>
<trkpt lat="52.344418" lon="4.580374">
<ele>4.6</ele>
<time>2026-02-13T15:06:07Z</time>
</trkpt>
<trkpt lat="52.344419" lon="4.580364">
<ele>5.7</ele>
<time>2026-02-13T15:06:07Z</time>
</trkpt>
<trkpt lat="52.344418" lon="4.580343">
<ele>5.8</ele>
<time>2026-02-13T15:06:08Z</time>
</trkpt>
<trkpt lat="52.344417" lon="4.580333">
<ele>3.6</ele>
<time>2026-02-13T15:06:09Z</time>
</trkpt>
<trkpt lat="52.344415" lon="4.580322">
<ele>3.6</ele>
<time>2026-02-13T15:06:09Z</time>
</trkpt>
<trkpt lat="52.344414" lon="4.580311">
<ele>-0.1</ele>
<time>2026-02-13T15:06:10Z</time>
</trkpt>
<trkpt lat="52.344411" lon="4.580300">
<ele>-0.1</ele>
<time>2026-02-13T15:06:10Z</time>
</trkpt>
<trkpt lat="52.344409" lon="4.580288">
<ele>-0.1</ele>
<time>2026-02-13T15:06:11Z</time>
</trkpt>
<trkpt lat="52.344402" lon="4.580261">
<ele>-0.1</ele>
<time>2026-02-13T15:06:12Z</time>
</trkpt>
<trkpt lat="52.344397" lon="4.580240">
<ele>0.7</ele>
<time>2026-02-13T15:06:13Z</time>
</trkpt>
<trkpt lat="52.344391" lon="4.580218">
<ele>4.6</ele>
<time>2026-02-13T15:06:14Z</time>
</trkpt>
<trkpt lat="52.344390" lon="4.580207">
<ele>1.0</ele>
<time>2026-02-13T15:06:14Z</time>
</trkpt>
<trkpt lat="52.344388" lon="4.580189">
<ele>3.2</ele>
<time>2026-02-13T15:06:15Z</time>
</trkpt>
<trkpt lat="52.344384" lon="4.580174">
<ele>3.2</ele>
<time>2026-02-13T15:06:16Z</time>
</trkpt>
<trkpt lat="52.344377" lon="4.580152">
<ele>0.0</ele>
<time>2026-02-13T15:06:17Z</time>
</trkpt>
<trkpt lat="52.344369" lon="4.580134">
<ele>0.0</ele>
<time>2026-02-13T15:06:17Z</time>
</trkpt>
<trkpt lat="52.344365" lon="4.580123">
<ele>-1.1</ele>
<time>2026-02-13T15:06:18Z</time>
</trkpt>
<trkpt lat="52.344361" lon="4.580110">
<ele>0.9</ele>
<time>2026-02-13T15:06:19Z</time>
</trkpt>
<trkpt lat="52.344348" lon="4.580088">
<ele>0.9</ele>
<time>2026-02-13T15:06:20Z</time>
</trkpt>
<trkpt lat="52.344345" lon="4.580069">
<ele>-0.2</ele>
<time>2026-02-13T15:06:21Z</time>
</trkpt>
<trkpt lat="52.344339" lon="4.580042">
<ele>-0.2</ele>
<time>2026-02-13T15:06:22Z</time>
</trkpt>
<trkpt lat="52.344341" lon="4.580022">
<ele>4.5</ele>
<time>2026-02-13T15:06:23Z</time>
</trkpt>
<trkpt lat="52.344340" lon="4.580000">
<ele>4.5</ele>
<time>2026-02-13T15:06:23Z</time>
</trkpt>
<trkpt lat="52.344337" lon="4.579975">
<ele>-0.1</ele>
<time>2026-02-13T15:06:25Z</time>
</trkpt>
<trkpt lat="52.344333" lon="4.579956">
<ele>-0.1</ele>
<time>2026-02-13T15:06:25Z</time>
</trkpt>
<trkpt lat="52.344329" lon="4.579929">
<ele>-1.2</ele>
<time>2026-02-13T15:06:27Z</time>
</trkpt>
<trkpt lat="52.344322" lon="4.579901">
<ele>-1.2</ele>
<time>2026-02-13T15:06:28Z</time>
</trkpt>
<trkpt lat="52.344319" lon="4.579885">
<ele>-1.2</ele>
<time>2026-02-13T15:06:28Z</time>
</trkpt>
<trkpt lat="52.344316" lon="4.579866">
<ele>-1.6</ele>
<time>2026-02-13T15:06:29Z</time>
</trkpt>
<trkpt lat="52.344315" lon="4.579855">
<ele>-0.6</ele>
<time>2026-02-13T15:06:30Z</time>
</trkpt>
<trkpt lat="52.344312" lon="4.579835">
<ele>0.8</ele>
<time>2026-02-13T15:06:31Z</time>
</trkpt>
<trkpt lat="52.344306" lon="4.579808">
<ele>0.8</ele>
<time>2026-02-13T15:06:32Z</time>
</trkpt>
<trkpt lat="52.344303" lon="4.579784">
<ele>0.5</ele>
<time>2026-02-13T15:06:33Z</time>
</trkpt>
<trkpt lat="52.344303" lon="4.579767">
<ele>-0.8</ele>
<time>2026-02-13T15:06:34Z</time>
</trkpt>
<trkpt lat="52.344303" lon="4.579753">
<ele>-0.8</ele>
<time>2026-02-13T15:06:34Z</time>
</trkpt>
<trkpt lat="52.344304" lon="4.579743">
<ele>-0.7</ele>
<time>2026-02-13T15:06:35Z</time>
</trkpt>
<trkpt lat="52.344303" lon="4.579725">
<ele>-0.7</ele>
<time>2026-02-13T15:06:35Z</time>
</trkpt>
<trkpt lat="52.344300" lon="4.579698">
<ele>-1.1</ele>
<time>2026-02-13T15:06:37Z</time>
</trkpt>
<trkpt lat="52.344297" lon="4.579675">
<ele>-1.5</ele>
<time>2026-02-13T15:06:38Z</time>
</trkpt>
<trkpt lat="52.344296" lon="4.579660">
<ele>-1.5</ele>
<time>2026-02-13T15:06:38Z</time>
</trkpt>
<trkpt lat="52.344295" lon="4.579622">
<ele>-0.6</ele>
<time>2026-02-13T15:06:40Z</time>
</trkpt>
<trkpt lat="52.344296" lon="4.579601">
<ele>-0.4</ele>
<time>2026-02-13T15:06:41Z</time>
</trkpt>
<trkpt lat="52.344296" lon="4.579587">
<ele>0.9</ele>
<time>2026-02-13T15:06:41Z</time>
</trkpt>
<trkpt lat="52.344295" lon="4.579548">
<ele>-0.2</ele>
<time>2026-02-13T15:06:43Z</time>
</trkpt>
<trkpt lat="52.344292" lon="4.579529">
<ele>-0.2</ele>
<time>2026-02-13T15:06:44Z</time>
</trkpt>
<trkpt lat="52.344284" lon="4.579508">
<ele>-1.1</ele>
<time>2026-02-13T15:06:45Z</time>
</trkpt>
<trkpt lat="52.344278" lon="4.579497">
<ele>-1.2</ele>
<time>2026-02-13T15:06:45Z</time>
</trkpt>
<trkpt lat="52.344268" lon="4.579467">
<ele>-1.6</ele>
<time>2026-02-13T15:06:47Z</time>
</trkpt>
<trkpt lat="52.344266" lon="4.579454">
<ele>-1.6</ele>
<time>2026-02-13T15:06:47Z</time>
</trkpt>
<trkpt lat="52.344263" lon="4.579434">
<ele>-1.1</ele>
<time>2026-02-13T15:06:48Z</time>
</trkpt>
<trkpt lat="52.344257" lon="4.579398">
<ele>-1.8</ele>
<time>2026-02-13T15:06:50Z</time>
</trkpt>
<trkpt lat="52.344258" lon="4.579384">
<ele>-2.2</ele>
<time>2026-02-13T15:06:50Z</time>
</trkpt>
<trkpt lat="52.344258" lon="4.579352">
<ele>-1.7</ele>
<time>2026-02-13T15:06:52Z</time>
</trkpt>
<trkpt lat="52.344258" lon="4.579340">
<ele>-1.4</ele>
<time>2026-02-13T15:06:52Z</time>
</trkpt>
<trkpt lat="52.344258" lon="4.579331">
<ele>-1.5</ele>
<time>2026-02-13T15:06:53Z</time>
</trkpt>
<trkpt lat="52.344256" lon="4.579320">
<ele>-1.5</ele>
<time>2026-02-13T15:06:53Z</time>
</trkpt>
<trkpt lat="52.344255" lon="4.579310">
<ele>-1.2</ele>
<time>2026-02-13T15:06:54Z</time>
</trkpt>
<trkpt lat="52.344252" lon="4.579293">
<ele>-1.3</ele>
<time>2026-02-13T15:06:55Z</time>
</trkpt>
<trkpt lat="52.344247" lon="4.579271">
<ele>-1.3</ele>
<time>2026-02-13T15:06:56Z</time>
</trkpt>
<trkpt lat="52.344241" lon="4.579249">
<ele>-1.6</ele>
<time>2026-02-13T15:06:57Z</time>
</trkpt>
<trkpt lat="52.344237" lon="4.579232">
<ele>-1.6</ele>
<time>2026-02-13T15:06:57Z</time>
</trkpt>
<trkpt lat="52.344232" lon="4.579212">
<ele>-0.9</ele>
<time>2026-02-13T15:06:58Z</time>
</trkpt>
<trkpt lat="52.344228" lon="4.579191">
<ele>-1.8</ele>
<time>2026-02-13T15:06:59Z</time>
</trkpt>
<trkpt lat="52.344224" lon="4.579166">
<ele>-1.7</ele>
<time>2026-02-13T15:07:00Z</time>
</trkpt>
<trkpt lat="52.344222" lon="4.579144">
<ele>-1.8</ele>
<time>2026-02-13T15:07:01Z</time>
</trkpt>
<trkpt lat="52.344223" lon="4.579132">
<ele>-1.8</ele>
<time>2026-02-13T15:07:02Z</time>
</trkpt>
<trkpt lat="52.344219" lon="4.579108">
<ele>-1.8</ele>
<time>2026-02-13T15:07:02Z</time>
</trkpt>
<trkpt lat="52.344221" lon="4.579104">
<ele>-1.6</ele>
<time>2026-02-13T15:07:03Z</time>
</trkpt>
<trkpt lat="52.344217" lon="4.579080">
<ele>-1.6</ele>
<time>2026-02-13T15:07:04Z</time>
</trkpt>
<trkpt lat="52.344216" lon="4.579056">
<ele>-1.6</ele>
<time>2026-02-13T15:07:05Z</time>
</trkpt>
<trkpt lat="52.344216" lon="4.579047">
<ele>-1.6</ele>
<time>2026-02-13T15:07:05Z</time>
</trkpt>
<trkpt lat="52.344215" lon="4.579025">
<ele>-1.2</ele>
<time>2026-02-13T15:07:06Z</time>
</trkpt>
<trkpt lat="52.344214" lon="4.579003">
<ele>-1.7</ele>
<time>2026-02-13T15:07:07Z</time>
</trkpt>
<trkpt lat="52.344208" lon="4.578977">
<ele>-1.8</ele>
<time>2026-02-13T15:07:09Z</time>
</trkpt>
<trkpt lat="52.344205" lon="4.578962">
<ele>-1.8</ele>
<time>2026-02-13T15:07:09Z</time>
</trkpt>
<trkpt lat="52.344200" lon="4.578941">
<ele>-1.7</ele>
<time>2026-02-13T15:07:10Z</time>
</trkpt>
<trkpt lat="52.344197" lon="4.578932">
<ele>-1.6</ele>
<time>2026-02-13T15:07:11Z</time>
</trkpt>
<trkpt lat="52.344192" lon="4.578911">
<ele>-1.6</ele>
<time>2026-02-13T15:07:12Z</time>
</trkpt>
<trkpt lat="52.344186" lon="4.578888">
<ele>-1.4</ele>
<time>2026-02-13T15:07:13Z</time>
</trkpt>
<trkpt lat="52.344184" lon="4.578871">
<ele>-1.4</ele>
<time>2026-02-13T15:07:13Z</time>
</trkpt>
<trkpt lat="52.344184" lon="4.578858">
<ele>-1.4</ele>
<time>2026-02-13T15:07:14Z</time>
</trkpt>
<trkpt lat="52.344182" lon="4.578839">
<ele>-1.3</ele>
<time>2026-02-13T15:07:15Z</time>
</trkpt>
<trkpt lat="52.344183" lon="4.578817">
<ele>-1.8</ele>
<time>2026-02-13T15:07:16Z</time>
</trkpt>
<trkpt lat="52.344184" lon="4.578803">
<ele>-1.8</ele>
<time>2026-02-13T15:07:16Z</time>
</trkpt>
<trkpt lat="52.344183" lon="4.578793">
<ele>-1.8</ele>
<time>2026-02-13T15:07:17Z</time>
</trkpt>
<trkpt lat="52.344186" lon="4.578780">
<ele>-1.8</ele>
<time>2026-02-13T15:07:17Z</time>
</trkpt>
<trkpt lat="52.344185" lon="4.578770">
<ele>-1.4</ele>
<time>2026-02-13T15:07:18Z</time>
</trkpt>
<trkpt lat="52.344186" lon="4.578758">
<ele>-1.4</ele>
<time>2026-02-13T15:07:18Z</time>
</trkpt>
<trkpt lat="52.344185" lon="4.578748">
<ele>-1.4</ele>
<time>2026-02-13T15:07:19Z</time>
</trkpt>
<trkpt lat="52.344189" lon="4.578723">
<ele>-1.4</ele>
<time>2026-02-13T15:07:20Z</time>
</trkpt>
<trkpt lat="52.344187" lon="4.578712">
<ele>-1.4</ele>
<time>2026-02-13T15:07:20Z</time>
</trkpt>
<trkpt lat="52.344185" lon="4.578700">
<ele>-1.5</ele>
<time>2026-02-13T15:07:21Z</time>
</trkpt>
<trkpt lat="52.344185" lon="4.578690">
<ele>-1.5</ele>
<time>2026-02-13T15:07:21Z</time>
</trkpt>
<trkpt lat="52.344187" lon="4.578678">
<ele>-1.5</ele>
<time>2026-02-13T15:07:22Z</time>
</trkpt>
<trkpt lat="52.344185" lon="4.578666">
<ele>-1.5</ele>
<time>2026-02-13T15:07:22Z</time>
</trkpt>
<trkpt lat="52.344186" lon="4.578655">
<ele>-1.5</ele>
<time>2026-02-13T15:07:23Z</time>
</trkpt>
<trkpt lat="52.344186" lon="4.578632">
<ele>-1.4</ele>
<time>2026-02-13T15:07:24Z</time>
</trkpt>
<trkpt lat="52.344183" lon="4.578620">
<ele>-1.3</ele>
<time>2026-02-13T15:07:24Z</time>
</trkpt>
<trkpt lat="52.344185" lon="4.578608">
<ele>-1.3</ele>
<time>2026-02-13T15:07:25Z</time>
</trkpt>
<trkpt lat="52.344186" lon="4.578591">
<ele>-1.0</ele>
<time>2026-02-13T15:07:25Z</time>
</trkpt>
<trkpt lat="52.344188" lon="4.578565">
<ele>-1.2</ele>
<time>2026-02-13T15:07:26Z</time>
</trkpt>
<trkpt lat="52.344187" lon="4.578547">
<ele>-1.2</ele>
<time>2026-02-13T15:07:27Z</time>
</trkpt>
<trkpt lat="52.344185" lon="4.578537">
<ele>-0.8</ele>
<time>2026-02-13T15:07:28Z</time>
</trkpt>
<trkpt lat="52.344185" lon="4.578525">
<ele>-0.8</ele>
<time>2026-02-13T15:07:28Z</time>
</trkpt>
<trkpt lat="52.344187" lon="4.578513">
<ele>-0.8</ele>
<time>2026-02-13T15:07:29Z</time>
</trkpt>
<trkpt lat="52.344186" lon="4.578501">
<ele>-1.7</ele>
<time>2026-02-13T15:07:29Z</time>
</trkpt>
<trkpt lat="52.344186" lon="4.578488">
<ele>-1.7</ele>
<time>2026-02-13T15:07:30Z</time>
</trkpt>
<trkpt lat="52.344183" lon="4.578478">
<ele>-1.4</ele>
<time>2026-02-13T15:07:30Z</time>
</trkpt>
<trkpt lat="52.344184" lon="4.578465">
<ele>-1.4</ele>
<time>2026-02-13T15:07:31Z</time>
</trkpt>
<trkpt lat="52.344180" lon="4.578452">
<ele>-1.4</ele>
<time>2026-02-13T15:07:31Z</time>
</trkpt>
<trkpt lat="52.344177" lon="4.578441">
<ele>-2.4</ele>
<time>2026-02-13T15:07:32Z</time>
</trkpt>
<trkpt lat="52.344175" lon="4.578418">
<ele>-2.4</ele>
<time>2026-02-13T15:07:33Z</time>
</trkpt>
<trkpt lat="52.344171" lon="4.578393">
<ele>-1.6</ele>
<time>2026-02-13T15:07:34Z</time>
</trkpt>
<trkpt lat="52.344165" lon="4.578371">
<ele>-1.2</ele>
<time>2026-02-13T15:07:35Z</time>
</trkpt>
<trkpt lat="52.344160" lon="4.578360">
<ele>-1.0</ele>
<time>2026-02-13T15:07:35Z</time>
</trkpt>
<trkpt lat="52.344157" lon="4.578351">
<ele>-1.2</ele>
<time>2026-02-13T15:07:36Z</time>
</trkpt>
<trkpt lat="52.344155" lon="4.578337">
<ele>-1.2</ele>
<time>2026-02-13T15:07:36Z</time>
</trkpt>
<trkpt lat="52.344152" lon="4.578327">
<ele>-1.1</ele>
<time>2026-02-13T15:07:37Z</time>
</trkpt>
<trkpt lat="52.344150" lon="4.578312">
<ele>-1.1</ele>
<time>2026-02-13T15:07:37Z</time>
</trkpt>
<trkpt lat="52.344143" lon="4.578283">
<ele>-0.3</ele>
<time>2026-02-13T15:07:39Z</time>
</trkpt>
<trkpt lat="52.344137" lon="4.578265">
<ele>-0.3</ele>
<time>2026-02-13T15:07:39Z</time>
</trkpt>
<trkpt lat="52.344130" lon="4.578249">
<ele>-0.8</ele>
<time>2026-02-13T15:07:40Z</time>
</trkpt>
<trkpt lat="52.344122" lon="4.578230">
<ele>-0.1</ele>
<time>2026-02-13T15:07:41Z</time>
</trkpt>
<trkpt lat="52.344121" lon="4.578219">
<ele>-0.6</ele>
<time>2026-02-13T15:07:42Z</time>
</trkpt>
<trkpt lat="52.344118" lon="4.578208">
<ele>-0.6</ele>
<time>2026-02-13T15:07:42Z</time>
</trkpt>
<trkpt lat="52.344117" lon="4.578197">
<ele>-0.4</ele>
<time>2026-02-13T15:07:43Z</time>
</trkpt>
<trkpt lat="52.344115" lon="4.578185">
<ele>-0.4</ele>
<time>2026-02-13T15:07:43Z</time>
</trkpt>
<trkpt lat="52.344114" lon="4.578175">
<ele>-1.3</ele>
<time>2026-02-13T15:07:44Z</time>
</trkpt>
<trkpt lat="52.344111" lon="4.578163">
<ele>-1.3</ele>
<time>2026-02-13T15:07:44Z</time>
</trkpt>
<trkpt lat="52.344110" lon="4.578152">
<ele>-1.2</ele>
<time>2026-02-13T15:07:45Z</time>
</trkpt>
<trkpt lat="52.344106" lon="4.578133">
<ele>-0.9</ele>
<time>2026-02-13T15:07:46Z</time>
</trkpt>
<trkpt lat="52.344102" lon="4.578117">
<ele>-0.9</ele>
<time>2026-02-13T15:07:46Z</time>
</trkpt>
<trkpt lat="52.344099" lon="4.578094">
<ele>-0.3</ele>
<time>2026-02-13T15:07:47Z</time>
</trkpt>
<trkpt lat="52.344098" lon="4.578083">
<ele>-0.4</ele>
<time>2026-02-13T15:07:48Z</time>
</trkpt>
<trkpt lat="52.344096" lon="4.578069">
<ele>-0.4</ele>
<time>2026-02-13T15:07:48Z</time>
</trkpt>
<trkpt lat="52.344094" lon="4.578041">
<ele>-0.8</ele>
<time>2026-02-13T15:07:50Z</time>
</trkpt>
<trkpt lat="52.344092" lon="4.578018">
<ele>-0.3</ele>
<time>2026-02-13T15:07:51Z</time>
</trkpt>
<trkpt lat="52.344090" lon="4.578001">
<ele>-0.3</ele>
<time>2026-02-13T15:07:51Z</time>
</trkpt>
<trkpt lat="52.344088" lon="4.577992">
<ele>-0.1</ele>
<time>2026-02-13T15:07:52Z</time>
</trkpt>
<trkpt lat="52.344086" lon="4.577976">
<ele>-0.1</ele>
<time>2026-02-13T15:07:52Z</time>
</trkpt>
<trkpt lat="52.344085" lon="4.577969">
<ele>0.1</ele>
<time>2026-02-13T15:07:53Z</time>
</trkpt>
<trkpt lat="52.344083" lon="4.577957">
<ele>0.1</ele>
<time>2026-02-13T15:07:53Z</time>
</trkpt>
<trkpt lat="52.344079" lon="4.577936">
<ele>0.3</ele>
<time>2026-02-13T15:07:54Z</time>
</trkpt>
<trkpt lat="52.344076" lon="4.577927">
<ele>0.0</ele>
<time>2026-02-13T15:07:55Z</time>
</trkpt>
<trkpt lat="52.344074" lon="4.577915">
<ele>0.0</ele>
<time>2026-02-13T15:07:55Z</time>
</trkpt>
<trkpt lat="52.344072" lon="4.577904">
<ele>0.4</ele>
<time>2026-02-13T15:07:56Z</time>
</trkpt>
<trkpt lat="52.344070" lon="4.577891">
<ele>0.4</ele>
<time>2026-02-13T15:07:56Z</time>
</trkpt>
<trkpt lat="52.344067" lon="4.577880">
<ele>0.0</ele>
<time>2026-02-13T15:07:57Z</time>
</trkpt>
<trkpt lat="52.344065" lon="4.577868">
<ele>0.0</ele>
<time>2026-02-13T15:07:57Z</time>
</trkpt>
<trkpt lat="52.344062" lon="4.577857">
<ele>0.5</ele>
<time>2026-02-13T15:07:58Z</time>
</trkpt>
<trkpt lat="52.344060" lon="4.577844">
<ele>0.5</ele>
<time>2026-02-13T15:07:58Z</time>
</trkpt>
<trkpt lat="52.344058" lon="4.577832">
<ele>1.4</ele>
<time>2026-02-13T15:07:59Z</time>
</trkpt>
<trkpt lat="52.344056" lon="4.577819">
<ele>1.4</ele>
<time>2026-02-13T15:07:59Z</time>
</trkpt>
<trkpt lat="52.344053" lon="4.577796">
<ele>1.1</ele>
<time>2026-02-13T15:08:00Z</time>
</trkpt>
<trkpt lat="52.344051" lon="4.577785">
<ele>0.7</ele>
<time>2026-02-13T15:08:01Z</time>
</trkpt>
<trkpt lat="52.344049" lon="4.577772">
<ele>0.7</ele>
<time>2026-02-13T15:08:01Z</time>
</trkpt>
<trkpt lat="52.344046" lon="4.577756">
<ele>0.9</ele>
<time>2026-02-13T15:08:02Z</time>
</trkpt>
<trkpt lat="52.344044" lon="4.577745">
<ele>1.2</ele>
<time>2026-02-13T15:08:03Z</time>
</trkpt>
<trkpt lat="52.344042" lon="4.577724">
<ele>1.2</ele>
<time>2026-02-13T15:08:03Z</time>
</trkpt>
<trkpt lat="52.344040" lon="4.577712">
<ele>1.8</ele>
<time>2026-02-13T15:08:04Z</time>
</trkpt>
<trkpt lat="52.344039" lon="4.577701">
<ele>1.8</ele>
<time>2026-02-13T15:08:04Z</time>
</trkpt>
<trkpt lat="52.344036" lon="4.577685">
<ele>2.2</ele>
<time>2026-02-13T15:08:05Z</time>
</trkpt>
<trkpt lat="52.344033" lon="4.577675">
<ele>2.3</ele>
<time>2026-02-13T15:08:06Z</time>
</trkpt>
<trkpt lat="52.344027" lon="4.577651">
<ele>2.3</ele>
<time>2026-02-13T15:08:06Z</time>
</trkpt>
<trkpt lat="52.344026" lon="4.577649">
<ele>2.5</ele>
<time>2026-02-13T15:08:07Z</time>
</trkpt>
<trkpt lat="52.344023" lon="4.577640">
<ele>2.5</ele>
<time>2026-02-13T15:08:07Z</time>
</trkpt>
<trkpt lat="52.344019" lon="4.577624">
<ele>2.2</ele>
<time>2026-02-13T15:08:08Z</time>
</trkpt>
<trkpt lat="52.344012" lon="4.577604">
<ele>2.3</ele>
<time>2026-02-13T15:08:09Z</time>
</trkpt>
<trkpt lat="52.344006" lon="4.577590">
<ele>2.5</ele>
<time>2026-02-13T15:08:09Z</time>
</trkpt>
<trkpt lat="52.343999" lon="4.577584">
<ele>2.5</ele>
<time>2026-02-13T15:08:10Z</time>
</trkpt>
<trkpt lat="52.343992" lon="4.577576">
<ele>2.8</ele>
<time>2026-02-13T15:08:11Z</time>
</trkpt>
<trkpt lat="52.343978" lon="4.577563">
<ele>3.2</ele>
<time>2026-02-13T15:08:12Z</time>
</trkpt>
<trkpt lat="52.343968" lon="4.577550">
<ele>3.2</ele>
<time>2026-02-13T15:08:13Z</time>
</trkpt>
<trkpt lat="52.343960" lon="4.577548">
<ele>3.4</ele>
<time>2026-02-13T15:08:13Z</time>
</trkpt>
<trkpt lat="52.343953" lon="4.577542">
<ele>3.4</ele>
<time>2026-02-13T15:08:13Z</time>
</trkpt>
<trkpt lat="52.343947" lon="4.577537">
<ele>2.9</ele>
<time>2026-02-13T15:08:14Z</time>
</trkpt>
<trkpt lat="52.343939" lon="4.577530">
<ele>2.9</ele>
<time>2026-02-13T15:08:15Z</time>
</trkpt>
<trkpt lat="52.343927" lon="4.577514">
<ele>3.5</ele>
<time>2026-02-13T15:08:16Z</time>
</trkpt>
<trkpt lat="52.343914" lon="4.577500">
<ele>3.5</ele>
<time>2026-02-13T15:08:17Z</time>
</trkpt>
<trkpt lat="52.343901" lon="4.577485">
<ele>3.3</ele>
<time>2026-02-13T15:08:18Z</time>
</trkpt>
<trkpt lat="52.343892" lon="4.577472">
<ele>3.3</ele>
<time>2026-02-13T15:08:18Z</time>
</trkpt>
<trkpt lat="52.343889" lon="4.577462">
<ele>3.3</ele>
<time>2026-02-13T15:08:19Z</time>
</trkpt>
<trkpt lat="52.343884" lon="4.577448">
<ele>3.1</ele>
<time>2026-02-13T15:08:20Z</time>
</trkpt>
<trkpt lat="52.343876" lon="4.577431">
<ele>3.1</ele>
<time>2026-02-13T15:08:20Z</time>
</trkpt>
<trkpt lat="52.343871" lon="4.577423">
<ele>3.1</ele>
<time>2026-02-13T15:08:21Z</time>
</trkpt>
<trkpt lat="52.343865" lon="4.577415">
<ele>3.1</ele>
<time>2026-02-13T15:08:21Z</time>
</trkpt>
<trkpt lat="52.343859" lon="4.577408">
<ele>3.4</ele>
<time>2026-02-13T15:08:22Z</time>
</trkpt>
<trkpt lat="52.343854" lon="4.577399">
<ele>3.4</ele>
<time>2026-02-13T15:08:22Z</time>
</trkpt>
<trkpt lat="52.343848" lon="4.577393">
<ele>3.4</ele>
<time>2026-02-13T15:08:23Z</time>
</trkpt>
<trkpt lat="52.343843" lon="4.577384">
<ele>3.4</ele>
<time>2026-02-13T15:08:23Z</time>
</trkpt>
<trkpt lat="52.343837" lon="4.577376">
<ele>3.4</ele>
<time>2026-02-13T15:08:24Z</time>
</trkpt>
<trkpt lat="52.343827" lon="4.577361">
<ele>3.8</ele>
<time>2026-02-13T15:08:25Z</time>
</trkpt>
<trkpt lat="52.343820" lon="4.577350">
<ele>3.8</ele>
<time>2026-02-13T15:08:25Z</time>
</trkpt>
<trkpt lat="52.343814" lon="4.577341">
<ele>3.8</ele>
<time>2026-02-13T15:08:26Z</time>
</trkpt>
<trkpt lat="52.343806" lon="4.577327">
<ele>3.3</ele>
<time>2026-02-13T15:08:27Z</time>
</trkpt>
<trkpt lat="52.343797" lon="4.577315">
<ele>3.3</ele>
<time>2026-02-13T15:08:27Z</time>
</trkpt>
<trkpt lat="52.343790" lon="4.577308">
<ele>3.3</ele>
<time>2026-02-13T15:08:28Z</time>
</trkpt>
<trkpt lat="52.343779" lon="4.577292">
<ele>3.3</ele>
<time>2026-02-13T15:08:29Z</time>
</trkpt>
<trkpt lat="52.343766" lon="4.577276">
<ele>3.5</ele>
<time>2026-02-13T15:08:30Z</time>
</trkpt>
<trkpt lat="52.343754" lon="4.577262">
<ele>3.5</ele>
<time>2026-02-13T15:08:31Z</time>
</trkpt>
<trkpt lat="52.343739" lon="4.577247">
<ele>3.5</ele>
<time>2026-02-13T15:08:32Z</time>
</trkpt>
<trkpt lat="52.343729" lon="4.577237">
<ele>3.5</ele>
<time>2026-02-13T15:08:32Z</time>
</trkpt>
<trkpt lat="52.343717" lon="4.577222">
<ele>3.0</ele>
<time>2026-02-13T15:08:33Z</time>
</trkpt>
<trkpt lat="52.343705" lon="4.577207">
<ele>3.3</ele>
<time>2026-02-13T15:08:34Z</time>
</trkpt>
<trkpt lat="52.343694" lon="4.577191">
<ele>3.1</ele>
<time>2026-02-13T15:08:35Z</time>
</trkpt>
<trkpt lat="52.343677" lon="4.577168">
<ele>3.2</ele>
<time>2026-02-13T15:08:37Z</time>
</trkpt>
<trkpt lat="52.343665" lon="4.577153">
<ele>3.2</ele>
<time>2026-02-13T15:08:38Z</time>
</trkpt>
<trkpt lat="52.343656" lon="4.577143">
<ele>3.2</ele>
<time>2026-02-13T15:08:38Z</time>
</trkpt>
<trkpt lat="52.343644" lon="4.577131">
<ele>3.3</ele>
<time>2026-02-13T15:08:39Z</time>
</trkpt>
<trkpt lat="52.343631" lon="4.577121">
<ele>3.5</ele>
<time>2026-02-13T15:08:40Z</time>
</trkpt>
<trkpt lat="52.343618" lon="4.577110">
<ele>3.7</ele>
<time>2026-02-13T15:08:41Z</time>
</trkpt>
<trkpt lat="52.343611" lon="4.577104">
<ele>3.7</ele>
<time>2026-02-13T15:08:42Z</time>
</trkpt>
<trkpt lat="52.343603" lon="4.577097">
<ele>3.6</ele>
<time>2026-02-13T15:08:42Z</time>
</trkpt>
<trkpt lat="52.343596" lon="4.577091">
<ele>3.5</ele>
<time>2026-02-13T15:08:43Z</time>
</trkpt>
<trkpt lat="52.343588" lon="4.577086">
<ele>3.5</ele>
<time>2026-02-13T15:08:43Z</time>
</trkpt>
<trkpt lat="52.343579" lon="4.577079">
<ele>3.5</ele>
<time>2026-02-13T15:08:44Z</time>
</trkpt>
<trkpt lat="52.343573" lon="4.577075">
<ele>3.1</ele>
<time>2026-02-13T15:08:44Z</time>
</trkpt>
<trkpt lat="52.343553" lon="4.577066">
<ele>3.3</ele>
<time>2026-02-13T15:08:45Z</time>
</trkpt>
<trkpt lat="52.343545" lon="4.577063">
<ele>3.0</ele>
<time>2026-02-13T15:08:46Z</time>
</trkpt>
<trkpt lat="52.343537" lon="4.577060">
<ele>2.8</ele>
<time>2026-02-13T15:08:47Z</time>
</trkpt>
<trkpt lat="52.343530" lon="4.577057">
<ele>2.8</ele>
<time>2026-02-13T15:08:47Z</time>
</trkpt>
<trkpt lat="52.343520" lon="4.577054">
<ele>2.8</ele>
<time>2026-02-13T15:08:48Z</time>
</trkpt>
<trkpt lat="52.343506" lon="4.577049">
<ele>3.1</ele>
<time>2026-02-13T15:08:49Z</time>
</trkpt>
<trkpt lat="52.343493" lon="4.577047">
<ele>3.2</ele>
<time>2026-02-13T15:08:50Z</time>
</trkpt>
<trkpt lat="52.343484" lon="4.577043">
<ele>3.6</ele>
<time>2026-02-13T15:08:50Z</time>
</trkpt>
<trkpt lat="52.343477" lon="4.577039">
<ele>3.1</ele>
<time>2026-02-13T15:08:51Z</time>
</trkpt>
<trkpt lat="52.343469" lon="4.577037">
<ele>3.3</ele>
<time>2026-02-13T15:08:52Z</time>
</trkpt>
<trkpt lat="52.343461" lon="4.577034">
<ele>3.3</ele>
<time>2026-02-13T15:08:52Z</time>
</trkpt>
<trkpt lat="52.343454" lon="4.577030">
<ele>3.1</ele>
<time>2026-02-13T15:08:53Z</time>
</trkpt>
<trkpt lat="52.343446" lon="4.577027">
<ele>3.1</ele>
<time>2026-02-13T15:08:53Z</time>
</trkpt>
<trkpt lat="52.343438" lon="4.577023">
<ele>3.1</ele>
<time>2026-02-13T15:08:54Z</time>
</trkpt>
<trkpt lat="52.343425" lon="4.577019">
<ele>3.1</ele>
<time>2026-02-13T15:08:54Z</time>
</trkpt>
<trkpt lat="52.343418" lon="4.577013">
<ele>3.0</ele>
<time>2026-02-13T15:08:55Z</time>
</trkpt>
<trkpt lat="52.343409" lon="4.577010">
<ele>3.0</ele>
<time>2026-02-13T15:08:55Z</time>
</trkpt>
<trkpt lat="52.343401" lon="4.577003">
<ele>3.0</ele>
<time>2026-02-13T15:08:56Z</time>
</trkpt>
<trkpt lat="52.343393" lon="4.576996">
<ele>2.9</ele>
<time>2026-02-13T15:08:57Z</time>
</trkpt>
<trkpt lat="52.343381" lon="4.576987">
<ele>2.9</ele>
<time>2026-02-13T15:08:57Z</time>
</trkpt>
<trkpt lat="52.343374" lon="4.576983">
<ele>2.6</ele>
<time>2026-02-13T15:08:58Z</time>
</trkpt>
<trkpt lat="52.343367" lon="4.576982">
<ele>2.6</ele>
<time>2026-02-13T15:08:58Z</time>
</trkpt>
<trkpt lat="52.343359" lon="4.576978">
<ele>2.9</ele>
<time>2026-02-13T15:08:59Z</time>
</trkpt>
<trkpt lat="52.343350" lon="4.576973">
<ele>2.9</ele>
<time>2026-02-13T15:09:00Z</time>
</trkpt>
<trkpt lat="52.343338" lon="4.576969">
<ele>2.9</ele>
<time>2026-02-13T15:09:00Z</time>
</trkpt>
<trkpt lat="52.343332" lon="4.576965">
<ele>2.8</ele>
<time>2026-02-13T15:09:01Z</time>
</trkpt>
<trkpt lat="52.343324" lon="4.576962">
<ele>2.8</ele>
<time>2026-02-13T15:09:01Z</time>
</trkpt>
<trkpt lat="52.343318" lon="4.576957">
<ele>3.0</ele>
<time>2026-02-13T15:09:02Z</time>
</trkpt>
<trkpt lat="52.343310" lon="4.576953">
<ele>3.0</ele>
<time>2026-02-13T15:09:02Z</time>
</trkpt>
<trkpt lat="52.343305" lon="4.576946">
<ele>3.3</ele>
<time>2026-02-13T15:09:03Z</time>
</trkpt>
<trkpt lat="52.343297" lon="4.576940">
<ele>3.3</ele>
<time>2026-02-13T15:09:03Z</time>
</trkpt>
<trkpt lat="52.343291" lon="4.576931">
<ele>3.1</ele>
<time>2026-02-13T15:09:04Z</time>
</trkpt>
<trkpt lat="52.343278" lon="4.576920">
<ele>3.1</ele>
<time>2026-02-13T15:09:05Z</time>
</trkpt>
<trkpt lat="52.343271" lon="4.576912">
<ele>3.1</ele>
<time>2026-02-13T15:09:05Z</time>
</trkpt>
<trkpt lat="52.343264" lon="4.576901">
<ele>3.0</ele>
<time>2026-02-13T15:09:06Z</time>
</trkpt>
<trkpt lat="52.343257" lon="4.576897">
<ele>3.0</ele>
<time>2026-02-13T15:09:06Z</time>
</trkpt>
<trkpt lat="52.343252" lon="4.576890">
<ele>3.0</ele>
<time>2026-02-13T15:09:07Z</time>
</trkpt>
<trkpt lat="52.343245" lon="4.576885">
<ele>3.0</ele>
<time>2026-02-13T15:09:07Z</time>
</trkpt>
<trkpt lat="52.343239" lon="4.576877">
<ele>2.9</ele>
<time>2026-02-13T15:09:08Z</time>
</trkpt>
<trkpt lat="52.343225" lon="4.576865">
<ele>2.9</ele>
<time>2026-02-13T15:09:09Z</time>
</trkpt>
<trkpt lat="52.343216" lon="4.576850">
<ele>3.3</ele>
<time>2026-02-13T15:09:10Z</time>
</trkpt>
<trkpt lat="52.343210" lon="4.576841">
<ele>3.3</ele>
<time>2026-02-13T15:09:10Z</time>
</trkpt>
<trkpt lat="52.343204" lon="4.576835">
<ele>3.3</ele>
<time>2026-02-13T15:09:11Z</time>
</trkpt>
<trkpt lat="52.343198" lon="4.576828">
<ele>3.3</ele>
<time>2026-02-13T15:09:11Z</time>
</trkpt>
<trkpt lat="52.343194" lon="4.576819">
<ele>3.6</ele>
<time>2026-02-13T15:09:12Z</time>
</trkpt>
<trkpt lat="52.343186" lon="4.576804">
<ele>3.6</ele>
<time>2026-02-13T15:09:12Z</time>
</trkpt>
<trkpt lat="52.343178" lon="4.576790">
<ele>3.4</ele>
<time>2026-02-13T15:09:13Z</time>
</trkpt>
<trkpt lat="52.343173" lon="4.576781">
<ele>3.7</ele>
<time>2026-02-13T15:09:14Z</time>
</trkpt>
<trkpt lat="52.343168" lon="4.576774">
<ele>3.7</ele>
<time>2026-02-13T15:09:14Z</time>
</trkpt>
<trkpt lat="52.343163" lon="4.576765">
<ele>3.6</ele>
<time>2026-02-13T15:09:15Z</time>
</trkpt>
<trkpt lat="52.343157" lon="4.576755">
<ele>3.6</ele>
<time>2026-02-13T15:09:15Z</time>
</trkpt>
<trkpt lat="52.343152" lon="4.576744">
<ele>3.1</ele>
<time>2026-02-13T15:09:16Z</time>
</trkpt>
<trkpt lat="52.343142" lon="4.576721">
<ele>3.1</ele>
<time>2026-02-13T15:09:17Z</time>
</trkpt>
<trkpt lat="52.343132" lon="4.576697">
<ele>3.1</ele>
<time>2026-02-13T15:09:18Z</time>
</trkpt>
<trkpt lat="52.343125" lon="4.576676">
<ele>2.9</ele>
<time>2026-02-13T15:09:19Z</time>
</trkpt>
<trkpt lat="52.343117" lon="4.576659">
<ele>3.0</ele>
<time>2026-02-13T15:09:20Z</time>
</trkpt>
<trkpt lat="52.343111" lon="4.576641">
<ele>3.0</ele>
<time>2026-02-13T15:09:20Z</time>
</trkpt>
<trkpt lat="52.343108" lon="4.576618">
<ele>3.0</ele>
<time>2026-02-13T15:09:21Z</time>
</trkpt>
<trkpt lat="52.343103" lon="4.576596">
<ele>2.9</ele>
<time>2026-02-13T15:09:22Z</time>
</trkpt>
<trkpt lat="52.343098" lon="4.576587">
<ele>3.0</ele>
<time>2026-02-13T15:09:23Z</time>
</trkpt>
<trkpt lat="52.343095" lon="4.576576">
<ele>3.0</ele>
<time>2026-02-13T15:09:23Z</time>
</trkpt>
<trkpt lat="52.343090" lon="4.576567">
<ele>2.8</ele>
<time>2026-02-13T15:09:24Z</time>
</trkpt>
<trkpt lat="52.343084" lon="4.576554">
<ele>2.9</ele>
<time>2026-02-13T15:09:25Z</time>
</trkpt>
<trkpt lat="52.343077" lon="4.576535">
<ele>2.9</ele>
<time>2026-02-13T15:09:25Z</time>
</trkpt>
<trkpt lat="52.343065" lon="4.576515">
<ele>2.9</ele>
<time>2026-02-13T15:09:26Z</time>
</trkpt>
<trkpt lat="52.343054" lon="4.576504">
<ele>3.1</ele>
<time>2026-02-13T15:09:27Z</time>
</trkpt>
<trkpt lat="52.343048" lon="4.576496">
<ele>3.0</ele>
<time>2026-02-13T15:09:28Z</time>
</trkpt>
<trkpt lat="52.343043" lon="4.576486">
<ele>3.0</ele>
<time>2026-02-13T15:09:28Z</time>
</trkpt>
<trkpt lat="52.343037" lon="4.576475">
<ele>2.7</ele>
<time>2026-02-13T15:09:29Z</time>
</trkpt>
<trkpt lat="52.343034" lon="4.576465">
<ele>2.7</ele>
<time>2026-02-13T15:09:29Z</time>
</trkpt>
<trkpt lat="52.343031" lon="4.576453">
<ele>3.1</ele>
<time>2026-02-13T15:09:30Z</time>
</trkpt>
<trkpt lat="52.343030" lon="4.576442">
<ele>3.1</ele>
<time>2026-02-13T15:09:30Z</time>
</trkpt>
<trkpt lat="52.343028" lon="4.576433">
<ele>3.1</ele>
<time>2026-02-13T15:09:31Z</time>
</trkpt>
<trkpt lat="52.343029" lon="4.576418">
<ele>3.1</ele>
<time>2026-02-13T15:09:31Z</time>
</trkpt>
<trkpt lat="52.343027" lon="4.576399">
<ele>3.1</ele>
<time>2026-02-13T15:09:32Z</time>
</trkpt>
<trkpt lat="52.343022" lon="4.576391">
<ele>3.4</ele>
<time>2026-02-13T15:09:33Z</time>
</trkpt>
<trkpt lat="52.343022" lon="4.576376">
<ele>3.4</ele>
<time>2026-02-13T15:09:33Z</time>
</trkpt>
<trkpt lat="52.343019" lon="4.576358">
<ele>3.3</ele>
<time>2026-02-13T15:09:34Z</time>
</trkpt>
<trkpt lat="52.343013" lon="4.576337">
<ele>3.3</ele>
<time>2026-02-13T15:09:35Z</time>
</trkpt>
<trkpt lat="52.343006" lon="4.576318">
<ele>3.1</ele>
<time>2026-02-13T15:09:36Z</time>
</trkpt>
<trkpt lat="52.342997" lon="4.576301">
<ele>3.1</ele>
<time>2026-02-13T15:09:37Z</time>
</trkpt>
<trkpt lat="52.342991" lon="4.576293">
<ele>2.9</ele>
<time>2026-02-13T15:09:38Z</time>
</trkpt>
<trkpt lat="52.342990" lon="4.576280">
<ele>2.9</ele>
<time>2026-02-13T15:09:38Z</time>
</trkpt>
<trkpt lat="52.342985" lon="4.576269">
<ele>3.1</ele>
<time>2026-02-13T15:09:39Z</time>
</trkpt>
<trkpt lat="52.342981" lon="4.576246">
<ele>2.8</ele>
<time>2026-02-13T15:09:40Z</time>
</trkpt>
<trkpt lat="52.342979" lon="4.576236">
<ele>2.8</ele>
<time>2026-02-13T15:09:40Z</time>
</trkpt>
<trkpt lat="52.342978" lon="4.576224">
<ele>2.8</ele>
<time>2026-02-13T15:09:41Z</time>
</trkpt>
<trkpt lat="52.342975" lon="4.576213">
<ele>2.8</ele>
<time>2026-02-13T15:09:41Z</time>
</trkpt>
<trkpt lat="52.342972" lon="4.576202">
<ele>2.8</ele>
<time>2026-02-13T15:09:42Z</time>
</trkpt>
<trkpt lat="52.342968" lon="4.576191">
<ele>2.9</ele>
<time>2026-02-13T15:09:42Z</time>
</trkpt>
<trkpt lat="52.342965" lon="4.576179">
<ele>2.9</ele>
<time>2026-02-13T15:09:43Z</time>
</trkpt>
<trkpt lat="52.342960" lon="4.576166">
<ele>2.9</ele>
<time>2026-02-13T15:09:43Z</time>
</trkpt>
<trkpt lat="52.342956" lon="4.576155">
<ele>2.8</ele>
<time>2026-02-13T15:09:44Z</time>
</trkpt>
<trkpt lat="52.342953" lon="4.576143">
<ele>2.8</ele>
<time>2026-02-13T15:09:44Z</time>
</trkpt>
<trkpt lat="52.342949" lon="4.576132">
<ele>2.8</ele>
<time>2026-02-13T15:09:45Z</time>
</trkpt>
<trkpt lat="52.342945" lon="4.576117">
<ele>2.8</ele>
<time>2026-02-13T15:09:45Z</time>
</trkpt>
<trkpt lat="52.342939" lon="4.576084">
<ele>3.0</ele>
<time>2026-02-13T15:09:47Z</time>
</trkpt>
<trkpt lat="52.342937" lon="4.576069">
<ele>3.0</ele>
<time>2026-02-13T15:09:47Z</time>
</trkpt>
<trkpt lat="52.342935" lon="4.576058">
<ele>3.0</ele>
<time>2026-02-13T15:09:48Z</time>
</trkpt>
<trkpt lat="52.342933" lon="4.576046">
<ele>3.0</ele>
<time>2026-02-13T15:09:48Z</time>
</trkpt>
<trkpt lat="52.342931" lon="4.576033">
<ele>3.0</ele>
<time>2026-02-13T15:09:49Z</time>
</trkpt>
<trkpt lat="52.342926" lon="4.576011">
<ele>3.0</ele>
<time>2026-02-13T15:09:50Z</time>
</trkpt>
<trkpt lat="52.342923" lon="4.575998">
<ele>3.1</ele>
<time>2026-02-13T15:09:50Z</time>
</trkpt>
<trkpt lat="52.342920" lon="4.575988">
<ele>3.1</ele>
<time>2026-02-13T15:09:51Z</time>
</trkpt>
<trkpt lat="52.342911" lon="4.575961">
<ele>3.1</ele>
<time>2026-02-13T15:09:52Z</time>
</trkpt>
<trkpt lat="52.342905" lon="4.575942">
<ele>3.2</ele>
<time>2026-02-13T15:09:53Z</time>
</trkpt>
<trkpt lat="52.342902" lon="4.575934">
<ele>3.1</ele>
<time>2026-02-13T15:09:53Z</time>
</trkpt>
<trkpt lat="52.342900" lon="4.575924">
<ele>3.1</ele>
<time>2026-02-13T15:09:54Z</time>
</trkpt>
<trkpt lat="52.342898" lon="4.575916">
<ele>3.2</ele>
<time>2026-02-13T15:09:54Z</time>
</trkpt>
<trkpt lat="52.342894" lon="4.575906">
<ele>2.7</ele>
<time>2026-02-13T15:09:55Z</time>
</trkpt>
<trkpt lat="52.342888" lon="4.575889">
<ele>2.8</ele>
<time>2026-02-13T15:09:56Z</time>
</trkpt>
<trkpt lat="52.342882" lon="4.575876">
<ele>2.8</ele>
<time>2026-02-13T15:09:56Z</time>
</trkpt>
<trkpt lat="52.342879" lon="4.575867">
<ele>3.0</ele>
<time>2026-02-13T15:09:57Z</time>
</trkpt>
<trkpt lat="52.342876" lon="4.575855">
<ele>3.0</ele>
<time>2026-02-13T15:09:57Z</time>
</trkpt>
<trkpt lat="52.342873" lon="4.575844">
<ele>3.0</ele>
<time>2026-02-13T15:09:58Z</time>
</trkpt>
<trkpt lat="52.342868" lon="4.575831">
<ele>3.0</ele>
<time>2026-02-13T15:09:59Z</time>
</trkpt>
<trkpt lat="52.342864" lon="4.575822">
<ele>2.9</ele>
<time>2026-02-13T15:09:59Z</time>
</trkpt>
<trkpt lat="52.342859" lon="4.575812">
<ele>3.0</ele>
<time>2026-02-13T15:10:00Z</time>
</trkpt>
<trkpt lat="52.342854" lon="4.575803">
<ele>3.0</ele>
<time>2026-02-13T15:10:00Z</time>
</trkpt>
<trkpt lat="52.342850" lon="4.575794">
<ele>3.2</ele>
<time>2026-02-13T15:10:01Z</time>
</trkpt>
<trkpt lat="52.342846" lon="4.575783">
<ele>3.2</ele>
<time>2026-02-13T15:10:01Z</time>
</trkpt>
<trkpt lat="52.342842" lon="4.575771">
<ele>3.2</ele>
<time>2026-02-13T15:10:02Z</time>
</trkpt>
<trkpt lat="52.342837" lon="4.575759">
<ele>3.2</ele>
<time>2026-02-13T15:10:02Z</time>
</trkpt>
<trkpt lat="52.342828" lon="4.575744">
<ele>3.4</ele>
<time>2026-02-13T15:10:03Z</time>
</trkpt>
<trkpt lat="52.342823" lon="4.575734">
<ele>3.6</ele>
<time>2026-02-13T15:10:04Z</time>
</trkpt>
<trkpt lat="52.342817" lon="4.575723">
<ele>3.2</ele>
<time>2026-02-13T15:10:05Z</time>
</trkpt>
<trkpt lat="52.342817" lon="4.575708">
<ele>3.2</ele>
<time>2026-02-13T15:10:05Z</time>
</trkpt>
<trkpt lat="52.342825" lon="4.575713">
<ele>2.7</ele>
<time>2026-02-13T15:10:06Z</time>
</trkpt>
<trkpt lat="52.342828" lon="4.575707">
<ele>2.7</ele>
<time>2026-02-13T15:10:07Z</time>
</trkpt>
<trkpt lat="52.342820" lon="4.575712">
<ele>2.7</ele>
<time>2026-02-13T15:10:07Z</time>
</trkpt>
<trkpt lat="52.342814" lon="4.575710">
<ele>2.7</ele>
<time>2026-02-13T15:10:08Z</time>
</trkpt>
<trkpt lat="52.342809" lon="4.575728">
<ele>2.6</ele>
<time>2026-02-13T15:10:08Z</time>
</trkpt>
<trkpt lat="52.342807" lon="4.575743">
<ele>2.5</ele>
<time>2026-02-13T15:10:09Z</time>
</trkpt>
<trkpt lat="52.342806" lon="4.575750">
<ele>2.5</ele>
<time>2026-02-13T15:10:09Z</time>
</trkpt>
<trkpt lat="52.342794" lon="4.575752">
<ele>2.5</ele>
<time>2026-02-13T15:10:10Z</time>
</trkpt>
<trkpt lat="52.342783" lon="4.575732">
<ele>2.6</ele>
<time>2026-02-13T15:10:11Z</time>
</trkpt>
<trkpt lat="52.342779" lon="4.575711">
<ele>2.5</ele>
<time>2026-02-13T15:10:12Z</time>
</trkpt>
<trkpt lat="52.342774" lon="4.575699">
<ele>2.5</ele>
<time>2026-02-13T15:10:12Z</time>
</trkpt>
<trkpt lat="52.342771" lon="4.575685">
<ele>2.4</ele>
<time>2026-02-13T15:10:13Z</time>
</trkpt>
<trkpt lat="52.342767" lon="4.575674">
<ele>2.4</ele>
<time>2026-02-13T15:10:13Z</time>
</trkpt>
<trkpt lat="52.342764" lon="4.575664">
<ele>2.6</ele>
<time>2026-02-13T15:10:14Z</time>
</trkpt>
<trkpt lat="52.342760" lon="4.575653">
<ele>2.6</ele>
<time>2026-02-13T15:10:14Z</time>
</trkpt>
<trkpt lat="52.342756" lon="4.575645">
<ele>2.2</ele>
<time>2026-02-13T15:10:15Z</time>
</trkpt>
<trkpt lat="52.342751" lon="4.575635">
<ele>2.2</ele>
<time>2026-02-13T15:10:16Z</time>
</trkpt>
<trkpt lat="52.342747" lon="4.575628">
<ele>2.9</ele>
<time>2026-02-13T15:10:16Z</time>
</trkpt>
<trkpt lat="52.342743" lon="4.575618">
<ele>2.6</ele>
<time>2026-02-13T15:10:17Z</time>
</trkpt>
<trkpt lat="52.342736" lon="4.575603">
<ele>2.6</ele>
<time>2026-02-13T15:10:17Z</time>
</trkpt>
<trkpt lat="52.342733" lon="4.575600">
<ele>2.8</ele>
<time>2026-02-13T15:10:18Z</time>
</trkpt>
<trkpt lat="52.342729" lon="4.575593">
<ele>2.8</ele>
<time>2026-02-13T15:10:18Z</time>
</trkpt>
<trkpt lat="52.342723" lon="4.575584">
<ele>2.7</ele>
<time>2026-02-13T15:10:19Z</time>
</trkpt>
<trkpt lat="52.342717" lon="4.575573">
<ele>2.5</ele>
<time>2026-02-13T15:10:20Z</time>
</trkpt>
<trkpt lat="52.342711" lon="4.575561">
<ele>2.5</ele>
<time>2026-02-13T15:10:20Z</time>
</trkpt>
<trkpt lat="52.342705" lon="4.575553">
<ele>2.0</ele>
<time>2026-02-13T15:10:21Z</time>
</trkpt>
<trkpt lat="52.342701" lon="4.575544">
<ele>2.0</ele>
<time>2026-02-13T15:10:21Z</time>
</trkpt>
<trkpt lat="52.342695" lon="4.575535">
<ele>2.0</ele>
<time>2026-02-13T15:10:22Z</time>
</trkpt>
<trkpt lat="52.342691" lon="4.575527">
<ele>2.0</ele>
<time>2026-02-13T15:10:22Z</time>
</trkpt>
<trkpt lat="52.342685" lon="4.575518">
<ele>2.3</ele>
<time>2026-02-13T15:10:23Z</time>
</trkpt>
<trkpt lat="52.342680" lon="4.575510">
<ele>2.3</ele>
<time>2026-02-13T15:10:24Z</time>
</trkpt>
<trkpt lat="52.342675" lon="4.575503">
<ele>2.1</ele>
<time>2026-02-13T15:10:24Z</time>
</trkpt>
<trkpt lat="52.342672" lon="4.575498">
<ele>2.3</ele>
<time>2026-02-13T15:10:25Z</time>
</trkpt>
<trkpt lat="52.342664" lon="4.575482">
<ele>2.4</ele>
<time>2026-02-13T15:10:26Z</time>
</trkpt>
<trkpt lat="52.342659" lon="4.575472">
<ele>2.5</ele>
<time>2026-02-13T15:10:27Z</time>
</trkpt>
<trkpt lat="52.342655" lon="4.575458">
<ele>2.5</ele>
<time>2026-02-13T15:10:27Z</time>
</trkpt>
<trkpt lat="52.342652" lon="4.575453">
<ele>2.3</ele>
<time>2026-02-13T15:10:28Z</time>
</trkpt>
<trkpt lat="52.342648" lon="4.575442">
<ele>2.3</ele>
<time>2026-02-13T15:10:28Z</time>
</trkpt>
<trkpt lat="52.342645" lon="4.575437">
<ele>2.5</ele>
<time>2026-02-13T15:10:29Z</time>
</trkpt>
<trkpt lat="52.342642" lon="4.575426">
<ele>2.5</ele>
<time>2026-02-13T15:10:30Z</time>
</trkpt>
<trkpt lat="52.342639" lon="4.575421">
<ele>1.8</ele>
<time>2026-02-13T15:10:30Z</time>
</trkpt>
<trkpt lat="52.342634" lon="4.575414">
<ele>2.2</ele>
<time>2026-02-13T15:10:31Z</time>
</trkpt>
<trkpt lat="52.342629" lon="4.575406">
<ele>2.2</ele>
<time>2026-02-13T15:10:31Z</time>
</trkpt>
<trkpt lat="52.342622" lon="4.575393">
<ele>2.2</ele>
<time>2026-02-13T15:10:32Z</time>
</trkpt>
<trkpt lat="52.342620" lon="4.575388">
<ele>2.2</ele>
<time>2026-02-13T15:10:32Z</time>
</trkpt>
<trkpt lat="52.342615" lon="4.575380">
<ele>2.2</ele>
<time>2026-02-13T15:10:33Z</time>
</trkpt>
<trkpt lat="52.342612" lon="4.575372">
<ele>2.2</ele>
<time>2026-02-13T15:10:33Z</time>
</trkpt>
<trkpt lat="52.342606" lon="4.575364">
<ele>2.0</ele>
<time>2026-02-13T15:10:34Z</time>
</trkpt>
<trkpt lat="52.342602" lon="4.575356">
<ele>2.0</ele>
<time>2026-02-13T15:10:34Z</time>
</trkpt>
<trkpt lat="52.342596" lon="4.575346">
<ele>2.2</ele>
<time>2026-02-13T15:10:35Z</time>
</trkpt>
<trkpt lat="52.342592" lon="4.575338">
<ele>2.2</ele>
<time>2026-02-13T15:10:35Z</time>
</trkpt>
<trkpt lat="52.342585" lon="4.575331">
<ele>2.1</ele>
<time>2026-02-13T15:10:36Z</time>
</trkpt>
<trkpt lat="52.342579" lon="4.575322">
<ele>1.9</ele>
<time>2026-02-13T15:10:37Z</time>
</trkpt>
<trkpt lat="52.342574" lon="4.575315">
<ele>1.9</ele>
<time>2026-02-13T15:10:37Z</time>
</trkpt>
<trkpt lat="52.342570" lon="4.575307">
<ele>1.9</ele>
<time>2026-02-13T15:10:38Z</time>
</trkpt>
<trkpt lat="52.342564" lon="4.575298">
<ele>1.7</ele>
<time>2026-02-13T15:10:38Z</time>
</trkpt>
<trkpt lat="52.342559" lon="4.575291">
<ele>1.8</ele>
<time>2026-02-13T15:10:39Z</time>
</trkpt>
<trkpt lat="52.342551" lon="4.575276">
<ele>1.8</ele>
<time>2026-02-13T15:10:39Z</time>
</trkpt>
<trkpt lat="52.342549" lon="4.575271">
<ele>2.0</ele>
<time>2026-02-13T15:10:40Z</time>
</trkpt>
<trkpt lat="52.342544" lon="4.575262">
<ele>2.0</ele>
<time>2026-02-13T15:10:40Z</time>
</trkpt>
<trkpt lat="52.342539" lon="4.575255">
<ele>2.3</ele>
<time>2026-02-13T15:10:41Z</time>
</trkpt>
<trkpt lat="52.342533" lon="4.575245">
<ele>2.3</ele>
<time>2026-02-13T15:10:41Z</time>
</trkpt>
<trkpt lat="52.342528" lon="4.575238">
<ele>2.4</ele>
<time>2026-02-13T15:10:42Z</time>
</trkpt>
<trkpt lat="52.342521" lon="4.575228">
<ele>2.4</ele>
<time>2026-02-13T15:10:42Z</time>
</trkpt>
<trkpt lat="52.342517" lon="4.575222">
<ele>2.1</ele>
<time>2026-02-13T15:10:43Z</time>
</trkpt>
<trkpt lat="52.342511" lon="4.575213">
<ele>2.1</ele>
<time>2026-02-13T15:10:44Z</time>
</trkpt>
<trkpt lat="52.342506" lon="4.575205">
<ele>1.6</ele>
<time>2026-02-13T15:10:44Z</time>
</trkpt>
<trkpt lat="52.342500" lon="4.575196">
<ele>1.6</ele>
<time>2026-02-13T15:10:45Z</time>
</trkpt>
<trkpt lat="52.342495" lon="4.575187">
<ele>1.6</ele>
<time>2026-02-13T15:10:45Z</time>
</trkpt>
<trkpt lat="52.342490" lon="4.575178">
<ele>1.8</ele>
<time>2026-02-13T15:10:46Z</time>
</trkpt>
<trkpt lat="52.342485" lon="4.575167">
<ele>1.8</ele>
<time>2026-02-13T15:10:46Z</time>
</trkpt>
<trkpt lat="52.342482" lon="4.575160">
<ele>2.0</ele>
<time>2026-02-13T15:10:47Z</time>
</trkpt>
<trkpt lat="52.342477" lon="4.575150">
<ele>2.0</ele>
<time>2026-02-13T15:10:47Z</time>
</trkpt>
<trkpt lat="52.342473" lon="4.575140">
<ele>2.3</ele>
<time>2026-02-13T15:10:48Z</time>
</trkpt>
<trkpt lat="52.342469" lon="4.575132">
<ele>2.3</ele>
<time>2026-02-13T15:10:48Z</time>
</trkpt>
<trkpt lat="52.342465" lon="4.575122">
<ele>1.7</ele>
<time>2026-02-13T15:10:49Z</time>
</trkpt>
<trkpt lat="52.342461" lon="4.575115">
<ele>1.7</ele>
<time>2026-02-13T15:10:49Z</time>
</trkpt>
<trkpt lat="52.342457" lon="4.575105">
<ele>1.7</ele>
<time>2026-02-13T15:10:50Z</time>
</trkpt>
<trkpt lat="52.342453" lon="4.575097">
<ele>1.7</ele>
<time>2026-02-13T15:10:50Z</time>
</trkpt>
<trkpt lat="52.342447" lon="4.575089">
<ele>2.0</ele>
<time>2026-02-13T15:10:51Z</time>
</trkpt>
<trkpt lat="52.342442" lon="4.575082">
<ele>2.0</ele>
<time>2026-02-13T15:10:51Z</time>
</trkpt>
<trkpt lat="52.342434" lon="4.575070">
<ele>1.9</ele>
<time>2026-02-13T15:10:52Z</time>
</trkpt>
<trkpt lat="52.342430" lon="4.575060">
<ele>2.0</ele>
<time>2026-02-13T15:10:53Z</time>
</trkpt>
<trkpt lat="52.342418" lon="4.575037">
<ele>2.1</ele>
<time>2026-02-13T15:10:54Z</time>
</trkpt>
<trkpt lat="52.342415" lon="4.575031">
<ele>2.2</ele>
<time>2026-02-13T15:10:55Z</time>
</trkpt>
<trkpt lat="52.342410" lon="4.575023">
<ele>2.2</ele>
<time>2026-02-13T15:10:55Z</time>
</trkpt>
<trkpt lat="52.342406" lon="4.575015">
<ele>2.2</ele>
<time>2026-02-13T15:10:56Z</time>
</trkpt>
<trkpt lat="52.342401" lon="4.575006">
<ele>2.2</ele>
<time>2026-02-13T15:10:56Z</time>
</trkpt>
<trkpt lat="52.342397" lon="4.574999">
<ele>2.1</ele>
<time>2026-02-13T15:10:57Z</time>
</trkpt>
<trkpt lat="52.342392" lon="4.574990">
<ele>2.1</ele>
<time>2026-02-13T15:10:57Z</time>
</trkpt>
<trkpt lat="52.342386" lon="4.574983">
<ele>2.2</ele>
<time>2026-02-13T15:10:58Z</time>
</trkpt>
<trkpt lat="52.342382" lon="4.574977">
<ele>2.2</ele>
<time>2026-02-13T15:10:58Z</time>
</trkpt>
<trkpt lat="52.342376" lon="4.574970">
<ele>2.3</ele>
<time>2026-02-13T15:10:59Z</time>
</trkpt>
<trkpt lat="52.342372" lon="4.574959">
<ele>2.6</ele>
<time>2026-02-13T15:11:00Z</time>
</trkpt>
<trkpt lat="52.342368" lon="4.574951">
<ele>2.6</ele>
<time>2026-02-13T15:11:00Z</time>
</trkpt>
<trkpt lat="52.342364" lon="4.574943">
<ele>2.7</ele>
<time>2026-02-13T15:11:01Z</time>
</trkpt>
<trkpt lat="52.342356" lon="4.574930">
<ele>2.7</ele>
<time>2026-02-13T15:11:01Z</time>
</trkpt>
<trkpt lat="52.342353" lon="4.574926">
<ele>2.1</ele>
<time>2026-02-13T15:11:02Z</time>
</trkpt>
<trkpt lat="52.342348" lon="4.574918">
<ele>2.1</ele>
<time>2026-02-13T15:11:02Z</time>
</trkpt>
<trkpt lat="52.342344" lon="4.574909">
<ele>2.0</ele>
<time>2026-02-13T15:11:03Z</time>
</trkpt>
<trkpt lat="52.342340" lon="4.574901">
<ele>2.0</ele>
<time>2026-02-13T15:11:03Z</time>
</trkpt>
<trkpt lat="52.342329" lon="4.574886">
<ele>2.0</ele>
<time>2026-02-13T15:11:04Z</time>
</trkpt>
<trkpt lat="52.342320" lon="4.574871">
<ele>2.0</ele>
<time>2026-02-13T15:11:05Z</time>
</trkpt>
<trkpt lat="52.342315" lon="4.574860">
<ele>2.5</ele>
<time>2026-02-13T15:11:06Z</time>
</trkpt>
<trkpt lat="52.342311" lon="4.574852">
<ele>2.5</ele>
<time>2026-02-13T15:11:07Z</time>
</trkpt>
<trkpt lat="52.342302" lon="4.574838">
<ele>2.5</ele>
<time>2026-02-13T15:11:07Z</time>
</trkpt>
<trkpt lat="52.342294" lon="4.574824">
<ele>2.4</ele>
<time>2026-02-13T15:11:08Z</time>
</trkpt>
<trkpt lat="52.342291" lon="4.574820">
<ele>2.4</ele>
<time>2026-02-13T15:11:09Z</time>
</trkpt>
<trkpt lat="52.342287" lon="4.574813">
<ele>2.4</ele>
<time>2026-02-13T15:11:09Z</time>
</trkpt>
<trkpt lat="52.342278" lon="4.574797">
<ele>2.5</ele>
<time>2026-02-13T15:11:10Z</time>
</trkpt>
<trkpt lat="52.342274" lon="4.574789">
<ele>2.3</ele>
<time>2026-02-13T15:11:11Z</time>
</trkpt>
<trkpt lat="52.342269" lon="4.574781">
<ele>2.3</ele>
<time>2026-02-13T15:11:11Z</time>
</trkpt>
<trkpt lat="52.342266" lon="4.574774">
<ele>2.5</ele>
<time>2026-02-13T15:11:12Z</time>
</trkpt>
<trkpt lat="52.342260" lon="4.574765">
<ele>2.5</ele>
<time>2026-02-13T15:11:12Z</time>
</trkpt>
<trkpt lat="52.342256" lon="4.574758">
<ele>2.7</ele>
<time>2026-02-13T15:11:13Z</time>
</trkpt>
<trkpt lat="52.342250" lon="4.574749">
<ele>2.7</ele>
<time>2026-02-13T15:11:13Z</time>
</trkpt>
<trkpt lat="52.342246" lon="4.574741">
<ele>2.8</ele>
<time>2026-02-13T15:11:14Z</time>
</trkpt>
<trkpt lat="52.342240" lon="4.574731">
<ele>2.8</ele>
<time>2026-02-13T15:11:14Z</time>
</trkpt>
<trkpt lat="52.342236" lon="4.574724">
<ele>2.9</ele>
<time>2026-02-13T15:11:15Z</time>
</trkpt>
<trkpt lat="52.342226" lon="4.574708">
<ele>2.9</ele>
<time>2026-02-13T15:11:15Z</time>
</trkpt>
<trkpt lat="52.342225" lon="4.574706">
<ele>2.6</ele>
<time>2026-02-13T15:11:16Z</time>
</trkpt>
<trkpt lat="52.342220" lon="4.574697">
<ele>2.6</ele>
<time>2026-02-13T15:11:17Z</time>
</trkpt>
<trkpt lat="52.342216" lon="4.574690">
<ele>2.3</ele>
<time>2026-02-13T15:11:17Z</time>
</trkpt>
<trkpt lat="52.342212" lon="4.574682">
<ele>2.8</ele>
<time>2026-02-13T15:11:18Z</time>
</trkpt>
<trkpt lat="52.342207" lon="4.574674">
<ele>2.8</ele>
<time>2026-02-13T15:11:18Z</time>
</trkpt>
<trkpt lat="52.342202" lon="4.574667">
<ele>2.2</ele>
<time>2026-02-13T15:11:19Z</time>
</trkpt>
<trkpt lat="52.342196" lon="4.574659">
<ele>2.2</ele>
<time>2026-02-13T15:11:19Z</time>
</trkpt>
<trkpt lat="52.342190" lon="4.574651">
<ele>2.6</ele>
<time>2026-02-13T15:11:20Z</time>
</trkpt>
<trkpt lat="52.342186" lon="4.574644">
<ele>2.6</ele>
<time>2026-02-13T15:11:20Z</time>
</trkpt>
<trkpt lat="52.342179" lon="4.574637">
<ele>2.8</ele>
<time>2026-02-13T15:11:21Z</time>
</trkpt>
<trkpt lat="52.342171" lon="4.574628">
<ele>2.7</ele>
<time>2026-02-13T15:11:22Z</time>
</trkpt>
<trkpt lat="52.342163" lon="4.574619">
<ele>2.7</ele>
<time>2026-02-13T15:11:22Z</time>
</trkpt>
<trkpt lat="52.342154" lon="4.574611">
<ele>2.8</ele>
<time>2026-02-13T15:11:23Z</time>
</trkpt>
<trkpt lat="52.342148" lon="4.574604">
<ele>2.7</ele>
<time>2026-02-13T15:11:24Z</time>
</trkpt>
<trkpt lat="52.342139" lon="4.574593">
<ele>2.7</ele>
<time>2026-02-13T15:11:24Z</time>
</trkpt>
<trkpt lat="52.342134" lon="4.574585">
<ele>2.9</ele>
<time>2026-02-13T15:11:25Z</time>
</trkpt>
<trkpt lat="52.342129" lon="4.574579">
<ele>2.9</ele>
<time>2026-02-13T15:11:25Z</time>
</trkpt>
<trkpt lat="52.342122" lon="4.574573">
<ele>3.0</ele>
<time>2026-02-13T15:11:26Z</time>
</trkpt>
<trkpt lat="52.342115" lon="4.574565">
<ele>3.1</ele>
<time>2026-02-13T15:11:27Z</time>
</trkpt>
<trkpt lat="52.342105" lon="4.574554">
<ele>3.1</ele>
<time>2026-02-13T15:11:27Z</time>
</trkpt>
<trkpt lat="52.342100" lon="4.574547">
<ele>3.2</ele>
<time>2026-02-13T15:11:28Z</time>
</trkpt>
<trkpt lat="52.342094" lon="4.574539">
<ele>3.3</ele>
<time>2026-02-13T15:11:29Z</time>
</trkpt>
<trkpt lat="52.342084" lon="4.574527">
<ele>3.3</ele>
<time>2026-02-13T15:11:29Z</time>
</trkpt>
<trkpt lat="52.342073" lon="4.574516">
<ele>3.1</ele>
<time>2026-02-13T15:11:30Z</time>
</trkpt>
<trkpt lat="52.342069" lon="4.574512">
<ele>3.1</ele>
<time>2026-02-13T15:11:30Z</time>
</trkpt>
<trkpt lat="52.342059" lon="4.574499">
<ele>3.1</ele>
<time>2026-02-13T15:11:32Z</time>
</trkpt>
<trkpt lat="52.342050" lon="4.574483">
<ele>3.5</ele>
<time>2026-02-13T15:11:32Z</time>
</trkpt>
<trkpt lat="52.342044" lon="4.574474">
<ele>3.5</ele>
<time>2026-02-13T15:11:33Z</time>
</trkpt>
<trkpt lat="52.342039" lon="4.574465">
<ele>3.2</ele>
<time>2026-02-13T15:11:34Z</time>
</trkpt>
<trkpt lat="52.342035" lon="4.574458">
<ele>3.2</ele>
<time>2026-02-13T15:11:34Z</time>
</trkpt>
<trkpt lat="52.342030" lon="4.574450">
<ele>3.2</ele>
<time>2026-02-13T15:11:35Z</time>
</trkpt>
<trkpt lat="52.342025" lon="4.574442">
<ele>3.3</ele>
<time>2026-02-13T15:11:35Z</time>
</trkpt>
<trkpt lat="52.342021" lon="4.574435">
<ele>3.3</ele>
<time>2026-02-13T15:11:36Z</time>
</trkpt>
<trkpt lat="52.342016" lon="4.574426">
<ele>3.2</ele>
<time>2026-02-13T15:11:36Z</time>
</trkpt>
<trkpt lat="52.342012" lon="4.574418">
<ele>3.4</ele>
<time>2026-02-13T15:11:37Z</time>
</trkpt>
<trkpt lat="52.342004" lon="4.574403">
<ele>3.4</ele>
<time>2026-02-13T15:11:37Z</time>
</trkpt>
<trkpt lat="52.342003" lon="4.574399">
<ele>3.3</ele>
<time>2026-02-13T15:11:38Z</time>
</trkpt>
<trkpt lat="52.341998" lon="4.574389">
<ele>3.3</ele>
<time>2026-02-13T15:11:38Z</time>
</trkpt>
<trkpt lat="52.341990" lon="4.574372">
<ele>3.1</ele>
<time>2026-02-13T15:11:39Z</time>
</trkpt>
<trkpt lat="52.341981" lon="4.574356">
<ele>3.1</ele>
<time>2026-02-13T15:11:40Z</time>
</trkpt>
<trkpt lat="52.341976" lon="4.574347">
<ele>3.2</ele>
<time>2026-02-13T15:11:41Z</time>
</trkpt>
<trkpt lat="52.341971" lon="4.574339">
<ele>3.2</ele>
<time>2026-02-13T15:11:41Z</time>
</trkpt>
<trkpt lat="52.341966" lon="4.574330">
<ele>3.4</ele>
<time>2026-02-13T15:11:42Z</time>
</trkpt>
<trkpt lat="52.341957" lon="4.574314">
<ele>3.4</ele>
<time>2026-02-13T15:11:42Z</time>
</trkpt>
<trkpt lat="52.341953" lon="4.574304">
<ele>3.3</ele>
<time>2026-02-13T15:11:43Z</time>
</trkpt>
<trkpt lat="52.341948" lon="4.574294">
<ele>3.2</ele>
<time>2026-02-13T15:11:44Z</time>
</trkpt>
<trkpt lat="52.341940" lon="4.574276">
<ele>3.2</ele>
<time>2026-02-13T15:11:44Z</time>
</trkpt>
<trkpt lat="52.341931" lon="4.574258">
<ele>3.2</ele>
<time>2026-02-13T15:11:45Z</time>
</trkpt>
<trkpt lat="52.341922" lon="4.574241">
<ele>3.2</ele>
<time>2026-02-13T15:11:46Z</time>
</trkpt>
<trkpt lat="52.341915" lon="4.574233">
<ele>3.0</ele>
<time>2026-02-13T15:11:47Z</time>
</trkpt>
<trkpt lat="52.341910" lon="4.574224">
<ele>2.5</ele>
<time>2026-02-13T15:11:48Z</time>
</trkpt>
<trkpt lat="52.341901" lon="4.574209">
<ele>2.5</ele>
<time>2026-02-13T15:11:48Z</time>
</trkpt>
<trkpt lat="52.341895" lon="4.574200">
<ele>2.8</ele>
<time>2026-02-13T15:11:49Z</time>
</trkpt>
<trkpt lat="52.341889" lon="4.574191">
<ele>2.7</ele>
<time>2026-02-13T15:11:50Z</time>
</trkpt>
<trkpt lat="52.341881" lon="4.574175">
<ele>2.7</ele>
<time>2026-02-13T15:11:50Z</time>
</trkpt>
<trkpt lat="52.341876" lon="4.574169">
<ele>2.8</ele>
<time>2026-02-13T15:11:51Z</time>
</trkpt>
<trkpt lat="52.341871" lon="4.574160">
<ele>2.8</ele>
<time>2026-02-13T15:11:51Z</time>
</trkpt>
<trkpt lat="52.341867" lon="4.574152">
<ele>3.1</ele>
<time>2026-02-13T15:11:52Z</time>
</trkpt>
<trkpt lat="52.341861" lon="4.574144">
<ele>3.1</ele>
<time>2026-02-13T15:11:52Z</time>
</trkpt>
<trkpt lat="52.341855" lon="4.574133">
<ele>2.9</ele>
<time>2026-02-13T15:11:53Z</time>
</trkpt>
<trkpt lat="52.341850" lon="4.574123">
<ele>2.9</ele>
<time>2026-02-13T15:11:54Z</time>
</trkpt>
<trkpt lat="52.341842" lon="4.574107">
<ele>2.9</ele>
<time>2026-02-13T15:11:54Z</time>
</trkpt>
<trkpt lat="52.341838" lon="4.574098">
<ele>2.8</ele>
<time>2026-02-13T15:11:55Z</time>
</trkpt>
<trkpt lat="52.341833" lon="4.574088">
<ele>2.8</ele>
<time>2026-02-13T15:11:55Z</time>
</trkpt>
<trkpt lat="52.341829" lon="4.574078">
<ele>2.8</ele>
<time>2026-02-13T15:11:56Z</time>
</trkpt>
<trkpt lat="52.341824" lon="4.574068">
<ele>2.8</ele>
<time>2026-02-13T15:11:56Z</time>
</trkpt>
<trkpt lat="52.341819" lon="4.574058">
<ele>3.0</ele>
<time>2026-02-13T15:11:57Z</time>
</trkpt>
<trkpt lat="52.341814" lon="4.574049">
<ele>3.0</ele>
<time>2026-02-13T15:11:57Z</time>
</trkpt>
<trkpt lat="52.341809" lon="4.574040">
<ele>2.9</ele>
<time>2026-02-13T15:11:58Z</time>
</trkpt>
<trkpt lat="52.341805" lon="4.574031">
<ele>2.9</ele>
<time>2026-02-13T15:11:58Z</time>
</trkpt>
<trkpt lat="52.341800" lon="4.574021">
<ele>2.9</ele>
<time>2026-02-13T15:11:59Z</time>
</trkpt>
<trkpt lat="52.341795" lon="4.574012">
<ele>2.9</ele>
<time>2026-02-13T15:11:59Z</time>
</trkpt>
<trkpt lat="52.341791" lon="4.574003">
<ele>2.9</ele>
<time>2026-02-13T15:12:00Z</time>
</trkpt>
<trkpt lat="52.341786" lon="4.573993">
<ele>2.9</ele>
<time>2026-02-13T15:12:00Z</time>
</trkpt>
<trkpt lat="52.341782" lon="4.573984">
<ele>2.9</ele>
<time>2026-02-13T15:12:01Z</time>
</trkpt>
<trkpt lat="52.341777" lon="4.573975">
<ele>2.9</ele>
<time>2026-02-13T15:12:01Z</time>
</trkpt>
<trkpt lat="52.341774" lon="4.573964">
<ele>2.9</ele>
<time>2026-02-13T15:12:02Z</time>
</trkpt>
<trkpt lat="52.341769" lon="4.573953">
<ele>2.9</ele>
<time>2026-02-13T15:12:02Z</time>
</trkpt>
<trkpt lat="52.341765" lon="4.573943">
<ele>3.2</ele>
<time>2026-02-13T15:12:03Z</time>
</trkpt>
<trkpt lat="52.341760" lon="4.573933">
<ele>3.2</ele>
<time>2026-02-13T15:12:03Z</time>
</trkpt>
<trkpt lat="52.341754" lon="4.573921">
<ele>3.0</ele>
<time>2026-02-13T15:12:04Z</time>
</trkpt>
<trkpt lat="52.341747" lon="4.573906">
<ele>3.2</ele>
<time>2026-02-13T15:12:05Z</time>
</trkpt>
<trkpt lat="52.341741" lon="4.573895">
<ele>3.2</ele>
<time>2026-02-13T15:12:05Z</time>
</trkpt>
<trkpt lat="52.341736" lon="4.573886">
<ele>3.4</ele>
<time>2026-02-13T15:12:06Z</time>
</trkpt>
<trkpt lat="52.341731" lon="4.573876">
<ele>3.4</ele>
<time>2026-02-13T15:12:06Z</time>
</trkpt>
<trkpt lat="52.341726" lon="4.573867">
<ele>3.4</ele>
<time>2026-02-13T15:12:07Z</time>
</trkpt>
<trkpt lat="52.341721" lon="4.573858">
<ele>3.4</ele>
<time>2026-02-13T15:12:07Z</time>
</trkpt>
<trkpt lat="52.341717" lon="4.573849">
<ele>3.3</ele>
<time>2026-02-13T15:12:08Z</time>
</trkpt>
<trkpt lat="52.341712" lon="4.573839">
<ele>3.3</ele>
<time>2026-02-13T15:12:08Z</time>
</trkpt>
<trkpt lat="52.341704" lon="4.573821">
<ele>3.3</ele>
<time>2026-02-13T15:12:09Z</time>
</trkpt>
<trkpt lat="52.341700" lon="4.573814">
<ele>3.5</ele>
<time>2026-02-13T15:12:10Z</time>
</trkpt>
<trkpt lat="52.341696" lon="4.573804">
<ele>3.5</ele>
<time>2026-02-13T15:12:10Z</time>
</trkpt>
<trkpt lat="52.341693" lon="4.573795">
<ele>3.3</ele>
<time>2026-02-13T15:12:11Z</time>
</trkpt>
<trkpt lat="52.341688" lon="4.573783">
<ele>3.3</ele>
<time>2026-02-13T15:12:11Z</time>
</trkpt>
<trkpt lat="52.341685" lon="4.573774">
<ele>3.5</ele>
<time>2026-02-13T15:12:12Z</time>
</trkpt>
<trkpt lat="52.341681" lon="4.573763">
<ele>3.5</ele>
<time>2026-02-13T15:12:12Z</time>
</trkpt>
<trkpt lat="52.341677" lon="4.573752">
<ele>3.5</ele>
<time>2026-02-13T15:12:13Z</time>
</trkpt>
<trkpt lat="52.341674" lon="4.573742">
<ele>3.5</ele>
<time>2026-02-13T15:12:13Z</time>
</trkpt>
<trkpt lat="52.341670" lon="4.573733">
<ele>3.5</ele>
<time>2026-02-13T15:12:14Z</time>
</trkpt>
<trkpt lat="52.341666" lon="4.573723">
<ele>3.5</ele>
<time>2026-02-13T15:12:14Z</time>
</trkpt>
<trkpt lat="52.341661" lon="4.573713">
<ele>3.5</ele>
<time>2026-02-13T15:12:15Z</time>
</trkpt>
<trkpt lat="52.341656" lon="4.573703">
<ele>3.3</ele>
<time>2026-02-13T15:12:15Z</time>
</trkpt>
<trkpt lat="52.341651" lon="4.573695">
<ele>3.5</ele>
<time>2026-02-13T15:12:16Z</time>
</trkpt>
<trkpt lat="52.341646" lon="4.573686">
<ele>3.5</ele>
<time>2026-02-13T15:12:16Z</time>
</trkpt>
<trkpt lat="52.341641" lon="4.573675">
<ele>3.5</ele>
<time>2026-02-13T15:12:17Z</time>
</trkpt>
<trkpt lat="52.341637" lon="4.573666">
<ele>3.5</ele>
<time>2026-02-13T15:12:17Z</time>
</trkpt>
<trkpt lat="52.341632" lon="4.573658">
<ele>3.5</ele>
<time>2026-02-13T15:12:18Z</time>
</trkpt>
<trkpt lat="52.341627" lon="4.573648">
<ele>3.5</ele>
<time>2026-02-13T15:12:18Z</time>
</trkpt>
<trkpt lat="52.341623" lon="4.573638">
<ele>3.5</ele>
<time>2026-02-13T15:12:19Z</time>
</trkpt>
<trkpt lat="52.341618" lon="4.573628">
<ele>3.5</ele>
<time>2026-02-13T15:12:19Z</time>
</trkpt>
<trkpt lat="52.341614" lon="4.573618">
<ele>3.3</ele>
<time>2026-02-13T15:12:20Z</time>
</trkpt>
<trkpt lat="52.341608" lon="4.573609">
<ele>3.3</ele>
<time>2026-02-13T15:12:20Z</time>
</trkpt>
<trkpt lat="52.341603" lon="4.573601">
<ele>3.6</ele>
<time>2026-02-13T15:12:21Z</time>
</trkpt>
<trkpt lat="52.341596" lon="4.573593">
<ele>3.6</ele>
<time>2026-02-13T15:12:21Z</time>
</trkpt>
<trkpt lat="52.341591" lon="4.573585">
<ele>3.6</ele>
<time>2026-02-13T15:12:22Z</time>
</trkpt>
<trkpt lat="52.341585" lon="4.573578">
<ele>3.6</ele>
<time>2026-02-13T15:12:22Z</time>
</trkpt>
<trkpt lat="52.341580" lon="4.573570">
<ele>4.0</ele>
<time>2026-02-13T15:12:23Z</time>
</trkpt>
<trkpt lat="52.341575" lon="4.573562">
<ele>4.0</ele>
<time>2026-02-13T15:12:23Z</time>
</trkpt>
<trkpt lat="52.341569" lon="4.573551">
<ele>4.1</ele>
<time>2026-02-13T15:12:24Z</time>
</trkpt>
<trkpt lat="52.341562" lon="4.573532">
<ele>4.2</ele>
<time>2026-02-13T15:12:25Z</time>
</trkpt>
<trkpt lat="52.341555" lon="4.573511">
<ele>4.3</ele>
<time>2026-02-13T15:12:26Z</time>
</trkpt>
<trkpt lat="52.341548" lon="4.573489">
<ele>4.1</ele>
<time>2026-02-13T15:12:27Z</time>
</trkpt>
<trkpt lat="52.341540" lon="4.573468">
<ele>4.3</ele>
<time>2026-02-13T15:12:28Z</time>
</trkpt>
<trkpt lat="52.341535" lon="4.573458">
<ele>4.3</ele>
<time>2026-02-13T15:12:28Z</time>
</trkpt>
<trkpt lat="52.341530" lon="4.573448">
<ele>4.3</ele>
<time>2026-02-13T15:12:29Z</time>
</trkpt>
<trkpt lat="52.341526" lon="4.573439">
<ele>4.3</ele>
<time>2026-02-13T15:12:29Z</time>
</trkpt>
<trkpt lat="52.341522" lon="4.573429">
<ele>4.4</ele>
<time>2026-02-13T15:12:30Z</time>
</trkpt>
<trkpt lat="52.341517" lon="4.573420">
<ele>4.4</ele>
<time>2026-02-13T15:12:30Z</time>
</trkpt>
<trkpt lat="52.341513" lon="4.573409">
<ele>4.5</ele>
<time>2026-02-13T15:12:31Z</time>
</trkpt>
<trkpt lat="52.341510" lon="4.573399">
<ele>4.5</ele>
<time>2026-02-13T15:12:31Z</time>
</trkpt>
<trkpt lat="52.341505" lon="4.573387">
<ele>4.5</ele>
<time>2026-02-13T15:12:32Z</time>
</trkpt>
<trkpt lat="52.341496" lon="4.573370">
<ele>4.5</ele>
<time>2026-02-13T15:12:33Z</time>
</trkpt>
<trkpt lat="52.341485" lon="4.573352">
<ele>4.7</ele>
<time>2026-02-13T15:12:34Z</time>
</trkpt>
<trkpt lat="52.341476" lon="4.573336">
<ele>4.7</ele>
<time>2026-02-13T15:12:34Z</time>
</trkpt>
<trkpt lat="52.341471" lon="4.573329">
<ele>4.4</ele>
<time>2026-02-13T15:12:35Z</time>
</trkpt>
<trkpt lat="52.341464" lon="4.573321">
<ele>4.4</ele>
<time>2026-02-13T15:12:35Z</time>
</trkpt>
<trkpt lat="52.341458" lon="4.573317">
<ele>4.5</ele>
<time>2026-02-13T15:12:36Z</time>
</trkpt>
<trkpt lat="52.341450" lon="4.573311">
<ele>4.5</ele>
<time>2026-02-13T15:12:36Z</time>
</trkpt>
<trkpt lat="52.341444" lon="4.573308">
<ele>4.4</ele>
<time>2026-02-13T15:12:37Z</time>
</trkpt>
<trkpt lat="52.341436" lon="4.573304">
<ele>4.1</ele>
<time>2026-02-13T15:12:38Z</time>
</trkpt>
<trkpt lat="52.341424" lon="4.573294">
<ele>4.3</ele>
<time>2026-02-13T15:12:39Z</time>
</trkpt>
<trkpt lat="52.341410" lon="4.573285">
<ele>4.3</ele>
<time>2026-02-13T15:12:40Z</time>
</trkpt>
<trkpt lat="52.341395" lon="4.573276">
<ele>4.3</ele>
<time>2026-02-13T15:12:41Z</time>
</trkpt>
<trkpt lat="52.341382" lon="4.573271">
<ele>4.2</ele>
<time>2026-02-13T15:12:42Z</time>
</trkpt>
<trkpt lat="52.341376" lon="4.573270">
<ele>4.5</ele>
<time>2026-02-13T15:12:42Z</time>
</trkpt>
<trkpt lat="52.341368" lon="4.573271">
<ele>4.5</ele>
<time>2026-02-13T15:12:43Z</time>
</trkpt>
<trkpt lat="52.341360" lon="4.573270">
<ele>4.5</ele>
<time>2026-02-13T15:12:43Z</time>
</trkpt>
<trkpt lat="52.341346" lon="4.573270">
<ele>4.3</ele>
<time>2026-02-13T15:12:44Z</time>
</trkpt>
<trkpt lat="52.341339" lon="4.573268">
<ele>4.3</ele>
<time>2026-02-13T15:12:45Z</time>
</trkpt>
<trkpt lat="52.341334" lon="4.573267">
<ele>4.4</ele>
<time>2026-02-13T15:12:45Z</time>
</trkpt>
<trkpt lat="52.341327" lon="4.573267">
<ele>4.4</ele>
<time>2026-02-13T15:12:46Z</time>
</trkpt>
<trkpt lat="52.341314" lon="4.573267">
<ele>4.3</ele>
<time>2026-02-13T15:12:47Z</time>
</trkpt>
<trkpt lat="52.341308" lon="4.573266">
<ele>4.3</ele>
<time>2026-02-13T15:12:47Z</time>
</trkpt>
<trkpt lat="52.341299" lon="4.573264">
<ele>4.3</ele>
<time>2026-02-13T15:12:48Z</time>
</trkpt>
<trkpt lat="52.341292" lon="4.573264">
<ele>4.2</ele>
<time>2026-02-13T15:12:48Z</time>
</trkpt>
<trkpt lat="52.341284" lon="4.573262">
<ele>4.1</ele>
<time>2026-02-13T15:12:49Z</time>
</trkpt>
<trkpt lat="52.341270" lon="4.573260">
<ele>4.1</ele>
<time>2026-02-13T15:12:50Z</time>
</trkpt>
<trkpt lat="52.341264" lon="4.573260">
<ele>4.2</ele>
<time>2026-02-13T15:12:50Z</time>
</trkpt>
<trkpt lat="52.341257" lon="4.573260">
<ele>4.2</ele>
<time>2026-02-13T15:12:51Z</time>
</trkpt>
<trkpt lat="52.341250" lon="4.573259">
<ele>4.2</ele>
<time>2026-02-13T15:12:51Z</time>
</trkpt>
<trkpt lat="52.341243" lon="4.573258">
<ele>4.1</ele>
<time>2026-02-13T15:12:52Z</time>
</trkpt>
<trkpt lat="52.341236" lon="4.573257">
<ele>4.1</ele>
<time>2026-02-13T15:12:52Z</time>
</trkpt>
<trkpt lat="52.341228" lon="4.573257">
<ele>4.0</ele>
<time>2026-02-13T15:12:53Z</time>
</trkpt>
<trkpt lat="52.341214" lon="4.573257">
<ele>3.8</ele>
<time>2026-02-13T15:12:54Z</time>
</trkpt>
<trkpt lat="52.341198" lon="4.573255">
<ele>3.8</ele>
<time>2026-02-13T15:12:55Z</time>
</trkpt>
<trkpt lat="52.341189" lon="4.573253">
<ele>3.6</ele>
<time>2026-02-13T15:12:56Z</time>
</trkpt>
<trkpt lat="52.341181" lon="4.573252">
<ele>3.6</ele>
<time>2026-02-13T15:12:56Z</time>
</trkpt>
<trkpt lat="52.341169" lon="4.573250">
<ele>3.8</ele>
<time>2026-02-13T15:12:57Z</time>
</trkpt>
<trkpt lat="52.341162" lon="4.573248">
<ele>3.7</ele>
<time>2026-02-13T15:12:58Z</time>
</trkpt>
<trkpt lat="52.341154" lon="4.573248">
<ele>3.7</ele>
<time>2026-02-13T15:12:58Z</time>
</trkpt>
<trkpt lat="52.341147" lon="4.573249">
<ele>3.7</ele>
<time>2026-02-13T15:12:59Z</time>
</trkpt>
<trkpt lat="52.341139" lon="4.573249">
<ele>3.7</ele>
<time>2026-02-13T15:12:59Z</time>
</trkpt>
<trkpt lat="52.341131" lon="4.573249">
<ele>3.6</ele>
<time>2026-02-13T15:13:00Z</time>
</trkpt>
<trkpt lat="52.341112" lon="4.573248">
<ele>3.6</ele>
<time>2026-02-13T15:13:01Z</time>
</trkpt>
<trkpt lat="52.341101" lon="4.573248">
<ele>3.4</ele>
<time>2026-02-13T15:13:02Z</time>
</trkpt>
<trkpt lat="52.341093" lon="4.573249">
<ele>3.4</ele>
<time>2026-02-13T15:13:02Z</time>
</trkpt>
<trkpt lat="52.341087" lon="4.573250">
<ele>3.7</ele>
<time>2026-02-13T15:13:03Z</time>
</trkpt>
<trkpt lat="52.341072" lon="4.573251">
<ele>3.7</ele>
<time>2026-02-13T15:13:03Z</time>
</trkpt>
<trkpt lat="52.341068" lon="4.573249">
<ele>3.7</ele>
<time>2026-02-13T15:13:04Z</time>
</trkpt>
<trkpt lat="52.341058" lon="4.573249">
<ele>3.6</ele>
<time>2026-02-13T15:13:05Z</time>
</trkpt>
<trkpt lat="52.341049" lon="4.573249">
<ele>3.6</ele>
<time>2026-02-13T15:13:05Z</time>
</trkpt>
<trkpt lat="52.341035" lon="4.573248">
<ele>3.7</ele>
<time>2026-02-13T15:13:06Z</time>
</trkpt>
<trkpt lat="52.341026" lon="4.573246">
<ele>3.7</ele>
<time>2026-02-13T15:13:07Z</time>
</trkpt>
<trkpt lat="52.341015" lon="4.573245">
<ele>3.5</ele>
<time>2026-02-13T15:13:08Z</time>
</trkpt>
<trkpt lat="52.341002" lon="4.573244">
<ele>3.5</ele>
<time>2026-02-13T15:13:08Z</time>
</trkpt>
<trkpt lat="52.340992" lon="4.573245">
<ele>3.4</ele>
<time>2026-02-13T15:13:09Z</time>
</trkpt>
<trkpt lat="52.340978" lon="4.573248">
<ele>3.4</ele>
<time>2026-02-13T15:13:10Z</time>
</trkpt>
<trkpt lat="52.340970" lon="4.573249">
<ele>3.3</ele>
<time>2026-02-13T15:13:11Z</time>
</trkpt>
<trkpt lat="52.340962" lon="4.573252">
<ele>3.3</ele>
<time>2026-02-13T15:13:11Z</time>
</trkpt>
<trkpt lat="52.340954" lon="4.573252">
<ele>3.2</ele>
<time>2026-02-13T15:13:12Z</time>
</trkpt>
<trkpt lat="52.340942" lon="4.573253">
<ele>3.1</ele>
<time>2026-02-13T15:13:13Z</time>
</trkpt>
<trkpt lat="52.340933" lon="4.573253">
<ele>3.1</ele>
<time>2026-02-13T15:13:13Z</time>
</trkpt>
<trkpt lat="52.340920" lon="4.573253">
<ele>3.0</ele>
<time>2026-02-13T15:13:14Z</time>
</trkpt>
<trkpt lat="52.340905" lon="4.573252">
<ele>2.7</ele>
<time>2026-02-13T15:13:15Z</time>
</trkpt>
<trkpt lat="52.340897" lon="4.573250">
<ele>2.7</ele>
<time>2026-02-13T15:13:16Z</time>
</trkpt>
<trkpt lat="52.340885" lon="4.573249">
<ele>2.9</ele>
<time>2026-02-13T15:13:17Z</time>
</trkpt>
<trkpt lat="52.340876" lon="4.573251">
<ele>2.9</ele>
<time>2026-02-13T15:13:17Z</time>
</trkpt>
<trkpt lat="52.340868" lon="4.573250">
<ele>2.7</ele>
<time>2026-02-13T15:13:18Z</time>
</trkpt>
<trkpt lat="52.340855" lon="4.573248">
<ele>2.9</ele>
<time>2026-02-13T15:13:19Z</time>
</trkpt>
<trkpt lat="52.340845" lon="4.573248">
<ele>2.9</ele>
<time>2026-02-13T15:13:19Z</time>
</trkpt>
<trkpt lat="52.340831" lon="4.573245">
<ele>3.0</ele>
<time>2026-02-13T15:13:20Z</time>
</trkpt>
<trkpt lat="52.340808" lon="4.573240">
<ele>3.0</ele>
<time>2026-02-13T15:13:22Z</time>
</trkpt>
<trkpt lat="52.340801" lon="4.573239">
<ele>3.0</ele>
<time>2026-02-13T15:13:22Z</time>
</trkpt>
<trkpt lat="52.340791" lon="4.573237">
<ele>3.0</ele>
<time>2026-02-13T15:13:23Z</time>
</trkpt>
<trkpt lat="52.340781" lon="4.573238">
<ele>2.9</ele>
<time>2026-02-13T15:13:24Z</time>
</trkpt>
<trkpt lat="52.340773" lon="4.573239">
<ele>2.9</ele>
<time>2026-02-13T15:13:24Z</time>
</trkpt>
<trkpt lat="52.340764" lon="4.573235">
<ele>2.9</ele>
<time>2026-02-13T15:13:25Z</time>
</trkpt>
<trkpt lat="52.340750" lon="4.573233">
<ele>2.7</ele>
<time>2026-02-13T15:13:26Z</time>
</trkpt>
<trkpt lat="52.340744" lon="4.573227">
<ele>3.0</ele>
<time>2026-02-13T15:13:26Z</time>
</trkpt>
<trkpt lat="52.340730" lon="4.573217">
<ele>3.0</ele>
<time>2026-02-13T15:13:27Z</time>
</trkpt>
<trkpt lat="52.340724" lon="4.573210">
<ele>3.0</ele>
<time>2026-02-13T15:13:28Z</time>
</trkpt>
<trkpt lat="52.340715" lon="4.573203">
<ele>3.0</ele>
<time>2026-02-13T15:13:28Z</time>
</trkpt>
<trkpt lat="52.340704" lon="4.573188">
<ele>2.8</ele>
<time>2026-02-13T15:13:29Z</time>
</trkpt>
<trkpt lat="52.340699" lon="4.573179">
<ele>2.7</ele>
<time>2026-02-13T15:13:30Z</time>
</trkpt>
<trkpt lat="52.340692" lon="4.573171">
<ele>2.7</ele>
<time>2026-02-13T15:13:30Z</time>
</trkpt>
<trkpt lat="52.340679" lon="4.573157">
<ele>2.6</ele>
<time>2026-02-13T15:13:31Z</time>
</trkpt>
<trkpt lat="52.340674" lon="4.573150">
<ele>2.4</ele>
<time>2026-02-13T15:13:32Z</time>
</trkpt>
<trkpt lat="52.340667" lon="4.573142">
<ele>2.4</ele>
<time>2026-02-13T15:13:32Z</time>
</trkpt>
<trkpt lat="52.340663" lon="4.573134">
<ele>2.4</ele>
<time>2026-02-13T15:13:33Z</time>
</trkpt>
<trkpt lat="52.340657" lon="4.573125">
<ele>2.4</ele>
<time>2026-02-13T15:13:33Z</time>
</trkpt>
<trkpt lat="52.340653" lon="4.573116">
<ele>2.5</ele>
<time>2026-02-13T15:13:34Z</time>
</trkpt>
<trkpt lat="52.340647" lon="4.573106">
<ele>2.5</ele>
<time>2026-02-13T15:13:34Z</time>
</trkpt>
<trkpt lat="52.340643" lon="4.573095">
<ele>2.2</ele>
<time>2026-02-13T15:13:35Z</time>
</trkpt>
<trkpt lat="52.340634" lon="4.573078">
<ele>2.3</ele>
<time>2026-02-13T15:13:36Z</time>
</trkpt>
<trkpt lat="52.340625" lon="4.573060">
<ele>2.3</ele>
<time>2026-02-13T15:13:36Z</time>
</trkpt>
<trkpt lat="52.340614" lon="4.573035">
<ele>2.4</ele>
<time>2026-02-13T15:13:38Z</time>
</trkpt>
<trkpt lat="52.340607" lon="4.573016">
<ele>2.4</ele>
<time>2026-02-13T15:13:39Z</time>
</trkpt>
<trkpt lat="52.340600" lon="4.572999">
<ele>2.6</ele>
<time>2026-02-13T15:13:40Z</time>
</trkpt>
<trkpt lat="52.340595" lon="4.572991">
<ele>2.4</ele>
<time>2026-02-13T15:13:40Z</time>
</trkpt>
<trkpt lat="52.340587" lon="4.572982">
<ele>2.3</ele>
<time>2026-02-13T15:13:41Z</time>
</trkpt>
<trkpt lat="52.340580" lon="4.572976">
<ele>2.0</ele>
<time>2026-02-13T15:13:42Z</time>
</trkpt>
<trkpt lat="52.340569" lon="4.572965">
<ele>2.3</ele>
<time>2026-02-13T15:13:43Z</time>
</trkpt>
<trkpt lat="52.340562" lon="4.572958">
<ele>2.3</ele>
<time>2026-02-13T15:13:43Z</time>
</trkpt>
<trkpt lat="52.340549" lon="4.572943">
<ele>2.3</ele>
<time>2026-02-13T15:13:44Z</time>
</trkpt>
<trkpt lat="52.340543" lon="4.572931">
<ele>2.6</ele>
<time>2026-02-13T15:13:45Z</time>
</trkpt>
<trkpt lat="52.340536" lon="4.572922">
<ele>2.6</ele>
<time>2026-02-13T15:13:45Z</time>
</trkpt>
<trkpt lat="52.340529" lon="4.572908">
<ele>2.4</ele>
<time>2026-02-13T15:13:46Z</time>
</trkpt>
<trkpt lat="52.340525" lon="4.572899">
<ele>2.6</ele>
<time>2026-02-13T15:13:47Z</time>
</trkpt>
<trkpt lat="52.340519" lon="4.572891">
<ele>2.6</ele>
<time>2026-02-13T15:13:47Z</time>
</trkpt>
<trkpt lat="52.340515" lon="4.572883">
<ele>2.7</ele>
<time>2026-02-13T15:13:48Z</time>
</trkpt>
<trkpt lat="52.340508" lon="4.572875">
<ele>2.7</ele>
<time>2026-02-13T15:13:48Z</time>
</trkpt>
<trkpt lat="52.340502" lon="4.572860">
<ele>2.7</ele>
<time>2026-02-13T15:13:49Z</time>
</trkpt>
<trkpt lat="52.340495" lon="4.572844">
<ele>2.8</ele>
<time>2026-02-13T15:13:50Z</time>
</trkpt>
<trkpt lat="52.340488" lon="4.572832">
<ele>2.8</ele>
<time>2026-02-13T15:13:50Z</time>
</trkpt>
<trkpt lat="52.340485" lon="4.572818">
<ele>2.6</ele>
<time>2026-02-13T15:13:51Z</time>
</trkpt>
<trkpt lat="52.340479" lon="4.572797">
<ele>2.6</ele>
<time>2026-02-13T15:13:52Z</time>
</trkpt>
<trkpt lat="52.340473" lon="4.572778">
<ele>2.6</ele>
<time>2026-02-13T15:13:52Z</time>
</trkpt>
<trkpt lat="52.340469" lon="4.572760">
<ele>2.4</ele>
<time>2026-02-13T15:13:53Z</time>
</trkpt>
<trkpt lat="52.340465" lon="4.572747">
<ele>2.5</ele>
<time>2026-02-13T15:13:54Z</time>
</trkpt>
<trkpt lat="52.340458" lon="4.572729">
<ele>2.5</ele>
<time>2026-02-13T15:13:55Z</time>
</trkpt>
<trkpt lat="52.340453" lon="4.572717">
<ele>2.5</ele>
<time>2026-02-13T15:13:55Z</time>
</trkpt>
<trkpt lat="52.340450" lon="4.572706">
<ele>2.6</ele>
<time>2026-02-13T15:13:56Z</time>
</trkpt>
<trkpt lat="52.340446" lon="4.572696">
<ele>2.6</ele>
<time>2026-02-13T15:13:56Z</time>
</trkpt>
<trkpt lat="52.340441" lon="4.572684">
<ele>2.4</ele>
<time>2026-02-13T15:13:57Z</time>
</trkpt>
<trkpt lat="52.340431" lon="4.572665">
<ele>2.3</ele>
<time>2026-02-13T15:13:58Z</time>
</trkpt>
<trkpt lat="52.340423" lon="4.572647">
<ele>2.3</ele>
<time>2026-02-13T15:13:59Z</time>
</trkpt>
<trkpt lat="52.340416" lon="4.572630">
<ele>2.3</ele>
<time>2026-02-13T15:14:00Z</time>
</trkpt>
<trkpt lat="52.340413" lon="4.572622">
<ele>2.3</ele>
<time>2026-02-13T15:14:00Z</time>
</trkpt>
<trkpt lat="52.340406" lon="4.572606">
<ele>2.2</ele>
<time>2026-02-13T15:14:01Z</time>
</trkpt>
<trkpt lat="52.340403" lon="4.572594">
<ele>2.1</ele>
<time>2026-02-13T15:14:02Z</time>
</trkpt>
<trkpt lat="52.340397" lon="4.572580">
<ele>2.1</ele>
<time>2026-02-13T15:14:03Z</time>
</trkpt>
<trkpt lat="52.340391" lon="4.572568">
<ele>2.1</ele>
<time>2026-02-13T15:14:03Z</time>
</trkpt>
<trkpt lat="52.340386" lon="4.572560">
<ele>2.2</ele>
<time>2026-02-13T15:14:04Z</time>
</trkpt>
<trkpt lat="52.340381" lon="4.572550">
<ele>2.2</ele>
<time>2026-02-13T15:14:04Z</time>
</trkpt>
<trkpt lat="52.340370" lon="4.572532">
<ele>2.1</ele>
<time>2026-02-13T15:14:05Z</time>
</trkpt>
<trkpt lat="52.340363" lon="4.572522">
<ele>2.1</ele>
<time>2026-02-13T15:14:06Z</time>
</trkpt>
<trkpt lat="52.340354" lon="4.572508">
<ele>2.0</ele>
<time>2026-02-13T15:14:07Z</time>
</trkpt>
<trkpt lat="52.340347" lon="4.572497">
<ele>2.0</ele>
<time>2026-02-13T15:14:07Z</time>
</trkpt>
<trkpt lat="52.340340" lon="4.572488">
<ele>1.9</ele>
<time>2026-02-13T15:14:08Z</time>
</trkpt>
<trkpt lat="52.340332" lon="4.572479">
<ele>2.0</ele>
<time>2026-02-13T15:14:09Z</time>
</trkpt>
<trkpt lat="52.340323" lon="4.572463">
<ele>2.0</ele>
<time>2026-02-13T15:14:09Z</time>
</trkpt>
<trkpt lat="52.340312" lon="4.572453">
<ele>2.0</ele>
<time>2026-02-13T15:14:10Z</time>
</trkpt>
<trkpt lat="52.340299" lon="4.572441">
<ele>1.9</ele>
<time>2026-02-13T15:14:11Z</time>
</trkpt>
<trkpt lat="52.340286" lon="4.572431">
<ele>1.8</ele>
<time>2026-02-13T15:14:12Z</time>
</trkpt>
<trkpt lat="52.340277" lon="4.572426">
<ele>1.9</ele>
<time>2026-02-13T15:14:13Z</time>
</trkpt>
<trkpt lat="52.340270" lon="4.572421">
<ele>1.9</ele>
<time>2026-02-13T15:14:14Z</time>
</trkpt>
<trkpt lat="52.340260" lon="4.572414">
<ele>1.9</ele>
<time>2026-02-13T15:14:14Z</time>
</trkpt>
<trkpt lat="52.340250" lon="4.572402">
<ele>1.9</ele>
<time>2026-02-13T15:14:15Z</time>
</trkpt>
<trkpt lat="52.340239" lon="4.572389">
<ele>1.9</ele>
<time>2026-02-13T15:14:16Z</time>
</trkpt>
<trkpt lat="52.340224" lon="4.572370">
<ele>1.9</ele>
<time>2026-02-13T15:14:18Z</time>
</trkpt>
<trkpt lat="52.340217" lon="4.572357">
<ele>2.2</ele>
<time>2026-02-13T15:14:19Z</time>
</trkpt>
<trkpt lat="52.340207" lon="4.572344">
<ele>1.9</ele>
<time>2026-02-13T15:14:19Z</time>
</trkpt>
<trkpt lat="52.340196" lon="4.572329">
<ele>1.9</ele>
<time>2026-02-13T15:14:20Z</time>
</trkpt>
<trkpt lat="52.340185" lon="4.572316">
<ele>1.8</ele>
<time>2026-02-13T15:14:21Z</time>
</trkpt>
<trkpt lat="52.340178" lon="4.572306">
<ele>1.8</ele>
<time>2026-02-13T15:14:22Z</time>
</trkpt>
<trkpt lat="52.340169" lon="4.572296">
<ele>1.5</ele>
<time>2026-02-13T15:14:23Z</time>
</trkpt>
<trkpt lat="52.340162" lon="4.572291">
<ele>1.5</ele>
<time>2026-02-13T15:14:23Z</time>
</trkpt>
<trkpt lat="52.340157" lon="4.572281">
<ele>1.7</ele>
<time>2026-02-13T15:14:24Z</time>
</trkpt>
<trkpt lat="52.340151" lon="4.572275">
<ele>1.7</ele>
<time>2026-02-13T15:14:24Z</time>
</trkpt>
<trkpt lat="52.340145" lon="4.572264">
<ele>2.0</ele>
<time>2026-02-13T15:14:25Z</time>
</trkpt>
<trkpt lat="52.340139" lon="4.572258">
<ele>2.0</ele>
<time>2026-02-13T15:14:26Z</time>
</trkpt>
<trkpt lat="52.340135" lon="4.572249">
<ele>2.0</ele>
<time>2026-02-13T15:14:26Z</time>
</trkpt>
<trkpt lat="52.340126" lon="4.572241">
<ele>2.0</ele>
<time>2026-02-13T15:14:27Z</time>
</trkpt>
<trkpt lat="52.340124" lon="4.572233">
<ele>2.0</ele>
<time>2026-02-13T15:14:27Z</time>
</trkpt>
<trkpt lat="52.340118" lon="4.572227">
<ele>2.0</ele>
<time>2026-02-13T15:14:28Z</time>
</trkpt>
<trkpt lat="52.340113" lon="4.572217">
<ele>2.0</ele>
<time>2026-02-13T15:14:28Z</time>
</trkpt>
<trkpt lat="52.340108" lon="4.572207">
<ele>2.0</ele>
<time>2026-02-13T15:14:29Z</time>
</trkpt>
<trkpt lat="52.340102" lon="4.572198">
<ele>2.0</ele>
<time>2026-02-13T15:14:29Z</time>
</trkpt>
<trkpt lat="52.340086" lon="4.572179">
<ele>1.9</ele>
<time>2026-02-13T15:14:30Z</time>
</trkpt>
<trkpt lat="52.340079" lon="4.572170">
<ele>1.9</ele>
<time>2026-02-13T15:14:31Z</time>
</trkpt>
<trkpt lat="52.340072" lon="4.572164">
<ele>1.9</ele>
<time>2026-02-13T15:14:31Z</time>
</trkpt>
<trkpt lat="52.340066" lon="4.572151">
<ele>1.9</ele>
<time>2026-02-13T15:14:32Z</time>
</trkpt>
<trkpt lat="52.340061" lon="4.572141">
<ele>2.2</ele>
<time>2026-02-13T15:14:33Z</time>
</trkpt>
<trkpt lat="52.340051" lon="4.572125">
<ele>2.2</ele>
<time>2026-02-13T15:14:33Z</time>
</trkpt>
<trkpt lat="52.340047" lon="4.572114">
<ele>2.2</ele>
<time>2026-02-13T15:14:34Z</time>
</trkpt>
<trkpt lat="52.340041" lon="4.572106">
<ele>2.2</ele>
<time>2026-02-13T15:14:35Z</time>
</trkpt>
<trkpt lat="52.340031" lon="4.572087">
<ele>2.1</ele>
<time>2026-02-13T15:14:36Z</time>
</trkpt>
<trkpt lat="52.340027" lon="4.572077">
<ele>2.3</ele>
<time>2026-02-13T15:14:36Z</time>
</trkpt>
<trkpt lat="52.340021" lon="4.572069">
<ele>2.3</ele>
<time>2026-02-13T15:14:37Z</time>
</trkpt>
<trkpt lat="52.340016" lon="4.572059">
<ele>2.3</ele>
<time>2026-02-13T15:14:37Z</time>
</trkpt>
<trkpt lat="52.340007" lon="4.572044">
<ele>2.3</ele>
<time>2026-02-13T15:14:38Z</time>
</trkpt>
<trkpt lat="52.340001" lon="4.572036">
<ele>2.3</ele>
<time>2026-02-13T15:14:39Z</time>
</trkpt>
<trkpt lat="52.339997" lon="4.572026">
<ele>2.5</ele>
<time>2026-02-13T15:14:39Z</time>
</trkpt>
<trkpt lat="52.339991" lon="4.572017">
<ele>2.5</ele>
<time>2026-02-13T15:14:40Z</time>
</trkpt>
<trkpt lat="52.339987" lon="4.572008">
<ele>2.5</ele>
<time>2026-02-13T15:14:40Z</time>
</trkpt>
<trkpt lat="52.339982" lon="4.571999">
<ele>2.5</ele>
<time>2026-02-13T15:14:41Z</time>
</trkpt>
<trkpt lat="52.339975" lon="4.571979">
<ele>2.7</ele>
<time>2026-02-13T15:14:42Z</time>
</trkpt>
<trkpt lat="52.339970" lon="4.571970">
<ele>2.7</ele>
<time>2026-02-13T15:14:42Z</time>
</trkpt>
<trkpt lat="52.339964" lon="4.571962">
<ele>2.7</ele>
<time>2026-02-13T15:14:43Z</time>
</trkpt>
<trkpt lat="52.339959" lon="4.571953">
<ele>2.8</ele>
<time>2026-02-13T15:14:43Z</time>
</trkpt>
<trkpt lat="52.339953" lon="4.571944">
<ele>2.8</ele>
<time>2026-02-13T15:14:44Z</time>
</trkpt>
<trkpt lat="52.339948" lon="4.571933">
<ele>2.8</ele>
<time>2026-02-13T15:14:44Z</time>
</trkpt>
<trkpt lat="52.339944" lon="4.571924">
<ele>2.7</ele>
<time>2026-02-13T15:14:45Z</time>
</trkpt>
<trkpt lat="52.339939" lon="4.571916">
<ele>2.7</ele>
<time>2026-02-13T15:14:45Z</time>
</trkpt>
<trkpt lat="52.339934" lon="4.571907">
<ele>2.7</ele>
<time>2026-02-13T15:14:46Z</time>
</trkpt>
<trkpt lat="52.339926" lon="4.571890">
<ele>2.7</ele>
<time>2026-02-13T15:14:47Z</time>
</trkpt>
<trkpt lat="52.339922" lon="4.571875">
<ele>2.6</ele>
<time>2026-02-13T15:14:47Z</time>
</trkpt>
<trkpt lat="52.339914" lon="4.571859">
<ele>2.5</ele>
<time>2026-02-13T15:14:48Z</time>
</trkpt>
<trkpt lat="52.339909" lon="4.571849">
<ele>2.5</ele>
<time>2026-02-13T15:14:49Z</time>
</trkpt>
<trkpt lat="52.339900" lon="4.571833">
<ele>2.5</ele>
<time>2026-02-13T15:14:50Z</time>
</trkpt>
<trkpt lat="52.339895" lon="4.571827">
<ele>2.7</ele>
<time>2026-02-13T15:14:50Z</time>
</trkpt>
<trkpt lat="52.339890" lon="4.571817">
<ele>2.7</ele>
<time>2026-02-13T15:14:51Z</time>
</trkpt>
<trkpt lat="52.339884" lon="4.571812">
<ele>2.4</ele>
<time>2026-02-13T15:14:51Z</time>
</trkpt>
<trkpt lat="52.339875" lon="4.571797">
<ele>2.4</ele>
<time>2026-02-13T15:14:52Z</time>
</trkpt>
<trkpt lat="52.339866" lon="4.571786">
<ele>2.4</ele>
<time>2026-02-13T15:14:53Z</time>
</trkpt>
<trkpt lat="52.339858" lon="4.571774">
<ele>2.4</ele>
<time>2026-02-13T15:14:54Z</time>
</trkpt>
<trkpt lat="52.339848" lon="4.571759">
<ele>2.4</ele>
<time>2026-02-13T15:14:55Z</time>
</trkpt>
<trkpt lat="52.339836" lon="4.571744">
<ele>2.3</ele>
<time>2026-02-13T15:14:56Z</time>
</trkpt>
<trkpt lat="52.339829" lon="4.571736">
<ele>2.6</ele>
<time>2026-02-13T15:14:56Z</time>
</trkpt>
<trkpt lat="52.339824" lon="4.571729">
<ele>2.4</ele>
<time>2026-02-13T15:14:57Z</time>
</trkpt>
<trkpt lat="52.339819" lon="4.571722">
<ele>2.4</ele>
<time>2026-02-13T15:14:57Z</time>
</trkpt>
<trkpt lat="52.339814" lon="4.571712">
<ele>2.4</ele>
<time>2026-02-13T15:14:58Z</time>
</trkpt>
<trkpt lat="52.339809" lon="4.571700">
<ele>2.3</ele>
<time>2026-02-13T15:14:58Z</time>
</trkpt>
<trkpt lat="52.339802" lon="4.571686">
<ele>2.5</ele>
<time>2026-02-13T15:14:59Z</time>
</trkpt>
<trkpt lat="52.339797" lon="4.571676">
<ele>2.5</ele>
<time>2026-02-13T15:15:00Z</time>
</trkpt>
<trkpt lat="52.339787" lon="4.571660">
<ele>2.5</ele>
<time>2026-02-13T15:15:01Z</time>
</trkpt>
<trkpt lat="52.339782" lon="4.571654">
<ele>2.5</ele>
<time>2026-02-13T15:15:01Z</time>
</trkpt>
<trkpt lat="52.339777" lon="4.571644">
<ele>2.5</ele>
<time>2026-02-13T15:15:02Z</time>
</trkpt>
<trkpt lat="52.339765" lon="4.571630">
<ele>2.5</ele>
<time>2026-02-13T15:15:03Z</time>
</trkpt>
<trkpt lat="52.339753" lon="4.571617">
<ele>2.4</ele>
<time>2026-02-13T15:15:03Z</time>
</trkpt>
<trkpt lat="52.339752" lon="4.571614">
<ele>2.3</ele>
<time>2026-02-13T15:15:04Z</time>
</trkpt>
<trkpt lat="52.339740" lon="4.571596">
<ele>2.2</ele>
<time>2026-02-13T15:15:05Z</time>
</trkpt>
<trkpt lat="52.339732" lon="4.571587">
<ele>2.1</ele>
<time>2026-02-13T15:15:06Z</time>
</trkpt>
<trkpt lat="52.339717" lon="4.571577">
<ele>2.1</ele>
<time>2026-02-13T15:15:07Z</time>
</trkpt>
<trkpt lat="52.339710" lon="4.571566">
<ele>2.2</ele>
<time>2026-02-13T15:15:08Z</time>
</trkpt>
<trkpt lat="52.339707" lon="4.571555">
<ele>2.1</ele>
<time>2026-02-13T15:15:08Z</time>
</trkpt>
<trkpt lat="52.339702" lon="4.571548">
<ele>2.1</ele>
<time>2026-02-13T15:15:09Z</time>
</trkpt>
<trkpt lat="52.339693" lon="4.571530">
<ele>2.2</ele>
<time>2026-02-13T15:15:10Z</time>
</trkpt>
<trkpt lat="52.339688" lon="4.571518">
<ele>1.9</ele>
<time>2026-02-13T15:15:10Z</time>
</trkpt>
<trkpt lat="52.339683" lon="4.571509">
<ele>1.9</ele>
<time>2026-02-13T15:15:11Z</time>
</trkpt>
<trkpt lat="52.339678" lon="4.571498">
<ele>2.4</ele>
<time>2026-02-13T15:15:11Z</time>
</trkpt>
<trkpt lat="52.339672" lon="4.571489">
<ele>2.4</ele>
<time>2026-02-13T15:15:12Z</time>
</trkpt>
<trkpt lat="52.339667" lon="4.571478">
<ele>1.8</ele>
<time>2026-02-13T15:15:12Z</time>
</trkpt>
<trkpt lat="52.339662" lon="4.571469">
<ele>1.7</ele>
<time>2026-02-13T15:15:13Z</time>
</trkpt>
<trkpt lat="52.339655" lon="4.571449">
<ele>2.0</ele>
<time>2026-02-13T15:15:14Z</time>
</trkpt>
<trkpt lat="52.339653" lon="4.571438">
<ele>2.0</ele>
<time>2026-02-13T15:15:14Z</time>
</trkpt>
<trkpt lat="52.339650" lon="4.571425">
<ele>1.9</ele>
<time>2026-02-13T15:15:15Z</time>
</trkpt>
<trkpt lat="52.339642" lon="4.571403">
<ele>1.9</ele>
<time>2026-02-13T15:15:16Z</time>
</trkpt>
<trkpt lat="52.339635" lon="4.571385">
<ele>1.7</ele>
<time>2026-02-13T15:15:17Z</time>
</trkpt>
<trkpt lat="52.339632" lon="4.571375">
<ele>1.6</ele>
<time>2026-02-13T15:15:17Z</time>
</trkpt>
<trkpt lat="52.339627" lon="4.571365">
<ele>1.6</ele>
<time>2026-02-13T15:15:18Z</time>
</trkpt>
<trkpt lat="52.339625" lon="4.571352">
<ele>1.6</ele>
<time>2026-02-13T15:15:18Z</time>
</trkpt>
<trkpt lat="52.339614" lon="4.571335">
<ele>1.6</ele>
<time>2026-02-13T15:15:20Z</time>
</trkpt>
<trkpt lat="52.339605" lon="4.571325">
<ele>1.5</ele>
<time>2026-02-13T15:15:21Z</time>
</trkpt>
<trkpt lat="52.339595" lon="4.571322">
<ele>1.6</ele>
<time>2026-02-13T15:15:22Z</time>
</trkpt>
<trkpt lat="52.339588" lon="4.571327">
<ele>1.7</ele>
<time>2026-02-13T15:15:23Z</time>
</trkpt>
<trkpt lat="52.339589" lon="4.571333">
<ele>1.8</ele>
<time>2026-02-13T15:15:24Z</time>
</trkpt>
<trkpt lat="52.339590" lon="4.571339">
<ele>1.9</ele>
<time>2026-02-13T15:15:25Z</time>
</trkpt>
<trkpt lat="52.339591" lon="4.571344">
<ele>2.0</ele>
<time>2026-02-13T15:15:26Z</time>
</trkpt>
<trkpt lat="52.339592" lon="4.571347">
<ele>2.2</ele>
<time>2026-02-13T15:15:27Z</time>
</trkpt>
<trkpt lat="52.339594" lon="4.571350">
<ele>2.2</ele>
<time>2026-02-13T15:15:28Z</time>
</trkpt>
<trkpt lat="52.339594" lon="4.571353">
<ele>2.2</ele>
<time>2026-02-13T15:15:29Z</time>
</trkpt>
<trkpt lat="52.339595" lon="4.571356">
<ele>2.2</ele>
<time>2026-02-13T15:15:30Z</time>
</trkpt>
<trkpt lat="52.339595" lon="4.571357">
<ele>2.1</ele>
<time>2026-02-13T15:15:31Z</time>
</trkpt>
<trkpt lat="52.339595" lon="4.571358">
<ele>2.1</ele>
<time>2026-02-13T15:15:32Z</time>
</trkpt>
<trkpt lat="52.339594" lon="4.571359">
<ele>2.1</ele>
<time>2026-02-13T15:15:33Z</time>
</trkpt>
<trkpt lat="52.339595" lon="4.571360">
<ele>2.0</ele>
<time>2026-02-13T15:15:34Z</time>
</trkpt>
<trkpt lat="52.339595" lon="4.571361">
<ele>1.9</ele>
<time>2026-02-13T15:15:35Z</time>
</trkpt>
<trkpt lat="52.339594" lon="4.571361">
<ele>2.2</ele>
<time>2026-02-13T15:15:36Z</time>
</trkpt>
<trkpt lat="52.339594" lon="4.571362">
<ele>2.2</ele>
<time>2026-02-13T15:15:36Z</time>
</trkpt>
<trkpt lat="52.339591" lon="4.571359">
<ele>2.1</ele>
<time>2026-02-13T15:15:38Z</time>
</trkpt>
<trkpt lat="52.339582" lon="4.571347">
<ele>2.0</ele>
<time>2026-02-13T15:15:39Z</time>
</trkpt>
<trkpt lat="52.339576" lon="4.571335">
<ele>1.9</ele>
<time>2026-02-13T15:15:40Z</time>
</trkpt>
<trkpt lat="52.339568" lon="4.571320">
<ele>2.0</ele>
<time>2026-02-13T15:15:41Z</time>
</trkpt>
<trkpt lat="52.339561" lon="4.571307">
<ele>1.8</ele>
<time>2026-02-13T15:15:42Z</time>
</trkpt>
<trkpt lat="52.339551" lon="4.571295">
<ele>1.8</ele>
<time>2026-02-13T15:15:43Z</time>
</trkpt>
<trkpt lat="52.339558" lon="4.571299">
<ele>1.8</ele>
<time>2026-02-13T15:15:43Z</time>
</trkpt>
<trkpt lat="52.339547" lon="4.571293">
<ele>1.7</ele>
<time>2026-02-13T15:15:45Z</time>
</trkpt>
<trkpt lat="52.339538" lon="4.571288">
<ele>1.8</ele>
<time>2026-02-13T15:15:45Z</time>
</trkpt>
<trkpt lat="52.339529" lon="4.571273">
<ele>1.9</ele>
<time>2026-02-13T15:15:46Z</time>
</trkpt>
<trkpt lat="52.339523" lon="4.571267">
<ele>1.8</ele>
<time>2026-02-13T15:15:47Z</time>
</trkpt>
<trkpt lat="52.339519" lon="4.571258">
<ele>1.8</ele>
<time>2026-02-13T15:15:47Z</time>
</trkpt>
<trkpt lat="52.339514" lon="4.571250">
<ele>2.0</ele>
<time>2026-02-13T15:15:48Z</time>
</trkpt>
<trkpt lat="52.339504" lon="4.571233">
<ele>2.0</ele>
<time>2026-02-13T15:15:49Z</time>
</trkpt>
<trkpt lat="52.339500" lon="4.571223">
<ele>2.0</ele>
<time>2026-02-13T15:15:49Z</time>
</trkpt>
<trkpt lat="52.339496" lon="4.571212">
<ele>1.8</ele>
<time>2026-02-13T15:15:50Z</time>
</trkpt>
<trkpt lat="52.339489" lon="4.571197">
<ele>2.1</ele>
<time>2026-02-13T15:15:51Z</time>
</trkpt>
<trkpt lat="52.339480" lon="4.571180">
<ele>2.1</ele>
<time>2026-02-13T15:15:51Z</time>
</trkpt>
<trkpt lat="52.339479" lon="4.571175">
<ele>2.1</ele>
<time>2026-02-13T15:15:52Z</time>
</trkpt>
<trkpt lat="52.339473" lon="4.571167">
<ele>2.1</ele>
<time>2026-02-13T15:15:52Z</time>
</trkpt>
<trkpt lat="52.339469" lon="4.571158">
<ele>2.0</ele>
<time>2026-02-13T15:15:53Z</time>
</trkpt>
<trkpt lat="52.339463" lon="4.571143">
<ele>2.0</ele>
<time>2026-02-13T15:15:54Z</time>
</trkpt>
<trkpt lat="52.339458" lon="4.571131">
<ele>2.0</ele>
<time>2026-02-13T15:15:54Z</time>
</trkpt>
<trkpt lat="52.339449" lon="4.571112">
<ele>1.6</ele>
<time>2026-02-13T15:15:55Z</time>
</trkpt>
<trkpt lat="52.339444" lon="4.571101">
<ele>1.5</ele>
<time>2026-02-13T15:15:56Z</time>
</trkpt>
<trkpt lat="52.339437" lon="4.571084">
<ele>1.6</ele>
<time>2026-02-13T15:15:57Z</time>
</trkpt>
<trkpt lat="52.339432" lon="4.571072">
<ele>1.6</ele>
<time>2026-02-13T15:15:57Z</time>
</trkpt>
<trkpt lat="52.339427" lon="4.571060">
<ele>1.7</ele>
<time>2026-02-13T15:15:58Z</time>
</trkpt>
<trkpt lat="52.339417" lon="4.571038">
<ele>1.5</ele>
<time>2026-02-13T15:15:59Z</time>
</trkpt>
<trkpt lat="52.339414" lon="4.571033">
<ele>1.5</ele>
<time>2026-02-13T15:15:59Z</time>
</trkpt>
<trkpt lat="52.339409" lon="4.571026">
<ele>1.5</ele>
<time>2026-02-13T15:16:00Z</time>
</trkpt>
<trkpt lat="52.339400" lon="4.571012">
<ele>1.6</ele>
<time>2026-02-13T15:16:01Z</time>
</trkpt>
<trkpt lat="52.339395" lon="4.571001">
<ele>1.6</ele>
<time>2026-02-13T15:16:01Z</time>
</trkpt>
<trkpt lat="52.339390" lon="4.570994">
<ele>1.6</ele>
<time>2026-02-13T15:16:02Z</time>
</trkpt>
<trkpt lat="52.339384" lon="4.570984">
<ele>1.6</ele>
<time>2026-02-13T15:16:02Z</time>
</trkpt>
<trkpt lat="52.339377" lon="4.570976">
<ele>1.6</ele>
<time>2026-02-13T15:16:03Z</time>
</trkpt>
<trkpt lat="52.339371" lon="4.570967">
<ele>1.6</ele>
<time>2026-02-13T15:16:03Z</time>
</trkpt>
<trkpt lat="52.339364" lon="4.570958">
<ele>1.5</ele>
<time>2026-02-13T15:16:04Z</time>
</trkpt>
<trkpt lat="52.339357" lon="4.570948">
<ele>1.5</ele>
<time>2026-02-13T15:16:04Z</time>
</trkpt>
<trkpt lat="52.339349" lon="4.570941">
<ele>1.5</ele>
<time>2026-02-13T15:16:05Z</time>
</trkpt>
<trkpt lat="52.339342" lon="4.570934">
<ele>1.5</ele>
<time>2026-02-13T15:16:05Z</time>
</trkpt>
<trkpt lat="52.339335" lon="4.570928">
<ele>1.5</ele>
<time>2026-02-13T15:16:06Z</time>
</trkpt>
<trkpt lat="52.339329" lon="4.570920">
<ele>1.6</ele>
<time>2026-02-13T15:16:06Z</time>
</trkpt>
<trkpt lat="52.339324" lon="4.570912">
<ele>1.3</ele>
<time>2026-02-13T15:16:07Z</time>
</trkpt>
<trkpt lat="52.339318" lon="4.570903">
<ele>1.3</ele>
<time>2026-02-13T15:16:07Z</time>
</trkpt>
<trkpt lat="52.339313" lon="4.570894">
<ele>1.3</ele>
<time>2026-02-13T15:16:08Z</time>
</trkpt>
<trkpt lat="52.339307" lon="4.570884">
<ele>1.3</ele>
<time>2026-02-13T15:16:08Z</time>
</trkpt>
<trkpt lat="52.339301" lon="4.570876">
<ele>1.5</ele>
<time>2026-02-13T15:16:09Z</time>
</trkpt>
<trkpt lat="52.339296" lon="4.570868">
<ele>1.5</ele>
<time>2026-02-13T15:16:09Z</time>
</trkpt>
<trkpt lat="52.339289" lon="4.570860">
<ele>1.6</ele>
<time>2026-02-13T15:16:10Z</time>
</trkpt>
<trkpt lat="52.339283" lon="4.570851">
<ele>1.6</ele>
<time>2026-02-13T15:16:10Z</time>
</trkpt>
<trkpt lat="52.339277" lon="4.570844">
<ele>1.7</ele>
<time>2026-02-13T15:16:11Z</time>
</trkpt>
<trkpt lat="52.339272" lon="4.570835">
<ele>1.7</ele>
<time>2026-02-13T15:16:11Z</time>
</trkpt>
<trkpt lat="52.339267" lon="4.570826">
<ele>1.6</ele>
<time>2026-02-13T15:16:12Z</time>
</trkpt>
<trkpt lat="52.339263" lon="4.570817">
<ele>1.6</ele>
<time>2026-02-13T15:16:12Z</time>
</trkpt>
<trkpt lat="52.339257" lon="4.570806">
<ele>1.6</ele>
<time>2026-02-13T15:16:13Z</time>
</trkpt>
<trkpt lat="52.339247" lon="4.570784">
<ele>1.5</ele>
<time>2026-02-13T15:16:14Z</time>
</trkpt>
<trkpt lat="52.339238" lon="4.570765">
<ele>1.4</ele>
<time>2026-02-13T15:16:15Z</time>
</trkpt>
<trkpt lat="52.339234" lon="4.570755">
<ele>1.5</ele>
<time>2026-02-13T15:16:15Z</time>
</trkpt>
<trkpt lat="52.339228" lon="4.570746">
<ele>1.5</ele>
<time>2026-02-13T15:16:16Z</time>
</trkpt>
<trkpt lat="52.339215" lon="4.570724">
<ele>1.5</ele>
<time>2026-02-13T15:16:17Z</time>
</trkpt>
<trkpt lat="52.339212" lon="4.570718">
<ele>1.4</ele>
<time>2026-02-13T15:16:17Z</time>
</trkpt>
<trkpt lat="52.339202" lon="4.570707">
<ele>1.4</ele>
<time>2026-02-13T15:16:18Z</time>
</trkpt>
<trkpt lat="52.339197" lon="4.570699">
<ele>1.4</ele>
<time>2026-02-13T15:16:19Z</time>
</trkpt>
<trkpt lat="52.339185" lon="4.570684">
<ele>1.3</ele>
<time>2026-02-13T15:16:20Z</time>
</trkpt>
<trkpt lat="52.339174" lon="4.570670">
<ele>1.3</ele>
<time>2026-02-13T15:16:20Z</time>
</trkpt>
<trkpt lat="52.339168" lon="4.570662">
<ele>1.4</ele>
<time>2026-02-13T15:16:21Z</time>
</trkpt>
<trkpt lat="52.339160" lon="4.570652">
<ele>1.4</ele>
<time>2026-02-13T15:16:22Z</time>
</trkpt>
<trkpt lat="52.339148" lon="4.570633">
<ele>1.5</ele>
<time>2026-02-13T15:16:23Z</time>
</trkpt>
<trkpt lat="52.339138" lon="4.570615">
<ele>1.5</ele>
<time>2026-02-13T15:16:24Z</time>
</trkpt>
<trkpt lat="52.339133" lon="4.570596">
<ele>1.7</ele>
<time>2026-02-13T15:16:25Z</time>
</trkpt>
<trkpt lat="52.339124" lon="4.570582">
<ele>1.7</ele>
<time>2026-02-13T15:16:26Z</time>
</trkpt>
<trkpt lat="52.339118" lon="4.570572">
<ele>1.5</ele>
<time>2026-02-13T15:16:26Z</time>
</trkpt>
<trkpt lat="52.339112" lon="4.570566">
<ele>1.5</ele>
<time>2026-02-13T15:16:27Z</time>
</trkpt>
<trkpt lat="52.339107" lon="4.570556">
<ele>1.6</ele>
<time>2026-02-13T15:16:27Z</time>
</trkpt>
<trkpt lat="52.339101" lon="4.570549">
<ele>1.6</ele>
<time>2026-02-13T15:16:28Z</time>
</trkpt>
<trkpt lat="52.339096" lon="4.570539">
<ele>1.6</ele>
<time>2026-02-13T15:16:28Z</time>
</trkpt>
<trkpt lat="52.339088" lon="4.570529">
<ele>1.6</ele>
<time>2026-02-13T15:16:29Z</time>
</trkpt>
<trkpt lat="52.339079" lon="4.570512">
<ele>1.7</ele>
<time>2026-02-13T15:16:30Z</time>
</trkpt>
<trkpt lat="52.339074" lon="4.570503">
<ele>1.9</ele>
<time>2026-02-13T15:16:30Z</time>
</trkpt>
<trkpt lat="52.339068" lon="4.570496">
<ele>1.9</ele>
<time>2026-02-13T15:16:31Z</time>
</trkpt>
<trkpt lat="52.339060" lon="4.570478">
<ele>2.0</ele>
<time>2026-02-13T15:16:31Z</time>
</trkpt>
<trkpt lat="52.339058" lon="4.570473">
<ele>2.0</ele>
<time>2026-02-13T15:16:32Z</time>
</trkpt>
<trkpt lat="52.339054" lon="4.570466">
<ele>2.0</ele>
<time>2026-02-13T15:16:32Z</time>
</trkpt>
<trkpt lat="52.339046" lon="4.570457">
<ele>2.0</ele>
<time>2026-02-13T15:16:33Z</time>
</trkpt>
<trkpt lat="52.339035" lon="4.570444">
<ele>2.1</ele>
<time>2026-02-13T15:16:34Z</time>
</trkpt>
<trkpt lat="52.339026" lon="4.570430">
<ele>2.0</ele>
<time>2026-02-13T15:16:35Z</time>
</trkpt>
<trkpt lat="52.339021" lon="4.570418">
<ele>1.8</ele>
<time>2026-02-13T15:16:36Z</time>
</trkpt>
<trkpt lat="52.339015" lon="4.570412">
<ele>1.8</ele>
<time>2026-02-13T15:16:36Z</time>
</trkpt>
<trkpt lat="52.339010" lon="4.570405">
<ele>1.7</ele>
<time>2026-02-13T15:16:37Z</time>
</trkpt>
<trkpt lat="52.339000" lon="4.570394">
<ele>1.7</ele>
<time>2026-02-13T15:16:38Z</time>
</trkpt>
<trkpt lat="52.338993" lon="4.570387">
<ele>1.7</ele>
<time>2026-02-13T15:16:38Z</time>
</trkpt>
<trkpt lat="52.338986" lon="4.570377">
<ele>1.7</ele>
<time>2026-02-13T15:16:39Z</time>
</trkpt>
<trkpt lat="52.338977" lon="4.570365">
<ele>1.6</ele>
<time>2026-02-13T15:16:40Z</time>
</trkpt>
<trkpt lat="52.338970" lon="4.570357">
<ele>1.6</ele>
<time>2026-02-13T15:16:40Z</time>
</trkpt>
<trkpt lat="52.338959" lon="4.570342">
<ele>1.6</ele>
<time>2026-02-13T15:16:41Z</time>
</trkpt>
<trkpt lat="52.338952" lon="4.570336">
<ele>1.5</ele>
<time>2026-02-13T15:16:42Z</time>
</trkpt>
<trkpt lat="52.338947" lon="4.570327">
<ele>1.5</ele>
<time>2026-02-13T15:16:42Z</time>
</trkpt>
<trkpt lat="52.338941" lon="4.570318">
<ele>1.3</ele>
<time>2026-02-13T15:16:43Z</time>
</trkpt>
<trkpt lat="52.338929" lon="4.570302">
<ele>1.3</ele>
<time>2026-02-13T15:16:44Z</time>
</trkpt>
<trkpt lat="52.338922" lon="4.570293">
<ele>1.3</ele>
<time>2026-02-13T15:16:44Z</time>
</trkpt>
<trkpt lat="52.338915" lon="4.570279">
<ele>1.3</ele>
<time>2026-02-13T15:16:45Z</time>
</trkpt>
<trkpt lat="52.338911" lon="4.570268">
<ele>1.1</ele>
<time>2026-02-13T15:16:46Z</time>
</trkpt>
<trkpt lat="52.338899" lon="4.570255">
<ele>1.0</ele>
<time>2026-02-13T15:16:47Z</time>
</trkpt>
<trkpt lat="52.338896" lon="4.570246">
<ele>1.3</ele>
<time>2026-02-13T15:16:47Z</time>
</trkpt>
<trkpt lat="52.338891" lon="4.570227">
<ele>1.4</ele>
<time>2026-02-13T15:16:48Z</time>
</trkpt>
<trkpt lat="52.338889" lon="4.570218">
<ele>1.4</ele>
<time>2026-02-13T15:16:49Z</time>
</trkpt>
<trkpt lat="52.338885" lon="4.570207">
<ele>1.4</ele>
<time>2026-02-13T15:16:49Z</time>
</trkpt>
<trkpt lat="52.338876" lon="4.570187">
<ele>1.4</ele>
<time>2026-02-13T15:16:50Z</time>
</trkpt>
<trkpt lat="52.338873" lon="4.570178">
<ele>1.5</ele>
<time>2026-02-13T15:16:51Z</time>
</trkpt>
<trkpt lat="52.338867" lon="4.570167">
<ele>1.5</ele>
<time>2026-02-13T15:16:51Z</time>
</trkpt>
<trkpt lat="52.338864" lon="4.570158">
<ele>1.3</ele>
<time>2026-02-13T15:16:52Z</time>
</trkpt>
<trkpt lat="52.338858" lon="4.570149">
<ele>1.3</ele>
<time>2026-02-13T15:16:52Z</time>
</trkpt>
<trkpt lat="52.338852" lon="4.570140">
<ele>1.5</ele>
<time>2026-02-13T15:16:53Z</time>
</trkpt>
<trkpt lat="52.338848" lon="4.570131">
<ele>1.5</ele>
<time>2026-02-13T15:16:53Z</time>
</trkpt>
<trkpt lat="52.338844" lon="4.570121">
<ele>1.9</ele>
<time>2026-02-13T15:16:54Z</time>
</trkpt>
<trkpt lat="52.338836" lon="4.570106">
<ele>1.8</ele>
<time>2026-02-13T15:16:55Z</time>
</trkpt>
<trkpt lat="52.338831" lon="4.570096">
<ele>1.8</ele>
<time>2026-02-13T15:16:55Z</time>
</trkpt>
<trkpt lat="52.338827" lon="4.570086">
<ele>1.9</ele>
<time>2026-02-13T15:16:56Z</time>
</trkpt>
<trkpt lat="52.338822" lon="4.570077">
<ele>1.9</ele>
<time>2026-02-13T15:16:56Z</time>
</trkpt>
<trkpt lat="52.338817" lon="4.570067">
<ele>2.1</ele>
<time>2026-02-13T15:16:57Z</time>
</trkpt>
<trkpt lat="52.338809" lon="4.570051">
<ele>1.8</ele>
<time>2026-02-13T15:16:58Z</time>
</trkpt>
<trkpt lat="52.338803" lon="4.570041">
<ele>1.8</ele>
<time>2026-02-13T15:16:58Z</time>
</trkpt>
<trkpt lat="52.338799" lon="4.570032">
<ele>1.8</ele>
<time>2026-02-13T15:16:59Z</time>
</trkpt>
<trkpt lat="52.338794" lon="4.570023">
<ele>1.8</ele>
<time>2026-02-13T15:16:59Z</time>
</trkpt>
<trkpt lat="52.338788" lon="4.570014">
<ele>1.8</ele>
<time>2026-02-13T15:17:00Z</time>
</trkpt>
<trkpt lat="52.338779" lon="4.569998">
<ele>1.6</ele>
<time>2026-02-13T15:17:01Z</time>
</trkpt>
<trkpt lat="52.338774" lon="4.569987">
<ele>1.6</ele>
<time>2026-02-13T15:17:01Z</time>
</trkpt>
<trkpt lat="52.338768" lon="4.569972">
<ele>2.0</ele>
<time>2026-02-13T15:17:02Z</time>
</trkpt>
<trkpt lat="52.338763" lon="4.569959">
<ele>2.0</ele>
<time>2026-02-13T15:17:03Z</time>
</trkpt>
<trkpt lat="52.338758" lon="4.569948">
<ele>2.0</ele>
<time>2026-02-13T15:17:03Z</time>
</trkpt>
<trkpt lat="52.338746" lon="4.569928">
<ele>2.3</ele>
<time>2026-02-13T15:17:04Z</time>
</trkpt>
<trkpt lat="52.338742" lon="4.569921">
<ele>2.2</ele>
<time>2026-02-13T15:17:05Z</time>
</trkpt>
<trkpt lat="52.338735" lon="4.569911">
<ele>2.3</ele>
<time>2026-02-13T15:17:06Z</time>
</trkpt>
<trkpt lat="52.338727" lon="4.569903">
<ele>2.3</ele>
<time>2026-02-13T15:17:06Z</time>
</trkpt>
<trkpt lat="52.338715" lon="4.569890">
<ele>2.0</ele>
<time>2026-02-13T15:17:07Z</time>
</trkpt>
<trkpt lat="52.338709" lon="4.569878">
<ele>2.0</ele>
<time>2026-02-13T15:17:08Z</time>
</trkpt>
<trkpt lat="52.338703" lon="4.569864">
<ele>2.0</ele>
<time>2026-02-13T15:17:09Z</time>
</trkpt>
<trkpt lat="52.338697" lon="4.569849">
<ele>2.0</ele>
<time>2026-02-13T15:17:09Z</time>
</trkpt>
<trkpt lat="52.338695" lon="4.569834">
<ele>2.1</ele>
<time>2026-02-13T15:17:10Z</time>
</trkpt>
<trkpt lat="52.338691" lon="4.569820">
<ele>2.0</ele>
<time>2026-02-13T15:17:11Z</time>
</trkpt>
<trkpt lat="52.338685" lon="4.569807">
<ele>2.0</ele>
<time>2026-02-13T15:17:11Z</time>
</trkpt>
<trkpt lat="52.338679" lon="4.569784">
<ele>1.8</ele>
<time>2026-02-13T15:17:12Z</time>
</trkpt>
<trkpt lat="52.338679" lon="4.569770">
<ele>1.5</ele>
<time>2026-02-13T15:17:13Z</time>
</trkpt>
<trkpt lat="52.338676" lon="4.569759">
<ele>1.5</ele>
<time>2026-02-13T15:17:13Z</time>
</trkpt>
<trkpt lat="52.338675" lon="4.569748">
<ele>1.4</ele>
<time>2026-02-13T15:17:14Z</time>
</trkpt>
<trkpt lat="52.338671" lon="4.569737">
<ele>1.4</ele>
<time>2026-02-13T15:17:14Z</time>
</trkpt>
<trkpt lat="52.338669" lon="4.569728">
<ele>1.4</ele>
<time>2026-02-13T15:17:15Z</time>
</trkpt>
<trkpt lat="52.338665" lon="4.569718">
<ele>1.4</ele>
<time>2026-02-13T15:17:15Z</time>
</trkpt>
<trkpt lat="52.338662" lon="4.569709">
<ele>1.4</ele>
<time>2026-02-13T15:17:16Z</time>
</trkpt>
<trkpt lat="52.338658" lon="4.569695">
<ele>1.3</ele>
<time>2026-02-13T15:17:17Z</time>
</trkpt>
<trkpt lat="52.338652" lon="4.569677">
<ele>1.2</ele>
<time>2026-02-13T15:17:18Z</time>
</trkpt>
<trkpt lat="52.338650" lon="4.569664">
<ele>1.1</ele>
<time>2026-02-13T15:17:19Z</time>
</trkpt>
<trkpt lat="52.338652" lon="4.569658">
<ele>1.1</ele>
<time>2026-02-13T15:17:20Z</time>
</trkpt>
<trkpt lat="52.338654" lon="4.569656">
<ele>1.0</ele>
<time>2026-02-13T15:17:21Z</time>
</trkpt>
<trkpt lat="52.338655" lon="4.569657">
<ele>1.0</ele>
<time>2026-02-13T15:17:21Z</time>
</trkpt>
<trkpt lat="52.338656" lon="4.569660">
<ele>0.9</ele>
<time>2026-02-13T15:17:22Z</time>
</trkpt>
<trkpt lat="52.338653" lon="4.569655">
<ele>0.9</ele>
<time>2026-02-13T15:17:23Z</time>
</trkpt>
<trkpt lat="52.338653" lon="4.569648">
<ele>1.4</ele>
<time>2026-02-13T15:17:24Z</time>
</trkpt>
<trkpt lat="52.338653" lon="4.569644">
<ele>1.4</ele>
<time>2026-02-13T15:17:24Z</time>
</trkpt>
<trkpt lat="52.338650" lon="4.569627">
<ele>1.5</ele>
<time>2026-02-13T15:17:25Z</time>
</trkpt>
<trkpt lat="52.338646" lon="4.569618">
<ele>1.5</ele>
<time>2026-02-13T15:17:25Z</time>
</trkpt>
<trkpt lat="52.338637" lon="4.569602">
<ele>1.4</ele>
<time>2026-02-13T15:17:26Z</time>
</trkpt>
<trkpt lat="52.338630" lon="4.569592">
<ele>1.4</ele>
<time>2026-02-13T15:17:26Z</time>
</trkpt>
<trkpt lat="52.338626" lon="4.569581">
<ele>1.7</ele>
<time>2026-02-13T15:17:27Z</time>
</trkpt>
<trkpt lat="52.338621" lon="4.569571">
<ele>1.7</ele>
<time>2026-02-13T15:17:27Z</time>
</trkpt>
<trkpt lat="52.338623" lon="4.569560">
<ele>1.6</ele>
<time>2026-02-13T15:17:28Z</time>
</trkpt>
<trkpt lat="52.338619" lon="4.569550">
<ele>1.6</ele>
<time>2026-02-13T15:17:28Z</time>
</trkpt>
<trkpt lat="52.338632" lon="4.569534">
<ele>1.6</ele>
<time>2026-02-13T15:17:30Z</time>
</trkpt>
<trkpt lat="52.338634" lon="4.569515">
<ele>1.6</ele>
<time>2026-02-13T15:17:30Z</time>
</trkpt>
<trkpt lat="52.338633" lon="4.569496">
<ele>1.7</ele>
<time>2026-02-13T15:17:31Z</time>
</trkpt>
<trkpt lat="52.338632" lon="4.569480">
<ele>1.7</ele>
<time>2026-02-13T15:17:31Z</time>
</trkpt>
<trkpt lat="52.338629" lon="4.569452">
<ele>1.7</ele>
<time>2026-02-13T15:17:32Z</time>
</trkpt>
<trkpt lat="52.338627" lon="4.569439">
<ele>1.5</ele>
<time>2026-02-13T15:17:33Z</time>
</trkpt>
<trkpt lat="52.338623" lon="4.569418">
<ele>1.6</ele>
<time>2026-02-13T15:17:34Z</time>
</trkpt>
<trkpt lat="52.338619" lon="4.569402">
<ele>1.6</ele>
<time>2026-02-13T15:17:34Z</time>
</trkpt>
<trkpt lat="52.338616" lon="4.569392">
<ele>1.6</ele>
<time>2026-02-13T15:17:35Z</time>
</trkpt>
<trkpt lat="52.338614" lon="4.569381">
<ele>1.6</ele>
<time>2026-02-13T15:17:35Z</time>
</trkpt>
<trkpt lat="52.338611" lon="4.569372">
<ele>1.6</ele>
<time>2026-02-13T15:17:36Z</time>
</trkpt>
<trkpt lat="52.338609" lon="4.569360">
<ele>1.6</ele>
<time>2026-02-13T15:17:36Z</time>
</trkpt>
<trkpt lat="52.338606" lon="4.569351">
<ele>1.7</ele>
<time>2026-02-13T15:17:37Z</time>
</trkpt>
<trkpt lat="52.338603" lon="4.569340">
<ele>1.7</ele>
<time>2026-02-13T15:17:37Z</time>
</trkpt>
<trkpt lat="52.338601" lon="4.569330">
<ele>1.6</ele>
<time>2026-02-13T15:17:38Z</time>
</trkpt>
<trkpt lat="52.338598" lon="4.569316">
<ele>1.6</ele>
<time>2026-02-13T15:17:38Z</time>
</trkpt>
<trkpt lat="52.338595" lon="4.569295">
<ele>1.5</ele>
<time>2026-02-13T15:17:39Z</time>
</trkpt>
<trkpt lat="52.338593" lon="4.569286">
<ele>1.5</ele>
<time>2026-02-13T15:17:40Z</time>
</trkpt>
<trkpt lat="52.338591" lon="4.569274">
<ele>1.5</ele>
<time>2026-02-13T15:17:40Z</time>
</trkpt>
<trkpt lat="52.338590" lon="4.569263">
<ele>1.5</ele>
<time>2026-02-13T15:17:41Z</time>
</trkpt>
<trkpt lat="52.338587" lon="4.569251">
<ele>1.5</ele>
<time>2026-02-13T15:17:41Z</time>
</trkpt>
<trkpt lat="52.338586" lon="4.569241">
<ele>1.5</ele>
<time>2026-02-13T15:17:42Z</time>
</trkpt>
<trkpt lat="52.338584" lon="4.569229">
<ele>1.5</ele>
<time>2026-02-13T15:17:42Z</time>
</trkpt>
<trkpt lat="52.338582" lon="4.569220">
<ele>1.5</ele>
<time>2026-02-13T15:17:43Z</time>
</trkpt>
<trkpt lat="52.338578" lon="4.569206">
<ele>1.5</ele>
<time>2026-02-13T15:17:43Z</time>
</trkpt>
<trkpt lat="52.338570" lon="4.569188">
<ele>1.6</ele>
<time>2026-02-13T15:17:45Z</time>
</trkpt>
<trkpt lat="52.338569" lon="4.569194">
<ele>1.6</ele>
<time>2026-02-13T15:17:45Z</time>
</trkpt>
<trkpt lat="52.338565" lon="4.569184">
<ele>1.6</ele>
<time>2026-02-13T15:17:46Z</time>
</trkpt>
<trkpt lat="52.338553" lon="4.569168">
<ele>1.3</ele>
<time>2026-02-13T15:17:47Z</time>
</trkpt>
<trkpt lat="52.338544" lon="4.569157">
<ele>1.3</ele>
<time>2026-02-13T15:17:47Z</time>
</trkpt>
<trkpt lat="52.338538" lon="4.569147">
<ele>1.4</ele>
<time>2026-02-13T15:17:48Z</time>
</trkpt>
<trkpt lat="52.338528" lon="4.569133">
<ele>1.6</ele>
<time>2026-02-13T15:17:49Z</time>
</trkpt>
<trkpt lat="52.338518" lon="4.569115">
<ele>1.5</ele>
<time>2026-02-13T15:17:50Z</time>
</trkpt>
<trkpt lat="52.338510" lon="4.569103">
<ele>1.5</ele>
<time>2026-02-13T15:17:50Z</time>
</trkpt>
<trkpt lat="52.338498" lon="4.569079">
<ele>1.9</ele>
<time>2026-02-13T15:17:52Z</time>
</trkpt>
<trkpt lat="52.338489" lon="4.569067">
<ele>1.9</ele>
<time>2026-02-13T15:17:52Z</time>
</trkpt>
<trkpt lat="52.338479" lon="4.569051">
<ele>1.8</ele>
<time>2026-02-13T15:17:53Z</time>
</trkpt>
<trkpt lat="52.338474" lon="4.569044">
<ele>1.9</ele>
<time>2026-02-13T15:17:54Z</time>
</trkpt>
<trkpt lat="52.338468" lon="4.569037">
<ele>1.9</ele>
<time>2026-02-13T15:17:54Z</time>
</trkpt>
<trkpt lat="52.338462" lon="4.569030">
<ele>1.8</ele>
<time>2026-02-13T15:17:55Z</time>
</trkpt>
<trkpt lat="52.338454" lon="4.569022">
<ele>1.8</ele>
<time>2026-02-13T15:17:55Z</time>
</trkpt>
<trkpt lat="52.338446" lon="4.569008">
<ele>1.8</ele>
<time>2026-02-13T15:17:56Z</time>
</trkpt>
<trkpt lat="52.338441" lon="4.568999">
<ele>1.5</ele>
<time>2026-02-13T15:17:57Z</time>
</trkpt>
<trkpt lat="52.338435" lon="4.568992">
<ele>1.5</ele>
<time>2026-02-13T15:17:57Z</time>
</trkpt>
<trkpt lat="52.338430" lon="4.568985">
<ele>1.5</ele>
<time>2026-02-13T15:17:58Z</time>
</trkpt>
<trkpt lat="52.338422" lon="4.568976">
<ele>1.5</ele>
<time>2026-02-13T15:17:58Z</time>
</trkpt>
<trkpt lat="52.338411" lon="4.568964">
<ele>1.4</ele>
<time>2026-02-13T15:17:59Z</time>
</trkpt>
<trkpt lat="52.338399" lon="4.568946">
<ele>1.5</ele>
<time>2026-02-13T15:18:01Z</time>
</trkpt>
<trkpt lat="52.338390" lon="4.568927">
<ele>1.5</ele>
<time>2026-02-13T15:18:02Z</time>
</trkpt>
<trkpt lat="52.338382" lon="4.568906">
<ele>1.6</ele>
<time>2026-02-13T15:18:03Z</time>
</trkpt>
<trkpt lat="52.338374" lon="4.568884">
<ele>1.5</ele>
<time>2026-02-13T15:18:04Z</time>
</trkpt>
<trkpt lat="52.338369" lon="4.568870">
<ele>1.5</ele>
<time>2026-02-13T15:18:04Z</time>
</trkpt>
<trkpt lat="52.338365" lon="4.568860">
<ele>1.5</ele>
<time>2026-02-13T15:18:05Z</time>
</trkpt>
<trkpt lat="52.338359" lon="4.568849">
<ele>1.5</ele>
<time>2026-02-13T15:18:06Z</time>
</trkpt>
<trkpt lat="52.338356" lon="4.568856">
<ele>1.5</ele>
<time>2026-02-13T15:18:06Z</time>
</trkpt>
<trkpt lat="52.338352" lon="4.568846">
<ele>1.6</ele>
<time>2026-02-13T15:18:07Z</time>
</trkpt>
<trkpt lat="52.338347" lon="4.568836">
<ele>1.6</ele>
<time>2026-02-13T15:18:07Z</time>
</trkpt>
<trkpt lat="52.338333" lon="4.568810">
<ele>1.6</ele>
<time>2026-02-13T15:18:08Z</time>
</trkpt>
<trkpt lat="52.338321" lon="4.568782">
<ele>1.9</ele>
<time>2026-02-13T15:18:10Z</time>
</trkpt>
<trkpt lat="52.338313" lon="4.568761">
<ele>1.8</ele>
<time>2026-02-13T15:18:11Z</time>
</trkpt>
<trkpt lat="52.338306" lon="4.568748">
<ele>1.8</ele>
<time>2026-02-13T15:18:11Z</time>
</trkpt>
<trkpt lat="52.338303" lon="4.568739">
<ele>1.9</ele>
<time>2026-02-13T15:18:12Z</time>
</trkpt>
<trkpt lat="52.338298" lon="4.568728">
<ele>1.9</ele>
<time>2026-02-13T15:18:12Z</time>
</trkpt>
<trkpt lat="52.338295" lon="4.568717">
<ele>2.1</ele>
<time>2026-02-13T15:18:13Z</time>
</trkpt>
<trkpt lat="52.338290" lon="4.568702">
<ele>2.1</ele>
<time>2026-02-13T15:18:13Z</time>
</trkpt>
<trkpt lat="52.338285" lon="4.568684">
<ele>2.2</ele>
<time>2026-02-13T15:18:14Z</time>
</trkpt>
<trkpt lat="52.338282" lon="4.568675">
<ele>2.1</ele>
<time>2026-02-13T15:18:15Z</time>
</trkpt>
<trkpt lat="52.338278" lon="4.568661">
<ele>2.1</ele>
<time>2026-02-13T15:18:15Z</time>
</trkpt>
<trkpt lat="52.338274" lon="4.568632">
<ele>2.3</ele>
<time>2026-02-13T15:18:17Z</time>
</trkpt>
<trkpt lat="52.338272" lon="4.568613">
<ele>2.3</ele>
<time>2026-02-13T15:18:18Z</time>
</trkpt>
<trkpt lat="52.338272" lon="4.568618">
<ele>2.3</ele>
<time>2026-02-13T15:18:18Z</time>
</trkpt>
<trkpt lat="52.338271" lon="4.568601">
<ele>2.2</ele>
<time>2026-02-13T15:18:19Z</time>
</trkpt>
<trkpt lat="52.338270" lon="4.568588">
<ele>2.2</ele>
<time>2026-02-13T15:18:19Z</time>
</trkpt>
<trkpt lat="52.338268" lon="4.568570">
<ele>2.2</ele>
<time>2026-02-13T15:18:20Z</time>
</trkpt>
<trkpt lat="52.338265" lon="4.568555">
<ele>2.2</ele>
<time>2026-02-13T15:18:20Z</time>
</trkpt>
<trkpt lat="52.338261" lon="4.568529">
<ele>2.2</ele>
<time>2026-02-13T15:18:21Z</time>
</trkpt>
<trkpt lat="52.338261" lon="4.568517">
<ele>2.2</ele>
<time>2026-02-13T15:18:22Z</time>
</trkpt>
<trkpt lat="52.338259" lon="4.568505">
<ele>2.2</ele>
<time>2026-02-13T15:18:22Z</time>
</trkpt>
<trkpt lat="52.338258" lon="4.568494">
<ele>2.2</ele>
<time>2026-02-13T15:18:23Z</time>
</trkpt>
<trkpt lat="52.338256" lon="4.568477">
<ele>2.2</ele>
<time>2026-02-13T15:18:23Z</time>
</trkpt>
<trkpt lat="52.338255" lon="4.568456">
<ele>2.3</ele>
<time>2026-02-13T15:18:24Z</time>
</trkpt>
<trkpt lat="52.338255" lon="4.568446">
<ele>2.3</ele>
<time>2026-02-13T15:18:25Z</time>
</trkpt>
<trkpt lat="52.338253" lon="4.568428">
<ele>2.3</ele>
<time>2026-02-13T15:18:25Z</time>
</trkpt>
<trkpt lat="52.338251" lon="4.568408">
<ele>2.1</ele>
<time>2026-02-13T15:18:26Z</time>
</trkpt>
<trkpt lat="52.338250" lon="4.568397">
<ele>2.1</ele>
<time>2026-02-13T15:18:27Z</time>
</trkpt>
<trkpt lat="52.338248" lon="4.568380">
<ele>2.1</ele>
<time>2026-02-13T15:18:27Z</time>
</trkpt>
<trkpt lat="52.338245" lon="4.568356">
<ele>2.2</ele>
<time>2026-02-13T15:18:29Z</time>
</trkpt>
<trkpt lat="52.338242" lon="4.568334">
<ele>2.2</ele>
<time>2026-02-13T15:18:30Z</time>
</trkpt>
<trkpt lat="52.338238" lon="4.568311">
<ele>2.2</ele>
<time>2026-02-13T15:18:31Z</time>
</trkpt>
<trkpt lat="52.338235" lon="4.568294">
<ele>2.3</ele>
<time>2026-02-13T15:18:32Z</time>
</trkpt>
<trkpt lat="52.338233" lon="4.568283">
<ele>2.3</ele>
<time>2026-02-13T15:18:32Z</time>
</trkpt>
<trkpt lat="52.338230" lon="4.568273">
<ele>2.1</ele>
<time>2026-02-13T15:18:33Z</time>
</trkpt>
<trkpt lat="52.338226" lon="4.568260">
<ele>2.0</ele>
<time>2026-02-13T15:18:34Z</time>
</trkpt>
<trkpt lat="52.338223" lon="4.568249">
<ele>2.0</ele>
<time>2026-02-13T15:18:34Z</time>
</trkpt>
<trkpt lat="52.338221" lon="4.568237">
<ele>2.1</ele>
<time>2026-02-13T15:18:35Z</time>
</trkpt>
<trkpt lat="52.338220" lon="4.568227">
<ele>2.1</ele>
<time>2026-02-13T15:18:35Z</time>
</trkpt>
<trkpt lat="52.338220" lon="4.568218">
<ele>2.1</ele>
<time>2026-02-13T15:18:36Z</time>
</trkpt>
<trkpt lat="52.338219" lon="4.568207">
<ele>2.1</ele>
<time>2026-02-13T15:18:36Z</time>
</trkpt>
<trkpt lat="52.338219" lon="4.568197">
<ele>2.3</ele>
<time>2026-02-13T15:18:37Z</time>
</trkpt>
<trkpt lat="52.338218" lon="4.568185">
<ele>2.3</ele>
<time>2026-02-13T15:18:37Z</time>
</trkpt>
<trkpt lat="52.338217" lon="4.568174">
<ele>2.2</ele>
<time>2026-02-13T15:18:38Z</time>
</trkpt>
<trkpt lat="52.338213" lon="4.568160">
<ele>2.2</ele>
<time>2026-02-13T15:18:38Z</time>
</trkpt>
<trkpt lat="52.338207" lon="4.568154">
<ele>2.3</ele>
<time>2026-02-13T15:18:39Z</time>
</trkpt>
<trkpt lat="52.338201" lon="4.568144">
<ele>2.4</ele>
<time>2026-02-13T15:18:40Z</time>
</trkpt>
<trkpt lat="52.338196" lon="4.568128">
<ele>2.4</ele>
<time>2026-02-13T15:18:40Z</time>
</trkpt>
<trkpt lat="52.338197" lon="4.568114">
<ele>2.4</ele>
<time>2026-02-13T15:18:41Z</time>
</trkpt>
<trkpt lat="52.338197" lon="4.568100">
<ele>2.4</ele>
<time>2026-02-13T15:18:42Z</time>
</trkpt>
<trkpt lat="52.338197" lon="4.568081">
<ele>2.4</ele>
<time>2026-02-13T15:18:42Z</time>
</trkpt>
<trkpt lat="52.338197" lon="4.568069">
<ele>2.2</ele>
<time>2026-02-13T15:18:43Z</time>
</trkpt>
<trkpt lat="52.338196" lon="4.568057">
<ele>2.2</ele>
<time>2026-02-13T15:18:44Z</time>
</trkpt>
<trkpt lat="52.338193" lon="4.568038">
<ele>2.2</ele>
<time>2026-02-13T15:18:44Z</time>
</trkpt>
<trkpt lat="52.338191" lon="4.568024">
<ele>2.2</ele>
<time>2026-02-13T15:18:45Z</time>
</trkpt>
<trkpt lat="52.338187" lon="4.568034">
<ele>2.1</ele>
<time>2026-02-13T15:18:46Z</time>
</trkpt>
<trkpt lat="52.338171" lon="4.567993">
<ele>2.2</ele>
<time>2026-02-13T15:18:47Z</time>
</trkpt>
<trkpt lat="52.338169" lon="4.567977">
<ele>2.2</ele>
<time>2026-02-13T15:18:48Z</time>
</trkpt>
<trkpt lat="52.338166" lon="4.567965">
<ele>2.2</ele>
<time>2026-02-13T15:18:48Z</time>
</trkpt>
<trkpt lat="52.338165" lon="4.567950">
<ele>2.1</ele>
<time>2026-02-13T15:18:49Z</time>
</trkpt>
<trkpt lat="52.338162" lon="4.567937">
<ele>2.1</ele>
<time>2026-02-13T15:18:49Z</time>
</trkpt>
<trkpt lat="52.338160" lon="4.567921">
<ele>2.1</ele>
<time>2026-02-13T15:18:50Z</time>
</trkpt>
<trkpt lat="52.338159" lon="4.567906">
<ele>2.4</ele>
<time>2026-02-13T15:18:51Z</time>
</trkpt>
<trkpt lat="52.338159" lon="4.567898">
<ele>2.4</ele>
<time>2026-02-13T15:18:51Z</time>
</trkpt>
<trkpt lat="52.338161" lon="4.567901">
<ele>2.7</ele>
<time>2026-02-13T15:18:52Z</time>
</trkpt>
<trkpt lat="52.338162" lon="4.567887">
<ele>2.7</ele>
<time>2026-02-13T15:18:52Z</time>
</trkpt>
<trkpt lat="52.338159" lon="4.567866">
<ele>2.3</ele>
<time>2026-02-13T15:18:53Z</time>
</trkpt>
<trkpt lat="52.338158" lon="4.567855">
<ele>2.3</ele>
<time>2026-02-13T15:18:53Z</time>
</trkpt>
<trkpt lat="52.338153" lon="4.567833">
<ele>2.3</ele>
<time>2026-02-13T15:18:54Z</time>
</trkpt>
<trkpt lat="52.338151" lon="4.567825">
<ele>2.3</ele>
<time>2026-02-13T15:18:54Z</time>
</trkpt>
<trkpt lat="52.338150" lon="4.567818">
<ele>2.2</ele>
<time>2026-02-13T15:18:55Z</time>
</trkpt>
<trkpt lat="52.338149" lon="4.567810">
<ele>2.2</ele>
<time>2026-02-13T15:18:55Z</time>
</trkpt>
<trkpt lat="52.338146" lon="4.567787">
<ele>2.2</ele>
<time>2026-02-13T15:18:56Z</time>
</trkpt>
<trkpt lat="52.338143" lon="4.567759">
<ele>2.3</ele>
<time>2026-02-13T15:18:57Z</time>
</trkpt>
<trkpt lat="52.338143" lon="4.567752">
<ele>2.4</ele>
<time>2026-02-13T15:18:58Z</time>
</trkpt>
<trkpt lat="52.338143" lon="4.567753">
<ele>2.4</ele>
<time>2026-02-13T15:18:58Z</time>
</trkpt>
<trkpt lat="52.338143" lon="4.567737">
<ele>2.4</ele>
<time>2026-02-13T15:18:59Z</time>
</trkpt>
<trkpt lat="52.338143" lon="4.567722">
<ele>2.4</ele>
<time>2026-02-13T15:18:59Z</time>
</trkpt>
<trkpt lat="52.338140" lon="4.567706">
<ele>2.4</ele>
<time>2026-02-13T15:19:00Z</time>
</trkpt>
<trkpt lat="52.338135" lon="4.567680">
<ele>2.4</ele>
<time>2026-02-13T15:19:00Z</time>
</trkpt>
<trkpt lat="52.338130" lon="4.567665">
<ele>2.3</ele>
<time>2026-02-13T15:19:01Z</time>
</trkpt>
<trkpt lat="52.338127" lon="4.567652">
<ele>2.3</ele>
<time>2026-02-13T15:19:01Z</time>
</trkpt>
<trkpt lat="52.338123" lon="4.567640">
<ele>2.4</ele>
<time>2026-02-13T15:19:02Z</time>
</trkpt>
<trkpt lat="52.338119" lon="4.567627">
<ele>2.4</ele>
<time>2026-02-13T15:19:03Z</time>
</trkpt>
<trkpt lat="52.338113" lon="4.567606">
<ele>2.3</ele>
<time>2026-02-13T15:19:03Z</time>
</trkpt>
<trkpt lat="52.338110" lon="4.567594">
<ele>2.5</ele>
<time>2026-02-13T15:19:04Z</time>
</trkpt>
<trkpt lat="52.338107" lon="4.567582">
<ele>2.5</ele>
<time>2026-02-13T15:19:05Z</time>
</trkpt>
<trkpt lat="52.338105" lon="4.567571">
<ele>2.5</ele>
<time>2026-02-13T15:19:05Z</time>
</trkpt>
<trkpt lat="52.338105" lon="4.567560">
<ele>2.6</ele>
<time>2026-02-13T15:19:06Z</time>
</trkpt>
<trkpt lat="52.338102" lon="4.567550">
<ele>2.6</ele>
<time>2026-02-13T15:19:06Z</time>
</trkpt>
<trkpt lat="52.338099" lon="4.567540">
<ele>2.6</ele>
<time>2026-02-13T15:19:07Z</time>
</trkpt>
<trkpt lat="52.338099" lon="4.567528">
<ele>2.4</ele>
<time>2026-02-13T15:19:07Z</time>
</trkpt>
<trkpt lat="52.338097" lon="4.567517">
<ele>2.4</ele>
<time>2026-02-13T15:19:08Z</time>
</trkpt>
<trkpt lat="52.338097" lon="4.567505">
<ele>2.4</ele>
<time>2026-02-13T15:19:08Z</time>
</trkpt>
<trkpt lat="52.338095" lon="4.567493">
<ele>2.4</ele>
<time>2026-02-13T15:19:09Z</time>
</trkpt>
<trkpt lat="52.338094" lon="4.567477">
<ele>2.5</ele>
<time>2026-02-13T15:19:09Z</time>
</trkpt>
<trkpt lat="52.338089" lon="4.567453">
<ele>2.8</ele>
<time>2026-02-13T15:19:10Z</time>
</trkpt>
<trkpt lat="52.338086" lon="4.567433">
<ele>2.9</ele>
<time>2026-02-13T15:19:11Z</time>
</trkpt>
<trkpt lat="52.338084" lon="4.567420">
<ele>2.9</ele>
<time>2026-02-13T15:19:11Z</time>
</trkpt>
<trkpt lat="52.338083" lon="4.567410">
<ele>3.1</ele>
<time>2026-02-13T15:19:12Z</time>
</trkpt>
<trkpt lat="52.338081" lon="4.567398">
<ele>3.1</ele>
<time>2026-02-13T15:19:12Z</time>
</trkpt>
<trkpt lat="52.338079" lon="4.567383">
<ele>2.9</ele>
<time>2026-02-13T15:19:13Z</time>
</trkpt>
<trkpt lat="52.338078" lon="4.567373">
<ele>2.9</ele>
<time>2026-02-13T15:19:14Z</time>
</trkpt>
<trkpt lat="52.338073" lon="4.567351">
<ele>2.9</ele>
<time>2026-02-13T15:19:15Z</time>
</trkpt>
<trkpt lat="52.338072" lon="4.567344">
<ele>2.8</ele>
<time>2026-02-13T15:19:15Z</time>
</trkpt>
<trkpt lat="52.338072" lon="4.567350">
<ele>2.8</ele>
<time>2026-02-13T15:19:15Z</time>
</trkpt>
<trkpt lat="52.338070" lon="4.567349">
<ele>2.9</ele>
<time>2026-02-13T15:19:16Z</time>
</trkpt>
<trkpt lat="52.338068" lon="4.567346">
<ele>2.9</ele>
<time>2026-02-13T15:19:17Z</time>
</trkpt>
<trkpt lat="52.338062" lon="4.567316">
<ele>2.8</ele>
<time>2026-02-13T15:19:17Z</time>
</trkpt>
<trkpt lat="52.338055" lon="4.567289">
<ele>2.8</ele>
<time>2026-02-13T15:19:18Z</time>
</trkpt>
<trkpt lat="52.338050" lon="4.567276">
<ele>3.1</ele>
<time>2026-02-13T15:19:19Z</time>
</trkpt>
<trkpt lat="52.338045" lon="4.567264">
<ele>3.1</ele>
<time>2026-02-13T15:19:19Z</time>
</trkpt>
<trkpt lat="52.338037" lon="4.567244">
<ele>2.8</ele>
<time>2026-02-13T15:19:20Z</time>
</trkpt>
<trkpt lat="52.338033" lon="4.567233">
<ele>2.8</ele>
<time>2026-02-13T15:19:21Z</time>
</trkpt>
<trkpt lat="52.338031" lon="4.567222">
<ele>2.7</ele>
<time>2026-02-13T15:19:21Z</time>
</trkpt>
<trkpt lat="52.338027" lon="4.567212">
<ele>2.7</ele>
<time>2026-02-13T15:19:22Z</time>
</trkpt>
<trkpt lat="52.338024" lon="4.567200">
<ele>2.9</ele>
<time>2026-02-13T15:19:22Z</time>
</trkpt>
<trkpt lat="52.338019" lon="4.567180">
<ele>2.9</ele>
<time>2026-02-13T15:19:23Z</time>
</trkpt>
<trkpt lat="52.338016" lon="4.567169">
<ele>2.9</ele>
<time>2026-02-13T15:19:24Z</time>
</trkpt>
<trkpt lat="52.338015" lon="4.567160">
<ele>2.8</ele>
<time>2026-02-13T15:19:24Z</time>
</trkpt>
<trkpt lat="52.338015" lon="4.567165">
<ele>2.8</ele>
<time>2026-02-13T15:19:25Z</time>
</trkpt>
<trkpt lat="52.338013" lon="4.567166">
<ele>2.6</ele>
<time>2026-02-13T15:19:25Z</time>
</trkpt>
<trkpt lat="52.338008" lon="4.567156">
<ele>2.7</ele>
<time>2026-02-13T15:19:26Z</time>
</trkpt>
<trkpt lat="52.338003" lon="4.567140">
<ele>2.7</ele>
<time>2026-02-13T15:19:26Z</time>
</trkpt>
<trkpt lat="52.337993" lon="4.567112">
<ele>2.9</ele>
<time>2026-02-13T15:19:27Z</time>
</trkpt>
<trkpt lat="52.337989" lon="4.567099">
<ele>2.9</ele>
<time>2026-02-13T15:19:28Z</time>
</trkpt>
<trkpt lat="52.337984" lon="4.567087">
<ele>2.9</ele>
<time>2026-02-13T15:19:28Z</time>
</trkpt>
<trkpt lat="52.337976" lon="4.567063">
<ele>2.9</ele>
<time>2026-02-13T15:19:29Z</time>
</trkpt>
<trkpt lat="52.337972" lon="4.567034">
<ele>2.7</ele>
<time>2026-02-13T15:19:31Z</time>
</trkpt>
<trkpt lat="52.337970" lon="4.567019">
<ele>2.7</ele>
<time>2026-02-13T15:19:31Z</time>
</trkpt>
<trkpt lat="52.337970" lon="4.567006">
<ele>2.8</ele>
<time>2026-02-13T15:19:32Z</time>
</trkpt>
<trkpt lat="52.337967" lon="4.566989">
<ele>2.8</ele>
<time>2026-02-13T15:19:32Z</time>
</trkpt>
<trkpt lat="52.337963" lon="4.566955">
<ele>3.0</ele>
<time>2026-02-13T15:19:34Z</time>
</trkpt>
<trkpt lat="52.337961" lon="4.566942">
<ele>3.0</ele>
<time>2026-02-13T15:19:34Z</time>
</trkpt>
<trkpt lat="52.337960" lon="4.566933">
<ele>2.7</ele>
<time>2026-02-13T15:19:35Z</time>
</trkpt>
<trkpt lat="52.337957" lon="4.566920">
<ele>2.7</ele>
<time>2026-02-13T15:19:35Z</time>
</trkpt>
<trkpt lat="52.337954" lon="4.566898">
<ele>2.7</ele>
<time>2026-02-13T15:19:36Z</time>
</trkpt>
<trkpt lat="52.337952" lon="4.566886">
<ele>2.7</ele>
<time>2026-02-13T15:19:37Z</time>
</trkpt>
<trkpt lat="52.337950" lon="4.566876">
<ele>2.8</ele>
<time>2026-02-13T15:19:37Z</time>
</trkpt>
<trkpt lat="52.337948" lon="4.566865">
<ele>2.8</ele>
<time>2026-02-13T15:19:38Z</time>
</trkpt>
<trkpt lat="52.337946" lon="4.566853">
<ele>2.8</ele>
<time>2026-02-13T15:19:38Z</time>
</trkpt>
<trkpt lat="52.337945" lon="4.566844">
<ele>2.9</ele>
<time>2026-02-13T15:19:39Z</time>
</trkpt>
<trkpt lat="52.337943" lon="4.566830">
<ele>2.9</ele>
<time>2026-02-13T15:19:39Z</time>
</trkpt>
<trkpt lat="52.337940" lon="4.566804">
<ele>3.1</ele>
<time>2026-02-13T15:19:40Z</time>
</trkpt>
<trkpt lat="52.337937" lon="4.566782">
<ele>3.4</ele>
<time>2026-02-13T15:19:41Z</time>
</trkpt>
<trkpt lat="52.337934" lon="4.566752">
<ele>3.5</ele>
<time>2026-02-13T15:19:43Z</time>
</trkpt>
<trkpt lat="52.337932" lon="4.566726">
<ele>3.5</ele>
<time>2026-02-13T15:19:44Z</time>
</trkpt>
<trkpt lat="52.337932" lon="4.566714">
<ele>3.4</ele>
<time>2026-02-13T15:19:44Z</time>
</trkpt>
<trkpt lat="52.337933" lon="4.566704">
<ele>3.4</ele>
<time>2026-02-13T15:19:45Z</time>
</trkpt>
<trkpt lat="52.337934" lon="4.566692">
<ele>3.4</ele>
<time>2026-02-13T15:19:45Z</time>
</trkpt>
<trkpt lat="52.337934" lon="4.566670">
<ele>3.3</ele>
<time>2026-02-13T15:19:46Z</time>
</trkpt>
<trkpt lat="52.337932" lon="4.566640">
<ele>3.2</ele>
<time>2026-02-13T15:19:48Z</time>
</trkpt>
<trkpt lat="52.337929" lon="4.566619">
<ele>3.1</ele>
<time>2026-02-13T15:19:49Z</time>
</trkpt>
<trkpt lat="52.337925" lon="4.566610">
<ele>3.0</ele>
<time>2026-02-13T15:19:49Z</time>
</trkpt>
<trkpt lat="52.337919" lon="4.566602">
<ele>3.2</ele>
<time>2026-02-13T15:19:50Z</time>
</trkpt>
<trkpt lat="52.337919" lon="4.566599">
<ele>3.2</ele>
<time>2026-02-13T15:19:50Z</time>
</trkpt>
<trkpt lat="52.337913" lon="4.566582">
<ele>3.1</ele>
<time>2026-02-13T15:19:51Z</time>
</trkpt>
<trkpt lat="52.337912" lon="4.566568">
<ele>3.1</ele>
<time>2026-02-13T15:19:51Z</time>
</trkpt>
<trkpt lat="52.337905" lon="4.566544">
<ele>3.0</ele>
<time>2026-02-13T15:19:53Z</time>
</trkpt>
<trkpt lat="52.337896" lon="4.566531">
<ele>3.0</ele>
<time>2026-02-13T15:19:53Z</time>
</trkpt>
<trkpt lat="52.337886" lon="4.566515">
<ele>3.0</ele>
<time>2026-02-13T15:19:54Z</time>
</trkpt>
<trkpt lat="52.337881" lon="4.566506">
<ele>3.1</ele>
<time>2026-02-13T15:19:55Z</time>
</trkpt>
<trkpt lat="52.337878" lon="4.566492">
<ele>3.1</ele>
<time>2026-02-13T15:19:56Z</time>
</trkpt>
<trkpt lat="52.337870" lon="4.566476">
<ele>2.8</ele>
<time>2026-02-13T15:19:57Z</time>
</trkpt>
<trkpt lat="52.337861" lon="4.566460">
<ele>2.9</ele>
<time>2026-02-13T15:19:57Z</time>
</trkpt>
<trkpt lat="52.337854" lon="4.566452">
<ele>3.0</ele>
<time>2026-02-13T15:19:58Z</time>
</trkpt>
<trkpt lat="52.337850" lon="4.566439">
<ele>3.0</ele>
<time>2026-02-13T15:19:58Z</time>
</trkpt>
<trkpt lat="52.337840" lon="4.566420">
<ele>2.9</ele>
<time>2026-02-13T15:19:59Z</time>
</trkpt>
<trkpt lat="52.337838" lon="4.566418">
<ele>2.8</ele>
<time>2026-02-13T15:20:00Z</time>
</trkpt>
<trkpt lat="52.337831" lon="4.566397">
<ele>2.8</ele>
<time>2026-02-13T15:20:01Z</time>
</trkpt>
<trkpt lat="52.337825" lon="4.566388">
<ele>3.0</ele>
<time>2026-02-13T15:20:02Z</time>
</trkpt>
<trkpt lat="52.337818" lon="4.566372">
<ele>3.1</ele>
<time>2026-02-13T15:20:03Z</time>
</trkpt>
<trkpt lat="52.337813" lon="4.566353">
<ele>3.5</ele>
<time>2026-02-13T15:20:04Z</time>
</trkpt>
<trkpt lat="52.337809" lon="4.566341">
<ele>3.5</ele>
<time>2026-02-13T15:20:04Z</time>
</trkpt>
<trkpt lat="52.337807" lon="4.566333">
<ele>3.6</ele>
<time>2026-02-13T15:20:05Z</time>
</trkpt>
<trkpt lat="52.337803" lon="4.566324">
<ele>3.6</ele>
<time>2026-02-13T15:20:05Z</time>
</trkpt>
<trkpt lat="52.337800" lon="4.566314">
<ele>3.6</ele>
<time>2026-02-13T15:20:06Z</time>
</trkpt>
<trkpt lat="52.337796" lon="4.566303">
<ele>3.6</ele>
<time>2026-02-13T15:20:06Z</time>
</trkpt>
<trkpt lat="52.337792" lon="4.566286">
<ele>3.6</ele>
<time>2026-02-13T15:20:07Z</time>
</trkpt>
<trkpt lat="52.337791" lon="4.566281">
<ele>3.6</ele>
<time>2026-02-13T15:20:07Z</time>
</trkpt>
<trkpt lat="52.337789" lon="4.566270">
<ele>3.7</ele>
<time>2026-02-13T15:20:08Z</time>
</trkpt>
<trkpt lat="52.337787" lon="4.566259">
<ele>3.7</ele>
<time>2026-02-13T15:20:08Z</time>
</trkpt>
<trkpt lat="52.337783" lon="4.566242">
<ele>3.7</ele>
<time>2026-02-13T15:20:09Z</time>
</trkpt>
<trkpt lat="52.337779" lon="4.566222">
<ele>3.6</ele>
<time>2026-02-13T15:20:10Z</time>
</trkpt>
<trkpt lat="52.337778" lon="4.566202">
<ele>3.4</ele>
<time>2026-02-13T15:20:11Z</time>
</trkpt>
<trkpt lat="52.337778" lon="4.566192">
<ele>3.4</ele>
<time>2026-02-13T15:20:11Z</time>
</trkpt>
<trkpt lat="52.337777" lon="4.566179">
<ele>3.3</ele>
<time>2026-02-13T15:20:12Z</time>
</trkpt>
<trkpt lat="52.337776" lon="4.566167">
<ele>3.5</ele>
<time>2026-02-13T15:20:13Z</time>
</trkpt>
<trkpt lat="52.337774" lon="4.566156">
<ele>3.5</ele>
<time>2026-02-13T15:20:13Z</time>
</trkpt>
<trkpt lat="52.337770" lon="4.566145">
<ele>3.5</ele>
<time>2026-02-13T15:20:14Z</time>
</trkpt>
<trkpt lat="52.337769" lon="4.566133">
<ele>3.5</ele>
<time>2026-02-13T15:20:14Z</time>
</trkpt>
<trkpt lat="52.337769" lon="4.566121">
<ele>3.4</ele>
<time>2026-02-13T15:20:15Z</time>
</trkpt>
<trkpt lat="52.337767" lon="4.566106">
<ele>3.4</ele>
<time>2026-02-13T15:20:15Z</time>
</trkpt>
<trkpt lat="52.337766" lon="4.566093">
<ele>3.5</ele>
<time>2026-02-13T15:20:16Z</time>
</trkpt>
<trkpt lat="52.337766" lon="4.566074">
<ele>3.3</ele>
<time>2026-02-13T15:20:17Z</time>
</trkpt>
<trkpt lat="52.337763" lon="4.566059">
<ele>3.3</ele>
<time>2026-02-13T15:20:17Z</time>
</trkpt>
<trkpt lat="52.337762" lon="4.566046">
<ele>3.1</ele>
<time>2026-02-13T15:20:18Z</time>
</trkpt>
<trkpt lat="52.337760" lon="4.566025">
<ele>3.2</ele>
<time>2026-02-13T15:20:19Z</time>
</trkpt>
<trkpt lat="52.337759" lon="4.566011">
<ele>3.2</ele>
<time>2026-02-13T15:20:19Z</time>
</trkpt>
<trkpt lat="52.337760" lon="4.566000">
<ele>3.2</ele>
<time>2026-02-13T15:20:20Z</time>
</trkpt>
<trkpt lat="52.337760" lon="4.565986">
<ele>3.2</ele>
<time>2026-02-13T15:20:20Z</time>
</trkpt>
<trkpt lat="52.337760" lon="4.565966">
<ele>2.9</ele>
<time>2026-02-13T15:20:21Z</time>
</trkpt>
<trkpt lat="52.337760" lon="4.565956">
<ele>2.9</ele>
<time>2026-02-13T15:20:22Z</time>
</trkpt>
<trkpt lat="52.337757" lon="4.565937">
<ele>2.4</ele>
<time>2026-02-13T15:20:23Z</time>
</trkpt>
<trkpt lat="52.337755" lon="4.565922">
<ele>2.4</ele>
<time>2026-02-13T15:20:23Z</time>
</trkpt>
<trkpt lat="52.337756" lon="4.565911">
<ele>2.3</ele>
<time>2026-02-13T15:20:24Z</time>
</trkpt>
<trkpt lat="52.337755" lon="4.565894">
<ele>2.0</ele>
<time>2026-02-13T15:20:25Z</time>
</trkpt>
<trkpt lat="52.337754" lon="4.565890">
<ele>2.0</ele>
<time>2026-02-13T15:20:25Z</time>
</trkpt>
<trkpt lat="52.337749" lon="4.565872">
<ele>2.0</ele>
<time>2026-02-13T15:20:26Z</time>
</trkpt>
<trkpt lat="52.337745" lon="4.565862">
<ele>2.0</ele>
<time>2026-02-13T15:20:26Z</time>
</trkpt>
<trkpt lat="52.337743" lon="4.565854">
<ele>1.7</ele>
<time>2026-02-13T15:20:27Z</time>
</trkpt>
<trkpt lat="52.337738" lon="4.565840">
<ele>1.8</ele>
<time>2026-02-13T15:20:28Z</time>
</trkpt>
<trkpt lat="52.337734" lon="4.565825">
<ele>1.8</ele>
<time>2026-02-13T15:20:28Z</time>
</trkpt>
<trkpt lat="52.337730" lon="4.565813">
<ele>1.8</ele>
<time>2026-02-13T15:20:29Z</time>
</trkpt>
<trkpt lat="52.337727" lon="4.565802">
<ele>1.8</ele>
<time>2026-02-13T15:20:30Z</time>
</trkpt>
<trkpt lat="52.337722" lon="4.565788">
<ele>1.8</ele>
<time>2026-02-13T15:20:30Z</time>
</trkpt>
<trkpt lat="52.337718" lon="4.565780">
<ele>1.9</ele>
<time>2026-02-13T15:20:31Z</time>
</trkpt>
<trkpt lat="52.337713" lon="4.565767">
<ele>1.8</ele>
<time>2026-02-13T15:20:32Z</time>
</trkpt>
<trkpt lat="52.337706" lon="4.565754">
<ele>1.8</ele>
<time>2026-02-13T15:20:32Z</time>
</trkpt>
<trkpt lat="52.337701" lon="4.565744">
<ele>1.7</ele>
<time>2026-02-13T15:20:33Z</time>
</trkpt>
<trkpt lat="52.337696" lon="4.565734">
<ele>1.8</ele>
<time>2026-02-13T15:20:34Z</time>
</trkpt>
<trkpt lat="52.337688" lon="4.565722">
<ele>1.8</ele>
<time>2026-02-13T15:20:34Z</time>
</trkpt>
<trkpt lat="52.337677" lon="4.565711">
<ele>1.8</ele>
<time>2026-02-13T15:20:35Z</time>
</trkpt>
<trkpt lat="52.337670" lon="4.565706">
<ele>1.8</ele>
<time>2026-02-13T15:20:36Z</time>
</trkpt>
<trkpt lat="52.337664" lon="4.565699">
<ele>1.7</ele>
<time>2026-02-13T15:20:37Z</time>
</trkpt>
<trkpt lat="52.337654" lon="4.565686">
<ele>1.7</ele>
<time>2026-02-13T15:20:37Z</time>
</trkpt>
<trkpt lat="52.337652" lon="4.565680">
<ele>1.8</ele>
<time>2026-02-13T15:20:38Z</time>
</trkpt>
<trkpt lat="52.337643" lon="4.565667">
<ele>1.8</ele>
<time>2026-02-13T15:20:39Z</time>
</trkpt>
<trkpt lat="52.337640" lon="4.565660">
<ele>1.7</ele>
<time>2026-02-13T15:20:39Z</time>
</trkpt>
<trkpt lat="52.337633" lon="4.565649">
<ele>1.7</ele>
<time>2026-02-13T15:20:40Z</time>
</trkpt>
<trkpt lat="52.337626" lon="4.565643">
<ele>1.7</ele>
<time>2026-02-13T15:20:41Z</time>
</trkpt>
<trkpt lat="52.337621" lon="4.565637">
<ele>1.7</ele>
<time>2026-02-13T15:20:41Z</time>
</trkpt>
<trkpt lat="52.337615" lon="4.565629">
<ele>1.7</ele>
<time>2026-02-13T15:20:42Z</time>
</trkpt>
<trkpt lat="52.337606" lon="4.565617">
<ele>1.7</ele>
<time>2026-02-13T15:20:42Z</time>
</trkpt>
<trkpt lat="52.337601" lon="4.565601">
<ele>1.5</ele>
<time>2026-02-13T15:20:43Z</time>
</trkpt>
<trkpt lat="52.337597" lon="4.565590">
<ele>1.6</ele>
<time>2026-02-13T15:20:44Z</time>
</trkpt>
<trkpt lat="52.337593" lon="4.565579">
<ele>1.6</ele>
<time>2026-02-13T15:20:44Z</time>
</trkpt>
<trkpt lat="52.337589" lon="4.565567">
<ele>1.3</ele>
<time>2026-02-13T15:20:45Z</time>
</trkpt>
<trkpt lat="52.337582" lon="4.565551">
<ele>1.3</ele>
<time>2026-02-13T15:20:45Z</time>
</trkpt>
<trkpt lat="52.337579" lon="4.565540">
<ele>1.4</ele>
<time>2026-02-13T15:20:46Z</time>
</trkpt>
<trkpt lat="52.337572" lon="4.565522">
<ele>1.2</ele>
<time>2026-02-13T15:20:47Z</time>
</trkpt>
<trkpt lat="52.337565" lon="4.565507">
<ele>1.2</ele>
<time>2026-02-13T15:20:47Z</time>
</trkpt>
<trkpt lat="52.337561" lon="4.565496">
<ele>1.2</ele>
<time>2026-02-13T15:20:48Z</time>
</trkpt>
<trkpt lat="52.337556" lon="4.565487">
<ele>0.9</ele>
<time>2026-02-13T15:20:49Z</time>
</trkpt>
<trkpt lat="52.337549" lon="4.565472">
<ele>0.9</ele>
<time>2026-02-13T15:20:49Z</time>
</trkpt>
<trkpt lat="52.337544" lon="4.565458">
<ele>1.1</ele>
<time>2026-02-13T15:20:50Z</time>
</trkpt>
<trkpt lat="52.337538" lon="4.565443">
<ele>1.1</ele>
<time>2026-02-13T15:20:51Z</time>
</trkpt>
<trkpt lat="52.337532" lon="4.565428">
<ele>0.9</ele>
<time>2026-02-13T15:20:52Z</time>
</trkpt>
<trkpt lat="52.337525" lon="4.565406">
<ele>0.9</ele>
<time>2026-02-13T15:20:53Z</time>
</trkpt>
<trkpt lat="52.337517" lon="4.565390">
<ele>0.6</ele>
<time>2026-02-13T15:20:54Z</time>
</trkpt>
<trkpt lat="52.337512" lon="4.565382">
<ele>0.6</ele>
<time>2026-02-13T15:20:54Z</time>
</trkpt>
<trkpt lat="52.337509" lon="4.565374">
<ele>0.6</ele>
<time>2026-02-13T15:20:55Z</time>
</trkpt>
<trkpt lat="52.337505" lon="4.565366">
<ele>0.6</ele>
<time>2026-02-13T15:20:55Z</time>
</trkpt>
<trkpt lat="52.337500" lon="4.565354">
<ele>0.8</ele>
<time>2026-02-13T15:20:56Z</time>
</trkpt>
<trkpt lat="52.337496" lon="4.565343">
<ele>0.8</ele>
<time>2026-02-13T15:20:57Z</time>
</trkpt>
<trkpt lat="52.337487" lon="4.565328">
<ele>0.8</ele>
<time>2026-02-13T15:20:57Z</time>
</trkpt>
<trkpt lat="52.337480" lon="4.565316">
<ele>0.8</ele>
<time>2026-02-13T15:20:58Z</time>
</trkpt>
<trkpt lat="52.337474" lon="4.565305">
<ele>0.8</ele>
<time>2026-02-13T15:20:59Z</time>
</trkpt>
<trkpt lat="52.337468" lon="4.565289">
<ele>0.8</ele>
<time>2026-02-13T15:20:59Z</time>
</trkpt>
<trkpt lat="52.337459" lon="4.565269">
<ele>0.5</ele>
<time>2026-02-13T15:21:00Z</time>
</trkpt>
<trkpt lat="52.337451" lon="4.565250">
<ele>0.4</ele>
<time>2026-02-13T15:21:01Z</time>
</trkpt>
<trkpt lat="52.337449" lon="4.565244">
<ele>0.4</ele>
<time>2026-02-13T15:21:02Z</time>
</trkpt>
<trkpt lat="52.337439" lon="4.565222">
<ele>0.3</ele>
<time>2026-02-13T15:21:03Z</time>
</trkpt>
<trkpt lat="52.337434" lon="4.565210">
<ele>0.3</ele>
<time>2026-02-13T15:21:03Z</time>
</trkpt>
<trkpt lat="52.337429" lon="4.565201">
<ele>0.2</ele>
<time>2026-02-13T15:21:04Z</time>
</trkpt>
<trkpt lat="52.337423" lon="4.565192">
<ele>0.3</ele>
<time>2026-02-13T15:21:05Z</time>
</trkpt>
<trkpt lat="52.337415" lon="4.565177">
<ele>0.3</ele>
<time>2026-02-13T15:21:05Z</time>
</trkpt>
<trkpt lat="52.337406" lon="4.565152">
<ele>0.5</ele>
<time>2026-02-13T15:21:07Z</time>
</trkpt>
<trkpt lat="52.337405" lon="4.565139">
<ele>0.5</ele>
<time>2026-02-13T15:21:07Z</time>
</trkpt>
<trkpt lat="52.337402" lon="4.565127">
<ele>0.4</ele>
<time>2026-02-13T15:21:08Z</time>
</trkpt>
<trkpt lat="52.337397" lon="4.565107">
<ele>0.4</ele>
<time>2026-02-13T15:21:08Z</time>
</trkpt>
<trkpt lat="52.337391" lon="4.565084">
<ele>0.4</ele>
<time>2026-02-13T15:21:09Z</time>
</trkpt>
<trkpt lat="52.337384" lon="4.565056">
<ele>0.2</ele>
<time>2026-02-13T15:21:11Z</time>
</trkpt>
<trkpt lat="52.337381" lon="4.565047">
<ele>0.1</ele>
<time>2026-02-13T15:21:11Z</time>
</trkpt>
<trkpt lat="52.337374" lon="4.565030">
<ele>0.0</ele>
<time>2026-02-13T15:21:12Z</time>
</trkpt>
<trkpt lat="52.337369" lon="4.565020">
<ele>-0.1</ele>
<time>2026-02-13T15:21:13Z</time>
</trkpt>
<trkpt lat="52.337361" lon="4.565003">
<ele>-0.1</ele>
<time>2026-02-13T15:21:13Z</time>
</trkpt>
<trkpt lat="52.337350" lon="4.564979">
<ele>-0.3</ele>
<time>2026-02-13T15:21:15Z</time>
</trkpt>
<trkpt lat="52.337341" lon="4.564961">
<ele>-0.3</ele>
<time>2026-02-13T15:21:16Z</time>
</trkpt>
<trkpt lat="52.337333" lon="4.564946">
<ele>-0.2</ele>
<time>2026-02-13T15:21:17Z</time>
</trkpt>
<trkpt lat="52.337327" lon="4.564934">
<ele>-0.4</ele>
<time>2026-02-13T15:21:17Z</time>
</trkpt>
<trkpt lat="52.337323" lon="4.564924">
<ele>-0.4</ele>
<time>2026-02-13T15:21:18Z</time>
</trkpt>
<trkpt lat="52.337318" lon="4.564916">
<ele>-0.4</ele>
<time>2026-02-13T15:21:18Z</time>
</trkpt>
<trkpt lat="52.337314" lon="4.564905">
<ele>-0.2</ele>
<time>2026-02-13T15:21:19Z</time>
</trkpt>
<trkpt lat="52.337309" lon="4.564896">
<ele>-0.2</ele>
<time>2026-02-13T15:21:19Z</time>
</trkpt>
<trkpt lat="52.337300" lon="4.564877">
<ele>-0.2</ele>
<time>2026-02-13T15:21:20Z</time>
</trkpt>
<trkpt lat="52.337292" lon="4.564855">
<ele>0.0</ele>
<time>2026-02-13T15:21:21Z</time>
</trkpt>
<trkpt lat="52.337283" lon="4.564834">
<ele>0.0</ele>
<time>2026-02-13T15:21:22Z</time>
</trkpt>
<trkpt lat="52.337280" lon="4.564822">
<ele>-0.1</ele>
<time>2026-02-13T15:21:23Z</time>
</trkpt>
<trkpt lat="52.337274" lon="4.564813">
<ele>-0.1</ele>
<time>2026-02-13T15:21:24Z</time>
</trkpt>
<trkpt lat="52.337270" lon="4.564801">
<ele>-0.2</ele>
<time>2026-02-13T15:21:24Z</time>
</trkpt>
<trkpt lat="52.337267" lon="4.564791">
<ele>-0.2</ele>
<time>2026-02-13T15:21:25Z</time>
</trkpt>
<trkpt lat="52.337257" lon="4.564773">
<ele>-0.2</ele>
<time>2026-02-13T15:21:26Z</time>
</trkpt>
<trkpt lat="52.337248" lon="4.564751">
<ele>-0.3</ele>
<time>2026-02-13T15:21:27Z</time>
</trkpt>
<trkpt lat="52.337245" lon="4.564734">
<ele>-0.5</ele>
<time>2026-02-13T15:21:28Z</time>
</trkpt>
<trkpt lat="52.337242" lon="4.564719">
<ele>-0.4</ele>
<time>2026-02-13T15:21:28Z</time>
</trkpt>
<trkpt lat="52.337233" lon="4.564695">
<ele>-0.4</ele>
<time>2026-02-13T15:21:29Z</time>
</trkpt>
<trkpt lat="52.337230" lon="4.564677">
<ele>-0.5</ele>
<time>2026-02-13T15:21:30Z</time>
</trkpt>
<trkpt lat="52.337228" lon="4.564666">
<ele>-0.4</ele>
<time>2026-02-13T15:21:31Z</time>
</trkpt>
<trkpt lat="52.337223" lon="4.564644">
<ele>-0.4</ele>
<time>2026-02-13T15:21:32Z</time>
</trkpt>
<trkpt lat="52.337224" lon="4.564625">
<ele>-0.4</ele>
<time>2026-02-13T15:21:32Z</time>
</trkpt>
<trkpt lat="52.337221" lon="4.564590">
<ele>-0.5</ele>
<time>2026-02-13T15:21:34Z</time>
</trkpt>
<trkpt lat="52.337223" lon="4.564574">
<ele>-0.6</ele>
<time>2026-02-13T15:21:34Z</time>
</trkpt>
<trkpt lat="52.337223" lon="4.564548">
<ele>-0.6</ele>
<time>2026-02-13T15:21:35Z</time>
</trkpt>
<trkpt lat="52.337222" lon="4.564525">
<ele>-0.5</ele>
<time>2026-02-13T15:21:36Z</time>
</trkpt>
<trkpt lat="52.337217" lon="4.564490">
<ele>-0.8</ele>
<time>2026-02-13T15:21:37Z</time>
</trkpt>
<trkpt lat="52.337215" lon="4.564474">
<ele>-1.0</ele>
<time>2026-02-13T15:21:38Z</time>
</trkpt>
<trkpt lat="52.337209" lon="4.564445">
<ele>-1.0</ele>
<time>2026-02-13T15:21:40Z</time>
</trkpt>
<trkpt lat="52.337206" lon="4.564424">
<ele>-0.9</ele>
<time>2026-02-13T15:21:41Z</time>
</trkpt>
<trkpt lat="52.337205" lon="4.564414">
<ele>-1.1</ele>
<time>2026-02-13T15:21:41Z</time>
</trkpt>
<trkpt lat="52.337204" lon="4.564404">
<ele>-1.1</ele>
<time>2026-02-13T15:21:42Z</time>
</trkpt>
<trkpt lat="52.337201" lon="4.564390">
<ele>-1.1</ele>
<time>2026-02-13T15:21:42Z</time>
</trkpt>
<trkpt lat="52.337195" lon="4.564367">
<ele>-1.2</ele>
<time>2026-02-13T15:21:43Z</time>
</trkpt>
<trkpt lat="52.337189" lon="4.564344">
<ele>-1.1</ele>
<time>2026-02-13T15:21:44Z</time>
</trkpt>
<trkpt lat="52.337183" lon="4.564322">
<ele>-1.0</ele>
<time>2026-02-13T15:21:45Z</time>
</trkpt>
<trkpt lat="52.337177" lon="4.564303">
<ele>-0.9</ele>
<time>2026-02-13T15:21:46Z</time>
</trkpt>
<trkpt lat="52.337171" lon="4.564285">
<ele>-1.0</ele>
<time>2026-02-13T15:21:47Z</time>
</trkpt>
<trkpt lat="52.337165" lon="4.564264">
<ele>-1.0</ele>
<time>2026-02-13T15:21:48Z</time>
</trkpt>
<trkpt lat="52.337162" lon="4.564252">
<ele>-1.0</ele>
<time>2026-02-13T15:21:49Z</time>
</trkpt>
<trkpt lat="52.337158" lon="4.564239">
<ele>-1.0</ele>
<time>2026-02-13T15:21:49Z</time>
</trkpt>
<trkpt lat="52.337150" lon="4.564215">
<ele>-1.2</ele>
<time>2026-02-13T15:21:51Z</time>
</trkpt>
<trkpt lat="52.337146" lon="4.564203">
<ele>-1.4</ele>
<time>2026-02-13T15:21:51Z</time>
</trkpt>
<trkpt lat="52.337144" lon="4.564199">
<ele>-1.4</ele>
<time>2026-02-13T15:21:52Z</time>
</trkpt>
<trkpt lat="52.337135" lon="4.564194">
<ele>-1.4</ele>
<time>2026-02-13T15:21:53Z</time>
</trkpt>
<trkpt lat="52.337129" lon="4.564186">
<ele>-1.5</ele>
<time>2026-02-13T15:21:53Z</time>
</trkpt>
<trkpt lat="52.337128" lon="4.564175">
<ele>-1.4</ele>
<time>2026-02-13T15:21:54Z</time>
</trkpt>
<trkpt lat="52.337123" lon="4.564166">
<ele>-1.4</ele>
<time>2026-02-13T15:21:54Z</time>
</trkpt>
<trkpt lat="52.337118" lon="4.564142">
<ele>-1.5</ele>
<time>2026-02-13T15:21:56Z</time>
</trkpt>
<trkpt lat="52.337117" lon="4.564115">
<ele>-1.2</ele>
<time>2026-02-13T15:21:56Z</time>
</trkpt>
<trkpt lat="52.337116" lon="4.564104">
<ele>-1.3</ele>
<time>2026-02-13T15:21:57Z</time>
</trkpt>
<trkpt lat="52.337113" lon="4.564093">
<ele>-1.3</ele>
<time>2026-02-13T15:21:57Z</time>
</trkpt>
<trkpt lat="52.337106" lon="4.564060">
<ele>-1.2</ele>
<time>2026-02-13T15:21:59Z</time>
</trkpt>
<trkpt lat="52.337100" lon="4.564039">
<ele>-1.1</ele>
<time>2026-02-13T15:22:00Z</time>
</trkpt>
<trkpt lat="52.337096" lon="4.564028">
<ele>-1.1</ele>
<time>2026-02-13T15:22:00Z</time>
</trkpt>
<trkpt lat="52.337091" lon="4.564019">
<ele>-1.1</ele>
<time>2026-02-13T15:22:01Z</time>
</trkpt>
<trkpt lat="52.337087" lon="4.564010">
<ele>-1.1</ele>
<time>2026-02-13T15:22:01Z</time>
</trkpt>
<trkpt lat="52.337083" lon="4.564003">
<ele>-1.0</ele>
<time>2026-02-13T15:22:02Z</time>
</trkpt>
<trkpt lat="52.337075" lon="4.563987">
<ele>-1.3</ele>
<time>2026-02-13T15:22:03Z</time>
</trkpt>
<trkpt lat="52.337068" lon="4.563972">
<ele>-1.2</ele>
<time>2026-02-13T15:22:04Z</time>
</trkpt>
<trkpt lat="52.337061" lon="4.563957">
<ele>-1.3</ele>
<time>2026-02-13T15:22:05Z</time>
</trkpt>
<trkpt lat="52.337052" lon="4.563940">
<ele>-1.1</ele>
<time>2026-02-13T15:22:06Z</time>
</trkpt>
<trkpt lat="52.337047" lon="4.563933">
<ele>-1.1</ele>
<time>2026-02-13T15:22:06Z</time>
</trkpt>
<trkpt lat="52.337041" lon="4.563921">
<ele>-1.1</ele>
<time>2026-02-13T15:22:07Z</time>
</trkpt>
<trkpt lat="52.337035" lon="4.563911">
<ele>-1.1</ele>
<time>2026-02-13T15:22:08Z</time>
</trkpt>
<trkpt lat="52.337025" lon="4.563890">
<ele>-1.1</ele>
<time>2026-02-13T15:22:09Z</time>
</trkpt>
<trkpt lat="52.337014" lon="4.563870">
<ele>-1.1</ele>
<time>2026-02-13T15:22:10Z</time>
</trkpt>
<trkpt lat="52.337006" lon="4.563852">
<ele>-0.7</ele>
<time>2026-02-13T15:22:11Z</time>
</trkpt>
<trkpt lat="52.337001" lon="4.563835">
<ele>-0.7</ele>
<time>2026-02-13T15:22:11Z</time>
</trkpt>
<trkpt lat="52.336993" lon="4.563818">
<ele>-0.6</ele>
<time>2026-02-13T15:22:13Z</time>
</trkpt>
<trkpt lat="52.336990" lon="4.563806">
<ele>-0.5</ele>
<time>2026-02-13T15:22:13Z</time>
</trkpt>
<trkpt lat="52.336984" lon="4.563795">
<ele>-0.4</ele>
<time>2026-02-13T15:22:14Z</time>
</trkpt>
<trkpt lat="52.336979" lon="4.563772">
<ele>-0.4</ele>
<time>2026-02-13T15:22:15Z</time>
</trkpt>
<trkpt lat="52.336977" lon="4.563757">
<ele>-0.6</ele>
<time>2026-02-13T15:22:15Z</time>
</trkpt>
<trkpt lat="52.336977" lon="4.563741">
<ele>-0.5</ele>
<time>2026-02-13T15:22:16Z</time>
</trkpt>
<trkpt lat="52.336973" lon="4.563723">
<ele>-0.5</ele>
<time>2026-02-13T15:22:17Z</time>
</trkpt>
<trkpt lat="52.336971" lon="4.563705">
<ele>-0.6</ele>
<time>2026-02-13T15:22:17Z</time>
</trkpt>
<trkpt lat="52.336968" lon="4.563690">
<ele>-0.5</ele>
<time>2026-02-13T15:22:18Z</time>
</trkpt>
<trkpt lat="52.336966" lon="4.563679">
<ele>-0.5</ele>
<time>2026-02-13T15:22:18Z</time>
</trkpt>
<trkpt lat="52.336963" lon="4.563670">
<ele>-0.7</ele>
<time>2026-02-13T15:22:19Z</time>
</trkpt>
<trkpt lat="52.336961" lon="4.563661">
<ele>-0.7</ele>
<time>2026-02-13T15:22:19Z</time>
</trkpt>
<trkpt lat="52.336956" lon="4.563651">
<ele>-0.6</ele>
<time>2026-02-13T15:22:20Z</time>
</trkpt>
<trkpt lat="52.336953" lon="4.563642">
<ele>-0.6</ele>
<time>2026-02-13T15:22:21Z</time>
</trkpt>
<trkpt lat="52.336949" lon="4.563635">
<ele>-0.5</ele>
<time>2026-02-13T15:22:21Z</time>
</trkpt>
<trkpt lat="52.336946" lon="4.563627">
<ele>-0.6</ele>
<time>2026-02-13T15:22:22Z</time>
</trkpt>
<trkpt lat="52.336942" lon="4.563614">
<ele>-0.6</ele>
<time>2026-02-13T15:22:22Z</time>
</trkpt>
<trkpt lat="52.336935" lon="4.563598">
<ele>-0.5</ele>
<time>2026-02-13T15:22:23Z</time>
</trkpt>
<trkpt lat="52.336932" lon="4.563590">
<ele>-0.5</ele>
<time>2026-02-13T15:22:24Z</time>
</trkpt>
<trkpt lat="52.336930" lon="4.563582">
<ele>-0.5</ele>
<time>2026-02-13T15:22:24Z</time>
</trkpt>
<trkpt lat="52.336927" lon="4.563576">
<ele>-0.4</ele>
<time>2026-02-13T15:22:25Z</time>
</trkpt>
<trkpt lat="52.336924" lon="4.563563">
<ele>-0.4</ele>
<time>2026-02-13T15:22:25Z</time>
</trkpt>
<trkpt lat="52.336921" lon="4.563557">
<ele>-0.5</ele>
<time>2026-02-13T15:22:26Z</time>
</trkpt>
<trkpt lat="52.336918" lon="4.563544">
<ele>-0.5</ele>
<time>2026-02-13T15:22:27Z</time>
</trkpt>
<trkpt lat="52.336913" lon="4.563531">
<ele>-0.9</ele>
<time>2026-02-13T15:22:28Z</time>
</trkpt>
<trkpt lat="52.336908" lon="4.563524">
<ele>-0.9</ele>
<time>2026-02-13T15:22:28Z</time>
</trkpt>
<trkpt lat="52.336904" lon="4.563517">
<ele>-0.9</ele>
<time>2026-02-13T15:22:29Z</time>
</trkpt>
<trkpt lat="52.336900" lon="4.563508">
<ele>-0.9</ele>
<time>2026-02-13T15:22:29Z</time>
</trkpt>
<trkpt lat="52.336897" lon="4.563500">
<ele>-0.8</ele>
<time>2026-02-13T15:22:30Z</time>
</trkpt>
<trkpt lat="52.336894" lon="4.563489">
<ele>-0.8</ele>
<time>2026-02-13T15:22:30Z</time>
</trkpt>
<trkpt lat="52.336891" lon="4.563481">
<ele>-0.8</ele>
<time>2026-02-13T15:22:31Z</time>
</trkpt>
<trkpt lat="52.336888" lon="4.563472">
<ele>-0.8</ele>
<time>2026-02-13T15:22:31Z</time>
</trkpt>
<trkpt lat="52.336885" lon="4.563465">
<ele>-1.1</ele>
<time>2026-02-13T15:22:32Z</time>
</trkpt>
<trkpt lat="52.336880" lon="4.563448">
<ele>-1.1</ele>
<time>2026-02-13T15:22:32Z</time>
</trkpt>
<trkpt lat="52.336880" lon="4.563446">
<ele>-1.0</ele>
<time>2026-02-13T15:22:33Z</time>
</trkpt>
<trkpt lat="52.336878" lon="4.563436">
<ele>-0.9</ele>
<time>2026-02-13T15:22:34Z</time>
</trkpt>
<trkpt lat="52.336874" lon="4.563422">
<ele>-0.9</ele>
<time>2026-02-13T15:22:34Z</time>
</trkpt>
<trkpt lat="52.336872" lon="4.563414">
<ele>-0.9</ele>
<time>2026-02-13T15:22:35Z</time>
</trkpt>
<trkpt lat="52.336869" lon="4.563402">
<ele>-0.9</ele>
<time>2026-02-13T15:22:36Z</time>
</trkpt>
<trkpt lat="52.336867" lon="4.563386">
<ele>-0.9</ele>
<time>2026-02-13T15:22:36Z</time>
</trkpt>
<trkpt lat="52.336866" lon="4.563376">
<ele>-0.9</ele>
<time>2026-02-13T15:22:37Z</time>
</trkpt>
<trkpt lat="52.336865" lon="4.563366">
<ele>-0.9</ele>
<time>2026-02-13T15:22:37Z</time>
</trkpt>
<trkpt lat="52.336865" lon="4.563357">
<ele>-1.0</ele>
<time>2026-02-13T15:22:38Z</time>
</trkpt>
<trkpt lat="52.336864" lon="4.563345">
<ele>-0.9</ele>
<time>2026-02-13T15:22:39Z</time>
</trkpt>
<trkpt lat="52.336864" lon="4.563336">
<ele>-0.9</ele>
<time>2026-02-13T15:22:39Z</time>
</trkpt>
<trkpt lat="52.336863" lon="4.563324">
<ele>-0.9</ele>
<time>2026-02-13T15:22:40Z</time>
</trkpt>
<trkpt lat="52.336862" lon="4.563315">
<ele>-1.0</ele>
<time>2026-02-13T15:22:40Z</time>
</trkpt>
<trkpt lat="52.336861" lon="4.563301">
<ele>-1.2</ele>
<time>2026-02-13T15:22:41Z</time>
</trkpt>
<trkpt lat="52.336859" lon="4.563289">
<ele>-1.2</ele>
<time>2026-02-13T15:22:42Z</time>
</trkpt>
<trkpt lat="52.336857" lon="4.563280">
<ele>-1.3</ele>
<time>2026-02-13T15:22:42Z</time>
</trkpt>
<trkpt lat="52.336856" lon="4.563272">
<ele>-1.5</ele>
<time>2026-02-13T15:22:43Z</time>
</trkpt>
<trkpt lat="52.336854" lon="4.563262">
<ele>-1.5</ele>
<time>2026-02-13T15:22:43Z</time>
</trkpt>
<trkpt lat="52.336852" lon="4.563250">
<ele>-1.4</ele>
<time>2026-02-13T15:22:44Z</time>
</trkpt>
<trkpt lat="52.336849" lon="4.563241">
<ele>-1.3</ele>
<time>2026-02-13T15:22:44Z</time>
</trkpt>
<trkpt lat="52.336841" lon="4.563222">
<ele>-1.4</ele>
<time>2026-02-13T15:22:45Z</time>
</trkpt>
<trkpt lat="52.336832" lon="4.563203">
<ele>-1.4</ele>
<time>2026-02-13T15:22:46Z</time>
</trkpt>
<trkpt lat="52.336826" lon="4.563190">
<ele>-1.4</ele>
<time>2026-02-13T15:22:47Z</time>
</trkpt>
<trkpt lat="52.336822" lon="4.563183">
<ele>-1.4</ele>
<time>2026-02-13T15:22:47Z</time>
</trkpt>
<trkpt lat="52.336818" lon="4.563172">
<ele>-1.5</ele>
<time>2026-02-13T15:22:48Z</time>
</trkpt>
<trkpt lat="52.336813" lon="4.563162">
<ele>-1.4</ele>
<time>2026-02-13T15:22:48Z</time>
</trkpt>
<trkpt lat="52.336805" lon="4.563148">
<ele>-1.4</ele>
<time>2026-02-13T15:22:49Z</time>
</trkpt>
<trkpt lat="52.336801" lon="4.563139">
<ele>-1.4</ele>
<time>2026-02-13T15:22:50Z</time>
</trkpt>
<trkpt lat="52.336793" lon="4.563131">
<ele>-1.5</ele>
<time>2026-02-13T15:22:50Z</time>
</trkpt>
<trkpt lat="52.336787" lon="4.563124">
<ele>-1.3</ele>
<time>2026-02-13T15:22:51Z</time>
</trkpt>
<trkpt lat="52.336776" lon="4.563108">
<ele>-1.3</ele>
<time>2026-02-13T15:22:52Z</time>
</trkpt>
<trkpt lat="52.336770" lon="4.563101">
<ele>-1.3</ele>
<time>2026-02-13T15:22:52Z</time>
</trkpt>
<trkpt lat="52.336765" lon="4.563094">
<ele>-1.3</ele>
<time>2026-02-13T15:22:53Z</time>
</trkpt>
<trkpt lat="52.336755" lon="4.563078">
<ele>-1.3</ele>
<time>2026-02-13T15:22:54Z</time>
</trkpt>
<trkpt lat="52.336750" lon="4.563071">
<ele>-1.5</ele>
<time>2026-02-13T15:22:54Z</time>
</trkpt>
<trkpt lat="52.336745" lon="4.563062">
<ele>-1.5</ele>
<time>2026-02-13T15:22:55Z</time>
</trkpt>
<trkpt lat="52.336740" lon="4.563054">
<ele>-1.5</ele>
<time>2026-02-13T15:22:55Z</time>
</trkpt>
<trkpt lat="52.336736" lon="4.563045">
<ele>-1.5</ele>
<time>2026-02-13T15:22:56Z</time>
</trkpt>
<trkpt lat="52.336732" lon="4.563035">
<ele>-1.5</ele>
<time>2026-02-13T15:22:56Z</time>
</trkpt>
<trkpt lat="52.336728" lon="4.563025">
<ele>-1.5</ele>
<time>2026-02-13T15:22:57Z</time>
</trkpt>
<trkpt lat="52.336720" lon="4.563005">
<ele>-1.5</ele>
<time>2026-02-13T15:22:57Z</time>
</trkpt>
<trkpt lat="52.336711" lon="4.562984">
<ele>-1.5</ele>
<time>2026-02-13T15:22:58Z</time>
</trkpt>
<trkpt lat="52.336705" lon="4.562970">
<ele>-1.5</ele>
<time>2026-02-13T15:22:59Z</time>
</trkpt>
<trkpt lat="52.336699" lon="4.562953">
<ele>-1.5</ele>
<time>2026-02-13T15:23:00Z</time>
</trkpt>
<trkpt lat="52.336695" lon="4.562941">
<ele>-1.5</ele>
<time>2026-02-13T15:23:00Z</time>
</trkpt>
<trkpt lat="52.336690" lon="4.562918">
<ele>-1.4</ele>
<time>2026-02-13T15:23:01Z</time>
</trkpt>
<trkpt lat="52.336688" lon="4.562906">
<ele>-1.4</ele>
<time>2026-02-13T15:23:02Z</time>
</trkpt>
<trkpt lat="52.336686" lon="4.562893">
<ele>-1.4</ele>
<time>2026-02-13T15:23:02Z</time>
</trkpt>
<trkpt lat="52.336685" lon="4.562881">
<ele>-1.4</ele>
<time>2026-02-13T15:23:03Z</time>
</trkpt>
<trkpt lat="52.336683" lon="4.562869">
<ele>-1.4</ele>
<time>2026-02-13T15:23:03Z</time>
</trkpt>
<trkpt lat="52.336682" lon="4.562860">
<ele>-1.3</ele>
<time>2026-02-13T15:23:04Z</time>
</trkpt>
<trkpt lat="52.336679" lon="4.562847">
<ele>-1.3</ele>
<time>2026-02-13T15:23:04Z</time>
</trkpt>
<trkpt lat="52.336677" lon="4.562837">
<ele>-1.4</ele>
<time>2026-02-13T15:23:05Z</time>
</trkpt>
<trkpt lat="52.336674" lon="4.562826">
<ele>-1.4</ele>
<time>2026-02-13T15:23:05Z</time>
</trkpt>
<trkpt lat="52.336671" lon="4.562816">
<ele>-1.4</ele>
<time>2026-02-13T15:23:06Z</time>
</trkpt>
<trkpt lat="52.336667" lon="4.562804">
<ele>-1.4</ele>
<time>2026-02-13T15:23:06Z</time>
</trkpt>
<trkpt lat="52.336665" lon="4.562794">
<ele>-1.2</ele>
<time>2026-02-13T15:23:07Z</time>
</trkpt>
<trkpt lat="52.336662" lon="4.562782">
<ele>-1.2</ele>
<time>2026-02-13T15:23:07Z</time>
</trkpt>
<trkpt lat="52.336658" lon="4.562771">
<ele>-1.5</ele>
<time>2026-02-13T15:23:08Z</time>
</trkpt>
<trkpt lat="52.336654" lon="4.562759">
<ele>-1.3</ele>
<time>2026-02-13T15:23:09Z</time>
</trkpt>
<trkpt lat="52.336648" lon="4.562740">
<ele>-1.3</ele>
<time>2026-02-13T15:23:09Z</time>
</trkpt>
<trkpt lat="52.336645" lon="4.562732">
<ele>-1.4</ele>
<time>2026-02-13T15:23:10Z</time>
</trkpt>
<trkpt lat="52.336643" lon="4.562720">
<ele>-1.4</ele>
<time>2026-02-13T15:23:10Z</time>
</trkpt>
<trkpt lat="52.336640" lon="4.562710">
<ele>-1.4</ele>
<time>2026-02-13T15:23:11Z</time>
</trkpt>
<trkpt lat="52.336638" lon="4.562698">
<ele>-1.4</ele>
<time>2026-02-13T15:23:11Z</time>
</trkpt>
<trkpt lat="52.336635" lon="4.562689">
<ele>-1.2</ele>
<time>2026-02-13T15:23:12Z</time>
</trkpt>
<trkpt lat="52.336633" lon="4.562678">
<ele>-1.2</ele>
<time>2026-02-13T15:23:12Z</time>
</trkpt>
<trkpt lat="52.336628" lon="4.562656">
<ele>-1.4</ele>
<time>2026-02-13T15:23:13Z</time>
</trkpt>
<trkpt lat="52.336625" lon="4.562643">
<ele>-1.2</ele>
<time>2026-02-13T15:23:14Z</time>
</trkpt>
<trkpt lat="52.336622" lon="4.562631">
<ele>-1.2</ele>
<time>2026-02-13T15:23:15Z</time>
</trkpt>
<trkpt lat="52.336619" lon="4.562619">
<ele>-1.3</ele>
<time>2026-02-13T15:23:15Z</time>
</trkpt>
<trkpt lat="52.336616" lon="4.562609">
<ele>-1.1</ele>
<time>2026-02-13T15:23:16Z</time>
</trkpt>
<trkpt lat="52.336610" lon="4.562590">
<ele>-1.1</ele>
<time>2026-02-13T15:23:16Z</time>
</trkpt>
<trkpt lat="52.336607" lon="4.562580">
<ele>-1.1</ele>
<time>2026-02-13T15:23:17Z</time>
</trkpt>
<trkpt lat="52.336603" lon="4.562569">
<ele>-1.1</ele>
<time>2026-02-13T15:23:17Z</time>
</trkpt>
<trkpt lat="52.336599" lon="4.562562">
<ele>-1.0</ele>
<time>2026-02-13T15:23:18Z</time>
</trkpt>
<trkpt lat="52.336594" lon="4.562552">
<ele>-1.0</ele>
<time>2026-02-13T15:23:18Z</time>
</trkpt>
<trkpt lat="52.336589" lon="4.562542">
<ele>-0.9</ele>
<time>2026-02-13T15:23:19Z</time>
</trkpt>
<trkpt lat="52.336585" lon="4.562536">
<ele>-0.9</ele>
<time>2026-02-13T15:23:20Z</time>
</trkpt>
<trkpt lat="52.336581" lon="4.562528">
<ele>-0.9</ele>
<time>2026-02-13T15:23:20Z</time>
</trkpt>
<trkpt lat="52.336575" lon="4.562522">
<ele>-1.2</ele>
<time>2026-02-13T15:23:21Z</time>
</trkpt>
<trkpt lat="52.336565" lon="4.562509">
<ele>-1.2</ele>
<time>2026-02-13T15:23:21Z</time>
</trkpt>
<trkpt lat="52.336560" lon="4.562502">
<ele>-1.1</ele>
<time>2026-02-13T15:23:22Z</time>
</trkpt>
<trkpt lat="52.336555" lon="4.562493">
<ele>-1.1</ele>
<time>2026-02-13T15:23:22Z</time>
</trkpt>
<trkpt lat="52.336549" lon="4.562485">
<ele>-1.0</ele>
<time>2026-02-13T15:23:23Z</time>
</trkpt>
<trkpt lat="52.336544" lon="4.562478">
<ele>-1.0</ele>
<time>2026-02-13T15:23:23Z</time>
</trkpt>
<trkpt lat="52.336539" lon="4.562471">
<ele>-1.1</ele>
<time>2026-02-13T15:23:24Z</time>
</trkpt>
<trkpt lat="52.336534" lon="4.562464">
<ele>-1.2</ele>
<time>2026-02-13T15:23:25Z</time>
</trkpt>
<trkpt lat="52.336529" lon="4.562455">
<ele>-1.2</ele>
<time>2026-02-13T15:23:25Z</time>
</trkpt>
<trkpt lat="52.336526" lon="4.562445">
<ele>-1.1</ele>
<time>2026-02-13T15:23:26Z</time>
</trkpt>
<trkpt lat="52.336517" lon="4.562427">
<ele>-1.1</ele>
<time>2026-02-13T15:23:27Z</time>
</trkpt>
<trkpt lat="52.336515" lon="4.562416">
<ele>-1.1</ele>
<time>2026-02-13T15:23:27Z</time>
</trkpt>
<trkpt lat="52.336510" lon="4.562407">
<ele>-1.1</ele>
<time>2026-02-13T15:23:27Z</time>
</trkpt>
<trkpt lat="52.336502" lon="4.562387">
<ele>-1.2</ele>
<time>2026-02-13T15:23:28Z</time>
</trkpt>
<trkpt lat="52.336498" lon="4.562375">
<ele>-1.2</ele>
<time>2026-02-13T15:23:29Z</time>
</trkpt>
<trkpt lat="52.336492" lon="4.562364">
<ele>-1.2</ele>
<time>2026-02-13T15:23:30Z</time>
</trkpt>
<trkpt lat="52.336490" lon="4.562353">
<ele>-1.2</ele>
<time>2026-02-13T15:23:30Z</time>
</trkpt>
<trkpt lat="52.336486" lon="4.562343">
<ele>-1.2</ele>
<time>2026-02-13T15:23:31Z</time>
</trkpt>
<trkpt lat="52.336484" lon="4.562331">
<ele>-1.3</ele>
<time>2026-02-13T15:23:31Z</time>
</trkpt>
<trkpt lat="52.336480" lon="4.562320">
<ele>-1.3</ele>
<time>2026-02-13T15:23:31Z</time>
</trkpt>
<trkpt lat="52.336476" lon="4.562310">
<ele>-1.3</ele>
<time>2026-02-13T15:23:32Z</time>
</trkpt>
<trkpt lat="52.336474" lon="4.562306">
<ele>-1.3</ele>
<time>2026-02-13T15:23:32Z</time>
</trkpt>
<trkpt lat="52.336472" lon="4.562312">
<ele>-1.4</ele>
<time>2026-02-13T15:23:33Z</time>
</trkpt>
<trkpt lat="52.336469" lon="4.562303">
<ele>-1.4</ele>
<time>2026-02-13T15:23:34Z</time>
</trkpt>
<trkpt lat="52.336459" lon="4.562286">
<ele>-1.4</ele>
<time>2026-02-13T15:23:34Z</time>
</trkpt>
<trkpt lat="52.336448" lon="4.562267">
<ele>-1.3</ele>
<time>2026-02-13T15:23:35Z</time>
</trkpt>
<trkpt lat="52.336442" lon="4.562254">
<ele>-1.2</ele>
<time>2026-02-13T15:23:36Z</time>
</trkpt>
<trkpt lat="52.336432" lon="4.562236">
<ele>-1.2</ele>
<time>2026-02-13T15:23:36Z</time>
</trkpt>
<trkpt lat="52.336428" lon="4.562224">
<ele>-1.3</ele>
<time>2026-02-13T15:23:37Z</time>
</trkpt>
<trkpt lat="52.336423" lon="4.562213">
<ele>-1.3</ele>
<time>2026-02-13T15:23:37Z</time>
</trkpt>
<trkpt lat="52.336420" lon="4.562201">
<ele>-1.3</ele>
<time>2026-02-13T15:23:38Z</time>
</trkpt>
<trkpt lat="52.336415" lon="4.562190">
<ele>-1.3</ele>
<time>2026-02-13T15:23:38Z</time>
</trkpt>
<trkpt lat="52.336412" lon="4.562180">
<ele>-1.3</ele>
<time>2026-02-13T15:23:39Z</time>
</trkpt>
<trkpt lat="52.336407" lon="4.562170">
<ele>-1.3</ele>
<time>2026-02-13T15:23:39Z</time>
</trkpt>
<trkpt lat="52.336404" lon="4.562162">
<ele>-1.5</ele>
<time>2026-02-13T15:23:40Z</time>
</trkpt>
<trkpt lat="52.336399" lon="4.562153">
<ele>-1.5</ele>
<time>2026-02-13T15:23:40Z</time>
</trkpt>
<trkpt lat="52.336395" lon="4.562146">
<ele>-1.3</ele>
<time>2026-02-13T15:23:41Z</time>
</trkpt>
<trkpt lat="52.336390" lon="4.562136">
<ele>-1.3</ele>
<time>2026-02-13T15:23:41Z</time>
</trkpt>
<trkpt lat="52.336386" lon="4.562130">
<ele>-1.2</ele>
<time>2026-02-13T15:23:42Z</time>
</trkpt>
<trkpt lat="52.336381" lon="4.562121">
<ele>-1.2</ele>
<time>2026-02-13T15:23:42Z</time>
</trkpt>
<trkpt lat="52.336376" lon="4.562113">
<ele>-1.2</ele>
<time>2026-02-13T15:23:43Z</time>
</trkpt>
<trkpt lat="52.336371" lon="4.562104">
<ele>-1.2</ele>
<time>2026-02-13T15:23:43Z</time>
</trkpt>
<trkpt lat="52.336367" lon="4.562097">
<ele>-1.3</ele>
<time>2026-02-13T15:23:44Z</time>
</trkpt>
<trkpt lat="52.336362" lon="4.562089">
<ele>-1.3</ele>
<time>2026-02-13T15:23:44Z</time>
</trkpt>
<trkpt lat="52.336356" lon="4.562080">
<ele>-1.1</ele>
<time>2026-02-13T15:23:45Z</time>
</trkpt>
<trkpt lat="52.336350" lon="4.562070">
<ele>-1.1</ele>
<time>2026-02-13T15:23:46Z</time>
</trkpt>
<trkpt lat="52.336346" lon="4.562061">
<ele>-1.1</ele>
<time>2026-02-13T15:23:46Z</time>
</trkpt>
<trkpt lat="52.336340" lon="4.562052">
<ele>-1.1</ele>
<time>2026-02-13T15:23:47Z</time>
</trkpt>
<trkpt lat="52.336334" lon="4.562045">
<ele>-1.1</ele>
<time>2026-02-13T15:23:47Z</time>
</trkpt>
<trkpt lat="52.336328" lon="4.562035">
<ele>-1.1</ele>
<time>2026-02-13T15:23:48Z</time>
</trkpt>
<trkpt lat="52.336319" lon="4.562021">
<ele>-1.1</ele>
<time>2026-02-13T15:23:48Z</time>
</trkpt>
<trkpt lat="52.336310" lon="4.562002">
<ele>-1.0</ele>
<time>2026-02-13T15:23:49Z</time>
</trkpt>
<trkpt lat="52.336305" lon="4.561990">
<ele>-1.1</ele>
<time>2026-02-13T15:23:50Z</time>
</trkpt>
<trkpt lat="52.336301" lon="4.561980">
<ele>-1.1</ele>
<time>2026-02-13T15:23:51Z</time>
</trkpt>
<trkpt lat="52.336297" lon="4.561972">
<ele>-1.1</ele>
<time>2026-02-13T15:23:51Z</time>
</trkpt>
<trkpt lat="52.336292" lon="4.561964">
<ele>-1.1</ele>
<time>2026-02-13T15:23:52Z</time>
</trkpt>
<trkpt lat="52.336286" lon="4.561955">
<ele>-1.1</ele>
<time>2026-02-13T15:23:52Z</time>
</trkpt>
<trkpt lat="52.336283" lon="4.561949">
<ele>-1.1</ele>
<time>2026-02-13T15:23:53Z</time>
</trkpt>
<trkpt lat="52.336276" lon="4.561940">
<ele>-1.1</ele>
<time>2026-02-13T15:23:53Z</time>
</trkpt>
<trkpt lat="52.336273" lon="4.561934">
<ele>-1.0</ele>
<time>2026-02-13T15:23:54Z</time>
</trkpt>
<trkpt lat="52.336267" lon="4.561925">
<ele>-1.0</ele>
<time>2026-02-13T15:23:54Z</time>
</trkpt>
<trkpt lat="52.336257" lon="4.561910">
<ele>-0.9</ele>
<time>2026-02-13T15:23:55Z</time>
</trkpt>
<trkpt lat="52.336253" lon="4.561902">
<ele>-0.8</ele>
<time>2026-02-13T15:23:56Z</time>
</trkpt>
<trkpt lat="52.336250" lon="4.561896">
<ele>-0.8</ele>
<time>2026-02-13T15:23:57Z</time>
</trkpt>
<trkpt lat="52.336245" lon="4.561887">
<ele>-0.8</ele>
<time>2026-02-13T15:23:57Z</time>
</trkpt>
<trkpt lat="52.336242" lon="4.561879">
<ele>-0.6</ele>
<time>2026-02-13T15:23:58Z</time>
</trkpt>
<trkpt lat="52.336238" lon="4.561872">
<ele>-0.6</ele>
<time>2026-02-13T15:23:58Z</time>
</trkpt>
<trkpt lat="52.336235" lon="4.561865">
<ele>-0.5</ele>
<time>2026-02-13T15:23:59Z</time>
</trkpt>
<trkpt lat="52.336231" lon="4.561858">
<ele>-0.5</ele>
<time>2026-02-13T15:24:00Z</time>
</trkpt>
<trkpt lat="52.336227" lon="4.561851">
<ele>-0.4</ele>
<time>2026-02-13T15:24:00Z</time>
</trkpt>
<trkpt lat="52.336226" lon="4.561847">
<ele>-0.4</ele>
<time>2026-02-13T15:24:01Z</time>
</trkpt>
<trkpt lat="52.336222" lon="4.561837">
<ele>-0.4</ele>
<time>2026-02-13T15:24:01Z</time>
</trkpt>
<trkpt lat="52.336220" lon="4.561828">
<ele>-0.4</ele>
<time>2026-02-13T15:24:02Z</time>
</trkpt>
<trkpt lat="52.336217" lon="4.561819">
<ele>-0.4</ele>
<time>2026-02-13T15:24:02Z</time>
</trkpt>
<trkpt lat="52.336217" lon="4.561810">
<ele>-0.4</ele>
<time>2026-02-13T15:24:03Z</time>
</trkpt>
<trkpt lat="52.336214" lon="4.561801">
<ele>-0.4</ele>
<time>2026-02-13T15:24:04Z</time>
</trkpt>
<trkpt lat="52.336212" lon="4.561792">
<ele>-0.3</ele>
<time>2026-02-13T15:24:04Z</time>
</trkpt>
<trkpt lat="52.336211" lon="4.561786">
<ele>-0.3</ele>
<time>2026-02-13T15:24:05Z</time>
</trkpt>
<trkpt lat="52.336206" lon="4.561775">
<ele>-0.3</ele>
<time>2026-02-13T15:24:05Z</time>
</trkpt>
<trkpt lat="52.336204" lon="4.561769">
<ele>-0.3</ele>
<time>2026-02-13T15:24:06Z</time>
</trkpt>
<trkpt lat="52.336201" lon="4.561761">
<ele>-0.3</ele>
<time>2026-02-13T15:24:06Z</time>
</trkpt>
<trkpt lat="52.336196" lon="4.561743">
<ele>-0.3</ele>
<time>2026-02-13T15:24:08Z</time>
</trkpt>
<trkpt lat="52.336194" lon="4.561734">
<ele>-0.5</ele>
<time>2026-02-13T15:24:08Z</time>
</trkpt>
<trkpt lat="52.336193" lon="4.561727">
<ele>-0.6</ele>
<time>2026-02-13T15:24:09Z</time>
</trkpt>
<trkpt lat="52.336190" lon="4.561718">
<ele>-0.6</ele>
<time>2026-02-13T15:24:09Z</time>
</trkpt>
<trkpt lat="52.336189" lon="4.561710">
<ele>-0.7</ele>
<time>2026-02-13T15:24:10Z</time>
</trkpt>
<trkpt lat="52.336188" lon="4.561704">
<ele>-0.8</ele>
<time>2026-02-13T15:24:11Z</time>
</trkpt>
<trkpt lat="52.336184" lon="4.561693">
<ele>-0.8</ele>
<time>2026-02-13T15:24:11Z</time>
</trkpt>
<trkpt lat="52.336183" lon="4.561688">
<ele>-0.8</ele>
<time>2026-02-13T15:24:12Z</time>
</trkpt>
<trkpt lat="52.336178" lon="4.561673">
<ele>-0.8</ele>
<time>2026-02-13T15:24:13Z</time>
</trkpt>
<trkpt lat="52.336175" lon="4.561663">
<ele>-0.8</ele>
<time>2026-02-13T15:24:14Z</time>
</trkpt>
<trkpt lat="52.336171" lon="4.561651">
<ele>-0.8</ele>
<time>2026-02-13T15:24:14Z</time>
</trkpt>
<trkpt lat="52.336170" lon="4.561645">
<ele>-0.8</ele>
<time>2026-02-13T15:24:15Z</time>
</trkpt>
<trkpt lat="52.336167" lon="4.561634">
<ele>-0.9</ele>
<time>2026-02-13T15:24:16Z</time>
</trkpt>
<trkpt lat="52.336162" lon="4.561620">
<ele>-0.9</ele>
<time>2026-02-13T15:24:17Z</time>
</trkpt>
<trkpt lat="52.336155" lon="4.561605">
<ele>-0.9</ele>
<time>2026-02-13T15:24:18Z</time>
</trkpt>
<trkpt lat="52.336152" lon="4.561597">
<ele>-0.9</ele>
<time>2026-02-13T15:24:18Z</time>
</trkpt>
<trkpt lat="52.336149" lon="4.561591">
<ele>-0.8</ele>
<time>2026-02-13T15:24:19Z</time>
</trkpt>
<trkpt lat="52.336145" lon="4.561582">
<ele>-0.8</ele>
<time>2026-02-13T15:24:19Z</time>
</trkpt>
<trkpt lat="52.336140" lon="4.561572">
<ele>-0.8</ele>
<time>2026-02-13T15:24:20Z</time>
</trkpt>
<trkpt lat="52.336136" lon="4.561563">
<ele>-0.8</ele>
<time>2026-02-13T15:24:20Z</time>
</trkpt>
<trkpt lat="52.336132" lon="4.561553">
<ele>-0.7</ele>
<time>2026-02-13T15:24:21Z</time>
</trkpt>
<trkpt lat="52.336128" lon="4.561544">
<ele>-0.7</ele>
<time>2026-02-13T15:24:21Z</time>
</trkpt>
<trkpt lat="52.336125" lon="4.561536">
<ele>-0.7</ele>
<time>2026-02-13T15:24:22Z</time>
</trkpt>
<trkpt lat="52.336120" lon="4.561528">
<ele>-0.7</ele>
<time>2026-02-13T15:24:23Z</time>
</trkpt>
<trkpt lat="52.336117" lon="4.561521">
<ele>-0.7</ele>
<time>2026-02-13T15:24:23Z</time>
</trkpt>
<trkpt lat="52.336114" lon="4.561514">
<ele>-0.8</ele>
<time>2026-02-13T15:24:24Z</time>
</trkpt>
<trkpt lat="52.336110" lon="4.561503">
<ele>-0.8</ele>
<time>2026-02-13T15:24:25Z</time>
</trkpt>
<trkpt lat="52.336104" lon="4.561489">
<ele>-0.9</ele>
<time>2026-02-13T15:24:26Z</time>
</trkpt>
<trkpt lat="52.336100" lon="4.561482">
<ele>-0.9</ele>
<time>2026-02-13T15:24:26Z</time>
</trkpt>
<trkpt lat="52.336094" lon="4.561472">
<ele>-1.0</ele>
<time>2026-02-13T15:24:27Z</time>
</trkpt>
<trkpt lat="52.336088" lon="4.561462">
<ele>-0.9</ele>
<time>2026-02-13T15:24:28Z</time>
</trkpt>
<trkpt lat="52.336082" lon="4.561451">
<ele>-0.9</ele>
<time>2026-02-13T15:24:29Z</time>
</trkpt>
<trkpt lat="52.336077" lon="4.561439">
<ele>-1.0</ele>
<time>2026-02-13T15:24:30Z</time>
</trkpt>
<trkpt lat="52.336071" lon="4.561427">
<ele>-1.0</ele>
<time>2026-02-13T15:24:31Z</time>
</trkpt>
<trkpt lat="52.336065" lon="4.561410">
<ele>-1.1</ele>
<time>2026-02-13T15:24:32Z</time>
</trkpt>
<trkpt lat="52.336061" lon="4.561402">
<ele>-1.1</ele>
<time>2026-02-13T15:24:32Z</time>
</trkpt>
<trkpt lat="52.336058" lon="4.561393">
<ele>-1.1</ele>
<time>2026-02-13T15:24:33Z</time>
</trkpt>
<trkpt lat="52.336055" lon="4.561384">
<ele>-1.1</ele>
<time>2026-02-13T15:24:33Z</time>
</trkpt>
<trkpt lat="52.336050" lon="4.561376">
<ele>-1.1</ele>
<time>2026-02-13T15:24:34Z</time>
</trkpt>
<trkpt lat="52.336046" lon="4.561369">
<ele>-1.1</ele>
<time>2026-02-13T15:24:34Z</time>
</trkpt>
<trkpt lat="52.336041" lon="4.561361">
<ele>-1.1</ele>
<time>2026-02-13T15:24:35Z</time>
</trkpt>
<trkpt lat="52.336037" lon="4.561353">
<ele>-1.3</ele>
<time>2026-02-13T15:24:35Z</time>
</trkpt>
<trkpt lat="52.336031" lon="4.561344">
<ele>-1.3</ele>
<time>2026-02-13T15:24:36Z</time>
</trkpt>
<trkpt lat="52.336027" lon="4.561336">
<ele>-1.4</ele>
<time>2026-02-13T15:24:36Z</time>
</trkpt>
<trkpt lat="52.336021" lon="4.561325">
<ele>-1.4</ele>
<time>2026-02-13T15:24:37Z</time>
</trkpt>
<trkpt lat="52.336014" lon="4.561314">
<ele>-1.3</ele>
<time>2026-02-13T15:24:38Z</time>
</trkpt>
<trkpt lat="52.336008" lon="4.561307">
<ele>-1.3</ele>
<time>2026-02-13T15:24:38Z</time>
</trkpt>
<trkpt lat="52.336003" lon="4.561301">
<ele>-1.2</ele>
<time>2026-02-13T15:24:39Z</time>
</trkpt>
<trkpt lat="52.335998" lon="4.561295">
<ele>-1.2</ele>
<time>2026-02-13T15:24:39Z</time>
</trkpt>
<trkpt lat="52.335992" lon="4.561287">
<ele>-1.1</ele>
<time>2026-02-13T15:24:40Z</time>
</trkpt>
<trkpt lat="52.335986" lon="4.561275">
<ele>-1.1</ele>
<time>2026-02-13T15:24:41Z</time>
</trkpt>
<trkpt lat="52.335975" lon="4.561256">
<ele>-1.1</ele>
<time>2026-02-13T15:24:41Z</time>
</trkpt>
<trkpt lat="52.335973" lon="4.561253">
<ele>-1.2</ele>
<time>2026-02-13T15:24:42Z</time>
</trkpt>
<trkpt lat="52.335964" lon="4.561240">
<ele>-1.1</ele>
<time>2026-02-13T15:24:43Z</time>
</trkpt>
<trkpt lat="52.335955" lon="4.561226">
<ele>-0.9</ele>
<time>2026-02-13T15:24:44Z</time>
</trkpt>
<trkpt lat="52.335951" lon="4.561215">
<ele>-1.0</ele>
<time>2026-02-13T15:24:44Z</time>
</trkpt>
<trkpt lat="52.335948" lon="4.561206">
<ele>-1.0</ele>
<time>2026-02-13T15:24:45Z</time>
</trkpt>
<trkpt lat="52.335944" lon="4.561198">
<ele>-1.0</ele>
<time>2026-02-13T15:24:45Z</time>
</trkpt>
<trkpt lat="52.335939" lon="4.561187">
<ele>-1.0</ele>
<time>2026-02-13T15:24:46Z</time>
</trkpt>
<trkpt lat="52.335934" lon="4.561174">
<ele>-0.8</ele>
<time>2026-02-13T15:24:47Z</time>
</trkpt>
<trkpt lat="52.335928" lon="4.561154">
<ele>-0.8</ele>
<time>2026-02-13T15:24:48Z</time>
</trkpt>
<trkpt lat="52.335926" lon="4.561143">
<ele>-0.8</ele>
<time>2026-02-13T15:24:48Z</time>
</trkpt>
<trkpt lat="52.335922" lon="4.561132">
<ele>-0.8</ele>
<time>2026-02-13T15:24:49Z</time>
</trkpt>
<trkpt lat="52.335919" lon="4.561121">
<ele>-0.8</ele>
<time>2026-02-13T15:24:49Z</time>
</trkpt>
<trkpt lat="52.335916" lon="4.561111">
<ele>-0.8</ele>
<time>2026-02-13T15:24:49Z</time>
</trkpt>
<trkpt lat="52.335914" lon="4.561099">
<ele>-0.9</ele>
<time>2026-02-13T15:24:50Z</time>
</trkpt>
<trkpt lat="52.335911" lon="4.561088">
<ele>-0.9</ele>
<time>2026-02-13T15:24:50Z</time>
</trkpt>
<trkpt lat="52.335904" lon="4.561068">
<ele>-0.8</ele>
<time>2026-02-13T15:24:51Z</time>
</trkpt>
<trkpt lat="52.335901" lon="4.561057">
<ele>-0.8</ele>
<time>2026-02-13T15:24:52Z</time>
</trkpt>
<trkpt lat="52.335897" lon="4.561046">
<ele>-0.9</ele>
<time>2026-02-13T15:24:53Z</time>
</trkpt>
<trkpt lat="52.335890" lon="4.561027">
<ele>-0.9</ele>
<time>2026-02-13T15:24:53Z</time>
</trkpt>
<trkpt lat="52.335884" lon="4.561007">
<ele>-1.0</ele>
<time>2026-02-13T15:24:54Z</time>
</trkpt>
<trkpt lat="52.335883" lon="4.561002">
<ele>-1.0</ele>
<time>2026-02-13T15:24:55Z</time>
</trkpt>
<trkpt lat="52.335879" lon="4.560991">
<ele>-1.0</ele>
<time>2026-02-13T15:24:55Z</time>
</trkpt>
<trkpt lat="52.335873" lon="4.560974">
<ele>-1.0</ele>
<time>2026-02-13T15:24:56Z</time>
</trkpt>
<trkpt lat="52.335867" lon="4.560966">
<ele>-1.0</ele>
<time>2026-02-13T15:24:57Z</time>
</trkpt>
<trkpt lat="52.335859" lon="4.560949">
<ele>-1.1</ele>
<time>2026-02-13T15:24:57Z</time>
</trkpt>
<trkpt lat="52.335857" lon="4.560937">
<ele>-0.8</ele>
<time>2026-02-13T15:24:58Z</time>
</trkpt>
<trkpt lat="52.335853" lon="4.560927">
<ele>-0.8</ele>
<time>2026-02-13T15:24:58Z</time>
</trkpt>
<trkpt lat="52.335850" lon="4.560914">
<ele>-0.8</ele>
<time>2026-02-13T15:24:59Z</time>
</trkpt>
<trkpt lat="52.335845" lon="4.560904">
<ele>-0.8</ele>
<time>2026-02-13T15:24:59Z</time>
</trkpt>
<trkpt lat="52.335840" lon="4.560890">
<ele>-0.8</ele>
<time>2026-02-13T15:25:00Z</time>
</trkpt>
<trkpt lat="52.335832" lon="4.560871">
<ele>-0.9</ele>
<time>2026-02-13T15:25:01Z</time>
</trkpt>
<trkpt lat="52.335827" lon="4.560862">
<ele>-0.9</ele>
<time>2026-02-13T15:25:02Z</time>
</trkpt>
<trkpt lat="52.335823" lon="4.560853">
<ele>-1.0</ele>
<time>2026-02-13T15:25:02Z</time>
</trkpt>
<trkpt lat="52.335818" lon="4.560844">
<ele>-1.0</ele>
<time>2026-02-13T15:25:03Z</time>
</trkpt>
<trkpt lat="52.335813" lon="4.560831">
<ele>-0.8</ele>
<time>2026-02-13T15:25:03Z</time>
</trkpt>
<trkpt lat="52.335809" lon="4.560822">
<ele>-0.9</ele>
<time>2026-02-13T15:25:04Z</time>
</trkpt>
<trkpt lat="52.335806" lon="4.560813">
<ele>-0.9</ele>
<time>2026-02-13T15:25:04Z</time>
</trkpt>
<trkpt lat="52.335801" lon="4.560803">
<ele>-0.9</ele>
<time>2026-02-13T15:25:05Z</time>
</trkpt>
<trkpt lat="52.335797" lon="4.560793">
<ele>-0.8</ele>
<time>2026-02-13T15:25:05Z</time>
</trkpt>
<trkpt lat="52.335792" lon="4.560785">
<ele>-0.8</ele>
<time>2026-02-13T15:25:06Z</time>
</trkpt>
<trkpt lat="52.335789" lon="4.560777">
<ele>-0.9</ele>
<time>2026-02-13T15:25:06Z</time>
</trkpt>
<trkpt lat="52.335784" lon="4.560768">
<ele>-0.9</ele>
<time>2026-02-13T15:25:07Z</time>
</trkpt>
<trkpt lat="52.335780" lon="4.560759">
<ele>-1.0</ele>
<time>2026-02-13T15:25:07Z</time>
</trkpt>
<trkpt lat="52.335768" lon="4.560734">
<ele>-1.0</ele>
<time>2026-02-13T15:25:09Z</time>
</trkpt>
<trkpt lat="52.335764" lon="4.560723">
<ele>-0.9</ele>
<time>2026-02-13T15:25:09Z</time>
</trkpt>
<trkpt lat="52.335760" lon="4.560714">
<ele>-1.0</ele>
<time>2026-02-13T15:25:10Z</time>
</trkpt>
<trkpt lat="52.335756" lon="4.560705">
<ele>-1.0</ele>
<time>2026-02-13T15:25:10Z</time>
</trkpt>
<trkpt lat="52.335752" lon="4.560695">
<ele>-1.0</ele>
<time>2026-02-13T15:25:11Z</time>
</trkpt>
<trkpt lat="52.335749" lon="4.560686">
<ele>-1.0</ele>
<time>2026-02-13T15:25:11Z</time>
</trkpt>
<trkpt lat="52.335744" lon="4.560676">
<ele>-1.0</ele>
<time>2026-02-13T15:25:12Z</time>
</trkpt>
<trkpt lat="52.335741" lon="4.560666">
<ele>-1.0</ele>
<time>2026-02-13T15:25:12Z</time>
</trkpt>
<trkpt lat="52.335737" lon="4.560656">
<ele>-1.0</ele>
<time>2026-02-13T15:25:13Z</time>
</trkpt>
<trkpt lat="52.335733" lon="4.560644">
<ele>-1.0</ele>
<time>2026-02-13T15:25:13Z</time>
</trkpt>
<trkpt lat="52.335730" lon="4.560634">
<ele>-1.0</ele>
<time>2026-02-13T15:25:14Z</time>
</trkpt>
<trkpt lat="52.335727" lon="4.560623">
<ele>-0.9</ele>
<time>2026-02-13T15:25:14Z</time>
</trkpt>
<trkpt lat="52.335722" lon="4.560609">
<ele>-0.9</ele>
<time>2026-02-13T15:25:15Z</time>
</trkpt>
<trkpt lat="52.335718" lon="4.560593">
<ele>-0.9</ele>
<time>2026-02-13T15:25:16Z</time>
</trkpt>
<trkpt lat="52.335716" lon="4.560580">
<ele>-0.9</ele>
<time>2026-02-13T15:25:16Z</time>
</trkpt>
<trkpt lat="52.335713" lon="4.560569">
<ele>-0.8</ele>
<time>2026-02-13T15:25:17Z</time>
</trkpt>
<trkpt lat="52.335710" lon="4.560557">
<ele>-0.8</ele>
<time>2026-02-13T15:25:17Z</time>
</trkpt>
<trkpt lat="52.335706" lon="4.560547">
<ele>-0.9</ele>
<time>2026-02-13T15:25:18Z</time>
</trkpt>
<trkpt lat="52.335703" lon="4.560535">
<ele>-0.9</ele>
<time>2026-02-13T15:25:18Z</time>
</trkpt>
<trkpt lat="52.335700" lon="4.560526">
<ele>-0.6</ele>
<time>2026-02-13T15:25:19Z</time>
</trkpt>
<trkpt lat="52.335696" lon="4.560513">
<ele>-0.6</ele>
<time>2026-02-13T15:25:19Z</time>
</trkpt>
<trkpt lat="52.335689" lon="4.560494">
<ele>-0.3</ele>
<time>2026-02-13T15:25:20Z</time>
</trkpt>
<trkpt lat="52.335685" lon="4.560486">
<ele>-0.3</ele>
<time>2026-02-13T15:25:21Z</time>
</trkpt>
<trkpt lat="52.335681" lon="4.560474">
<ele>-0.3</ele>
<time>2026-02-13T15:25:21Z</time>
</trkpt>
<trkpt lat="52.335674" lon="4.560457">
<ele>-0.2</ele>
<time>2026-02-13T15:25:22Z</time>
</trkpt>
<trkpt lat="52.335670" lon="4.560449">
<ele>-0.3</ele>
<time>2026-02-13T15:25:23Z</time>
</trkpt>
<trkpt lat="52.335666" lon="4.560437">
<ele>-0.3</ele>
<time>2026-02-13T15:25:23Z</time>
</trkpt>
<trkpt lat="52.335659" lon="4.560419">
<ele>-0.2</ele>
<time>2026-02-13T15:25:24Z</time>
</trkpt>
<trkpt lat="52.335655" lon="4.560411">
<ele>-0.2</ele>
<time>2026-02-13T15:25:25Z</time>
</trkpt>
<trkpt lat="52.335651" lon="4.560400">
<ele>-0.2</ele>
<time>2026-02-13T15:25:25Z</time>
</trkpt>
<trkpt lat="52.335648" lon="4.560392">
<ele>0.1</ele>
<time>2026-02-13T15:25:26Z</time>
</trkpt>
<trkpt lat="52.335644" lon="4.560381">
<ele>0.1</ele>
<time>2026-02-13T15:25:26Z</time>
</trkpt>
<trkpt lat="52.335641" lon="4.560372">
<ele>0.1</ele>
<time>2026-02-13T15:25:27Z</time>
</trkpt>
<trkpt lat="52.335637" lon="4.560361">
<ele>0.1</ele>
<time>2026-02-13T15:25:27Z</time>
</trkpt>
<trkpt lat="52.335633" lon="4.560352">
<ele>0.1</ele>
<time>2026-02-13T15:25:28Z</time>
</trkpt>
<trkpt lat="52.335630" lon="4.560341">
<ele>0.1</ele>
<time>2026-02-13T15:25:28Z</time>
</trkpt>
<trkpt lat="52.335626" lon="4.560332">
<ele>0.0</ele>
<time>2026-02-13T15:25:29Z</time>
</trkpt>
<trkpt lat="52.335621" lon="4.560321">
<ele>0.0</ele>
<time>2026-02-13T15:25:29Z</time>
</trkpt>
<trkpt lat="52.335617" lon="4.560314">
<ele>0.1</ele>
<time>2026-02-13T15:25:30Z</time>
</trkpt>
<trkpt lat="52.335612" lon="4.560304">
<ele>0.1</ele>
<time>2026-02-13T15:25:30Z</time>
</trkpt>
<trkpt lat="52.335608" lon="4.560297">
<ele>0.1</ele>
<time>2026-02-13T15:25:31Z</time>
</trkpt>
<trkpt lat="52.335602" lon="4.560285">
<ele>0.1</ele>
<time>2026-02-13T15:25:31Z</time>
</trkpt>
<trkpt lat="52.335593" lon="4.560268">
<ele>0.1</ele>
<time>2026-02-13T15:25:32Z</time>
</trkpt>
<trkpt lat="52.335585" lon="4.560250">
<ele>0.1</ele>
<time>2026-02-13T15:25:33Z</time>
</trkpt>
<trkpt lat="52.335572" lon="4.560230">
<ele>-0.1</ele>
<time>2026-02-13T15:25:35Z</time>
</trkpt>
<trkpt lat="52.335564" lon="4.560220">
<ele>-0.1</ele>
<time>2026-02-13T15:25:35Z</time>
</trkpt>
<trkpt lat="52.335548" lon="4.560201">
<ele>0.1</ele>
<time>2026-02-13T15:25:37Z</time>
</trkpt>
<trkpt lat="52.335537" lon="4.560182">
<ele>0.1</ele>
<time>2026-02-13T15:25:38Z</time>
</trkpt>
<trkpt lat="52.335532" lon="4.560171">
<ele>0.1</ele>
<time>2026-02-13T15:25:38Z</time>
</trkpt>
<trkpt lat="52.335524" lon="4.560153">
<ele>0.2</ele>
<time>2026-02-13T15:25:39Z</time>
</trkpt>
<trkpt lat="52.335518" lon="4.560142">
<ele>0.1</ele>
<time>2026-02-13T15:25:40Z</time>
</trkpt>
<trkpt lat="52.335510" lon="4.560131">
<ele>0.3</ele>
<time>2026-02-13T15:25:41Z</time>
</trkpt>
<trkpt lat="52.335500" lon="4.560117">
<ele>0.3</ele>
<time>2026-02-13T15:25:42Z</time>
</trkpt>
<trkpt lat="52.335491" lon="4.560103">
<ele>0.3</ele>
<time>2026-02-13T15:25:43Z</time>
</trkpt>
<trkpt lat="52.335487" lon="4.560095">
<ele>0.3</ele>
<time>2026-02-13T15:25:43Z</time>
</trkpt>
<trkpt lat="52.335480" lon="4.560079">
<ele>0.1</ele>
<time>2026-02-13T15:25:44Z</time>
</trkpt>
<trkpt lat="52.335475" lon="4.560068">
<ele>0.1</ele>
<time>2026-02-13T15:25:44Z</time>
</trkpt>
<trkpt lat="52.335466" lon="4.560049">
<ele>-0.1</ele>
<time>2026-02-13T15:25:46Z</time>
</trkpt>
<trkpt lat="52.335456" lon="4.560034">
<ele>-0.3</ele>
<time>2026-02-13T15:25:47Z</time>
</trkpt>
<trkpt lat="52.335445" lon="4.560018">
<ele>-0.3</ele>
<time>2026-02-13T15:25:48Z</time>
</trkpt>
<trkpt lat="52.335435" lon="4.560003">
<ele>-0.4</ele>
<time>2026-02-13T15:25:48Z</time>
</trkpt>
<trkpt lat="52.335430" lon="4.559995">
<ele>-0.3</ele>
<time>2026-02-13T15:25:49Z</time>
</trkpt>
<trkpt lat="52.335424" lon="4.559986">
<ele>-0.3</ele>
<time>2026-02-13T15:25:49Z</time>
</trkpt>
<trkpt lat="52.335419" lon="4.559978">
<ele>-0.4</ele>
<time>2026-02-13T15:25:50Z</time>
</trkpt>
<trkpt lat="52.335414" lon="4.559969">
<ele>-0.4</ele>
<time>2026-02-13T15:25:50Z</time>
</trkpt>
<trkpt lat="52.335409" lon="4.559962">
<ele>-0.4</ele>
<time>2026-02-13T15:25:51Z</time>
</trkpt>
<trkpt lat="52.335403" lon="4.559953">
<ele>-0.4</ele>
<time>2026-02-13T15:25:52Z</time>
</trkpt>
<trkpt lat="52.335399" lon="4.559946">
<ele>-0.7</ele>
<time>2026-02-13T15:25:52Z</time>
</trkpt>
<trkpt lat="52.335393" lon="4.559938">
<ele>-0.6</ele>
<time>2026-02-13T15:25:53Z</time>
</trkpt>
<trkpt lat="52.335382" lon="4.559923">
<ele>-0.6</ele>
<time>2026-02-13T15:25:54Z</time>
</trkpt>
<trkpt lat="52.335376" lon="4.559917">
<ele>-0.8</ele>
<time>2026-02-13T15:25:54Z</time>
</trkpt>
<trkpt lat="52.335370" lon="4.559911">
<ele>-0.6</ele>
<time>2026-02-13T15:25:55Z</time>
</trkpt>
<trkpt lat="52.335364" lon="4.559905">
<ele>-0.6</ele>
<time>2026-02-13T15:25:55Z</time>
</trkpt>
<trkpt lat="52.335357" lon="4.559898">
<ele>-0.6</ele>
<time>2026-02-13T15:25:56Z</time>
</trkpt>
<trkpt lat="52.335351" lon="4.559892">
<ele>-0.7</ele>
<time>2026-02-13T15:25:56Z</time>
</trkpt>
<trkpt lat="52.335344" lon="4.559884">
<ele>-0.7</ele>
<time>2026-02-13T15:25:57Z</time>
</trkpt>
<trkpt lat="52.335339" lon="4.559879">
<ele>-0.5</ele>
<time>2026-02-13T15:25:57Z</time>
</trkpt>
<trkpt lat="52.335333" lon="4.559875">
<ele>-0.8</ele>
<time>2026-02-13T15:25:58Z</time>
</trkpt>
<trkpt lat="52.335327" lon="4.559869">
<ele>-0.8</ele>
<time>2026-02-13T15:25:58Z</time>
</trkpt>
<trkpt lat="52.335320" lon="4.559862">
<ele>-0.8</ele>
<time>2026-02-13T15:25:59Z</time>
</trkpt>
<trkpt lat="52.335314" lon="4.559859">
<ele>-0.8</ele>
<time>2026-02-13T15:25:59Z</time>
</trkpt>
<trkpt lat="52.335307" lon="4.559853">
<ele>-0.8</ele>
<time>2026-02-13T15:26:00Z</time>
</trkpt>
<trkpt lat="52.335302" lon="4.559848">
<ele>-0.8</ele>
<time>2026-02-13T15:26:00Z</time>
</trkpt>
<trkpt lat="52.335297" lon="4.559842">
<ele>-0.8</ele>
<time>2026-02-13T15:26:01Z</time>
</trkpt>
<trkpt lat="52.335291" lon="4.559836">
<ele>-0.8</ele>
<time>2026-02-13T15:26:01Z</time>
</trkpt>
<trkpt lat="52.335284" lon="4.559830">
<ele>-0.8</ele>
<time>2026-02-13T15:26:02Z</time>
</trkpt>
<trkpt lat="52.335278" lon="4.559825">
<ele>-0.8</ele>
<time>2026-02-13T15:26:02Z</time>
</trkpt>
<trkpt lat="52.335266" lon="4.559815">
<ele>-0.8</ele>
<time>2026-02-13T15:26:03Z</time>
</trkpt>
<trkpt lat="52.335265" lon="4.559814">
<ele>-0.8</ele>
<time>2026-02-13T15:26:03Z</time>
</trkpt>
<trkpt lat="52.335259" lon="4.559810">
<ele>-0.8</ele>
<time>2026-02-13T15:26:04Z</time>
</trkpt>
<trkpt lat="52.335253" lon="4.559804">
<ele>-0.8</ele>
<time>2026-02-13T15:26:04Z</time>
</trkpt>
<trkpt lat="52.335247" lon="4.559797">
<ele>-0.8</ele>
<time>2026-02-13T15:26:05Z</time>
</trkpt>
<trkpt lat="52.335241" lon="4.559793">
<ele>-0.8</ele>
<time>2026-02-13T15:26:05Z</time>
</trkpt>
<trkpt lat="52.335235" lon="4.559791">
<ele>-0.6</ele>
<time>2026-02-13T15:26:06Z</time>
</trkpt>
<trkpt lat="52.335227" lon="4.559788">
<ele>-0.6</ele>
<time>2026-02-13T15:26:06Z</time>
</trkpt>
<trkpt lat="52.335222" lon="4.559786">
<ele>-0.6</ele>
<time>2026-02-13T15:26:07Z</time>
</trkpt>
<trkpt lat="52.335214" lon="4.559784">
<ele>-0.6</ele>
<time>2026-02-13T15:26:07Z</time>
</trkpt>
<trkpt lat="52.335209" lon="4.559783">
<ele>-0.6</ele>
<time>2026-02-13T15:26:08Z</time>
</trkpt>
<trkpt lat="52.335201" lon="4.559780">
<ele>-0.6</ele>
<time>2026-02-13T15:26:08Z</time>
</trkpt>
<trkpt lat="52.335195" lon="4.559780">
<ele>-0.5</ele>
<time>2026-02-13T15:26:09Z</time>
</trkpt>
<trkpt lat="52.335187" lon="4.559778">
<ele>-0.5</ele>
<time>2026-02-13T15:26:09Z</time>
</trkpt>
<trkpt lat="52.335182" lon="4.559776">
<ele>-0.4</ele>
<time>2026-02-13T15:26:10Z</time>
</trkpt>
<trkpt lat="52.335173" lon="4.559773">
<ele>-0.4</ele>
<time>2026-02-13T15:26:10Z</time>
</trkpt>
<trkpt lat="52.335165" lon="4.559769">
<ele>-0.3</ele>
<time>2026-02-13T15:26:11Z</time>
</trkpt>
<trkpt lat="52.335158" lon="4.559765">
<ele>-0.3</ele>
<time>2026-02-13T15:26:11Z</time>
</trkpt>
<trkpt lat="52.335143" lon="4.559754">
<ele>-0.1</ele>
<time>2026-02-13T15:26:13Z</time>
</trkpt>
<trkpt lat="52.335134" lon="4.559742">
<ele>0.1</ele>
<time>2026-02-13T15:26:14Z</time>
</trkpt>
<trkpt lat="52.335129" lon="4.559738">
<ele>0.1</ele>
<time>2026-02-13T15:26:14Z</time>
</trkpt>
<trkpt lat="52.335130" lon="4.559727">
<ele>-0.2</ele>
<time>2026-02-13T15:26:15Z</time>
</trkpt>
<trkpt lat="52.335126" lon="4.559724">
<ele>-0.3</ele>
<time>2026-02-13T15:26:16Z</time>
</trkpt>
<trkpt lat="52.335131" lon="4.559724">
<ele>-0.1</ele>
<time>2026-02-13T15:26:17Z</time>
</trkpt>
<trkpt lat="52.335132" lon="4.559720">
<ele>-0.2</ele>
<time>2026-02-13T15:26:18Z</time>
</trkpt>
<trkpt lat="52.335132" lon="4.559721">
<ele>-0.2</ele>
<time>2026-02-13T15:26:18Z</time>
</trkpt>
<trkpt lat="52.335133" lon="4.559717">
<ele>0.1</ele>
<time>2026-02-13T15:26:20Z</time>
</trkpt>
<trkpt lat="52.335133" lon="4.559718">
<ele>0.3</ele>
<time>2026-02-13T15:26:21Z</time>
</trkpt>
<trkpt lat="52.335132" lon="4.559719">
<ele>0.1</ele>
<time>2026-02-13T15:26:22Z</time>
</trkpt>
<trkpt lat="52.335131" lon="4.559719">
<ele>0.0</ele>
<time>2026-02-13T15:26:23Z</time>
</trkpt>
<trkpt lat="52.335130" lon="4.559720">
<ele>-0.2</ele>
<time>2026-02-13T15:26:24Z</time>
</trkpt>
<trkpt lat="52.335130" lon="4.559720">
<ele>-0.2</ele>
<time>2026-02-13T15:26:25Z</time>
</trkpt>
<trkpt lat="52.335130" lon="4.559722">
<ele>-0.1</ele>
<time>2026-02-13T15:26:26Z</time>
</trkpt>
<trkpt lat="52.335130" lon="4.559723">
<ele>0.0</ele>
<time>2026-02-13T15:26:27Z</time>
</trkpt>
<trkpt lat="52.335130" lon="4.559723">
<ele>0.0</ele>
<time>2026-02-13T15:26:28Z</time>
</trkpt>
<trkpt lat="52.335129" lon="4.559723">
<ele>0.2</ele>
<time>2026-02-13T15:26:29Z</time>
</trkpt>
<trkpt lat="52.335129" lon="4.559723">
<ele>0.0</ele>
<time>2026-02-13T15:26:30Z</time>
</trkpt>
<trkpt lat="52.335128" lon="4.559724">
<ele>0.0</ele>
<time>2026-02-13T15:26:30Z</time>
</trkpt>
<trkpt lat="52.335127" lon="4.559723">
<ele>-0.2</ele>
<time>2026-02-13T15:26:31Z</time>
</trkpt>
<trkpt lat="52.335124" lon="4.559716">
<ele>-0.1</ele>
<time>2026-02-13T15:26:32Z</time>
</trkpt>
<trkpt lat="52.335121" lon="4.559712">
<ele>-0.1</ele>
<time>2026-02-13T15:26:32Z</time>
</trkpt>
<trkpt lat="52.335105" lon="4.559705">
<ele>0.0</ele>
<time>2026-02-13T15:26:33Z</time>
</trkpt>
<trkpt lat="52.335088" lon="4.559701">
<ele>0.0</ele>
<time>2026-02-13T15:26:33Z</time>
</trkpt>
<trkpt lat="52.335084" lon="4.559698">
<ele>0.0</ele>
<time>2026-02-13T15:26:34Z</time>
</trkpt>
<trkpt lat="52.335076" lon="4.559695">
<ele>0.0</ele>
<time>2026-02-13T15:26:34Z</time>
</trkpt>
<trkpt lat="52.335059" lon="4.559682">
<ele>-0.4</ele>
<time>2026-02-13T15:26:36Z</time>
</trkpt>
<trkpt lat="52.335048" lon="4.559676">
<ele>-0.4</ele>
<time>2026-02-13T15:26:36Z</time>
</trkpt>
<trkpt lat="52.335037" lon="4.559662">
<ele>-0.5</ele>
<time>2026-02-13T15:26:37Z</time>
</trkpt>
<trkpt lat="52.335026" lon="4.559632">
<ele>-0.6</ele>
<time>2026-02-13T15:26:39Z</time>
</trkpt>
<trkpt lat="52.335019" lon="4.559621">
<ele>-0.6</ele>
<time>2026-02-13T15:26:39Z</time>
</trkpt>
<trkpt lat="52.335016" lon="4.559611">
<ele>-0.5</ele>
<time>2026-02-13T15:26:40Z</time>
</trkpt>
<trkpt lat="52.335010" lon="4.559604">
<ele>-0.5</ele>
<time>2026-02-13T15:26:40Z</time>
</trkpt>
<trkpt lat="52.335006" lon="4.559592">
<ele>-0.6</ele>
<time>2026-02-13T15:26:41Z</time>
</trkpt>
<trkpt lat="52.335002" lon="4.559585">
<ele>-0.6</ele>
<time>2026-02-13T15:26:41Z</time>
</trkpt>
<trkpt lat="52.335000" lon="4.559576">
<ele>-0.5</ele>
<time>2026-02-13T15:26:42Z</time>
</trkpt>
<trkpt lat="52.334994" lon="4.559568">
<ele>-0.5</ele>
<time>2026-02-13T15:26:42Z</time>
</trkpt>
<trkpt lat="52.334986" lon="4.559548">
<ele>-0.5</ele>
<time>2026-02-13T15:26:43Z</time>
</trkpt>
<trkpt lat="52.334984" lon="4.559537">
<ele>-0.1</ele>
<time>2026-02-13T15:26:44Z</time>
</trkpt>
<trkpt lat="52.334978" lon="4.559527">
<ele>-0.1</ele>
<time>2026-02-13T15:26:44Z</time>
</trkpt>
<trkpt lat="52.334975" lon="4.559518">
<ele>-0.3</ele>
<time>2026-02-13T15:26:45Z</time>
</trkpt>
<trkpt lat="52.334971" lon="4.559509">
<ele>-0.3</ele>
<time>2026-02-13T15:26:45Z</time>
</trkpt>
<trkpt lat="52.334967" lon="4.559498">
<ele>-0.5</ele>
<time>2026-02-13T15:26:46Z</time>
</trkpt>
<trkpt lat="52.334958" lon="4.559482">
<ele>-0.6</ele>
<time>2026-02-13T15:26:47Z</time>
</trkpt>
<trkpt lat="52.334952" lon="4.559471">
<ele>-0.6</ele>
<time>2026-02-13T15:26:47Z</time>
</trkpt>
<trkpt lat="52.334946" lon="4.559459">
<ele>-0.5</ele>
<time>2026-02-13T15:26:48Z</time>
</trkpt>
<trkpt lat="52.334942" lon="4.559452">
<ele>-0.5</ele>
<time>2026-02-13T15:26:48Z</time>
</trkpt>
<trkpt lat="52.334937" lon="4.559445">
<ele>-0.5</ele>
<time>2026-02-13T15:26:49Z</time>
</trkpt>
<trkpt lat="52.334931" lon="4.559436">
<ele>-0.5</ele>
<time>2026-02-13T15:26:49Z</time>
</trkpt>
<trkpt lat="52.334926" lon="4.559427">
<ele>-0.5</ele>
<time>2026-02-13T15:26:50Z</time>
</trkpt>
<trkpt lat="52.334918" lon="4.559416">
<ele>-0.4</ele>
<time>2026-02-13T15:26:50Z</time>
</trkpt>
<trkpt lat="52.334909" lon="4.559403">
<ele>-0.6</ele>
<time>2026-02-13T15:26:51Z</time>
</trkpt>
<trkpt lat="52.334898" lon="4.559387">
<ele>-0.7</ele>
<time>2026-02-13T15:26:52Z</time>
</trkpt>
<trkpt lat="52.334893" lon="4.559378">
<ele>-0.7</ele>
<time>2026-02-13T15:26:53Z</time>
</trkpt>
<trkpt lat="52.334889" lon="4.559370">
<ele>-0.5</ele>
<time>2026-02-13T15:26:53Z</time>
</trkpt>
<trkpt lat="52.334884" lon="4.559361">
<ele>-0.5</ele>
<time>2026-02-13T15:26:54Z</time>
</trkpt>
<trkpt lat="52.334880" lon="4.559352">
<ele>-0.4</ele>
<time>2026-02-13T15:26:54Z</time>
</trkpt>
<trkpt lat="52.334875" lon="4.559342">
<ele>-0.4</ele>
<time>2026-02-13T15:26:55Z</time>
</trkpt>
<trkpt lat="52.334866" lon="4.559324">
<ele>-0.5</ele>
<time>2026-02-13T15:26:55Z</time>
</trkpt>
<trkpt lat="52.334860" lon="4.559314">
<ele>-0.4</ele>
<time>2026-02-13T15:26:56Z</time>
</trkpt>
<trkpt lat="52.334855" lon="4.559306">
<ele>-0.4</ele>
<time>2026-02-13T15:26:57Z</time>
</trkpt>
<trkpt lat="52.334849" lon="4.559297">
<ele>-0.4</ele>
<time>2026-02-13T15:26:57Z</time>
</trkpt>
<trkpt lat="52.334838" lon="4.559280">
<ele>-0.5</ele>
<time>2026-02-13T15:26:58Z</time>
</trkpt>
<trkpt lat="52.334825" lon="4.559262">
<ele>-0.7</ele>
<time>2026-02-13T15:26:59Z</time>
</trkpt>
<trkpt lat="52.334814" lon="4.559244">
<ele>-0.7</ele>
<time>2026-02-13T15:27:00Z</time>
</trkpt>
<trkpt lat="52.334805" lon="4.559228">
<ele>-0.4</ele>
<time>2026-02-13T15:27:01Z</time>
</trkpt>
<trkpt lat="52.334799" lon="4.559217">
<ele>-0.9</ele>
<time>2026-02-13T15:27:02Z</time>
</trkpt>
<trkpt lat="52.334789" lon="4.559199">
<ele>-0.9</ele>
<time>2026-02-13T15:27:03Z</time>
</trkpt>
<trkpt lat="52.334784" lon="4.559192">
<ele>-1.1</ele>
<time>2026-02-13T15:27:03Z</time>
</trkpt>
<trkpt lat="52.334774" lon="4.559177">
<ele>-0.9</ele>
<time>2026-02-13T15:27:04Z</time>
</trkpt>
<trkpt lat="52.334769" lon="4.559169">
<ele>-0.9</ele>
<time>2026-02-13T15:27:05Z</time>
</trkpt>
<trkpt lat="52.334763" lon="4.559160">
<ele>-1.0</ele>
<time>2026-02-13T15:27:05Z</time>
</trkpt>
<trkpt lat="52.334751" lon="4.559142">
<ele>-1.1</ele>
<time>2026-02-13T15:27:06Z</time>
</trkpt>
<trkpt lat="52.334737" lon="4.559121">
<ele>-1.1</ele>
<time>2026-02-13T15:27:08Z</time>
</trkpt>
<trkpt lat="52.334730" lon="4.559112">
<ele>-1.0</ele>
<time>2026-02-13T15:27:08Z</time>
</trkpt>
<trkpt lat="52.334724" lon="4.559103">
<ele>-1.0</ele>
<time>2026-02-13T15:27:09Z</time>
</trkpt>
<trkpt lat="52.334718" lon="4.559096">
<ele>-1.0</ele>
<time>2026-02-13T15:27:09Z</time>
</trkpt>
<trkpt lat="52.334707" lon="4.559082">
<ele>-1.0</ele>
<time>2026-02-13T15:27:10Z</time>
</trkpt>
<trkpt lat="52.334704" lon="4.559079">
<ele>-0.9</ele>
<time>2026-02-13T15:27:10Z</time>
</trkpt>
<trkpt lat="52.334699" lon="4.559073">
<ele>-0.8</ele>
<time>2026-02-13T15:27:11Z</time>
</trkpt>
<trkpt lat="52.334693" lon="4.559066">
<ele>-0.8</ele>
<time>2026-02-13T15:27:11Z</time>
</trkpt>
<trkpt lat="52.334687" lon="4.559057">
<ele>-0.8</ele>
<time>2026-02-13T15:27:12Z</time>
</trkpt>
<trkpt lat="52.334676" lon="4.559040">
<ele>-0.6</ele>
<time>2026-02-13T15:27:13Z</time>
</trkpt>
<trkpt lat="52.334669" lon="4.559028">
<ele>-1.1</ele>
<time>2026-02-13T15:27:13Z</time>
</trkpt>
<trkpt lat="52.334658" lon="4.559010">
<ele>-0.8</ele>
<time>2026-02-13T15:27:14Z</time>
</trkpt>
<trkpt lat="52.334649" lon="4.558993">
<ele>-1.0</ele>
<time>2026-02-13T15:27:15Z</time>
</trkpt>
<trkpt lat="52.334643" lon="4.558984">
<ele>-0.9</ele>
<time>2026-02-13T15:27:16Z</time>
</trkpt>
<trkpt lat="52.334634" lon="4.558968">
<ele>-0.9</ele>
<time>2026-02-13T15:27:16Z</time>
</trkpt>
<trkpt lat="52.334628" lon="4.558960">
<ele>-0.9</ele>
<time>2026-02-13T15:27:17Z</time>
</trkpt>
<trkpt lat="52.334623" lon="4.558952">
<ele>-0.9</ele>
<time>2026-02-13T15:27:17Z</time>
</trkpt>
<trkpt lat="52.334617" lon="4.558945">
<ele>-1.0</ele>
<time>2026-02-13T15:27:18Z</time>
</trkpt>
<trkpt lat="52.334610" lon="4.558938">
<ele>-1.0</ele>
<time>2026-02-13T15:27:19Z</time>
</trkpt>
<trkpt lat="52.334603" lon="4.558930">
<ele>-1.0</ele>
<time>2026-02-13T15:27:19Z</time>
</trkpt>
<trkpt lat="52.334592" lon="4.558915">
<ele>-1.0</ele>
<time>2026-02-13T15:27:20Z</time>
</trkpt>
<trkpt lat="52.334585" lon="4.558906">
<ele>-1.0</ele>
<time>2026-02-13T15:27:21Z</time>
</trkpt>
<trkpt lat="52.334578" lon="4.558898">
<ele>-1.0</ele>
<time>2026-02-13T15:27:21Z</time>
</trkpt>
<trkpt lat="52.334572" lon="4.558889">
<ele>-1.1</ele>
<time>2026-02-13T15:27:22Z</time>
</trkpt>
<trkpt lat="52.334561" lon="4.558875">
<ele>-1.1</ele>
<time>2026-02-13T15:27:22Z</time>
</trkpt>
<trkpt lat="52.334555" lon="4.558865">
<ele>-1.1</ele>
<time>2026-02-13T15:27:23Z</time>
</trkpt>
<trkpt lat="52.334548" lon="4.558858">
<ele>-1.1</ele>
<time>2026-02-13T15:27:23Z</time>
</trkpt>
<trkpt lat="52.334543" lon="4.558848">
<ele>-1.1</ele>
<time>2026-02-13T15:27:24Z</time>
</trkpt>
<trkpt lat="52.334537" lon="4.558841">
<ele>-1.1</ele>
<time>2026-02-13T15:27:24Z</time>
</trkpt>
<trkpt lat="52.334532" lon="4.558833">
<ele>-1.1</ele>
<time>2026-02-13T15:27:25Z</time>
</trkpt>
<trkpt lat="52.334525" lon="4.558827">
<ele>-1.1</ele>
<time>2026-02-13T15:27:25Z</time>
</trkpt>
<trkpt lat="52.334518" lon="4.558818">
<ele>-1.2</ele>
<time>2026-02-13T15:27:26Z</time>
</trkpt>
<trkpt lat="52.334512" lon="4.558809">
<ele>-1.1</ele>
<time>2026-02-13T15:27:27Z</time>
</trkpt>
<trkpt lat="52.334501" lon="4.558796">
<ele>-1.1</ele>
<time>2026-02-13T15:27:27Z</time>
</trkpt>
<trkpt lat="52.334496" lon="4.558785">
<ele>-1.1</ele>
<time>2026-02-13T15:27:28Z</time>
</trkpt>
<trkpt lat="52.334489" lon="4.558776">
<ele>-1.3</ele>
<time>2026-02-13T15:27:29Z</time>
</trkpt>
<trkpt lat="52.334479" lon="4.558762">
<ele>-1.3</ele>
<time>2026-02-13T15:27:29Z</time>
</trkpt>
<trkpt lat="52.334473" lon="4.558750">
<ele>-1.4</ele>
<time>2026-02-13T15:27:30Z</time>
</trkpt>
<trkpt lat="52.334467" lon="4.558741">
<ele>-1.2</ele>
<time>2026-02-13T15:27:31Z</time>
</trkpt>
<trkpt lat="52.334457" lon="4.558728">
<ele>-1.2</ele>
<time>2026-02-13T15:27:31Z</time>
</trkpt>
<trkpt lat="52.334446" lon="4.558710">
<ele>-1.3</ele>
<time>2026-02-13T15:27:32Z</time>
</trkpt>
<trkpt lat="52.334441" lon="4.558701">
<ele>-1.7</ele>
<time>2026-02-13T15:27:33Z</time>
</trkpt>
<trkpt lat="52.334435" lon="4.558694">
<ele>-1.7</ele>
<time>2026-02-13T15:27:33Z</time>
</trkpt>
<trkpt lat="52.334430" lon="4.558686">
<ele>-1.6</ele>
<time>2026-02-13T15:27:34Z</time>
</trkpt>
<trkpt lat="52.334424" lon="4.558679">
<ele>-1.6</ele>
<time>2026-02-13T15:27:34Z</time>
</trkpt>
<trkpt lat="52.334412" lon="4.558664">
<ele>-1.5</ele>
<time>2026-02-13T15:27:35Z</time>
</trkpt>
<trkpt lat="52.334407" lon="4.558656">
<ele>-1.4</ele>
<time>2026-02-13T15:27:36Z</time>
</trkpt>
<trkpt lat="52.334400" lon="4.558646">
<ele>-1.3</ele>
<time>2026-02-13T15:27:37Z</time>
</trkpt>
<trkpt lat="52.334390" lon="4.558634">
<ele>-1.3</ele>
<time>2026-02-13T15:27:37Z</time>
</trkpt>
<trkpt lat="52.334384" lon="4.558625">
<ele>-1.0</ele>
<time>2026-02-13T15:27:38Z</time>
</trkpt>
<trkpt lat="52.334377" lon="4.558616">
<ele>-1.2</ele>
<time>2026-02-13T15:27:39Z</time>
</trkpt>
<trkpt lat="52.334372" lon="4.558608">
<ele>-1.2</ele>
<time>2026-02-13T15:27:39Z</time>
</trkpt>
<trkpt lat="52.334367" lon="4.558600">
<ele>-1.2</ele>
<time>2026-02-13T15:27:40Z</time>
</trkpt>
<trkpt lat="52.334357" lon="4.558586">
<ele>-1.2</ele>
<time>2026-02-13T15:27:40Z</time>
</trkpt>
<trkpt lat="52.334346" lon="4.558569">
<ele>-1.1</ele>
<time>2026-02-13T15:27:41Z</time>
</trkpt>
<trkpt lat="52.334335" lon="4.558554">
<ele>-1.3</ele>
<time>2026-02-13T15:27:42Z</time>
</trkpt>
<trkpt lat="52.334329" lon="4.558547">
<ele>-1.3</ele>
<time>2026-02-13T15:27:43Z</time>
</trkpt>
<trkpt lat="52.334322" lon="4.558540">
<ele>-1.3</ele>
<time>2026-02-13T15:27:43Z</time>
</trkpt>
<trkpt lat="52.334317" lon="4.558533">
<ele>-1.2</ele>
<time>2026-02-13T15:27:44Z</time>
</trkpt>
<trkpt lat="52.334310" lon="4.558526">
<ele>-1.2</ele>
<time>2026-02-13T15:27:44Z</time>
</trkpt>
<trkpt lat="52.334304" lon="4.558520">
<ele>-1.2</ele>
<time>2026-02-13T15:27:45Z</time>
</trkpt>
<trkpt lat="52.334298" lon="4.558514">
<ele>-1.2</ele>
<time>2026-02-13T15:27:45Z</time>
</trkpt>
<trkpt lat="52.334292" lon="4.558508">
<ele>-1.2</ele>
<time>2026-02-13T15:27:46Z</time>
</trkpt>
<trkpt lat="52.334286" lon="4.558501">
<ele>-1.2</ele>
<time>2026-02-13T15:27:47Z</time>
</trkpt>
<trkpt lat="52.334281" lon="4.558494">
<ele>-1.3</ele>
<time>2026-02-13T15:27:47Z</time>
</trkpt>
<trkpt lat="52.334276" lon="4.558485">
<ele>-1.3</ele>
<time>2026-02-13T15:27:48Z</time>
</trkpt>
<trkpt lat="52.334267" lon="4.558468">
<ele>-1.2</ele>
<time>2026-02-13T15:27:49Z</time>
</trkpt>
<trkpt lat="52.334256" lon="4.558455">
<ele>-1.5</ele>
<time>2026-02-13T15:27:50Z</time>
</trkpt>
<trkpt lat="52.334249" lon="4.558452">
<ele>-1.4</ele>
<time>2026-02-13T15:27:50Z</time>
</trkpt>
<trkpt lat="52.334244" lon="4.558446">
<ele>-1.4</ele>
<time>2026-02-13T15:27:51Z</time>
</trkpt>
<trkpt lat="52.334230" lon="4.558436">
<ele>-1.2</ele>
<time>2026-02-13T15:27:52Z</time>
</trkpt>
<trkpt lat="52.334223" lon="4.558434">
<ele>-1.3</ele>
<time>2026-02-13T15:27:52Z</time>
</trkpt>
<trkpt lat="52.334216" lon="4.558430">
<ele>-1.3</ele>
<time>2026-02-13T15:27:53Z</time>
</trkpt>
<trkpt lat="52.334208" lon="4.558428">
<ele>-1.3</ele>
<time>2026-02-13T15:27:53Z</time>
</trkpt>
<trkpt lat="52.334201" lon="4.558425">
<ele>-1.3</ele>
<time>2026-02-13T15:27:54Z</time>
</trkpt>
<trkpt lat="52.334194" lon="4.558423">
<ele>-1.1</ele>
<time>2026-02-13T15:27:54Z</time>
</trkpt>
<trkpt lat="52.334186" lon="4.558420">
<ele>-1.1</ele>
<time>2026-02-13T15:27:55Z</time>
</trkpt>
<trkpt lat="52.334178" lon="4.558418">
<ele>-0.8</ele>
<time>2026-02-13T15:27:55Z</time>
</trkpt>
<trkpt lat="52.334161" lon="4.558416">
<ele>-1.2</ele>
<time>2026-02-13T15:27:56Z</time>
</trkpt>
<trkpt lat="52.334147" lon="4.558415">
<ele>-1.4</ele>
<time>2026-02-13T15:27:57Z</time>
</trkpt>
<trkpt lat="52.334132" lon="4.558411">
<ele>-1.4</ele>
<time>2026-02-13T15:27:58Z</time>
</trkpt>
<trkpt lat="52.334116" lon="4.558407">
<ele>-1.5</ele>
<time>2026-02-13T15:27:59Z</time>
</trkpt>
<trkpt lat="52.334102" lon="4.558400">
<ele>-1.6</ele>
<time>2026-02-13T15:28:00Z</time>
</trkpt>
<trkpt lat="52.334088" lon="4.558390">
<ele>-1.6</ele>
<time>2026-02-13T15:28:01Z</time>
</trkpt>
<trkpt lat="52.334073" lon="4.558375">
<ele>-1.5</ele>
<time>2026-02-13T15:28:03Z</time>
</trkpt>
<trkpt lat="52.334063" lon="4.558365">
<ele>-1.5</ele>
<time>2026-02-13T15:28:03Z</time>
</trkpt>
<trkpt lat="52.334051" lon="4.558350">
<ele>-1.3</ele>
<time>2026-02-13T15:28:05Z</time>
</trkpt>
<trkpt lat="52.334040" lon="4.558336">
<ele>-1.4</ele>
<time>2026-02-13T15:28:06Z</time>
</trkpt>
<trkpt lat="52.334033" lon="4.558326">
<ele>-1.4</ele>
<time>2026-02-13T15:28:06Z</time>
</trkpt>
<trkpt lat="52.334023" lon="4.558312">
<ele>-1.6</ele>
<time>2026-02-13T15:28:07Z</time>
</trkpt>
<trkpt lat="52.334020" lon="4.558305">
<ele>-1.7</ele>
<time>2026-02-13T15:28:08Z</time>
</trkpt>
<trkpt lat="52.334014" lon="4.558297">
<ele>-1.7</ele>
<time>2026-02-13T15:28:08Z</time>
</trkpt>
<trkpt lat="52.334010" lon="4.558291">
<ele>-1.9</ele>
<time>2026-02-13T15:28:09Z</time>
</trkpt>
<trkpt lat="52.334002" lon="4.558281">
<ele>-1.9</ele>
<time>2026-02-13T15:28:09Z</time>
</trkpt>
<trkpt lat="52.333992" lon="4.558267">
<ele>-1.9</ele>
<time>2026-02-13T15:28:10Z</time>
</trkpt>
<trkpt lat="52.333986" lon="4.558259">
<ele>-2.0</ele>
<time>2026-02-13T15:28:11Z</time>
</trkpt>
<trkpt lat="52.333968" lon="4.558233">
<ele>-1.8</ele>
<time>2026-02-13T15:28:13Z</time>
</trkpt>
<trkpt lat="52.333957" lon="4.558216">
<ele>-1.8</ele>
<time>2026-02-13T15:28:14Z</time>
</trkpt>
<trkpt lat="52.333952" lon="4.558208">
<ele>-1.9</ele>
<time>2026-02-13T15:28:14Z</time>
</trkpt>
<trkpt lat="52.333949" lon="4.558203">
<ele>-1.8</ele>
<time>2026-02-13T15:28:15Z</time>
</trkpt>
<trkpt lat="52.333944" lon="4.558194">
<ele>-1.8</ele>
<time>2026-02-13T15:28:15Z</time>
</trkpt>
<trkpt lat="52.333942" lon="4.558187">
<ele>-2.0</ele>
<time>2026-02-13T15:28:16Z</time>
</trkpt>
<trkpt lat="52.333937" lon="4.558178">
<ele>-2.0</ele>
<time>2026-02-13T15:28:16Z</time>
</trkpt>
<trkpt lat="52.333930" lon="4.558161">
<ele>-2.0</ele>
<time>2026-02-13T15:28:17Z</time>
</trkpt>
<trkpt lat="52.333927" lon="4.558153">
<ele>-2.0</ele>
<time>2026-02-13T15:28:18Z</time>
</trkpt>
<trkpt lat="52.333918" lon="4.558136">
<ele>-2.0</ele>
<time>2026-02-13T15:28:19Z</time>
</trkpt>
<trkpt lat="52.333909" lon="4.558118">
<ele>-1.8</ele>
<time>2026-02-13T15:28:20Z</time>
</trkpt>
<trkpt lat="52.333900" lon="4.558101">
<ele>-2.0</ele>
<time>2026-02-13T15:28:21Z</time>
</trkpt>
<trkpt lat="52.333894" lon="4.558087">
<ele>-2.0</ele>
<time>2026-02-13T15:28:21Z</time>
</trkpt>
<trkpt lat="52.333887" lon="4.558066">
<ele>-1.9</ele>
<time>2026-02-13T15:28:22Z</time>
</trkpt>
<trkpt lat="52.333884" lon="4.558032">
<ele>-1.7</ele>
<time>2026-02-13T15:28:24Z</time>
</trkpt>
<trkpt lat="52.333883" lon="4.558020">
<ele>-1.7</ele>
<time>2026-02-13T15:28:24Z</time>
</trkpt>
<trkpt lat="52.333883" lon="4.557999">
<ele>-2.1</ele>
<time>2026-02-13T15:28:25Z</time>
</trkpt>
<trkpt lat="52.333885" lon="4.557988">
<ele>-2.2</ele>
<time>2026-02-13T15:28:26Z</time>
</trkpt>
<trkpt lat="52.333889" lon="4.557968">
<ele>-2.3</ele>
<time>2026-02-13T15:28:27Z</time>
</trkpt>
<trkpt lat="52.333895" lon="4.557955">
<ele>-2.3</ele>
<time>2026-02-13T15:28:27Z</time>
</trkpt>
<trkpt lat="52.333901" lon="4.557948">
<ele>-2.2</ele>
<time>2026-02-13T15:28:28Z</time>
</trkpt>
<trkpt lat="52.333908" lon="4.557937">
<ele>-2.2</ele>
<time>2026-02-13T15:28:28Z</time>
</trkpt>
<trkpt lat="52.333926" lon="4.557921">
<ele>-2.1</ele>
<time>2026-02-13T15:28:30Z</time>
</trkpt>
<trkpt lat="52.333938" lon="4.557909">
<ele>-2.2</ele>
<time>2026-02-13T15:28:31Z</time>
</trkpt>
<trkpt lat="52.333946" lon="4.557899">
<ele>-2.2</ele>
<time>2026-02-13T15:28:31Z</time>
</trkpt>
<trkpt lat="52.333952" lon="4.557893">
<ele>-1.9</ele>
<time>2026-02-13T15:28:32Z</time>
</trkpt>
<trkpt lat="52.333958" lon="4.557885">
<ele>-1.9</ele>
<time>2026-02-13T15:28:32Z</time>
</trkpt>
<trkpt lat="52.333964" lon="4.557879">
<ele>-1.9</ele>
<time>2026-02-13T15:28:33Z</time>
</trkpt>
<trkpt lat="52.333969" lon="4.557872">
<ele>-1.9</ele>
<time>2026-02-13T15:28:33Z</time>
</trkpt>
<trkpt lat="52.333974" lon="4.557866">
<ele>-1.9</ele>
<time>2026-02-13T15:28:34Z</time>
</trkpt>
<trkpt lat="52.333980" lon="4.557859">
<ele>-1.9</ele>
<time>2026-02-13T15:28:34Z</time>
</trkpt>
<trkpt lat="52.333984" lon="4.557851">
<ele>-1.9</ele>
<time>2026-02-13T15:28:35Z</time>
</trkpt>
<trkpt lat="52.333991" lon="4.557839">
<ele>-1.9</ele>
<time>2026-02-13T15:28:35Z</time>
</trkpt>
<trkpt lat="52.334000" lon="4.557817">
<ele>-2.1</ele>
<time>2026-02-13T15:28:37Z</time>
</trkpt>
<trkpt lat="52.334009" lon="4.557800">
<ele>-2.2</ele>
<time>2026-02-13T15:28:38Z</time>
</trkpt>
<trkpt lat="52.334015" lon="4.557786">
<ele>-2.2</ele>
<time>2026-02-13T15:28:38Z</time>
</trkpt>
<trkpt lat="52.334023" lon="4.557770">
<ele>-2.3</ele>
<time>2026-02-13T15:28:39Z</time>
</trkpt>
<trkpt lat="52.334028" lon="4.557763">
<ele>-2.3</ele>
<time>2026-02-13T15:28:40Z</time>
</trkpt>
<trkpt lat="52.334036" lon="4.557751">
<ele>-2.1</ele>
<time>2026-02-13T15:28:41Z</time>
</trkpt>
<trkpt lat="52.334047" lon="4.557735">
<ele>-2.1</ele>
<time>2026-02-13T15:28:42Z</time>
</trkpt>
<trkpt lat="52.334058" lon="4.557716">
<ele>-2.1</ele>
<time>2026-02-13T15:28:42Z</time>
</trkpt>
<trkpt lat="52.334066" lon="4.557706">
<ele>-2.2</ele>
<time>2026-02-13T15:28:43Z</time>
</trkpt>
<trkpt lat="52.334078" lon="4.557692">
<ele>-2.1</ele>
<time>2026-02-13T15:28:44Z</time>
</trkpt>
<trkpt lat="52.334095" lon="4.557676">
<ele>-2.1</ele>
<time>2026-02-13T15:28:46Z</time>
</trkpt>
<trkpt lat="52.334103" lon="4.557666">
<ele>-2.1</ele>
<time>2026-02-13T15:28:46Z</time>
</trkpt>
<trkpt lat="52.334116" lon="4.557654">
<ele>-2.1</ele>
<time>2026-02-13T15:28:47Z</time>
</trkpt>
<trkpt lat="52.334122" lon="4.557647">
<ele>-1.9</ele>
<time>2026-02-13T15:28:48Z</time>
</trkpt>
<trkpt lat="52.334129" lon="4.557638">
<ele>-1.9</ele>
<time>2026-02-13T15:28:48Z</time>
</trkpt>
<trkpt lat="52.334140" lon="4.557625">
<ele>-2.1</ele>
<time>2026-02-13T15:28:49Z</time>
</trkpt>
<trkpt lat="52.334147" lon="4.557619">
<ele>-2.1</ele>
<time>2026-02-13T15:28:50Z</time>
</trkpt>
<trkpt lat="52.334152" lon="4.557610">
<ele>-2.1</ele>
<time>2026-02-13T15:28:50Z</time>
</trkpt>
<trkpt lat="52.334159" lon="4.557606">
<ele>-1.6</ele>
<time>2026-02-13T15:28:51Z</time>
</trkpt>
<trkpt lat="52.334165" lon="4.557596">
<ele>-1.6</ele>
<time>2026-02-13T15:28:51Z</time>
</trkpt>
<trkpt lat="52.334177" lon="4.557581">
<ele>-1.6</ele>
<time>2026-02-13T15:28:52Z</time>
</trkpt>
<trkpt lat="52.334182" lon="4.557574">
<ele>-1.7</ele>
<time>2026-02-13T15:28:53Z</time>
</trkpt>
<trkpt lat="52.334187" lon="4.557564">
<ele>-1.7</ele>
<time>2026-02-13T15:28:53Z</time>
</trkpt>
<trkpt lat="52.334194" lon="4.557557">
<ele>-1.9</ele>
<time>2026-02-13T15:28:54Z</time>
</trkpt>
<trkpt lat="52.334200" lon="4.557550">
<ele>-1.9</ele>
<time>2026-02-13T15:28:54Z</time>
</trkpt>
<trkpt lat="52.334207" lon="4.557545">
<ele>-2.1</ele>
<time>2026-02-13T15:28:55Z</time>
</trkpt>
<trkpt lat="52.334213" lon="4.557536">
<ele>-2.1</ele>
<time>2026-02-13T15:28:55Z</time>
</trkpt>
<trkpt lat="52.334224" lon="4.557517">
<ele>-2.1</ele>
<time>2026-02-13T15:28:56Z</time>
</trkpt>
<trkpt lat="52.334231" lon="4.557500">
<ele>-1.8</ele>
<time>2026-02-13T15:28:57Z</time>
</trkpt>
<trkpt lat="52.334235" lon="4.557491">
<ele>-1.8</ele>
<time>2026-02-13T15:28:58Z</time>
</trkpt>
<trkpt lat="52.334240" lon="4.557480">
<ele>-1.8</ele>
<time>2026-02-13T15:28:58Z</time>
</trkpt>
<trkpt lat="52.334243" lon="4.557470">
<ele>-1.7</ele>
<time>2026-02-13T15:28:59Z</time>
</trkpt>
<trkpt lat="52.334247" lon="4.557458">
<ele>-1.7</ele>
<time>2026-02-13T15:28:59Z</time>
</trkpt>
<trkpt lat="52.334250" lon="4.557447">
<ele>-1.5</ele>
<time>2026-02-13T15:29:00Z</time>
</trkpt>
<trkpt lat="52.334254" lon="4.557434">
<ele>-1.5</ele>
<time>2026-02-13T15:29:00Z</time>
</trkpt>
<trkpt lat="52.334256" lon="4.557423">
<ele>-1.3</ele>
<time>2026-02-13T15:29:01Z</time>
</trkpt>
<trkpt lat="52.334259" lon="4.557409">
<ele>-1.3</ele>
<time>2026-02-13T15:29:01Z</time>
</trkpt>
<trkpt lat="52.334260" lon="4.557397">
<ele>-1.3</ele>
<time>2026-02-13T15:29:02Z</time>
</trkpt>
<trkpt lat="52.334263" lon="4.557385">
<ele>-1.3</ele>
<time>2026-02-13T15:29:02Z</time>
</trkpt>
<trkpt lat="52.334265" lon="4.557374">
<ele>-1.1</ele>
<time>2026-02-13T15:29:03Z</time>
</trkpt>
<trkpt lat="52.334268" lon="4.557357">
<ele>-1.1</ele>
<time>2026-02-13T15:29:03Z</time>
</trkpt>
<trkpt lat="52.334271" lon="4.557337">
<ele>-1.2</ele>
<time>2026-02-13T15:29:04Z</time>
</trkpt>
<trkpt lat="52.334274" lon="4.557325">
<ele>-1.2</ele>
<time>2026-02-13T15:29:05Z</time>
</trkpt>
<trkpt lat="52.334277" lon="4.557313">
<ele>-1.2</ele>
<time>2026-02-13T15:29:05Z</time>
</trkpt>
<trkpt lat="52.334280" lon="4.557302">
<ele>-1.2</ele>
<time>2026-02-13T15:29:06Z</time>
</trkpt>
<trkpt lat="52.334284" lon="4.557292">
<ele>-1.5</ele>
<time>2026-02-13T15:29:06Z</time>
</trkpt>
<trkpt lat="52.334288" lon="4.557281">
<ele>-1.5</ele>
<time>2026-02-13T15:29:07Z</time>
</trkpt>
<trkpt lat="52.334293" lon="4.557271">
<ele>-1.4</ele>
<time>2026-02-13T15:29:07Z</time>
</trkpt>
<trkpt lat="52.334296" lon="4.557260">
<ele>-1.4</ele>
<time>2026-02-13T15:29:08Z</time>
</trkpt>
<trkpt lat="52.334303" lon="4.557239">
<ele>-1.7</ele>
<time>2026-02-13T15:29:09Z</time>
</trkpt>
<trkpt lat="52.334309" lon="4.557217">
<ele>-1.5</ele>
<time>2026-02-13T15:29:10Z</time>
</trkpt>
<trkpt lat="52.334312" lon="4.557195">
<ele>-1.6</ele>
<time>2026-02-13T15:29:11Z</time>
</trkpt>
<trkpt lat="52.334315" lon="4.557173">
<ele>-1.6</ele>
<time>2026-02-13T15:29:12Z</time>
</trkpt>
<trkpt lat="52.334317" lon="4.557157">
<ele>-1.6</ele>
<time>2026-02-13T15:29:12Z</time>
</trkpt>
<trkpt lat="52.334320" lon="4.557134">
<ele>-1.6</ele>
<time>2026-02-13T15:29:13Z</time>
</trkpt>
<trkpt lat="52.334324" lon="4.557114">
<ele>-1.7</ele>
<time>2026-02-13T15:29:14Z</time>
</trkpt>
<trkpt lat="52.334327" lon="4.557091">
<ele>-1.7</ele>
<time>2026-02-13T15:29:15Z</time>
</trkpt>
<trkpt lat="52.334330" lon="4.557059">
<ele>-1.6</ele>
<time>2026-02-13T15:29:17Z</time>
</trkpt>
<trkpt lat="52.334331" lon="4.557047">
<ele>-1.5</ele>
<time>2026-02-13T15:29:17Z</time>
</trkpt>
<trkpt lat="52.334334" lon="4.557027">
<ele>-1.7</ele>
<time>2026-02-13T15:29:18Z</time>
</trkpt>
<trkpt lat="52.334337" lon="4.557016">
<ele>-1.7</ele>
<time>2026-02-13T15:29:19Z</time>
</trkpt>
<trkpt lat="52.334341" lon="4.557007">
<ele>-1.3</ele>
<time>2026-02-13T15:29:19Z</time>
</trkpt>
<trkpt lat="52.334344" lon="4.557001">
<ele>-1.3</ele>
<time>2026-02-13T15:29:20Z</time>
</trkpt>
<trkpt lat="52.334349" lon="4.556990">
<ele>-1.3</ele>
<time>2026-02-13T15:29:20Z</time>
</trkpt>
<trkpt lat="52.334360" lon="4.556971">
<ele>-1.4</ele>
<time>2026-02-13T15:29:21Z</time>
</trkpt>
<trkpt lat="52.334367" lon="4.556962">
<ele>-1.6</ele>
<time>2026-02-13T15:29:22Z</time>
</trkpt>
<trkpt lat="52.334371" lon="4.556957">
<ele>-1.9</ele>
<time>2026-02-13T15:29:23Z</time>
</trkpt>
<trkpt lat="52.334377" lon="4.556949">
<ele>-1.9</ele>
<time>2026-02-13T15:29:23Z</time>
</trkpt>
<trkpt lat="52.334384" lon="4.556938">
<ele>-2.0</ele>
<time>2026-02-13T15:29:24Z</time>
</trkpt>
<trkpt lat="52.334391" lon="4.556934">
<ele>-2.1</ele>
<time>2026-02-13T15:29:24Z</time>
</trkpt>
<trkpt lat="52.334405" lon="4.556929">
<ele>-1.9</ele>
<time>2026-02-13T15:29:25Z</time>
</trkpt>
<trkpt lat="52.334415" lon="4.556927">
<ele>-1.9</ele>
<time>2026-02-13T15:29:26Z</time>
</trkpt>
<trkpt lat="52.334421" lon="4.556923">
<ele>-1.9</ele>
<time>2026-02-13T15:29:26Z</time>
</trkpt>
<trkpt lat="52.334433" lon="4.556917">
<ele>-1.5</ele>
<time>2026-02-13T15:29:27Z</time>
</trkpt>
<trkpt lat="52.334438" lon="4.556912">
<ele>-1.5</ele>
<time>2026-02-13T15:29:28Z</time>
</trkpt>
<trkpt lat="52.334446" lon="4.556902">
<ele>-1.5</ele>
<time>2026-02-13T15:29:28Z</time>
</trkpt>
<trkpt lat="52.334454" lon="4.556886">
<ele>-1.4</ele>
<time>2026-02-13T15:29:29Z</time>
</trkpt>
<trkpt lat="52.334457" lon="4.556876">
<ele>-0.9</ele>
<time>2026-02-13T15:29:30Z</time>
</trkpt>
<trkpt lat="52.334462" lon="4.556863">
<ele>-0.9</ele>
<time>2026-02-13T15:29:30Z</time>
</trkpt>
<trkpt lat="52.334469" lon="4.556842">
<ele>-0.9</ele>
<time>2026-02-13T15:29:31Z</time>
</trkpt>
<trkpt lat="52.334471" lon="4.556835">
<ele>-0.9</ele>
<time>2026-02-13T15:29:32Z</time>
</trkpt>
<trkpt lat="52.334476" lon="4.556824">
<ele>-0.9</ele>
<time>2026-02-13T15:29:32Z</time>
</trkpt>
<trkpt lat="52.334478" lon="4.556816">
<ele>-0.6</ele>
<time>2026-02-13T15:29:33Z</time>
</trkpt>
<trkpt lat="52.334483" lon="4.556806">
<ele>-0.6</ele>
<time>2026-02-13T15:29:33Z</time>
</trkpt>
<trkpt lat="52.334485" lon="4.556798">
<ele>-0.4</ele>
<time>2026-02-13T15:29:34Z</time>
</trkpt>
<trkpt lat="52.334489" lon="4.556788">
<ele>-0.4</ele>
<time>2026-02-13T15:29:34Z</time>
</trkpt>
<trkpt lat="52.334492" lon="4.556782">
<ele>-0.7</ele>
<time>2026-02-13T15:29:35Z</time>
</trkpt>
<trkpt lat="52.334496" lon="4.556772">
<ele>-0.7</ele>
<time>2026-02-13T15:29:35Z</time>
</trkpt>
<trkpt lat="52.334500" lon="4.556765">
<ele>-0.5</ele>
<time>2026-02-13T15:29:36Z</time>
</trkpt>
<trkpt lat="52.334505" lon="4.556755">
<ele>-0.5</ele>
<time>2026-02-13T15:29:36Z</time>
</trkpt>
<trkpt lat="52.334509" lon="4.556750">
<ele>-0.7</ele>
<time>2026-02-13T15:29:37Z</time>
</trkpt>
<trkpt lat="52.334516" lon="4.556741">
<ele>-0.4</ele>
<time>2026-02-13T15:29:38Z</time>
</trkpt>
<trkpt lat="52.334524" lon="4.556727">
<ele>-0.4</ele>
<time>2026-02-13T15:29:38Z</time>
</trkpt>
<trkpt lat="52.334529" lon="4.556724">
<ele>-0.4</ele>
<time>2026-02-13T15:29:39Z</time>
</trkpt>
<trkpt lat="52.334535" lon="4.556714">
<ele>-0.4</ele>
<time>2026-02-13T15:29:39Z</time>
</trkpt>
<trkpt lat="52.334546" lon="4.556700">
<ele>-0.4</ele>
<time>2026-02-13T15:29:40Z</time>
</trkpt>
<trkpt lat="52.334557" lon="4.556683">
<ele>-0.3</ele>
<time>2026-02-13T15:29:42Z</time>
</trkpt>
<trkpt lat="52.334566" lon="4.556666">
<ele>-0.3</ele>
<time>2026-02-13T15:29:43Z</time>
</trkpt>
<trkpt lat="52.334574" lon="4.556647">
<ele>-0.3</ele>
<time>2026-02-13T15:29:44Z</time>
</trkpt>
<trkpt lat="52.334584" lon="4.556634">
<ele>-0.3</ele>
<time>2026-02-13T15:29:44Z</time>
</trkpt>
<trkpt lat="52.334589" lon="4.556630">
<ele>-0.3</ele>
<time>2026-02-13T15:29:45Z</time>
</trkpt>
<trkpt lat="52.334596" lon="4.556620">
<ele>-0.3</ele>
<time>2026-02-13T15:29:46Z</time>
</trkpt>
<trkpt lat="52.334608" lon="4.556609">
<ele>-0.2</ele>
<time>2026-02-13T15:29:47Z</time>
</trkpt>
<trkpt lat="52.334620" lon="4.556594">
<ele>-0.2</ele>
<time>2026-02-13T15:29:48Z</time>
</trkpt>
<trkpt lat="52.334634" lon="4.556577">
<ele>0.2</ele>
<time>2026-02-13T15:29:49Z</time>
</trkpt>
<trkpt lat="52.334637" lon="4.556571">
<ele>0.3</ele>
<time>2026-02-13T15:29:49Z</time>
</trkpt>
<trkpt lat="52.334641" lon="4.556562">
<ele>0.3</ele>
<time>2026-02-13T15:29:50Z</time>
</trkpt>
<trkpt lat="52.334647" lon="4.556547">
<ele>0.3</ele>
<time>2026-02-13T15:29:51Z</time>
</trkpt>
<trkpt lat="52.334657" lon="4.556527">
<ele>0.0</ele>
<time>2026-02-13T15:29:52Z</time>
</trkpt>
<trkpt lat="52.334665" lon="4.556510">
<ele>-0.3</ele>
<time>2026-02-13T15:29:52Z</time>
</trkpt>
<trkpt lat="52.334675" lon="4.556488">
<ele>-0.3</ele>
<time>2026-02-13T15:29:54Z</time>
</trkpt>
<trkpt lat="52.334682" lon="4.556471">
<ele>-0.3</ele>
<time>2026-02-13T15:29:54Z</time>
</trkpt>
<trkpt lat="52.334686" lon="4.556463">
<ele>-0.2</ele>
<time>2026-02-13T15:29:55Z</time>
</trkpt>
<trkpt lat="52.334691" lon="4.556453">
<ele>-0.2</ele>
<time>2026-02-13T15:29:56Z</time>
</trkpt>
<trkpt lat="52.334700" lon="4.556435">
<ele>-0.2</ele>
<time>2026-02-13T15:29:57Z</time>
</trkpt>
<trkpt lat="52.334709" lon="4.556421">
<ele>-0.2</ele>
<time>2026-02-13T15:29:58Z</time>
</trkpt>
<trkpt lat="52.334718" lon="4.556407">
<ele>0.1</ele>
<time>2026-02-13T15:29:59Z</time>
</trkpt>
<trkpt lat="52.334725" lon="4.556390">
<ele>0.0</ele>
<time>2026-02-13T15:30:00Z</time>
</trkpt>
<trkpt lat="52.334734" lon="4.556367">
<ele>0.1</ele>
<time>2026-02-13T15:30:01Z</time>
</trkpt>
<trkpt lat="52.334740" lon="4.556352">
<ele>0.2</ele>
<time>2026-02-13T15:30:02Z</time>
</trkpt>
<trkpt lat="52.334746" lon="4.556340">
<ele>0.1</ele>
<time>2026-02-13T15:30:03Z</time>
</trkpt>
<trkpt lat="52.334753" lon="4.556322">
<ele>0.1</ele>
<time>2026-02-13T15:30:04Z</time>
</trkpt>
<trkpt lat="52.334757" lon="4.556316">
<ele>-0.1</ele>
<time>2026-02-13T15:30:04Z</time>
</trkpt>
<trkpt lat="52.334760" lon="4.556309">
<ele>0.0</ele>
<time>2026-02-13T15:30:05Z</time>
</trkpt>
<trkpt lat="52.334766" lon="4.556292">
<ele>0.0</ele>
<time>2026-02-13T15:30:05Z</time>
</trkpt>
<trkpt lat="52.334768" lon="4.556289">
<ele>-0.2</ele>
<time>2026-02-13T15:30:06Z</time>
</trkpt>
<trkpt lat="52.334775" lon="4.556268">
<ele>-0.2</ele>
<time>2026-02-13T15:30:07Z</time>
</trkpt>
<trkpt lat="52.334780" lon="4.556257">
<ele>-0.1</ele>
<time>2026-02-13T15:30:08Z</time>
</trkpt>
<trkpt lat="52.334784" lon="4.556247">
<ele>-0.1</ele>
<time>2026-02-13T15:30:08Z</time>
</trkpt>
<trkpt lat="52.334789" lon="4.556238">
<ele>0.0</ele>
<time>2026-02-13T15:30:09Z</time>
</trkpt>
<trkpt lat="52.334793" lon="4.556229">
<ele>0.0</ele>
<time>2026-02-13T15:30:09Z</time>
</trkpt>
<trkpt lat="52.334798" lon="4.556222">
<ele>0.0</ele>
<time>2026-02-13T15:30:10Z</time>
</trkpt>
<trkpt lat="52.334805" lon="4.556210">
<ele>0.0</ele>
<time>2026-02-13T15:30:11Z</time>
</trkpt>
<trkpt lat="52.334810" lon="4.556199">
<ele>0.0</ele>
<time>2026-02-13T15:30:11Z</time>
</trkpt>
<trkpt lat="52.334815" lon="4.556190">
<ele>0.0</ele>
<time>2026-02-13T15:30:12Z</time>
</trkpt>
<trkpt lat="52.334820" lon="4.556177">
<ele>0.0</ele>
<time>2026-02-13T15:30:13Z</time>
</trkpt>
<trkpt lat="52.334827" lon="4.556160">
<ele>0.0</ele>
<time>2026-02-13T15:30:13Z</time>
</trkpt>
<trkpt lat="52.334833" lon="4.556146">
<ele>-0.2</ele>
<time>2026-02-13T15:30:14Z</time>
</trkpt>
<trkpt lat="52.334837" lon="4.556136">
<ele>0.0</ele>
<time>2026-02-13T15:30:15Z</time>
</trkpt>
<trkpt lat="52.334841" lon="4.556125">
<ele>-0.2</ele>
<time>2026-02-13T15:30:16Z</time>
</trkpt>
<trkpt lat="52.334844" lon="4.556115">
<ele>-0.2</ele>
<time>2026-02-13T15:30:16Z</time>
</trkpt>
<trkpt lat="52.334848" lon="4.556109">
<ele>0.2</ele>
<time>2026-02-13T15:30:17Z</time>
</trkpt>
<trkpt lat="52.334853" lon="4.556097">
<ele>0.2</ele>
<time>2026-02-13T15:30:17Z</time>
</trkpt>
<trkpt lat="52.334860" lon="4.556090">
<ele>0.2</ele>
<time>2026-02-13T15:30:18Z</time>
</trkpt>
<trkpt lat="52.334868" lon="4.556081">
<ele>0.1</ele>
<time>2026-02-13T15:30:19Z</time>
</trkpt>
<trkpt lat="52.334876" lon="4.556070">
<ele>0.1</ele>
<time>2026-02-13T15:30:19Z</time>
</trkpt>
<trkpt lat="52.334884" lon="4.556064">
<ele>0.0</ele>
<time>2026-02-13T15:30:20Z</time>
</trkpt>
<trkpt lat="52.334888" lon="4.556058">
<ele>0.0</ele>
<time>2026-02-13T15:30:20Z</time>
</trkpt>
<trkpt lat="52.334895" lon="4.556051">
<ele>-0.3</ele>
<time>2026-02-13T15:30:21Z</time>
</trkpt>
<trkpt lat="52.334900" lon="4.556045">
<ele>-0.3</ele>
<time>2026-02-13T15:30:22Z</time>
</trkpt>
<trkpt lat="52.334909" lon="4.556032">
<ele>-0.3</ele>
<time>2026-02-13T15:30:22Z</time>
</trkpt>
<trkpt lat="52.334914" lon="4.556026">
<ele>-0.1</ele>
<time>2026-02-13T15:30:23Z</time>
</trkpt>
<trkpt lat="52.334921" lon="4.556018">
<ele>-0.2</ele>
<time>2026-02-13T15:30:24Z</time>
</trkpt>
<trkpt lat="52.334927" lon="4.556010">
<ele>-0.2</ele>
<time>2026-02-13T15:30:24Z</time>
</trkpt>
<trkpt lat="52.334934" lon="4.556001">
<ele>0.0</ele>
<time>2026-02-13T15:30:25Z</time>
</trkpt>
<trkpt lat="52.334938" lon="4.555993">
<ele>0.0</ele>
<time>2026-02-13T15:30:25Z</time>
</trkpt>
<trkpt lat="52.334945" lon="4.555985">
<ele>-0.2</ele>
<time>2026-02-13T15:30:26Z</time>
</trkpt>
<trkpt lat="52.334950" lon="4.555976">
<ele>-0.1</ele>
<time>2026-02-13T15:30:27Z</time>
</trkpt>
<trkpt lat="52.334954" lon="4.555967">
<ele>-0.1</ele>
<time>2026-02-13T15:30:27Z</time>
</trkpt>
<trkpt lat="52.334958" lon="4.555956">
<ele>0.1</ele>
<time>2026-02-13T15:30:28Z</time>
</trkpt>
<trkpt lat="52.334966" lon="4.555941">
<ele>0.1</ele>
<time>2026-02-13T15:30:28Z</time>
</trkpt>
<trkpt lat="52.334970" lon="4.555933">
<ele>0.0</ele>
<time>2026-02-13T15:30:29Z</time>
</trkpt>
<trkpt lat="52.334976" lon="4.555924">
<ele>0.0</ele>
<time>2026-02-13T15:30:29Z</time>
</trkpt>
<trkpt lat="52.334985" lon="4.555905">
<ele>0.1</ele>
<time>2026-02-13T15:30:30Z</time>
</trkpt>
<trkpt lat="52.334992" lon="4.555894">
<ele>-0.1</ele>
<time>2026-02-13T15:30:31Z</time>
</trkpt>
<trkpt lat="52.335002" lon="4.555880">
<ele>-0.1</ele>
<time>2026-02-13T15:30:32Z</time>
</trkpt>
<trkpt lat="52.335008" lon="4.555870">
<ele>-0.1</ele>
<time>2026-02-13T15:30:32Z</time>
</trkpt>
<trkpt lat="52.335013" lon="4.555862">
<ele>-0.5</ele>
<time>2026-02-13T15:30:33Z</time>
</trkpt>
<trkpt lat="52.335018" lon="4.555854">
<ele>-0.3</ele>
<time>2026-02-13T15:30:34Z</time>
</trkpt>
<trkpt lat="52.335026" lon="4.555840">
<ele>-0.3</ele>
<time>2026-02-13T15:30:34Z</time>
</trkpt>
<trkpt lat="52.335036" lon="4.555823">
<ele>-0.6</ele>
<time>2026-02-13T15:30:35Z</time>
</trkpt>
<trkpt lat="52.335042" lon="4.555816">
<ele>-0.4</ele>
<time>2026-02-13T15:30:36Z</time>
</trkpt>
<trkpt lat="52.335047" lon="4.555808">
<ele>-0.4</ele>
<time>2026-02-13T15:30:36Z</time>
</trkpt>
<trkpt lat="52.335053" lon="4.555801">
<ele>-0.4</ele>
<time>2026-02-13T15:30:37Z</time>
</trkpt>
<trkpt lat="52.335059" lon="4.555794">
<ele>-0.4</ele>
<time>2026-02-13T15:30:38Z</time>
</trkpt>
<trkpt lat="52.335069" lon="4.555781">
<ele>-0.4</ele>
<time>2026-02-13T15:30:38Z</time>
</trkpt>
<trkpt lat="52.335079" lon="4.555764">
<ele>-0.3</ele>
<time>2026-02-13T15:30:39Z</time>
</trkpt>
<trkpt lat="52.335084" lon="4.555757">
<ele>-0.3</ele>
<time>2026-02-13T15:30:40Z</time>
</trkpt>
<trkpt lat="52.335089" lon="4.555748">
<ele>-0.3</ele>
<time>2026-02-13T15:30:40Z</time>
</trkpt>
<trkpt lat="52.335092" lon="4.555742">
<ele>-0.2</ele>
<time>2026-02-13T15:30:41Z</time>
</trkpt>
<trkpt lat="52.335098" lon="4.555733">
<ele>-0.2</ele>
<time>2026-02-13T15:30:41Z</time>
</trkpt>
<trkpt lat="52.335103" lon="4.555727">
<ele>-0.2</ele>
<time>2026-02-13T15:30:42Z</time>
</trkpt>
<trkpt lat="52.335108" lon="4.555719">
<ele>-0.2</ele>
<time>2026-02-13T15:30:42Z</time>
</trkpt>
<trkpt lat="52.335117" lon="4.555706">
<ele>-0.3</ele>
<time>2026-02-13T15:30:43Z</time>
</trkpt>
<trkpt lat="52.335120" lon="4.555701">
<ele>-0.3</ele>
<time>2026-02-13T15:30:43Z</time>
</trkpt>
<trkpt lat="52.335123" lon="4.555695">
<ele>0.0</ele>
<time>2026-02-13T15:30:44Z</time>
</trkpt>
<trkpt lat="52.335127" lon="4.555686">
<ele>0.0</ele>
<time>2026-02-13T15:30:44Z</time>
</trkpt>
<trkpt lat="52.335131" lon="4.555677">
<ele>-0.2</ele>
<time>2026-02-13T15:30:45Z</time>
</trkpt>
<trkpt lat="52.335138" lon="4.555663">
<ele>-0.2</ele>
<time>2026-02-13T15:30:46Z</time>
</trkpt>
<trkpt lat="52.335143" lon="4.555656">
<ele>0.1</ele>
<time>2026-02-13T15:30:46Z</time>
</trkpt>
<trkpt lat="52.335157" lon="4.555640">
<ele>0.2</ele>
<time>2026-02-13T15:30:47Z</time>
</trkpt>
<trkpt lat="52.335164" lon="4.555631">
<ele>0.0</ele>
<time>2026-02-13T15:30:48Z</time>
</trkpt>
<trkpt lat="52.335171" lon="4.555622">
<ele>-0.2</ele>
<time>2026-02-13T15:30:49Z</time>
</trkpt>
<trkpt lat="52.335179" lon="4.555609">
<ele>-0.2</ele>
<time>2026-02-13T15:30:49Z</time>
</trkpt>
<trkpt lat="52.335183" lon="4.555601">
<ele>-0.5</ele>
<time>2026-02-13T15:30:50Z</time>
</trkpt>
<trkpt lat="52.335189" lon="4.555592">
<ele>-0.5</ele>
<time>2026-02-13T15:30:50Z</time>
</trkpt>
<trkpt lat="52.335198" lon="4.555573">
<ele>-0.6</ele>
<time>2026-02-13T15:30:51Z</time>
</trkpt>
<trkpt lat="52.335209" lon="4.555545">
<ele>-0.6</ele>
<time>2026-02-13T15:30:53Z</time>
</trkpt>
<trkpt lat="52.335216" lon="4.555525">
<ele>-0.5</ele>
<time>2026-02-13T15:30:54Z</time>
</trkpt>
<trkpt lat="52.335225" lon="4.555506">
<ele>-0.6</ele>
<time>2026-02-13T15:30:55Z</time>
</trkpt>
<trkpt lat="52.335233" lon="4.555490">
<ele>-0.3</ele>
<time>2026-02-13T15:30:56Z</time>
</trkpt>
<trkpt lat="52.335236" lon="4.555482">
<ele>-0.3</ele>
<time>2026-02-13T15:30:56Z</time>
</trkpt>
<trkpt lat="52.335240" lon="4.555475">
<ele>-0.2</ele>
<time>2026-02-13T15:30:57Z</time>
</trkpt>
<trkpt lat="52.335245" lon="4.555467">
<ele>0.0</ele>
<time>2026-02-13T15:30:58Z</time>
</trkpt>
<trkpt lat="52.335255" lon="4.555451">
<ele>-0.1</ele>
<time>2026-02-13T15:30:59Z</time>
</trkpt>
<trkpt lat="52.335259" lon="4.555444">
<ele>-0.1</ele>
<time>2026-02-13T15:30:59Z</time>
</trkpt>
<trkpt lat="52.335265" lon="4.555436">
<ele>-0.1</ele>
<time>2026-02-13T15:31:00Z</time>
</trkpt>
<trkpt lat="52.335275" lon="4.555419">
<ele>-0.2</ele>
<time>2026-02-13T15:31:01Z</time>
</trkpt>
<trkpt lat="52.335281" lon="4.555408">
<ele>-0.1</ele>
<time>2026-02-13T15:31:01Z</time>
</trkpt>
<trkpt lat="52.335289" lon="4.555397">
<ele>0.0</ele>
<time>2026-02-13T15:31:02Z</time>
</trkpt>
<trkpt lat="52.335298" lon="4.555385">
<ele>0.2</ele>
<time>2026-02-13T15:31:03Z</time>
</trkpt>
<trkpt lat="52.335305" lon="4.555376">
<ele>0.2</ele>
<time>2026-02-13T15:31:03Z</time>
</trkpt>
<trkpt lat="52.335319" lon="4.555354">
<ele>0.4</ele>
<time>2026-02-13T15:31:05Z</time>
</trkpt>
<trkpt lat="52.335325" lon="4.555344">
<ele>1.0</ele>
<time>2026-02-13T15:31:05Z</time>
</trkpt>
<trkpt lat="52.335329" lon="4.555337">
<ele>0.9</ele>
<time>2026-02-13T15:31:06Z</time>
</trkpt>
<trkpt lat="52.335334" lon="4.555332">
<ele>0.9</ele>
<time>2026-02-13T15:31:06Z</time>
</trkpt>
<trkpt lat="52.335345" lon="4.555319">
<ele>1.0</ele>
<time>2026-02-13T15:31:07Z</time>
</trkpt>
<trkpt lat="52.335357" lon="4.555305">
<ele>1.0</ele>
<time>2026-02-13T15:31:08Z</time>
</trkpt>
<trkpt lat="52.335362" lon="4.555296">
<ele>1.0</ele>
<time>2026-02-13T15:31:09Z</time>
</trkpt>
<trkpt lat="52.335374" lon="4.555283">
<ele>1.0</ele>
<time>2026-02-13T15:31:09Z</time>
</trkpt>
<trkpt lat="52.335381" lon="4.555273">
<ele>1.0</ele>
<time>2026-02-13T15:31:10Z</time>
</trkpt>
<trkpt lat="52.335390" lon="4.555262">
<ele>0.9</ele>
<time>2026-02-13T15:31:11Z</time>
</trkpt>
<trkpt lat="52.335395" lon="4.555254">
<ele>0.7</ele>
<time>2026-02-13T15:31:12Z</time>
</trkpt>
<trkpt lat="52.335400" lon="4.555247">
<ele>0.7</ele>
<time>2026-02-13T15:31:12Z</time>
</trkpt>
<trkpt lat="52.335404" lon="4.555237">
<ele>0.9</ele>
<time>2026-02-13T15:31:13Z</time>
</trkpt>
<trkpt lat="52.335412" lon="4.555225">
<ele>0.9</ele>
<time>2026-02-13T15:31:13Z</time>
</trkpt>
<trkpt lat="52.335419" lon="4.555209">
<ele>0.5</ele>
<time>2026-02-13T15:31:14Z</time>
</trkpt>
<trkpt lat="52.335422" lon="4.555200">
<ele>0.9</ele>
<time>2026-02-13T15:31:15Z</time>
</trkpt>
<trkpt lat="52.335427" lon="4.555189">
<ele>0.9</ele>
<time>2026-02-13T15:31:15Z</time>
</trkpt>
<trkpt lat="52.335431" lon="4.555182">
<ele>0.8</ele>
<time>2026-02-13T15:31:16Z</time>
</trkpt>
<trkpt lat="52.335435" lon="4.555170">
<ele>0.8</ele>
<time>2026-02-13T15:31:16Z</time>
</trkpt>
<trkpt lat="52.335441" lon="4.555150">
<ele>0.7</ele>
<time>2026-02-13T15:31:17Z</time>
</trkpt>
<trkpt lat="52.335445" lon="4.555131">
<ele>0.4</ele>
<time>2026-02-13T15:31:18Z</time>
</trkpt>
<trkpt lat="52.335447" lon="4.555117">
<ele>0.3</ele>
<time>2026-02-13T15:31:19Z</time>
</trkpt>
<trkpt lat="52.335449" lon="4.555097">
<ele>0.0</ele>
<time>2026-02-13T15:31:20Z</time>
</trkpt>
<trkpt lat="52.335451" lon="4.555088">
<ele>0.1</ele>
<time>2026-02-13T15:31:20Z</time>
</trkpt>
<trkpt lat="52.335452" lon="4.555077">
<ele>0.1</ele>
<time>2026-02-13T15:31:21Z</time>
</trkpt>
<trkpt lat="52.335456" lon="4.555046">
<ele>0.2</ele>
<time>2026-02-13T15:31:22Z</time>
</trkpt>
<trkpt lat="52.335459" lon="4.555026">
<ele>0.2</ele>
<time>2026-02-13T15:31:23Z</time>
</trkpt>
<trkpt lat="52.335460" lon="4.555015">
<ele>0.1</ele>
<time>2026-02-13T15:31:23Z</time>
</trkpt>
<trkpt lat="52.335461" lon="4.554997">
<ele>0.1</ele>
<time>2026-02-13T15:31:24Z</time>
</trkpt>
<trkpt lat="52.335462" lon="4.554985">
<ele>0.1</ele>
<time>2026-02-13T15:31:25Z</time>
</trkpt>
<trkpt lat="52.335462" lon="4.554966">
<ele>0.3</ele>
<time>2026-02-13T15:31:25Z</time>
</trkpt>
<trkpt lat="52.335460" lon="4.554947">
<ele>0.3</ele>
<time>2026-02-13T15:31:26Z</time>
</trkpt>
<trkpt lat="52.335461" lon="4.554916">
<ele>0.3</ele>
<time>2026-02-13T15:31:28Z</time>
</trkpt>
<trkpt lat="52.335461" lon="4.554901">
<ele>0.4</ele>
<time>2026-02-13T15:31:28Z</time>
</trkpt>
<trkpt lat="52.335460" lon="4.554876">
<ele>0.4</ele>
<time>2026-02-13T15:31:29Z</time>
</trkpt>
<trkpt lat="52.335456" lon="4.554852">
<ele>0.4</ele>
<time>2026-02-13T15:31:30Z</time>
</trkpt>
<trkpt lat="52.335453" lon="4.554840">
<ele>0.3</ele>
<time>2026-02-13T15:31:31Z</time>
</trkpt>
<trkpt lat="52.335449" lon="4.554826">
<ele>0.3</ele>
<time>2026-02-13T15:31:31Z</time>
</trkpt>
<trkpt lat="52.335445" lon="4.554816">
<ele>0.3</ele>
<time>2026-02-13T15:31:32Z</time>
</trkpt>
<trkpt lat="52.335441" lon="4.554804">
<ele>0.3</ele>
<time>2026-02-13T15:31:32Z</time>
</trkpt>
<trkpt lat="52.335439" lon="4.554791">
<ele>0.3</ele>
<time>2026-02-13T15:31:33Z</time>
</trkpt>
<trkpt lat="52.335430" lon="4.554770">
<ele>0.0</ele>
<time>2026-02-13T15:31:33Z</time>
</trkpt>
<trkpt lat="52.335423" lon="4.554758">
<ele>0.2</ele>
<time>2026-02-13T15:31:34Z</time>
</trkpt>
<trkpt lat="52.335419" lon="4.554747">
<ele>0.2</ele>
<time>2026-02-13T15:31:34Z</time>
</trkpt>
<trkpt lat="52.335412" lon="4.554735">
<ele>0.1</ele>
<time>2026-02-13T15:31:35Z</time>
</trkpt>
<trkpt lat="52.335403" lon="4.554717">
<ele>0.3</ele>
<time>2026-02-13T15:31:36Z</time>
</trkpt>
<trkpt lat="52.335398" lon="4.554701">
<ele>0.0</ele>
<time>2026-02-13T15:31:37Z</time>
</trkpt>
<trkpt lat="52.335391" lon="4.554687">
<ele>0.0</ele>
<time>2026-02-13T15:31:37Z</time>
</trkpt>
<trkpt lat="52.335384" lon="4.554677">
<ele>0.0</ele>
<time>2026-02-13T15:31:38Z</time>
</trkpt>
<trkpt lat="52.335378" lon="4.554670">
<ele>0.0</ele>
<time>2026-02-13T15:31:39Z</time>
</trkpt>
<trkpt lat="52.335368" lon="4.554652">
<ele>0.0</ele>
<time>2026-02-13T15:31:40Z</time>
</trkpt>
<trkpt lat="52.335362" lon="4.554641">
<ele>0.0</ele>
<time>2026-02-13T15:31:40Z</time>
</trkpt>
<trkpt lat="52.335357" lon="4.554633">
<ele>0.0</ele>
<time>2026-02-13T15:31:41Z</time>
</trkpt>
<trkpt lat="52.335349" lon="4.554616">
<ele>0.0</ele>
<time>2026-02-13T15:31:41Z</time>
</trkpt>
<trkpt lat="52.335342" lon="4.554606">
<ele>0.0</ele>
<time>2026-02-13T15:31:42Z</time>
</trkpt>
<trkpt lat="52.335336" lon="4.554594">
<ele>0.0</ele>
<time>2026-02-13T15:31:43Z</time>
</trkpt>
<trkpt lat="52.335327" lon="4.554581">
<ele>0.2</ele>
<time>2026-02-13T15:31:43Z</time>
</trkpt>
<trkpt lat="52.335317" lon="4.554564">
<ele>0.2</ele>
<time>2026-02-13T15:31:44Z</time>
</trkpt>
<trkpt lat="52.335309" lon="4.554547">
<ele>0.0</ele>
<time>2026-02-13T15:31:45Z</time>
</trkpt>
<trkpt lat="52.335306" lon="4.554542">
<ele>0.0</ele>
<time>2026-02-13T15:31:45Z</time>
</trkpt>
<trkpt lat="52.335302" lon="4.554533">
<ele>-0.1</ele>
<time>2026-02-13T15:31:46Z</time>
</trkpt>
<trkpt lat="52.335296" lon="4.554519">
<ele>-0.2</ele>
<time>2026-02-13T15:31:47Z</time>
</trkpt>
<trkpt lat="52.335291" lon="4.554502">
<ele>-0.6</ele>
<time>2026-02-13T15:31:48Z</time>
</trkpt>
<trkpt lat="52.335289" lon="4.554481">
<ele>-0.6</ele>
<time>2026-02-13T15:31:48Z</time>
</trkpt>
<trkpt lat="52.335286" lon="4.554467">
<ele>-0.8</ele>
<time>2026-02-13T15:31:49Z</time>
</trkpt>
<trkpt lat="52.335284" lon="4.554456">
<ele>-0.6</ele>
<time>2026-02-13T15:31:50Z</time>
</trkpt>
<trkpt lat="52.335281" lon="4.554446">
<ele>-0.6</ele>
<time>2026-02-13T15:31:50Z</time>
</trkpt>
<trkpt lat="52.335277" lon="4.554435">
<ele>-0.5</ele>
<time>2026-02-13T15:31:51Z</time>
</trkpt>
<trkpt lat="52.335273" lon="4.554417">
<ele>-0.5</ele>
<time>2026-02-13T15:31:51Z</time>
</trkpt>
<trkpt lat="52.335268" lon="4.554403">
<ele>-0.5</ele>
<time>2026-02-13T15:31:52Z</time>
</trkpt>
<trkpt lat="52.335264" lon="4.554392">
<ele>-0.8</ele>
<time>2026-02-13T15:31:53Z</time>
</trkpt>
<trkpt lat="52.335261" lon="4.554381">
<ele>-0.8</ele>
<time>2026-02-13T15:31:53Z</time>
</trkpt>
<trkpt lat="52.335256" lon="4.554369">
<ele>-0.5</ele>
<time>2026-02-13T15:31:54Z</time>
</trkpt>
<trkpt lat="52.335252" lon="4.554357">
<ele>-0.5</ele>
<time>2026-02-13T15:31:54Z</time>
</trkpt>
<trkpt lat="52.335248" lon="4.554341">
<ele>-0.5</ele>
<time>2026-02-13T15:31:55Z</time>
</trkpt>
<trkpt lat="52.335242" lon="4.554324">
<ele>-0.5</ele>
<time>2026-02-13T15:31:55Z</time>
</trkpt>
<trkpt lat="52.335238" lon="4.554313">
<ele>-0.3</ele>
<time>2026-02-13T15:31:56Z</time>
</trkpt>
<trkpt lat="52.335235" lon="4.554301">
<ele>-0.3</ele>
<time>2026-02-13T15:31:56Z</time>
</trkpt>
<trkpt lat="52.335232" lon="4.554295">
<ele>-0.5</ele>
<time>2026-02-13T15:31:57Z</time>
</trkpt>
<trkpt lat="52.335226" lon="4.554273">
<ele>-0.5</ele>
<time>2026-02-13T15:31:57Z</time>
</trkpt>
<trkpt lat="52.335221" lon="4.554255">
<ele>-0.5</ele>
<time>2026-02-13T15:31:58Z</time>
</trkpt>
<trkpt lat="52.335215" lon="4.554243">
<ele>-0.4</ele>
<time>2026-02-13T15:31:59Z</time>
</trkpt>
<trkpt lat="52.335211" lon="4.554232">
<ele>-0.6</ele>
<time>2026-02-13T15:32:00Z</time>
</trkpt>
<trkpt lat="52.335205" lon="4.554206">
<ele>-0.7</ele>
<time>2026-02-13T15:32:01Z</time>
</trkpt>
<trkpt lat="52.335201" lon="4.554193">
<ele>-0.7</ele>
<time>2026-02-13T15:32:01Z</time>
</trkpt>
<trkpt lat="52.335195" lon="4.554173">
<ele>-0.7</ele>
<time>2026-02-13T15:32:02Z</time>
</trkpt>
<trkpt lat="52.335187" lon="4.554152">
<ele>-0.8</ele>
<time>2026-02-13T15:32:03Z</time>
</trkpt>
<trkpt lat="52.335180" lon="4.554132">
<ele>-0.7</ele>
<time>2026-02-13T15:32:04Z</time>
</trkpt>
<trkpt lat="52.335175" lon="4.554121">
<ele>-0.7</ele>
<time>2026-02-13T15:32:05Z</time>
</trkpt>
<trkpt lat="52.335170" lon="4.554111">
<ele>-0.7</ele>
<time>2026-02-13T15:32:05Z</time>
</trkpt>
<trkpt lat="52.335160" lon="4.554093">
<ele>-0.9</ele>
<time>2026-02-13T15:32:07Z</time>
</trkpt>
<trkpt lat="52.335155" lon="4.554085">
<ele>-0.7</ele>
<time>2026-02-13T15:32:08Z</time>
</trkpt>
<trkpt lat="52.335153" lon="4.554079">
<ele>-0.6</ele>
<time>2026-02-13T15:32:09Z</time>
</trkpt>
<trkpt lat="52.335148" lon="4.554071">
<ele>-0.5</ele>
<time>2026-02-13T15:32:10Z</time>
</trkpt>
<trkpt lat="52.335148" lon="4.554068">
<ele>-0.7</ele>
<time>2026-02-13T15:32:11Z</time>
</trkpt>
<trkpt lat="52.335148" lon="4.554071">
<ele>-0.1</ele>
<time>2026-02-13T15:32:12Z</time>
</trkpt>
<trkpt lat="52.335148" lon="4.554075">
<ele>-0.2</ele>
<time>2026-02-13T15:32:13Z</time>
</trkpt>
<trkpt lat="52.335149" lon="4.554081">
<ele>-0.4</ele>
<time>2026-02-13T15:32:14Z</time>
</trkpt>
<trkpt lat="52.335149" lon="4.554083">
<ele>-0.6</ele>
<time>2026-02-13T15:32:15Z</time>
</trkpt>
<trkpt lat="52.335149" lon="4.554086">
<ele>-0.7</ele>
<time>2026-02-13T15:32:16Z</time>
</trkpt>
<trkpt lat="52.335150" lon="4.554088">
<ele>-1.0</ele>
<time>2026-02-13T15:32:17Z</time>
</trkpt>
<trkpt lat="52.335149" lon="4.554091">
<ele>-1.0</ele>
<time>2026-02-13T15:32:18Z</time>
</trkpt>
<trkpt lat="52.335149" lon="4.554093">
<ele>-0.8</ele>
<time>2026-02-13T15:32:19Z</time>
</trkpt>
<trkpt lat="52.335149" lon="4.554095">
<ele>-0.7</ele>
<time>2026-02-13T15:32:20Z</time>
</trkpt>
<trkpt lat="52.335150" lon="4.554095">
<ele>-0.7</ele>
<time>2026-02-13T15:32:20Z</time>
</trkpt>
<trkpt lat="52.335150" lon="4.554089">
<ele>-0.8</ele>
<time>2026-02-13T15:32:22Z</time>
</trkpt>
<trkpt lat="52.335150" lon="4.554087">
<ele>-0.8</ele>
<time>2026-02-13T15:32:22Z</time>
</trkpt>
<trkpt lat="52.335149" lon="4.554082">
<ele>-0.8</ele>
<time>2026-02-13T15:32:23Z</time>
</trkpt>
<trkpt lat="52.335145" lon="4.554069">
<ele>-0.7</ele>
<time>2026-02-13T15:32:24Z</time>
</trkpt>
<trkpt lat="52.335144" lon="4.554058">
<ele>-0.7</ele>
<time>2026-02-13T15:32:24Z</time>
</trkpt>
<trkpt lat="52.335136" lon="4.554036">
<ele>-0.6</ele>
<time>2026-02-13T15:32:25Z</time>
</trkpt>
<trkpt lat="52.335124" lon="4.554010">
<ele>-1.0</ele>
<time>2026-02-13T15:32:26Z</time>
</trkpt>
<trkpt lat="52.335114" lon="4.553995">
<ele>-1.2</ele>
<time>2026-02-13T15:32:27Z</time>
</trkpt>
<trkpt lat="52.335104" lon="4.553974">
<ele>-1.2</ele>
<time>2026-02-13T15:32:28Z</time>
</trkpt>
<trkpt lat="52.335097" lon="4.553961">
<ele>-1.2</ele>
<time>2026-02-13T15:32:28Z</time>
</trkpt>
<trkpt lat="52.335088" lon="4.553949">
<ele>-1.4</ele>
<time>2026-02-13T15:32:29Z</time>
</trkpt>
<trkpt lat="52.335077" lon="4.553934">
<ele>-1.6</ele>
<time>2026-02-13T15:32:30Z</time>
</trkpt>
<trkpt lat="52.335062" lon="4.553920">
<ele>-1.5</ele>
<time>2026-02-13T15:32:31Z</time>
</trkpt>
<trkpt lat="52.335047" lon="4.553908">
<ele>-1.5</ele>
<time>2026-02-13T15:32:32Z</time>
</trkpt>
<trkpt lat="52.335036" lon="4.553899">
<ele>-1.5</ele>
<time>2026-02-13T15:32:32Z</time>
</trkpt>
<trkpt lat="52.335016" lon="4.553890">
<ele>-1.4</ele>
<time>2026-02-13T15:32:34Z</time>
</trkpt>
<trkpt lat="52.335004" lon="4.553883">
<ele>-1.4</ele>
<time>2026-02-13T15:32:34Z</time>
</trkpt>
<trkpt lat="52.334987" lon="4.553874">
<ele>-1.5</ele>
<time>2026-02-13T15:32:36Z</time>
</trkpt>
<trkpt lat="52.334971" lon="4.553862">
<ele>-1.3</ele>
<time>2026-02-13T15:32:37Z</time>
</trkpt>
<trkpt lat="52.334960" lon="4.553855">
<ele>-1.3</ele>
<time>2026-02-13T15:32:37Z</time>
</trkpt>
<trkpt lat="52.334954" lon="4.553849">
<ele>-1.2</ele>
<time>2026-02-13T15:32:38Z</time>
</trkpt>
<trkpt lat="52.334944" lon="4.553843">
<ele>-1.2</ele>
<time>2026-02-13T15:32:39Z</time>
</trkpt>
<trkpt lat="52.334939" lon="4.553834">
<ele>-1.1</ele>
<time>2026-02-13T15:32:39Z</time>
</trkpt>
<trkpt lat="52.334927" lon="4.553827">
<ele>-1.1</ele>
<time>2026-02-13T15:32:40Z</time>
</trkpt>
<trkpt lat="52.334918" lon="4.553814">
<ele>-1.0</ele>
<time>2026-02-13T15:32:41Z</time>
</trkpt>
<trkpt lat="52.334908" lon="4.553800">
<ele>-0.8</ele>
<time>2026-02-13T15:32:42Z</time>
</trkpt>
<trkpt lat="52.334900" lon="4.553786">
<ele>-0.8</ele>
<time>2026-02-13T15:32:43Z</time>
</trkpt>
<trkpt lat="52.334892" lon="4.553773">
<ele>-1.0</ele>
<time>2026-02-13T15:32:44Z</time>
</trkpt>
<trkpt lat="52.334889" lon="4.553760">
<ele>-1.1</ele>
<time>2026-02-13T15:32:45Z</time>
</trkpt>
<trkpt lat="52.334885" lon="4.553737">
<ele>-1.7</ele>
<time>2026-02-13T15:32:46Z</time>
</trkpt>
<trkpt lat="52.334882" lon="4.553733">
<ele>-1.7</ele>
<time>2026-02-13T15:32:47Z</time>
</trkpt>
<trkpt lat="52.334890" lon="4.553717">
<ele>-1.7</ele>
<time>2026-02-13T15:32:47Z</time>
</trkpt>
<trkpt lat="52.334892" lon="4.553709">
<ele>-1.7</ele>
<time>2026-02-13T15:32:48Z</time>
</trkpt>
<trkpt lat="52.334896" lon="4.553673">
<ele>-1.6</ele>
<time>2026-02-13T15:32:49Z</time>
</trkpt>
<trkpt lat="52.334896" lon="4.553656">
<ele>-1.6</ele>
<time>2026-02-13T15:32:49Z</time>
</trkpt>
<trkpt lat="52.334894" lon="4.553633">
<ele>-1.5</ele>
<time>2026-02-13T15:32:50Z</time>
</trkpt>
<trkpt lat="52.334892" lon="4.553618">
<ele>-1.7</ele>
<time>2026-02-13T15:32:51Z</time>
</trkpt>
<trkpt lat="52.334888" lon="4.553594">
<ele>-1.4</ele>
<time>2026-02-13T15:32:52Z</time>
</trkpt>
<trkpt lat="52.334885" lon="4.553582">
<ele>-1.4</ele>
<time>2026-02-13T15:32:52Z</time>
</trkpt>
<trkpt lat="52.334883" lon="4.553572">
<ele>-1.4</ele>
<time>2026-02-13T15:32:53Z</time>
</trkpt>
<trkpt lat="52.334880" lon="4.553561">
<ele>-1.7</ele>
<time>2026-02-13T15:32:53Z</time>
</trkpt>
<trkpt lat="52.334878" lon="4.553549">
<ele>-1.7</ele>
<time>2026-02-13T15:32:54Z</time>
</trkpt>
<trkpt lat="52.334876" lon="4.553537">
<ele>-1.6</ele>
<time>2026-02-13T15:32:54Z</time>
</trkpt>
<trkpt lat="52.334872" lon="4.553515">
<ele>-1.6</ele>
<time>2026-02-13T15:32:55Z</time>
</trkpt>
<trkpt lat="52.334871" lon="4.553511">
<ele>-1.7</ele>
<time>2026-02-13T15:32:55Z</time>
</trkpt>
<trkpt lat="52.334869" lon="4.553501">
<ele>-1.7</ele>
<time>2026-02-13T15:32:56Z</time>
</trkpt>
<trkpt lat="52.334864" lon="4.553477">
<ele>-1.7</ele>
<time>2026-02-13T15:32:57Z</time>
</trkpt>
<trkpt lat="52.334861" lon="4.553459">
<ele>-1.6</ele>
<time>2026-02-13T15:32:58Z</time>
</trkpt>
<trkpt lat="52.334859" lon="4.553451">
<ele>-1.7</ele>
<time>2026-02-13T15:32:58Z</time>
</trkpt>
<trkpt lat="52.334857" lon="4.553444">
<ele>-1.6</ele>
<time>2026-02-13T15:32:59Z</time>
</trkpt>
<trkpt lat="52.334855" lon="4.553434">
<ele>-1.6</ele>
<time>2026-02-13T15:32:59Z</time>
</trkpt>
<trkpt lat="52.334850" lon="4.553416">
<ele>-1.6</ele>
<time>2026-02-13T15:33:00Z</time>
</trkpt>
<trkpt lat="52.334846" lon="4.553403">
<ele>-1.6</ele>
<time>2026-02-13T15:33:01Z</time>
</trkpt>
<trkpt lat="52.334844" lon="4.553394">
<ele>-1.5</ele>
<time>2026-02-13T15:33:02Z</time>
</trkpt>
<trkpt lat="52.334836" lon="4.553377">
<ele>-1.5</ele>
<time>2026-02-13T15:33:02Z</time>
</trkpt>
<trkpt lat="52.334830" lon="4.553361">
<ele>-1.5</ele>
<time>2026-02-13T15:33:04Z</time>
</trkpt>
<trkpt lat="52.334825" lon="4.553351">
<ele>-1.5</ele>
<time>2026-02-13T15:33:04Z</time>
</trkpt>
<trkpt lat="52.334821" lon="4.553345">
<ele>-1.4</ele>
<time>2026-02-13T15:33:05Z</time>
</trkpt>
<trkpt lat="52.334816" lon="4.553338">
<ele>-1.4</ele>
<time>2026-02-13T15:33:05Z</time>
</trkpt>
<trkpt lat="52.334806" lon="4.553323">
<ele>-1.1</ele>
<time>2026-02-13T15:33:06Z</time>
</trkpt>
<trkpt lat="52.334796" lon="4.553307">
<ele>-1.0</ele>
<time>2026-02-13T15:33:07Z</time>
</trkpt>
<trkpt lat="52.334792" lon="4.553299">
<ele>-1.0</ele>
<time>2026-02-13T15:33:08Z</time>
</trkpt>
<trkpt lat="52.334785" lon="4.553285">
<ele>-1.0</ele>
<time>2026-02-13T15:33:08Z</time>
</trkpt>
<trkpt lat="52.334782" lon="4.553278">
<ele>-1.0</ele>
<time>2026-02-13T15:33:09Z</time>
</trkpt>
<trkpt lat="52.334772" lon="4.553260">
<ele>-1.0</ele>
<time>2026-02-13T15:33:10Z</time>
</trkpt>
<trkpt lat="52.334764" lon="4.553240">
<ele>-0.7</ele>
<time>2026-02-13T15:33:11Z</time>
</trkpt>
<trkpt lat="52.334760" lon="4.553223">
<ele>-0.6</ele>
<time>2026-02-13T15:33:12Z</time>
</trkpt>
<trkpt lat="52.334756" lon="4.553203">
<ele>-0.8</ele>
<time>2026-02-13T15:33:13Z</time>
</trkpt>
<trkpt lat="52.334753" lon="4.553191">
<ele>-0.8</ele>
<time>2026-02-13T15:33:13Z</time>
</trkpt>
<trkpt lat="52.334751" lon="4.553181">
<ele>-0.9</ele>
<time>2026-02-13T15:33:14Z</time>
</trkpt>
<trkpt lat="52.334746" lon="4.553167">
<ele>-0.9</ele>
<time>2026-02-13T15:33:14Z</time>
</trkpt>
<trkpt lat="52.334741" lon="4.553148">
<ele>-1.1</ele>
<time>2026-02-13T15:33:15Z</time>
</trkpt>
<trkpt lat="52.334739" lon="4.553137">
<ele>-0.9</ele>
<time>2026-02-13T15:33:16Z</time>
</trkpt>
<trkpt lat="52.334737" lon="4.553133">
<ele>-0.9</ele>
<time>2026-02-13T15:33:16Z</time>
</trkpt>
<trkpt lat="52.334725" lon="4.553095">
<ele>-0.4</ele>
<time>2026-02-13T15:33:18Z</time>
</trkpt>
<trkpt lat="52.334721" lon="4.553084">
<ele>-0.2</ele>
<time>2026-02-13T15:33:18Z</time>
</trkpt>
<trkpt lat="52.334712" lon="4.553062">
<ele>0.0</ele>
<time>2026-02-13T15:33:20Z</time>
</trkpt>
<trkpt lat="52.334703" lon="4.553046">
<ele>0.1</ele>
<time>2026-02-13T15:33:21Z</time>
</trkpt>
<trkpt lat="52.334697" lon="4.553032">
<ele>0.1</ele>
<time>2026-02-13T15:33:21Z</time>
</trkpt>
<trkpt lat="52.334692" lon="4.553027">
<ele>0.0</ele>
<time>2026-02-13T15:33:22Z</time>
</trkpt>
<trkpt lat="52.334686" lon="4.553020">
<ele>0.0</ele>
<time>2026-02-13T15:33:22Z</time>
</trkpt>
<trkpt lat="52.334681" lon="4.553012">
<ele>0.4</ele>
<time>2026-02-13T15:33:23Z</time>
</trkpt>
<trkpt lat="52.334677" lon="4.553005">
<ele>0.5</ele>
<time>2026-02-13T15:33:24Z</time>
</trkpt>
<trkpt lat="52.334672" lon="4.552995">
<ele>0.5</ele>
<time>2026-02-13T15:33:24Z</time>
</trkpt>
<trkpt lat="52.334669" lon="4.552989">
<ele>0.9</ele>
<time>2026-02-13T15:33:25Z</time>
</trkpt>
<trkpt lat="52.334664" lon="4.552979">
<ele>0.9</ele>
<time>2026-02-13T15:33:25Z</time>
</trkpt>
<trkpt lat="52.334659" lon="4.552967">
<ele>1.0</ele>
<time>2026-02-13T15:33:26Z</time>
</trkpt>
<trkpt lat="52.334655" lon="4.552958">
<ele>1.3</ele>
<time>2026-02-13T15:33:27Z</time>
</trkpt>
<trkpt lat="52.334647" lon="4.552944">
<ele>1.3</ele>
<time>2026-02-13T15:33:28Z</time>
</trkpt>
<trkpt lat="52.334642" lon="4.552934">
<ele>1.5</ele>
<time>2026-02-13T15:33:28Z</time>
</trkpt>
<trkpt lat="52.334637" lon="4.552923">
<ele>1.7</ele>
<time>2026-02-13T15:33:29Z</time>
</trkpt>
<trkpt lat="52.334638" lon="4.552917">
<ele>2.1</ele>
<time>2026-02-13T15:33:30Z</time>
</trkpt>
<trkpt lat="52.334633" lon="4.552910">
<ele>2.0</ele>
<time>2026-02-13T15:33:31Z</time>
</trkpt>
<trkpt lat="52.334634" lon="4.552909">
<ele>2.1</ele>
<time>2026-02-13T15:33:32Z</time>
</trkpt>
<trkpt lat="52.334637" lon="4.552908">
<ele>2.2</ele>
<time>2026-02-13T15:33:33Z</time>
</trkpt>
<trkpt lat="52.334637" lon="4.552910">
<ele>2.4</ele>
<time>2026-02-13T15:33:34Z</time>
</trkpt>
<trkpt lat="52.334638" lon="4.552914">
<ele>2.6</ele>
<time>2026-02-13T15:33:35Z</time>
</trkpt>
<trkpt lat="52.334637" lon="4.552918">
<ele>3.1</ele>
<time>2026-02-13T15:33:36Z</time>
</trkpt>
<trkpt lat="52.334637" lon="4.552921">
<ele>3.0</ele>
<time>2026-02-13T15:33:37Z</time>
</trkpt>
<trkpt lat="52.334637" lon="4.552925">
<ele>2.9</ele>
<time>2026-02-13T15:33:38Z</time>
</trkpt>
<trkpt lat="52.334637" lon="4.552926">
<ele>2.9</ele>
<time>2026-02-13T15:33:38Z</time>
</trkpt>
<trkpt lat="52.334636" lon="4.552929">
<ele>2.7</ele>
<time>2026-02-13T15:33:39Z</time>
</trkpt>
<trkpt lat="52.334636" lon="4.552930">
<ele>2.6</ele>
<time>2026-02-13T15:33:40Z</time>
</trkpt>
<trkpt lat="52.334637" lon="4.552932">
<ele>2.6</ele>
<time>2026-02-13T15:33:41Z</time>
</trkpt>
<trkpt lat="52.334637" lon="4.552935">
<ele>2.3</ele>
<time>2026-02-13T15:33:42Z</time>
</trkpt>
<trkpt lat="52.334636" lon="4.552935">
<ele>2.3</ele>
<time>2026-02-13T15:33:43Z</time>
</trkpt>
<trkpt lat="52.334636" lon="4.552935">
<ele>2.1</ele>
<time>2026-02-13T15:33:44Z</time>
</trkpt>
<trkpt lat="52.334636" lon="4.552934">
<ele>2.1</ele>
<time>2026-02-13T15:33:44Z</time>
</trkpt>
<trkpt lat="52.334636" lon="4.552933">
<ele>2.1</ele>
<time>2026-02-13T15:33:45Z</time>
</trkpt>
<trkpt lat="52.334636" lon="4.552932">
<ele>2.1</ele>
<time>2026-02-13T15:33:45Z</time>
</trkpt>
<trkpt lat="52.334638" lon="4.552930">
<ele>2.3</ele>
<time>2026-02-13T15:33:46Z</time>
</trkpt>
<trkpt lat="52.334639" lon="4.552929">
<ele>2.5</ele>
<time>2026-02-13T15:33:47Z</time>
</trkpt>
<trkpt lat="52.334640" lon="4.552928">
<ele>2.5</ele>
<time>2026-02-13T15:33:47Z</time>
</trkpt>
<trkpt lat="52.334640" lon="4.552926">
<ele>2.7</ele>
<time>2026-02-13T15:33:48Z</time>
</trkpt>
<trkpt lat="52.334641" lon="4.552924">
<ele>2.7</ele>
<time>2026-02-13T15:33:48Z</time>
</trkpt>
<trkpt lat="52.334639" lon="4.552916">
<ele>3.0</ele>
<time>2026-02-13T15:33:49Z</time>
</trkpt>
<trkpt lat="52.334636" lon="4.552901">
<ele>3.3</ele>
<time>2026-02-13T15:33:50Z</time>
</trkpt>
<trkpt lat="52.334629" lon="4.552879">
<ele>3.3</ele>
<time>2026-02-13T15:33:51Z</time>
</trkpt>
<trkpt lat="52.334629" lon="4.552862">
<ele>3.4</ele>
<time>2026-02-13T15:33:51Z</time>
</trkpt>
<trkpt lat="52.334628" lon="4.552849">
<ele>3.8</ele>
<time>2026-02-13T15:33:52Z</time>
</trkpt>
<trkpt lat="52.334625" lon="4.552832">
<ele>3.8</ele>
<time>2026-02-13T15:33:52Z</time>
</trkpt>
<trkpt lat="52.334623" lon="4.552813">
<ele>3.9</ele>
<time>2026-02-13T15:33:53Z</time>
</trkpt>
<trkpt lat="52.334622" lon="4.552809">
<ele>4.3</ele>
<time>2026-02-13T15:33:54Z</time>
</trkpt>
<trkpt lat="52.334617" lon="4.552791">
<ele>4.3</ele>
<time>2026-02-13T15:33:55Z</time>
</trkpt>
<trkpt lat="52.334616" lon="4.552781">
<ele>4.7</ele>
<time>2026-02-13T15:33:55Z</time>
</trkpt>
<trkpt lat="52.334616" lon="4.552768">
<ele>4.7</ele>
<time>2026-02-13T15:33:56Z</time>
</trkpt>
<trkpt lat="52.334614" lon="4.552759">
<ele>4.7</ele>
<time>2026-02-13T15:33:56Z</time>
</trkpt>
<trkpt lat="52.334615" lon="4.552745">
<ele>4.8</ele>
<time>2026-02-13T15:33:57Z</time>
</trkpt>
<trkpt lat="52.334616" lon="4.552739">
<ele>5.2</ele>
<time>2026-02-13T15:33:58Z</time>
</trkpt>
<trkpt lat="52.334617" lon="4.552728">
<ele>5.2</ele>
<time>2026-02-13T15:33:58Z</time>
</trkpt>
<trkpt lat="52.334619" lon="4.552714">
<ele>5.6</ele>
<time>2026-02-13T15:33:59Z</time>
</trkpt>
<trkpt lat="52.334619" lon="4.552705">
<ele>5.6</ele>
<time>2026-02-13T15:33:59Z</time>
</trkpt>
<trkpt lat="52.334624" lon="4.552687">
<ele>5.8</ele>
<time>2026-02-13T15:34:00Z</time>
</trkpt>
<trkpt lat="52.334626" lon="4.552680">
<ele>5.8</ele>
<time>2026-02-13T15:34:01Z</time>
</trkpt>
<trkpt lat="52.334633" lon="4.552661">
<ele>5.8</ele>
<time>2026-02-13T15:34:02Z</time>
</trkpt>
<trkpt lat="52.334638" lon="4.552648">
<ele>6.0</ele>
<time>2026-02-13T15:34:03Z</time>
</trkpt>
<trkpt lat="52.334641" lon="4.552639">
<ele>5.6</ele>
<time>2026-02-13T15:34:03Z</time>
</trkpt>
<trkpt lat="52.334644" lon="4.552631">
<ele>6.2</ele>
<time>2026-02-13T15:34:04Z</time>
</trkpt>
<trkpt lat="52.334647" lon="4.552618">
<ele>6.2</ele>
<time>2026-02-13T15:34:04Z</time>
</trkpt>
<trkpt lat="52.334651" lon="4.552602">
<ele>6.3</ele>
<time>2026-02-13T15:34:05Z</time>
</trkpt>
<trkpt lat="52.334653" lon="4.552594">
<ele>6.3</ele>
<time>2026-02-13T15:34:06Z</time>
</trkpt>
<trkpt lat="52.334653" lon="4.552583">
<ele>6.3</ele>
<time>2026-02-13T15:34:06Z</time>
</trkpt>
<trkpt lat="52.334652" lon="4.552574">
<ele>6.5</ele>
<time>2026-02-13T15:34:07Z</time>
</trkpt>
<trkpt lat="52.334650" lon="4.552561">
<ele>6.5</ele>
<time>2026-02-13T15:34:07Z</time>
</trkpt>
<trkpt lat="52.334649" lon="4.552553">
<ele>6.3</ele>
<time>2026-02-13T15:34:08Z</time>
</trkpt>
<trkpt lat="52.334647" lon="4.552541">
<ele>6.3</ele>
<time>2026-02-13T15:34:08Z</time>
</trkpt>
<trkpt lat="52.334646" lon="4.552531">
<ele>6.2</ele>
<time>2026-02-13T15:34:09Z</time>
</trkpt>
<trkpt lat="52.334644" lon="4.552516">
<ele>6.2</ele>
<time>2026-02-13T15:34:10Z</time>
</trkpt>
<trkpt lat="52.334640" lon="4.552506">
<ele>6.2</ele>
<time>2026-02-13T15:34:10Z</time>
</trkpt>
<trkpt lat="52.334635" lon="4.552498">
<ele>6.1</ele>
<time>2026-02-13T15:34:11Z</time>
</trkpt>
<trkpt lat="52.334632" lon="4.552493">
<ele>6.5</ele>
<time>2026-02-13T15:34:12Z</time>
</trkpt>
<trkpt lat="52.334628" lon="4.552485">
<ele>6.5</ele>
<time>2026-02-13T15:34:12Z</time>
</trkpt>
<trkpt lat="52.334624" lon="4.552475">
<ele>6.4</ele>
<time>2026-02-13T15:34:13Z</time>
</trkpt>
<trkpt lat="52.334620" lon="4.552466">
<ele>6.4</ele>
<time>2026-02-13T15:34:14Z</time>
</trkpt>
<trkpt lat="52.334620" lon="4.552455">
<ele>6.4</ele>
<time>2026-02-13T15:34:14Z</time>
</trkpt>
<trkpt lat="52.334619" lon="4.552435">
<ele>6.7</ele>
<time>2026-02-13T15:34:15Z</time>
</trkpt>
<trkpt lat="52.334615" lon="4.552404">
<ele>7.2</ele>
<time>2026-02-13T15:34:17Z</time>
</trkpt>
<trkpt lat="52.334618" lon="4.552392">
<ele>7.3</ele>
<time>2026-02-13T15:34:18Z</time>
</trkpt>
<trkpt lat="52.334628" lon="4.552378">
<ele>7.4</ele>
<time>2026-02-13T15:34:19Z</time>
</trkpt>
<trkpt lat="52.334633" lon="4.552369">
<ele>7.6</ele>
<time>2026-02-13T15:34:19Z</time>
</trkpt>
<trkpt lat="52.334637" lon="4.552362">
<ele>7.8</ele>
<time>2026-02-13T15:34:20Z</time>
</trkpt>
<trkpt lat="52.334642" lon="4.552349">
<ele>8.1</ele>
<time>2026-02-13T15:34:21Z</time>
</trkpt>
<trkpt lat="52.334644" lon="4.552338">
<ele>8.1</ele>
<time>2026-02-13T15:34:21Z</time>
</trkpt>
<trkpt lat="52.334647" lon="4.552325">
<ele>8.1</ele>
<time>2026-02-13T15:34:22Z</time>
</trkpt>
<trkpt lat="52.334647" lon="4.552302">
<ele>8.1</ele>
<time>2026-02-13T15:34:22Z</time>
</trkpt>
<trkpt lat="52.334649" lon="4.552294">
<ele>8.4</ele>
<time>2026-02-13T15:34:23Z</time>
</trkpt>
<trkpt lat="52.334651" lon="4.552284">
<ele>8.9</ele>
<time>2026-02-13T15:34:24Z</time>
</trkpt>
<trkpt lat="52.334652" lon="4.552261">
<ele>9.2</ele>
<time>2026-02-13T15:34:25Z</time>
</trkpt>
<trkpt lat="52.334655" lon="4.552248">
<ele>9.5</ele>
<time>2026-02-13T15:34:25Z</time>
</trkpt>
<trkpt lat="52.334659" lon="4.552240">
<ele>9.4</ele>
<time>2026-02-13T15:34:26Z</time>
</trkpt>
<trkpt lat="52.334663" lon="4.552233">
<ele>9.7</ele>
<time>2026-02-13T15:34:27Z</time>
</trkpt>
<trkpt lat="52.334667" lon="4.552220">
<ele>9.7</ele>
<time>2026-02-13T15:34:27Z</time>
</trkpt>
<trkpt lat="52.334679" lon="4.552203">
<ele>10.4</ele>
<time>2026-02-13T15:34:29Z</time>
</trkpt>
<trkpt lat="52.334682" lon="4.552193">
<ele>10.4</ele>
<time>2026-02-13T15:34:29Z</time>
</trkpt>
<trkpt lat="52.334686" lon="4.552187">
<ele>10.3</ele>
<time>2026-02-13T15:34:30Z</time>
</trkpt>
<trkpt lat="52.334684" lon="4.552171">
<ele>10.4</ele>
<time>2026-02-13T15:34:31Z</time>
</trkpt>
<trkpt lat="52.334686" lon="4.552165">
<ele>10.9</ele>
<time>2026-02-13T15:34:32Z</time>
</trkpt>
<trkpt lat="52.334685" lon="4.552161">
<ele>11.1</ele>
<time>2026-02-13T15:34:33Z</time>
</trkpt>
<trkpt lat="52.334685" lon="4.552155">
<ele>11.3</ele>
<time>2026-02-13T15:34:34Z</time>
</trkpt>
<trkpt lat="52.334685" lon="4.552151">
<ele>11.3</ele>
<time>2026-02-13T15:34:34Z</time>
</trkpt>
<trkpt lat="52.334686" lon="4.552145">
<ele>11.2</ele>
<time>2026-02-13T15:34:35Z</time>
</trkpt>
<trkpt lat="52.334687" lon="4.552140">
<ele>11.2</ele>
<time>2026-02-13T15:34:35Z</time>
</trkpt>
<trkpt lat="52.334687" lon="4.552120">
<ele>11.5</ele>
<time>2026-02-13T15:34:37Z</time>
</trkpt>
<trkpt lat="52.334686" lon="4.552106">
<ele>11.5</ele>
<time>2026-02-13T15:34:37Z</time>
</trkpt>
<trkpt lat="52.334686" lon="4.552097">
<ele>11.1</ele>
<time>2026-02-13T15:34:38Z</time>
</trkpt>
<trkpt lat="52.334687" lon="4.552085">
<ele>11.0</ele>
<time>2026-02-13T15:34:39Z</time>
</trkpt>
<trkpt lat="52.334687" lon="4.552075">
<ele>11.0</ele>
<time>2026-02-13T15:34:39Z</time>
</trkpt>
<trkpt lat="52.334689" lon="4.552066">
<ele>11.0</ele>
<time>2026-02-13T15:34:40Z</time>
</trkpt>
<trkpt lat="52.334690" lon="4.552057">
<ele>11.0</ele>
<time>2026-02-13T15:34:40Z</time>
</trkpt>
<trkpt lat="52.334691" lon="4.552047">
<ele>11.1</ele>
<time>2026-02-13T15:34:41Z</time>
</trkpt>
<trkpt lat="52.334695" lon="4.552031">
<ele>11.1</ele>
<time>2026-02-13T15:34:41Z</time>
</trkpt>
<trkpt lat="52.334701" lon="4.552012">
<ele>10.8</ele>
<time>2026-02-13T15:34:42Z</time>
</trkpt>
<trkpt lat="52.334705" lon="4.551997">
<ele>10.5</ele>
<time>2026-02-13T15:34:43Z</time>
</trkpt>
<trkpt lat="52.334706" lon="4.551980">
<ele>10.3</ele>
<time>2026-02-13T15:34:44Z</time>
</trkpt>
<trkpt lat="52.334705" lon="4.551974">
<ele>10.1</ele>
<time>2026-02-13T15:34:45Z</time>
</trkpt>
<trkpt lat="52.334702" lon="4.551959">
<ele>10.0</ele>
<time>2026-02-13T15:34:46Z</time>
</trkpt>
<trkpt lat="52.334700" lon="4.551942">
<ele>9.9</ele>
<time>2026-02-13T15:34:47Z</time>
</trkpt>
<trkpt lat="52.334701" lon="4.551932">
<ele>10.0</ele>
<time>2026-02-13T15:34:47Z</time>
</trkpt>
<trkpt lat="52.334704" lon="4.551926">
<ele>9.7</ele>
<time>2026-02-13T15:34:48Z</time>
</trkpt>
<trkpt lat="52.334705" lon="4.551916">
<ele>9.7</ele>
<time>2026-02-13T15:34:48Z</time>
</trkpt>
<trkpt lat="52.334709" lon="4.551900">
<ele>9.3</ele>
<time>2026-02-13T15:34:49Z</time>
</trkpt>
<trkpt lat="52.334713" lon="4.551894">
<ele>9.0</ele>
<time>2026-02-13T15:34:50Z</time>
</trkpt>
<trkpt lat="52.334717" lon="4.551886">
<ele>9.0</ele>
<time>2026-02-13T15:34:50Z</time>
</trkpt>
<trkpt lat="52.334721" lon="4.551880">
<ele>8.8</ele>
<time>2026-02-13T15:34:51Z</time>
</trkpt>
<trkpt lat="52.334730" lon="4.551867">
<ele>8.8</ele>
<time>2026-02-13T15:34:51Z</time>
</trkpt>
<trkpt lat="52.334734" lon="4.551858">
<ele>8.5</ele>
<time>2026-02-13T15:34:52Z</time>
</trkpt>
<trkpt lat="52.334738" lon="4.551834">
<ele>8.4</ele>
<time>2026-02-13T15:34:54Z</time>
</trkpt>
<trkpt lat="52.334739" lon="4.551814">
<ele>8.2</ele>
<time>2026-02-13T15:34:55Z</time>
</trkpt>
<trkpt lat="52.334736" lon="4.551804">
<ele>8.4</ele>
<time>2026-02-13T15:34:55Z</time>
</trkpt>
<trkpt lat="52.334735" lon="4.551783">
<ele>8.6</ele>
<time>2026-02-13T15:34:57Z</time>
</trkpt>
<trkpt lat="52.334736" lon="4.551762">
<ele>8.4</ele>
<time>2026-02-13T15:34:58Z</time>
</trkpt>
<trkpt lat="52.334737" lon="4.551758">
<ele>8.4</ele>
<time>2026-02-13T15:34:58Z</time>
</trkpt>
<trkpt lat="52.334742" lon="4.551745">
<ele>8.2</ele>
<time>2026-02-13T15:34:59Z</time>
</trkpt>
<trkpt lat="52.334747" lon="4.551738">
<ele>8.2</ele>
<time>2026-02-13T15:35:00Z</time>
</trkpt>
<trkpt lat="52.334750" lon="4.551736">
<ele>8.1</ele>
<time>2026-02-13T15:35:00Z</time>
</trkpt>
<trkpt lat="52.334753" lon="4.551732">
<ele>8.5</ele>
<time>2026-02-13T15:35:01Z</time>
</trkpt>
<trkpt lat="52.334760" lon="4.551720">
<ele>8.5</ele>
<time>2026-02-13T15:35:02Z</time>
</trkpt>
<trkpt lat="52.334763" lon="4.551699">
<ele>8.5</ele>
<time>2026-02-13T15:35:03Z</time>
</trkpt>
<trkpt lat="52.334759" lon="4.551682">
<ele>8.6</ele>
<time>2026-02-13T15:35:04Z</time>
</trkpt>
<trkpt lat="52.334752" lon="4.551661">
<ele>8.6</ele>
<time>2026-02-13T15:35:05Z</time>
</trkpt>
<trkpt lat="52.334744" lon="4.551644">
<ele>8.5</ele>
<time>2026-02-13T15:35:06Z</time>
</trkpt>
<trkpt lat="52.334733" lon="4.551631">
<ele>8.2</ele>
<time>2026-02-13T15:35:07Z</time>
</trkpt>
<trkpt lat="52.334724" lon="4.551617">
<ele>8.2</ele>
<time>2026-02-13T15:35:08Z</time>
</trkpt>
<trkpt lat="52.334716" lon="4.551602">
<ele>8.0</ele>
<time>2026-02-13T15:35:09Z</time>
</trkpt>
<trkpt lat="52.334710" lon="4.551585">
<ele>7.9</ele>
<time>2026-02-13T15:35:10Z</time>
</trkpt>
<trkpt lat="52.334706" lon="4.551573">
<ele>8.1</ele>
<time>2026-02-13T15:35:10Z</time>
</trkpt>
<trkpt lat="52.334702" lon="4.551564">
<ele>7.9</ele>
<time>2026-02-13T15:35:11Z</time>
</trkpt>
<trkpt lat="52.334699" lon="4.551552">
<ele>7.9</ele>
<time>2026-02-13T15:35:12Z</time>
</trkpt>
<trkpt lat="52.334693" lon="4.551538">
<ele>7.5</ele>
<time>2026-02-13T15:35:13Z</time>
</trkpt>
<trkpt lat="52.334688" lon="4.551517">
<ele>7.4</ele>
<time>2026-02-13T15:35:14Z</time>
</trkpt>
<trkpt lat="52.334686" lon="4.551496">
<ele>7.4</ele>
<time>2026-02-13T15:35:15Z</time>
</trkpt>
<trkpt lat="52.334684" lon="4.551482">
<ele>7.3</ele>
<time>2026-02-13T15:35:16Z</time>
</trkpt>
<trkpt lat="52.334683" lon="4.551465">
<ele>7.0</ele>
<time>2026-02-13T15:35:17Z</time>
</trkpt>
<trkpt lat="52.334686" lon="4.551450">
<ele>7.0</ele>
<time>2026-02-13T15:35:17Z</time>
</trkpt>
<trkpt lat="52.334690" lon="4.551435">
<ele>6.9</ele>
<time>2026-02-13T15:35:18Z</time>
</trkpt>
<trkpt lat="52.334693" lon="4.551427">
<ele>6.8</ele>
<time>2026-02-13T15:35:19Z</time>
</trkpt>
<trkpt lat="52.334696" lon="4.551415">
<ele>6.7</ele>
<time>2026-02-13T15:35:20Z</time>
</trkpt>
<trkpt lat="52.334697" lon="4.551411">
<ele>6.7</ele>
<time>2026-02-13T15:35:20Z</time>
</trkpt>
<trkpt lat="52.334701" lon="4.551394">
<ele>6.5</ele>
<time>2026-02-13T15:35:21Z</time>
</trkpt>
<trkpt lat="52.334702" lon="4.551387">
<ele>6.5</ele>
<time>2026-02-13T15:35:21Z</time>
</trkpt>
<trkpt lat="52.334701" lon="4.551378">
<ele>6.8</ele>
<time>2026-02-13T15:35:22Z</time>
</trkpt>
<trkpt lat="52.334700" lon="4.551365">
<ele>6.8</ele>
<time>2026-02-13T15:35:22Z</time>
</trkpt>
<trkpt lat="52.334697" lon="4.551352">
<ele>7.2</ele>
<time>2026-02-13T15:35:23Z</time>
</trkpt>
<trkpt lat="52.334695" lon="4.551342">
<ele>7.1</ele>
<time>2026-02-13T15:35:24Z</time>
</trkpt>
<trkpt lat="52.334694" lon="4.551329">
<ele>7.1</ele>
<time>2026-02-13T15:35:24Z</time>
</trkpt>
<trkpt lat="52.334693" lon="4.551315">
<ele>7.9</ele>
<time>2026-02-13T15:35:25Z</time>
</trkpt>
<trkpt lat="52.334691" lon="4.551308">
<ele>7.9</ele>
<time>2026-02-13T15:35:26Z</time>
</trkpt>
<trkpt lat="52.334688" lon="4.551296">
<ele>7.9</ele>
<time>2026-02-13T15:35:26Z</time>
</trkpt>
<trkpt lat="52.334684" lon="4.551288">
<ele>8.0</ele>
<time>2026-02-13T15:35:27Z</time>
</trkpt>
<trkpt lat="52.334674" lon="4.551258">
<ele>8.1</ele>
<time>2026-02-13T15:35:29Z</time>
</trkpt>
<trkpt lat="52.334670" lon="4.551245">
<ele>8.3</ele>
<time>2026-02-13T15:35:29Z</time>
</trkpt>
<trkpt lat="52.334668" lon="4.551237">
<ele>8.4</ele>
<time>2026-02-13T15:35:30Z</time>
</trkpt>
<trkpt lat="52.334668" lon="4.551226">
<ele>8.4</ele>
<time>2026-02-13T15:35:30Z</time>
</trkpt>
<trkpt lat="52.334669" lon="4.551220">
<ele>8.8</ele>
<time>2026-02-13T15:35:31Z</time>
</trkpt>
<trkpt lat="52.334670" lon="4.551209">
<ele>8.8</ele>
<time>2026-02-13T15:35:32Z</time>
</trkpt>
<trkpt lat="52.334671" lon="4.551193">
<ele>9.1</ele>
<time>2026-02-13T15:35:33Z</time>
</trkpt>
<trkpt lat="52.334671" lon="4.551172">
<ele>9.1</ele>
<time>2026-02-13T15:35:34Z</time>
</trkpt>
<trkpt lat="52.334672" lon="4.551158">
<ele>9.4</ele>
<time>2026-02-13T15:35:35Z</time>
</trkpt>
<trkpt lat="52.334672" lon="4.551148">
<ele>9.4</ele>
<time>2026-02-13T15:35:35Z</time>
</trkpt>
<trkpt lat="52.334672" lon="4.551141">
<ele>9.2</ele>
<time>2026-02-13T15:35:36Z</time>
</trkpt>
<trkpt lat="52.334671" lon="4.551132">
<ele>9.2</ele>
<time>2026-02-13T15:35:36Z</time>
</trkpt>
<trkpt lat="52.334671" lon="4.551121">
<ele>8.9</ele>
<time>2026-02-13T15:35:37Z</time>
</trkpt>
<trkpt lat="52.334672" lon="4.551115">
<ele>8.8</ele>
<time>2026-02-13T15:35:38Z</time>
</trkpt>
<trkpt lat="52.334676" lon="4.551102">
<ele>8.8</ele>
<time>2026-02-13T15:35:38Z</time>
</trkpt>
<trkpt lat="52.334681" lon="4.551086">
<ele>9.2</ele>
<time>2026-02-13T15:35:40Z</time>
</trkpt>
<trkpt lat="52.334683" lon="4.551071">
<ele>8.9</ele>
<time>2026-02-13T15:35:41Z</time>
</trkpt>
<trkpt lat="52.334683" lon="4.551066">
<ele>8.6</ele>
<time>2026-02-13T15:35:41Z</time>
</trkpt>
<trkpt lat="52.334682" lon="4.551063">
<ele>8.5</ele>
<time>2026-02-13T15:35:42Z</time>
</trkpt>
<trkpt lat="52.334680" lon="4.551045">
<ele>8.5</ele>
<time>2026-02-13T15:35:42Z</time>
</trkpt>
<trkpt lat="52.334682" lon="4.551048">
<ele>8.6</ele>
<time>2026-02-13T15:35:43Z</time>
</trkpt>
<trkpt lat="52.334682" lon="4.551039">
<ele>8.6</ele>
<time>2026-02-13T15:35:43Z</time>
</trkpt>
<trkpt lat="52.334683" lon="4.551035">
<ele>8.2</ele>
<time>2026-02-13T15:35:44Z</time>
</trkpt>
<trkpt lat="52.334684" lon="4.551023">
<ele>8.2</ele>
<time>2026-02-13T15:35:44Z</time>
</trkpt>
<trkpt lat="52.334685" lon="4.551018">
<ele>8.2</ele>
<time>2026-02-13T15:35:45Z</time>
</trkpt>
<trkpt lat="52.334687" lon="4.551007">
<ele>8.2</ele>
<time>2026-02-13T15:35:45Z</time>
</trkpt>
<trkpt lat="52.334688" lon="4.551002">
<ele>7.9</ele>
<time>2026-02-13T15:35:46Z</time>
</trkpt>
<trkpt lat="52.334688" lon="4.550991">
<ele>7.9</ele>
<time>2026-02-13T15:35:46Z</time>
</trkpt>
<trkpt lat="52.334690" lon="4.550975">
<ele>7.5</ele>
<time>2026-02-13T15:35:47Z</time>
</trkpt>
<trkpt lat="52.334692" lon="4.550956">
<ele>7.1</ele>
<time>2026-02-13T15:35:48Z</time>
</trkpt>
<trkpt lat="52.334695" lon="4.550949">
<ele>6.9</ele>
<time>2026-02-13T15:35:49Z</time>
</trkpt>
<trkpt lat="52.334700" lon="4.550934">
<ele>6.6</ele>
<time>2026-02-13T15:35:50Z</time>
</trkpt>
<trkpt lat="52.334704" lon="4.550921">
<ele>6.6</ele>
<time>2026-02-13T15:35:50Z</time>
</trkpt>
<trkpt lat="52.334712" lon="4.550910">
<ele>6.6</ele>
<time>2026-02-13T15:35:51Z</time>
</trkpt>
<trkpt lat="52.334728" lon="4.550907">
<ele>6.9</ele>
<time>2026-02-13T15:35:53Z</time>
</trkpt>
<trkpt lat="52.334733" lon="4.550909">
<ele>6.9</ele>
<time>2026-02-13T15:35:53Z</time>
</trkpt>
<trkpt lat="52.334737" lon="4.550905">
<ele>7.0</ele>
<time>2026-02-13T15:35:54Z</time>
</trkpt>
<trkpt lat="52.334738" lon="4.550888">
<ele>6.8</ele>
<time>2026-02-13T15:35:55Z</time>
</trkpt>
<trkpt lat="52.334727" lon="4.550873">
<ele>6.6</ele>
<time>2026-02-13T15:35:56Z</time>
</trkpt>
<trkpt lat="52.334722" lon="4.550874">
<ele>6.6</ele>
<time>2026-02-13T15:35:56Z</time>
</trkpt>
<trkpt lat="52.334707" lon="4.550879">
<ele>6.7</ele>
<time>2026-02-13T15:35:57Z</time>
</trkpt>
<trkpt lat="52.334705" lon="4.550880">
<ele>6.8</ele>
<time>2026-02-13T15:35:58Z</time>
</trkpt>
<trkpt lat="52.334703" lon="4.550881">
<ele>6.5</ele>
<time>2026-02-13T15:35:59Z</time>
</trkpt>
<trkpt lat="52.334700" lon="4.550884">
<ele>6.7</ele>
<time>2026-02-13T15:36:00Z</time>
</trkpt>
<trkpt lat="52.334700" lon="4.550884">
<ele>6.7</ele>
<time>2026-02-13T15:36:00Z</time>
</trkpt>
<trkpt lat="52.334700" lon="4.550885">
<ele>7.0</ele>
<time>2026-02-13T15:36:01Z</time>
</trkpt>
<trkpt lat="52.334699" lon="4.550888">
<ele>6.8</ele>
<time>2026-02-13T15:36:02Z</time>
</trkpt>
<trkpt lat="52.334698" lon="4.550889">
<ele>6.8</ele>
<time>2026-02-13T15:36:03Z</time>
</trkpt>
<trkpt lat="52.334697" lon="4.550894">
<ele>6.6</ele>
<time>2026-02-13T15:36:04Z</time>
</trkpt>
<trkpt lat="52.334696" lon="4.550900">
<ele>6.2</ele>
<time>2026-02-13T15:36:05Z</time>
</trkpt>
<trkpt lat="52.334696" lon="4.550904">
<ele>6.1</ele>
<time>2026-02-13T15:36:06Z</time>
</trkpt>
<trkpt lat="52.334697" lon="4.550904">
<ele>5.8</ele>
<time>2026-02-13T15:36:07Z</time>
</trkpt>
<trkpt lat="52.334697" lon="4.550908">
<ele>6.0</ele>
<time>2026-02-13T15:36:08Z</time>
</trkpt>
<trkpt lat="52.334697" lon="4.550911">
<ele>6.2</ele>
<time>2026-02-13T15:36:09Z</time>
</trkpt>
<trkpt lat="52.334697" lon="4.550915">
<ele>5.9</ele>
<time>2026-02-13T15:36:10Z</time>
</trkpt>
<trkpt lat="52.334698" lon="4.550918">
<ele>6.1</ele>
<time>2026-02-13T15:36:11Z</time>
</trkpt>
<trkpt lat="52.334698" lon="4.550918">
<ele>6.1</ele>
<time>2026-02-13T15:36:11Z</time>
</trkpt>
<trkpt lat="52.334699" lon="4.550921">
<ele>5.6</ele>
<time>2026-02-13T15:36:12Z</time>
</trkpt>
<trkpt lat="52.334699" lon="4.550923">
<ele>5.7</ele>
<time>2026-02-13T15:36:13Z</time>
</trkpt>
<trkpt lat="52.334700" lon="4.550924">
<ele>5.6</ele>
<time>2026-02-13T15:36:14Z</time>
</trkpt>
<trkpt lat="52.334700" lon="4.550927">
<ele>5.5</ele>
<time>2026-02-13T15:36:15Z</time>
</trkpt>
<trkpt lat="52.334700" lon="4.550929">
<ele>5.5</ele>
<time>2026-02-13T15:36:16Z</time>
</trkpt>
<trkpt lat="52.334700" lon="4.550930">
<ele>5.5</ele>
<time>2026-02-13T15:36:16Z</time>
</trkpt>
<trkpt lat="52.334701" lon="4.550935">
<ele>5.4</ele>
<time>2026-02-13T15:36:17Z</time>
</trkpt>
<trkpt lat="52.334705" lon="4.550938">
<ele>5.7</ele>
<time>2026-02-13T15:36:18Z</time>
</trkpt>
<trkpt lat="52.334706" lon="4.550938">
<ele>5.7</ele>
<time>2026-02-13T15:36:18Z</time>
</trkpt>
<trkpt lat="52.334704" lon="4.550932">
<ele>5.7</ele>
<time>2026-02-13T15:36:19Z</time>
</trkpt>
<trkpt lat="52.334699" lon="4.550903">
<ele>6.2</ele>
<time>2026-02-13T15:36:20Z</time>
</trkpt>
<trkpt lat="52.334694" lon="4.550889">
<ele>6.9</ele>
<time>2026-02-13T15:36:21Z</time>
</trkpt>
<trkpt lat="52.334686" lon="4.550874">
<ele>6.9</ele>
<time>2026-02-13T15:36:22Z</time>
</trkpt>
<trkpt lat="52.334691" lon="4.550861">
<ele>7.0</ele>
<time>2026-02-13T15:36:22Z</time>
</trkpt>
<trkpt lat="52.334699" lon="4.550846">
<ele>7.3</ele>
<time>2026-02-13T15:36:23Z</time>
</trkpt>
<trkpt lat="52.334703" lon="4.550826">
<ele>7.3</ele>
<time>2026-02-13T15:36:23Z</time>
</trkpt>
<trkpt lat="52.334706" lon="4.550794">
<ele>7.3</ele>
<time>2026-02-13T15:36:25Z</time>
</trkpt>
<trkpt lat="52.334707" lon="4.550782">
<ele>7.3</ele>
<time>2026-02-13T15:36:25Z</time>
</trkpt>
<trkpt lat="52.334707" lon="4.550770">
<ele>7.3</ele>
<time>2026-02-13T15:36:26Z</time>
</trkpt>
<trkpt lat="52.334708" lon="4.550759">
<ele>7.5</ele>
<time>2026-02-13T15:36:26Z</time>
</trkpt>
<trkpt lat="52.334709" lon="4.550747">
<ele>7.6</ele>
<time>2026-02-13T15:36:27Z</time>
</trkpt>
<trkpt lat="52.334710" lon="4.550735">
<ele>7.6</ele>
<time>2026-02-13T15:36:27Z</time>
</trkpt>
<trkpt lat="52.334710" lon="4.550711">
<ele>7.8</ele>
<time>2026-02-13T15:36:28Z</time>
</trkpt>
<trkpt lat="52.334711" lon="4.550701">
<ele>8.2</ele>
<time>2026-02-13T15:36:29Z</time>
</trkpt>
<trkpt lat="52.334712" lon="4.550685">
<ele>8.4</ele>
<time>2026-02-13T15:36:30Z</time>
</trkpt>
<trkpt lat="52.334714" lon="4.550672">
<ele>8.4</ele>
<time>2026-02-13T15:36:30Z</time>
</trkpt>
<trkpt lat="52.334719" lon="4.550659">
<ele>8.2</ele>
<time>2026-02-13T15:36:31Z</time>
</trkpt>
<trkpt lat="52.334721" lon="4.550650">
<ele>8.2</ele>
<time>2026-02-13T15:36:32Z</time>
</trkpt>
<trkpt lat="52.334725" lon="4.550633">
<ele>8.2</ele>
<time>2026-02-13T15:36:32Z</time>
</trkpt>
<trkpt lat="52.334730" lon="4.550619">
<ele>8.2</ele>
<time>2026-02-13T15:36:33Z</time>
</trkpt>
<trkpt lat="52.334731" lon="4.550615">
<ele>8.0</ele>
<time>2026-02-13T15:36:34Z</time>
</trkpt>
<trkpt lat="52.334737" lon="4.550595">
<ele>7.6</ele>
<time>2026-02-13T15:36:35Z</time>
</trkpt>
<trkpt lat="52.334742" lon="4.550579">
<ele>7.4</ele>
<time>2026-02-13T15:36:36Z</time>
</trkpt>
<trkpt lat="52.334744" lon="4.550575">
<ele>7.4</ele>
<time>2026-02-13T15:36:36Z</time>
</trkpt>
<trkpt lat="52.334748" lon="4.550565">
<ele>7.4</ele>
<time>2026-02-13T15:36:37Z</time>
</trkpt>
<trkpt lat="52.334751" lon="4.550556">
<ele>7.5</ele>
<time>2026-02-13T15:36:38Z</time>
</trkpt>
<trkpt lat="52.334758" lon="4.550542">
<ele>7.5</ele>
<time>2026-02-13T15:36:38Z</time>
</trkpt>
<trkpt lat="52.334760" lon="4.550532">
<ele>7.5</ele>
<time>2026-02-13T15:36:39Z</time>
</trkpt>
<trkpt lat="52.334764" lon="4.550525">
<ele>7.5</ele>
<time>2026-02-13T15:36:40Z</time>
</trkpt>
<trkpt lat="52.334766" lon="4.550514">
<ele>7.7</ele>
<time>2026-02-13T15:36:40Z</time>
</trkpt>
<trkpt lat="52.334769" lon="4.550502">
<ele>7.5</ele>
<time>2026-02-13T15:36:41Z</time>
</trkpt>
<trkpt lat="52.334773" lon="4.550487">
<ele>7.5</ele>
<time>2026-02-13T15:36:41Z</time>
</trkpt>
<trkpt lat="52.334773" lon="4.550471">
<ele>7.3</ele>
<time>2026-02-13T15:36:42Z</time>
</trkpt>
<trkpt lat="52.334772" lon="4.550454">
<ele>7.1</ele>
<time>2026-02-13T15:36:43Z</time>
</trkpt>
<trkpt lat="52.334771" lon="4.550441">
<ele>7.0</ele>
<time>2026-02-13T15:36:44Z</time>
</trkpt>
<trkpt lat="52.334771" lon="4.550430">
<ele>7.0</ele>
<time>2026-02-13T15:36:44Z</time>
</trkpt>
<trkpt lat="52.334771" lon="4.550416">
<ele>7.0</ele>
<time>2026-02-13T15:36:45Z</time>
</trkpt>
<trkpt lat="52.334768" lon="4.550397">
<ele>7.0</ele>
<time>2026-02-13T15:36:46Z</time>
</trkpt>
<trkpt lat="52.334765" lon="4.550385">
<ele>6.8</ele>
<time>2026-02-13T15:36:46Z</time>
</trkpt>
<trkpt lat="52.334763" lon="4.550375">
<ele>7.1</ele>
<time>2026-02-13T15:36:47Z</time>
</trkpt>
<trkpt lat="52.334762" lon="4.550370">
<ele>7.1</ele>
<time>2026-02-13T15:36:47Z</time>
</trkpt>
<trkpt lat="52.334758" lon="4.550347">
<ele>7.0</ele>
<time>2026-02-13T15:36:48Z</time>
</trkpt>
<trkpt lat="52.334757" lon="4.550341">
<ele>7.3</ele>
<time>2026-02-13T15:36:49Z</time>
</trkpt>
<trkpt lat="52.334755" lon="4.550330">
<ele>7.3</ele>
<time>2026-02-13T15:36:49Z</time>
</trkpt>
<trkpt lat="52.334753" lon="4.550324">
<ele>7.5</ele>
<time>2026-02-13T15:36:50Z</time>
</trkpt>
<trkpt lat="52.334752" lon="4.550304">
<ele>7.5</ele>
<time>2026-02-13T15:36:51Z</time>
</trkpt>
<trkpt lat="52.334752" lon="4.550296">
<ele>7.3</ele>
<time>2026-02-13T15:36:51Z</time>
</trkpt>
<trkpt lat="52.334751" lon="4.550285">
<ele>7.3</ele>
<time>2026-02-13T15:36:52Z</time>
</trkpt>
<trkpt lat="52.334750" lon="4.550277">
<ele>7.4</ele>
<time>2026-02-13T15:36:52Z</time>
</trkpt>
<trkpt lat="52.334750" lon="4.550266">
<ele>7.4</ele>
<time>2026-02-13T15:36:53Z</time>
</trkpt>
<trkpt lat="52.334750" lon="4.550259">
<ele>7.6</ele>
<time>2026-02-13T15:36:53Z</time>
</trkpt>
<trkpt lat="52.334748" lon="4.550248">
<ele>7.6</ele>
<time>2026-02-13T15:36:54Z</time>
</trkpt>
<trkpt lat="52.334746" lon="4.550227">
<ele>7.4</ele>
<time>2026-02-13T15:36:55Z</time>
</trkpt>
<trkpt lat="52.334745" lon="4.550214">
<ele>7.5</ele>
<time>2026-02-13T15:36:55Z</time>
</trkpt>
<trkpt lat="52.334746" lon="4.550195">
<ele>7.4</ele>
<time>2026-02-13T15:36:57Z</time>
</trkpt>
<trkpt lat="52.334745" lon="4.550177">
<ele>7.4</ele>
<time>2026-02-13T15:36:58Z</time>
</trkpt>
<trkpt lat="52.334745" lon="4.550170">
<ele>7.2</ele>
<time>2026-02-13T15:36:58Z</time>
</trkpt>
<trkpt lat="52.334744" lon="4.550160">
<ele>7.4</ele>
<time>2026-02-13T15:36:59Z</time>
</trkpt>
<trkpt lat="52.334743" lon="4.550146">
<ele>7.4</ele>
<time>2026-02-13T15:36:59Z</time>
</trkpt>
<trkpt lat="52.334740" lon="4.550127">
<ele>7.1</ele>
<time>2026-02-13T15:37:00Z</time>
</trkpt>
<trkpt lat="52.334738" lon="4.550117">
<ele>7.0</ele>
<time>2026-02-13T15:37:01Z</time>
</trkpt>
<trkpt lat="52.334736" lon="4.550104">
<ele>7.0</ele>
<time>2026-02-13T15:37:01Z</time>
</trkpt>
<trkpt lat="52.334731" lon="4.550090">
<ele>7.0</ele>
<time>2026-02-13T15:37:02Z</time>
</trkpt>
<trkpt lat="52.334726" lon="4.550073">
<ele>7.0</ele>
<time>2026-02-13T15:37:02Z</time>
</trkpt>
<trkpt lat="52.334723" lon="4.550071">
<ele>7.0</ele>
<time>2026-02-13T15:37:03Z</time>
</trkpt>
<trkpt lat="52.334715" lon="4.550053">
<ele>6.7</ele>
<time>2026-02-13T15:37:04Z</time>
</trkpt>
<trkpt lat="52.334706" lon="4.550035">
<ele>6.1</ele>
<time>2026-02-13T15:37:05Z</time>
</trkpt>
<trkpt lat="52.334702" lon="4.550028">
<ele>6.3</ele>
<time>2026-02-13T15:37:05Z</time>
</trkpt>
<trkpt lat="52.334695" lon="4.550010">
<ele>6.2</ele>
<time>2026-02-13T15:37:06Z</time>
</trkpt>
<trkpt lat="52.334690" lon="4.549988">
<ele>6.3</ele>
<time>2026-02-13T15:37:07Z</time>
</trkpt>
<trkpt lat="52.334685" lon="4.549969">
<ele>6.1</ele>
<time>2026-02-13T15:37:08Z</time>
</trkpt>
<trkpt lat="52.334682" lon="4.549959">
<ele>5.9</ele>
<time>2026-02-13T15:37:09Z</time>
</trkpt>
<trkpt lat="52.334675" lon="4.549939">
<ele>5.9</ele>
<time>2026-02-13T15:37:09Z</time>
</trkpt>
<trkpt lat="52.334671" lon="4.549931">
<ele>5.9</ele>
<time>2026-02-13T15:37:10Z</time>
</trkpt>
<trkpt lat="52.334665" lon="4.549921">
<ele>5.6</ele>
<time>2026-02-13T15:37:11Z</time>
</trkpt>
<trkpt lat="52.334658" lon="4.549909">
<ele>5.6</ele>
<time>2026-02-13T15:37:11Z</time>
</trkpt>
<trkpt lat="52.334649" lon="4.549893">
<ele>5.8</ele>
<time>2026-02-13T15:37:12Z</time>
</trkpt>
<trkpt lat="52.334644" lon="4.549879">
<ele>5.8</ele>
<time>2026-02-13T15:37:14Z</time>
</trkpt>
<trkpt lat="52.334643" lon="4.549875">
<ele>5.8</ele>
<time>2026-02-13T15:37:14Z</time>
</trkpt>
<trkpt lat="52.334636" lon="4.549855">
<ele>6.1</ele>
<time>2026-02-13T15:37:15Z</time>
</trkpt>
<trkpt lat="52.334633" lon="4.549846">
<ele>6.1</ele>
<time>2026-02-13T15:37:15Z</time>
</trkpt>
<trkpt lat="52.334627" lon="4.549822">
<ele>6.2</ele>
<time>2026-02-13T15:37:16Z</time>
</trkpt>
<trkpt lat="52.334624" lon="4.549798">
<ele>6.2</ele>
<time>2026-02-13T15:37:17Z</time>
</trkpt>
<trkpt lat="52.334621" lon="4.549785">
<ele>6.6</ele>
<time>2026-02-13T15:37:17Z</time>
</trkpt>
<trkpt lat="52.334621" lon="4.549771">
<ele>7.2</ele>
<time>2026-02-13T15:37:18Z</time>
</trkpt>
<trkpt lat="52.334619" lon="4.549748">
<ele>7.2</ele>
<time>2026-02-13T15:37:18Z</time>
</trkpt>
<trkpt lat="52.334616" lon="4.549728">
<ele>7.8</ele>
<time>2026-02-13T15:37:19Z</time>
</trkpt>
<trkpt lat="52.334614" lon="4.549711">
<ele>8.1</ele>
<time>2026-02-13T15:37:20Z</time>
</trkpt>
<trkpt lat="52.334614" lon="4.549693">
<ele>8.1</ele>
<time>2026-02-13T15:37:20Z</time>
</trkpt>
<trkpt lat="52.334614" lon="4.549679">
<ele>8.5</ele>
<time>2026-02-13T15:37:21Z</time>
</trkpt>
<trkpt lat="52.334615" lon="4.549669">
<ele>8.5</ele>
<time>2026-02-13T15:37:22Z</time>
</trkpt>
<trkpt lat="52.334616" lon="4.549660">
<ele>8.7</ele>
<time>2026-02-13T15:37:22Z</time>
</trkpt>
<trkpt lat="52.334618" lon="4.549654">
<ele>9.0</ele>
<time>2026-02-13T15:37:23Z</time>
</trkpt>
<trkpt lat="52.334623" lon="4.549644">
<ele>9.0</ele>
<time>2026-02-13T15:37:23Z</time>
</trkpt>
<trkpt lat="52.334628" lon="4.549640">
<ele>9.1</ele>
<time>2026-02-13T15:37:24Z</time>
</trkpt>
<trkpt lat="52.334631" lon="4.549638">
<ele>9.1</ele>
<time>2026-02-13T15:37:25Z</time>
</trkpt>
<trkpt lat="52.334637" lon="4.549626">
<ele>9.1</ele>
<time>2026-02-13T15:37:25Z</time>
</trkpt>
<trkpt lat="52.334642" lon="4.549608">
<ele>9.1</ele>
<time>2026-02-13T15:37:27Z</time>
</trkpt>
<trkpt lat="52.334646" lon="4.549594">
<ele>9.1</ele>
<time>2026-02-13T15:37:28Z</time>
</trkpt>
<trkpt lat="52.334649" lon="4.549584">
<ele>9.1</ele>
<time>2026-02-13T15:37:29Z</time>
</trkpt>
<trkpt lat="52.334655" lon="4.549570">
<ele>9.1</ele>
<time>2026-02-13T15:37:30Z</time>
</trkpt>
<trkpt lat="52.334661" lon="4.549554">
<ele>9.0</ele>
<time>2026-02-13T15:37:30Z</time>
</trkpt>
<trkpt lat="52.334664" lon="4.549547">
<ele>8.4</ele>
<time>2026-02-13T15:37:31Z</time>
</trkpt>
<trkpt lat="52.334668" lon="4.549539">
<ele>8.4</ele>
<time>2026-02-13T15:37:32Z</time>
</trkpt>
<trkpt lat="52.334673" lon="4.549533">
<ele>8.4</ele>
<time>2026-02-13T15:37:32Z</time>
</trkpt>
<trkpt lat="52.334683" lon="4.549521">
<ele>8.4</ele>
<time>2026-02-13T15:37:33Z</time>
</trkpt>
<trkpt lat="52.334686" lon="4.549509">
<ele>7.6</ele>
<time>2026-02-13T15:37:34Z</time>
</trkpt>
<trkpt lat="52.334686" lon="4.549503">
<ele>7.4</ele>
<time>2026-02-13T15:37:34Z</time>
</trkpt>
<trkpt lat="52.334690" lon="4.549494">
<ele>7.4</ele>
<time>2026-02-13T15:37:35Z</time>
</trkpt>
<trkpt lat="52.334690" lon="4.549488">
<ele>7.1</ele>
<time>2026-02-13T15:37:35Z</time>
</trkpt>
<trkpt lat="52.334695" lon="4.549482">
<ele>7.1</ele>
<time>2026-02-13T15:37:36Z</time>
</trkpt>
<trkpt lat="52.334698" lon="4.549472">
<ele>6.8</ele>
<time>2026-02-13T15:37:36Z</time>
</trkpt>
<trkpt lat="52.334697" lon="4.549455">
<ele>6.8</ele>
<time>2026-02-13T15:37:37Z</time>
</trkpt>
<trkpt lat="52.334695" lon="4.549443">
<ele>6.5</ele>
<time>2026-02-13T15:37:38Z</time>
</trkpt>
<trkpt lat="52.334695" lon="4.549431">
<ele>6.5</ele>
<time>2026-02-13T15:37:38Z</time>
</trkpt>
<trkpt lat="52.334693" lon="4.549423">
<ele>6.4</ele>
<time>2026-02-13T15:37:39Z</time>
</trkpt>
<trkpt lat="52.334693" lon="4.549411">
<ele>6.4</ele>
<time>2026-02-13T15:37:39Z</time>
</trkpt>
<trkpt lat="52.334687" lon="4.549397">
<ele>6.1</ele>
<time>2026-02-13T15:37:40Z</time>
</trkpt>
<trkpt lat="52.334685" lon="4.549390">
<ele>6.1</ele>
<time>2026-02-13T15:37:40Z</time>
</trkpt>
<trkpt lat="52.334685" lon="4.549376">
<ele>6.2</ele>
<time>2026-02-13T15:37:41Z</time>
</trkpt>
<trkpt lat="52.334675" lon="4.549366">
<ele>6.0</ele>
<time>2026-02-13T15:37:42Z</time>
</trkpt>
<trkpt lat="52.334670" lon="4.549358">
<ele>6.0</ele>
<time>2026-02-13T15:37:42Z</time>
</trkpt>
<trkpt lat="52.334664" lon="4.549350">
<ele>6.0</ele>
<time>2026-02-13T15:37:43Z</time>
</trkpt>
<trkpt lat="52.334658" lon="4.549336">
<ele>6.0</ele>
<time>2026-02-13T15:37:43Z</time>
</trkpt>
<trkpt lat="52.334650" lon="4.549330">
<ele>6.0</ele>
<time>2026-02-13T15:37:44Z</time>
</trkpt>
<trkpt lat="52.334646" lon="4.549321">
<ele>6.0</ele>
<time>2026-02-13T15:37:44Z</time>
</trkpt>
<trkpt lat="52.334638" lon="4.549314">
<ele>6.1</ele>
<time>2026-02-13T15:37:45Z</time>
</trkpt>
<trkpt lat="52.334635" lon="4.549303">
<ele>6.1</ele>
<time>2026-02-13T15:37:45Z</time>
</trkpt>
<trkpt lat="52.334629" lon="4.549295">
<ele>6.1</ele>
<time>2026-02-13T15:37:46Z</time>
</trkpt>
<trkpt lat="52.334623" lon="4.549288">
<ele>6.2</ele>
<time>2026-02-13T15:37:47Z</time>
</trkpt>
<trkpt lat="52.334615" lon="4.549274">
<ele>6.2</ele>
<time>2026-02-13T15:37:47Z</time>
</trkpt>
<trkpt lat="52.334610" lon="4.549274">
<ele>6.2</ele>
<time>2026-02-13T15:37:48Z</time>
</trkpt>
<trkpt lat="52.334603" lon="4.549264">
<ele>6.2</ele>
<time>2026-02-13T15:37:49Z</time>
</trkpt>
<trkpt lat="52.334597" lon="4.549248">
<ele>6.2</ele>
<time>2026-02-13T15:37:49Z</time>
</trkpt>
<trkpt lat="52.334590" lon="4.549235">
<ele>6.2</ele>
<time>2026-02-13T15:37:50Z</time>
</trkpt>
<trkpt lat="52.334584" lon="4.549225">
<ele>6.0</ele>
<time>2026-02-13T15:37:51Z</time>
</trkpt>
<trkpt lat="52.334580" lon="4.549216">
<ele>6.0</ele>
<time>2026-02-13T15:37:51Z</time>
</trkpt>
<trkpt lat="52.334577" lon="4.549206">
<ele>6.0</ele>
<time>2026-02-13T15:37:52Z</time>
</trkpt>
<trkpt lat="52.334569" lon="4.549197">
<ele>6.0</ele>
<time>2026-02-13T15:37:52Z</time>
</trkpt>
<trkpt lat="52.334562" lon="4.549193">
<ele>6.0</ele>
<time>2026-02-13T15:37:53Z</time>
</trkpt>
<trkpt lat="52.334557" lon="4.549183">
<ele>6.0</ele>
<time>2026-02-13T15:37:53Z</time>
</trkpt>
<trkpt lat="52.334552" lon="4.549177">
<ele>5.9</ele>
<time>2026-02-13T15:37:54Z</time>
</trkpt>
<trkpt lat="52.334545" lon="4.549156">
<ele>5.9</ele>
<time>2026-02-13T15:37:54Z</time>
</trkpt>
<trkpt lat="52.334538" lon="4.549140">
<ele>5.8</ele>
<time>2026-02-13T15:37:56Z</time>
</trkpt>
<trkpt lat="52.334531" lon="4.549131">
<ele>5.4</ele>
<time>2026-02-13T15:37:57Z</time>
</trkpt>
<trkpt lat="52.334526" lon="4.549119">
<ele>5.4</ele>
<time>2026-02-13T15:37:57Z</time>
</trkpt>
<trkpt lat="52.334524" lon="4.549098">
<ele>5.3</ele>
<time>2026-02-13T15:37:59Z</time>
</trkpt>
<trkpt lat="52.334526" lon="4.549079">
<ele>5.2</ele>
<time>2026-02-13T15:38:00Z</time>
</trkpt>
<trkpt lat="52.334528" lon="4.549058">
<ele>5.2</ele>
<time>2026-02-13T15:38:01Z</time>
</trkpt>
<trkpt lat="52.334529" lon="4.549054">
<ele>5.3</ele>
<time>2026-02-13T15:38:01Z</time>
</trkpt>
<trkpt lat="52.334530" lon="4.549027">
<ele>4.7</ele>
<time>2026-02-13T15:38:02Z</time>
</trkpt>
<trkpt lat="52.334531" lon="4.549021">
<ele>4.9</ele>
<time>2026-02-13T15:38:03Z</time>
</trkpt>
<trkpt lat="52.334532" lon="4.549008">
<ele>4.7</ele>
<time>2026-02-13T15:38:04Z</time>
</trkpt>
<trkpt lat="52.334534" lon="4.548997">
<ele>4.7</ele>
<time>2026-02-13T15:38:04Z</time>
</trkpt>
<trkpt lat="52.334535" lon="4.548989">
<ele>4.8</ele>
<time>2026-02-13T15:38:05Z</time>
</trkpt>
<trkpt lat="52.334536" lon="4.548978">
<ele>4.8</ele>
<time>2026-02-13T15:38:05Z</time>
</trkpt>
<trkpt lat="52.334537" lon="4.548970">
<ele>4.5</ele>
<time>2026-02-13T15:38:06Z</time>
</trkpt>
<trkpt lat="52.334538" lon="4.548959">
<ele>4.5</ele>
<time>2026-02-13T15:38:06Z</time>
</trkpt>
<trkpt lat="52.334541" lon="4.548940">
<ele>4.3</ele>
<time>2026-02-13T15:38:07Z</time>
</trkpt>
<trkpt lat="52.334544" lon="4.548933">
<ele>4.1</ele>
<time>2026-02-13T15:38:08Z</time>
</trkpt>
<trkpt lat="52.334545" lon="4.548921">
<ele>4.1</ele>
<time>2026-02-13T15:38:08Z</time>
</trkpt>
<trkpt lat="52.334549" lon="4.548909">
<ele>3.5</ele>
<time>2026-02-13T15:38:09Z</time>
</trkpt>
<trkpt lat="52.334551" lon="4.548902">
<ele>3.5</ele>
<time>2026-02-13T15:38:09Z</time>
</trkpt>
<trkpt lat="52.334553" lon="4.548895">
<ele>3.5</ele>
<time>2026-02-13T15:38:10Z</time>
</trkpt>
<trkpt lat="52.334554" lon="4.548882">
<ele>3.5</ele>
<time>2026-02-13T15:38:10Z</time>
</trkpt>
<trkpt lat="52.334556" lon="4.548876">
<ele>3.2</ele>
<time>2026-02-13T15:38:11Z</time>
</trkpt>
<trkpt lat="52.334556" lon="4.548864">
<ele>3.2</ele>
<time>2026-02-13T15:38:11Z</time>
</trkpt>
<trkpt lat="52.334558" lon="4.548859">
<ele>2.8</ele>
<time>2026-02-13T15:38:12Z</time>
</trkpt>
<trkpt lat="52.334558" lon="4.548847">
<ele>2.8</ele>
<time>2026-02-13T15:38:12Z</time>
</trkpt>
<trkpt lat="52.334559" lon="4.548838">
<ele>2.8</ele>
<time>2026-02-13T15:38:13Z</time>
</trkpt>
<trkpt lat="52.334559" lon="4.548828">
<ele>2.5</ele>
<time>2026-02-13T15:38:14Z</time>
</trkpt>
<trkpt lat="52.334559" lon="4.548811">
<ele>2.5</ele>
<time>2026-02-13T15:38:14Z</time>
</trkpt>
<trkpt lat="52.334560" lon="4.548803">
<ele>2.7</ele>
<time>2026-02-13T15:38:15Z</time>
</trkpt>
<trkpt lat="52.334560" lon="4.548788">
<ele>2.7</ele>
<time>2026-02-13T15:38:16Z</time>
</trkpt>
<trkpt lat="52.334559" lon="4.548769">
<ele>2.9</ele>
<time>2026-02-13T15:38:16Z</time>
</trkpt>
<trkpt lat="52.334560" lon="4.548762">
<ele>3.0</ele>
<time>2026-02-13T15:38:17Z</time>
</trkpt>
<trkpt lat="52.334562" lon="4.548751">
<ele>2.9</ele>
<time>2026-02-13T15:38:18Z</time>
</trkpt>
<trkpt lat="52.334565" lon="4.548734">
<ele>2.9</ele>
<time>2026-02-13T15:38:19Z</time>
</trkpt>
<trkpt lat="52.334571" lon="4.548716">
<ele>2.6</ele>
<time>2026-02-13T15:38:20Z</time>
</trkpt>
<trkpt lat="52.334574" lon="4.548698">
<ele>2.6</ele>
<time>2026-02-13T15:38:21Z</time>
</trkpt>
<trkpt lat="52.334575" lon="4.548688">
<ele>2.6</ele>
<time>2026-02-13T15:38:21Z</time>
</trkpt>
<trkpt lat="52.334577" lon="4.548679">
<ele>2.9</ele>
<time>2026-02-13T15:38:22Z</time>
</trkpt>
<trkpt lat="52.334577" lon="4.548669">
<ele>2.9</ele>
<time>2026-02-13T15:38:22Z</time>
</trkpt>
<trkpt lat="52.334577" lon="4.548661">
<ele>2.8</ele>
<time>2026-02-13T15:38:23Z</time>
</trkpt>
<trkpt lat="52.334577" lon="4.548638">
<ele>2.8</ele>
<time>2026-02-13T15:38:23Z</time>
</trkpt>
<trkpt lat="52.334579" lon="4.548628">
<ele>2.7</ele>
<time>2026-02-13T15:38:24Z</time>
</trkpt>
<trkpt lat="52.334580" lon="4.548618">
<ele>2.7</ele>
<time>2026-02-13T15:38:25Z</time>
</trkpt>
<trkpt lat="52.334580" lon="4.548608">
<ele>2.7</ele>
<time>2026-02-13T15:38:25Z</time>
</trkpt>
<trkpt lat="52.334582" lon="4.548598">
<ele>2.6</ele>
<time>2026-02-13T15:38:26Z</time>
</trkpt>
<trkpt lat="52.334584" lon="4.548584">
<ele>2.7</ele>
<time>2026-02-13T15:38:27Z</time>
</trkpt>
<trkpt lat="52.334587" lon="4.548569">
<ele>2.7</ele>
<time>2026-02-13T15:38:27Z</time>
</trkpt>
<trkpt lat="52.334589" lon="4.548559">
<ele>2.8</ele>
<time>2026-02-13T15:38:28Z</time>
</trkpt>
<trkpt lat="52.334591" lon="4.548548">
<ele>2.8</ele>
<time>2026-02-13T15:38:28Z</time>
</trkpt>
<trkpt lat="52.334593" lon="4.548538">
<ele>2.8</ele>
<time>2026-02-13T15:38:29Z</time>
</trkpt>
<trkpt lat="52.334593" lon="4.548535">
<ele>2.5</ele>
<time>2026-02-13T15:38:30Z</time>
</trkpt>
<trkpt lat="52.334593" lon="4.548528">
<ele>2.5</ele>
<time>2026-02-13T15:38:30Z</time>
</trkpt>
<trkpt lat="52.334589" lon="4.548507">
<ele>1.8</ele>
<time>2026-02-13T15:38:31Z</time>
</trkpt>
<trkpt lat="52.334584" lon="4.548482">
<ele>1.7</ele>
<time>2026-02-13T15:38:32Z</time>
</trkpt>
<trkpt lat="52.334581" lon="4.548452">
<ele>2.0</ele>
<time>2026-02-13T15:38:33Z</time>
</trkpt>
<trkpt lat="52.334581" lon="4.548428">
<ele>1.8</ele>
<time>2026-02-13T15:38:34Z</time>
</trkpt>
<trkpt lat="52.334585" lon="4.548415">
<ele>1.5</ele>
<time>2026-02-13T15:38:35Z</time>
</trkpt>
<trkpt lat="52.334587" lon="4.548399">
<ele>1.4</ele>
<time>2026-02-13T15:38:36Z</time>
</trkpt>
<trkpt lat="52.334589" lon="4.548381">
<ele>1.4</ele>
<time>2026-02-13T15:38:36Z</time>
</trkpt>
<trkpt lat="52.334589" lon="4.548364">
<ele>1.3</ele>
<time>2026-02-13T15:38:37Z</time>
</trkpt>
<trkpt lat="52.334589" lon="4.548352">
<ele>1.0</ele>
<time>2026-02-13T15:38:38Z</time>
</trkpt>
<trkpt lat="52.334586" lon="4.548335">
<ele>1.0</ele>
<time>2026-02-13T15:38:38Z</time>
</trkpt>
<trkpt lat="52.334580" lon="4.548309">
<ele>1.1</ele>
<time>2026-02-13T15:38:40Z</time>
</trkpt>
<trkpt lat="52.334577" lon="4.548290">
<ele>1.1</ele>
<time>2026-02-13T15:38:41Z</time>
</trkpt>
<trkpt lat="52.334579" lon="4.548284">
<ele>1.1</ele>
<time>2026-02-13T15:38:41Z</time>
</trkpt>
<trkpt lat="52.334583" lon="4.548271">
<ele>1.2</ele>
<time>2026-02-13T15:38:42Z</time>
</trkpt>
<trkpt lat="52.334584" lon="4.548253">
<ele>1.2</ele>
<time>2026-02-13T15:38:43Z</time>
</trkpt>
<trkpt lat="52.334584" lon="4.548244">
<ele>1.2</ele>
<time>2026-02-13T15:38:43Z</time>
</trkpt>
<trkpt lat="52.334581" lon="4.548224">
<ele>1.6</ele>
<time>2026-02-13T15:38:44Z</time>
</trkpt>
<trkpt lat="52.334579" lon="4.548212">
<ele>1.7</ele>
<time>2026-02-13T15:38:45Z</time>
</trkpt>
<trkpt lat="52.334571" lon="4.548187">
<ele>1.7</ele>
<time>2026-02-13T15:38:45Z</time>
</trkpt>
<trkpt lat="52.334560" lon="4.548167">
<ele>1.9</ele>
<time>2026-02-13T15:38:47Z</time>
</trkpt>
<trkpt lat="52.334550" lon="4.548150">
<ele>1.8</ele>
<time>2026-02-13T15:38:48Z</time>
</trkpt>
<trkpt lat="52.334545" lon="4.548144">
<ele>2.0</ele>
<time>2026-02-13T15:38:48Z</time>
</trkpt>
<trkpt lat="52.334537" lon="4.548126">
<ele>1.9</ele>
<time>2026-02-13T15:38:49Z</time>
</trkpt>
<trkpt lat="52.334528" lon="4.548120">
<ele>1.8</ele>
<time>2026-02-13T15:38:51Z</time>
</trkpt>
<trkpt lat="52.334527" lon="4.548122">
<ele>1.8</ele>
<time>2026-02-13T15:38:51Z</time>
</trkpt>
<trkpt lat="52.334523" lon="4.548115">
<ele>1.8</ele>
<time>2026-02-13T15:38:52Z</time>
</trkpt>
<trkpt lat="52.334520" lon="4.548110">
<ele>1.8</ele>
<time>2026-02-13T15:38:52Z</time>
</trkpt>
<trkpt lat="52.334516" lon="4.548098">
<ele>1.9</ele>
<time>2026-02-13T15:38:53Z</time>
</trkpt>
<trkpt lat="52.334512" lon="4.548090">
<ele>1.9</ele>
<time>2026-02-13T15:38:53Z</time>
</trkpt>
<trkpt lat="52.334508" lon="4.548080">
<ele>1.8</ele>
<time>2026-02-13T15:38:54Z</time>
</trkpt>
<trkpt lat="52.334503" lon="4.548069">
<ele>1.8</ele>
<time>2026-02-13T15:38:54Z</time>
</trkpt>
<trkpt lat="52.334500" lon="4.548059">
<ele>2.0</ele>
<time>2026-02-13T15:38:55Z</time>
</trkpt>
<trkpt lat="52.334494" lon="4.548046">
<ele>2.0</ele>
<time>2026-02-13T15:38:55Z</time>
</trkpt>
<trkpt lat="52.334490" lon="4.548036">
<ele>2.1</ele>
<time>2026-02-13T15:38:56Z</time>
</trkpt>
<trkpt lat="52.334486" lon="4.548027">
<ele>2.1</ele>
<time>2026-02-13T15:38:56Z</time>
</trkpt>
<trkpt lat="52.334482" lon="4.548015">
<ele>2.3</ele>
<time>2026-02-13T15:38:57Z</time>
</trkpt>
<trkpt lat="52.334479" lon="4.548003">
<ele>2.3</ele>
<time>2026-02-13T15:38:57Z</time>
</trkpt>
<trkpt lat="52.334476" lon="4.547992">
<ele>2.3</ele>
<time>2026-02-13T15:38:58Z</time>
</trkpt>
<trkpt lat="52.334473" lon="4.547979">
<ele>2.3</ele>
<time>2026-02-13T15:38:58Z</time>
</trkpt>
<trkpt lat="52.334470" lon="4.547968">
<ele>2.3</ele>
<time>2026-02-13T15:38:59Z</time>
</trkpt>
<trkpt lat="52.334468" lon="4.547954">
<ele>2.3</ele>
<time>2026-02-13T15:38:59Z</time>
</trkpt>
<trkpt lat="52.334466" lon="4.547940">
<ele>1.8</ele>
<time>2026-02-13T15:39:00Z</time>
</trkpt>
<trkpt lat="52.334465" lon="4.547929">
<ele>1.8</ele>
<time>2026-02-13T15:39:00Z</time>
</trkpt>
<trkpt lat="52.334463" lon="4.547923">
<ele>2.1</ele>
<time>2026-02-13T15:39:01Z</time>
</trkpt>
<trkpt lat="52.334463" lon="4.547911">
<ele>2.1</ele>
<time>2026-02-13T15:39:01Z</time>
</trkpt>
<trkpt lat="52.334460" lon="4.547898">
<ele>2.3</ele>
<time>2026-02-13T15:39:02Z</time>
</trkpt>
<trkpt lat="52.334459" lon="4.547888">
<ele>2.3</ele>
<time>2026-02-13T15:39:02Z</time>
</trkpt>
<trkpt lat="52.334455" lon="4.547881">
<ele>2.2</ele>
<time>2026-02-13T15:39:03Z</time>
</trkpt>
<trkpt lat="52.334449" lon="4.547870">
<ele>2.3</ele>
<time>2026-02-13T15:39:04Z</time>
</trkpt>
<trkpt lat="52.334442" lon="4.547856">
<ele>2.3</ele>
<time>2026-02-13T15:39:04Z</time>
</trkpt>
<trkpt lat="52.334434" lon="4.547850">
<ele>2.3</ele>
<time>2026-02-13T15:39:05Z</time>
</trkpt>
<trkpt lat="52.334427" lon="4.547844">
<ele>2.3</ele>
<time>2026-02-13T15:39:06Z</time>
</trkpt>
<trkpt lat="52.334418" lon="4.547833">
<ele>2.3</ele>
<time>2026-02-13T15:39:06Z</time>
</trkpt>
<trkpt lat="52.334407" lon="4.547822">
<ele>2.1</ele>
<time>2026-02-13T15:39:07Z</time>
</trkpt>
<trkpt lat="52.334402" lon="4.547815">
<ele>2.1</ele>
<time>2026-02-13T15:39:07Z</time>
</trkpt>
<trkpt lat="52.334395" lon="4.547807">
<ele>2.2</ele>
<time>2026-02-13T15:39:08Z</time>
</trkpt>
<trkpt lat="52.334389" lon="4.547800">
<ele>2.2</ele>
<time>2026-02-13T15:39:09Z</time>
</trkpt>
<trkpt lat="52.334382" lon="4.547791">
<ele>2.3</ele>
<time>2026-02-13T15:39:10Z</time>
</trkpt>
<trkpt lat="52.334372" lon="4.547780">
<ele>2.3</ele>
<time>2026-02-13T15:39:10Z</time>
</trkpt>
<trkpt lat="52.334366" lon="4.547774">
<ele>2.3</ele>
<time>2026-02-13T15:39:11Z</time>
</trkpt>
<trkpt lat="52.334360" lon="4.547766">
<ele>2.3</ele>
<time>2026-02-13T15:39:12Z</time>
</trkpt>
<trkpt lat="52.334355" lon="4.547763">
<ele>2.3</ele>
<time>2026-02-13T15:39:12Z</time>
</trkpt>
<trkpt lat="52.334347" lon="4.547757">
<ele>2.1</ele>
<time>2026-02-13T15:39:13Z</time>
</trkpt>
<trkpt lat="52.334336" lon="4.547751">
<ele>2.3</ele>
<time>2026-02-13T15:39:14Z</time>
</trkpt>
<trkpt lat="52.334336" lon="4.547750">
<ele>2.6</ele>
<time>2026-02-13T15:39:14Z</time>
</trkpt>
<trkpt lat="52.334321" lon="4.547739">
<ele>2.6</ele>
<time>2026-02-13T15:39:15Z</time>
</trkpt>
<trkpt lat="52.334320" lon="4.547735">
<ele>2.9</ele>
<time>2026-02-13T15:39:15Z</time>
</trkpt>
<trkpt lat="52.334314" lon="4.547729">
<ele>2.9</ele>
<time>2026-02-13T15:39:16Z</time>
</trkpt>
<trkpt lat="52.334309" lon="4.547721">
<ele>2.9</ele>
<time>2026-02-13T15:39:16Z</time>
</trkpt>
<trkpt lat="52.334302" lon="4.547705">
<ele>3.4</ele>
<time>2026-02-13T15:39:17Z</time>
</trkpt>
<trkpt lat="52.334297" lon="4.547695">
<ele>3.4</ele>
<time>2026-02-13T15:39:18Z</time>
</trkpt>
<trkpt lat="52.334295" lon="4.547684">
<ele>3.7</ele>
<time>2026-02-13T15:39:18Z</time>
</trkpt>
<trkpt lat="52.334293" lon="4.547672">
<ele>3.6</ele>
<time>2026-02-13T15:39:19Z</time>
</trkpt>
<trkpt lat="52.334290" lon="4.547661">
<ele>3.6</ele>
<time>2026-02-13T15:39:19Z</time>
</trkpt>
<trkpt lat="52.334289" lon="4.547650">
<ele>3.5</ele>
<time>2026-02-13T15:39:20Z</time>
</trkpt>
<trkpt lat="52.334285" lon="4.547636">
<ele>3.5</ele>
<time>2026-02-13T15:39:20Z</time>
</trkpt>
<trkpt lat="52.334282" lon="4.547618">
<ele>3.4</ele>
<time>2026-02-13T15:39:21Z</time>
</trkpt>
<trkpt lat="52.334278" lon="4.547604">
<ele>3.3</ele>
<time>2026-02-13T15:39:22Z</time>
</trkpt>
<trkpt lat="52.334275" lon="4.547594">
<ele>3.3</ele>
<time>2026-02-13T15:39:22Z</time>
</trkpt>
<trkpt lat="52.334273" lon="4.547586">
<ele>3.4</ele>
<time>2026-02-13T15:39:23Z</time>
</trkpt>
<trkpt lat="52.334270" lon="4.547574">
<ele>3.4</ele>
<time>2026-02-13T15:39:23Z</time>
</trkpt>
<trkpt lat="52.334268" lon="4.547566">
<ele>3.3</ele>
<time>2026-02-13T15:39:24Z</time>
</trkpt>
<trkpt lat="52.334262" lon="4.547544">
<ele>3.5</ele>
<time>2026-02-13T15:39:25Z</time>
</trkpt>
<trkpt lat="52.334260" lon="4.547537">
<ele>3.5</ele>
<time>2026-02-13T15:39:25Z</time>
</trkpt>
<trkpt lat="52.334258" lon="4.547530">
<ele>3.8</ele>
<time>2026-02-13T15:39:26Z</time>
</trkpt>
<trkpt lat="52.334255" lon="4.547521">
<ele>3.8</ele>
<time>2026-02-13T15:39:26Z</time>
</trkpt>
<trkpt lat="52.334252" lon="4.547513">
<ele>3.7</ele>
<time>2026-02-13T15:39:27Z</time>
</trkpt>
<trkpt lat="52.334248" lon="4.547503">
<ele>3.7</ele>
<time>2026-02-13T15:39:27Z</time>
</trkpt>
<trkpt lat="52.334245" lon="4.547496">
<ele>3.5</ele>
<time>2026-02-13T15:39:28Z</time>
</trkpt>
<trkpt lat="52.334240" lon="4.547487">
<ele>3.5</ele>
<time>2026-02-13T15:39:28Z</time>
</trkpt>
<trkpt lat="52.334236" lon="4.547478">
<ele>3.0</ele>
<time>2026-02-13T15:39:29Z</time>
</trkpt>
<trkpt lat="52.334232" lon="4.547468">
<ele>3.0</ele>
<time>2026-02-13T15:39:29Z</time>
</trkpt>
<trkpt lat="52.334220" lon="4.547442">
<ele>3.6</ele>
<time>2026-02-13T15:39:31Z</time>
</trkpt>
<trkpt lat="52.334213" lon="4.547424">
<ele>3.5</ele>
<time>2026-02-13T15:39:32Z</time>
</trkpt>
<trkpt lat="52.334209" lon="4.547412">
<ele>3.3</ele>
<time>2026-02-13T15:39:32Z</time>
</trkpt>
<trkpt lat="52.334207" lon="4.547402">
<ele>3.3</ele>
<time>2026-02-13T15:39:33Z</time>
</trkpt>
<trkpt lat="52.334204" lon="4.547390">
<ele>3.3</ele>
<time>2026-02-13T15:39:33Z</time>
</trkpt>
<trkpt lat="52.334203" lon="4.547378">
<ele>3.3</ele>
<time>2026-02-13T15:39:34Z</time>
</trkpt>
<trkpt lat="52.334202" lon="4.547366">
<ele>3.3</ele>
<time>2026-02-13T15:39:34Z</time>
</trkpt>
<trkpt lat="52.334200" lon="4.547356">
<ele>3.5</ele>
<time>2026-02-13T15:39:35Z</time>
</trkpt>
<trkpt lat="52.334196" lon="4.547343">
<ele>3.5</ele>
<time>2026-02-13T15:39:35Z</time>
</trkpt>
<trkpt lat="52.334189" lon="4.547316">
<ele>3.3</ele>
<time>2026-02-13T15:39:36Z</time>
</trkpt>
<trkpt lat="52.334188" lon="4.547312">
<ele>3.2</ele>
<time>2026-02-13T15:39:37Z</time>
</trkpt>
<trkpt lat="52.334184" lon="4.547300">
<ele>3.2</ele>
<time>2026-02-13T15:39:38Z</time>
</trkpt>
<trkpt lat="52.334179" lon="4.547279">
<ele>3.2</ele>
<time>2026-02-13T15:39:39Z</time>
</trkpt>
<trkpt lat="52.334177" lon="4.547269">
<ele>3.3</ele>
<time>2026-02-13T15:39:39Z</time>
</trkpt>
<trkpt lat="52.334175" lon="4.547258">
<ele>3.5</ele>
<time>2026-02-13T15:39:40Z</time>
</trkpt>
<trkpt lat="52.334170" lon="4.547238">
<ele>3.5</ele>
<time>2026-02-13T15:39:41Z</time>
</trkpt>
<trkpt lat="52.334167" lon="4.547229">
<ele>3.5</ele>
<time>2026-02-13T15:39:41Z</time>
</trkpt>
<trkpt lat="52.334165" lon="4.547220">
<ele>3.8</ele>
<time>2026-02-13T15:39:42Z</time>
</trkpt>
<trkpt lat="52.334162" lon="4.547210">
<ele>3.8</ele>
<time>2026-02-13T15:39:42Z</time>
</trkpt>
<trkpt lat="52.334159" lon="4.547199">
<ele>3.8</ele>
<time>2026-02-13T15:39:43Z</time>
</trkpt>
<trkpt lat="52.334158" lon="4.547189">
<ele>3.9</ele>
<time>2026-02-13T15:39:43Z</time>
</trkpt>
<trkpt lat="52.334157" lon="4.547179">
<ele>4.1</ele>
<time>2026-02-13T15:39:44Z</time>
</trkpt>
<trkpt lat="52.334154" lon="4.547168">
<ele>4.1</ele>
<time>2026-02-13T15:39:44Z</time>
</trkpt>
<trkpt lat="52.334150" lon="4.547155">
<ele>4.0</ele>
<time>2026-02-13T15:39:45Z</time>
</trkpt>
<trkpt lat="52.334145" lon="4.547133">
<ele>4.1</ele>
<time>2026-02-13T15:39:46Z</time>
</trkpt>
<trkpt lat="52.334142" lon="4.547115">
<ele>3.9</ele>
<time>2026-02-13T15:39:47Z</time>
</trkpt>
<trkpt lat="52.334142" lon="4.547098">
<ele>3.8</ele>
<time>2026-02-13T15:39:48Z</time>
</trkpt>
<trkpt lat="52.334140" lon="4.547088">
<ele>3.8</ele>
<time>2026-02-13T15:39:48Z</time>
</trkpt>
<trkpt lat="52.334138" lon="4.547078">
<ele>3.9</ele>
<time>2026-02-13T15:39:49Z</time>
</trkpt>
<trkpt lat="52.334135" lon="4.547068">
<ele>3.9</ele>
<time>2026-02-13T15:39:49Z</time>
</trkpt>
<trkpt lat="52.334134" lon="4.547058">
<ele>3.5</ele>
<time>2026-02-13T15:39:50Z</time>
</trkpt>
<trkpt lat="52.334130" lon="4.547046">
<ele>3.5</ele>
<time>2026-02-13T15:39:50Z</time>
</trkpt>
<trkpt lat="52.334128" lon="4.547031">
<ele>3.6</ele>
<time>2026-02-13T15:39:51Z</time>
</trkpt>
<trkpt lat="52.334124" lon="4.547017">
<ele>3.4</ele>
<time>2026-02-13T15:39:52Z</time>
</trkpt>
<trkpt lat="52.334121" lon="4.547006">
<ele>3.4</ele>
<time>2026-02-13T15:39:52Z</time>
</trkpt>
<trkpt lat="52.334118" lon="4.546997">
<ele>3.6</ele>
<time>2026-02-13T15:39:53Z</time>
</trkpt>
<trkpt lat="52.334117" lon="4.546981">
<ele>3.6</ele>
<time>2026-02-13T15:39:53Z</time>
</trkpt>
<trkpt lat="52.334118" lon="4.546970">
<ele>4.1</ele>
<time>2026-02-13T15:39:54Z</time>
</trkpt>
<trkpt lat="52.334115" lon="4.546959">
<ele>4.1</ele>
<time>2026-02-13T15:39:54Z</time>
</trkpt>
<trkpt lat="52.334115" lon="4.546943">
<ele>3.8</ele>
<time>2026-02-13T15:39:55Z</time>
</trkpt>
<trkpt lat="52.334114" lon="4.546928">
<ele>3.6</ele>
<time>2026-02-13T15:39:56Z</time>
</trkpt>
<trkpt lat="52.334111" lon="4.546913">
<ele>3.6</ele>
<time>2026-02-13T15:39:56Z</time>
</trkpt>
<trkpt lat="52.334110" lon="4.546900">
<ele>3.5</ele>
<time>2026-02-13T15:39:57Z</time>
</trkpt>
<trkpt lat="52.334108" lon="4.546886">
<ele>3.6</ele>
<time>2026-02-13T15:39:58Z</time>
</trkpt>
<trkpt lat="52.334103" lon="4.546867">
<ele>3.6</ele>
<time>2026-02-13T15:39:58Z</time>
</trkpt>
<trkpt lat="52.334096" lon="4.546840">
<ele>3.4</ele>
<time>2026-02-13T15:40:00Z</time>
</trkpt>
<trkpt lat="52.334094" lon="4.546820">
<ele>3.3</ele>
<time>2026-02-13T15:40:01Z</time>
</trkpt>
<trkpt lat="52.334096" lon="4.546808">
<ele>3.1</ele>
<time>2026-02-13T15:40:01Z</time>
</trkpt>
<trkpt lat="52.334099" lon="4.546796">
<ele>3.0</ele>
<time>2026-02-13T15:40:02Z</time>
</trkpt>
<trkpt lat="52.334099" lon="4.546783">
<ele>3.0</ele>
<time>2026-02-13T15:40:03Z</time>
</trkpt>
<trkpt lat="52.334096" lon="4.546766">
<ele>3.0</ele>
<time>2026-02-13T15:40:03Z</time>
</trkpt>
<trkpt lat="52.334097" lon="4.546753">
<ele>3.0</ele>
<time>2026-02-13T15:40:04Z</time>
</trkpt>
<trkpt lat="52.334095" lon="4.546742">
<ele>3.0</ele>
<time>2026-02-13T15:40:04Z</time>
</trkpt>
<trkpt lat="52.334096" lon="4.546727">
<ele>3.0</ele>
<time>2026-02-13T15:40:05Z</time>
</trkpt>
<trkpt lat="52.334092" lon="4.546707">
<ele>3.0</ele>
<time>2026-02-13T15:40:05Z</time>
</trkpt>
<trkpt lat="52.334092" lon="4.546700">
<ele>3.0</ele>
<time>2026-02-13T15:40:06Z</time>
</trkpt>
<trkpt lat="52.334089" lon="4.546691">
<ele>3.0</ele>
<time>2026-02-13T15:40:06Z</time>
</trkpt>
<trkpt lat="52.334086" lon="4.546680">
<ele>2.9</ele>
<time>2026-02-13T15:40:07Z</time>
</trkpt>
<trkpt lat="52.334084" lon="4.546668">
<ele>2.9</ele>
<time>2026-02-13T15:40:07Z</time>
</trkpt>
<trkpt lat="52.334083" lon="4.546655">
<ele>3.0</ele>
<time>2026-02-13T15:40:08Z</time>
</trkpt>
<trkpt lat="52.334081" lon="4.546638">
<ele>3.0</ele>
<time>2026-02-13T15:40:09Z</time>
</trkpt>
<trkpt lat="52.334078" lon="4.546618">
<ele>2.7</ele>
<time>2026-02-13T15:40:09Z</time>
</trkpt>
<trkpt lat="52.334074" lon="4.546609">
<ele>2.9</ele>
<time>2026-02-13T15:40:10Z</time>
</trkpt>
<trkpt lat="52.334071" lon="4.546597">
<ele>2.9</ele>
<time>2026-02-13T15:40:10Z</time>
</trkpt>
<trkpt lat="52.334065" lon="4.546586">
<ele>3.0</ele>
<time>2026-02-13T15:40:11Z</time>
</trkpt>
<trkpt lat="52.334059" lon="4.546575">
<ele>3.2</ele>
<time>2026-02-13T15:40:12Z</time>
</trkpt>
<trkpt lat="52.334055" lon="4.546567">
<ele>3.2</ele>
<time>2026-02-13T15:40:12Z</time>
</trkpt>
<trkpt lat="52.334045" lon="4.546549">
<ele>3.3</ele>
<time>2026-02-13T15:40:13Z</time>
</trkpt>
<trkpt lat="52.334040" lon="4.546538">
<ele>3.3</ele>
<time>2026-02-13T15:40:14Z</time>
</trkpt>
<trkpt lat="52.334034" lon="4.546523">
<ele>3.3</ele>
<time>2026-02-13T15:40:14Z</time>
</trkpt>
<trkpt lat="52.334032" lon="4.546515">
<ele>3.4</ele>
<time>2026-02-13T15:40:15Z</time>
</trkpt>
<trkpt lat="52.334029" lon="4.546505">
<ele>3.4</ele>
<time>2026-02-13T15:40:15Z</time>
</trkpt>
<trkpt lat="52.334025" lon="4.546497">
<ele>3.5</ele>
<time>2026-02-13T15:40:16Z</time>
</trkpt>
<trkpt lat="52.334022" lon="4.546487">
<ele>3.5</ele>
<time>2026-02-13T15:40:16Z</time>
</trkpt>
<trkpt lat="52.334014" lon="4.546466">
<ele>3.4</ele>
<time>2026-02-13T15:40:17Z</time>
</trkpt>
<trkpt lat="52.334009" lon="4.546456">
<ele>3.4</ele>
<time>2026-02-13T15:40:18Z</time>
</trkpt>
<trkpt lat="52.334004" lon="4.546447">
<ele>3.2</ele>
<time>2026-02-13T15:40:19Z</time>
</trkpt>
<trkpt lat="52.333999" lon="4.546436">
<ele>3.2</ele>
<time>2026-02-13T15:40:19Z</time>
</trkpt>
<trkpt lat="52.333990" lon="4.546422">
<ele>3.4</ele>
<time>2026-02-13T15:40:20Z</time>
</trkpt>
<trkpt lat="52.333985" lon="4.546412">
<ele>3.4</ele>
<time>2026-02-13T15:40:21Z</time>
</trkpt>
<trkpt lat="52.333979" lon="4.546402">
<ele>3.1</ele>
<time>2026-02-13T15:40:21Z</time>
</trkpt>
<trkpt lat="52.333972" lon="4.546387">
<ele>4.2</ele>
<time>2026-02-13T15:40:22Z</time>
</trkpt>
<trkpt lat="52.333969" lon="4.546377">
<ele>4.2</ele>
<time>2026-02-13T15:40:23Z</time>
</trkpt>
<trkpt lat="52.333966" lon="4.546370">
<ele>3.9</ele>
<time>2026-02-13T15:40:23Z</time>
</trkpt>
<trkpt lat="52.333963" lon="4.546358">
<ele>3.9</ele>
<time>2026-02-13T15:40:24Z</time>
</trkpt>
<trkpt lat="52.333959" lon="4.546348">
<ele>3.7</ele>
<time>2026-02-13T15:40:24Z</time>
</trkpt>
<trkpt lat="52.333953" lon="4.546328">
<ele>3.4</ele>
<time>2026-02-13T15:40:25Z</time>
</trkpt>
<trkpt lat="52.333947" lon="4.546308">
<ele>3.4</ele>
<time>2026-02-13T15:40:26Z</time>
</trkpt>
<trkpt lat="52.333943" lon="4.546299">
<ele>3.4</ele>
<time>2026-02-13T15:40:27Z</time>
</trkpt>
<trkpt lat="52.333938" lon="4.546273">
<ele>3.4</ele>
<time>2026-02-13T15:40:28Z</time>
</trkpt>
<trkpt lat="52.333936" lon="4.546263">
<ele>3.3</ele>
<time>2026-02-13T15:40:28Z</time>
</trkpt>
<trkpt lat="52.333933" lon="4.546244">
<ele>3.2</ele>
<time>2026-02-13T15:40:29Z</time>
</trkpt>
<trkpt lat="52.333931" lon="4.546234">
<ele>2.9</ele>
<time>2026-02-13T15:40:30Z</time>
</trkpt>
<trkpt lat="52.333928" lon="4.546220">
<ele>2.9</ele>
<time>2026-02-13T15:40:30Z</time>
</trkpt>
<trkpt lat="52.333923" lon="4.546202">
<ele>2.7</ele>
<time>2026-02-13T15:40:31Z</time>
</trkpt>
<trkpt lat="52.333920" lon="4.546191">
<ele>2.7</ele>
<time>2026-02-13T15:40:32Z</time>
</trkpt>
<trkpt lat="52.333915" lon="4.546181">
<ele>2.8</ele>
<time>2026-02-13T15:40:32Z</time>
</trkpt>
<trkpt lat="52.333912" lon="4.546170">
<ele>2.8</ele>
<time>2026-02-13T15:40:33Z</time>
</trkpt>
<trkpt lat="52.333907" lon="4.546159">
<ele>3.0</ele>
<time>2026-02-13T15:40:33Z</time>
</trkpt>
<trkpt lat="52.333902" lon="4.546150">
<ele>3.1</ele>
<time>2026-02-13T15:40:34Z</time>
</trkpt>
<trkpt lat="52.333898" lon="4.546141">
<ele>3.1</ele>
<time>2026-02-13T15:40:34Z</time>
</trkpt>
<trkpt lat="52.333894" lon="4.546130">
<ele>3.1</ele>
<time>2026-02-13T15:40:35Z</time>
</trkpt>
<trkpt lat="52.333889" lon="4.546120">
<ele>2.8</ele>
<time>2026-02-13T15:40:35Z</time>
</trkpt>
<trkpt lat="52.333884" lon="4.546109">
<ele>2.8</ele>
<time>2026-02-13T15:40:36Z</time>
</trkpt>
<trkpt lat="52.333880" lon="4.546101">
<ele>2.7</ele>
<time>2026-02-13T15:40:36Z</time>
</trkpt>
<trkpt lat="52.333875" lon="4.546092">
<ele>2.7</ele>
<time>2026-02-13T15:40:37Z</time>
</trkpt>
<trkpt lat="52.333871" lon="4.546085">
<ele>2.9</ele>
<time>2026-02-13T15:40:37Z</time>
</trkpt>
<trkpt lat="52.333866" lon="4.546076">
<ele>2.9</ele>
<time>2026-02-13T15:40:38Z</time>
</trkpt>
<trkpt lat="52.333861" lon="4.546069">
<ele>2.6</ele>
<time>2026-02-13T15:40:38Z</time>
</trkpt>
<trkpt lat="52.333856" lon="4.546060">
<ele>2.6</ele>
<time>2026-02-13T15:40:39Z</time>
</trkpt>
<trkpt lat="52.333852" lon="4.546051">
<ele>3.1</ele>
<time>2026-02-13T15:40:39Z</time>
</trkpt>
<trkpt lat="52.333848" lon="4.546040">
<ele>3.1</ele>
<time>2026-02-13T15:40:40Z</time>
</trkpt>
<trkpt lat="52.333845" lon="4.546029">
<ele>2.9</ele>
<time>2026-02-13T15:40:40Z</time>
</trkpt>
<trkpt lat="52.333841" lon="4.546017">
<ele>2.9</ele>
<time>2026-02-13T15:40:41Z</time>
</trkpt>
<trkpt lat="52.333837" lon="4.546004">
<ele>3.1</ele>
<time>2026-02-13T15:40:41Z</time>
</trkpt>
<trkpt lat="52.333829" lon="4.545980">
<ele>3.3</ele>
<time>2026-02-13T15:40:42Z</time>
</trkpt>
<trkpt lat="52.333827" lon="4.545971">
<ele>3.3</ele>
<time>2026-02-13T15:40:43Z</time>
</trkpt>
<trkpt lat="52.333825" lon="4.545962">
<ele>3.6</ele>
<time>2026-02-13T15:40:43Z</time>
</trkpt>
<trkpt lat="52.333820" lon="4.545948">
<ele>3.5</ele>
<time>2026-02-13T15:40:44Z</time>
</trkpt>
<trkpt lat="52.333814" lon="4.545931">
<ele>3.6</ele>
<time>2026-02-13T15:40:45Z</time>
</trkpt>
<trkpt lat="52.333811" lon="4.545922">
<ele>3.8</ele>
<time>2026-02-13T15:40:45Z</time>
</trkpt>
<trkpt lat="52.333807" lon="4.545912">
<ele>3.8</ele>
<time>2026-02-13T15:40:46Z</time>
</trkpt>
<trkpt lat="52.333802" lon="4.545904">
<ele>3.8</ele>
<time>2026-02-13T15:40:46Z</time>
</trkpt>
<trkpt lat="52.333797" lon="4.545895">
<ele>3.8</ele>
<time>2026-02-13T15:40:47Z</time>
</trkpt>
<trkpt lat="52.333792" lon="4.545887">
<ele>3.8</ele>
<time>2026-02-13T15:40:47Z</time>
</trkpt>
<trkpt lat="52.333786" lon="4.545878">
<ele>3.7</ele>
<time>2026-02-13T15:40:48Z</time>
</trkpt>
<trkpt lat="52.333775" lon="4.545863">
<ele>3.7</ele>
<time>2026-02-13T15:40:49Z</time>
</trkpt>
<trkpt lat="52.333769" lon="4.545858">
<ele>3.7</ele>
<time>2026-02-13T15:40:49Z</time>
</trkpt>
<trkpt lat="52.333763" lon="4.545851">
<ele>4.0</ele>
<time>2026-02-13T15:40:50Z</time>
</trkpt>
<trkpt lat="52.333756" lon="4.545845">
<ele>4.0</ele>
<time>2026-02-13T15:40:50Z</time>
</trkpt>
<trkpt lat="52.333750" lon="4.545838">
<ele>4.6</ele>
<time>2026-02-13T15:40:51Z</time>
</trkpt>
<trkpt lat="52.333738" lon="4.545827">
<ele>4.6</ele>
<time>2026-02-13T15:40:52Z</time>
</trkpt>
<trkpt lat="52.333732" lon="4.545823">
<ele>4.4</ele>
<time>2026-02-13T15:40:52Z</time>
</trkpt>
<trkpt lat="52.333726" lon="4.545818">
<ele>4.4</ele>
<time>2026-02-13T15:40:53Z</time>
</trkpt>
<trkpt lat="52.333720" lon="4.545812">
<ele>4.5</ele>
<time>2026-02-13T15:40:53Z</time>
</trkpt>
<trkpt lat="52.333714" lon="4.545806">
<ele>4.5</ele>
<time>2026-02-13T15:40:54Z</time>
</trkpt>
<trkpt lat="52.333707" lon="4.545798">
<ele>4.6</ele>
<time>2026-02-13T15:40:54Z</time>
</trkpt>
<trkpt lat="52.333699" lon="4.545788">
<ele>4.7</ele>
<time>2026-02-13T15:40:55Z</time>
</trkpt>
<trkpt lat="52.333693" lon="4.545780">
<ele>4.8</ele>
<time>2026-02-13T15:40:56Z</time>
</trkpt>
<trkpt lat="52.333680" lon="4.545757">
<ele>4.8</ele>
<time>2026-02-13T15:40:57Z</time>
</trkpt>
<trkpt lat="52.333678" lon="4.545752">
<ele>5.4</ele>
<time>2026-02-13T15:40:57Z</time>
</trkpt>
<trkpt lat="52.333675" lon="4.545747">
<ele>5.1</ele>
<time>2026-02-13T15:40:58Z</time>
</trkpt>
<trkpt lat="52.333670" lon="4.545737">
<ele>5.1</ele>
<time>2026-02-13T15:40:58Z</time>
</trkpt>
<trkpt lat="52.333667" lon="4.545729">
<ele>5.1</ele>
<time>2026-02-13T15:40:59Z</time>
</trkpt>
<trkpt lat="52.333663" lon="4.545711">
<ele>4.9</ele>
<time>2026-02-13T15:41:00Z</time>
</trkpt>
<trkpt lat="52.333659" lon="4.545696">
<ele>4.9</ele>
<time>2026-02-13T15:41:00Z</time>
</trkpt>
<trkpt lat="52.333655" lon="4.545675">
<ele>5.2</ele>
<time>2026-02-13T15:41:01Z</time>
</trkpt>
<trkpt lat="52.333654" lon="4.545665">
<ele>5.2</ele>
<time>2026-02-13T15:41:02Z</time>
</trkpt>
<trkpt lat="52.333650" lon="4.545648">
<ele>5.4</ele>
<time>2026-02-13T15:41:03Z</time>
</trkpt>
<trkpt lat="52.333645" lon="4.545626">
<ele>5.4</ele>
<time>2026-02-13T15:41:03Z</time>
</trkpt>
<trkpt lat="52.333645" lon="4.545621">
<ele>5.0</ele>
<time>2026-02-13T15:41:04Z</time>
</trkpt>
<trkpt lat="52.333643" lon="4.545610">
<ele>5.0</ele>
<time>2026-02-13T15:41:04Z</time>
</trkpt>
<trkpt lat="52.333642" lon="4.545602">
<ele>5.3</ele>
<time>2026-02-13T15:41:05Z</time>
</trkpt>
<trkpt lat="52.333639" lon="4.545590">
<ele>5.3</ele>
<time>2026-02-13T15:41:05Z</time>
</trkpt>
<trkpt lat="52.333637" lon="4.545578">
<ele>5.3</ele>
<time>2026-02-13T15:41:06Z</time>
</trkpt>
<trkpt lat="52.333634" lon="4.545569">
<ele>5.3</ele>
<time>2026-02-13T15:41:06Z</time>
</trkpt>
<trkpt lat="52.333631" lon="4.545558">
<ele>5.3</ele>
<time>2026-02-13T15:41:07Z</time>
</trkpt>
<trkpt lat="52.333628" lon="4.545550">
<ele>5.2</ele>
<time>2026-02-13T15:41:07Z</time>
</trkpt>
<trkpt lat="52.333625" lon="4.545539">
<ele>5.2</ele>
<time>2026-02-13T15:41:08Z</time>
</trkpt>
<trkpt lat="52.333622" lon="4.545530">
<ele>5.2</ele>
<time>2026-02-13T15:41:08Z</time>
</trkpt>
<trkpt lat="52.333618" lon="4.545520">
<ele>5.2</ele>
<time>2026-02-13T15:41:09Z</time>
</trkpt>
<trkpt lat="52.333615" lon="4.545511">
<ele>5.2</ele>
<time>2026-02-13T15:41:09Z</time>
</trkpt>
<trkpt lat="52.333611" lon="4.545501">
<ele>5.2</ele>
<time>2026-02-13T15:41:10Z</time>
</trkpt>
<trkpt lat="52.333608" lon="4.545492">
<ele>5.1</ele>
<time>2026-02-13T15:41:10Z</time>
</trkpt>
<trkpt lat="52.333603" lon="4.545473">
<ele>5.1</ele>
<time>2026-02-13T15:41:11Z</time>
</trkpt>
<trkpt lat="52.333603" lon="4.545471">
<ele>5.1</ele>
<time>2026-02-13T15:41:11Z</time>
</trkpt>
<trkpt lat="52.333600" lon="4.545461">
<ele>5.1</ele>
<time>2026-02-13T15:41:12Z</time>
</trkpt>
<trkpt lat="52.333598" lon="4.545453">
<ele>5.4</ele>
<time>2026-02-13T15:41:12Z</time>
</trkpt>
<trkpt lat="52.333595" lon="4.545441">
<ele>5.4</ele>
<time>2026-02-13T15:41:13Z</time>
</trkpt>
<trkpt lat="52.333593" lon="4.545432">
<ele>5.6</ele>
<time>2026-02-13T15:41:13Z</time>
</trkpt>
<trkpt lat="52.333591" lon="4.545421">
<ele>5.6</ele>
<time>2026-02-13T15:41:14Z</time>
</trkpt>
<trkpt lat="52.333589" lon="4.545411">
<ele>5.6</ele>
<time>2026-02-13T15:41:14Z</time>
</trkpt>
<trkpt lat="52.333587" lon="4.545399">
<ele>5.6</ele>
<time>2026-02-13T15:41:15Z</time>
</trkpt>
<trkpt lat="52.333585" lon="4.545389">
<ele>5.5</ele>
<time>2026-02-13T15:41:15Z</time>
</trkpt>
<trkpt lat="52.333582" lon="4.545378">
<ele>5.5</ele>
<time>2026-02-13T15:41:16Z</time>
</trkpt>
<trkpt lat="52.333581" lon="4.545368">
<ele>5.4</ele>
<time>2026-02-13T15:41:16Z</time>
</trkpt>
<trkpt lat="52.333580" lon="4.545356">
<ele>5.4</ele>
<time>2026-02-13T15:41:17Z</time>
</trkpt>
<trkpt lat="52.333580" lon="4.545345">
<ele>6.0</ele>
<time>2026-02-13T15:41:17Z</time>
</trkpt>
<trkpt lat="52.333579" lon="4.545332">
<ele>6.0</ele>
<time>2026-02-13T15:41:18Z</time>
</trkpt>
<trkpt lat="52.333578" lon="4.545308">
<ele>6.0</ele>
<time>2026-02-13T15:41:19Z</time>
</trkpt>
<trkpt lat="52.333579" lon="4.545296">
<ele>6.0</ele>
<time>2026-02-13T15:41:19Z</time>
</trkpt>
<trkpt lat="52.333579" lon="4.545284">
<ele>6.0</ele>
<time>2026-02-13T15:41:20Z</time>
</trkpt>
<trkpt lat="52.333580" lon="4.545268">
<ele>6.4</ele>
<time>2026-02-13T15:41:20Z</time>
</trkpt>
<trkpt lat="52.333581" lon="4.545248">
<ele>6.4</ele>
<time>2026-02-13T15:41:21Z</time>
</trkpt>
<trkpt lat="52.333581" lon="4.545237">
<ele>6.7</ele>
<time>2026-02-13T15:41:22Z</time>
</trkpt>
<trkpt lat="52.333579" lon="4.545222">
<ele>6.7</ele>
<time>2026-02-13T15:41:22Z</time>
</trkpt>
<trkpt lat="52.333578" lon="4.545212">
<ele>6.6</ele>
<time>2026-02-13T15:41:23Z</time>
</trkpt>
<trkpt lat="52.333575" lon="4.545199">
<ele>6.6</ele>
<time>2026-02-13T15:41:23Z</time>
</trkpt>
<trkpt lat="52.333570" lon="4.545176">
<ele>6.7</ele>
<time>2026-02-13T15:41:24Z</time>
</trkpt>
<trkpt lat="52.333568" lon="4.545162">
<ele>6.4</ele>
<time>2026-02-13T15:41:25Z</time>
</trkpt>
<trkpt lat="52.333563" lon="4.545145">
<ele>6.8</ele>
<time>2026-02-13T15:41:26Z</time>
</trkpt>
<trkpt lat="52.333560" lon="4.545127">
<ele>6.4</ele>
<time>2026-02-13T15:41:27Z</time>
</trkpt>
<trkpt lat="52.333555" lon="4.545111">
<ele>6.4</ele>
<time>2026-02-13T15:41:27Z</time>
</trkpt>
<trkpt lat="52.333550" lon="4.545090">
<ele>6.2</ele>
<time>2026-02-13T15:41:28Z</time>
</trkpt>
<trkpt lat="52.333549" lon="4.545082">
<ele>5.7</ele>
<time>2026-02-13T15:41:29Z</time>
</trkpt>
<trkpt lat="52.333546" lon="4.545069">
<ele>5.7</ele>
<time>2026-02-13T15:41:29Z</time>
</trkpt>
<trkpt lat="52.333541" lon="4.545047">
<ele>6.0</ele>
<time>2026-02-13T15:41:30Z</time>
</trkpt>
<trkpt lat="52.333539" lon="4.545038">
<ele>5.9</ele>
<time>2026-02-13T15:41:31Z</time>
</trkpt>
<trkpt lat="52.333535" lon="4.545026">
<ele>5.9</ele>
<time>2026-02-13T15:41:31Z</time>
</trkpt>
<trkpt lat="52.333532" lon="4.545017">
<ele>6.0</ele>
<time>2026-02-13T15:41:32Z</time>
</trkpt>
<trkpt lat="52.333524" lon="4.544999">
<ele>6.0</ele>
<time>2026-02-13T15:41:32Z</time>
</trkpt>
<trkpt lat="52.333523" lon="4.544996">
<ele>6.0</ele>
<time>2026-02-13T15:41:33Z</time>
</trkpt>
<trkpt lat="52.333519" lon="4.544987">
<ele>6.0</ele>
<time>2026-02-13T15:41:33Z</time>
</trkpt>
<trkpt lat="52.333516" lon="4.544979">
<ele>5.9</ele>
<time>2026-02-13T15:41:34Z</time>
</trkpt>
<trkpt lat="52.333511" lon="4.544967">
<ele>5.9</ele>
<time>2026-02-13T15:41:34Z</time>
</trkpt>
<trkpt lat="52.333505" lon="4.544948">
<ele>5.6</ele>
<time>2026-02-13T15:41:35Z</time>
</trkpt>
<trkpt lat="52.333498" lon="4.544930">
<ele>5.4</ele>
<time>2026-02-13T15:41:37Z</time>
</trkpt>
<trkpt lat="52.333495" lon="4.544923">
<ele>5.6</ele>
<time>2026-02-13T15:41:37Z</time>
</trkpt>
<trkpt lat="52.333490" lon="4.544912">
<ele>5.6</ele>
<time>2026-02-13T15:41:38Z</time>
</trkpt>
<trkpt lat="52.333482" lon="4.544895">
<ele>5.1</ele>
<time>2026-02-13T15:41:39Z</time>
</trkpt>
<trkpt lat="52.333478" lon="4.544886">
<ele>5.1</ele>
<time>2026-02-13T15:41:39Z</time>
</trkpt>
<trkpt lat="52.333469" lon="4.544869">
<ele>4.7</ele>
<time>2026-02-13T15:41:40Z</time>
</trkpt>
<trkpt lat="52.333465" lon="4.544861">
<ele>4.9</ele>
<time>2026-02-13T15:41:41Z</time>
</trkpt>
<trkpt lat="52.333461" lon="4.544853">
<ele>5.3</ele>
<time>2026-02-13T15:41:41Z</time>
</trkpt>
<trkpt lat="52.333457" lon="4.544845">
<ele>4.9</ele>
<time>2026-02-13T15:41:42Z</time>
</trkpt>
<trkpt lat="52.333454" lon="4.544835">
<ele>4.9</ele>
<time>2026-02-13T15:41:42Z</time>
</trkpt>
<trkpt lat="52.333451" lon="4.544826">
<ele>4.7</ele>
<time>2026-02-13T15:41:43Z</time>
</trkpt>
<trkpt lat="52.333448" lon="4.544816">
<ele>4.7</ele>
<time>2026-02-13T15:41:43Z</time>
</trkpt>
<trkpt lat="52.333445" lon="4.544806">
<ele>4.9</ele>
<time>2026-02-13T15:41:44Z</time>
</trkpt>
<trkpt lat="52.333441" lon="4.544793">
<ele>4.9</ele>
<time>2026-02-13T15:41:44Z</time>
</trkpt>
<trkpt lat="52.333438" lon="4.544781">
<ele>4.6</ele>
<time>2026-02-13T15:41:45Z</time>
</trkpt>
<trkpt lat="52.333435" lon="4.544764">
<ele>4.5</ele>
<time>2026-02-13T15:41:46Z</time>
</trkpt>
<trkpt lat="52.333432" lon="4.544752">
<ele>4.5</ele>
<time>2026-02-13T15:41:46Z</time>
</trkpt>
<trkpt lat="52.333428" lon="4.544731">
<ele>4.4</ele>
<time>2026-02-13T15:41:47Z</time>
</trkpt>
<trkpt lat="52.333425" lon="4.544714">
<ele>3.9</ele>
<time>2026-02-13T15:41:48Z</time>
</trkpt>
<trkpt lat="52.333423" lon="4.544704">
<ele>4.1</ele>
<time>2026-02-13T15:41:49Z</time>
</trkpt>
<trkpt lat="52.333421" lon="4.544687">
<ele>4.1</ele>
<time>2026-02-13T15:41:49Z</time>
</trkpt>
<trkpt lat="52.333419" lon="4.544675">
<ele>3.7</ele>
<time>2026-02-13T15:41:50Z</time>
</trkpt>
<trkpt lat="52.333416" lon="4.544664">
<ele>3.6</ele>
<time>2026-02-13T15:41:51Z</time>
</trkpt>
<trkpt lat="52.333411" lon="4.544645">
<ele>3.6</ele>
<time>2026-02-13T15:41:51Z</time>
</trkpt>
<trkpt lat="52.333409" lon="4.544634">
<ele>3.4</ele>
<time>2026-02-13T15:41:52Z</time>
</trkpt>
<trkpt lat="52.333407" lon="4.544623">
<ele>3.4</ele>
<time>2026-02-13T15:41:53Z</time>
</trkpt>
<trkpt lat="52.333406" lon="4.544613">
<ele>3.3</ele>
<time>2026-02-13T15:41:53Z</time>
</trkpt>
<trkpt lat="52.333404" lon="4.544601">
<ele>3.2</ele>
<time>2026-02-13T15:41:54Z</time>
</trkpt>
<trkpt lat="52.333402" lon="4.544582">
<ele>3.2</ele>
<time>2026-02-13T15:41:54Z</time>
</trkpt>
<trkpt lat="52.333402" lon="4.544578">
<ele>3.3</ele>
<time>2026-02-13T15:41:55Z</time>
</trkpt>
<trkpt lat="52.333400" lon="4.544560">
<ele>3.3</ele>
<time>2026-02-13T15:41:55Z</time>
</trkpt>
<trkpt lat="52.333398" lon="4.544550">
<ele>2.5</ele>
<time>2026-02-13T15:41:56Z</time>
</trkpt>
<trkpt lat="52.333396" lon="4.544539">
<ele>2.5</ele>
<time>2026-02-13T15:41:56Z</time>
</trkpt>
<trkpt lat="52.333393" lon="4.544517">
<ele>2.6</ele>
<time>2026-02-13T15:41:57Z</time>
</trkpt>
<trkpt lat="52.333392" lon="4.544507">
<ele>2.2</ele>
<time>2026-02-13T15:41:58Z</time>
</trkpt>
<trkpt lat="52.333390" lon="4.544496">
<ele>2.2</ele>
<time>2026-02-13T15:41:58Z</time>
</trkpt>
<trkpt lat="52.333389" lon="4.544485">
<ele>2.2</ele>
<time>2026-02-13T15:41:59Z</time>
</trkpt>
<trkpt lat="52.333387" lon="4.544473">
<ele>2.2</ele>
<time>2026-02-13T15:42:00Z</time>
</trkpt>
<trkpt lat="52.333385" lon="4.544453">
<ele>2.0</ele>
<time>2026-02-13T15:42:00Z</time>
</trkpt>
<trkpt lat="52.333385" lon="4.544449">
<ele>2.1</ele>
<time>2026-02-13T15:42:01Z</time>
</trkpt>
<trkpt lat="52.333381" lon="4.544430">
<ele>2.1</ele>
<time>2026-02-13T15:42:02Z</time>
</trkpt>
<trkpt lat="52.333379" lon="4.544420">
<ele>2.1</ele>
<time>2026-02-13T15:42:02Z</time>
</trkpt>
<trkpt lat="52.333374" lon="4.544401">
<ele>2.2</ele>
<time>2026-02-13T15:42:03Z</time>
</trkpt>
<trkpt lat="52.333370" lon="4.544379">
<ele>1.9</ele>
<time>2026-02-13T15:42:04Z</time>
</trkpt>
<trkpt lat="52.333364" lon="4.544350">
<ele>2.0</ele>
<time>2026-02-13T15:42:06Z</time>
</trkpt>
<trkpt lat="52.333360" lon="4.544340">
<ele>2.3</ele>
<time>2026-02-13T15:42:06Z</time>
</trkpt>
<trkpt lat="52.333358" lon="4.544329">
<ele>2.3</ele>
<time>2026-02-13T15:42:07Z</time>
</trkpt>
<trkpt lat="52.333354" lon="4.544320">
<ele>2.0</ele>
<time>2026-02-13T15:42:07Z</time>
</trkpt>
<trkpt lat="52.333351" lon="4.544309">
<ele>2.0</ele>
<time>2026-02-13T15:42:08Z</time>
</trkpt>
<trkpt lat="52.333346" lon="4.544298">
<ele>2.0</ele>
<time>2026-02-13T15:42:08Z</time>
</trkpt>
<trkpt lat="52.333337" lon="4.544274">
<ele>2.6</ele>
<time>2026-02-13T15:42:10Z</time>
</trkpt>
<trkpt lat="52.333332" lon="4.544255">
<ele>2.5</ele>
<time>2026-02-13T15:42:11Z</time>
</trkpt>
<trkpt lat="52.333328" lon="4.544239">
<ele>2.5</ele>
<time>2026-02-13T15:42:11Z</time>
</trkpt>
<trkpt lat="52.333324" lon="4.544213">
<ele>2.6</ele>
<time>2026-02-13T15:42:13Z</time>
</trkpt>
<trkpt lat="52.333319" lon="4.544192">
<ele>2.5</ele>
<time>2026-02-13T15:42:14Z</time>
</trkpt>
<trkpt lat="52.333317" lon="4.544177">
<ele>2.5</ele>
<time>2026-02-13T15:42:14Z</time>
</trkpt>
<trkpt lat="52.333312" lon="4.544155">
<ele>2.5</ele>
<time>2026-02-13T15:42:15Z</time>
</trkpt>
<trkpt lat="52.333307" lon="4.544137">
<ele>2.4</ele>
<time>2026-02-13T15:42:16Z</time>
</trkpt>
<trkpt lat="52.333305" lon="4.544130">
<ele>2.4</ele>
<time>2026-02-13T15:42:16Z</time>
</trkpt>
<trkpt lat="52.333302" lon="4.544122">
<ele>2.2</ele>
<time>2026-02-13T15:42:17Z</time>
</trkpt>
<trkpt lat="52.333299" lon="4.544109">
<ele>2.2</ele>
<time>2026-02-13T15:42:17Z</time>
</trkpt>
<trkpt lat="52.333293" lon="4.544086">
<ele>2.1</ele>
<time>2026-02-13T15:42:18Z</time>
</trkpt>
<trkpt lat="52.333286" lon="4.544066">
<ele>2.2</ele>
<time>2026-02-13T15:42:19Z</time>
</trkpt>
<trkpt lat="52.333279" lon="4.544048">
<ele>1.9</ele>
<time>2026-02-13T15:42:20Z</time>
</trkpt>
<trkpt lat="52.333276" lon="4.544040">
<ele>2.0</ele>
<time>2026-02-13T15:42:21Z</time>
</trkpt>
<trkpt lat="52.333271" lon="4.544028">
<ele>2.0</ele>
<time>2026-02-13T15:42:21Z</time>
</trkpt>
<trkpt lat="52.333266" lon="4.544008">
<ele>1.7</ele>
<time>2026-02-13T15:42:22Z</time>
</trkpt>
<trkpt lat="52.333267" lon="4.543998">
<ele>1.8</ele>
<time>2026-02-13T15:42:23Z</time>
</trkpt>
<trkpt lat="52.333267" lon="4.543978">
<ele>1.8</ele>
<time>2026-02-13T15:42:23Z</time>
</trkpt>
<trkpt lat="52.333269" lon="4.543966">
<ele>1.7</ele>
<time>2026-02-13T15:42:24Z</time>
</trkpt>
<trkpt lat="52.333266" lon="4.543944">
<ele>1.5</ele>
<time>2026-02-13T15:42:25Z</time>
</trkpt>
<trkpt lat="52.333263" lon="4.543925">
<ele>1.3</ele>
<time>2026-02-13T15:42:26Z</time>
</trkpt>
<trkpt lat="52.333260" lon="4.543905">
<ele>1.1</ele>
<time>2026-02-13T15:42:27Z</time>
</trkpt>
<trkpt lat="52.333257" lon="4.543880">
<ele>1.1</ele>
<time>2026-02-13T15:42:28Z</time>
</trkpt>
<trkpt lat="52.333254" lon="4.543860">
<ele>0.9</ele>
<time>2026-02-13T15:42:29Z</time>
</trkpt>
<trkpt lat="52.333253" lon="4.543848">
<ele>0.9</ele>
<time>2026-02-13T15:42:30Z</time>
</trkpt>
<trkpt lat="52.333250" lon="4.543835">
<ele>0.8</ele>
<time>2026-02-13T15:42:30Z</time>
</trkpt>
<trkpt lat="52.333245" lon="4.543801">
<ele>0.5</ele>
<time>2026-02-13T15:42:32Z</time>
</trkpt>
<trkpt lat="52.333243" lon="4.543790">
<ele>0.4</ele>
<time>2026-02-13T15:42:32Z</time>
</trkpt>
<trkpt lat="52.333242" lon="4.543776">
<ele>0.4</ele>
<time>2026-02-13T15:42:33Z</time>
</trkpt>
<trkpt lat="52.333241" lon="4.543765">
<ele>0.5</ele>
<time>2026-02-13T15:42:33Z</time>
</trkpt>
<trkpt lat="52.333240" lon="4.543753">
<ele>0.5</ele>
<time>2026-02-13T15:42:34Z</time>
</trkpt>
<trkpt lat="52.333240" lon="4.543743">
<ele>0.9</ele>
<time>2026-02-13T15:42:34Z</time>
</trkpt>
<trkpt lat="52.333239" lon="4.543731">
<ele>0.9</ele>
<time>2026-02-13T15:42:35Z</time>
</trkpt>
<trkpt lat="52.333239" lon="4.543721">
<ele>0.7</ele>
<time>2026-02-13T15:42:35Z</time>
</trkpt>
<trkpt lat="52.333237" lon="4.543708">
<ele>0.7</ele>
<time>2026-02-13T15:42:36Z</time>
</trkpt>
<trkpt lat="52.333235" lon="4.543698">
<ele>0.3</ele>
<time>2026-02-13T15:42:36Z</time>
</trkpt>
<trkpt lat="52.333233" lon="4.543686">
<ele>0.3</ele>
<time>2026-02-13T15:42:37Z</time>
</trkpt>
<trkpt lat="52.333232" lon="4.543673">
<ele>0.6</ele>
<time>2026-02-13T15:42:37Z</time>
</trkpt>
<trkpt lat="52.333229" lon="4.543651">
<ele>0.9</ele>
<time>2026-02-13T15:42:38Z</time>
</trkpt>
<trkpt lat="52.333226" lon="4.543641">
<ele>0.9</ele>
<time>2026-02-13T15:42:39Z</time>
</trkpt>
<trkpt lat="52.333221" lon="4.543622">
<ele>1.1</ele>
<time>2026-02-13T15:42:39Z</time>
</trkpt>
<trkpt lat="52.333217" lon="4.543612">
<ele>1.1</ele>
<time>2026-02-13T15:42:40Z</time>
</trkpt>
<trkpt lat="52.333213" lon="4.543601">
<ele>1.1</ele>
<time>2026-02-13T15:42:41Z</time>
</trkpt>
<trkpt lat="52.333209" lon="4.543593">
<ele>1.1</ele>
<time>2026-02-13T15:42:41Z</time>
</trkpt>
<trkpt lat="52.333205" lon="4.543582">
<ele>1.1</ele>
<time>2026-02-13T15:42:42Z</time>
</trkpt>
<trkpt lat="52.333200" lon="4.543574">
<ele>1.2</ele>
<time>2026-02-13T15:42:42Z</time>
</trkpt>
<trkpt lat="52.333195" lon="4.543564">
<ele>1.2</ele>
<time>2026-02-13T15:42:43Z</time>
</trkpt>
<trkpt lat="52.333192" lon="4.543554">
<ele>1.2</ele>
<time>2026-02-13T15:42:43Z</time>
</trkpt>
<trkpt lat="52.333187" lon="4.543543">
<ele>1.2</ele>
<time>2026-02-13T15:42:44Z</time>
</trkpt>
<trkpt lat="52.333184" lon="4.543529">
<ele>1.1</ele>
<time>2026-02-13T15:42:44Z</time>
</trkpt>
<trkpt lat="52.333182" lon="4.543519">
<ele>1.1</ele>
<time>2026-02-13T15:42:45Z</time>
</trkpt>
<trkpt lat="52.333176" lon="4.543500">
<ele>1.1</ele>
<time>2026-02-13T15:42:46Z</time>
</trkpt>
<trkpt lat="52.333172" lon="4.543487">
<ele>1.1</ele>
<time>2026-02-13T15:42:46Z</time>
</trkpt>
<trkpt lat="52.333168" lon="4.543469">
<ele>0.9</ele>
<time>2026-02-13T15:42:47Z</time>
</trkpt>
<trkpt lat="52.333165" lon="4.543457">
<ele>0.9</ele>
<time>2026-02-13T15:42:48Z</time>
</trkpt>
<trkpt lat="52.333163" lon="4.543446">
<ele>0.9</ele>
<time>2026-02-13T15:42:48Z</time>
</trkpt>
<trkpt lat="52.333161" lon="4.543435">
<ele>0.9</ele>
<time>2026-02-13T15:42:49Z</time>
</trkpt>
<trkpt lat="52.333158" lon="4.543424">
<ele>0.8</ele>
<time>2026-02-13T15:42:49Z</time>
</trkpt>
<trkpt lat="52.333156" lon="4.543412">
<ele>0.8</ele>
<time>2026-02-13T15:42:50Z</time>
</trkpt>
<trkpt lat="52.333153" lon="4.543397">
<ele>0.8</ele>
<time>2026-02-13T15:42:50Z</time>
</trkpt>
<trkpt lat="52.333151" lon="4.543378">
<ele>0.6</ele>
<time>2026-02-13T15:42:51Z</time>
</trkpt>
<trkpt lat="52.333150" lon="4.543366">
<ele>0.6</ele>
<time>2026-02-13T15:42:52Z</time>
</trkpt>
<trkpt lat="52.333149" lon="4.543355">
<ele>0.5</ele>
<time>2026-02-13T15:42:52Z</time>
</trkpt>
<trkpt lat="52.333148" lon="4.543343">
<ele>0.5</ele>
<time>2026-02-13T15:42:53Z</time>
</trkpt>
<trkpt lat="52.333147" lon="4.543333">
<ele>0.5</ele>
<time>2026-02-13T15:42:53Z</time>
</trkpt>
<trkpt lat="52.333146" lon="4.543321">
<ele>0.5</ele>
<time>2026-02-13T15:42:54Z</time>
</trkpt>
<trkpt lat="52.333146" lon="4.543310">
<ele>0.6</ele>
<time>2026-02-13T15:42:54Z</time>
</trkpt>
<trkpt lat="52.333145" lon="4.543302">
<ele>0.2</ele>
<time>2026-02-13T15:42:55Z</time>
</trkpt>
<trkpt lat="52.333143" lon="4.543281">
<ele>0.5</ele>
<time>2026-02-13T15:42:56Z</time>
</trkpt>
<trkpt lat="52.333139" lon="4.543258">
<ele>0.5</ele>
<time>2026-02-13T15:42:56Z</time>
</trkpt>
<trkpt lat="52.333140" lon="4.543255">
<ele>0.2</ele>
<time>2026-02-13T15:42:57Z</time>
</trkpt>
<trkpt lat="52.333139" lon="4.543244">
<ele>0.2</ele>
<time>2026-02-13T15:42:57Z</time>
</trkpt>
<trkpt lat="52.333139" lon="4.543235">
<ele>0.2</ele>
<time>2026-02-13T15:42:58Z</time>
</trkpt>
<trkpt lat="52.333138" lon="4.543223">
<ele>0.2</ele>
<time>2026-02-13T15:42:58Z</time>
</trkpt>
<trkpt lat="52.333138" lon="4.543214">
<ele>0.2</ele>
<time>2026-02-13T15:42:59Z</time>
</trkpt>
<trkpt lat="52.333138" lon="4.543201">
<ele>0.2</ele>
<time>2026-02-13T15:42:59Z</time>
</trkpt>
<trkpt lat="52.333139" lon="4.543193">
<ele>0.4</ele>
<time>2026-02-13T15:43:00Z</time>
</trkpt>
<trkpt lat="52.333138" lon="4.543181">
<ele>0.4</ele>
<time>2026-02-13T15:43:00Z</time>
</trkpt>
<trkpt lat="52.333139" lon="4.543172">
<ele>0.5</ele>
<time>2026-02-13T15:43:01Z</time>
</trkpt>
<trkpt lat="52.333139" lon="4.543160">
<ele>0.5</ele>
<time>2026-02-13T15:43:01Z</time>
</trkpt>
<trkpt lat="52.333139" lon="4.543150">
<ele>0.6</ele>
<time>2026-02-13T15:43:02Z</time>
</trkpt>
<trkpt lat="52.333138" lon="4.543138">
<ele>0.6</ele>
<time>2026-02-13T15:43:02Z</time>
</trkpt>
<trkpt lat="52.333138" lon="4.543129">
<ele>1.0</ele>
<time>2026-02-13T15:43:03Z</time>
</trkpt>
<trkpt lat="52.333137" lon="4.543105">
<ele>1.0</ele>
<time>2026-02-13T15:43:03Z</time>
</trkpt>
<trkpt lat="52.333136" lon="4.543093">
<ele>0.8</ele>
<time>2026-02-13T15:43:04Z</time>
</trkpt>
<trkpt lat="52.333136" lon="4.543081">
<ele>0.8</ele>
<time>2026-02-13T15:43:05Z</time>
</trkpt>
<trkpt lat="52.333136" lon="4.543070">
<ele>0.9</ele>
<time>2026-02-13T15:43:05Z</time>
</trkpt>
<trkpt lat="52.333137" lon="4.543060">
<ele>0.9</ele>
<time>2026-02-13T15:43:06Z</time>
</trkpt>
<trkpt lat="52.333136" lon="4.543047">
<ele>0.9</ele>
<time>2026-02-13T15:43:06Z</time>
</trkpt>
<trkpt lat="52.333136" lon="4.543036">
<ele>1.1</ele>
<time>2026-02-13T15:43:07Z</time>
</trkpt>
<trkpt lat="52.333135" lon="4.543024">
<ele>1.1</ele>
<time>2026-02-13T15:43:07Z</time>
</trkpt>
<trkpt lat="52.333133" lon="4.543013">
<ele>1.1</ele>
<time>2026-02-13T15:43:08Z</time>
</trkpt>
<trkpt lat="52.333131" lon="4.543002">
<ele>1.5</ele>
<time>2026-02-13T15:43:08Z</time>
</trkpt>
<trkpt lat="52.333130" lon="4.542992">
<ele>1.4</ele>
<time>2026-02-13T15:43:09Z</time>
</trkpt>
<trkpt lat="52.333127" lon="4.542980">
<ele>1.4</ele>
<time>2026-02-13T15:43:09Z</time>
</trkpt>
<trkpt lat="52.333125" lon="4.542970">
<ele>1.4</ele>
<time>2026-02-13T15:43:10Z</time>
</trkpt>
<trkpt lat="52.333122" lon="4.542958">
<ele>1.4</ele>
<time>2026-02-13T15:43:10Z</time>
</trkpt>
<trkpt lat="52.333119" lon="4.542938">
<ele>1.5</ele>
<time>2026-02-13T15:43:11Z</time>
</trkpt>
<trkpt lat="52.333117" lon="4.542930">
<ele>1.5</ele>
<time>2026-02-13T15:43:11Z</time>
</trkpt>
<trkpt lat="52.333114" lon="4.542912">
<ele>1.6</ele>
<time>2026-02-13T15:43:12Z</time>
</trkpt>
<trkpt lat="52.333114" lon="4.542903">
<ele>1.3</ele>
<time>2026-02-13T15:43:13Z</time>
</trkpt>
<trkpt lat="52.333115" lon="4.542890">
<ele>1.3</ele>
<time>2026-02-13T15:43:13Z</time>
</trkpt>
<trkpt lat="52.333113" lon="4.542860">
<ele>1.3</ele>
<time>2026-02-13T15:43:15Z</time>
</trkpt>
<trkpt lat="52.333112" lon="4.542846">
<ele>1.3</ele>
<time>2026-02-13T15:43:15Z</time>
</trkpt>
<trkpt lat="52.333110" lon="4.542835">
<ele>1.2</ele>
<time>2026-02-13T15:43:16Z</time>
</trkpt>
<trkpt lat="52.333109" lon="4.542823">
<ele>1.2</ele>
<time>2026-02-13T15:43:16Z</time>
</trkpt>
<trkpt lat="52.333106" lon="4.542813">
<ele>1.3</ele>
<time>2026-02-13T15:43:17Z</time>
</trkpt>
<trkpt lat="52.333105" lon="4.542800">
<ele>1.3</ele>
<time>2026-02-13T15:43:17Z</time>
</trkpt>
<trkpt lat="52.333102" lon="4.542790">
<ele>1.2</ele>
<time>2026-02-13T15:43:18Z</time>
</trkpt>
<trkpt lat="52.333099" lon="4.542776">
<ele>1.2</ele>
<time>2026-02-13T15:43:18Z</time>
</trkpt>
<trkpt lat="52.333093" lon="4.542756">
<ele>1.2</ele>
<time>2026-02-13T15:43:19Z</time>
</trkpt>
<trkpt lat="52.333088" lon="4.542745">
<ele>1.0</ele>
<time>2026-02-13T15:43:20Z</time>
</trkpt>
<trkpt lat="52.333085" lon="4.542731">
<ele>1.0</ele>
<time>2026-02-13T15:43:20Z</time>
</trkpt>
<trkpt lat="52.333077" lon="4.542708">
<ele>0.9</ele>
<time>2026-02-13T15:43:21Z</time>
</trkpt>
<trkpt lat="52.333070" lon="4.542689">
<ele>0.9</ele>
<time>2026-02-13T15:43:22Z</time>
</trkpt>
<trkpt lat="52.333066" lon="4.542679">
<ele>1.0</ele>
<time>2026-02-13T15:43:23Z</time>
</trkpt>
<trkpt lat="52.333063" lon="4.542665">
<ele>1.0</ele>
<time>2026-02-13T15:43:23Z</time>
</trkpt>
<trkpt lat="52.333056" lon="4.542644">
<ele>0.9</ele>
<time>2026-02-13T15:43:24Z</time>
</trkpt>
<trkpt lat="52.333052" lon="4.542635">
<ele>0.9</ele>
<time>2026-02-13T15:43:25Z</time>
</trkpt>
<trkpt lat="52.333047" lon="4.542622">
<ele>0.9</ele>
<time>2026-02-13T15:43:25Z</time>
</trkpt>
<trkpt lat="52.333041" lon="4.542612">
<ele>0.5</ele>
<time>2026-02-13T15:43:26Z</time>
</trkpt>
<trkpt lat="52.333034" lon="4.542604">
<ele>0.5</ele>
<time>2026-02-13T15:43:27Z</time>
</trkpt>
<trkpt lat="52.333028" lon="4.542598">
<ele>0.6</ele>
<time>2026-02-13T15:43:27Z</time>
</trkpt>
<trkpt lat="52.333021" lon="4.542590">
<ele>0.6</ele>
<time>2026-02-13T15:43:28Z</time>
</trkpt>
<trkpt lat="52.333007" lon="4.542578">
<ele>0.6</ele>
<time>2026-02-13T15:43:29Z</time>
</trkpt>
<trkpt lat="52.332999" lon="4.542576">
<ele>0.6</ele>
<time>2026-02-13T15:43:29Z</time>
</trkpt>
<trkpt lat="52.332991" lon="4.542575">
<ele>0.6</ele>
<time>2026-02-13T15:43:30Z</time>
</trkpt>
<trkpt lat="52.332983" lon="4.542576">
<ele>0.7</ele>
<time>2026-02-13T15:43:30Z</time>
</trkpt>
<trkpt lat="52.332975" lon="4.542576">
<ele>0.7</ele>
<time>2026-02-13T15:43:31Z</time>
</trkpt>
<trkpt lat="52.332967" lon="4.542578">
<ele>1.0</ele>
<time>2026-02-13T15:43:31Z</time>
</trkpt>
<trkpt lat="52.332959" lon="4.542577">
<ele>1.0</ele>
<time>2026-02-13T15:43:32Z</time>
</trkpt>
<trkpt lat="52.332952" lon="4.542575">
<ele>1.9</ele>
<time>2026-02-13T15:43:32Z</time>
</trkpt>
<trkpt lat="52.332945" lon="4.542574">
<ele>1.9</ele>
<time>2026-02-13T15:43:33Z</time>
</trkpt>
<trkpt lat="52.332938" lon="4.542573">
<ele>1.7</ele>
<time>2026-02-13T15:43:33Z</time>
</trkpt>
<trkpt lat="52.332930" lon="4.542572">
<ele>1.7</ele>
<time>2026-02-13T15:43:33Z</time>
</trkpt>
<trkpt lat="52.332916" lon="4.542569">
<ele>1.8</ele>
<time>2026-02-13T15:43:34Z</time>
</trkpt>
<trkpt lat="52.332912" lon="4.542569">
<ele>1.8</ele>
<time>2026-02-13T15:43:34Z</time>
</trkpt>
<trkpt lat="52.332906" lon="4.542569">
<ele>1.6</ele>
<time>2026-02-13T15:43:35Z</time>
</trkpt>
<trkpt lat="52.332898" lon="4.542569">
<ele>1.6</ele>
<time>2026-02-13T15:43:35Z</time>
</trkpt>
<trkpt lat="52.332890" lon="4.542569">
<ele>1.8</ele>
<time>2026-02-13T15:43:36Z</time>
</trkpt>
<trkpt lat="52.332882" lon="4.542569">
<ele>1.8</ele>
<time>2026-02-13T15:43:36Z</time>
</trkpt>
<trkpt lat="52.332874" lon="4.542568">
<ele>2.2</ele>
<time>2026-02-13T15:43:37Z</time>
</trkpt>
<trkpt lat="52.332866" lon="4.542567">
<ele>2.2</ele>
<time>2026-02-13T15:43:37Z</time>
</trkpt>
<trkpt lat="52.332858" lon="4.542568">
<ele>2.0</ele>
<time>2026-02-13T15:43:38Z</time>
</trkpt>
<trkpt lat="52.332850" lon="4.542567">
<ele>2.0</ele>
<time>2026-02-13T15:43:38Z</time>
</trkpt>
<trkpt lat="52.332836" lon="4.542570">
<ele>2.0</ele>
<time>2026-02-13T15:43:39Z</time>
</trkpt>
<trkpt lat="52.332828" lon="4.542572">
<ele>2.2</ele>
<time>2026-02-13T15:43:40Z</time>
</trkpt>
<trkpt lat="52.332820" lon="4.542573">
<ele>2.2</ele>
<time>2026-02-13T15:43:40Z</time>
</trkpt>
<trkpt lat="52.332813" lon="4.542576">
<ele>2.2</ele>
<time>2026-02-13T15:43:41Z</time>
</trkpt>
<trkpt lat="52.332805" lon="4.542578">
<ele>2.2</ele>
<time>2026-02-13T15:43:41Z</time>
</trkpt>
<trkpt lat="52.332797" lon="4.542580">
<ele>2.0</ele>
<time>2026-02-13T15:43:42Z</time>
</trkpt>
<trkpt lat="52.332789" lon="4.542581">
<ele>2.0</ele>
<time>2026-02-13T15:43:42Z</time>
</trkpt>
<trkpt lat="52.332782" lon="4.542583">
<ele>2.1</ele>
<time>2026-02-13T15:43:43Z</time>
</trkpt>
<trkpt lat="52.332774" lon="4.542583">
<ele>2.1</ele>
<time>2026-02-13T15:43:43Z</time>
</trkpt>
<trkpt lat="52.332767" lon="4.542585">
<ele>2.0</ele>
<time>2026-02-13T15:43:44Z</time>
</trkpt>
<trkpt lat="52.332760" lon="4.542586">
<ele>2.0</ele>
<time>2026-02-13T15:43:44Z</time>
</trkpt>
<trkpt lat="52.332753" lon="4.542588">
<ele>1.9</ele>
<time>2026-02-13T15:43:45Z</time>
</trkpt>
<trkpt lat="52.332744" lon="4.542589">
<ele>1.9</ele>
<time>2026-02-13T15:43:45Z</time>
</trkpt>
<trkpt lat="52.332728" lon="4.542593">
<ele>2.1</ele>
<time>2026-02-13T15:43:46Z</time>
</trkpt>
<trkpt lat="52.332716" lon="4.542598">
<ele>2.0</ele>
<time>2026-02-13T15:43:47Z</time>
</trkpt>
<trkpt lat="52.332709" lon="4.542602">
<ele>2.1</ele>
<time>2026-02-13T15:43:48Z</time>
</trkpt>
<trkpt lat="52.332702" lon="4.542605">
<ele>2.1</ele>
<time>2026-02-13T15:43:48Z</time>
</trkpt>
<trkpt lat="52.332695" lon="4.542611">
<ele>2.0</ele>
<time>2026-02-13T15:43:49Z</time>
</trkpt>
<trkpt lat="52.332687" lon="4.542615">
<ele>2.0</ele>
<time>2026-02-13T15:43:49Z</time>
</trkpt>
<trkpt lat="52.332680" lon="4.542618">
<ele>2.0</ele>
<time>2026-02-13T15:43:50Z</time>
</trkpt>
<trkpt lat="52.332673" lon="4.542622">
<ele>1.9</ele>
<time>2026-02-13T15:43:50Z</time>
</trkpt>
<trkpt lat="52.332666" lon="4.542626">
<ele>1.9</ele>
<time>2026-02-13T15:43:51Z</time>
</trkpt>
<trkpt lat="52.332660" lon="4.542632">
<ele>1.9</ele>
<time>2026-02-13T15:43:51Z</time>
</trkpt>
<trkpt lat="52.332653" lon="4.542637">
<ele>1.9</ele>
<time>2026-02-13T15:43:52Z</time>
</trkpt>
<trkpt lat="52.332646" lon="4.542643">
<ele>2.1</ele>
<time>2026-02-13T15:43:52Z</time>
</trkpt>
<trkpt lat="52.332639" lon="4.542648">
<ele>1.9</ele>
<time>2026-02-13T15:43:53Z</time>
</trkpt>
<trkpt lat="52.332626" lon="4.542658">
<ele>1.9</ele>
<time>2026-02-13T15:43:54Z</time>
</trkpt>
<trkpt lat="52.332620" lon="4.542664">
<ele>2.0</ele>
<time>2026-02-13T15:43:54Z</time>
</trkpt>
<trkpt lat="52.332614" lon="4.542670">
<ele>2.0</ele>
<time>2026-02-13T15:43:54Z</time>
</trkpt>
<trkpt lat="52.332607" lon="4.542677">
<ele>1.6</ele>
<time>2026-02-13T15:43:55Z</time>
</trkpt>
<trkpt lat="52.332600" lon="4.542683">
<ele>1.6</ele>
<time>2026-02-13T15:43:55Z</time>
</trkpt>
<trkpt lat="52.332594" lon="4.542691">
<ele>1.8</ele>
<time>2026-02-13T15:43:56Z</time>
</trkpt>
<trkpt lat="52.332588" lon="4.542697">
<ele>1.8</ele>
<time>2026-02-13T15:43:56Z</time>
</trkpt>
<trkpt lat="52.332579" lon="4.542706">
<ele>1.8</ele>
<time>2026-02-13T15:43:57Z</time>
</trkpt>
<trkpt lat="52.332569" lon="4.542715">
<ele>1.7</ele>
<time>2026-02-13T15:43:58Z</time>
</trkpt>
<trkpt lat="52.332560" lon="4.542722">
<ele>1.7</ele>
<time>2026-02-13T15:43:58Z</time>
</trkpt>
<trkpt lat="52.332554" lon="4.542726">
<ele>1.9</ele>
<time>2026-02-13T15:43:59Z</time>
</trkpt>
<trkpt lat="52.332547" lon="4.542731">
<ele>1.9</ele>
<time>2026-02-13T15:43:59Z</time>
</trkpt>
<trkpt lat="52.332541" lon="4.542735">
<ele>1.9</ele>
<time>2026-02-13T15:44:00Z</time>
</trkpt>
<trkpt lat="52.332534" lon="4.542740">
<ele>1.9</ele>
<time>2026-02-13T15:44:00Z</time>
</trkpt>
<trkpt lat="52.332525" lon="4.542747">
<ele>2.4</ele>
<time>2026-02-13T15:44:01Z</time>
</trkpt>
<trkpt lat="52.332517" lon="4.542753">
<ele>2.2</ele>
<time>2026-02-13T15:44:02Z</time>
</trkpt>
<trkpt lat="52.332507" lon="4.542762">
<ele>2.2</ele>
<time>2026-02-13T15:44:02Z</time>
</trkpt>
<trkpt lat="52.332500" lon="4.542767">
<ele>2.7</ele>
<time>2026-02-13T15:44:03Z</time>
</trkpt>
<trkpt lat="52.332493" lon="4.542773">
<ele>2.7</ele>
<time>2026-02-13T15:44:03Z</time>
</trkpt>
<trkpt lat="52.332479" lon="4.542782">
<ele>2.4</ele>
<time>2026-02-13T15:44:04Z</time>
</trkpt>
<trkpt lat="52.332472" lon="4.542787">
<ele>3.1</ele>
<time>2026-02-13T15:44:05Z</time>
</trkpt>
<trkpt lat="52.332465" lon="4.542792">
<ele>3.1</ele>
<time>2026-02-13T15:44:05Z</time>
</trkpt>
<trkpt lat="52.332459" lon="4.542799">
<ele>3.0</ele>
<time>2026-02-13T15:44:06Z</time>
</trkpt>
<trkpt lat="52.332452" lon="4.542805">
<ele>3.0</ele>
<time>2026-02-13T15:44:06Z</time>
</trkpt>
<trkpt lat="52.332446" lon="4.542812">
<ele>2.9</ele>
<time>2026-02-13T15:44:07Z</time>
</trkpt>
<trkpt lat="52.332439" lon="4.542817">
<ele>2.9</ele>
<time>2026-02-13T15:44:07Z</time>
</trkpt>
<trkpt lat="52.332434" lon="4.542822">
<ele>3.0</ele>
<time>2026-02-13T15:44:08Z</time>
</trkpt>
<trkpt lat="52.332427" lon="4.542828">
<ele>3.0</ele>
<time>2026-02-13T15:44:08Z</time>
</trkpt>
<trkpt lat="52.332422" lon="4.542833">
<ele>3.1</ele>
<time>2026-02-13T15:44:09Z</time>
</trkpt>
<trkpt lat="52.332416" lon="4.542839">
<ele>3.1</ele>
<time>2026-02-13T15:44:09Z</time>
</trkpt>
<trkpt lat="52.332409" lon="4.542846">
<ele>3.1</ele>
<time>2026-02-13T15:44:10Z</time>
</trkpt>
<trkpt lat="52.332400" lon="4.542856">
<ele>2.9</ele>
<time>2026-02-13T15:44:11Z</time>
</trkpt>
<trkpt lat="52.332391" lon="4.542865">
<ele>2.9</ele>
<time>2026-02-13T15:44:11Z</time>
</trkpt>
<trkpt lat="52.332386" lon="4.542872">
<ele>3.1</ele>
<time>2026-02-13T15:44:12Z</time>
</trkpt>
<trkpt lat="52.332380" lon="4.542878">
<ele>3.1</ele>
<time>2026-02-13T15:44:12Z</time>
</trkpt>
<trkpt lat="52.332374" lon="4.542885">
<ele>2.9</ele>
<time>2026-02-13T15:44:13Z</time>
</trkpt>
<trkpt lat="52.332367" lon="4.542892">
<ele>2.9</ele>
<time>2026-02-13T15:44:13Z</time>
</trkpt>
<trkpt lat="52.332361" lon="4.542898">
<ele>3.2</ele>
<time>2026-02-13T15:44:14Z</time>
</trkpt>
<trkpt lat="52.332354" lon="4.542905">
<ele>3.2</ele>
<time>2026-02-13T15:44:14Z</time>
</trkpt>
<trkpt lat="52.332347" lon="4.542912">
<ele>2.9</ele>
<time>2026-02-13T15:44:15Z</time>
</trkpt>
<trkpt lat="52.332333" lon="4.542923">
<ele>2.9</ele>
<time>2026-02-13T15:44:16Z</time>
</trkpt>
<trkpt lat="52.332324" lon="4.542931">
<ele>2.9</ele>
<time>2026-02-13T15:44:16Z</time>
</trkpt>
<trkpt lat="52.332319" lon="4.542935">
<ele>2.9</ele>
<time>2026-02-13T15:44:17Z</time>
</trkpt>
<trkpt lat="52.332314" lon="4.542940">
<ele>3.0</ele>
<time>2026-02-13T15:44:17Z</time>
</trkpt>
<trkpt lat="52.332307" lon="4.542946">
<ele>3.0</ele>
<time>2026-02-13T15:44:18Z</time>
</trkpt>
<trkpt lat="52.332301" lon="4.542951">
<ele>2.9</ele>
<time>2026-02-13T15:44:18Z</time>
</trkpt>
<trkpt lat="52.332294" lon="4.542957">
<ele>2.9</ele>
<time>2026-02-13T15:44:19Z</time>
</trkpt>
<trkpt lat="52.332282" lon="4.542971">
<ele>2.8</ele>
<time>2026-02-13T15:44:20Z</time>
</trkpt>
<trkpt lat="52.332269" lon="4.542985">
<ele>2.9</ele>
<time>2026-02-13T15:44:21Z</time>
</trkpt>
<trkpt lat="52.332258" lon="4.543000">
<ele>2.7</ele>
<time>2026-02-13T15:44:22Z</time>
</trkpt>
<trkpt lat="52.332251" lon="4.543007">
<ele>2.7</ele>
<time>2026-02-13T15:44:22Z</time>
</trkpt>
<trkpt lat="52.332240" lon="4.543015">
<ele>2.7</ele>
<time>2026-02-13T15:44:23Z</time>
</trkpt>
<trkpt lat="52.332234" lon="4.543021">
<ele>2.7</ele>
<time>2026-02-13T15:44:23Z</time>
</trkpt>
<trkpt lat="52.332227" lon="4.543029">
<ele>2.7</ele>
<time>2026-02-13T15:44:24Z</time>
</trkpt>
<trkpt lat="52.332221" lon="4.543038">
<ele>2.7</ele>
<time>2026-02-13T15:44:24Z</time>
</trkpt>
<trkpt lat="52.332215" lon="4.543045">
<ele>2.6</ele>
<time>2026-02-13T15:44:25Z</time>
</trkpt>
<trkpt lat="52.332209" lon="4.543052">
<ele>2.6</ele>
<time>2026-02-13T15:44:25Z</time>
</trkpt>
<trkpt lat="52.332202" lon="4.543059">
<ele>2.5</ele>
<time>2026-02-13T15:44:26Z</time>
</trkpt>
<trkpt lat="52.332195" lon="4.543067">
<ele>2.5</ele>
<time>2026-02-13T15:44:26Z</time>
</trkpt>
<trkpt lat="52.332189" lon="4.543073">
<ele>2.4</ele>
<time>2026-02-13T15:44:27Z</time>
</trkpt>
<trkpt lat="52.332182" lon="4.543081">
<ele>2.4</ele>
<time>2026-02-13T15:44:27Z</time>
</trkpt>
<trkpt lat="52.332170" lon="4.543094">
<ele>3.1</ele>
<time>2026-02-13T15:44:28Z</time>
</trkpt>
<trkpt lat="52.332164" lon="4.543100">
<ele>3.0</ele>
<time>2026-02-13T15:44:29Z</time>
</trkpt>
<trkpt lat="52.332153" lon="4.543116">
<ele>3.0</ele>
<time>2026-02-13T15:44:29Z</time>
</trkpt>
<trkpt lat="52.332142" lon="4.543124">
<ele>3.2</ele>
<time>2026-02-13T15:44:30Z</time>
</trkpt>
<trkpt lat="52.332133" lon="4.543133">
<ele>2.7</ele>
<time>2026-02-13T15:44:31Z</time>
</trkpt>
<trkpt lat="52.332128" lon="4.543139">
<ele>2.8</ele>
<time>2026-02-13T15:44:32Z</time>
</trkpt>
<trkpt lat="52.332123" lon="4.543148">
<ele>2.8</ele>
<time>2026-02-13T15:44:32Z</time>
</trkpt>
<trkpt lat="52.332119" lon="4.543156">
<ele>2.7</ele>
<time>2026-02-13T15:44:33Z</time>
</trkpt>
<trkpt lat="52.332115" lon="4.543166">
<ele>2.7</ele>
<time>2026-02-13T15:44:33Z</time>
</trkpt>
<trkpt lat="52.332110" lon="4.543176">
<ele>2.7</ele>
<time>2026-02-13T15:44:34Z</time>
</trkpt>
<trkpt lat="52.332104" lon="4.543183">
<ele>3.2</ele>
<time>2026-02-13T15:44:34Z</time>
</trkpt>
<trkpt lat="52.332098" lon="4.543189">
<ele>3.2</ele>
<time>2026-02-13T15:44:35Z</time>
</trkpt>
<trkpt lat="52.332089" lon="4.543191">
<ele>3.2</ele>
<time>2026-02-13T15:44:35Z</time>
</trkpt>
<trkpt lat="52.332082" lon="4.543195">
<ele>3.2</ele>
<time>2026-02-13T15:44:36Z</time>
</trkpt>
<trkpt lat="52.332074" lon="4.543198">
<ele>3.1</ele>
<time>2026-02-13T15:44:36Z</time>
</trkpt>
<trkpt lat="52.332067" lon="4.543203">
<ele>3.1</ele>
<time>2026-02-13T15:44:36Z</time>
</trkpt>
<trkpt lat="52.332060" lon="4.543208">
<ele>3.3</ele>
<time>2026-02-13T15:44:37Z</time>
</trkpt>
<trkpt lat="52.332053" lon="4.543215">
<ele>3.3</ele>
<time>2026-02-13T15:44:37Z</time>
</trkpt>
<trkpt lat="52.332046" lon="4.543221">
<ele>3.3</ele>
<time>2026-02-13T15:44:38Z</time>
</trkpt>
<trkpt lat="52.332040" lon="4.543227">
<ele>3.3</ele>
<time>2026-02-13T15:44:38Z</time>
</trkpt>
<trkpt lat="52.332033" lon="4.543235">
<ele>3.3</ele>
<time>2026-02-13T15:44:39Z</time>
</trkpt>
<trkpt lat="52.332027" lon="4.543241">
<ele>3.3</ele>
<time>2026-02-13T15:44:39Z</time>
</trkpt>
<trkpt lat="52.332020" lon="4.543249">
<ele>3.2</ele>
<time>2026-02-13T15:44:40Z</time>
</trkpt>
<trkpt lat="52.332014" lon="4.543256">
<ele>3.2</ele>
<time>2026-02-13T15:44:40Z</time>
</trkpt>
<trkpt lat="52.332007" lon="4.543264">
<ele>3.3</ele>
<time>2026-02-13T15:44:41Z</time>
</trkpt>
<trkpt lat="52.331996" lon="4.543277">
<ele>3.3</ele>
<time>2026-02-13T15:44:41Z</time>
</trkpt>
<trkpt lat="52.331994" lon="4.543281">
<ele>3.5</ele>
<time>2026-02-13T15:44:42Z</time>
</trkpt>
<trkpt lat="52.331983" lon="4.543294">
<ele>3.5</ele>
<time>2026-02-13T15:44:43Z</time>
</trkpt>
<trkpt lat="52.331974" lon="4.543306">
<ele>3.6</ele>
<time>2026-02-13T15:44:43Z</time>
</trkpt>
<trkpt lat="52.331963" lon="4.543328">
<ele>3.4</ele>
<time>2026-02-13T15:44:45Z</time>
</trkpt>
<trkpt lat="52.331957" lon="4.543335">
<ele>3.8</ele>
<time>2026-02-13T15:44:45Z</time>
</trkpt>
<trkpt lat="52.331952" lon="4.543342">
<ele>3.3</ele>
<time>2026-02-13T15:44:46Z</time>
</trkpt>
<trkpt lat="52.331941" lon="4.543353">
<ele>3.8</ele>
<time>2026-02-13T15:44:47Z</time>
</trkpt>
<trkpt lat="52.331933" lon="4.543360">
<ele>3.8</ele>
<time>2026-02-13T15:44:47Z</time>
</trkpt>
<trkpt lat="52.331927" lon="4.543366">
<ele>3.3</ele>
<time>2026-02-13T15:44:48Z</time>
</trkpt>
<trkpt lat="52.331920" lon="4.543373">
<ele>3.3</ele>
<time>2026-02-13T15:44:48Z</time>
</trkpt>
<trkpt lat="52.331913" lon="4.543379">
<ele>3.1</ele>
<time>2026-02-13T15:44:49Z</time>
</trkpt>
<trkpt lat="52.331906" lon="4.543387">
<ele>3.1</ele>
<time>2026-02-13T15:44:49Z</time>
</trkpt>
<trkpt lat="52.331899" lon="4.543394">
<ele>3.2</ele>
<time>2026-02-13T15:44:50Z</time>
</trkpt>
<trkpt lat="52.331892" lon="4.543401">
<ele>3.2</ele>
<time>2026-02-13T15:44:50Z</time>
</trkpt>
<trkpt lat="52.331886" lon="4.543409">
<ele>3.3</ele>
<time>2026-02-13T15:44:51Z</time>
</trkpt>
<trkpt lat="52.331880" lon="4.543416">
<ele>3.3</ele>
<time>2026-02-13T15:44:51Z</time>
</trkpt>
<trkpt lat="52.331874" lon="4.543423">
<ele>3.2</ele>
<time>2026-02-13T15:44:52Z</time>
</trkpt>
<trkpt lat="52.331867" lon="4.543430">
<ele>3.2</ele>
<time>2026-02-13T15:44:52Z</time>
</trkpt>
<trkpt lat="52.331860" lon="4.543439">
<ele>3.2</ele>
<time>2026-02-13T15:44:53Z</time>
</trkpt>
<trkpt lat="52.331847" lon="4.543458">
<ele>3.6</ele>
<time>2026-02-13T15:44:54Z</time>
</trkpt>
<trkpt lat="52.331837" lon="4.543473">
<ele>3.7</ele>
<time>2026-02-13T15:44:55Z</time>
</trkpt>
<trkpt lat="52.331832" lon="4.543481">
<ele>3.5</ele>
<time>2026-02-13T15:44:55Z</time>
</trkpt>
<trkpt lat="52.331823" lon="4.543493">
<ele>2.9</ele>
<time>2026-02-13T15:44:56Z</time>
</trkpt>
<trkpt lat="52.331818" lon="4.543500">
<ele>2.8</ele>
<time>2026-02-13T15:44:56Z</time>
</trkpt>
<trkpt lat="52.331809" lon="4.543513">
<ele>3.4</ele>
<time>2026-02-13T15:44:57Z</time>
</trkpt>
<trkpt lat="52.331802" lon="4.543524">
<ele>3.4</ele>
<time>2026-02-13T15:44:58Z</time>
</trkpt>
<trkpt lat="52.331792" lon="4.543541">
<ele>3.6</ele>
<time>2026-02-13T15:44:59Z</time>
</trkpt>
<trkpt lat="52.331781" lon="4.543557">
<ele>3.6</ele>
<time>2026-02-13T15:45:00Z</time>
</trkpt>
<trkpt lat="52.331771" lon="4.543576">
<ele>3.5</ele>
<time>2026-02-13T15:45:01Z</time>
</trkpt>
<trkpt lat="52.331760" lon="4.543594">
<ele>3.5</ele>
<time>2026-02-13T15:45:02Z</time>
</trkpt>
<trkpt lat="52.331747" lon="4.543614">
<ele>3.6</ele>
<time>2026-02-13T15:45:03Z</time>
</trkpt>
<trkpt lat="52.331736" lon="4.543629">
<ele>3.3</ele>
<time>2026-02-13T15:45:04Z</time>
</trkpt>
<trkpt lat="52.331725" lon="4.543645">
<ele>3.3</ele>
<time>2026-02-13T15:45:05Z</time>
</trkpt>
<trkpt lat="52.331719" lon="4.543651">
<ele>3.2</ele>
<time>2026-02-13T15:45:05Z</time>
</trkpt>
<trkpt lat="52.331712" lon="4.543658">
<ele>3.2</ele>
<time>2026-02-13T15:45:06Z</time>
</trkpt>
<trkpt lat="52.331705" lon="4.543662">
<ele>3.2</ele>
<time>2026-02-13T15:45:06Z</time>
</trkpt>
<trkpt lat="52.331693" lon="4.543680">
<ele>3.3</ele>
<time>2026-02-13T15:45:07Z</time>
</trkpt>
<trkpt lat="52.331682" lon="4.543697">
<ele>2.7</ele>
<time>2026-02-13T15:45:08Z</time>
</trkpt>
<trkpt lat="52.331672" lon="4.543715">
<ele>2.5</ele>
<time>2026-02-13T15:45:09Z</time>
</trkpt>
<trkpt lat="52.331668" lon="4.543726">
<ele>2.9</ele>
<time>2026-02-13T15:45:10Z</time>
</trkpt>
<trkpt lat="52.331661" lon="4.543734">
<ele>2.9</ele>
<time>2026-02-13T15:45:10Z</time>
</trkpt>
<trkpt lat="52.331649" lon="4.543750">
<ele>2.6</ele>
<time>2026-02-13T15:45:11Z</time>
</trkpt>
<trkpt lat="52.331639" lon="4.543771">
<ele>2.8</ele>
<time>2026-02-13T15:45:12Z</time>
</trkpt>
<trkpt lat="52.331633" lon="4.543780">
<ele>2.8</ele>
<time>2026-02-13T15:45:13Z</time>
</trkpt>
<trkpt lat="52.331629" lon="4.543792">
<ele>2.2</ele>
<time>2026-02-13T15:45:13Z</time>
</trkpt>
<trkpt lat="52.331625" lon="4.543803">
<ele>2.5</ele>
<time>2026-02-13T15:45:14Z</time>
</trkpt>
<trkpt lat="52.331613" lon="4.543825">
<ele>2.6</ele>
<time>2026-02-13T15:45:15Z</time>
</trkpt>
<trkpt lat="52.331611" lon="4.543835">
<ele>2.4</ele>
<time>2026-02-13T15:45:15Z</time>
</trkpt>
<trkpt lat="52.331604" lon="4.543855">
<ele>2.3</ele>
<time>2026-02-13T15:45:16Z</time>
</trkpt>
<trkpt lat="52.331601" lon="4.543869">
<ele>2.2</ele>
<time>2026-02-13T15:45:17Z</time>
</trkpt>
<trkpt lat="52.331594" lon="4.543888">
<ele>2.2</ele>
<time>2026-02-13T15:45:17Z</time>
</trkpt>
<trkpt lat="52.331589" lon="4.543900">
<ele>2.3</ele>
<time>2026-02-13T15:45:18Z</time>
</trkpt>
<trkpt lat="52.331583" lon="4.543913">
<ele>1.6</ele>
<time>2026-02-13T15:45:19Z</time>
</trkpt>
<trkpt lat="52.331574" lon="4.543929">
<ele>1.6</ele>
<time>2026-02-13T15:45:19Z</time>
</trkpt>
<trkpt lat="52.331568" lon="4.543939">
<ele>1.6</ele>
<time>2026-02-13T15:45:20Z</time>
</trkpt>
<trkpt lat="52.331562" lon="4.543949">
<ele>1.6</ele>
<time>2026-02-13T15:45:20Z</time>
</trkpt>
<trkpt lat="52.331556" lon="4.543958">
<ele>1.9</ele>
<time>2026-02-13T15:45:21Z</time>
</trkpt>
<trkpt lat="52.331551" lon="4.543968">
<ele>1.9</ele>
<time>2026-02-13T15:45:21Z</time>
</trkpt>
<trkpt lat="52.331545" lon="4.543976">
<ele>1.9</ele>
<time>2026-02-13T15:45:22Z</time>
</trkpt>
<trkpt lat="52.331539" lon="4.543986">
<ele>1.9</ele>
<time>2026-02-13T15:45:22Z</time>
</trkpt>
<trkpt lat="52.331529" lon="4.544003">
<ele>2.0</ele>
<time>2026-02-13T15:45:23Z</time>
</trkpt>
<trkpt lat="52.331523" lon="4.544011">
<ele>2.0</ele>
<time>2026-02-13T15:45:24Z</time>
</trkpt>
<trkpt lat="52.331519" lon="4.544020">
<ele>2.0</ele>
<time>2026-02-13T15:45:24Z</time>
</trkpt>
<trkpt lat="52.331512" lon="4.544029">
<ele>2.1</ele>
<time>2026-02-13T15:45:25Z</time>
</trkpt>
<trkpt lat="52.331501" lon="4.544045">
<ele>2.0</ele>
<time>2026-02-13T15:45:26Z</time>
</trkpt>
<trkpt lat="52.331490" lon="4.544063">
<ele>1.9</ele>
<time>2026-02-13T15:45:27Z</time>
</trkpt>
<trkpt lat="52.331479" lon="4.544079">
<ele>1.9</ele>
<time>2026-02-13T15:45:28Z</time>
</trkpt>
<trkpt lat="52.331470" lon="4.544094">
<ele>2.2</ele>
<time>2026-02-13T15:45:29Z</time>
</trkpt>
<trkpt lat="52.331462" lon="4.544105">
<ele>2.3</ele>
<time>2026-02-13T15:45:30Z</time>
</trkpt>
<trkpt lat="52.331456" lon="4.544113">
<ele>2.1</ele>
<time>2026-02-13T15:45:30Z</time>
</trkpt>
<trkpt lat="52.331451" lon="4.544120">
<ele>2.2</ele>
<time>2026-02-13T15:45:31Z</time>
</trkpt>
<trkpt lat="52.331447" lon="4.544127">
<ele>2.2</ele>
<time>2026-02-13T15:45:31Z</time>
</trkpt>
<trkpt lat="52.331442" lon="4.544135">
<ele>2.4</ele>
<time>2026-02-13T15:45:32Z</time>
</trkpt>
<trkpt lat="52.331437" lon="4.544145">
<ele>2.4</ele>
<time>2026-02-13T15:45:32Z</time>
</trkpt>
<trkpt lat="52.331433" lon="4.544153">
<ele>2.4</ele>
<time>2026-02-13T15:45:33Z</time>
</trkpt>
<trkpt lat="52.331426" lon="4.544162">
<ele>2.0</ele>
<time>2026-02-13T15:45:33Z</time>
</trkpt>
<trkpt lat="52.331421" lon="4.544171">
<ele>2.0</ele>
<time>2026-02-13T15:45:34Z</time>
</trkpt>
<trkpt lat="52.331413" lon="4.544180">
<ele>2.0</ele>
<time>2026-02-13T15:45:34Z</time>
</trkpt>
<trkpt lat="52.331406" lon="4.544192">
<ele>2.6</ele>
<time>2026-02-13T15:45:35Z</time>
</trkpt>
<trkpt lat="52.331396" lon="4.544207">
<ele>2.0</ele>
<time>2026-02-13T15:45:36Z</time>
</trkpt>
<trkpt lat="52.331390" lon="4.544216">
<ele>2.2</ele>
<time>2026-02-13T15:45:36Z</time>
</trkpt>
<trkpt lat="52.331386" lon="4.544227">
<ele>2.2</ele>
<time>2026-02-13T15:45:36Z</time>
</trkpt>
<trkpt lat="52.331375" lon="4.544254">
<ele>2.1</ele>
<time>2026-02-13T15:45:38Z</time>
</trkpt>
<trkpt lat="52.331369" lon="4.544252">
<ele>1.9</ele>
<time>2026-02-13T15:45:38Z</time>
</trkpt>
<trkpt lat="52.331359" lon="4.544258">
<ele>2.4</ele>
<time>2026-02-13T15:45:39Z</time>
</trkpt>
<trkpt lat="52.331355" lon="4.544267">
<ele>2.4</ele>
<time>2026-02-13T15:45:39Z</time>
</trkpt>
<trkpt lat="52.331348" lon="4.544274">
<ele>2.6</ele>
<time>2026-02-13T15:45:40Z</time>
</trkpt>
<trkpt lat="52.331344" lon="4.544283">
<ele>2.6</ele>
<time>2026-02-13T15:45:40Z</time>
</trkpt>
<trkpt lat="52.331336" lon="4.544290">
<ele>2.5</ele>
<time>2026-02-13T15:45:41Z</time>
</trkpt>
<trkpt lat="52.331331" lon="4.544298">
<ele>2.5</ele>
<time>2026-02-13T15:45:41Z</time>
</trkpt>
<trkpt lat="52.331323" lon="4.544304">
<ele>2.5</ele>
<time>2026-02-13T15:45:42Z</time>
</trkpt>
<trkpt lat="52.331318" lon="4.544312">
<ele>2.5</ele>
<time>2026-02-13T15:45:42Z</time>
</trkpt>
<trkpt lat="52.331309" lon="4.544317">
<ele>2.5</ele>
<time>2026-02-13T15:45:43Z</time>
</trkpt>
<trkpt lat="52.331303" lon="4.544324">
<ele>2.5</ele>
<time>2026-02-13T15:45:43Z</time>
</trkpt>
<trkpt lat="52.331295" lon="4.544328">
<ele>2.6</ele>
<time>2026-02-13T15:45:44Z</time>
</trkpt>
<trkpt lat="52.331289" lon="4.544336">
<ele>2.6</ele>
<time>2026-02-13T15:45:44Z</time>
</trkpt>
<trkpt lat="52.331281" lon="4.544341">
<ele>2.4</ele>
<time>2026-02-13T15:45:45Z</time>
</trkpt>
<trkpt lat="52.331275" lon="4.544349">
<ele>2.4</ele>
<time>2026-02-13T15:45:45Z</time>
</trkpt>
<trkpt lat="52.331267" lon="4.544353">
<ele>2.3</ele>
<time>2026-02-13T15:45:46Z</time>
</trkpt>
<trkpt lat="52.331254" lon="4.544367">
<ele>2.6</ele>
<time>2026-02-13T15:45:47Z</time>
</trkpt>
<trkpt lat="52.331240" lon="4.544378">
<ele>2.4</ele>
<time>2026-02-13T15:45:48Z</time>
</trkpt>
<trkpt lat="52.331227" lon="4.544387">
<ele>1.8</ele>
<time>2026-02-13T15:45:49Z</time>
</trkpt>
<trkpt lat="52.331222" lon="4.544390">
<ele>2.3</ele>
<time>2026-02-13T15:45:49Z</time>
</trkpt>
<trkpt lat="52.331216" lon="4.544394">
<ele>2.3</ele>
<time>2026-02-13T15:45:50Z</time>
</trkpt>
<trkpt lat="52.331208" lon="4.544397">
<ele>2.3</ele>
<time>2026-02-13T15:45:50Z</time>
</trkpt>
<trkpt lat="52.331197" lon="4.544400">
<ele>2.3</ele>
<time>2026-02-13T15:45:51Z</time>
</trkpt>
<trkpt lat="52.331191" lon="4.544406">
<ele>2.5</ele>
<time>2026-02-13T15:45:52Z</time>
</trkpt>
<trkpt lat="52.331184" lon="4.544411">
<ele>2.5</ele>
<time>2026-02-13T15:45:52Z</time>
</trkpt>
<trkpt lat="52.331178" lon="4.544413">
<ele>2.5</ele>
<time>2026-02-13T15:45:53Z</time>
</trkpt>
<trkpt lat="52.331171" lon="4.544421">
<ele>2.5</ele>
<time>2026-02-13T15:45:53Z</time>
</trkpt>
<trkpt lat="52.331164" lon="4.544424">
<ele>2.5</ele>
<time>2026-02-13T15:45:54Z</time>
</trkpt>
<trkpt lat="52.331157" lon="4.544433">
<ele>2.6</ele>
<time>2026-02-13T15:45:54Z</time>
</trkpt>
<trkpt lat="52.331150" lon="4.544438">
<ele>2.6</ele>
<time>2026-02-13T15:45:55Z</time>
</trkpt>
<trkpt lat="52.331143" lon="4.544448">
<ele>2.5</ele>
<time>2026-02-13T15:45:55Z</time>
</trkpt>
<trkpt lat="52.331136" lon="4.544454">
<ele>2.5</ele>
<time>2026-02-13T15:45:56Z</time>
</trkpt>
<trkpt lat="52.331130" lon="4.544465">
<ele>2.5</ele>
<time>2026-02-13T15:45:56Z</time>
</trkpt>
<trkpt lat="52.331123" lon="4.544471">
<ele>2.5</ele>
<time>2026-02-13T15:45:57Z</time>
</trkpt>
<trkpt lat="52.331116" lon="4.544494">
<ele>2.8</ele>
<time>2026-02-13T15:45:57Z</time>
</trkpt>
<trkpt lat="52.331116" lon="4.544501">
<ele>2.9</ele>
<time>2026-02-13T15:45:58Z</time>
</trkpt>
<trkpt lat="52.331110" lon="4.544526">
<ele>3.0</ele>
<time>2026-02-13T15:45:59Z</time>
</trkpt>
<trkpt lat="52.331103" lon="4.544539">
<ele>2.8</ele>
<time>2026-02-13T15:46:00Z</time>
</trkpt>
<trkpt lat="52.331096" lon="4.544547">
<ele>3.3</ele>
<time>2026-02-13T15:46:00Z</time>
</trkpt>
<trkpt lat="52.331080" lon="4.544567">
<ele>3.2</ele>
<time>2026-02-13T15:46:02Z</time>
</trkpt>
<trkpt lat="52.331080" lon="4.544583">
<ele>3.2</ele>
<time>2026-02-13T15:46:02Z</time>
</trkpt>
<trkpt lat="52.331073" lon="4.544601">
<ele>3.3</ele>
<time>2026-02-13T15:46:03Z</time>
</trkpt>
<trkpt lat="52.331064" lon="4.544606">
<ele>3.4</ele>
<time>2026-02-13T15:46:04Z</time>
</trkpt>
<trkpt lat="52.331049" lon="4.544619">
<ele>3.2</ele>
<time>2026-02-13T15:46:05Z</time>
</trkpt>
<trkpt lat="52.331034" lon="4.544632">
<ele>3.3</ele>
<time>2026-02-13T15:46:06Z</time>
</trkpt>
<trkpt lat="52.331021" lon="4.544642">
<ele>2.8</ele>
<time>2026-02-13T15:46:07Z</time>
</trkpt>
<trkpt lat="52.331008" lon="4.544654">
<ele>3.1</ele>
<time>2026-02-13T15:46:08Z</time>
</trkpt>
<trkpt lat="52.331003" lon="4.544658">
<ele>3.3</ele>
<time>2026-02-13T15:46:08Z</time>
</trkpt>
<trkpt lat="52.330997" lon="4.544662">
<ele>3.3</ele>
<time>2026-02-13T15:46:09Z</time>
</trkpt>
<trkpt lat="52.330991" lon="4.544666">
<ele>3.3</ele>
<time>2026-02-13T15:46:09Z</time>
</trkpt>
<trkpt lat="52.330985" lon="4.544670">
<ele>3.3</ele>
<time>2026-02-13T15:46:10Z</time>
</trkpt>
<trkpt lat="52.330978" lon="4.544676">
<ele>3.4</ele>
<time>2026-02-13T15:46:10Z</time>
</trkpt>
<trkpt lat="52.330971" lon="4.544681">
<ele>3.4</ele>
<time>2026-02-13T15:46:11Z</time>
</trkpt>
<trkpt lat="52.330964" lon="4.544688">
<ele>3.2</ele>
<time>2026-02-13T15:46:11Z</time>
</trkpt>
<trkpt lat="52.330958" lon="4.544694">
<ele>3.2</ele>
<time>2026-02-13T15:46:12Z</time>
</trkpt>
<trkpt lat="52.330950" lon="4.544702">
<ele>3.2</ele>
<time>2026-02-13T15:46:12Z</time>
</trkpt>
<trkpt lat="52.330944" lon="4.544709">
<ele>3.2</ele>
<time>2026-02-13T15:46:13Z</time>
</trkpt>
<trkpt lat="52.330938" lon="4.544716">
<ele>3.2</ele>
<time>2026-02-13T15:46:13Z</time>
</trkpt>
<trkpt lat="52.330931" lon="4.544723">
<ele>3.2</ele>
<time>2026-02-13T15:46:14Z</time>
</trkpt>
<trkpt lat="52.330918" lon="4.544735">
<ele>3.1</ele>
<time>2026-02-13T15:46:15Z</time>
</trkpt>
<trkpt lat="52.330911" lon="4.544741">
<ele>3.2</ele>
<time>2026-02-13T15:46:15Z</time>
</trkpt>
<trkpt lat="52.330905" lon="4.544748">
<ele>3.2</ele>
<time>2026-02-13T15:46:16Z</time>
</trkpt>
<trkpt lat="52.330897" lon="4.544762">
<ele>3.2</ele>
<time>2026-02-13T15:46:16Z</time>
</trkpt>
<trkpt lat="52.330893" lon="4.544766">
<ele>3.2</ele>
<time>2026-02-13T15:46:16Z</time>
</trkpt>
<trkpt lat="52.330890" lon="4.544773">
<ele>3.1</ele>
<time>2026-02-13T15:46:17Z</time>
</trkpt>
<trkpt lat="52.330885" lon="4.544781">
<ele>3.1</ele>
<time>2026-02-13T15:46:17Z</time>
</trkpt>
<trkpt lat="52.330881" lon="4.544789">
<ele>3.0</ele>
<time>2026-02-13T15:46:18Z</time>
</trkpt>
<trkpt lat="52.330875" lon="4.544797">
<ele>3.0</ele>
<time>2026-02-13T15:46:18Z</time>
</trkpt>
<trkpt lat="52.330871" lon="4.544806">
<ele>3.0</ele>
<time>2026-02-13T15:46:19Z</time>
</trkpt>
<trkpt lat="52.330866" lon="4.544816">
<ele>3.0</ele>
<time>2026-02-13T15:46:19Z</time>
</trkpt>
<trkpt lat="52.330861" lon="4.544827">
<ele>3.0</ele>
<time>2026-02-13T15:46:20Z</time>
</trkpt>
<trkpt lat="52.330855" lon="4.544837">
<ele>3.0</ele>
<time>2026-02-13T15:46:21Z</time>
</trkpt>
<trkpt lat="52.330846" lon="4.544853">
<ele>3.0</ele>
<time>2026-02-13T15:46:21Z</time>
</trkpt>
<trkpt lat="52.330837" lon="4.544864">
<ele>3.1</ele>
<time>2026-02-13T15:46:23Z</time>
</trkpt>
<trkpt lat="52.330830" lon="4.544874">
<ele>3.1</ele>
<time>2026-02-13T15:46:24Z</time>
</trkpt>
<trkpt lat="52.330825" lon="4.544875">
<ele>3.1</ele>
<time>2026-02-13T15:46:24Z</time>
</trkpt>
<trkpt lat="52.330818" lon="4.544877">
<ele>3.2</ele>
<time>2026-02-13T15:46:26Z</time>
</trkpt>
<trkpt lat="52.330817" lon="4.544881">
<ele>3.3</ele>
<time>2026-02-13T15:46:27Z</time>
</trkpt>
<trkpt lat="52.330817" lon="4.544881">
<ele>3.3</ele>
<time>2026-02-13T15:46:27Z</time>
</trkpt>
<trkpt lat="52.330815" lon="4.544880">
<ele>3.4</ele>
<time>2026-02-13T15:46:29Z</time>
</trkpt>
<trkpt lat="52.330813" lon="4.544877">
<ele>3.2</ele>
<time>2026-02-13T15:46:30Z</time>
</trkpt>
<trkpt lat="52.330812" lon="4.544875">
<ele>3.1</ele>
<time>2026-02-13T15:46:31Z</time>
</trkpt>
<trkpt lat="52.330812" lon="4.544874">
<ele>3.4</ele>
<time>2026-02-13T15:46:32Z</time>
</trkpt>
<trkpt lat="52.330812" lon="4.544874">
<ele>3.2</ele>
<time>2026-02-13T15:46:33Z</time>
</trkpt>
<trkpt lat="52.330812" lon="4.544874">
<ele>3.2</ele>
<time>2026-02-13T15:46:33Z</time>
</trkpt>
<trkpt lat="52.330812" lon="4.544874">
<ele>3.0</ele>
<time>2026-02-13T15:46:34Z</time>
</trkpt>
<trkpt lat="52.330811" lon="4.544875">
<ele>3.1</ele>
<time>2026-02-13T15:46:35Z</time>
</trkpt>
<trkpt lat="52.330811" lon="4.544875">
<ele>3.1</ele>
<time>2026-02-13T15:46:35Z</time>
</trkpt>
<trkpt lat="52.330809" lon="4.544876">
<ele>3.0</ele>
<time>2026-02-13T15:46:36Z</time>
</trkpt>
<trkpt lat="52.330807" lon="4.544879">
<ele>3.1</ele>
<time>2026-02-13T15:46:37Z</time>
</trkpt>
<trkpt lat="52.330803" lon="4.544884">
<ele>3.1</ele>
<time>2026-02-13T15:46:38Z</time>
</trkpt>
<trkpt lat="52.330797" lon="4.544895">
<ele>3.2</ele>
<time>2026-02-13T15:46:39Z</time>
</trkpt>
<trkpt lat="52.330792" lon="4.544909">
<ele>3.2</ele>
<time>2026-02-13T15:46:39Z</time>
</trkpt>
<trkpt lat="52.330786" lon="4.544924">
<ele>3.2</ele>
<time>2026-02-13T15:46:40Z</time>
</trkpt>
<trkpt lat="52.330782" lon="4.544934">
<ele>3.2</ele>
<time>2026-02-13T15:46:41Z</time>
</trkpt>
<trkpt lat="52.330775" lon="4.544945">
<ele>3.1</ele>
<time>2026-02-13T15:46:41Z</time>
</trkpt>
<trkpt lat="52.330770" lon="4.544955">
<ele>3.0</ele>
<time>2026-02-13T15:46:42Z</time>
</trkpt>
<trkpt lat="52.330763" lon="4.544970">
<ele>3.0</ele>
<time>2026-02-13T15:46:42Z</time>
</trkpt>
<trkpt lat="52.330756" lon="4.544983">
<ele>2.9</ele>
<time>2026-02-13T15:46:43Z</time>
</trkpt>
<trkpt lat="52.330750" lon="4.544992">
<ele>2.8</ele>
<time>2026-02-13T15:46:44Z</time>
</trkpt>
<trkpt lat="52.330741" lon="4.545007">
<ele>2.8</ele>
<time>2026-02-13T15:46:44Z</time>
</trkpt>
<trkpt lat="52.330733" lon="4.545015">
<ele>2.4</ele>
<time>2026-02-13T15:46:45Z</time>
</trkpt>
<trkpt lat="52.330727" lon="4.545023">
<ele>2.2</ele>
<time>2026-02-13T15:46:46Z</time>
</trkpt>
<trkpt lat="52.330721" lon="4.545031">
<ele>2.2</ele>
<time>2026-02-13T15:46:46Z</time>
</trkpt>
<trkpt lat="52.330716" lon="4.545039">
<ele>2.1</ele>
<time>2026-02-13T15:46:47Z</time>
</trkpt>
<trkpt lat="52.330709" lon="4.545048">
<ele>2.1</ele>
<time>2026-02-13T15:46:47Z</time>
</trkpt>
<trkpt lat="52.330703" lon="4.545056">
<ele>1.9</ele>
<time>2026-02-13T15:46:48Z</time>
</trkpt>
<trkpt lat="52.330694" lon="4.545071">
<ele>1.9</ele>
<time>2026-02-13T15:46:49Z</time>
</trkpt>
<trkpt lat="52.330684" lon="4.545088">
<ele>1.8</ele>
<time>2026-02-13T15:46:50Z</time>
</trkpt>
<trkpt lat="52.330676" lon="4.545099">
<ele>1.8</ele>
<time>2026-02-13T15:46:51Z</time>
</trkpt>
<trkpt lat="52.330671" lon="4.545107">
<ele>1.9</ele>
<time>2026-02-13T15:46:51Z</time>
</trkpt>
<trkpt lat="52.330666" lon="4.545118">
<ele>1.9</ele>
<time>2026-02-13T15:46:52Z</time>
</trkpt>
<trkpt lat="52.330657" lon="4.545134">
<ele>2.0</ele>
<time>2026-02-13T15:46:53Z</time>
</trkpt>
<trkpt lat="52.330652" lon="4.545142">
<ele>1.8</ele>
<time>2026-02-13T15:46:53Z</time>
</trkpt>
<trkpt lat="52.330648" lon="4.545151">
<ele>1.8</ele>
<time>2026-02-13T15:46:54Z</time>
</trkpt>
<trkpt lat="52.330642" lon="4.545164">
<ele>1.7</ele>
<time>2026-02-13T15:46:54Z</time>
</trkpt>
<trkpt lat="52.330633" lon="4.545181">
<ele>1.9</ele>
<time>2026-02-13T15:46:55Z</time>
</trkpt>
<trkpt lat="52.330629" lon="4.545191">
<ele>1.9</ele>
<time>2026-02-13T15:46:56Z</time>
</trkpt>
<trkpt lat="52.330624" lon="4.545203">
<ele>2.1</ele>
<time>2026-02-13T15:46:56Z</time>
</trkpt>
<trkpt lat="52.330617" lon="4.545221">
<ele>2.1</ele>
<time>2026-02-13T15:46:57Z</time>
</trkpt>
<trkpt lat="52.330613" lon="4.545232">
<ele>2.1</ele>
<time>2026-02-13T15:46:58Z</time>
</trkpt>
<trkpt lat="52.330609" lon="4.545244">
<ele>2.3</ele>
<time>2026-02-13T15:46:58Z</time>
</trkpt>
<trkpt lat="52.330603" lon="4.545264">
<ele>2.3</ele>
<time>2026-02-13T15:46:59Z</time>
</trkpt>
<trkpt lat="52.330600" lon="4.545276">
<ele>2.3</ele>
<time>2026-02-13T15:47:00Z</time>
</trkpt>
<trkpt lat="52.330597" lon="4.545290">
<ele>2.3</ele>
<time>2026-02-13T15:47:00Z</time>
</trkpt>
<trkpt lat="52.330590" lon="4.545307">
<ele>2.4</ele>
<time>2026-02-13T15:47:01Z</time>
</trkpt>
<trkpt lat="52.330586" lon="4.545316">
<ele>2.2</ele>
<time>2026-02-13T15:47:02Z</time>
</trkpt>
<trkpt lat="52.330583" lon="4.545326">
<ele>2.2</ele>
<time>2026-02-13T15:47:02Z</time>
</trkpt>
<trkpt lat="52.330579" lon="4.545336">
<ele>2.2</ele>
<time>2026-02-13T15:47:03Z</time>
</trkpt>
<trkpt lat="52.330577" lon="4.545346">
<ele>2.0</ele>
<time>2026-02-13T15:47:03Z</time>
</trkpt>
<trkpt lat="52.330573" lon="4.545357">
<ele>2.0</ele>
<time>2026-02-13T15:47:04Z</time>
</trkpt>
<trkpt lat="52.330572" lon="4.545368">
<ele>2.1</ele>
<time>2026-02-13T15:47:04Z</time>
</trkpt>
<trkpt lat="52.330567" lon="4.545382">
<ele>2.1</ele>
<time>2026-02-13T15:47:05Z</time>
</trkpt>
<trkpt lat="52.330565" lon="4.545401">
<ele>1.9</ele>
<time>2026-02-13T15:47:06Z</time>
</trkpt>
<trkpt lat="52.330567" lon="4.545411">
<ele>1.9</ele>
<time>2026-02-13T15:47:06Z</time>
</trkpt>
<trkpt lat="52.330565" lon="4.545423">
<ele>1.9</ele>
<time>2026-02-13T15:47:07Z</time>
</trkpt>
<trkpt lat="52.330560" lon="4.545455">
<ele>1.9</ele>
<time>2026-02-13T15:47:08Z</time>
</trkpt>
<trkpt lat="52.330562" lon="4.545464">
<ele>2.0</ele>
<time>2026-02-13T15:47:08Z</time>
</trkpt>
<trkpt lat="52.330560" lon="4.545483">
<ele>2.1</ele>
<time>2026-02-13T15:47:09Z</time>
</trkpt>
<trkpt lat="52.330558" lon="4.545495">
<ele>1.9</ele>
<time>2026-02-13T15:47:10Z</time>
</trkpt>
<trkpt lat="52.330552" lon="4.545516">
<ele>1.9</ele>
<time>2026-02-13T15:47:10Z</time>
</trkpt>
<trkpt lat="52.330549" lon="4.545526">
<ele>1.7</ele>
<time>2026-02-13T15:47:11Z</time>
</trkpt>
<trkpt lat="52.330545" lon="4.545537">
<ele>1.7</ele>
<time>2026-02-13T15:47:12Z</time>
</trkpt>
<trkpt lat="52.330543" lon="4.545546">
<ele>1.8</ele>
<time>2026-02-13T15:47:12Z</time>
</trkpt>
<trkpt lat="52.330537" lon="4.545553">
<ele>1.8</ele>
<time>2026-02-13T15:47:12Z</time>
</trkpt>
<trkpt lat="52.330532" lon="4.545559">
<ele>1.9</ele>
<time>2026-02-13T15:47:13Z</time>
</trkpt>
<trkpt lat="52.330526" lon="4.545565">
<ele>1.9</ele>
<time>2026-02-13T15:47:13Z</time>
</trkpt>
<trkpt lat="52.330522" lon="4.545573">
<ele>1.8</ele>
<time>2026-02-13T15:47:14Z</time>
</trkpt>
<trkpt lat="52.330516" lon="4.545580">
<ele>1.8</ele>
<time>2026-02-13T15:47:14Z</time>
</trkpt>
<trkpt lat="52.330511" lon="4.545588">
<ele>1.8</ele>
<time>2026-02-13T15:47:15Z</time>
</trkpt>
<trkpt lat="52.330505" lon="4.545595">
<ele>1.8</ele>
<time>2026-02-13T15:47:15Z</time>
</trkpt>
<trkpt lat="52.330501" lon="4.545606">
<ele>1.8</ele>
<time>2026-02-13T15:47:16Z</time>
</trkpt>
<trkpt lat="52.330496" lon="4.545614">
<ele>1.8</ele>
<time>2026-02-13T15:47:16Z</time>
</trkpt>
<trkpt lat="52.330492" lon="4.545624">
<ele>1.8</ele>
<time>2026-02-13T15:47:17Z</time>
</trkpt>
<trkpt lat="52.330486" lon="4.545633">
<ele>1.8</ele>
<time>2026-02-13T15:47:17Z</time>
</trkpt>
<trkpt lat="52.330481" lon="4.545647">
<ele>1.6</ele>
<time>2026-02-13T15:47:18Z</time>
</trkpt>
<trkpt lat="52.330476" lon="4.545659">
<ele>1.7</ele>
<time>2026-02-13T15:47:19Z</time>
</trkpt>
<trkpt lat="52.330471" lon="4.545668">
<ele>1.7</ele>
<time>2026-02-13T15:47:19Z</time>
</trkpt>
<trkpt lat="52.330466" lon="4.545679">
<ele>1.8</ele>
<time>2026-02-13T15:47:20Z</time>
</trkpt>
<trkpt lat="52.330457" lon="4.545695">
<ele>1.8</ele>
<time>2026-02-13T15:47:20Z</time>
</trkpt>
<trkpt lat="52.330453" lon="4.545705">
<ele>1.9</ele>
<time>2026-02-13T15:47:21Z</time>
</trkpt>
<trkpt lat="52.330448" lon="4.545713">
<ele>1.9</ele>
<time>2026-02-13T15:47:21Z</time>
</trkpt>
<trkpt lat="52.330444" lon="4.545723">
<ele>1.8</ele>
<time>2026-02-13T15:47:22Z</time>
</trkpt>
<trkpt lat="52.330438" lon="4.545731">
<ele>1.8</ele>
<time>2026-02-13T15:47:22Z</time>
</trkpt>
<trkpt lat="52.330434" lon="4.545740">
<ele>1.8</ele>
<time>2026-02-13T15:47:23Z</time>
</trkpt>
<trkpt lat="52.330429" lon="4.545748">
<ele>1.8</ele>
<time>2026-02-13T15:47:23Z</time>
</trkpt>
<trkpt lat="52.330426" lon="4.545757">
<ele>1.9</ele>
<time>2026-02-13T15:47:24Z</time>
</trkpt>
<trkpt lat="52.330421" lon="4.545765">
<ele>1.9</ele>
<time>2026-02-13T15:47:24Z</time>
</trkpt>
<trkpt lat="52.330408" lon="4.545787">
<ele>2.1</ele>
<time>2026-02-13T15:47:26Z</time>
</trkpt>
<trkpt lat="52.330399" lon="4.545797">
<ele>2.1</ele>
<time>2026-02-13T15:47:26Z</time>
</trkpt>
<trkpt lat="52.330392" lon="4.545804">
<ele>2.3</ele>
<time>2026-02-13T15:47:27Z</time>
</trkpt>
<trkpt lat="52.330386" lon="4.545808">
<ele>2.3</ele>
<time>2026-02-13T15:47:27Z</time>
</trkpt>
<trkpt lat="52.330381" lon="4.545815">
<ele>2.5</ele>
<time>2026-02-13T15:47:28Z</time>
</trkpt>
<trkpt lat="52.330375" lon="4.545820">
<ele>2.5</ele>
<time>2026-02-13T15:47:28Z</time>
</trkpt>
<trkpt lat="52.330369" lon="4.545828">
<ele>2.4</ele>
<time>2026-02-13T15:47:29Z</time>
</trkpt>
<trkpt lat="52.330355" lon="4.545838">
<ele>2.6</ele>
<time>2026-02-13T15:47:30Z</time>
</trkpt>
<trkpt lat="52.330346" lon="4.545852">
<ele>2.4</ele>
<time>2026-02-13T15:47:31Z</time>
</trkpt>
<trkpt lat="52.330334" lon="4.545867">
<ele>2.3</ele>
<time>2026-02-13T15:47:32Z</time>
</trkpt>
<trkpt lat="52.330327" lon="4.545874">
<ele>2.3</ele>
<time>2026-02-13T15:47:32Z</time>
</trkpt>
<trkpt lat="52.330321" lon="4.545881">
<ele>2.3</ele>
<time>2026-02-13T15:47:33Z</time>
</trkpt>
<trkpt lat="52.330315" lon="4.545893">
<ele>2.5</ele>
<time>2026-02-13T15:47:33Z</time>
</trkpt>
<trkpt lat="52.330307" lon="4.545910">
<ele>2.4</ele>
<time>2026-02-13T15:47:34Z</time>
</trkpt>
<trkpt lat="52.330301" lon="4.545921">
<ele>2.4</ele>
<time>2026-02-13T15:47:35Z</time>
</trkpt>
<trkpt lat="52.330296" lon="4.545930">
<ele>2.4</ele>
<time>2026-02-13T15:47:35Z</time>
</trkpt>
<trkpt lat="52.330291" lon="4.545938">
<ele>2.4</ele>
<time>2026-02-13T15:47:36Z</time>
</trkpt>
<trkpt lat="52.330285" lon="4.545949">
<ele>2.4</ele>
<time>2026-02-13T15:47:36Z</time>
</trkpt>
<trkpt lat="52.330280" lon="4.545957">
<ele>2.6</ele>
<time>2026-02-13T15:47:37Z</time>
</trkpt>
<trkpt lat="52.330274" lon="4.545967">
<ele>2.6</ele>
<time>2026-02-13T15:47:37Z</time>
</trkpt>
<trkpt lat="52.330269" lon="4.545975">
<ele>2.7</ele>
<time>2026-02-13T15:47:38Z</time>
</trkpt>
<trkpt lat="52.330263" lon="4.545985">
<ele>2.7</ele>
<time>2026-02-13T15:47:38Z</time>
</trkpt>
<trkpt lat="52.330258" lon="4.545993">
<ele>2.7</ele>
<time>2026-02-13T15:47:39Z</time>
</trkpt>
<trkpt lat="52.330253" lon="4.546002">
<ele>2.7</ele>
<time>2026-02-13T15:47:39Z</time>
</trkpt>
<trkpt lat="52.330248" lon="4.546012">
<ele>2.6</ele>
<time>2026-02-13T15:47:40Z</time>
</trkpt>
<trkpt lat="52.330243" lon="4.546022">
<ele>2.6</ele>
<time>2026-02-13T15:47:40Z</time>
</trkpt>
<trkpt lat="52.330239" lon="4.546032">
<ele>2.5</ele>
<time>2026-02-13T15:47:41Z</time>
</trkpt>
<trkpt lat="52.330228" lon="4.546058">
<ele>2.6</ele>
<time>2026-02-13T15:47:42Z</time>
</trkpt>
<trkpt lat="52.330220" lon="4.546077">
<ele>2.6</ele>
<time>2026-02-13T15:47:43Z</time>
</trkpt>
<trkpt lat="52.330212" lon="4.546094">
<ele>2.5</ele>
<time>2026-02-13T15:47:44Z</time>
</trkpt>
<trkpt lat="52.330210" lon="4.546100">
<ele>2.3</ele>
<time>2026-02-13T15:47:44Z</time>
</trkpt>
<trkpt lat="52.330204" lon="4.546111">
<ele>2.6</ele>
<time>2026-02-13T15:47:45Z</time>
</trkpt>
<trkpt lat="52.330197" lon="4.546120">
<ele>2.6</ele>
<time>2026-02-13T15:47:46Z</time>
</trkpt>
<trkpt lat="52.330185" lon="4.546136">
<ele>2.3</ele>
<time>2026-02-13T15:47:47Z</time>
</trkpt>
<trkpt lat="52.330173" lon="4.546154">
<ele>2.4</ele>
<time>2026-02-13T15:47:48Z</time>
</trkpt>
<trkpt lat="52.330158" lon="4.546163">
<ele>2.4</ele>
<time>2026-02-13T15:47:49Z</time>
</trkpt>
<trkpt lat="52.330138" lon="4.546169">
<ele>2.4</ele>
<time>2026-02-13T15:47:50Z</time>
</trkpt>
<trkpt lat="52.330123" lon="4.546170">
<ele>2.3</ele>
<time>2026-02-13T15:47:51Z</time>
</trkpt>
<trkpt lat="52.330108" lon="4.546167">
<ele>2.2</ele>
<time>2026-02-13T15:47:51Z</time>
</trkpt>
<trkpt lat="52.330098" lon="4.546163">
<ele>2.5</ele>
<time>2026-02-13T15:47:52Z</time>
</trkpt>
<trkpt lat="52.330083" lon="4.546165">
<ele>2.5</ele>
<time>2026-02-13T15:47:52Z</time>
</trkpt>
<trkpt lat="52.330078" lon="4.546162">
<ele>2.3</ele>
<time>2026-02-13T15:47:53Z</time>
</trkpt>
<trkpt lat="52.330066" lon="4.546165">
<ele>2.5</ele>
<time>2026-02-13T15:47:54Z</time>
</trkpt>
<trkpt lat="52.330050" lon="4.546167">
<ele>2.4</ele>
<time>2026-02-13T15:47:55Z</time>
</trkpt>
<trkpt lat="52.330037" lon="4.546166">
<ele>2.7</ele>
<time>2026-02-13T15:47:56Z</time>
</trkpt>
<trkpt lat="52.330021" lon="4.546167">
<ele>2.8</ele>
<time>2026-02-13T15:47:57Z</time>
</trkpt>
<trkpt lat="52.330010" lon="4.546169">
<ele>2.8</ele>
<time>2026-02-13T15:47:57Z</time>
</trkpt>
<trkpt lat="52.330004" lon="4.546175">
<ele>2.8</ele>
<time>2026-02-13T15:47:58Z</time>
</trkpt>
<trkpt lat="52.329997" lon="4.546179">
<ele>2.8</ele>
<time>2026-02-13T15:47:58Z</time>
</trkpt>
<trkpt lat="52.329992" lon="4.546190">
<ele>2.7</ele>
<time>2026-02-13T15:47:59Z</time>
</trkpt>
<trkpt lat="52.329983" lon="4.546197">
<ele>2.7</ele>
<time>2026-02-13T15:47:59Z</time>
</trkpt>
<trkpt lat="52.329979" lon="4.546209">
<ele>2.6</ele>
<time>2026-02-13T15:48:00Z</time>
</trkpt>
<trkpt lat="52.329972" lon="4.546218">
<ele>2.6</ele>
<time>2026-02-13T15:48:00Z</time>
</trkpt>
<trkpt lat="52.329963" lon="4.546239">
<ele>2.5</ele>
<time>2026-02-13T15:48:01Z</time>
</trkpt>
<trkpt lat="52.329959" lon="4.546251">
<ele>2.6</ele>
<time>2026-02-13T15:48:02Z</time>
</trkpt>
<trkpt lat="52.329949" lon="4.546267">
<ele>2.8</ele>
<time>2026-02-13T15:48:03Z</time>
</trkpt>
<trkpt lat="52.329945" lon="4.546284">
<ele>2.8</ele>
<time>2026-02-13T15:48:03Z</time>
</trkpt>
<trkpt lat="52.329947" lon="4.546299">
<ele>2.8</ele>
<time>2026-02-13T15:48:04Z</time>
</trkpt>
<trkpt lat="52.329941" lon="4.546306">
<ele>2.8</ele>
<time>2026-02-13T15:48:05Z</time>
</trkpt>
<trkpt lat="52.329937" lon="4.546327">
<ele>3.0</ele>
<time>2026-02-13T15:48:05Z</time>
</trkpt>
<trkpt lat="52.329937" lon="4.546345">
<ele>2.9</ele>
<time>2026-02-13T15:48:06Z</time>
</trkpt>
<trkpt lat="52.329931" lon="4.546355">
<ele>2.9</ele>
<time>2026-02-13T15:48:07Z</time>
</trkpt>
<trkpt lat="52.329924" lon="4.546376">
<ele>3.0</ele>
<time>2026-02-13T15:48:08Z</time>
</trkpt>
<trkpt lat="52.329913" lon="4.546392">
<ele>3.0</ele>
<time>2026-02-13T15:48:09Z</time>
</trkpt>
<trkpt lat="52.329905" lon="4.546414">
<ele>2.8</ele>
<time>2026-02-13T15:48:10Z</time>
</trkpt>
<trkpt lat="52.329891" lon="4.546434">
<ele>2.7</ele>
<time>2026-02-13T15:48:11Z</time>
</trkpt>
<trkpt lat="52.329888" lon="4.546442">
<ele>2.6</ele>
<time>2026-02-13T15:48:11Z</time>
</trkpt>
<trkpt lat="52.329880" lon="4.546456">
<ele>2.6</ele>
<time>2026-02-13T15:48:12Z</time>
</trkpt>
<trkpt lat="52.329871" lon="4.546462">
<ele>2.6</ele>
<time>2026-02-13T15:48:13Z</time>
</trkpt>
<trkpt lat="52.329858" lon="4.546470">
<ele>2.3</ele>
<time>2026-02-13T15:48:14Z</time>
</trkpt>
<trkpt lat="52.329844" lon="4.546479">
<ele>2.4</ele>
<time>2026-02-13T15:48:15Z</time>
</trkpt>
<trkpt lat="52.329830" lon="4.546487">
<ele>2.4</ele>
<time>2026-02-13T15:48:16Z</time>
</trkpt>
<trkpt lat="52.329822" lon="4.546493">
<ele>2.1</ele>
<time>2026-02-13T15:48:16Z</time>
</trkpt>
<trkpt lat="52.329812" lon="4.546508">
<ele>1.9</ele>
<time>2026-02-13T15:48:18Z</time>
</trkpt>
<trkpt lat="52.329803" lon="4.546519">
<ele>1.9</ele>
<time>2026-02-13T15:48:18Z</time>
</trkpt>
<trkpt lat="52.329796" lon="4.546530">
<ele>1.7</ele>
<time>2026-02-13T15:48:19Z</time>
</trkpt>
<trkpt lat="52.329792" lon="4.546539">
<ele>1.9</ele>
<time>2026-02-13T15:48:20Z</time>
</trkpt>
<trkpt lat="52.329785" lon="4.546561">
<ele>1.9</ele>
<time>2026-02-13T15:48:21Z</time>
</trkpt>
<trkpt lat="52.329779" lon="4.546583">
<ele>1.9</ele>
<time>2026-02-13T15:48:22Z</time>
</trkpt>
<trkpt lat="52.329774" lon="4.546611">
<ele>1.9</ele>
<time>2026-02-13T15:48:23Z</time>
</trkpt>
<trkpt lat="52.329771" lon="4.546635">
<ele>1.9</ele>
<time>2026-02-13T15:48:24Z</time>
</trkpt>
<trkpt lat="52.329768" lon="4.546656">
<ele>2.2</ele>
<time>2026-02-13T15:48:25Z</time>
</trkpt>
<trkpt lat="52.329766" lon="4.546673">
<ele>2.3</ele>
<time>2026-02-13T15:48:26Z</time>
</trkpt>
<trkpt lat="52.329762" lon="4.546688">
<ele>2.9</ele>
<time>2026-02-13T15:48:27Z</time>
</trkpt>
<trkpt lat="52.329756" lon="4.546710">
<ele>2.9</ele>
<time>2026-02-13T15:48:28Z</time>
</trkpt>
<trkpt lat="52.329752" lon="4.546720">
<ele>2.9</ele>
<time>2026-02-13T15:48:28Z</time>
</trkpt>
<trkpt lat="52.329748" lon="4.546730">
<ele>2.7</ele>
<time>2026-02-13T15:48:29Z</time>
</trkpt>
<trkpt lat="52.329744" lon="4.546740">
<ele>2.7</ele>
<time>2026-02-13T15:48:29Z</time>
</trkpt>
<trkpt lat="52.329741" lon="4.546752">
<ele>2.6</ele>
<time>2026-02-13T15:48:30Z</time>
</trkpt>
<trkpt lat="52.329738" lon="4.546764">
<ele>2.6</ele>
<time>2026-02-13T15:48:30Z</time>
</trkpt>
<trkpt lat="52.329736" lon="4.546775">
<ele>2.6</ele>
<time>2026-02-13T15:48:31Z</time>
</trkpt>
<trkpt lat="52.329732" lon="4.546789">
<ele>2.6</ele>
<time>2026-02-13T15:48:31Z</time>
</trkpt>
<trkpt lat="52.329729" lon="4.546799">
<ele>2.5</ele>
<time>2026-02-13T15:48:32Z</time>
</trkpt>
<trkpt lat="52.329721" lon="4.546819">
<ele>2.3</ele>
<time>2026-02-13T15:48:33Z</time>
</trkpt>
<trkpt lat="52.329717" lon="4.546827">
<ele>2.3</ele>
<time>2026-02-13T15:48:33Z</time>
</trkpt>
<trkpt lat="52.329715" lon="4.546837">
<ele>2.4</ele>
<time>2026-02-13T15:48:34Z</time>
</trkpt>
<trkpt lat="52.329711" lon="4.546847">
<ele>2.4</ele>
<time>2026-02-13T15:48:34Z</time>
</trkpt>
<trkpt lat="52.329706" lon="4.546859">
<ele>2.3</ele>
<time>2026-02-13T15:48:35Z</time>
</trkpt>
<trkpt lat="52.329701" lon="4.546882">
<ele>2.3</ele>
<time>2026-02-13T15:48:36Z</time>
</trkpt>
<trkpt lat="52.329700" lon="4.546903">
<ele>2.2</ele>
<time>2026-02-13T15:48:37Z</time>
</trkpt>
<trkpt lat="52.329697" lon="4.546915">
<ele>2.2</ele>
<time>2026-02-13T15:48:37Z</time>
</trkpt>
<trkpt lat="52.329694" lon="4.546927">
<ele>2.2</ele>
<time>2026-02-13T15:48:38Z</time>
</trkpt>
<trkpt lat="52.329690" lon="4.546946">
<ele>2.2</ele>
<time>2026-02-13T15:48:39Z</time>
</trkpt>
<trkpt lat="52.329688" lon="4.546956">
<ele>2.0</ele>
<time>2026-02-13T15:48:39Z</time>
</trkpt>
<trkpt lat="52.329686" lon="4.546966">
<ele>2.1</ele>
<time>2026-02-13T15:48:40Z</time>
</trkpt>
<trkpt lat="52.329682" lon="4.546978">
<ele>2.1</ele>
<time>2026-02-13T15:48:40Z</time>
</trkpt>
<trkpt lat="52.329676" lon="4.546996">
<ele>2.1</ele>
<time>2026-02-13T15:48:41Z</time>
</trkpt>
<trkpt lat="52.329673" lon="4.547007">
<ele>2.1</ele>
<time>2026-02-13T15:48:42Z</time>
</trkpt>
<trkpt lat="52.329669" lon="4.547015">
<ele>1.9</ele>
<time>2026-02-13T15:48:42Z</time>
</trkpt>
<trkpt lat="52.329665" lon="4.547021">
<ele>2.3</ele>
<time>2026-02-13T15:48:43Z</time>
</trkpt>
<trkpt lat="52.329662" lon="4.547031">
<ele>2.3</ele>
<time>2026-02-13T15:48:43Z</time>
</trkpt>
<trkpt lat="52.329657" lon="4.547038">
<ele>2.4</ele>
<time>2026-02-13T15:48:44Z</time>
</trkpt>
<trkpt lat="52.329654" lon="4.547048">
<ele>2.4</ele>
<time>2026-02-13T15:48:44Z</time>
</trkpt>
<trkpt lat="52.329649" lon="4.547060">
<ele>2.6</ele>
<time>2026-02-13T15:48:45Z</time>
</trkpt>
<trkpt lat="52.329644" lon="4.547074">
<ele>2.8</ele>
<time>2026-02-13T15:48:46Z</time>
</trkpt>
<trkpt lat="52.329640" lon="4.547086">
<ele>2.8</ele>
<time>2026-02-13T15:48:46Z</time>
</trkpt>
<trkpt lat="52.329636" lon="4.547096">
<ele>2.7</ele>
<time>2026-02-13T15:48:47Z</time>
</trkpt>
<trkpt lat="52.329632" lon="4.547107">
<ele>2.7</ele>
<time>2026-02-13T15:48:47Z</time>
</trkpt>
<trkpt lat="52.329628" lon="4.547115">
<ele>2.7</ele>
<time>2026-02-13T15:48:48Z</time>
</trkpt>
<trkpt lat="52.329623" lon="4.547124">
<ele>2.7</ele>
<time>2026-02-13T15:48:48Z</time>
</trkpt>
<trkpt lat="52.329619" lon="4.547133">
<ele>2.9</ele>
<time>2026-02-13T15:48:49Z</time>
</trkpt>
<trkpt lat="52.329614" lon="4.547141">
<ele>2.9</ele>
<time>2026-02-13T15:48:49Z</time>
</trkpt>
<trkpt lat="52.329610" lon="4.547149">
<ele>2.9</ele>
<time>2026-02-13T15:48:50Z</time>
</trkpt>
<trkpt lat="52.329604" lon="4.547158">
<ele>2.9</ele>
<time>2026-02-13T15:48:50Z</time>
</trkpt>
<trkpt lat="52.329599" lon="4.547171">
<ele>3.0</ele>
<time>2026-02-13T15:48:51Z</time>
</trkpt>
<trkpt lat="52.329594" lon="4.547186">
<ele>3.0</ele>
<time>2026-02-13T15:48:52Z</time>
</trkpt>
<trkpt lat="52.329589" lon="4.547199">
<ele>3.0</ele>
<time>2026-02-13T15:48:52Z</time>
</trkpt>
<trkpt lat="52.329586" lon="4.547213">
<ele>3.1</ele>
<time>2026-02-13T15:48:53Z</time>
</trkpt>
<trkpt lat="52.329582" lon="4.547229">
<ele>3.1</ele>
<time>2026-02-13T15:48:54Z</time>
</trkpt>
<trkpt lat="52.329578" lon="4.547241">
<ele>3.1</ele>
<time>2026-02-13T15:48:54Z</time>
</trkpt>
<trkpt lat="52.329576" lon="4.547251">
<ele>3.3</ele>
<time>2026-02-13T15:48:55Z</time>
</trkpt>
<trkpt lat="52.329572" lon="4.547266">
<ele>3.3</ele>
<time>2026-02-13T15:48:55Z</time>
</trkpt>
<trkpt lat="52.329566" lon="4.547289">
<ele>3.1</ele>
<time>2026-02-13T15:48:56Z</time>
</trkpt>
<trkpt lat="52.329562" lon="4.547303">
<ele>3.2</ele>
<time>2026-02-13T15:48:57Z</time>
</trkpt>
<trkpt lat="52.329558" lon="4.547313">
<ele>3.2</ele>
<time>2026-02-13T15:48:57Z</time>
</trkpt>
<trkpt lat="52.329556" lon="4.547325">
<ele>3.0</ele>
<time>2026-02-13T15:48:58Z</time>
</trkpt>
<trkpt lat="52.329553" lon="4.547336">
<ele>3.0</ele>
<time>2026-02-13T15:48:58Z</time>
</trkpt>
<trkpt lat="52.329551" lon="4.547347">
<ele>3.1</ele>
<time>2026-02-13T15:48:59Z</time>
</trkpt>
<trkpt lat="52.329549" lon="4.547360">
<ele>3.0</ele>
<time>2026-02-13T15:49:00Z</time>
</trkpt>
<trkpt lat="52.329546" lon="4.547377">
<ele>3.0</ele>
<time>2026-02-13T15:49:00Z</time>
</trkpt>
<trkpt lat="52.329544" lon="4.547401">
<ele>2.9</ele>
<time>2026-02-13T15:49:01Z</time>
</trkpt>
<trkpt lat="52.329543" lon="4.547427">
<ele>3.0</ele>
<time>2026-02-13T15:49:02Z</time>
</trkpt>
<trkpt lat="52.329544" lon="4.547436">
<ele>3.2</ele>
<time>2026-02-13T15:49:03Z</time>
</trkpt>
<trkpt lat="52.329546" lon="4.547467">
<ele>3.1</ele>
<time>2026-02-13T15:49:04Z</time>
</trkpt>
<trkpt lat="52.329549" lon="4.547477">
<ele>3.3</ele>
<time>2026-02-13T15:49:05Z</time>
</trkpt>
<trkpt lat="52.329551" lon="4.547489">
<ele>3.3</ele>
<time>2026-02-13T15:49:05Z</time>
</trkpt>
<trkpt lat="52.329555" lon="4.547507">
<ele>3.4</ele>
<time>2026-02-13T15:49:06Z</time>
</trkpt>
<trkpt lat="52.329557" lon="4.547518">
<ele>3.4</ele>
<time>2026-02-13T15:49:07Z</time>
</trkpt>
<trkpt lat="52.329559" lon="4.547532">
<ele>3.4</ele>
<time>2026-02-13T15:49:07Z</time>
</trkpt>
<trkpt lat="52.329559" lon="4.547541">
<ele>3.2</ele>
<time>2026-02-13T15:49:08Z</time>
</trkpt>
<trkpt lat="52.329561" lon="4.547554">
<ele>3.2</ele>
<time>2026-02-13T15:49:08Z</time>
</trkpt>
<trkpt lat="52.329563" lon="4.547575">
<ele>3.4</ele>
<time>2026-02-13T15:49:09Z</time>
</trkpt>
<trkpt lat="52.329563" lon="4.547583">
<ele>3.1</ele>
<time>2026-02-13T15:49:10Z</time>
</trkpt>
<trkpt lat="52.329565" lon="4.547594">
<ele>3.1</ele>
<time>2026-02-13T15:49:10Z</time>
</trkpt>
<trkpt lat="52.329566" lon="4.547604">
<ele>2.8</ele>
<time>2026-02-13T15:49:11Z</time>
</trkpt>
<trkpt lat="52.329568" lon="4.547614">
<ele>2.8</ele>
<time>2026-02-13T15:49:11Z</time>
</trkpt>
<trkpt lat="52.329569" lon="4.547631">
<ele>3.2</ele>
<time>2026-02-13T15:49:13Z</time>
</trkpt>
<trkpt lat="52.329569" lon="4.547648">
<ele>3.0</ele>
<time>2026-02-13T15:49:14Z</time>
</trkpt>
<trkpt lat="52.329571" lon="4.547657">
<ele>2.8</ele>
<time>2026-02-13T15:49:15Z</time>
</trkpt>
<trkpt lat="52.329573" lon="4.547660">
<ele>2.4</ele>
<time>2026-02-13T15:49:16Z</time>
</trkpt>
<trkpt lat="52.329572" lon="4.547658">
<ele>2.4</ele>
<time>2026-02-13T15:49:17Z</time>
</trkpt>
<trkpt lat="52.329572" lon="4.547655">
<ele>2.3</ele>
<time>2026-02-13T15:49:18Z</time>
</trkpt>
<trkpt lat="52.329572" lon="4.547651">
<ele>2.1</ele>
<time>2026-02-13T15:49:19Z</time>
</trkpt>
<trkpt lat="52.329572" lon="4.547649">
<ele>1.8</ele>
<time>2026-02-13T15:49:20Z</time>
</trkpt>
<trkpt lat="52.329573" lon="4.547648">
<ele>1.7</ele>
<time>2026-02-13T15:49:21Z</time>
</trkpt>
<trkpt lat="52.329573" lon="4.547647">
<ele>1.9</ele>
<time>2026-02-13T15:49:22Z</time>
</trkpt>
<trkpt lat="52.329574" lon="4.547647">
<ele>2.0</ele>
<time>2026-02-13T15:49:23Z</time>
</trkpt>
<trkpt lat="52.329574" lon="4.547647">
<ele>2.2</ele>
<time>2026-02-13T15:49:24Z</time>
</trkpt>
<trkpt lat="52.329574" lon="4.547647">
<ele>2.2</ele>
<time>2026-02-13T15:49:25Z</time>
</trkpt>
<trkpt lat="52.329575" lon="4.547647">
<ele>2.2</ele>
<time>2026-02-13T15:49:26Z</time>
</trkpt>
<trkpt lat="52.329576" lon="4.547650">
<ele>2.0</ele>
<time>2026-02-13T15:49:26Z</time>
</trkpt>
<trkpt lat="52.329577" lon="4.547651">
<ele>2.0</ele>
<time>2026-02-13T15:49:27Z</time>
</trkpt>
<trkpt lat="52.329578" lon="4.547656">
<ele>2.0</ele>
<time>2026-02-13T15:49:27Z</time>
</trkpt>
<trkpt lat="52.329578" lon="4.547659">
<ele>2.0</ele>
<time>2026-02-13T15:49:28Z</time>
</trkpt>
<trkpt lat="52.329585" lon="4.547673">
<ele>1.9</ele>
<time>2026-02-13T15:49:28Z</time>
</trkpt>
<trkpt lat="52.329588" lon="4.547685">
<ele>1.8</ele>
<time>2026-02-13T15:49:29Z</time>
</trkpt>
<trkpt lat="52.329593" lon="4.547697">
<ele>1.8</ele>
<time>2026-02-13T15:49:29Z</time>
</trkpt>
<trkpt lat="52.329591" lon="4.547712">
<ele>1.7</ele>
<time>2026-02-13T15:49:30Z</time>
</trkpt>
<trkpt lat="52.329593" lon="4.547723">
<ele>1.7</ele>
<time>2026-02-13T15:49:30Z</time>
</trkpt>
<trkpt lat="52.329581" lon="4.547759">
<ele>1.4</ele>
<time>2026-02-13T15:49:32Z</time>
</trkpt>
<trkpt lat="52.329578" lon="4.547769">
<ele>1.3</ele>
<time>2026-02-13T15:49:33Z</time>
</trkpt>
<trkpt lat="52.329576" lon="4.547772">
<ele>1.3</ele>
<time>2026-02-13T15:49:34Z</time>
</trkpt>
<trkpt lat="52.329575" lon="4.547768">
<ele>1.3</ele>
<time>2026-02-13T15:49:35Z</time>
</trkpt>
<trkpt lat="52.329574" lon="4.547764">
<ele>1.3</ele>
<time>2026-02-13T15:49:36Z</time>
</trkpt>
<trkpt lat="52.329573" lon="4.547761">
<ele>1.1</ele>
<time>2026-02-13T15:49:37Z</time>
</trkpt>
<trkpt lat="52.329572" lon="4.547760">
<ele>1.3</ele>
<time>2026-02-13T15:49:38Z</time>
</trkpt>
<trkpt lat="52.329572" lon="4.547759">
<ele>1.2</ele>
<time>2026-02-13T15:49:39Z</time>
</trkpt>
<trkpt lat="52.329572" lon="4.547758">
<ele>1.3</ele>
<time>2026-02-13T15:49:40Z</time>
</trkpt>
<trkpt lat="52.329572" lon="4.547757">
<ele>1.3</ele>
<time>2026-02-13T15:49:40Z</time>
</trkpt>
<trkpt lat="52.329572" lon="4.547757">
<ele>1.4</ele>
<time>2026-02-13T15:49:41Z</time>
</trkpt>
<trkpt lat="52.329572" lon="4.547756">
<ele>1.5</ele>
<time>2026-02-13T15:49:42Z</time>
</trkpt>
<trkpt lat="52.329572" lon="4.547757">
<ele>1.5</ele>
<time>2026-02-13T15:49:43Z</time>
</trkpt>
<trkpt lat="52.329572" lon="4.547759">
<ele>1.3</ele>
<time>2026-02-13T15:49:44Z</time>
</trkpt>
<trkpt lat="52.329572" lon="4.547760">
<ele>1.2</ele>
<time>2026-02-13T15:49:45Z</time>
</trkpt>
<trkpt lat="52.329571" lon="4.547768">
<ele>1.3</ele>
<time>2026-02-13T15:49:46Z</time>
</trkpt>
<trkpt lat="52.329570" lon="4.547772">
<ele>1.5</ele>
<time>2026-02-13T15:49:47Z</time>
</trkpt>
<trkpt lat="52.329570" lon="4.547776">
<ele>1.4</ele>
<time>2026-02-13T15:49:48Z</time>
</trkpt>
<trkpt lat="52.329569" lon="4.547780">
<ele>1.4</ele>
<time>2026-02-13T15:49:49Z</time>
</trkpt>
<trkpt lat="52.329569" lon="4.547783">
<ele>1.5</ele>
<time>2026-02-13T15:49:50Z</time>
</trkpt>
<trkpt lat="52.329568" lon="4.547787">
<ele>1.5</ele>
<time>2026-02-13T15:49:51Z</time>
</trkpt>
<trkpt lat="52.329567" lon="4.547788">
<ele>1.6</ele>
<time>2026-02-13T15:49:52Z</time>
</trkpt>
<trkpt lat="52.329568" lon="4.547795">
<ele>1.7</ele>
<time>2026-02-13T15:49:53Z</time>
</trkpt>
<trkpt lat="52.329568" lon="4.547812">
<ele>1.5</ele>
<time>2026-02-13T15:49:54Z</time>
</trkpt>
<trkpt lat="52.329567" lon="4.547835">
<ele>1.6</ele>
<time>2026-02-13T15:49:55Z</time>
</trkpt>
<trkpt lat="52.329569" lon="4.547831">
<ele>1.6</ele>
<time>2026-02-13T15:49:55Z</time>
</trkpt>
<trkpt lat="52.329573" lon="4.547835">
<ele>1.4</ele>
<time>2026-02-13T15:49:56Z</time>
</trkpt>
<trkpt lat="52.329580" lon="4.547846">
<ele>1.4</ele>
<time>2026-02-13T15:49:56Z</time>
</trkpt>
<trkpt lat="52.329585" lon="4.547856">
<ele>1.3</ele>
<time>2026-02-13T15:49:57Z</time>
</trkpt>
<trkpt lat="52.329588" lon="4.547877">
<ele>1.3</ele>
<time>2026-02-13T15:49:58Z</time>
</trkpt>
<trkpt lat="52.329580" lon="4.547896">
<ele>1.1</ele>
<time>2026-02-13T15:49:58Z</time>
</trkpt>
<trkpt lat="52.329570" lon="4.547922">
<ele>1.0</ele>
<time>2026-02-13T15:49:59Z</time>
</trkpt>
<trkpt lat="52.329565" lon="4.547934">
<ele>0.9</ele>
<time>2026-02-13T15:50:00Z</time>
</trkpt>
<trkpt lat="52.329561" lon="4.547947">
<ele>0.9</ele>
<time>2026-02-13T15:50:00Z</time>
</trkpt>
<trkpt lat="52.329557" lon="4.547958">
<ele>0.9</ele>
<time>2026-02-13T15:50:01Z</time>
</trkpt>
<trkpt lat="52.329553" lon="4.547970">
<ele>0.9</ele>
<time>2026-02-13T15:50:01Z</time>
</trkpt>
<trkpt lat="52.329550" lon="4.547979">
<ele>0.9</ele>
<time>2026-02-13T15:50:02Z</time>
</trkpt>
<trkpt lat="52.329545" lon="4.547995">
<ele>0.9</ele>
<time>2026-02-13T15:50:02Z</time>
</trkpt>
<trkpt lat="52.329543" lon="4.548000">
<ele>0.9</ele>
<time>2026-02-13T15:50:03Z</time>
</trkpt>
<trkpt lat="52.329541" lon="4.548009">
<ele>0.9</ele>
<time>2026-02-13T15:50:03Z</time>
</trkpt>
<trkpt lat="52.329540" lon="4.548018">
<ele>0.9</ele>
<time>2026-02-13T15:50:04Z</time>
</trkpt>
<trkpt lat="52.329538" lon="4.548025">
<ele>1.0</ele>
<time>2026-02-13T15:50:05Z</time>
</trkpt>
<trkpt lat="52.329537" lon="4.548034">
<ele>1.0</ele>
<time>2026-02-13T15:50:05Z</time>
</trkpt>
<trkpt lat="52.329536" lon="4.548042">
<ele>0.9</ele>
<time>2026-02-13T15:50:06Z</time>
</trkpt>
<trkpt lat="52.329534" lon="4.548054">
<ele>0.9</ele>
<time>2026-02-13T15:50:06Z</time>
</trkpt>
<trkpt lat="52.329532" lon="4.548065">
<ele>0.9</ele>
<time>2026-02-13T15:50:07Z</time>
</trkpt>
<trkpt lat="52.329531" lon="4.548075">
<ele>0.9</ele>
<time>2026-02-13T15:50:07Z</time>
</trkpt>
<trkpt lat="52.329528" lon="4.548085">
<ele>1.0</ele>
<time>2026-02-13T15:50:08Z</time>
</trkpt>
<trkpt lat="52.329526" lon="4.548095">
<ele>1.0</ele>
<time>2026-02-13T15:50:08Z</time>
</trkpt>
<trkpt lat="52.329525" lon="4.548106">
<ele>1.1</ele>
<time>2026-02-13T15:50:09Z</time>
</trkpt>
<trkpt lat="52.329522" lon="4.548125">
<ele>1.1</ele>
<time>2026-02-13T15:50:09Z</time>
</trkpt>
<trkpt lat="52.329521" lon="4.548140">
<ele>1.0</ele>
<time>2026-02-13T15:50:10Z</time>
</trkpt>
<trkpt lat="52.329520" lon="4.548150">
<ele>1.0</ele>
<time>2026-02-13T15:50:11Z</time>
</trkpt>
<trkpt lat="52.329517" lon="4.548163">
<ele>1.1</ele>
<time>2026-02-13T15:50:12Z</time>
</trkpt>
<trkpt lat="52.329507" lon="4.548168">
<ele>1.1</ele>
<time>2026-02-13T15:50:12Z</time>
</trkpt>
<trkpt lat="52.329497" lon="4.548164">
<ele>0.8</ele>
<time>2026-02-13T15:50:13Z</time>
</trkpt>
<trkpt lat="52.329490" lon="4.548167">
<ele>0.8</ele>
<time>2026-02-13T15:50:13Z</time>
</trkpt>
<trkpt lat="52.329482" lon="4.548184">
<ele>0.7</ele>
<time>2026-02-13T15:50:14Z</time>
</trkpt>
<trkpt lat="52.329478" lon="4.548211">
<ele>1.0</ele>
<time>2026-02-13T15:50:15Z</time>
</trkpt>
<trkpt lat="52.329474" lon="4.548246">
<ele>1.2</ele>
<time>2026-02-13T15:50:16Z</time>
</trkpt>
<trkpt lat="52.329471" lon="4.548271">
<ele>0.9</ele>
<time>2026-02-13T15:50:17Z</time>
</trkpt>
<trkpt lat="52.329466" lon="4.548287">
<ele>1.1</ele>
<time>2026-02-13T15:50:18Z</time>
</trkpt>
<trkpt lat="52.329464" lon="4.548295">
<ele>1.0</ele>
<time>2026-02-13T15:50:19Z</time>
</trkpt>
<trkpt lat="52.329460" lon="4.548312">
<ele>0.9</ele>
<time>2026-02-13T15:50:20Z</time>
</trkpt>
<trkpt lat="52.329457" lon="4.548329">
<ele>0.9</ele>
<time>2026-02-13T15:50:20Z</time>
</trkpt>
<trkpt lat="52.329455" lon="4.548340">
<ele>1.1</ele>
<time>2026-02-13T15:50:21Z</time>
</trkpt>
<trkpt lat="52.329453" lon="4.548352">
<ele>1.1</ele>
<time>2026-02-13T15:50:21Z</time>
</trkpt>
<trkpt lat="52.329448" lon="4.548371">
<ele>1.1</ele>
<time>2026-02-13T15:50:22Z</time>
</trkpt>
<trkpt lat="52.329446" lon="4.548380">
<ele>1.0</ele>
<time>2026-02-13T15:50:23Z</time>
</trkpt>
<trkpt lat="52.329443" lon="4.548392">
<ele>1.0</ele>
<time>2026-02-13T15:50:23Z</time>
</trkpt>
<trkpt lat="52.329442" lon="4.548402">
<ele>1.0</ele>
<time>2026-02-13T15:50:24Z</time>
</trkpt>
<trkpt lat="52.329440" lon="4.548414">
<ele>1.0</ele>
<time>2026-02-13T15:50:24Z</time>
</trkpt>
<trkpt lat="52.329440" lon="4.548424">
<ele>0.9</ele>
<time>2026-02-13T15:50:25Z</time>
</trkpt>
<trkpt lat="52.329438" lon="4.548436">
<ele>0.9</ele>
<time>2026-02-13T15:50:25Z</time>
</trkpt>
<trkpt lat="52.329439" lon="4.548446">
<ele>0.8</ele>
<time>2026-02-13T15:50:26Z</time>
</trkpt>
<trkpt lat="52.329438" lon="4.548458">
<ele>0.8</ele>
<time>2026-02-13T15:50:26Z</time>
</trkpt>
<trkpt lat="52.329440" lon="4.548470">
<ele>0.6</ele>
<time>2026-02-13T15:50:27Z</time>
</trkpt>
<trkpt lat="52.329440" lon="4.548487">
<ele>0.6</ele>
<time>2026-02-13T15:50:27Z</time>
</trkpt>
<trkpt lat="52.329443" lon="4.548506">
<ele>0.7</ele>
<time>2026-02-13T15:50:28Z</time>
</trkpt>
<trkpt lat="52.329445" lon="4.548519">
<ele>0.6</ele>
<time>2026-02-13T15:50:29Z</time>
</trkpt>
<trkpt lat="52.329444" lon="4.548533">
<ele>0.6</ele>
<time>2026-02-13T15:50:30Z</time>
</trkpt>
<trkpt lat="52.329447" lon="4.548554">
<ele>0.7</ele>
<time>2026-02-13T15:50:30Z</time>
</trkpt>
<trkpt lat="52.329450" lon="4.548577">
<ele>0.7</ele>
<time>2026-02-13T15:50:31Z</time>
</trkpt>
<trkpt lat="52.329452" lon="4.548586">
<ele>0.7</ele>
<time>2026-02-13T15:50:32Z</time>
</trkpt>
<trkpt lat="52.329455" lon="4.548608">
<ele>0.7</ele>
<time>2026-02-13T15:50:33Z</time>
</trkpt>
<trkpt lat="52.329454" lon="4.548622">
<ele>0.7</ele>
<time>2026-02-13T15:50:33Z</time>
</trkpt>
<trkpt lat="52.329454" lon="4.548631">
<ele>0.8</ele>
<time>2026-02-13T15:50:34Z</time>
</trkpt>
<trkpt lat="52.329453" lon="4.548642">
<ele>0.8</ele>
<time>2026-02-13T15:50:34Z</time>
</trkpt>
<trkpt lat="52.329452" lon="4.548652">
<ele>0.8</ele>
<time>2026-02-13T15:50:35Z</time>
</trkpt>
<trkpt lat="52.329450" lon="4.548663">
<ele>0.8</ele>
<time>2026-02-13T15:50:35Z</time>
</trkpt>
<trkpt lat="52.329445" lon="4.548671">
<ele>0.8</ele>
<time>2026-02-13T15:50:36Z</time>
</trkpt>
<trkpt lat="52.329441" lon="4.548681">
<ele>0.8</ele>
<time>2026-02-13T15:50:36Z</time>
</trkpt>
<trkpt lat="52.329434" lon="4.548688">
<ele>0.9</ele>
<time>2026-02-13T15:50:37Z</time>
</trkpt>
<trkpt lat="52.329427" lon="4.548697">
<ele>0.9</ele>
<time>2026-02-13T15:50:37Z</time>
</trkpt>
<trkpt lat="52.329420" lon="4.548702">
<ele>0.9</ele>
<time>2026-02-13T15:50:38Z</time>
</trkpt>
<trkpt lat="52.329411" lon="4.548710">
<ele>0.9</ele>
<time>2026-02-13T15:50:39Z</time>
</trkpt>
<trkpt lat="52.329405" lon="4.548716">
<ele>0.9</ele>
<time>2026-02-13T15:50:39Z</time>
</trkpt>
<trkpt lat="52.329393" lon="4.548732">
<ele>0.9</ele>
<time>2026-02-13T15:50:40Z</time>
</trkpt>
<trkpt lat="52.329388" lon="4.548740">
<ele>0.9</ele>
<time>2026-02-13T15:50:40Z</time>
</trkpt>
<trkpt lat="52.329385" lon="4.548751">
<ele>1.0</ele>
<time>2026-02-13T15:50:41Z</time>
</trkpt>
<trkpt lat="52.329379" lon="4.548762">
<ele>1.0</ele>
<time>2026-02-13T15:50:41Z</time>
</trkpt>
<trkpt lat="52.329377" lon="4.548775">
<ele>0.6</ele>
<time>2026-02-13T15:50:42Z</time>
</trkpt>
<trkpt lat="52.329373" lon="4.548788">
<ele>0.6</ele>
<time>2026-02-13T15:50:42Z</time>
</trkpt>
<trkpt lat="52.329373" lon="4.548801">
<ele>0.5</ele>
<time>2026-02-13T15:50:43Z</time>
</trkpt>
<trkpt lat="52.329370" lon="4.548815">
<ele>0.5</ele>
<time>2026-02-13T15:50:43Z</time>
</trkpt>
<trkpt lat="52.329370" lon="4.548828">
<ele>0.7</ele>
<time>2026-02-13T15:50:44Z</time>
</trkpt>
<trkpt lat="52.329368" lon="4.548843">
<ele>0.7</ele>
<time>2026-02-13T15:50:45Z</time>
</trkpt>
<trkpt lat="52.329366" lon="4.548868">
<ele>1.0</ele>
<time>2026-02-13T15:50:45Z</time>
</trkpt>
<trkpt lat="52.329364" lon="4.548880">
<ele>0.9</ele>
<time>2026-02-13T15:50:46Z</time>
</trkpt>
<trkpt lat="52.329361" lon="4.548893">
<ele>0.9</ele>
<time>2026-02-13T15:50:46Z</time>
</trkpt>
<trkpt lat="52.329359" lon="4.548905">
<ele>0.8</ele>
<time>2026-02-13T15:50:47Z</time>
</trkpt>
<trkpt lat="52.329355" lon="4.548917">
<ele>0.8</ele>
<time>2026-02-13T15:50:47Z</time>
</trkpt>
<trkpt lat="52.329353" lon="4.548929">
<ele>1.1</ele>
<time>2026-02-13T15:50:48Z</time>
</trkpt>
<trkpt lat="52.329349" lon="4.548941">
<ele>1.1</ele>
<time>2026-02-13T15:50:48Z</time>
</trkpt>
<trkpt lat="52.329347" lon="4.548952">
<ele>1.1</ele>
<time>2026-02-13T15:50:49Z</time>
</trkpt>
<trkpt lat="52.329344" lon="4.548966">
<ele>1.1</ele>
<time>2026-02-13T15:50:49Z</time>
</trkpt>
<trkpt lat="52.329342" lon="4.548978">
<ele>1.4</ele>
<time>2026-02-13T15:50:50Z</time>
</trkpt>
<trkpt lat="52.329340" lon="4.548993">
<ele>1.4</ele>
<time>2026-02-13T15:50:51Z</time>
</trkpt>
<trkpt lat="52.329337" lon="4.549015">
<ele>1.6</ele>
<time>2026-02-13T15:50:51Z</time>
</trkpt>
<trkpt lat="52.329337" lon="4.549025">
<ele>1.5</ele>
<time>2026-02-13T15:50:52Z</time>
</trkpt>
<trkpt lat="52.329336" lon="4.549039">
<ele>1.5</ele>
<time>2026-02-13T15:50:53Z</time>
</trkpt>
<trkpt lat="52.329339" lon="4.549064">
<ele>1.8</ele>
<time>2026-02-13T15:50:53Z</time>
</trkpt>
<trkpt lat="52.329342" lon="4.549076">
<ele>1.7</ele>
<time>2026-02-13T15:50:54Z</time>
</trkpt>
<trkpt lat="52.329344" lon="4.549089">
<ele>1.7</ele>
<time>2026-02-13T15:50:54Z</time>
</trkpt>
<trkpt lat="52.329346" lon="4.549099">
<ele>1.7</ele>
<time>2026-02-13T15:50:55Z</time>
</trkpt>
<trkpt lat="52.329348" lon="4.549113">
<ele>1.7</ele>
<time>2026-02-13T15:50:55Z</time>
</trkpt>
<trkpt lat="52.329350" lon="4.549123">
<ele>1.6</ele>
<time>2026-02-13T15:50:56Z</time>
</trkpt>
<trkpt lat="52.329351" lon="4.549137">
<ele>1.6</ele>
<time>2026-02-13T15:50:57Z</time>
</trkpt>
<trkpt lat="52.329354" lon="4.549159">
<ele>1.8</ele>
<time>2026-02-13T15:50:57Z</time>
</trkpt>
<trkpt lat="52.329356" lon="4.549171">
<ele>1.9</ele>
<time>2026-02-13T15:50:58Z</time>
</trkpt>
<trkpt lat="52.329357" lon="4.549185">
<ele>1.9</ele>
<time>2026-02-13T15:50:59Z</time>
</trkpt>
<trkpt lat="52.329359" lon="4.549208">
<ele>1.8</ele>
<time>2026-02-13T15:50:59Z</time>
</trkpt>
<trkpt lat="52.329362" lon="4.549218">
<ele>1.9</ele>
<time>2026-02-13T15:51:00Z</time>
</trkpt>
<trkpt lat="52.329364" lon="4.549230">
<ele>1.9</ele>
<time>2026-02-13T15:51:00Z</time>
</trkpt>
<trkpt lat="52.329366" lon="4.549240">
<ele>2.0</ele>
<time>2026-02-13T15:51:01Z</time>
</trkpt>
<trkpt lat="52.329369" lon="4.549252">
<ele>2.0</ele>
<time>2026-02-13T15:51:01Z</time>
</trkpt>
<trkpt lat="52.329371" lon="4.549262">
<ele>2.0</ele>
<time>2026-02-13T15:51:02Z</time>
</trkpt>
<trkpt lat="52.329373" lon="4.549273">
<ele>2.0</ele>
<time>2026-02-13T15:51:02Z</time>
</trkpt>
<trkpt lat="52.329375" lon="4.549284">
<ele>2.1</ele>
<time>2026-02-13T15:51:03Z</time>
</trkpt>
<trkpt lat="52.329377" lon="4.549296">
<ele>2.1</ele>
<time>2026-02-13T15:51:03Z</time>
</trkpt>
<trkpt lat="52.329379" lon="4.549306">
<ele>2.1</ele>
<time>2026-02-13T15:51:04Z</time>
</trkpt>
<trkpt lat="52.329381" lon="4.549319">
<ele>2.1</ele>
<time>2026-02-13T15:51:04Z</time>
</trkpt>
<trkpt lat="52.329383" lon="4.549329">
<ele>2.3</ele>
<time>2026-02-13T15:51:05Z</time>
</trkpt>
<trkpt lat="52.329385" lon="4.549341">
<ele>2.3</ele>
<time>2026-02-13T15:51:05Z</time>
</trkpt>
<trkpt lat="52.329388" lon="4.549351">
<ele>2.5</ele>
<time>2026-02-13T15:51:06Z</time>
</trkpt>
<trkpt lat="52.329391" lon="4.549363">
<ele>2.5</ele>
<time>2026-02-13T15:51:06Z</time>
</trkpt>
<trkpt lat="52.329394" lon="4.549373">
<ele>2.4</ele>
<time>2026-02-13T15:51:07Z</time>
</trkpt>
<trkpt lat="52.329397" lon="4.549386">
<ele>2.4</ele>
<time>2026-02-13T15:51:07Z</time>
</trkpt>
<trkpt lat="52.329400" lon="4.549396">
<ele>2.5</ele>
<time>2026-02-13T15:51:08Z</time>
</trkpt>
<trkpt lat="52.329403" lon="4.549415">
<ele>2.5</ele>
<time>2026-02-13T15:51:09Z</time>
</trkpt>
<trkpt lat="52.329407" lon="4.549435">
<ele>2.6</ele>
<time>2026-02-13T15:51:09Z</time>
</trkpt>
<trkpt lat="52.329415" lon="4.549457">
<ele>2.7</ele>
<time>2026-02-13T15:51:10Z</time>
</trkpt>
<trkpt lat="52.329422" lon="4.549477">
<ele>2.5</ele>
<time>2026-02-13T15:51:11Z</time>
</trkpt>
<trkpt lat="52.329426" lon="4.549487">
<ele>2.8</ele>
<time>2026-02-13T15:51:12Z</time>
</trkpt>
<trkpt lat="52.329430" lon="4.549501">
<ele>2.8</ele>
<time>2026-02-13T15:51:12Z</time>
</trkpt>
<trkpt lat="52.329438" lon="4.549522">
<ele>2.6</ele>
<time>2026-02-13T15:51:13Z</time>
</trkpt>
<trkpt lat="52.329447" lon="4.549547">
<ele>2.7</ele>
<time>2026-02-13T15:51:15Z</time>
</trkpt>
<trkpt lat="52.329451" lon="4.549563">
<ele>2.7</ele>
<time>2026-02-13T15:51:15Z</time>
</trkpt>
<trkpt lat="52.329455" lon="4.549573">
<ele>2.7</ele>
<time>2026-02-13T15:51:16Z</time>
</trkpt>
<trkpt lat="52.329459" lon="4.549592">
<ele>2.8</ele>
<time>2026-02-13T15:51:17Z</time>
</trkpt>
<trkpt lat="52.329461" lon="4.549612">
<ele>2.8</ele>
<time>2026-02-13T15:51:17Z</time>
</trkpt>
<trkpt lat="52.329466" lon="4.549631">
<ele>2.9</ele>
<time>2026-02-13T15:51:18Z</time>
</trkpt>
<trkpt lat="52.329474" lon="4.549659">
<ele>3.0</ele>
<time>2026-02-13T15:51:20Z</time>
</trkpt>
<trkpt lat="52.329479" lon="4.549678">
<ele>3.0</ele>
<time>2026-02-13T15:51:20Z</time>
</trkpt>
<trkpt lat="52.329484" lon="4.549699">
<ele>2.7</ele>
<time>2026-02-13T15:51:21Z</time>
</trkpt>
<trkpt lat="52.329491" lon="4.549728">
<ele>2.7</ele>
<time>2026-02-13T15:51:23Z</time>
</trkpt>
<trkpt lat="52.329495" lon="4.549751">
<ele>2.6</ele>
<time>2026-02-13T15:51:24Z</time>
</trkpt>
<trkpt lat="52.329498" lon="4.549769">
<ele>2.6</ele>
<time>2026-02-13T15:51:24Z</time>
</trkpt>
<trkpt lat="52.329501" lon="4.549793">
<ele>2.5</ele>
<time>2026-02-13T15:51:25Z</time>
</trkpt>
<trkpt lat="52.329503" lon="4.549803">
<ele>2.6</ele>
<time>2026-02-13T15:51:26Z</time>
</trkpt>
<trkpt lat="52.329504" lon="4.549819">
<ele>2.6</ele>
<time>2026-02-13T15:51:26Z</time>
</trkpt>
<trkpt lat="52.329507" lon="4.549842">
<ele>2.6</ele>
<time>2026-02-13T15:51:27Z</time>
</trkpt>
<trkpt lat="52.329510" lon="4.549866">
<ele>2.4</ele>
<time>2026-02-13T15:51:28Z</time>
</trkpt>
<trkpt lat="52.329515" lon="4.549888">
<ele>2.5</ele>
<time>2026-02-13T15:51:29Z</time>
</trkpt>
<trkpt lat="52.329520" lon="4.549913">
<ele>2.4</ele>
<time>2026-02-13T15:51:30Z</time>
</trkpt>
<trkpt lat="52.329523" lon="4.549936">
<ele>2.4</ele>
<time>2026-02-13T15:51:31Z</time>
</trkpt>
<trkpt lat="52.329526" lon="4.549956">
<ele>2.3</ele>
<time>2026-02-13T15:51:32Z</time>
</trkpt>
<trkpt lat="52.329534" lon="4.549981">
<ele>2.1</ele>
<time>2026-02-13T15:51:34Z</time>
</trkpt>
<trkpt lat="52.329538" lon="4.549999">
<ele>2.1</ele>
<time>2026-02-13T15:51:34Z</time>
</trkpt>
<trkpt lat="52.329546" lon="4.550023">
<ele>2.1</ele>
<time>2026-02-13T15:51:36Z</time>
</trkpt>
<trkpt lat="52.329548" lon="4.550039">
<ele>2.1</ele>
<time>2026-02-13T15:51:36Z</time>
</trkpt>
<trkpt lat="52.329551" lon="4.550058">
<ele>2.1</ele>
<time>2026-02-13T15:51:37Z</time>
</trkpt>
<trkpt lat="52.329553" lon="4.550068">
<ele>2.1</ele>
<time>2026-02-13T15:51:38Z</time>
</trkpt>
<trkpt lat="52.329555" lon="4.550082">
<ele>2.1</ele>
<time>2026-02-13T15:51:38Z</time>
</trkpt>
<trkpt lat="52.329559" lon="4.550104">
<ele>1.8</ele>
<time>2026-02-13T15:51:39Z</time>
</trkpt>
<trkpt lat="52.329561" lon="4.550114">
<ele>1.9</ele>
<time>2026-02-13T15:51:40Z</time>
</trkpt>
<trkpt lat="52.329563" lon="4.550127">
<ele>1.9</ele>
<time>2026-02-13T15:51:40Z</time>
</trkpt>
<trkpt lat="52.329565" lon="4.550137">
<ele>1.8</ele>
<time>2026-02-13T15:51:41Z</time>
</trkpt>
<trkpt lat="52.329571" lon="4.550155">
<ele>1.5</ele>
<time>2026-02-13T15:51:42Z</time>
</trkpt>
<trkpt lat="52.329576" lon="4.550176">
<ele>1.6</ele>
<time>2026-02-13T15:51:43Z</time>
</trkpt>
<trkpt lat="52.329578" lon="4.550195">
<ele>1.6</ele>
<time>2026-02-13T15:51:43Z</time>
</trkpt>
<trkpt lat="52.329584" lon="4.550210">
<ele>1.6</ele>
<time>2026-02-13T15:51:44Z</time>
</trkpt>
<trkpt lat="52.329588" lon="4.550218">
<ele>1.7</ele>
<time>2026-02-13T15:51:45Z</time>
</trkpt>
<trkpt lat="52.329591" lon="4.550230">
<ele>1.7</ele>
<time>2026-02-13T15:51:45Z</time>
</trkpt>
<trkpt lat="52.329595" lon="4.550239">
<ele>1.9</ele>
<time>2026-02-13T15:51:46Z</time>
</trkpt>
<trkpt lat="52.329599" lon="4.550261">
<ele>2.0</ele>
<time>2026-02-13T15:51:47Z</time>
</trkpt>
<trkpt lat="52.329601" lon="4.550275">
<ele>2.0</ele>
<time>2026-02-13T15:51:47Z</time>
</trkpt>
<trkpt lat="52.329603" lon="4.550285">
<ele>2.0</ele>
<time>2026-02-13T15:51:48Z</time>
</trkpt>
<trkpt lat="52.329605" lon="4.550298">
<ele>2.0</ele>
<time>2026-02-13T15:51:48Z</time>
</trkpt>
<trkpt lat="52.329607" lon="4.550310">
<ele>2.0</ele>
<time>2026-02-13T15:51:49Z</time>
</trkpt>
<trkpt lat="52.329609" lon="4.550321">
<ele>2.1</ele>
<time>2026-02-13T15:51:49Z</time>
</trkpt>
<trkpt lat="52.329611" lon="4.550333">
<ele>2.1</ele>
<time>2026-02-13T15:51:50Z</time>
</trkpt>
<trkpt lat="52.329614" lon="4.550343">
<ele>2.0</ele>
<time>2026-02-13T15:51:50Z</time>
</trkpt>
<trkpt lat="52.329616" lon="4.550355">
<ele>2.0</ele>
<time>2026-02-13T15:51:51Z</time>
</trkpt>
<trkpt lat="52.329620" lon="4.550365">
<ele>1.9</ele>
<time>2026-02-13T15:51:51Z</time>
</trkpt>
<trkpt lat="52.329622" lon="4.550377">
<ele>1.9</ele>
<time>2026-02-13T15:51:52Z</time>
</trkpt>
<trkpt lat="52.329626" lon="4.550386">
<ele>1.8</ele>
<time>2026-02-13T15:51:52Z</time>
</trkpt>
<trkpt lat="52.329629" lon="4.550396">
<ele>1.9</ele>
<time>2026-02-13T15:51:53Z</time>
</trkpt>
<trkpt lat="52.329632" lon="4.550408">
<ele>1.9</ele>
<time>2026-02-13T15:51:53Z</time>
</trkpt>
<trkpt lat="52.329638" lon="4.550426">
<ele>1.8</ele>
<time>2026-02-13T15:51:54Z</time>
</trkpt>
<trkpt lat="52.329642" lon="4.550436">
<ele>1.9</ele>
<time>2026-02-13T15:51:55Z</time>
</trkpt>
<trkpt lat="52.329645" lon="4.550445">
<ele>1.9</ele>
<time>2026-02-13T15:51:55Z</time>
</trkpt>
<trkpt lat="52.329649" lon="4.550455">
<ele>2.0</ele>
<time>2026-02-13T15:51:56Z</time>
</trkpt>
<trkpt lat="52.329656" lon="4.550474">
<ele>2.0</ele>
<time>2026-02-13T15:51:56Z</time>
</trkpt>
<trkpt lat="52.329664" lon="4.550486">
<ele>1.9</ele>
<time>2026-02-13T15:51:57Z</time>
</trkpt>
<trkpt lat="52.329673" lon="4.550503">
<ele>2.0</ele>
<time>2026-02-13T15:51:58Z</time>
</trkpt>
<trkpt lat="52.329679" lon="4.550513">
<ele>2.1</ele>
<time>2026-02-13T15:51:59Z</time>
</trkpt>
<trkpt lat="52.329684" lon="4.550523">
<ele>2.1</ele>
<time>2026-02-13T15:51:59Z</time>
</trkpt>
<trkpt lat="52.329689" lon="4.550532">
<ele>2.0</ele>
<time>2026-02-13T15:52:00Z</time>
</trkpt>
<trkpt lat="52.329693" lon="4.550542">
<ele>2.0</ele>
<time>2026-02-13T15:52:00Z</time>
</trkpt>
<trkpt lat="52.329698" lon="4.550553">
<ele>1.9</ele>
<time>2026-02-13T15:52:01Z</time>
</trkpt>
<trkpt lat="52.329701" lon="4.550562">
<ele>1.9</ele>
<time>2026-02-13T15:52:01Z</time>
</trkpt>
<trkpt lat="52.329705" lon="4.550574">
<ele>1.8</ele>
<time>2026-02-13T15:52:02Z</time>
</trkpt>
<trkpt lat="52.329711" lon="4.550594">
<ele>1.8</ele>
<time>2026-02-13T15:52:02Z</time>
</trkpt>
<trkpt lat="52.329713" lon="4.550605">
<ele>1.9</ele>
<time>2026-02-13T15:52:03Z</time>
</trkpt>
<trkpt lat="52.329717" lon="4.550617">
<ele>1.9</ele>
<time>2026-02-13T15:52:03Z</time>
</trkpt>
<trkpt lat="52.329720" lon="4.550627">
<ele>1.9</ele>
<time>2026-02-13T15:52:04Z</time>
</trkpt>
<trkpt lat="52.329723" lon="4.550638">
<ele>1.9</ele>
<time>2026-02-13T15:52:04Z</time>
</trkpt>
<trkpt lat="52.329725" lon="4.550650">
<ele>2.0</ele>
<time>2026-02-13T15:52:05Z</time>
</trkpt>
<trkpt lat="52.329727" lon="4.550662">
<ele>1.8</ele>
<time>2026-02-13T15:52:06Z</time>
</trkpt>
<trkpt lat="52.329731" lon="4.550684">
<ele>1.8</ele>
<time>2026-02-13T15:52:07Z</time>
</trkpt>
<trkpt lat="52.329732" lon="4.550695">
<ele>2.0</ele>
<time>2026-02-13T15:52:07Z</time>
</trkpt>
<trkpt lat="52.329734" lon="4.550707">
<ele>2.0</ele>
<time>2026-02-13T15:52:07Z</time>
</trkpt>
<trkpt lat="52.329736" lon="4.550717">
<ele>1.9</ele>
<time>2026-02-13T15:52:08Z</time>
</trkpt>
<trkpt lat="52.329737" lon="4.550730">
<ele>1.9</ele>
<time>2026-02-13T15:52:08Z</time>
</trkpt>
<trkpt lat="52.329739" lon="4.550740">
<ele>1.9</ele>
<time>2026-02-13T15:52:09Z</time>
</trkpt>
<trkpt lat="52.329740" lon="4.550753">
<ele>1.9</ele>
<time>2026-02-13T15:52:09Z</time>
</trkpt>
<trkpt lat="52.329743" lon="4.550763">
<ele>1.9</ele>
<time>2026-02-13T15:52:10Z</time>
</trkpt>
<trkpt lat="52.329745" lon="4.550776">
<ele>1.9</ele>
<time>2026-02-13T15:52:10Z</time>
</trkpt>
<trkpt lat="52.329749" lon="4.550790">
<ele>1.8</ele>
<time>2026-02-13T15:52:11Z</time>
</trkpt>
<trkpt lat="52.329752" lon="4.550807">
<ele>1.8</ele>
<time>2026-02-13T15:52:12Z</time>
</trkpt>
<trkpt lat="52.329754" lon="4.550818">
<ele>1.8</ele>
<time>2026-02-13T15:52:12Z</time>
</trkpt>
<trkpt lat="52.329756" lon="4.550828">
<ele>2.1</ele>
<time>2026-02-13T15:52:13Z</time>
</trkpt>
<trkpt lat="52.329758" lon="4.550840">
<ele>2.1</ele>
<time>2026-02-13T15:52:13Z</time>
</trkpt>
<trkpt lat="52.329761" lon="4.550849">
<ele>2.2</ele>
<time>2026-02-13T15:52:14Z</time>
</trkpt>
<trkpt lat="52.329763" lon="4.550861">
<ele>2.2</ele>
<time>2026-02-13T15:52:14Z</time>
</trkpt>
<trkpt lat="52.329766" lon="4.550883">
<ele>2.2</ele>
<time>2026-02-13T15:52:16Z</time>
</trkpt>
<trkpt lat="52.329768" lon="4.550896">
<ele>2.4</ele>
<time>2026-02-13T15:52:16Z</time>
</trkpt>
<trkpt lat="52.329770" lon="4.550906">
<ele>2.4</ele>
<time>2026-02-13T15:52:17Z</time>
</trkpt>
<trkpt lat="52.329773" lon="4.550927">
<ele>2.4</ele>
<time>2026-02-13T15:52:17Z</time>
</trkpt>
<trkpt lat="52.329777" lon="4.550949">
<ele>2.5</ele>
<time>2026-02-13T15:52:18Z</time>
</trkpt>
<trkpt lat="52.329780" lon="4.550965">
<ele>2.4</ele>
<time>2026-02-13T15:52:19Z</time>
</trkpt>
<trkpt lat="52.329782" lon="4.550975">
<ele>2.4</ele>
<time>2026-02-13T15:52:20Z</time>
</trkpt>
<trkpt lat="52.329784" lon="4.550986">
<ele>2.4</ele>
<time>2026-02-13T15:52:20Z</time>
</trkpt>
<trkpt lat="52.329786" lon="4.550998">
<ele>2.2</ele>
<time>2026-02-13T15:52:21Z</time>
</trkpt>
<trkpt lat="52.329789" lon="4.551009">
<ele>2.2</ele>
<time>2026-02-13T15:52:21Z</time>
</trkpt>
<trkpt lat="52.329791" lon="4.551019">
<ele>2.2</ele>
<time>2026-02-13T15:52:22Z</time>
</trkpt>
<trkpt lat="52.329795" lon="4.551039">
<ele>2.2</ele>
<time>2026-02-13T15:52:22Z</time>
</trkpt>
<trkpt lat="52.329797" lon="4.551050">
<ele>2.2</ele>
<time>2026-02-13T15:52:23Z</time>
</trkpt>
<trkpt lat="52.329799" lon="4.551063">
<ele>2.2</ele>
<time>2026-02-13T15:52:23Z</time>
</trkpt>
<trkpt lat="52.329802" lon="4.551086">
<ele>2.2</ele>
<time>2026-02-13T15:52:24Z</time>
</trkpt>
<trkpt lat="52.329802" lon="4.551098">
<ele>2.2</ele>
<time>2026-02-13T15:52:25Z</time>
</trkpt>
<trkpt lat="52.329802" lon="4.551111">
<ele>2.1</ele>
<time>2026-02-13T15:52:26Z</time>
</trkpt>
<trkpt lat="52.329802" lon="4.551121">
<ele>2.1</ele>
<time>2026-02-13T15:52:26Z</time>
</trkpt>
<trkpt lat="52.329802" lon="4.551134">
<ele>2.2</ele>
<time>2026-02-13T15:52:27Z</time>
</trkpt>
<trkpt lat="52.329802" lon="4.551155">
<ele>2.2</ele>
<time>2026-02-13T15:52:28Z</time>
</trkpt>
<trkpt lat="52.329801" lon="4.551168">
<ele>2.2</ele>
<time>2026-02-13T15:52:28Z</time>
</trkpt>
<trkpt lat="52.329799" lon="4.551177">
<ele>2.0</ele>
<time>2026-02-13T15:52:29Z</time>
</trkpt>
<trkpt lat="52.329798" lon="4.551188">
<ele>2.0</ele>
<time>2026-02-13T15:52:29Z</time>
</trkpt>
<trkpt lat="52.329795" lon="4.551198">
<ele>2.0</ele>
<time>2026-02-13T15:52:30Z</time>
</trkpt>
<trkpt lat="52.329795" lon="4.551218">
<ele>2.0</ele>
<time>2026-02-13T15:52:31Z</time>
</trkpt>
<trkpt lat="52.329796" lon="4.551234">
<ele>2.0</ele>
<time>2026-02-13T15:52:31Z</time>
</trkpt>
<trkpt lat="52.329797" lon="4.551246">
<ele>2.0</ele>
<time>2026-02-13T15:52:32Z</time>
</trkpt>
<trkpt lat="52.329799" lon="4.551258">
<ele>2.0</ele>
<time>2026-02-13T15:52:32Z</time>
</trkpt>
<trkpt lat="52.329801" lon="4.551278">
<ele>2.1</ele>
<time>2026-02-13T15:52:33Z</time>
</trkpt>
<trkpt lat="52.329801" lon="4.551287">
<ele>2.1</ele>
<time>2026-02-13T15:52:34Z</time>
</trkpt>
<trkpt lat="52.329802" lon="4.551300">
<ele>2.1</ele>
<time>2026-02-13T15:52:34Z</time>
</trkpt>
<trkpt lat="52.329804" lon="4.551312">
<ele>2.1</ele>
<time>2026-02-13T15:52:35Z</time>
</trkpt>
<trkpt lat="52.329804" lon="4.551322">
<ele>2.1</ele>
<time>2026-02-13T15:52:35Z</time>
</trkpt>
<trkpt lat="52.329807" lon="4.551331">
<ele>2.3</ele>
<time>2026-02-13T15:52:36Z</time>
</trkpt>
<trkpt lat="52.329809" lon="4.551341">
<ele>2.3</ele>
<time>2026-02-13T15:52:36Z</time>
</trkpt>
<trkpt lat="52.329812" lon="4.551349">
<ele>2.4</ele>
<time>2026-02-13T15:52:37Z</time>
</trkpt>
<trkpt lat="52.329815" lon="4.551364">
<ele>2.5</ele>
<time>2026-02-13T15:52:38Z</time>
</trkpt>
<trkpt lat="52.329820" lon="4.551384">
<ele>2.8</ele>
<time>2026-02-13T15:52:39Z</time>
</trkpt>
<trkpt lat="52.329823" lon="4.551405">
<ele>2.7</ele>
<time>2026-02-13T15:52:40Z</time>
</trkpt>
<trkpt lat="52.329824" lon="4.551415">
<ele>2.7</ele>
<time>2026-02-13T15:52:40Z</time>
</trkpt>
<trkpt lat="52.329825" lon="4.551427">
<ele>2.8</ele>
<time>2026-02-13T15:52:41Z</time>
</trkpt>
<trkpt lat="52.329827" lon="4.551439">
<ele>2.8</ele>
<time>2026-02-13T15:52:41Z</time>
</trkpt>
<trkpt lat="52.329828" lon="4.551448">
<ele>3.1</ele>
<time>2026-02-13T15:52:42Z</time>
</trkpt>
<trkpt lat="52.329829" lon="4.551463">
<ele>3.1</ele>
<time>2026-02-13T15:52:42Z</time>
</trkpt>
<trkpt lat="52.329829" lon="4.551473">
<ele>3.5</ele>
<time>2026-02-13T15:52:43Z</time>
</trkpt>
<trkpt lat="52.329829" lon="4.551484">
<ele>3.5</ele>
<time>2026-02-13T15:52:43Z</time>
</trkpt>
<trkpt lat="52.329830" lon="4.551493">
<ele>3.3</ele>
<time>2026-02-13T15:52:44Z</time>
</trkpt>
<trkpt lat="52.329830" lon="4.551504">
<ele>3.3</ele>
<time>2026-02-13T15:52:44Z</time>
</trkpt>
<trkpt lat="52.329831" lon="4.551513">
<ele>3.4</ele>
<time>2026-02-13T15:52:45Z</time>
</trkpt>
<trkpt lat="52.329831" lon="4.551524">
<ele>3.4</ele>
<time>2026-02-13T15:52:45Z</time>
</trkpt>
<trkpt lat="52.329831" lon="4.551535">
<ele>3.4</ele>
<time>2026-02-13T15:52:46Z</time>
</trkpt>
<trkpt lat="52.329831" lon="4.551551">
<ele>3.4</ele>
<time>2026-02-13T15:52:47Z</time>
</trkpt>
<trkpt lat="52.329832" lon="4.551563">
<ele>3.4</ele>
<time>2026-02-13T15:52:47Z</time>
</trkpt>
<trkpt lat="52.329835" lon="4.551575">
<ele>3.2</ele>
<time>2026-02-13T15:52:48Z</time>
</trkpt>
<trkpt lat="52.329839" lon="4.551592">
<ele>3.0</ele>
<time>2026-02-13T15:52:49Z</time>
</trkpt>
<trkpt lat="52.329842" lon="4.551613">
<ele>3.0</ele>
<time>2026-02-13T15:52:49Z</time>
</trkpt>
<trkpt lat="52.329844" lon="4.551618">
<ele>2.7</ele>
<time>2026-02-13T15:52:50Z</time>
</trkpt>
<trkpt lat="52.329845" lon="4.551627">
<ele>2.7</ele>
<time>2026-02-13T15:52:50Z</time>
</trkpt>
<trkpt lat="52.329847" lon="4.551638">
<ele>2.6</ele>
<time>2026-02-13T15:52:51Z</time>
</trkpt>
<trkpt lat="52.329849" lon="4.551649">
<ele>2.6</ele>
<time>2026-02-13T15:52:51Z</time>
</trkpt>
<trkpt lat="52.329850" lon="4.551661">
<ele>2.7</ele>
<time>2026-02-13T15:52:52Z</time>
</trkpt>
<trkpt lat="52.329852" lon="4.551679">
<ele>2.7</ele>
<time>2026-02-13T15:52:53Z</time>
</trkpt>
<trkpt lat="52.329852" lon="4.551694">
<ele>2.7</ele>
<time>2026-02-13T15:52:53Z</time>
</trkpt>
<trkpt lat="52.329854" lon="4.551708">
<ele>2.3</ele>
<time>2026-02-13T15:52:54Z</time>
</trkpt>
<trkpt lat="52.329856" lon="4.551727">
<ele>2.1</ele>
<time>2026-02-13T15:52:55Z</time>
</trkpt>
<trkpt lat="52.329858" lon="4.551741">
<ele>2.1</ele>
<time>2026-02-13T15:52:55Z</time>
</trkpt>
<trkpt lat="52.329860" lon="4.551751">
<ele>2.2</ele>
<time>2026-02-13T15:52:56Z</time>
</trkpt>
<trkpt lat="52.329861" lon="4.551764">
<ele>2.2</ele>
<time>2026-02-13T15:52:56Z</time>
</trkpt>
<trkpt lat="52.329864" lon="4.551786">
<ele>2.0</ele>
<time>2026-02-13T15:52:57Z</time>
</trkpt>
<trkpt lat="52.329867" lon="4.551800">
<ele>1.9</ele>
<time>2026-02-13T15:52:58Z</time>
</trkpt>
<trkpt lat="52.329870" lon="4.551818">
<ele>1.8</ele>
<time>2026-02-13T15:52:59Z</time>
</trkpt>
<trkpt lat="52.329873" lon="4.551831">
<ele>1.8</ele>
<time>2026-02-13T15:52:59Z</time>
</trkpt>
<trkpt lat="52.329875" lon="4.551841">
<ele>1.7</ele>
<time>2026-02-13T15:53:00Z</time>
</trkpt>
<trkpt lat="52.329878" lon="4.551854">
<ele>1.7</ele>
<time>2026-02-13T15:53:00Z</time>
</trkpt>
<trkpt lat="52.329880" lon="4.551867">
<ele>1.5</ele>
<time>2026-02-13T15:53:01Z</time>
</trkpt>
<trkpt lat="52.329883" lon="4.551876">
<ele>1.5</ele>
<time>2026-02-13T15:53:01Z</time>
</trkpt>
<trkpt lat="52.329887" lon="4.551887">
<ele>1.6</ele>
<time>2026-02-13T15:53:02Z</time>
</trkpt>
<trkpt lat="52.329890" lon="4.551898">
<ele>1.6</ele>
<time>2026-02-13T15:53:02Z</time>
</trkpt>
<trkpt lat="52.329894" lon="4.551909">
<ele>1.4</ele>
<time>2026-02-13T15:53:03Z</time>
</trkpt>
<trkpt lat="52.329901" lon="4.551931">
<ele>1.4</ele>
<time>2026-02-13T15:53:04Z</time>
</trkpt>
<trkpt lat="52.329909" lon="4.551955">
<ele>1.4</ele>
<time>2026-02-13T15:53:05Z</time>
</trkpt>
<trkpt lat="52.329914" lon="4.551976">
<ele>1.3</ele>
<time>2026-02-13T15:53:06Z</time>
</trkpt>
<trkpt lat="52.329920" lon="4.551997">
<ele>1.3</ele>
<time>2026-02-13T15:53:07Z</time>
</trkpt>
<trkpt lat="52.329923" lon="4.552008">
<ele>1.1</ele>
<time>2026-02-13T15:53:07Z</time>
</trkpt>
<trkpt lat="52.329926" lon="4.552019">
<ele>1.1</ele>
<time>2026-02-13T15:53:08Z</time>
</trkpt>
<trkpt lat="52.329929" lon="4.552031">
<ele>1.1</ele>
<time>2026-02-13T15:53:08Z</time>
</trkpt>
<trkpt lat="52.329933" lon="4.552043">
<ele>0.9</ele>
<time>2026-02-13T15:53:09Z</time>
</trkpt>
<trkpt lat="52.329941" lon="4.552068">
<ele>0.9</ele>
<time>2026-02-13T15:53:10Z</time>
</trkpt>
<trkpt lat="52.329947" lon="4.552089">
<ele>0.9</ele>
<time>2026-02-13T15:53:11Z</time>
</trkpt>
<trkpt lat="52.329950" lon="4.552099">
<ele>0.9</ele>
<time>2026-02-13T15:53:11Z</time>
</trkpt>
<trkpt lat="52.329954" lon="4.552110">
<ele>0.9</ele>
<time>2026-02-13T15:53:11Z</time>
</trkpt>
<trkpt lat="52.329957" lon="4.552121">
<ele>1.2</ele>
<time>2026-02-13T15:53:12Z</time>
</trkpt>
<trkpt lat="52.329962" lon="4.552143">
<ele>1.1</ele>
<time>2026-02-13T15:53:13Z</time>
</trkpt>
<trkpt lat="52.329965" lon="4.552156">
<ele>1.1</ele>
<time>2026-02-13T15:53:13Z</time>
</trkpt>
<trkpt lat="52.329966" lon="4.552167">
<ele>1.2</ele>
<time>2026-02-13T15:53:14Z</time>
</trkpt>
<trkpt lat="52.329968" lon="4.552180">
<ele>1.2</ele>
<time>2026-02-13T15:53:14Z</time>
</trkpt>
<trkpt lat="52.329970" lon="4.552191">
<ele>1.2</ele>
<time>2026-02-13T15:53:15Z</time>
</trkpt>
<trkpt lat="52.329972" lon="4.552203">
<ele>1.2</ele>
<time>2026-02-13T15:53:15Z</time>
</trkpt>
<trkpt lat="52.329976" lon="4.552212">
<ele>1.2</ele>
<time>2026-02-13T15:53:16Z</time>
</trkpt>
<trkpt lat="52.329981" lon="4.552223">
<ele>1.2</ele>
<time>2026-02-13T15:53:16Z</time>
</trkpt>
<trkpt lat="52.329986" lon="4.552232">
<ele>1.1</ele>
<time>2026-02-13T15:53:17Z</time>
</trkpt>
<trkpt lat="52.329992" lon="4.552245">
<ele>1.1</ele>
<time>2026-02-13T15:53:18Z</time>
</trkpt>
<trkpt lat="52.330002" lon="4.552262">
<ele>1.2</ele>
<time>2026-02-13T15:53:18Z</time>
</trkpt>
<trkpt lat="52.330011" lon="4.552281">
<ele>0.9</ele>
<time>2026-02-13T15:53:19Z</time>
</trkpt>
<trkpt lat="52.330015" lon="4.552291">
<ele>1.1</ele>
<time>2026-02-13T15:53:20Z</time>
</trkpt>
<trkpt lat="52.330021" lon="4.552302">
<ele>1.1</ele>
<time>2026-02-13T15:53:20Z</time>
</trkpt>
<trkpt lat="52.330030" lon="4.552319">
<ele>1.1</ele>
<time>2026-02-13T15:53:21Z</time>
</trkpt>
<trkpt lat="52.330035" lon="4.552326">
<ele>1.3</ele>
<time>2026-02-13T15:53:22Z</time>
</trkpt>
<trkpt lat="52.330042" lon="4.552340">
<ele>1.4</ele>
<time>2026-02-13T15:53:23Z</time>
</trkpt>
<trkpt lat="52.330051" lon="4.552358">
<ele>1.4</ele>
<time>2026-02-13T15:53:24Z</time>
</trkpt>
<trkpt lat="52.330054" lon="4.552365">
<ele>1.2</ele>
<time>2026-02-13T15:53:24Z</time>
</trkpt>
<trkpt lat="52.330061" lon="4.552380">
<ele>1.4</ele>
<time>2026-02-13T15:53:25Z</time>
</trkpt>
<trkpt lat="52.330065" lon="4.552393">
<ele>1.4</ele>
<time>2026-02-13T15:53:25Z</time>
</trkpt>
<trkpt lat="52.330068" lon="4.552401">
<ele>1.3</ele>
<time>2026-02-13T15:53:26Z</time>
</trkpt>
<trkpt lat="52.330076" lon="4.552420">
<ele>1.4</ele>
<time>2026-02-13T15:53:27Z</time>
</trkpt>
<trkpt lat="52.330083" lon="4.552437">
<ele>1.3</ele>
<time>2026-02-13T15:53:28Z</time>
</trkpt>
<trkpt lat="52.330089" lon="4.552447">
<ele>1.2</ele>
<time>2026-02-13T15:53:28Z</time>
</trkpt>
<trkpt lat="52.330094" lon="4.552453">
<ele>1.3</ele>
<time>2026-02-13T15:53:29Z</time>
</trkpt>
<trkpt lat="52.330100" lon="4.552463">
<ele>1.3</ele>
<time>2026-02-13T15:53:29Z</time>
</trkpt>
<trkpt lat="52.330110" lon="4.552478">
<ele>1.3</ele>
<time>2026-02-13T15:53:30Z</time>
</trkpt>
<trkpt lat="52.330115" lon="4.552487">
<ele>1.3</ele>
<time>2026-02-13T15:53:31Z</time>
</trkpt>
<trkpt lat="52.330121" lon="4.552495">
<ele>1.3</ele>
<time>2026-02-13T15:53:31Z</time>
</trkpt>
<trkpt lat="52.330126" lon="4.552505">
<ele>1.1</ele>
<time>2026-02-13T15:53:32Z</time>
</trkpt>
<trkpt lat="52.330134" lon="4.552515">
<ele>1.1</ele>
<time>2026-02-13T15:53:33Z</time>
</trkpt>
<trkpt lat="52.330145" lon="4.552536">
<ele>1.2</ele>
<time>2026-02-13T15:53:34Z</time>
</trkpt>
<trkpt lat="52.330151" lon="4.552552">
<ele>1.2</ele>
<time>2026-02-13T15:53:34Z</time>
</trkpt>
<trkpt lat="52.330154" lon="4.552574">
<ele>1.4</ele>
<time>2026-02-13T15:53:35Z</time>
</trkpt>
<trkpt lat="52.330158" lon="4.552600">
<ele>1.2</ele>
<time>2026-02-13T15:53:36Z</time>
</trkpt>
<trkpt lat="52.330159" lon="4.552612">
<ele>1.2</ele>
<time>2026-02-13T15:53:37Z</time>
</trkpt>
<trkpt lat="52.330161" lon="4.552623">
<ele>1.2</ele>
<time>2026-02-13T15:53:37Z</time>
</trkpt>
<trkpt lat="52.330164" lon="4.552645">
<ele>1.3</ele>
<time>2026-02-13T15:53:38Z</time>
</trkpt>
<trkpt lat="52.330166" lon="4.552655">
<ele>1.2</ele>
<time>2026-02-13T15:53:39Z</time>
</trkpt>
<trkpt lat="52.330171" lon="4.552672">
<ele>1.2</ele>
<time>2026-02-13T15:53:40Z</time>
</trkpt>
<trkpt lat="52.330178" lon="4.552692">
<ele>1.3</ele>
<time>2026-02-13T15:53:41Z</time>
</trkpt>
<trkpt lat="52.330185" lon="4.552711">
<ele>1.3</ele>
<time>2026-02-13T15:53:41Z</time>
</trkpt>
<trkpt lat="52.330196" lon="4.552739">
<ele>1.1</ele>
<time>2026-02-13T15:53:43Z</time>
</trkpt>
<trkpt lat="52.330199" lon="4.552745">
<ele>1.1</ele>
<time>2026-02-13T15:53:43Z</time>
</trkpt>
<trkpt lat="52.330206" lon="4.552772">
<ele>1.2</ele>
<time>2026-02-13T15:53:44Z</time>
</trkpt>
<trkpt lat="52.330206" lon="4.552779">
<ele>1.3</ele>
<time>2026-02-13T15:53:45Z</time>
</trkpt>
<trkpt lat="52.330204" lon="4.552790">
<ele>1.3</ele>
<time>2026-02-13T15:53:45Z</time>
</trkpt>
<trkpt lat="52.330203" lon="4.552816">
<ele>1.0</ele>
<time>2026-02-13T15:53:47Z</time>
</trkpt>
<trkpt lat="52.330204" lon="4.552835">
<ele>1.0</ele>
<time>2026-02-13T15:53:48Z</time>
</trkpt>
<trkpt lat="52.330208" lon="4.552848">
<ele>0.7</ele>
<time>2026-02-13T15:53:48Z</time>
</trkpt>
<trkpt lat="52.330225" lon="4.552870">
<ele>0.8</ele>
<time>2026-02-13T15:53:50Z</time>
</trkpt>
<trkpt lat="52.330235" lon="4.552892">
<ele>0.9</ele>
<time>2026-02-13T15:53:51Z</time>
</trkpt>
<trkpt lat="52.330239" lon="4.552910">
<ele>0.9</ele>
<time>2026-02-13T15:53:51Z</time>
</trkpt>
<trkpt lat="52.330246" lon="4.552934">
<ele>0.8</ele>
<time>2026-02-13T15:53:52Z</time>
</trkpt>
<trkpt lat="52.330255" lon="4.552956">
<ele>0.6</ele>
<time>2026-02-13T15:53:53Z</time>
</trkpt>
<trkpt lat="52.330264" lon="4.552966">
<ele>0.7</ele>
<time>2026-02-13T15:53:54Z</time>
</trkpt>
<trkpt lat="52.330267" lon="4.552977">
<ele>0.7</ele>
<time>2026-02-13T15:53:54Z</time>
</trkpt>
<trkpt lat="52.330270" lon="4.552989">
<ele>0.5</ele>
<time>2026-02-13T15:53:55Z</time>
</trkpt>
<trkpt lat="52.330276" lon="4.552998">
<ele>0.6</ele>
<time>2026-02-13T15:53:55Z</time>
</trkpt>
<trkpt lat="52.330282" lon="4.553006">
<ele>0.5</ele>
<time>2026-02-13T15:53:56Z</time>
</trkpt>
<trkpt lat="52.330283" lon="4.553019">
<ele>0.5</ele>
<time>2026-02-13T15:53:56Z</time>
</trkpt>
<trkpt lat="52.330288" lon="4.553028">
<ele>0.5</ele>
<time>2026-02-13T15:53:57Z</time>
</trkpt>
<trkpt lat="52.330294" lon="4.553050">
<ele>0.7</ele>
<time>2026-02-13T15:53:58Z</time>
</trkpt>
<trkpt lat="52.330297" lon="4.553063">
<ele>0.7</ele>
<time>2026-02-13T15:53:58Z</time>
</trkpt>
<trkpt lat="52.330304" lon="4.553079">
<ele>0.4</ele>
<time>2026-02-13T15:53:59Z</time>
</trkpt>
<trkpt lat="52.330311" lon="4.553087">
<ele>0.4</ele>
<time>2026-02-13T15:54:00Z</time>
</trkpt>
<trkpt lat="52.330315" lon="4.553097">
<ele>0.4</ele>
<time>2026-02-13T15:54:00Z</time>
</trkpt>
<trkpt lat="52.330318" lon="4.553110">
<ele>0.3</ele>
<time>2026-02-13T15:54:01Z</time>
</trkpt>
<trkpt lat="52.330328" lon="4.553130">
<ele>0.3</ele>
<time>2026-02-13T15:54:02Z</time>
</trkpt>
<trkpt lat="52.330339" lon="4.553142">
<ele>0.6</ele>
<time>2026-02-13T15:54:03Z</time>
</trkpt>
<trkpt lat="52.330347" lon="4.553149">
<ele>0.6</ele>
<time>2026-02-13T15:54:03Z</time>
</trkpt>
<trkpt lat="52.330354" lon="4.553155">
<ele>0.5</ele>
<time>2026-02-13T15:54:04Z</time>
</trkpt>
<trkpt lat="52.330361" lon="4.553162">
<ele>0.5</ele>
<time>2026-02-13T15:54:04Z</time>
</trkpt>
<trkpt lat="52.330367" lon="4.553168">
<ele>0.5</ele>
<time>2026-02-13T15:54:05Z</time>
</trkpt>
<trkpt lat="52.330375" lon="4.553175">
<ele>0.4</ele>
<time>2026-02-13T15:54:05Z</time>
</trkpt>
<trkpt lat="52.330381" lon="4.553181">
<ele>0.4</ele>
<time>2026-02-13T15:54:06Z</time>
</trkpt>
<trkpt lat="52.330388" lon="4.553189">
<ele>0.5</ele>
<time>2026-02-13T15:54:06Z</time>
</trkpt>
<trkpt lat="52.330398" lon="4.553196">
<ele>0.5</ele>
<time>2026-02-13T15:54:07Z</time>
</trkpt>
<trkpt lat="52.330408" lon="4.553206">
<ele>0.6</ele>
<time>2026-02-13T15:54:08Z</time>
</trkpt>
<trkpt lat="52.330421" lon="4.553218">
<ele>0.6</ele>
<time>2026-02-13T15:54:09Z</time>
</trkpt>
<trkpt lat="52.330432" lon="4.553233">
<ele>0.7</ele>
<time>2026-02-13T15:54:09Z</time>
</trkpt>
<trkpt lat="52.330435" lon="4.553235">
<ele>0.7</ele>
<time>2026-02-13T15:54:10Z</time>
</trkpt>
<trkpt lat="52.330448" lon="4.553247">
<ele>1.2</ele>
<time>2026-02-13T15:54:11Z</time>
</trkpt>
<trkpt lat="52.330458" lon="4.553262">
<ele>1.7</ele>
<time>2026-02-13T15:54:12Z</time>
</trkpt>
<trkpt lat="52.330467" lon="4.553276">
<ele>1.8</ele>
<time>2026-02-13T15:54:13Z</time>
</trkpt>
<trkpt lat="52.330469" lon="4.553284">
<ele>2.0</ele>
<time>2026-02-13T15:54:13Z</time>
</trkpt>
<trkpt lat="52.330472" lon="4.553296">
<ele>2.0</ele>
<time>2026-02-13T15:54:14Z</time>
</trkpt>
<trkpt lat="52.330477" lon="4.553303">
<ele>2.0</ele>
<time>2026-02-13T15:54:14Z</time>
</trkpt>
<trkpt lat="52.330488" lon="4.553315">
<ele>1.9</ele>
<time>2026-02-13T15:54:15Z</time>
</trkpt>
<trkpt lat="52.330502" lon="4.553329">
<ele>1.9</ele>
<time>2026-02-13T15:54:16Z</time>
</trkpt>
<trkpt lat="52.330516" lon="4.553344">
<ele>1.8</ele>
<time>2026-02-13T15:54:17Z</time>
</trkpt>
<trkpt lat="52.330530" lon="4.553359">
<ele>1.8</ele>
<time>2026-02-13T15:54:18Z</time>
</trkpt>
<trkpt lat="52.330537" lon="4.553365">
<ele>1.8</ele>
<time>2026-02-13T15:54:19Z</time>
</trkpt>
<trkpt lat="52.330549" lon="4.553381">
<ele>1.5</ele>
<time>2026-02-13T15:54:20Z</time>
</trkpt>
<trkpt lat="52.330554" lon="4.553395">
<ele>1.5</ele>
<time>2026-02-13T15:54:20Z</time>
</trkpt>
<trkpt lat="52.330561" lon="4.553407">
<ele>1.3</ele>
<time>2026-02-13T15:54:21Z</time>
</trkpt>
<trkpt lat="52.330575" lon="4.553423">
<ele>1.3</ele>
<time>2026-02-13T15:54:22Z</time>
</trkpt>
<trkpt lat="52.330587" lon="4.553439">
<ele>1.2</ele>
<time>2026-02-13T15:54:23Z</time>
</trkpt>
<trkpt lat="52.330591" lon="4.553447">
<ele>1.2</ele>
<time>2026-02-13T15:54:23Z</time>
</trkpt>
<trkpt lat="52.330602" lon="4.553462">
<ele>1.2</ele>
<time>2026-02-13T15:54:24Z</time>
</trkpt>
<trkpt lat="52.330608" lon="4.553469">
<ele>1.1</ele>
<time>2026-02-13T15:54:25Z</time>
</trkpt>
<trkpt lat="52.330616" lon="4.553479">
<ele>1.1</ele>
<time>2026-02-13T15:54:25Z</time>
</trkpt>
<trkpt lat="52.330626" lon="4.553489">
<ele>1.2</ele>
<time>2026-02-13T15:54:26Z</time>
</trkpt>
<trkpt lat="52.330640" lon="4.553493">
<ele>1.2</ele>
<time>2026-02-13T15:54:27Z</time>
</trkpt>
<trkpt lat="52.330653" lon="4.553500">
<ele>1.2</ele>
<time>2026-02-13T15:54:28Z</time>
</trkpt>
<trkpt lat="52.330659" lon="4.553505">
<ele>1.2</ele>
<time>2026-02-13T15:54:29Z</time>
</trkpt>
<trkpt lat="52.330670" lon="4.553512">
<ele>1.5</ele>
<time>2026-02-13T15:54:30Z</time>
</trkpt>
<trkpt lat="52.330678" lon="4.553518">
<ele>1.5</ele>
<time>2026-02-13T15:54:30Z</time>
</trkpt>
<trkpt lat="52.330685" lon="4.553523">
<ele>2.0</ele>
<time>2026-02-13T15:54:31Z</time>
</trkpt>
<trkpt lat="52.330699" lon="4.553530">
<ele>2.1</ele>
<time>2026-02-13T15:54:32Z</time>
</trkpt>
<trkpt lat="52.330709" lon="4.553538">
<ele>2.2</ele>
<time>2026-02-13T15:54:33Z</time>
</trkpt>
<trkpt lat="52.330717" lon="4.553545">
<ele>2.2</ele>
<time>2026-02-13T15:54:33Z</time>
</trkpt>
<trkpt lat="52.330728" lon="4.553556">
<ele>2.0</ele>
<time>2026-02-13T15:54:34Z</time>
</trkpt>
<trkpt lat="52.330734" lon="4.553561">
<ele>2.0</ele>
<time>2026-02-13T15:54:35Z</time>
</trkpt>
<trkpt lat="52.330742" lon="4.553569">
<ele>2.0</ele>
<time>2026-02-13T15:54:35Z</time>
</trkpt>
<trkpt lat="52.330753" lon="4.553577">
<ele>2.2</ele>
<time>2026-02-13T15:54:36Z</time>
</trkpt>
<trkpt lat="52.330760" lon="4.553583">
<ele>2.0</ele>
<time>2026-02-13T15:54:37Z</time>
</trkpt>
<trkpt lat="52.330766" lon="4.553587">
<ele>2.0</ele>
<time>2026-02-13T15:54:37Z</time>
</trkpt>
<trkpt lat="52.330773" lon="4.553593">
<ele>2.0</ele>
<time>2026-02-13T15:54:38Z</time>
</trkpt>
<trkpt lat="52.330780" lon="4.553598">
<ele>2.0</ele>
<time>2026-02-13T15:54:38Z</time>
</trkpt>
<trkpt lat="52.330787" lon="4.553603">
<ele>2.0</ele>
<time>2026-02-13T15:54:39Z</time>
</trkpt>
<trkpt lat="52.330790" lon="4.553605">
<ele>2.0</ele>
<time>2026-02-13T15:54:39Z</time>
</trkpt>
<trkpt lat="52.330809" lon="4.553616">
<ele>1.9</ele>
<time>2026-02-13T15:54:40Z</time>
</trkpt>
<trkpt lat="52.330821" lon="4.553626">
<ele>1.9</ele>
<time>2026-02-13T15:54:41Z</time>
</trkpt>
<trkpt lat="52.330828" lon="4.553631">
<ele>2.1</ele>
<time>2026-02-13T15:54:42Z</time>
</trkpt>
<trkpt lat="52.330837" lon="4.553637">
<ele>2.1</ele>
<time>2026-02-13T15:54:42Z</time>
</trkpt>
<trkpt lat="52.330848" lon="4.553645">
<ele>1.9</ele>
<time>2026-02-13T15:54:43Z</time>
</trkpt>
<trkpt lat="52.330855" lon="4.553649">
<ele>1.6</ele>
<time>2026-02-13T15:54:44Z</time>
</trkpt>
<trkpt lat="52.330862" lon="4.553651">
<ele>1.6</ele>
<time>2026-02-13T15:54:44Z</time>
</trkpt>
<trkpt lat="52.330871" lon="4.553655">
<ele>1.7</ele>
<time>2026-02-13T15:54:45Z</time>
</trkpt>
<trkpt lat="52.330885" lon="4.553664">
<ele>1.5</ele>
<time>2026-02-13T15:54:46Z</time>
</trkpt>
<trkpt lat="52.330889" lon="4.553670">
<ele>1.5</ele>
<time>2026-02-13T15:54:46Z</time>
</trkpt>
<trkpt lat="52.330894" lon="4.553679">
<ele>1.6</ele>
<time>2026-02-13T15:54:47Z</time>
</trkpt>
<trkpt lat="52.330901" lon="4.553686">
<ele>1.6</ele>
<time>2026-02-13T15:54:47Z</time>
</trkpt>
<trkpt lat="52.330913" lon="4.553699">
<ele>1.6</ele>
<time>2026-02-13T15:54:48Z</time>
</trkpt>
<trkpt lat="52.330923" lon="4.553713">
<ele>1.8</ele>
<time>2026-02-13T15:54:49Z</time>
</trkpt>
<trkpt lat="52.330927" lon="4.553724">
<ele>1.7</ele>
<time>2026-02-13T15:54:50Z</time>
</trkpt>
<trkpt lat="52.330933" lon="4.553732">
<ele>1.7</ele>
<time>2026-02-13T15:54:50Z</time>
</trkpt>
<trkpt lat="52.330940" lon="4.553741">
<ele>1.7</ele>
<time>2026-02-13T15:54:51Z</time>
</trkpt>
<trkpt lat="52.330948" lon="4.553760">
<ele>1.5</ele>
<time>2026-02-13T15:54:52Z</time>
</trkpt>
<trkpt lat="52.330952" lon="4.553773">
<ele>1.7</ele>
<time>2026-02-13T15:54:52Z</time>
</trkpt>
<trkpt lat="52.330956" lon="4.553786">
<ele>1.6</ele>
<time>2026-02-13T15:54:53Z</time>
</trkpt>
<trkpt lat="52.330965" lon="4.553808">
<ele>1.6</ele>
<time>2026-02-13T15:54:54Z</time>
</trkpt>
<trkpt lat="52.330973" lon="4.553830">
<ele>1.5</ele>
<time>2026-02-13T15:54:55Z</time>
</trkpt>
<trkpt lat="52.330979" lon="4.553851">
<ele>1.6</ele>
<time>2026-02-13T15:54:56Z</time>
</trkpt>
<trkpt lat="52.330985" lon="4.553871">
<ele>1.6</ele>
<time>2026-02-13T15:54:57Z</time>
</trkpt>
<trkpt lat="52.330988" lon="4.553880">
<ele>1.5</ele>
<time>2026-02-13T15:54:57Z</time>
</trkpt>
<trkpt lat="52.330993" lon="4.553898">
<ele>1.5</ele>
<time>2026-02-13T15:54:58Z</time>
</trkpt>
<trkpt lat="52.330997" lon="4.553906">
<ele>1.5</ele>
<time>2026-02-13T15:54:59Z</time>
</trkpt>
<trkpt lat="52.331002" lon="4.553918">
<ele>1.3</ele>
<time>2026-02-13T15:54:59Z</time>
</trkpt>
<trkpt lat="52.331006" lon="4.553928">
<ele>1.5</ele>
<time>2026-02-13T15:55:00Z</time>
</trkpt>
<trkpt lat="52.331012" lon="4.553938">
<ele>1.5</ele>
<time>2026-02-13T15:55:00Z</time>
</trkpt>
<trkpt lat="52.331017" lon="4.553948">
<ele>1.5</ele>
<time>2026-02-13T15:55:01Z</time>
</trkpt>
<trkpt lat="52.331022" lon="4.553957">
<ele>1.5</ele>
<time>2026-02-13T15:55:01Z</time>
</trkpt>
<trkpt lat="52.331027" lon="4.553966">
<ele>1.5</ele>
<time>2026-02-13T15:55:02Z</time>
</trkpt>
<trkpt lat="52.331038" lon="4.553985">
<ele>1.5</ele>
<time>2026-02-13T15:55:03Z</time>
</trkpt>
<trkpt lat="52.331046" lon="4.553992">
<ele>1.5</ele>
<time>2026-02-13T15:55:03Z</time>
</trkpt>
<trkpt lat="52.331052" lon="4.553999">
<ele>1.5</ele>
<time>2026-02-13T15:55:04Z</time>
</trkpt>
<trkpt lat="52.331059" lon="4.554006">
<ele>1.4</ele>
<time>2026-02-13T15:55:04Z</time>
</trkpt>
<trkpt lat="52.331066" lon="4.554013">
<ele>1.4</ele>
<time>2026-02-13T15:55:05Z</time>
</trkpt>
<trkpt lat="52.331077" lon="4.554024">
<ele>1.6</ele>
<time>2026-02-13T15:55:05Z</time>
</trkpt>
<trkpt lat="52.331080" lon="4.554028">
<ele>1.6</ele>
<time>2026-02-13T15:55:06Z</time>
</trkpt>
<trkpt lat="52.331090" lon="4.554041">
<ele>1.6</ele>
<time>2026-02-13T15:55:07Z</time>
</trkpt>
<trkpt lat="52.331103" lon="4.554057">
<ele>1.6</ele>
<time>2026-02-13T15:55:08Z</time>
</trkpt>
<trkpt lat="52.331110" lon="4.554067">
<ele>1.6</ele>
<time>2026-02-13T15:55:08Z</time>
</trkpt>
<trkpt lat="52.331117" lon="4.554074">
<ele>1.6</ele>
<time>2026-02-13T15:55:09Z</time>
</trkpt>
<trkpt lat="52.331123" lon="4.554081">
<ele>1.8</ele>
<time>2026-02-13T15:55:10Z</time>
</trkpt>
<trkpt lat="52.331135" lon="4.554091">
<ele>1.8</ele>
<time>2026-02-13T15:55:10Z</time>
</trkpt>
<trkpt lat="52.331141" lon="4.554099">
<ele>2.0</ele>
<time>2026-02-13T15:55:11Z</time>
</trkpt>
<trkpt lat="52.331148" lon="4.554106">
<ele>2.0</ele>
<time>2026-02-13T15:55:11Z</time>
</trkpt>
<trkpt lat="52.331153" lon="4.554118">
<ele>1.8</ele>
<time>2026-02-13T15:55:12Z</time>
</trkpt>
<trkpt lat="52.331159" lon="4.554128">
<ele>1.8</ele>
<time>2026-02-13T15:55:12Z</time>
</trkpt>
<trkpt lat="52.331166" lon="4.554136">
<ele>1.5</ele>
<time>2026-02-13T15:55:13Z</time>
</trkpt>
<trkpt lat="52.331172" lon="4.554144">
<ele>1.5</ele>
<time>2026-02-13T15:55:13Z</time>
</trkpt>
<trkpt lat="52.331182" lon="4.554150">
<ele>1.8</ele>
<time>2026-02-13T15:55:14Z</time>
</trkpt>
<trkpt lat="52.331191" lon="4.554154">
<ele>1.4</ele>
<time>2026-02-13T15:55:15Z</time>
</trkpt>
<trkpt lat="52.331207" lon="4.554165">
<ele>1.5</ele>
<time>2026-02-13T15:55:16Z</time>
</trkpt>
<trkpt lat="52.331223" lon="4.554163">
<ele>1.5</ele>
<time>2026-02-13T15:55:17Z</time>
</trkpt>
<trkpt lat="52.331233" lon="4.554170">
<ele>1.5</ele>
<time>2026-02-13T15:55:17Z</time>
</trkpt>
<trkpt lat="52.331243" lon="4.554167">
<ele>1.7</ele>
<time>2026-02-13T15:55:18Z</time>
</trkpt>
<trkpt lat="52.331250" lon="4.554171">
<ele>1.7</ele>
<time>2026-02-13T15:55:18Z</time>
</trkpt>
<trkpt lat="52.331260" lon="4.554168">
<ele>1.7</ele>
<time>2026-02-13T15:55:19Z</time>
</trkpt>
<trkpt lat="52.331272" lon="4.554168">
<ele>1.5</ele>
<time>2026-02-13T15:55:20Z</time>
</trkpt>
<trkpt lat="52.331284" lon="4.554170">
<ele>1.5</ele>
<time>2026-02-13T15:55:20Z</time>
</trkpt>
<trkpt lat="52.331292" lon="4.554164">
<ele>1.3</ele>
<time>2026-02-13T15:55:21Z</time>
</trkpt>
<trkpt lat="52.331301" lon="4.554167">
<ele>1.3</ele>
<time>2026-02-13T15:55:21Z</time>
</trkpt>
<trkpt lat="52.331314" lon="4.554166">
<ele>1.3</ele>
<time>2026-02-13T15:55:22Z</time>
</trkpt>
<trkpt lat="52.331323" lon="4.554164">
<ele>1.3</ele>
<time>2026-02-13T15:55:23Z</time>
</trkpt>
<trkpt lat="52.331332" lon="4.554163">
<ele>1.3</ele>
<time>2026-02-13T15:55:24Z</time>
</trkpt>
<trkpt lat="52.331344" lon="4.554165">
<ele>1.3</ele>
<time>2026-02-13T15:55:24Z</time>
</trkpt>
<trkpt lat="52.331352" lon="4.554161">
<ele>1.3</ele>
<time>2026-02-13T15:55:25Z</time>
</trkpt>
<trkpt lat="52.331360" lon="4.554165">
<ele>1.3</ele>
<time>2026-02-13T15:55:25Z</time>
</trkpt>
<trkpt lat="52.331383" lon="4.554172">
<ele>1.1</ele>
<time>2026-02-13T15:55:27Z</time>
</trkpt>
<trkpt lat="52.331398" lon="4.554173">
<ele>1.0</ele>
<time>2026-02-13T15:55:28Z</time>
</trkpt>
<trkpt lat="52.331407" lon="4.554171">
<ele>1.2</ele>
<time>2026-02-13T15:55:28Z</time>
</trkpt>
<trkpt lat="52.331419" lon="4.554165">
<ele>1.2</ele>
<time>2026-02-13T15:55:29Z</time>
</trkpt>
<trkpt lat="52.331429" lon="4.554161">
<ele>1.3</ele>
<time>2026-02-13T15:55:30Z</time>
</trkpt>
<trkpt lat="52.331442" lon="4.554160">
<ele>1.3</ele>
<time>2026-02-13T15:55:30Z</time>
</trkpt>
<trkpt lat="52.331449" lon="4.554156">
<ele>1.1</ele>
<time>2026-02-13T15:55:31Z</time>
</trkpt>
<trkpt lat="52.331457" lon="4.554156">
<ele>1.0</ele>
<time>2026-02-13T15:55:32Z</time>
</trkpt>
<trkpt lat="52.331468" lon="4.554158">
<ele>1.0</ele>
<time>2026-02-13T15:55:32Z</time>
</trkpt>
<trkpt lat="52.331483" lon="4.554155">
<ele>1.0</ele>
<time>2026-02-13T15:55:33Z</time>
</trkpt>
<trkpt lat="52.331492" lon="4.554149">
<ele>1.3</ele>
<time>2026-02-13T15:55:34Z</time>
</trkpt>
<trkpt lat="52.331503" lon="4.554145">
<ele>1.0</ele>
<time>2026-02-13T15:55:35Z</time>
</trkpt>
<trkpt lat="52.331514" lon="4.554143">
<ele>1.0</ele>
<time>2026-02-13T15:55:35Z</time>
</trkpt>
<trkpt lat="52.331523" lon="4.554141">
<ele>1.0</ele>
<time>2026-02-13T15:55:36Z</time>
</trkpt>
<trkpt lat="52.331534" lon="4.554143">
<ele>1.0</ele>
<time>2026-02-13T15:55:37Z</time>
</trkpt>
<trkpt lat="52.331544" lon="4.554146">
<ele>1.0</ele>
<time>2026-02-13T15:55:37Z</time>
</trkpt>
<trkpt lat="52.331554" lon="4.554151">
<ele>1.0</ele>
<time>2026-02-13T15:55:38Z</time>
</trkpt>
<trkpt lat="52.331562" lon="4.554155">
<ele>1.3</ele>
<time>2026-02-13T15:55:39Z</time>
</trkpt>
<trkpt lat="52.331571" lon="4.554155">
<ele>1.3</ele>
<time>2026-02-13T15:55:39Z</time>
</trkpt>
<trkpt lat="52.331579" lon="4.554163">
<ele>1.4</ele>
<time>2026-02-13T15:55:40Z</time>
</trkpt>
<trkpt lat="52.331592" lon="4.554169">
<ele>1.5</ele>
<time>2026-02-13T15:55:41Z</time>
</trkpt>
<trkpt lat="52.331601" lon="4.554178">
<ele>1.6</ele>
<time>2026-02-13T15:55:42Z</time>
</trkpt>
<trkpt lat="52.331614" lon="4.554186">
<ele>1.4</ele>
<time>2026-02-13T15:55:43Z</time>
</trkpt>
<trkpt lat="52.331624" lon="4.554203">
<ele>1.1</ele>
<time>2026-02-13T15:55:44Z</time>
</trkpt>
<trkpt lat="52.331625" lon="4.554218">
<ele>1.1</ele>
<time>2026-02-13T15:55:44Z</time>
</trkpt>
<trkpt lat="52.331627" lon="4.554230">
<ele>1.4</ele>
<time>2026-02-13T15:55:45Z</time>
</trkpt>
<trkpt lat="52.331633" lon="4.554239">
<ele>1.4</ele>
<time>2026-02-13T15:55:45Z</time>
</trkpt>
<trkpt lat="52.331642" lon="4.554236">
<ele>1.4</ele>
<time>2026-02-13T15:55:46Z</time>
</trkpt>
<trkpt lat="52.331659" lon="4.554217">
<ele>1.4</ele>
<time>2026-02-13T15:55:47Z</time>
</trkpt>
<trkpt lat="52.331674" lon="4.554205">
<ele>1.4</ele>
<time>2026-02-13T15:55:48Z</time>
</trkpt>
<trkpt lat="52.331681" lon="4.554210">
<ele>1.4</ele>
<time>2026-02-13T15:55:48Z</time>
</trkpt>
<trkpt lat="52.331688" lon="4.554220">
<ele>1.5</ele>
<time>2026-02-13T15:55:49Z</time>
</trkpt>
<trkpt lat="52.331695" lon="4.554231">
<ele>1.5</ele>
<time>2026-02-13T15:55:49Z</time>
</trkpt>
<trkpt lat="52.331701" lon="4.554241">
<ele>1.5</ele>
<time>2026-02-13T15:55:50Z</time>
</trkpt>
<trkpt lat="52.331706" lon="4.554247">
<ele>1.3</ele>
<time>2026-02-13T15:55:50Z</time>
</trkpt>
<trkpt lat="52.331711" lon="4.554254">
<ele>1.2</ele>
<time>2026-02-13T15:55:51Z</time>
</trkpt>
<trkpt lat="52.331720" lon="4.554269">
<ele>1.2</ele>
<time>2026-02-13T15:55:52Z</time>
</trkpt>
<trkpt lat="52.331724" lon="4.554277">
<ele>1.3</ele>
<time>2026-02-13T15:55:52Z</time>
</trkpt>
<trkpt lat="52.331730" lon="4.554288">
<ele>1.1</ele>
<time>2026-02-13T15:55:53Z</time>
</trkpt>
<trkpt lat="52.331736" lon="4.554302">
<ele>1.2</ele>
<time>2026-02-13T15:55:54Z</time>
</trkpt>
<trkpt lat="52.331741" lon="4.554310">
<ele>1.2</ele>
<time>2026-02-13T15:55:54Z</time>
</trkpt>
<trkpt lat="52.331745" lon="4.554317">
<ele>1.2</ele>
<time>2026-02-13T15:55:55Z</time>
</trkpt>
<trkpt lat="52.331749" lon="4.554325">
<ele>1.2</ele>
<time>2026-02-13T15:55:55Z</time>
</trkpt>
<trkpt lat="52.331756" lon="4.554337">
<ele>1.2</ele>
<time>2026-02-13T15:55:56Z</time>
</trkpt>
<trkpt lat="52.331759" lon="4.554343">
<ele>1.0</ele>
<time>2026-02-13T15:55:56Z</time>
</trkpt>
<trkpt lat="52.331765" lon="4.554351">
<ele>1.0</ele>
<time>2026-02-13T15:55:57Z</time>
</trkpt>
<trkpt lat="52.331771" lon="4.554367">
<ele>1.2</ele>
<time>2026-02-13T15:55:57Z</time>
</trkpt>
<trkpt lat="52.331773" lon="4.554375">
<ele>1.0</ele>
<time>2026-02-13T15:55:58Z</time>
</trkpt>
<trkpt lat="52.331781" lon="4.554388">
<ele>1.0</ele>
<time>2026-02-13T15:55:59Z</time>
</trkpt>
<trkpt lat="52.331789" lon="4.554404">
<ele>0.8</ele>
<time>2026-02-13T15:56:00Z</time>
</trkpt>
<trkpt lat="52.331792" lon="4.554421">
<ele>0.8</ele>
<time>2026-02-13T15:56:01Z</time>
</trkpt>
<trkpt lat="52.331797" lon="4.554437">
<ele>0.8</ele>
<time>2026-02-13T15:56:02Z</time>
</trkpt>
<trkpt lat="52.331798" lon="4.554447">
<ele>0.9</ele>
<time>2026-02-13T15:56:02Z</time>
</trkpt>
<trkpt lat="52.331800" lon="4.554454">
<ele>1.0</ele>
<time>2026-02-13T15:56:03Z</time>
</trkpt>
<trkpt lat="52.331805" lon="4.554460">
<ele>1.0</ele>
<time>2026-02-13T15:56:03Z</time>
</trkpt>
<trkpt lat="52.331814" lon="4.554474">
<ele>0.8</ele>
<time>2026-02-13T15:56:04Z</time>
</trkpt>
<trkpt lat="52.331823" lon="4.554487">
<ele>0.7</ele>
<time>2026-02-13T15:56:05Z</time>
</trkpt>
<trkpt lat="52.331831" lon="4.554505">
<ele>0.6</ele>
<time>2026-02-13T15:56:07Z</time>
</trkpt>
<trkpt lat="52.331839" lon="4.554521">
<ele>0.9</ele>
<time>2026-02-13T15:56:08Z</time>
</trkpt>
<trkpt lat="52.331846" lon="4.554532">
<ele>0.9</ele>
<time>2026-02-13T15:56:08Z</time>
</trkpt>
<trkpt lat="52.331848" lon="4.554543">
<ele>1.0</ele>
<time>2026-02-13T15:56:09Z</time>
</trkpt>
<trkpt lat="52.331855" lon="4.554552">
<ele>1.0</ele>
<time>2026-02-13T15:56:09Z</time>
</trkpt>
<trkpt lat="52.331862" lon="4.554569">
<ele>0.9</ele>
<time>2026-02-13T15:56:10Z</time>
</trkpt>
<trkpt lat="52.331870" lon="4.554588">
<ele>1.1</ele>
<time>2026-02-13T15:56:11Z</time>
</trkpt>
<trkpt lat="52.331879" lon="4.554604">
<ele>0.9</ele>
<time>2026-02-13T15:56:12Z</time>
</trkpt>
<trkpt lat="52.331885" lon="4.554611">
<ele>0.9</ele>
<time>2026-02-13T15:56:13Z</time>
</trkpt>
<trkpt lat="52.331889" lon="4.554620">
<ele>0.8</ele>
<time>2026-02-13T15:56:13Z</time>
</trkpt>
<trkpt lat="52.331894" lon="4.554628">
<ele>0.8</ele>
<time>2026-02-13T15:56:14Z</time>
</trkpt>
<trkpt lat="52.331897" lon="4.554638">
<ele>0.9</ele>
<time>2026-02-13T15:56:14Z</time>
</trkpt>
<trkpt lat="52.331903" lon="4.554647">
<ele>0.9</ele>
<time>2026-02-13T15:56:15Z</time>
</trkpt>
<trkpt lat="52.331906" lon="4.554659">
<ele>0.9</ele>
<time>2026-02-13T15:56:15Z</time>
</trkpt>
<trkpt lat="52.331910" lon="4.554669">
<ele>0.8</ele>
<time>2026-02-13T15:56:16Z</time>
</trkpt>
<trkpt lat="52.331919" lon="4.554687">
<ele>0.8</ele>
<time>2026-02-13T15:56:17Z</time>
</trkpt>
<trkpt lat="52.331925" lon="4.554704">
<ele>0.7</ele>
<time>2026-02-13T15:56:17Z</time>
</trkpt>
<trkpt lat="52.331933" lon="4.554722">
<ele>0.7</ele>
<time>2026-02-13T15:56:18Z</time>
</trkpt>
<trkpt lat="52.331938" lon="4.554734">
<ele>0.7</ele>
<time>2026-02-13T15:56:19Z</time>
</trkpt>
<trkpt lat="52.331942" lon="4.554743">
<ele>0.6</ele>
<time>2026-02-13T15:56:20Z</time>
</trkpt>
<trkpt lat="52.331954" lon="4.554763">
<ele>0.4</ele>
<time>2026-02-13T15:56:21Z</time>
</trkpt>
<trkpt lat="52.331961" lon="4.554777">
<ele>0.5</ele>
<time>2026-02-13T15:56:22Z</time>
</trkpt>
<trkpt lat="52.331970" lon="4.554789">
<ele>0.5</ele>
<time>2026-02-13T15:56:22Z</time>
</trkpt>
<trkpt lat="52.331977" lon="4.554796">
<ele>0.6</ele>
<time>2026-02-13T15:56:23Z</time>
</trkpt>
<trkpt lat="52.331983" lon="4.554803">
<ele>0.6</ele>
<time>2026-02-13T15:56:24Z</time>
</trkpt>
<trkpt lat="52.331990" lon="4.554818">
<ele>0.7</ele>
<time>2026-02-13T15:56:24Z</time>
</trkpt>
<trkpt lat="52.331994" lon="4.554827">
<ele>0.6</ele>
<time>2026-02-13T15:56:25Z</time>
</trkpt>
<trkpt lat="52.332000" lon="4.554834">
<ele>0.6</ele>
<time>2026-02-13T15:56:25Z</time>
</trkpt>
<trkpt lat="52.332005" lon="4.554839">
<ele>0.8</ele>
<time>2026-02-13T15:56:26Z</time>
</trkpt>
<trkpt lat="52.332012" lon="4.554844">
<ele>0.8</ele>
<time>2026-02-13T15:56:26Z</time>
</trkpt>
<trkpt lat="52.332016" lon="4.554850">
<ele>0.6</ele>
<time>2026-02-13T15:56:27Z</time>
</trkpt>
<trkpt lat="52.332026" lon="4.554859">
<ele>0.6</ele>
<time>2026-02-13T15:56:28Z</time>
</trkpt>
<trkpt lat="52.332029" lon="4.554865">
<ele>0.8</ele>
<time>2026-02-13T15:56:28Z</time>
</trkpt>
<trkpt lat="52.332032" lon="4.554872">
<ele>0.8</ele>
<time>2026-02-13T15:56:29Z</time>
</trkpt>
<trkpt lat="52.332038" lon="4.554879">
<ele>0.8</ele>
<time>2026-02-13T15:56:29Z</time>
</trkpt>
<trkpt lat="52.332042" lon="4.554886">
<ele>0.7</ele>
<time>2026-02-13T15:56:30Z</time>
</trkpt>
<trkpt lat="52.332057" lon="4.554901">
<ele>0.8</ele>
<time>2026-02-13T15:56:31Z</time>
</trkpt>
<trkpt lat="52.332061" lon="4.554917">
<ele>1.0</ele>
<time>2026-02-13T15:56:32Z</time>
</trkpt>
<trkpt lat="52.332071" lon="4.554934">
<ele>1.0</ele>
<time>2026-02-13T15:56:33Z</time>
</trkpt>
<trkpt lat="52.332074" lon="4.554948">
<ele>0.7</ele>
<time>2026-02-13T15:56:33Z</time>
</trkpt>
<trkpt lat="52.332080" lon="4.554970">
<ele>0.7</ele>
<time>2026-02-13T15:56:34Z</time>
</trkpt>
<trkpt lat="52.332084" lon="4.554981">
<ele>0.6</ele>
<time>2026-02-13T15:56:35Z</time>
</trkpt>
<trkpt lat="52.332089" lon="4.554992">
<ele>0.8</ele>
<time>2026-02-13T15:56:36Z</time>
</trkpt>
<trkpt lat="52.332099" lon="4.555008">
<ele>0.8</ele>
<time>2026-02-13T15:56:36Z</time>
</trkpt>
<trkpt lat="52.332110" lon="4.555028">
<ele>0.9</ele>
<time>2026-02-13T15:56:38Z</time>
</trkpt>
<trkpt lat="52.332121" lon="4.555049">
<ele>1.1</ele>
<time>2026-02-13T15:56:39Z</time>
</trkpt>
<trkpt lat="52.332125" lon="4.555066">
<ele>1.1</ele>
<time>2026-02-13T15:56:40Z</time>
</trkpt>
<trkpt lat="52.332129" lon="4.555081">
<ele>1.1</ele>
<time>2026-02-13T15:56:40Z</time>
</trkpt>
<trkpt lat="52.332133" lon="4.555091">
<ele>0.9</ele>
<time>2026-02-13T15:56:41Z</time>
</trkpt>
<trkpt lat="52.332144" lon="4.555116">
<ele>0.9</ele>
<time>2026-02-13T15:56:42Z</time>
</trkpt>
<trkpt lat="52.332151" lon="4.555134">
<ele>1.0</ele>
<time>2026-02-13T15:56:43Z</time>
</trkpt>
<trkpt lat="52.332160" lon="4.555151">
<ele>1.0</ele>
<time>2026-02-13T15:56:44Z</time>
</trkpt>
<trkpt lat="52.332168" lon="4.555165">
<ele>1.1</ele>
<time>2026-02-13T15:56:45Z</time>
</trkpt>
<trkpt lat="52.332177" lon="4.555176">
<ele>1.1</ele>
<time>2026-02-13T15:56:46Z</time>
</trkpt>
<trkpt lat="52.332182" lon="4.555183">
<ele>1.0</ele>
<time>2026-02-13T15:56:46Z</time>
</trkpt>
<trkpt lat="52.332190" lon="4.555200">
<ele>1.0</ele>
<time>2026-02-13T15:56:47Z</time>
</trkpt>
<trkpt lat="52.332201" lon="4.555221">
<ele>1.0</ele>
<time>2026-02-13T15:56:48Z</time>
</trkpt>
<trkpt lat="52.332211" lon="4.555242">
<ele>0.8</ele>
<time>2026-02-13T15:56:49Z</time>
</trkpt>
<trkpt lat="52.332223" lon="4.555263">
<ele>0.8</ele>
<time>2026-02-13T15:56:50Z</time>
</trkpt>
<trkpt lat="52.332228" lon="4.555273">
<ele>0.8</ele>
<time>2026-02-13T15:56:51Z</time>
</trkpt>
<trkpt lat="52.332237" lon="4.555291">
<ele>0.8</ele>
<time>2026-02-13T15:56:52Z</time>
</trkpt>
<trkpt lat="52.332243" lon="4.555303">
<ele>0.8</ele>
<time>2026-02-13T15:56:52Z</time>
</trkpt>
<trkpt lat="52.332250" lon="4.555312">
<ele>0.9</ele>
<time>2026-02-13T15:56:53Z</time>
</trkpt>
<trkpt lat="52.332260" lon="4.555338">
<ele>0.9</ele>
<time>2026-02-13T15:56:54Z</time>
</trkpt>
<trkpt lat="52.332269" lon="4.555356">
<ele>0.7</ele>
<time>2026-02-13T15:56:55Z</time>
</trkpt>
<trkpt lat="52.332278" lon="4.555372">
<ele>0.6</ele>
<time>2026-02-13T15:56:56Z</time>
</trkpt>
<trkpt lat="52.332283" lon="4.555378">
<ele>0.7</ele>
<time>2026-02-13T15:56:56Z</time>
</trkpt>
<trkpt lat="52.332292" lon="4.555405">
<ele>0.7</ele>
<time>2026-02-13T15:56:58Z</time>
</trkpt>
<trkpt lat="52.332299" lon="4.555426">
<ele>0.7</ele>
<time>2026-02-13T15:56:59Z</time>
</trkpt>
<trkpt lat="52.332304" lon="4.555436">
<ele>0.6</ele>
<time>2026-02-13T15:56:59Z</time>
</trkpt>
<trkpt lat="52.332307" lon="4.555445">
<ele>0.8</ele>
<time>2026-02-13T15:57:00Z</time>
</trkpt>
<trkpt lat="52.332309" lon="4.555457">
<ele>0.8</ele>
<time>2026-02-13T15:57:00Z</time>
</trkpt>
<trkpt lat="52.332313" lon="4.555465">
<ele>0.9</ele>
<time>2026-02-13T15:57:01Z</time>
</trkpt>
<trkpt lat="52.332317" lon="4.555485">
<ele>0.9</ele>
<time>2026-02-13T15:57:02Z</time>
</trkpt>
<trkpt lat="52.332324" lon="4.555494">
<ele>0.6</ele>
<time>2026-02-13T15:57:02Z</time>
</trkpt>
<trkpt lat="52.332327" lon="4.555508">
<ele>0.6</ele>
<time>2026-02-13T15:57:03Z</time>
</trkpt>
<trkpt lat="52.332336" lon="4.555525">
<ele>0.7</ele>
<time>2026-02-13T15:57:04Z</time>
</trkpt>
<trkpt lat="52.332348" lon="4.555541">
<ele>0.7</ele>
<time>2026-02-13T15:57:05Z</time>
</trkpt>
<trkpt lat="52.332358" lon="4.555556">
<ele>0.7</ele>
<time>2026-02-13T15:57:06Z</time>
</trkpt>
<trkpt lat="52.332370" lon="4.555565">
<ele>0.8</ele>
<time>2026-02-13T15:57:07Z</time>
</trkpt>
<trkpt lat="52.332380" lon="4.555573">
<ele>0.9</ele>
<time>2026-02-13T15:57:07Z</time>
</trkpt>
<trkpt lat="52.332399" lon="4.555589">
<ele>0.9</ele>
<time>2026-02-13T15:57:08Z</time>
</trkpt>
<trkpt lat="52.332409" lon="4.555595">
<ele>0.9</ele>
<time>2026-02-13T15:57:09Z</time>
</trkpt>
<trkpt lat="52.332416" lon="4.555601">
<ele>0.9</ele>
<time>2026-02-13T15:57:10Z</time>
</trkpt>
<trkpt lat="52.332422" lon="4.555608">
<ele>0.9</ele>
<time>2026-02-13T15:57:10Z</time>
</trkpt>
<trkpt lat="52.332429" lon="4.555616">
<ele>0.9</ele>
<time>2026-02-13T15:57:10Z</time>
</trkpt>
<trkpt lat="52.332434" lon="4.555625">
<ele>1.0</ele>
<time>2026-02-13T15:57:11Z</time>
</trkpt>
<trkpt lat="52.332441" lon="4.555633">
<ele>1.0</ele>
<time>2026-02-13T15:57:11Z</time>
</trkpt>
<trkpt lat="52.332448" lon="4.555645">
<ele>0.8</ele>
<time>2026-02-13T15:57:12Z</time>
</trkpt>
<trkpt lat="52.332453" lon="4.555651">
<ele>0.8</ele>
<time>2026-02-13T15:57:12Z</time>
</trkpt>
<trkpt lat="52.332457" lon="4.555657">
<ele>1.0</ele>
<time>2026-02-13T15:57:13Z</time>
</trkpt>
<trkpt lat="52.332463" lon="4.555665">
<ele>1.0</ele>
<time>2026-02-13T15:57:13Z</time>
</trkpt>
<trkpt lat="52.332469" lon="4.555673">
<ele>0.8</ele>
<time>2026-02-13T15:57:14Z</time>
</trkpt>
<trkpt lat="52.332475" lon="4.555682">
<ele>0.9</ele>
<time>2026-02-13T15:57:15Z</time>
</trkpt>
<trkpt lat="52.332485" lon="4.555695">
<ele>0.9</ele>
<time>2026-02-13T15:57:15Z</time>
</trkpt>
<trkpt lat="52.332491" lon="4.555703">
<ele>0.7</ele>
<time>2026-02-13T15:57:16Z</time>
</trkpt>
<trkpt lat="52.332498" lon="4.555713">
<ele>0.7</ele>
<time>2026-02-13T15:57:17Z</time>
</trkpt>
<trkpt lat="52.332507" lon="4.555725">
<ele>0.7</ele>
<time>2026-02-13T15:57:17Z</time>
</trkpt>
<trkpt lat="52.332518" lon="4.555741">
<ele>0.6</ele>
<time>2026-02-13T15:57:18Z</time>
</trkpt>
<trkpt lat="52.332528" lon="4.555760">
<ele>0.6</ele>
<time>2026-02-13T15:57:19Z</time>
</trkpt>
<trkpt lat="52.332533" lon="4.555771">
<ele>0.6</ele>
<time>2026-02-13T15:57:20Z</time>
</trkpt>
<trkpt lat="52.332540" lon="4.555784">
<ele>0.7</ele>
<time>2026-02-13T15:57:21Z</time>
</trkpt>
<trkpt lat="52.332548" lon="4.555796">
<ele>0.7</ele>
<time>2026-02-13T15:57:21Z</time>
</trkpt>
<trkpt lat="52.332554" lon="4.555807">
<ele>0.7</ele>
<time>2026-02-13T15:57:22Z</time>
</trkpt>
<trkpt lat="52.332562" lon="4.555819">
<ele>0.7</ele>
<time>2026-02-13T15:57:23Z</time>
</trkpt>
<trkpt lat="52.332576" lon="4.555837">
<ele>0.6</ele>
<time>2026-02-13T15:57:24Z</time>
</trkpt>
<trkpt lat="52.332581" lon="4.555848">
<ele>0.6</ele>
<time>2026-02-13T15:57:24Z</time>
</trkpt>
<trkpt lat="52.332586" lon="4.555869">
<ele>0.7</ele>
<time>2026-02-13T15:57:25Z</time>
</trkpt>
<trkpt lat="52.332588" lon="4.555880">
<ele>0.6</ele>
<time>2026-02-13T15:57:26Z</time>
</trkpt>
<trkpt lat="52.332595" lon="4.555900">
<ele>0.6</ele>
<time>2026-02-13T15:57:26Z</time>
</trkpt>
<trkpt lat="52.332597" lon="4.555903">
<ele>0.6</ele>
<time>2026-02-13T15:57:27Z</time>
</trkpt>
<trkpt lat="52.332601" lon="4.555912">
<ele>0.6</ele>
<time>2026-02-13T15:57:27Z</time>
</trkpt>
<trkpt lat="52.332605" lon="4.555922">
<ele>0.5</ele>
<time>2026-02-13T15:57:28Z</time>
</trkpt>
<trkpt lat="52.332613" lon="4.555944">
<ele>0.5</ele>
<time>2026-02-13T15:57:29Z</time>
</trkpt>
<trkpt lat="52.332623" lon="4.555958">
<ele>0.8</ele>
<time>2026-02-13T15:57:30Z</time>
</trkpt>
<trkpt lat="52.332634" lon="4.555981">
<ele>0.7</ele>
<time>2026-02-13T15:57:31Z</time>
</trkpt>
<trkpt lat="52.332645" lon="4.555991">
<ele>0.8</ele>
<time>2026-02-13T15:57:32Z</time>
</trkpt>
<trkpt lat="52.332650" lon="4.556001">
<ele>0.8</ele>
<time>2026-02-13T15:57:32Z</time>
</trkpt>
<trkpt lat="52.332652" lon="4.556014">
<ele>0.8</ele>
<time>2026-02-13T15:57:33Z</time>
</trkpt>
<trkpt lat="52.332656" lon="4.556022">
<ele>0.8</ele>
<time>2026-02-13T15:57:33Z</time>
</trkpt>
<trkpt lat="52.332660" lon="4.556030">
<ele>0.8</ele>
<time>2026-02-13T15:57:34Z</time>
</trkpt>
<trkpt lat="52.332664" lon="4.556040">
<ele>0.8</ele>
<time>2026-02-13T15:57:34Z</time>
</trkpt>
<trkpt lat="52.332668" lon="4.556052">
<ele>0.8</ele>
<time>2026-02-13T15:57:35Z</time>
</trkpt>
<trkpt lat="52.332673" lon="4.556058">
<ele>1.1</ele>
<time>2026-02-13T15:57:35Z</time>
</trkpt>
<trkpt lat="52.332677" lon="4.556068">
<ele>1.1</ele>
<time>2026-02-13T15:57:36Z</time>
</trkpt>
<trkpt lat="52.332683" lon="4.556073">
<ele>1.3</ele>
<time>2026-02-13T15:57:36Z</time>
</trkpt>
<trkpt lat="52.332688" lon="4.556085">
<ele>1.3</ele>
<time>2026-02-13T15:57:37Z</time>
</trkpt>
<trkpt lat="52.332695" lon="4.556090">
<ele>1.2</ele>
<time>2026-02-13T15:57:37Z</time>
</trkpt>
<trkpt lat="52.332702" lon="4.556096">
<ele>1.1</ele>
<time>2026-02-13T15:57:38Z</time>
</trkpt>
<trkpt lat="52.332714" lon="4.556118">
<ele>1.1</ele>
<time>2026-02-13T15:57:39Z</time>
</trkpt>
<trkpt lat="52.332726" lon="4.556134">
<ele>1.2</ele>
<time>2026-02-13T15:57:40Z</time>
</trkpt>
<trkpt lat="52.332735" lon="4.556141">
<ele>1.1</ele>
<time>2026-02-13T15:57:40Z</time>
</trkpt>
<trkpt lat="52.332741" lon="4.556146">
<ele>1.0</ele>
<time>2026-02-13T15:57:41Z</time>
</trkpt>
<trkpt lat="52.332746" lon="4.556154">
<ele>1.0</ele>
<time>2026-02-13T15:57:41Z</time>
</trkpt>
<trkpt lat="52.332752" lon="4.556159">
<ele>1.1</ele>
<time>2026-02-13T15:57:42Z</time>
</trkpt>
<trkpt lat="52.332761" lon="4.556168">
<ele>0.9</ele>
<time>2026-02-13T15:57:43Z</time>
</trkpt>
<trkpt lat="52.332773" lon="4.556183">
<ele>0.9</ele>
<time>2026-02-13T15:57:44Z</time>
</trkpt>
<trkpt lat="52.332783" lon="4.556196">
<ele>0.9</ele>
<time>2026-02-13T15:57:44Z</time>
</trkpt>
<trkpt lat="52.332795" lon="4.556214">
<ele>1.0</ele>
<time>2026-02-13T15:57:46Z</time>
</trkpt>
<trkpt lat="52.332803" lon="4.556228">
<ele>1.0</ele>
<time>2026-02-13T15:57:46Z</time>
</trkpt>
<trkpt lat="52.332808" lon="4.556236">
<ele>0.7</ele>
<time>2026-02-13T15:57:47Z</time>
</trkpt>
<trkpt lat="52.332816" lon="4.556249">
<ele>0.8</ele>
<time>2026-02-13T15:57:48Z</time>
</trkpt>
<trkpt lat="52.332826" lon="4.556267">
<ele>0.7</ele>
<time>2026-02-13T15:57:49Z</time>
</trkpt>
<trkpt lat="52.332836" lon="4.556286">
<ele>0.8</ele>
<time>2026-02-13T15:57:50Z</time>
</trkpt>
<trkpt lat="52.332842" lon="4.556301">
<ele>0.8</ele>
<time>2026-02-13T15:57:50Z</time>
</trkpt>
<trkpt lat="52.332847" lon="4.556312">
<ele>0.8</ele>
<time>2026-02-13T15:57:51Z</time>
</trkpt>
<trkpt lat="52.332852" lon="4.556321">
<ele>0.8</ele>
<time>2026-02-13T15:57:51Z</time>
</trkpt>
<trkpt lat="52.332857" lon="4.556330">
<ele>0.8</ele>
<time>2026-02-13T15:57:52Z</time>
</trkpt>
<trkpt lat="52.332865" lon="4.556341">
<ele>0.8</ele>
<time>2026-02-13T15:57:52Z</time>
</trkpt>
<trkpt lat="52.332874" lon="4.556353">
<ele>0.7</ele>
<time>2026-02-13T15:57:53Z</time>
</trkpt>
<trkpt lat="52.332880" lon="4.556359">
<ele>0.8</ele>
<time>2026-02-13T15:57:54Z</time>
</trkpt>
<trkpt lat="52.332889" lon="4.556367">
<ele>0.8</ele>
<time>2026-02-13T15:57:54Z</time>
</trkpt>
<trkpt lat="52.332899" lon="4.556379">
<ele>0.7</ele>
<time>2026-02-13T15:57:55Z</time>
</trkpt>
<trkpt lat="52.332906" lon="4.556386">
<ele>0.7</ele>
<time>2026-02-13T15:57:56Z</time>
</trkpt>
<trkpt lat="52.332909" lon="4.556390">
<ele>0.6</ele>
<time>2026-02-13T15:57:56Z</time>
</trkpt>
<trkpt lat="52.332924" lon="4.556409">
<ele>0.7</ele>
<time>2026-02-13T15:57:57Z</time>
</trkpt>
<trkpt lat="52.332927" lon="4.556419">
<ele>0.9</ele>
<time>2026-02-13T15:57:58Z</time>
</trkpt>
<trkpt lat="52.332934" lon="4.556431">
<ele>0.9</ele>
<time>2026-02-13T15:57:58Z</time>
</trkpt>
<trkpt lat="52.332948" lon="4.556457">
<ele>0.9</ele>
<time>2026-02-13T15:58:00Z</time>
</trkpt>
<trkpt lat="52.332953" lon="4.556468">
<ele>0.9</ele>
<time>2026-02-13T15:58:00Z</time>
</trkpt>
<trkpt lat="52.332971" lon="4.556492">
<ele>0.8</ele>
<time>2026-02-13T15:58:02Z</time>
</trkpt>
<trkpt lat="52.332975" lon="4.556502">
<ele>0.8</ele>
<time>2026-02-13T15:58:02Z</time>
</trkpt>
<trkpt lat="52.332984" lon="4.556521">
<ele>0.9</ele>
<time>2026-02-13T15:58:03Z</time>
</trkpt>
<trkpt lat="52.332990" lon="4.556528">
<ele>0.9</ele>
<time>2026-02-13T15:58:04Z</time>
</trkpt>
<trkpt lat="52.332995" lon="4.556539">
<ele>1.2</ele>
<time>2026-02-13T15:58:04Z</time>
</trkpt>
<trkpt lat="52.332999" lon="4.556548">
<ele>1.4</ele>
<time>2026-02-13T15:58:05Z</time>
</trkpt>
<trkpt lat="52.333009" lon="4.556564">
<ele>1.4</ele>
<time>2026-02-13T15:58:05Z</time>
</trkpt>
<trkpt lat="52.333019" lon="4.556582">
<ele>1.3</ele>
<time>2026-02-13T15:58:06Z</time>
</trkpt>
<trkpt lat="52.333033" lon="4.556607">
<ele>1.1</ele>
<time>2026-02-13T15:58:08Z</time>
</trkpt>
<trkpt lat="52.333039" lon="4.556619">
<ele>1.2</ele>
<time>2026-02-13T15:58:08Z</time>
</trkpt>
<trkpt lat="52.333042" lon="4.556629">
<ele>1.1</ele>
<time>2026-02-13T15:58:09Z</time>
</trkpt>
<trkpt lat="52.333048" lon="4.556637">
<ele>1.1</ele>
<time>2026-02-13T15:58:09Z</time>
</trkpt>
<trkpt lat="52.333050" lon="4.556644">
<ele>0.9</ele>
<time>2026-02-13T15:58:10Z</time>
</trkpt>
<trkpt lat="52.333062" lon="4.556662">
<ele>0.9</ele>
<time>2026-02-13T15:58:10Z</time>
</trkpt>
<trkpt lat="52.333064" lon="4.556670">
<ele>1.1</ele>
<time>2026-02-13T15:58:11Z</time>
</trkpt>
<trkpt lat="52.333072" lon="4.556682">
<ele>0.9</ele>
<time>2026-02-13T15:58:12Z</time>
</trkpt>
<trkpt lat="52.333083" lon="4.556699">
<ele>0.8</ele>
<time>2026-02-13T15:58:13Z</time>
</trkpt>
<trkpt lat="52.333092" lon="4.556721">
<ele>1.1</ele>
<time>2026-02-13T15:58:14Z</time>
</trkpt>
<trkpt lat="52.333097" lon="4.556734">
<ele>0.7</ele>
<time>2026-02-13T15:58:14Z</time>
</trkpt>
<trkpt lat="52.333104" lon="4.556744">
<ele>0.7</ele>
<time>2026-02-13T15:58:15Z</time>
</trkpt>
<trkpt lat="52.333110" lon="4.556754">
<ele>0.5</ele>
<time>2026-02-13T15:58:16Z</time>
</trkpt>
<trkpt lat="52.333117" lon="4.556768">
<ele>0.5</ele>
<time>2026-02-13T15:58:16Z</time>
</trkpt>
<trkpt lat="52.333122" lon="4.556779">
<ele>0.6</ele>
<time>2026-02-13T15:58:17Z</time>
</trkpt>
<trkpt lat="52.333127" lon="4.556790">
<ele>0.5</ele>
<time>2026-02-13T15:58:18Z</time>
</trkpt>
<trkpt lat="52.333133" lon="4.556803">
<ele>0.5</ele>
<time>2026-02-13T15:58:18Z</time>
</trkpt>
<trkpt lat="52.333138" lon="4.556810">
<ele>0.6</ele>
<time>2026-02-13T15:58:19Z</time>
</trkpt>
<trkpt lat="52.333143" lon="4.556820">
<ele>0.6</ele>
<time>2026-02-13T15:58:19Z</time>
</trkpt>
<trkpt lat="52.333153" lon="4.556837">
<ele>0.6</ele>
<time>2026-02-13T15:58:20Z</time>
</trkpt>
<trkpt lat="52.333163" lon="4.556854">
<ele>0.7</ele>
<time>2026-02-13T15:58:21Z</time>
</trkpt>
<trkpt lat="52.333173" lon="4.556870">
<ele>0.6</ele>
<time>2026-02-13T15:58:22Z</time>
</trkpt>
<trkpt lat="52.333175" lon="4.556876">
<ele>0.6</ele>
<time>2026-02-13T15:58:22Z</time>
</trkpt>
<trkpt lat="52.333179" lon="4.556882">
<ele>0.7</ele>
<time>2026-02-13T15:58:23Z</time>
</trkpt>
<trkpt lat="52.333184" lon="4.556892">
<ele>0.7</ele>
<time>2026-02-13T15:58:23Z</time>
</trkpt>
<trkpt lat="52.333194" lon="4.556910">
<ele>0.7</ele>
<time>2026-02-13T15:58:24Z</time>
</trkpt>
<trkpt lat="52.333201" lon="4.556922">
<ele>0.6</ele>
<time>2026-02-13T15:58:25Z</time>
</trkpt>
<trkpt lat="52.333209" lon="4.556936">
<ele>0.6</ele>
<time>2026-02-13T15:58:26Z</time>
</trkpt>
<trkpt lat="52.333215" lon="4.556946">
<ele>0.6</ele>
<time>2026-02-13T15:58:26Z</time>
</trkpt>
<trkpt lat="52.333221" lon="4.556956">
<ele>0.9</ele>
<time>2026-02-13T15:58:27Z</time>
</trkpt>
<trkpt lat="52.333226" lon="4.556963">
<ele>0.9</ele>
<time>2026-02-13T15:58:27Z</time>
</trkpt>
<trkpt lat="52.333231" lon="4.556972">
<ele>0.9</ele>
<time>2026-02-13T15:58:28Z</time>
</trkpt>
<trkpt lat="52.333236" lon="4.556981">
<ele>0.8</ele>
<time>2026-02-13T15:58:28Z</time>
</trkpt>
<trkpt lat="52.333241" lon="4.556990">
<ele>0.8</ele>
<time>2026-02-13T15:58:29Z</time>
</trkpt>
<trkpt lat="52.333247" lon="4.556995">
<ele>0.5</ele>
<time>2026-02-13T15:58:29Z</time>
</trkpt>
<trkpt lat="52.333253" lon="4.557003">
<ele>0.5</ele>
<time>2026-02-13T15:58:30Z</time>
</trkpt>
<trkpt lat="52.333260" lon="4.557009">
<ele>0.5</ele>
<time>2026-02-13T15:58:30Z</time>
</trkpt>
<trkpt lat="52.333266" lon="4.557018">
<ele>0.5</ele>
<time>2026-02-13T15:58:31Z</time>
</trkpt>
<trkpt lat="52.333272" lon="4.557026">
<ele>0.5</ele>
<time>2026-02-13T15:58:31Z</time>
</trkpt>
<trkpt lat="52.333280" lon="4.557039">
<ele>0.8</ele>
<time>2026-02-13T15:58:32Z</time>
</trkpt>
<trkpt lat="52.333288" lon="4.557053">
<ele>0.9</ele>
<time>2026-02-13T15:58:33Z</time>
</trkpt>
<trkpt lat="52.333300" lon="4.557069">
<ele>0.9</ele>
<time>2026-02-13T15:58:34Z</time>
</trkpt>
<trkpt lat="52.333308" lon="4.557087">
<ele>1.0</ele>
<time>2026-02-13T15:58:34Z</time>
</trkpt>
<trkpt lat="52.333311" lon="4.557097">
<ele>0.9</ele>
<time>2026-02-13T15:58:35Z</time>
</trkpt>
<trkpt lat="52.333318" lon="4.557111">
<ele>0.9</ele>
<time>2026-02-13T15:58:36Z</time>
</trkpt>
<trkpt lat="52.333326" lon="4.557132">
<ele>0.9</ele>
<time>2026-02-13T15:58:37Z</time>
</trkpt>
<trkpt lat="52.333331" lon="4.557146">
<ele>1.0</ele>
<time>2026-02-13T15:58:38Z</time>
</trkpt>
<trkpt lat="52.333334" lon="4.557154">
<ele>1.0</ele>
<time>2026-02-13T15:58:38Z</time>
</trkpt>
<trkpt lat="52.333340" lon="4.557164">
<ele>0.9</ele>
<time>2026-02-13T15:58:39Z</time>
</trkpt>
<trkpt lat="52.333346" lon="4.557185">
<ele>1.1</ele>
<time>2026-02-13T15:58:40Z</time>
</trkpt>
<trkpt lat="52.333354" lon="4.557205">
<ele>0.9</ele>
<time>2026-02-13T15:58:41Z</time>
</trkpt>
<trkpt lat="52.333360" lon="4.557224">
<ele>0.9</ele>
<time>2026-02-13T15:58:41Z</time>
</trkpt>
<trkpt lat="52.333365" lon="4.557235">
<ele>1.1</ele>
<time>2026-02-13T15:58:42Z</time>
</trkpt>
<trkpt lat="52.333370" lon="4.557247">
<ele>1.1</ele>
<time>2026-02-13T15:58:42Z</time>
</trkpt>
<trkpt lat="52.333374" lon="4.557255">
<ele>0.7</ele>
<time>2026-02-13T15:58:43Z</time>
</trkpt>
<trkpt lat="52.333381" lon="4.557269">
<ele>0.7</ele>
<time>2026-02-13T15:58:44Z</time>
</trkpt>
<trkpt lat="52.333387" lon="4.557284">
<ele>0.7</ele>
<time>2026-02-13T15:58:44Z</time>
</trkpt>
<trkpt lat="52.333393" lon="4.557294">
<ele>0.5</ele>
<time>2026-02-13T15:58:45Z</time>
</trkpt>
<trkpt lat="52.333400" lon="4.557306">
<ele>0.6</ele>
<time>2026-02-13T15:58:46Z</time>
</trkpt>
<trkpt lat="52.333405" lon="4.557319">
<ele>0.6</ele>
<time>2026-02-13T15:58:46Z</time>
</trkpt>
<trkpt lat="52.333410" lon="4.557328">
<ele>0.3</ele>
<time>2026-02-13T15:58:47Z</time>
</trkpt>
<trkpt lat="52.333414" lon="4.557339">
<ele>0.3</ele>
<time>2026-02-13T15:58:47Z</time>
</trkpt>
<trkpt lat="52.333418" lon="4.557348">
<ele>0.4</ele>
<time>2026-02-13T15:58:48Z</time>
</trkpt>
<trkpt lat="52.333424" lon="4.557366">
<ele>0.3</ele>
<time>2026-02-13T15:58:49Z</time>
</trkpt>
<trkpt lat="52.333427" lon="4.557382">
<ele>0.3</ele>
<time>2026-02-13T15:58:49Z</time>
</trkpt>
<trkpt lat="52.333434" lon="4.557399">
<ele>0.4</ele>
<time>2026-02-13T15:58:50Z</time>
</trkpt>
<trkpt lat="52.333441" lon="4.557405">
<ele>0.3</ele>
<time>2026-02-13T15:58:51Z</time>
</trkpt>
<trkpt lat="52.333450" lon="4.557419">
<ele>0.4</ele>
<time>2026-02-13T15:58:52Z</time>
</trkpt>
<trkpt lat="52.333461" lon="4.557433">
<ele>0.5</ele>
<time>2026-02-13T15:58:53Z</time>
</trkpt>
<trkpt lat="52.333465" lon="4.557440">
<ele>0.5</ele>
<time>2026-02-13T15:58:53Z</time>
</trkpt>
<trkpt lat="52.333480" lon="4.557471">
<ele>0.5</ele>
<time>2026-02-13T15:58:55Z</time>
</trkpt>
<trkpt lat="52.333490" lon="4.557489">
<ele>0.6</ele>
<time>2026-02-13T15:58:56Z</time>
</trkpt>
<trkpt lat="52.333501" lon="4.557513">
<ele>0.9</ele>
<time>2026-02-13T15:58:57Z</time>
</trkpt>
<trkpt lat="52.333512" lon="4.557532">
<ele>0.7</ele>
<time>2026-02-13T15:58:58Z</time>
</trkpt>
<trkpt lat="52.333521" lon="4.557543">
<ele>0.7</ele>
<time>2026-02-13T15:58:58Z</time>
</trkpt>
<trkpt lat="52.333536" lon="4.557555">
<ele>0.7</ele>
<time>2026-02-13T15:58:59Z</time>
</trkpt>
<trkpt lat="52.333553" lon="4.557567">
<ele>0.7</ele>
<time>2026-02-13T15:59:00Z</time>
</trkpt>
<trkpt lat="52.333565" lon="4.557585">
<ele>0.8</ele>
<time>2026-02-13T15:59:01Z</time>
</trkpt>
<trkpt lat="52.333568" lon="4.557597">
<ele>1.4</ele>
<time>2026-02-13T15:59:02Z</time>
</trkpt>
<trkpt lat="52.333571" lon="4.557610">
<ele>1.5</ele>
<time>2026-02-13T15:59:03Z</time>
</trkpt>
<trkpt lat="52.333575" lon="4.557630">
<ele>1.5</ele>
<time>2026-02-13T15:59:03Z</time>
</trkpt>
<trkpt lat="52.333581" lon="4.557638">
<ele>1.4</ele>
<time>2026-02-13T15:59:04Z</time>
</trkpt>
<trkpt lat="52.333585" lon="4.557653">
<ele>1.2</ele>
<time>2026-02-13T15:59:05Z</time>
</trkpt>
<trkpt lat="52.333593" lon="4.557667">
<ele>1.2</ele>
<time>2026-02-13T15:59:05Z</time>
</trkpt>
<trkpt lat="52.333601" lon="4.557675">
<ele>1.3</ele>
<time>2026-02-13T15:59:06Z</time>
</trkpt>
<trkpt lat="52.333609" lon="4.557687">
<ele>1.3</ele>
<time>2026-02-13T15:59:07Z</time>
</trkpt>
<trkpt lat="52.333622" lon="4.557711">
<ele>1.3</ele>
<time>2026-02-13T15:59:07Z</time>
</trkpt>
<trkpt lat="52.333630" lon="4.557721">
<ele>1.0</ele>
<time>2026-02-13T15:59:08Z</time>
</trkpt>
<trkpt lat="52.333636" lon="4.557730">
<ele>1.1</ele>
<time>2026-02-13T15:59:09Z</time>
</trkpt>
<trkpt lat="52.333641" lon="4.557743">
<ele>0.9</ele>
<time>2026-02-13T15:59:10Z</time>
</trkpt>
<trkpt lat="52.333648" lon="4.557770">
<ele>0.9</ele>
<time>2026-02-13T15:59:11Z</time>
</trkpt>
<trkpt lat="52.333653" lon="4.557779">
<ele>1.1</ele>
<time>2026-02-13T15:59:11Z</time>
</trkpt>
<trkpt lat="52.333660" lon="4.557788">
<ele>0.9</ele>
<time>2026-02-13T15:59:12Z</time>
</trkpt>
<trkpt lat="52.333665" lon="4.557797">
<ele>0.8</ele>
<time>2026-02-13T15:59:13Z</time>
</trkpt>
<trkpt lat="52.333669" lon="4.557808">
<ele>0.8</ele>
<time>2026-02-13T15:59:13Z</time>
</trkpt>
<trkpt lat="52.333672" lon="4.557817">
<ele>0.8</ele>
<time>2026-02-13T15:59:14Z</time>
</trkpt>
<trkpt lat="52.333676" lon="4.557828">
<ele>0.8</ele>
<time>2026-02-13T15:59:14Z</time>
</trkpt>
<trkpt lat="52.333679" lon="4.557835">
<ele>0.5</ele>
<time>2026-02-13T15:59:15Z</time>
</trkpt>
<trkpt lat="52.333681" lon="4.557844">
<ele>0.5</ele>
<time>2026-02-13T15:59:16Z</time>
</trkpt>
<trkpt lat="52.333682" lon="4.557856">
<ele>0.5</ele>
<time>2026-02-13T15:59:16Z</time>
</trkpt>
<trkpt lat="52.333682" lon="4.557863">
<ele>0.5</ele>
<time>2026-02-13T15:59:17Z</time>
</trkpt>
<trkpt lat="52.333685" lon="4.557885">
<ele>0.5</ele>
<time>2026-02-13T15:59:18Z</time>
</trkpt>
<trkpt lat="52.333689" lon="4.557895">
<ele>0.7</ele>
<time>2026-02-13T15:59:19Z</time>
</trkpt>
<trkpt lat="52.333701" lon="4.557906">
<ele>0.6</ele>
<time>2026-02-13T15:59:20Z</time>
</trkpt>
<trkpt lat="52.333713" lon="4.557917">
<ele>0.5</ele>
<time>2026-02-13T15:59:21Z</time>
</trkpt>
<trkpt lat="52.333719" lon="4.557923">
<ele>0.5</ele>
<time>2026-02-13T15:59:21Z</time>
</trkpt>
<trkpt lat="52.333735" lon="4.557940">
<ele>0.7</ele>
<time>2026-02-13T15:59:23Z</time>
</trkpt>
<trkpt lat="52.333741" lon="4.557947">
<ele>0.6</ele>
<time>2026-02-13T15:59:23Z</time>
</trkpt>
<trkpt lat="52.333747" lon="4.557956">
<ele>0.6</ele>
<time>2026-02-13T15:59:24Z</time>
</trkpt>
<trkpt lat="52.333753" lon="4.557961">
<ele>0.7</ele>
<time>2026-02-13T15:59:24Z</time>
</trkpt>
<trkpt lat="52.333759" lon="4.557967">
<ele>0.7</ele>
<time>2026-02-13T15:59:25Z</time>
</trkpt>
<trkpt lat="52.333766" lon="4.557973">
<ele>1.1</ele>
<time>2026-02-13T15:59:25Z</time>
</trkpt>
<trkpt lat="52.333774" lon="4.557981">
<ele>0.8</ele>
<time>2026-02-13T15:59:26Z</time>
</trkpt>
<trkpt lat="52.333786" lon="4.557992">
<ele>0.6</ele>
<time>2026-02-13T15:59:27Z</time>
</trkpt>
<trkpt lat="52.333795" lon="4.558001">
<ele>0.5</ele>
<time>2026-02-13T15:59:28Z</time>
</trkpt>
<trkpt lat="52.333801" lon="4.558011">
<ele>0.5</ele>
<time>2026-02-13T15:59:28Z</time>
</trkpt>
<trkpt lat="52.333802" lon="4.558020">
<ele>1.0</ele>
<time>2026-02-13T15:59:29Z</time>
</trkpt>
<trkpt lat="52.333804" lon="4.558031">
<ele>1.0</ele>
<time>2026-02-13T15:59:30Z</time>
</trkpt>
<trkpt lat="52.333805" lon="4.558039">
<ele>1.0</ele>
<time>2026-02-13T15:59:30Z</time>
</trkpt>
<trkpt lat="52.333808" lon="4.558043">
<ele>1.2</ele>
<time>2026-02-13T15:59:31Z</time>
</trkpt>
<trkpt lat="52.333824" lon="4.558027">
<ele>1.2</ele>
<time>2026-02-13T15:59:33Z</time>
</trkpt>
<trkpt lat="52.333822" lon="4.558009">
<ele>1.0</ele>
<time>2026-02-13T15:59:34Z</time>
</trkpt>
<trkpt lat="52.333821" lon="4.558000">
<ele>1.1</ele>
<time>2026-02-13T15:59:35Z</time>
</trkpt>
<trkpt lat="52.333822" lon="4.557996">
<ele>1.2</ele>
<time>2026-02-13T15:59:36Z</time>
</trkpt>
<trkpt lat="52.333824" lon="4.557996">
<ele>1.1</ele>
<time>2026-02-13T15:59:37Z</time>
</trkpt>
<trkpt lat="52.333826" lon="4.557995">
<ele>1.1</ele>
<time>2026-02-13T15:59:37Z</time>
</trkpt>
<trkpt lat="52.333830" lon="4.557999">
<ele>1.1</ele>
<time>2026-02-13T15:59:38Z</time>
</trkpt>
<trkpt lat="52.333832" lon="4.558001">
<ele>1.1</ele>
<time>2026-02-13T15:59:39Z</time>
</trkpt>
<trkpt lat="52.333836" lon="4.558022">
<ele>1.0</ele>
<time>2026-02-13T15:59:39Z</time>
</trkpt>
<trkpt lat="52.333835" lon="4.558036">
<ele>1.2</ele>
<time>2026-02-13T15:59:40Z</time>
</trkpt>
<trkpt lat="52.333834" lon="4.558050">
<ele>1.2</ele>
<time>2026-02-13T15:59:40Z</time>
</trkpt>
<trkpt lat="52.333832" lon="4.558065">
<ele>1.0</ele>
<time>2026-02-13T15:59:41Z</time>
</trkpt>
<trkpt lat="52.333830" lon="4.558081">
<ele>1.0</ele>
<time>2026-02-13T15:59:41Z</time>
</trkpt>
<trkpt lat="52.333827" lon="4.558094">
<ele>1.0</ele>
<time>2026-02-13T15:59:42Z</time>
</trkpt>
<trkpt lat="52.333825" lon="4.558108">
<ele>1.0</ele>
<time>2026-02-13T15:59:42Z</time>
</trkpt>
<trkpt lat="52.333822" lon="4.558121">
<ele>1.1</ele>
<time>2026-02-13T15:59:43Z</time>
</trkpt>
<trkpt lat="52.333821" lon="4.558132">
<ele>1.1</ele>
<time>2026-02-13T15:59:43Z</time>
</trkpt>
<trkpt lat="52.333818" lon="4.558142">
<ele>1.0</ele>
<time>2026-02-13T15:59:44Z</time>
</trkpt>
<trkpt lat="52.333816" lon="4.558152">
<ele>1.0</ele>
<time>2026-02-13T15:59:44Z</time>
</trkpt>
<trkpt lat="52.333813" lon="4.558160">
<ele>0.9</ele>
<time>2026-02-13T15:59:45Z</time>
</trkpt>
<trkpt lat="52.333811" lon="4.558172">
<ele>0.9</ele>
<time>2026-02-13T15:59:45Z</time>
</trkpt>
<trkpt lat="52.333807" lon="4.558180">
<ele>0.8</ele>
<time>2026-02-13T15:59:46Z</time>
</trkpt>
<trkpt lat="52.333800" lon="4.558197">
<ele>1.0</ele>
<time>2026-02-13T15:59:47Z</time>
</trkpt>
<trkpt lat="52.333794" lon="4.558209">
<ele>1.0</ele>
<time>2026-02-13T15:59:47Z</time>
</trkpt>
<trkpt lat="52.333786" lon="4.558225">
<ele>1.0</ele>
<time>2026-02-13T15:59:48Z</time>
</trkpt>
<trkpt lat="52.333782" lon="4.558235">
<ele>0.9</ele>
<time>2026-02-13T15:59:49Z</time>
</trkpt>
<trkpt lat="52.333780" lon="4.558247">
<ele>0.9</ele>
<time>2026-02-13T15:59:49Z</time>
</trkpt>
<trkpt lat="52.333775" lon="4.558269">
<ele>0.9</ele>
<time>2026-02-13T15:59:50Z</time>
</trkpt>
<trkpt lat="52.333772" lon="4.558282">
<ele>1.3</ele>
<time>2026-02-13T15:59:51Z</time>
</trkpt>
<trkpt lat="52.333767" lon="4.558302">
<ele>1.4</ele>
<time>2026-02-13T15:59:52Z</time>
</trkpt>
<trkpt lat="52.333764" lon="4.558315">
<ele>1.4</ele>
<time>2026-02-13T15:59:52Z</time>
</trkpt>
<trkpt lat="52.333761" lon="4.558325">
<ele>1.6</ele>
<time>2026-02-13T15:59:53Z</time>
</trkpt>
<trkpt lat="52.333758" lon="4.558337">
<ele>1.6</ele>
<time>2026-02-13T15:59:53Z</time>
</trkpt>
<trkpt lat="52.333753" lon="4.558360">
<ele>1.6</ele>
<time>2026-02-13T15:59:54Z</time>
</trkpt>
<trkpt lat="52.333751" lon="4.558370">
<ele>1.5</ele>
<time>2026-02-13T15:59:55Z</time>
</trkpt>
<trkpt lat="52.333749" lon="4.558383">
<ele>1.5</ele>
<time>2026-02-13T15:59:55Z</time>
</trkpt>
<trkpt lat="52.333746" lon="4.558394">
<ele>1.2</ele>
<time>2026-02-13T15:59:56Z</time>
</trkpt>
<trkpt lat="52.333743" lon="4.558405">
<ele>1.2</ele>
<time>2026-02-13T15:59:56Z</time>
</trkpt>
<trkpt lat="52.333740" lon="4.558415">
<ele>1.1</ele>
<time>2026-02-13T15:59:57Z</time>
</trkpt>
<trkpt lat="52.333737" lon="4.558427">
<ele>1.1</ele>
<time>2026-02-13T15:59:57Z</time>
</trkpt>
<trkpt lat="52.333734" lon="4.558438">
<ele>1.3</ele>
<time>2026-02-13T15:59:58Z</time>
</trkpt>
<trkpt lat="52.333731" lon="4.558450">
<ele>1.3</ele>
<time>2026-02-13T15:59:58Z</time>
</trkpt>
<trkpt lat="52.333728" lon="4.558462">
<ele>1.3</ele>
<time>2026-02-13T15:59:59Z</time>
</trkpt>
<trkpt lat="52.333724" lon="4.558473">
<ele>1.4</ele>
<time>2026-02-13T15:59:59Z</time>
</trkpt>
<trkpt lat="52.333721" lon="4.558485">
<ele>1.4</ele>
<time>2026-02-13T16:00:00Z</time>
</trkpt>
<trkpt lat="52.333717" lon="4.558496">
<ele>1.4</ele>
<time>2026-02-13T16:00:00Z</time>
</trkpt>
<trkpt lat="52.333713" lon="4.558505">
<ele>1.3</ele>
<time>2026-02-13T16:00:01Z</time>
</trkpt>
<trkpt lat="52.333710" lon="4.558516">
<ele>1.3</ele>
<time>2026-02-13T16:00:01Z</time>
</trkpt>
<trkpt lat="52.333706" lon="4.558528">
<ele>1.3</ele>
<time>2026-02-13T16:00:02Z</time>
</trkpt>
<trkpt lat="52.333703" lon="4.558537">
<ele>1.2</ele>
<time>2026-02-13T16:00:02Z</time>
</trkpt>
<trkpt lat="52.333699" lon="4.558547">
<ele>1.0</ele>
<time>2026-02-13T16:00:03Z</time>
</trkpt>
<trkpt lat="52.333696" lon="4.558558">
<ele>1.0</ele>
<time>2026-02-13T16:00:03Z</time>
</trkpt>
<trkpt lat="52.333692" lon="4.558569">
<ele>1.2</ele>
<time>2026-02-13T16:00:04Z</time>
</trkpt>
<trkpt lat="52.333687" lon="4.558591">
<ele>1.2</ele>
<time>2026-02-13T16:00:05Z</time>
</trkpt>
<trkpt lat="52.333683" lon="4.558601">
<ele>1.1</ele>
<time>2026-02-13T16:00:05Z</time>
</trkpt>
<trkpt lat="52.333680" lon="4.558614">
<ele>1.1</ele>
<time>2026-02-13T16:00:06Z</time>
</trkpt>
<trkpt lat="52.333678" lon="4.558624">
<ele>1.2</ele>
<time>2026-02-13T16:00:06Z</time>
</trkpt>
<trkpt lat="52.333674" lon="4.558636">
<ele>1.2</ele>
<time>2026-02-13T16:00:07Z</time>
</trkpt>
<trkpt lat="52.333669" lon="4.558655">
<ele>1.1</ele>
<time>2026-02-13T16:00:08Z</time>
</trkpt>
<trkpt lat="52.333666" lon="4.558663">
<ele>1.0</ele>
<time>2026-02-13T16:00:08Z</time>
</trkpt>
<trkpt lat="52.333661" lon="4.558672">
<ele>1.0</ele>
<time>2026-02-13T16:00:08Z</time>
</trkpt>
<trkpt lat="52.333658" lon="4.558680">
<ele>1.2</ele>
<time>2026-02-13T16:00:09Z</time>
</trkpt>
<trkpt lat="52.333654" lon="4.558690">
<ele>1.2</ele>
<time>2026-02-13T16:00:09Z</time>
</trkpt>
<trkpt lat="52.333652" lon="4.558700">
<ele>1.4</ele>
<time>2026-02-13T16:00:10Z</time>
</trkpt>
<trkpt lat="52.333648" lon="4.558711">
<ele>1.4</ele>
<time>2026-02-13T16:00:10Z</time>
</trkpt>
<trkpt lat="52.333647" lon="4.558721">
<ele>1.0</ele>
<time>2026-02-13T16:00:11Z</time>
</trkpt>
<trkpt lat="52.333643" lon="4.558733">
<ele>1.0</ele>
<time>2026-02-13T16:00:11Z</time>
</trkpt>
<trkpt lat="52.333642" lon="4.558745">
<ele>1.4</ele>
<time>2026-02-13T16:00:12Z</time>
</trkpt>
<trkpt lat="52.333639" lon="4.558756">
<ele>1.4</ele>
<time>2026-02-13T16:00:12Z</time>
</trkpt>
<trkpt lat="52.333638" lon="4.558768">
<ele>1.1</ele>
<time>2026-02-13T16:00:13Z</time>
</trkpt>
<trkpt lat="52.333634" lon="4.558782">
<ele>1.1</ele>
<time>2026-02-13T16:00:13Z</time>
</trkpt>
<trkpt lat="52.333631" lon="4.558805">
<ele>0.8</ele>
<time>2026-02-13T16:00:14Z</time>
</trkpt>
<trkpt lat="52.333630" lon="4.558818">
<ele>0.9</ele>
<time>2026-02-13T16:00:15Z</time>
</trkpt>
<trkpt lat="52.333627" lon="4.558832">
<ele>0.9</ele>
<time>2026-02-13T16:00:16Z</time>
</trkpt>
<trkpt lat="52.333623" lon="4.558853">
<ele>0.9</ele>
<time>2026-02-13T16:00:16Z</time>
</trkpt>
<trkpt lat="52.333622" lon="4.558864">
<ele>0.8</ele>
<time>2026-02-13T16:00:17Z</time>
</trkpt>
<trkpt lat="52.333619" lon="4.558876">
<ele>0.8</ele>
<time>2026-02-13T16:00:17Z</time>
</trkpt>
<trkpt lat="52.333617" lon="4.558887">
<ele>0.8</ele>
<time>2026-02-13T16:00:18Z</time>
</trkpt>
<trkpt lat="52.333614" lon="4.558899">
<ele>0.8</ele>
<time>2026-02-13T16:00:18Z</time>
</trkpt>
<trkpt lat="52.333613" lon="4.558911">
<ele>0.9</ele>
<time>2026-02-13T16:00:19Z</time>
</trkpt>
<trkpt lat="52.333611" lon="4.558927">
<ele>1.1</ele>
<time>2026-02-13T16:00:20Z</time>
</trkpt>
<trkpt lat="52.333608" lon="4.558948">
<ele>1.1</ele>
<time>2026-02-13T16:00:20Z</time>
</trkpt>
<trkpt lat="52.333603" lon="4.558971">
<ele>1.3</ele>
<time>2026-02-13T16:00:21Z</time>
</trkpt>
<trkpt lat="52.333598" lon="4.558996">
<ele>1.7</ele>
<time>2026-02-13T16:00:22Z</time>
</trkpt>
<trkpt lat="52.333593" lon="4.559017">
<ele>1.7</ele>
<time>2026-02-13T16:00:23Z</time>
</trkpt>
<trkpt lat="52.333590" lon="4.559029">
<ele>1.7</ele>
<time>2026-02-13T16:00:24Z</time>
</trkpt>
<trkpt lat="52.333586" lon="4.559040">
<ele>1.7</ele>
<time>2026-02-13T16:00:24Z</time>
</trkpt>
<trkpt lat="52.333583" lon="4.559050">
<ele>1.7</ele>
<time>2026-02-13T16:00:25Z</time>
</trkpt>
<trkpt lat="52.333579" lon="4.559062">
<ele>1.7</ele>
<time>2026-02-13T16:00:25Z</time>
</trkpt>
<trkpt lat="52.333576" lon="4.559072">
<ele>2.0</ele>
<time>2026-02-13T16:00:26Z</time>
</trkpt>
<trkpt lat="52.333572" lon="4.559083">
<ele>2.0</ele>
<time>2026-02-13T16:00:26Z</time>
</trkpt>
<trkpt lat="52.333568" lon="4.559093">
<ele>2.1</ele>
<time>2026-02-13T16:00:27Z</time>
</trkpt>
<trkpt lat="52.333565" lon="4.559104">
<ele>2.1</ele>
<time>2026-02-13T16:00:27Z</time>
</trkpt>
<trkpt lat="52.333563" lon="4.559115">
<ele>1.9</ele>
<time>2026-02-13T16:00:28Z</time>
</trkpt>
<trkpt lat="52.333559" lon="4.559131">
<ele>1.9</ele>
<time>2026-02-13T16:00:29Z</time>
</trkpt>
<trkpt lat="52.333554" lon="4.559154">
<ele>2.0</ele>
<time>2026-02-13T16:00:30Z</time>
</trkpt>
<trkpt lat="52.333546" lon="4.559178">
<ele>2.0</ele>
<time>2026-02-13T16:00:31Z</time>
</trkpt>
<trkpt lat="52.333538" lon="4.559197">
<ele>1.9</ele>
<time>2026-02-13T16:00:32Z</time>
</trkpt>
<trkpt lat="52.333529" lon="4.559218">
<ele>1.6</ele>
<time>2026-02-13T16:00:33Z</time>
</trkpt>
<trkpt lat="52.333522" lon="4.559236">
<ele>1.6</ele>
<time>2026-02-13T16:00:33Z</time>
</trkpt>
<trkpt lat="52.333513" lon="4.559256">
<ele>2.1</ele>
<time>2026-02-13T16:00:35Z</time>
</trkpt>
<trkpt lat="52.333505" lon="4.559273">
<ele>2.1</ele>
<time>2026-02-13T16:00:35Z</time>
</trkpt>
<trkpt lat="52.333501" lon="4.559283">
<ele>1.7</ele>
<time>2026-02-13T16:00:36Z</time>
</trkpt>
<trkpt lat="52.333496" lon="4.559298">
<ele>1.7</ele>
<time>2026-02-13T16:00:37Z</time>
</trkpt>
<trkpt lat="52.333490" lon="4.559318">
<ele>1.3</ele>
<time>2026-02-13T16:00:37Z</time>
</trkpt>
<trkpt lat="52.333487" lon="4.559329">
<ele>1.5</ele>
<time>2026-02-13T16:00:38Z</time>
</trkpt>
<trkpt lat="52.333483" lon="4.559342">
<ele>1.5</ele>
<time>2026-02-13T16:00:38Z</time>
</trkpt>
<trkpt lat="52.333478" lon="4.559363">
<ele>1.4</ele>
<time>2026-02-13T16:00:39Z</time>
</trkpt>
<trkpt lat="52.333476" lon="4.559375">
<ele>1.3</ele>
<time>2026-02-13T16:00:40Z</time>
</trkpt>
<trkpt lat="52.333473" lon="4.559387">
<ele>1.3</ele>
<time>2026-02-13T16:00:40Z</time>
</trkpt>
<trkpt lat="52.333471" lon="4.559397">
<ele>1.3</ele>
<time>2026-02-13T16:00:41Z</time>
</trkpt>
<trkpt lat="52.333467" lon="4.559414">
<ele>0.9</ele>
<time>2026-02-13T16:00:42Z</time>
</trkpt>
<trkpt lat="52.333461" lon="4.559433">
<ele>0.9</ele>
<time>2026-02-13T16:00:42Z</time>
</trkpt>
<trkpt lat="52.333454" lon="4.559454">
<ele>1.0</ele>
<time>2026-02-13T16:00:43Z</time>
</trkpt>
<trkpt lat="52.333445" lon="4.559474">
<ele>0.7</ele>
<time>2026-02-13T16:00:45Z</time>
</trkpt>
<trkpt lat="52.333438" lon="4.559492">
<ele>0.7</ele>
<time>2026-02-13T16:00:46Z</time>
</trkpt>
<trkpt lat="52.333432" lon="4.559509">
<ele>0.7</ele>
<time>2026-02-13T16:00:47Z</time>
</trkpt>
<trkpt lat="52.333431" lon="4.559518">
<ele>0.7</ele>
<time>2026-02-13T16:00:47Z</time>
</trkpt>
<trkpt lat="52.333428" lon="4.559530">
<ele>0.7</ele>
<time>2026-02-13T16:00:48Z</time>
</trkpt>
<trkpt lat="52.333426" lon="4.559539">
<ele>0.6</ele>
<time>2026-02-13T16:00:48Z</time>
</trkpt>
<trkpt lat="52.333423" lon="4.559550">
<ele>0.7</ele>
<time>2026-02-13T16:00:49Z</time>
</trkpt>
<trkpt lat="52.333418" lon="4.559569">
<ele>1.0</ele>
<time>2026-02-13T16:00:50Z</time>
</trkpt>
<trkpt lat="52.333414" lon="4.559588">
<ele>1.0</ele>
<time>2026-02-13T16:00:50Z</time>
</trkpt>
<trkpt lat="52.333413" lon="4.559599">
<ele>1.1</ele>
<time>2026-02-13T16:00:51Z</time>
</trkpt>
<trkpt lat="52.333411" lon="4.559613">
<ele>1.1</ele>
<time>2026-02-13T16:00:52Z</time>
</trkpt>
<trkpt lat="52.333411" lon="4.559638">
<ele>1.1</ele>
<time>2026-02-13T16:00:53Z</time>
</trkpt>
<trkpt lat="52.333409" lon="4.559663">
<ele>1.1</ele>
<time>2026-02-13T16:00:54Z</time>
</trkpt>
<trkpt lat="52.333409" lon="4.559672">
<ele>1.2</ele>
<time>2026-02-13T16:00:54Z</time>
</trkpt>
<trkpt lat="52.333407" lon="4.559683">
<ele>1.2</ele>
<time>2026-02-13T16:00:55Z</time>
</trkpt>
<trkpt lat="52.333406" lon="4.559694">
<ele>1.3</ele>
<time>2026-02-13T16:00:55Z</time>
</trkpt>
<trkpt lat="52.333403" lon="4.559705">
<ele>1.4</ele>
<time>2026-02-13T16:00:56Z</time>
</trkpt>
<trkpt lat="52.333397" lon="4.559727">
<ele>1.5</ele>
<time>2026-02-13T16:00:57Z</time>
</trkpt>
<trkpt lat="52.333392" lon="4.559746">
<ele>1.3</ele>
<time>2026-02-13T16:00:58Z</time>
</trkpt>
<trkpt lat="52.333386" lon="4.559764">
<ele>1.6</ele>
<time>2026-02-13T16:00:59Z</time>
</trkpt>
<trkpt lat="52.333378" lon="4.559781">
<ele>1.6</ele>
<time>2026-02-13T16:01:00Z</time>
</trkpt>
<trkpt lat="52.333373" lon="4.559786">
<ele>1.7</ele>
<time>2026-02-13T16:01:00Z</time>
</trkpt>
<trkpt lat="52.333367" lon="4.559794">
<ele>1.7</ele>
<time>2026-02-13T16:01:00Z</time>
</trkpt>
<trkpt lat="52.333361" lon="4.559799">
<ele>2.0</ele>
<time>2026-02-13T16:01:01Z</time>
</trkpt>
<trkpt lat="52.333355" lon="4.559806">
<ele>2.0</ele>
<time>2026-02-13T16:01:01Z</time>
</trkpt>
<trkpt lat="52.333350" lon="4.559813">
<ele>2.3</ele>
<time>2026-02-13T16:01:02Z</time>
</trkpt>
<trkpt lat="52.333345" lon="4.559821">
<ele>2.3</ele>
<time>2026-02-13T16:01:02Z</time>
</trkpt>
<trkpt lat="52.333340" lon="4.559830">
<ele>2.1</ele>
<time>2026-02-13T16:01:03Z</time>
</trkpt>
<trkpt lat="52.333335" lon="4.559840">
<ele>2.1</ele>
<time>2026-02-13T16:01:03Z</time>
</trkpt>
<trkpt lat="52.333325" lon="4.559855">
<ele>2.8</ele>
<time>2026-02-13T16:01:04Z</time>
</trkpt>
<trkpt lat="52.333320" lon="4.559863">
<ele>2.9</ele>
<time>2026-02-13T16:01:05Z</time>
</trkpt>
<trkpt lat="52.333314" lon="4.559870">
<ele>2.9</ele>
<time>2026-02-13T16:01:05Z</time>
</trkpt>
<trkpt lat="52.333308" lon="4.559878">
<ele>2.6</ele>
<time>2026-02-13T16:01:06Z</time>
</trkpt>
<trkpt lat="52.333302" lon="4.559886">
<ele>2.6</ele>
<time>2026-02-13T16:01:06Z</time>
</trkpt>
<trkpt lat="52.333298" lon="4.559895">
<ele>2.7</ele>
<time>2026-02-13T16:01:07Z</time>
</trkpt>
<trkpt lat="52.333294" lon="4.559904">
<ele>2.7</ele>
<time>2026-02-13T16:01:07Z</time>
</trkpt>
<trkpt lat="52.333290" lon="4.559913">
<ele>2.7</ele>
<time>2026-02-13T16:01:08Z</time>
</trkpt>
<trkpt lat="52.333284" lon="4.559921">
<ele>2.7</ele>
<time>2026-02-13T16:01:08Z</time>
</trkpt>
<trkpt lat="52.333281" lon="4.559931">
<ele>2.7</ele>
<time>2026-02-13T16:01:09Z</time>
</trkpt>
<trkpt lat="52.333276" lon="4.559940">
<ele>2.7</ele>
<time>2026-02-13T16:01:09Z</time>
</trkpt>
<trkpt lat="52.333271" lon="4.559949">
<ele>2.9</ele>
<time>2026-02-13T16:01:10Z</time>
</trkpt>
<trkpt lat="52.333266" lon="4.559958">
<ele>2.9</ele>
<time>2026-02-13T16:01:10Z</time>
</trkpt>
<trkpt lat="52.333263" lon="4.559967">
<ele>2.9</ele>
<time>2026-02-13T16:01:11Z</time>
</trkpt>
<trkpt lat="52.333258" lon="4.559976">
<ele>2.9</ele>
<time>2026-02-13T16:01:11Z</time>
</trkpt>
<trkpt lat="52.333253" lon="4.559984">
<ele>2.7</ele>
<time>2026-02-13T16:01:12Z</time>
</trkpt>
<trkpt lat="52.333248" lon="4.559992">
<ele>2.7</ele>
<time>2026-02-13T16:01:12Z</time>
</trkpt>
<trkpt lat="52.333243" lon="4.560000">
<ele>2.7</ele>
<time>2026-02-13T16:01:13Z</time>
</trkpt>
<trkpt lat="52.333238" lon="4.560008">
<ele>2.7</ele>
<time>2026-02-13T16:01:13Z</time>
</trkpt>
<trkpt lat="52.333233" lon="4.560015">
<ele>2.8</ele>
<time>2026-02-13T16:01:14Z</time>
</trkpt>
<trkpt lat="52.333227" lon="4.560024">
<ele>2.8</ele>
<time>2026-02-13T16:01:14Z</time>
</trkpt>
<trkpt lat="52.333222" lon="4.560031">
<ele>2.8</ele>
<time>2026-02-13T16:01:15Z</time>
</trkpt>
<trkpt lat="52.333217" lon="4.560039">
<ele>2.8</ele>
<time>2026-02-13T16:01:15Z</time>
</trkpt>
<trkpt lat="52.333212" lon="4.560046">
<ele>3.0</ele>
<time>2026-02-13T16:01:16Z</time>
</trkpt>
<trkpt lat="52.333207" lon="4.560055">
<ele>3.0</ele>
<time>2026-02-13T16:01:16Z</time>
</trkpt>
<trkpt lat="52.333202" lon="4.560062">
<ele>3.0</ele>
<time>2026-02-13T16:01:17Z</time>
</trkpt>
<trkpt lat="52.333196" lon="4.560070">
<ele>3.0</ele>
<time>2026-02-13T16:01:17Z</time>
</trkpt>
<trkpt lat="52.333190" lon="4.560079">
<ele>3.0</ele>
<time>2026-02-13T16:01:18Z</time>
</trkpt>
<trkpt lat="52.333185" lon="4.560085">
<ele>3.4</ele>
<time>2026-02-13T16:01:18Z</time>
</trkpt>
<trkpt lat="52.333179" lon="4.560093">
<ele>3.4</ele>
<time>2026-02-13T16:01:19Z</time>
</trkpt>
<trkpt lat="52.333174" lon="4.560101">
<ele>3.5</ele>
<time>2026-02-13T16:01:19Z</time>
</trkpt>
<trkpt lat="52.333168" lon="4.560109">
<ele>3.5</ele>
<time>2026-02-13T16:01:20Z</time>
</trkpt>
<trkpt lat="52.333163" lon="4.560117">
<ele>3.7</ele>
<time>2026-02-13T16:01:20Z</time>
</trkpt>
<trkpt lat="52.333158" lon="4.560125">
<ele>3.7</ele>
<time>2026-02-13T16:01:21Z</time>
</trkpt>
<trkpt lat="52.333153" lon="4.560133">
<ele>3.8</ele>
<time>2026-02-13T16:01:21Z</time>
</trkpt>
<trkpt lat="52.333148" lon="4.560141">
<ele>3.8</ele>
<time>2026-02-13T16:01:21Z</time>
</trkpt>
<trkpt lat="52.333142" lon="4.560148">
<ele>4.1</ele>
<time>2026-02-13T16:01:22Z</time>
</trkpt>
<trkpt lat="52.333136" lon="4.560156">
<ele>4.1</ele>
<time>2026-02-13T16:01:22Z</time>
</trkpt>
<trkpt lat="52.333131" lon="4.560162">
<ele>4.2</ele>
<time>2026-02-13T16:01:23Z</time>
</trkpt>
<trkpt lat="52.333125" lon="4.560171">
<ele>4.2</ele>
<time>2026-02-13T16:01:23Z</time>
</trkpt>
<trkpt lat="52.333120" lon="4.560177">
<ele>4.2</ele>
<time>2026-02-13T16:01:24Z</time>
</trkpt>
<trkpt lat="52.333114" lon="4.560184">
<ele>4.2</ele>
<time>2026-02-13T16:01:24Z</time>
</trkpt>
<trkpt lat="52.333109" lon="4.560190">
<ele>4.3</ele>
<time>2026-02-13T16:01:25Z</time>
</trkpt>
<trkpt lat="52.333102" lon="4.560194">
<ele>4.3</ele>
<time>2026-02-13T16:01:25Z</time>
</trkpt>
<trkpt lat="52.333096" lon="4.560198">
<ele>4.4</ele>
<time>2026-02-13T16:01:26Z</time>
</trkpt>
<trkpt lat="52.333089" lon="4.560202">
<ele>4.4</ele>
<time>2026-02-13T16:01:26Z</time>
</trkpt>
<trkpt lat="52.333083" lon="4.560210">
<ele>4.2</ele>
<time>2026-02-13T16:01:27Z</time>
</trkpt>
<trkpt lat="52.333075" lon="4.560220">
<ele>4.4</ele>
<time>2026-02-13T16:01:28Z</time>
</trkpt>
<trkpt lat="52.333067" lon="4.560229">
<ele>4.4</ele>
<time>2026-02-13T16:01:28Z</time>
</trkpt>
<trkpt lat="52.333062" lon="4.560239">
<ele>4.3</ele>
<time>2026-02-13T16:01:29Z</time>
</trkpt>
<trkpt lat="52.333056" lon="4.560246">
<ele>4.3</ele>
<time>2026-02-13T16:01:29Z</time>
</trkpt>
<trkpt lat="52.333049" lon="4.560258">
<ele>4.5</ele>
<time>2026-02-13T16:01:30Z</time>
</trkpt>
<trkpt lat="52.333041" lon="4.560270">
<ele>4.6</ele>
<time>2026-02-13T16:01:31Z</time>
</trkpt>
<trkpt lat="52.333034" lon="4.560280">
<ele>4.6</ele>
<time>2026-02-13T16:01:31Z</time>
</trkpt>
<trkpt lat="52.333030" lon="4.560289">
<ele>5.0</ele>
<time>2026-02-13T16:01:32Z</time>
</trkpt>
<trkpt lat="52.333024" lon="4.560296">
<ele>5.0</ele>
<time>2026-02-13T16:01:32Z</time>
</trkpt>
<trkpt lat="52.333019" lon="4.560307">
<ele>5.0</ele>
<time>2026-02-13T16:01:33Z</time>
</trkpt>
<trkpt lat="52.333013" lon="4.560315">
<ele>5.0</ele>
<time>2026-02-13T16:01:33Z</time>
</trkpt>
<trkpt lat="52.333010" lon="4.560326">
<ele>5.0</ele>
<time>2026-02-13T16:01:34Z</time>
</trkpt>
<trkpt lat="52.333005" lon="4.560335">
<ele>5.0</ele>
<time>2026-02-13T16:01:34Z</time>
</trkpt>
<trkpt lat="52.332999" lon="4.560344">
<ele>5.0</ele>
<time>2026-02-13T16:01:35Z</time>
</trkpt>
<trkpt lat="52.332995" lon="4.560355">
<ele>4.9</ele>
<time>2026-02-13T16:01:35Z</time>
</trkpt>
<trkpt lat="52.332991" lon="4.560364">
<ele>4.9</ele>
<time>2026-02-13T16:01:36Z</time>
</trkpt>
<trkpt lat="52.332987" lon="4.560375">
<ele>4.7</ele>
<time>2026-02-13T16:01:36Z</time>
</trkpt>
<trkpt lat="52.332982" lon="4.560386">
<ele>4.7</ele>
<time>2026-02-13T16:01:37Z</time>
</trkpt>
<trkpt lat="52.332978" lon="4.560394">
<ele>5.0</ele>
<time>2026-02-13T16:01:37Z</time>
</trkpt>
<trkpt lat="52.332974" lon="4.560403">
<ele>5.0</ele>
<time>2026-02-13T16:01:38Z</time>
</trkpt>
<trkpt lat="52.332969" lon="4.560412">
<ele>5.4</ele>
<time>2026-02-13T16:01:38Z</time>
</trkpt>
<trkpt lat="52.332964" lon="4.560420">
<ele>5.4</ele>
<time>2026-02-13T16:01:38Z</time>
</trkpt>
<trkpt lat="52.332959" lon="4.560428">
<ele>5.4</ele>
<time>2026-02-13T16:01:39Z</time>
</trkpt>
<trkpt lat="52.332954" lon="4.560436">
<ele>5.4</ele>
<time>2026-02-13T16:01:39Z</time>
</trkpt>
<trkpt lat="52.332949" lon="4.560444">
<ele>5.5</ele>
<time>2026-02-13T16:01:40Z</time>
</trkpt>
<trkpt lat="52.332944" lon="4.560454">
<ele>5.5</ele>
<time>2026-02-13T16:01:40Z</time>
</trkpt>
<trkpt lat="52.332939" lon="4.560464">
<ele>5.3</ele>
<time>2026-02-13T16:01:41Z</time>
</trkpt>
<trkpt lat="52.332933" lon="4.560474">
<ele>5.3</ele>
<time>2026-02-13T16:01:41Z</time>
</trkpt>
<trkpt lat="52.332929" lon="4.560485">
<ele>5.3</ele>
<time>2026-02-13T16:01:42Z</time>
</trkpt>
<trkpt lat="52.332925" lon="4.560496">
<ele>5.3</ele>
<time>2026-02-13T16:01:42Z</time>
</trkpt>
<trkpt lat="52.332922" lon="4.560506">
<ele>5.4</ele>
<time>2026-02-13T16:01:43Z</time>
</trkpt>
<trkpt lat="52.332917" lon="4.560517">
<ele>5.4</ele>
<time>2026-02-13T16:01:43Z</time>
</trkpt>
<trkpt lat="52.332913" lon="4.560529">
<ele>5.4</ele>
<time>2026-02-13T16:01:44Z</time>
</trkpt>
<trkpt lat="52.332909" lon="4.560540">
<ele>5.4</ele>
<time>2026-02-13T16:01:44Z</time>
</trkpt>
<trkpt lat="52.332905" lon="4.560551">
<ele>5.5</ele>
<time>2026-02-13T16:01:45Z</time>
</trkpt>
<trkpt lat="52.332900" lon="4.560562">
<ele>5.5</ele>
<time>2026-02-13T16:01:45Z</time>
</trkpt>
<trkpt lat="52.332896" lon="4.560571">
<ele>5.6</ele>
<time>2026-02-13T16:01:46Z</time>
</trkpt>
<trkpt lat="52.332892" lon="4.560582">
<ele>5.6</ele>
<time>2026-02-13T16:01:46Z</time>
</trkpt>
<trkpt lat="52.332887" lon="4.560592">
<ele>5.8</ele>
<time>2026-02-13T16:01:47Z</time>
</trkpt>
<trkpt lat="52.332883" lon="4.560602">
<ele>5.8</ele>
<time>2026-02-13T16:01:47Z</time>
</trkpt>
<trkpt lat="52.332880" lon="4.560611">
<ele>5.8</ele>
<time>2026-02-13T16:01:48Z</time>
</trkpt>
<trkpt lat="52.332875" lon="4.560621">
<ele>5.8</ele>
<time>2026-02-13T16:01:48Z</time>
</trkpt>
<trkpt lat="52.332872" lon="4.560630">
<ele>6.0</ele>
<time>2026-02-13T16:01:49Z</time>
</trkpt>
<trkpt lat="52.332867" lon="4.560639">
<ele>6.0</ele>
<time>2026-02-13T16:01:49Z</time>
</trkpt>
<trkpt lat="52.332863" lon="4.560649">
<ele>6.0</ele>
<time>2026-02-13T16:01:50Z</time>
</trkpt>
<trkpt lat="52.332859" lon="4.560659">
<ele>6.0</ele>
<time>2026-02-13T16:01:50Z</time>
</trkpt>
<trkpt lat="52.332855" lon="4.560669">
<ele>6.2</ele>
<time>2026-02-13T16:01:51Z</time>
</trkpt>
<trkpt lat="52.332851" lon="4.560679">
<ele>6.2</ele>
<time>2026-02-13T16:01:51Z</time>
</trkpt>
<trkpt lat="52.332846" lon="4.560689">
<ele>6.2</ele>
<time>2026-02-13T16:01:52Z</time>
</trkpt>
<trkpt lat="52.332842" lon="4.560701">
<ele>6.2</ele>
<time>2026-02-13T16:01:52Z</time>
</trkpt>
<trkpt lat="52.332834" lon="4.560721">
<ele>6.3</ele>
<time>2026-02-13T16:01:53Z</time>
</trkpt>
<trkpt lat="52.332829" lon="4.560731">
<ele>6.3</ele>
<time>2026-02-13T16:01:54Z</time>
</trkpt>
<trkpt lat="52.332825" lon="4.560741">
<ele>6.3</ele>
<time>2026-02-13T16:01:54Z</time>
</trkpt>
<trkpt lat="52.332822" lon="4.560750">
<ele>6.3</ele>
<time>2026-02-13T16:01:55Z</time>
</trkpt>
<trkpt lat="52.332818" lon="4.560761">
<ele>6.3</ele>
<time>2026-02-13T16:01:55Z</time>
</trkpt>
<trkpt lat="52.332815" lon="4.560770">
<ele>6.1</ele>
<time>2026-02-13T16:01:56Z</time>
</trkpt>
<trkpt lat="52.332811" lon="4.560780">
<ele>6.1</ele>
<time>2026-02-13T16:01:56Z</time>
</trkpt>
<trkpt lat="52.332807" lon="4.560789">
<ele>6.3</ele>
<time>2026-02-13T16:01:57Z</time>
</trkpt>
<trkpt lat="52.332802" lon="4.560800">
<ele>6.3</ele>
<time>2026-02-13T16:01:57Z</time>
</trkpt>
<trkpt lat="52.332798" lon="4.560811">
<ele>6.8</ele>
<time>2026-02-13T16:01:58Z</time>
</trkpt>
<trkpt lat="52.332794" lon="4.560821">
<ele>6.8</ele>
<time>2026-02-13T16:01:58Z</time>
</trkpt>
<trkpt lat="52.332790" lon="4.560832">
<ele>6.8</ele>
<time>2026-02-13T16:01:59Z</time>
</trkpt>
<trkpt lat="52.332786" lon="4.560842">
<ele>7.0</ele>
<time>2026-02-13T16:01:59Z</time>
</trkpt>
<trkpt lat="52.332783" lon="4.560853">
<ele>7.0</ele>
<time>2026-02-13T16:02:00Z</time>
</trkpt>
<trkpt lat="52.332779" lon="4.560862">
<ele>6.8</ele>
<time>2026-02-13T16:02:00Z</time>
</trkpt>
<trkpt lat="52.332775" lon="4.560874">
<ele>6.8</ele>
<time>2026-02-13T16:02:01Z</time>
</trkpt>
<trkpt lat="52.332773" lon="4.560884">
<ele>7.0</ele>
<time>2026-02-13T16:02:01Z</time>
</trkpt>
<trkpt lat="52.332770" lon="4.560895">
<ele>7.0</ele>
<time>2026-02-13T16:02:02Z</time>
</trkpt>
<trkpt lat="52.332767" lon="4.560905">
<ele>7.1</ele>
<time>2026-02-13T16:02:02Z</time>
</trkpt>
<trkpt lat="52.332764" lon="4.560915">
<ele>7.1</ele>
<time>2026-02-13T16:02:03Z</time>
</trkpt>
<trkpt lat="52.332761" lon="4.560928">
<ele>6.9</ele>
<time>2026-02-13T16:02:03Z</time>
</trkpt>
<trkpt lat="52.332757" lon="4.560940">
<ele>6.9</ele>
<time>2026-02-13T16:02:04Z</time>
</trkpt>
<trkpt lat="52.332750" lon="4.560959">
<ele>6.9</ele>
<time>2026-02-13T16:02:04Z</time>
</trkpt>
<trkpt lat="52.332746" lon="4.560971">
<ele>6.5</ele>
<time>2026-02-13T16:02:05Z</time>
</trkpt>
<trkpt lat="52.332742" lon="4.560983">
<ele>6.8</ele>
<time>2026-02-13T16:02:06Z</time>
</trkpt>
<trkpt lat="52.332735" lon="4.561002">
<ele>6.8</ele>
<time>2026-02-13T16:02:06Z</time>
</trkpt>
<trkpt lat="52.332731" lon="4.561014">
<ele>7.1</ele>
<time>2026-02-13T16:02:07Z</time>
</trkpt>
<trkpt lat="52.332728" lon="4.561025">
<ele>6.9</ele>
<time>2026-02-13T16:02:08Z</time>
</trkpt>
<trkpt lat="52.332721" lon="4.561045">
<ele>6.9</ele>
<time>2026-02-13T16:02:08Z</time>
</trkpt>
<trkpt lat="52.332719" lon="4.561055">
<ele>6.8</ele>
<time>2026-02-13T16:02:09Z</time>
</trkpt>
<trkpt lat="52.332716" lon="4.561067">
<ele>6.8</ele>
<time>2026-02-13T16:02:09Z</time>
</trkpt>
<trkpt lat="52.332714" lon="4.561076">
<ele>6.8</ele>
<time>2026-02-13T16:02:10Z</time>
</trkpt>
<trkpt lat="52.332711" lon="4.561088">
<ele>6.8</ele>
<time>2026-02-13T16:02:10Z</time>
</trkpt>
<trkpt lat="52.332709" lon="4.561098">
<ele>6.8</ele>
<time>2026-02-13T16:02:11Z</time>
</trkpt>
<trkpt lat="52.332705" lon="4.561109">
<ele>6.8</ele>
<time>2026-02-13T16:02:11Z</time>
</trkpt>
<trkpt lat="52.332703" lon="4.561122">
<ele>6.9</ele>
<time>2026-02-13T16:02:12Z</time>
</trkpt>
<trkpt lat="52.332699" lon="4.561136">
<ele>7.1</ele>
<time>2026-02-13T16:02:13Z</time>
</trkpt>
<trkpt lat="52.332694" lon="4.561155">
<ele>7.1</ele>
<time>2026-02-13T16:02:13Z</time>
</trkpt>
<trkpt lat="52.332692" lon="4.561166">
<ele>6.9</ele>
<time>2026-02-13T16:02:14Z</time>
</trkpt>
<trkpt lat="52.332689" lon="4.561177">
<ele>6.9</ele>
<time>2026-02-13T16:02:14Z</time>
</trkpt>
<trkpt lat="52.332687" lon="4.561188">
<ele>6.8</ele>
<time>2026-02-13T16:02:15Z</time>
</trkpt>
<trkpt lat="52.332683" lon="4.561200">
<ele>6.8</ele>
<time>2026-02-13T16:02:15Z</time>
</trkpt>
<trkpt lat="52.332680" lon="4.561210">
<ele>6.8</ele>
<time>2026-02-13T16:02:16Z</time>
</trkpt>
<trkpt lat="52.332677" lon="4.561222">
<ele>6.8</ele>
<time>2026-02-13T16:02:16Z</time>
</trkpt>
<trkpt lat="52.332673" lon="4.561233">
<ele>6.8</ele>
<time>2026-02-13T16:02:17Z</time>
</trkpt>
<trkpt lat="52.332667" lon="4.561247">
<ele>7.0</ele>
<time>2026-02-13T16:02:18Z</time>
</trkpt>
<trkpt lat="52.332661" lon="4.561261">
<ele>7.0</ele>
<time>2026-02-13T16:02:18Z</time>
</trkpt>
<trkpt lat="52.332656" lon="4.561271">
<ele>6.7</ele>
<time>2026-02-13T16:02:19Z</time>
</trkpt>
<trkpt lat="52.332649" lon="4.561287">
<ele>6.8</ele>
<time>2026-02-13T16:02:20Z</time>
</trkpt>
<trkpt lat="52.332643" lon="4.561300">
<ele>6.8</ele>
<time>2026-02-13T16:02:20Z</time>
</trkpt>
<trkpt lat="52.332639" lon="4.561310">
<ele>6.9</ele>
<time>2026-02-13T16:02:21Z</time>
</trkpt>
<trkpt lat="52.332634" lon="4.561320">
<ele>6.9</ele>
<time>2026-02-13T16:02:21Z</time>
</trkpt>
<trkpt lat="52.332631" lon="4.561330">
<ele>6.8</ele>
<time>2026-02-13T16:02:22Z</time>
</trkpt>
<trkpt lat="52.332627" lon="4.561340">
<ele>6.8</ele>
<time>2026-02-13T16:02:22Z</time>
</trkpt>
<trkpt lat="52.332624" lon="4.561352">
<ele>6.7</ele>
<time>2026-02-13T16:02:23Z</time>
</trkpt>
<trkpt lat="52.332621" lon="4.561363">
<ele>6.7</ele>
<time>2026-02-13T16:02:23Z</time>
</trkpt>
<trkpt lat="52.332618" lon="4.561375">
<ele>6.8</ele>
<time>2026-02-13T16:02:24Z</time>
</trkpt>
<trkpt lat="52.332613" lon="4.561394">
<ele>6.6</ele>
<time>2026-02-13T16:02:25Z</time>
</trkpt>
<trkpt lat="52.332609" lon="4.561406">
<ele>6.6</ele>
<time>2026-02-13T16:02:25Z</time>
</trkpt>
<trkpt lat="52.332606" lon="4.561416">
<ele>7.1</ele>
<time>2026-02-13T16:02:26Z</time>
</trkpt>
<trkpt lat="52.332602" lon="4.561426">
<ele>7.1</ele>
<time>2026-02-13T16:02:26Z</time>
</trkpt>
<trkpt lat="52.332598" lon="4.561437">
<ele>7.2</ele>
<time>2026-02-13T16:02:27Z</time>
</trkpt>
<trkpt lat="52.332595" lon="4.561447">
<ele>7.2</ele>
<time>2026-02-13T16:02:27Z</time>
</trkpt>
<trkpt lat="52.332591" lon="4.561458">
<ele>7.2</ele>
<time>2026-02-13T16:02:28Z</time>
</trkpt>
<trkpt lat="52.332587" lon="4.561468">
<ele>7.3</ele>
<time>2026-02-13T16:02:28Z</time>
</trkpt>
<trkpt lat="52.332584" lon="4.561478">
<ele>7.3</ele>
<time>2026-02-13T16:02:29Z</time>
</trkpt>
<trkpt lat="52.332581" lon="4.561490">
<ele>7.4</ele>
<time>2026-02-13T16:02:29Z</time>
</trkpt>
<trkpt lat="52.332577" lon="4.561501">
<ele>7.4</ele>
<time>2026-02-13T16:02:30Z</time>
</trkpt>
<trkpt lat="52.332574" lon="4.561511">
<ele>7.3</ele>
<time>2026-02-13T16:02:30Z</time>
</trkpt>
<trkpt lat="52.332571" lon="4.561521">
<ele>7.3</ele>
<time>2026-02-13T16:02:30Z</time>
</trkpt>
<trkpt lat="52.332568" lon="4.561533">
<ele>7.2</ele>
<time>2026-02-13T16:02:31Z</time>
</trkpt>
<trkpt lat="52.332562" lon="4.561549">
<ele>7.2</ele>
<time>2026-02-13T16:02:32Z</time>
</trkpt>
<trkpt lat="52.332558" lon="4.561569">
<ele>7.1</ele>
<time>2026-02-13T16:02:33Z</time>
</trkpt>
<trkpt lat="52.332554" lon="4.561593">
<ele>7.0</ele>
<time>2026-02-13T16:02:34Z</time>
</trkpt>
<trkpt lat="52.332549" lon="4.561611">
<ele>7.0</ele>
<time>2026-02-13T16:02:34Z</time>
</trkpt>
<trkpt lat="52.332546" lon="4.561623">
<ele>6.8</ele>
<time>2026-02-13T16:02:35Z</time>
</trkpt>
<trkpt lat="52.332542" lon="4.561637">
<ele>7.1</ele>
<time>2026-02-13T16:02:36Z</time>
</trkpt>
<trkpt lat="52.332538" lon="4.561655">
<ele>7.1</ele>
<time>2026-02-13T16:02:36Z</time>
</trkpt>
<trkpt lat="52.332536" lon="4.561667">
<ele>6.9</ele>
<time>2026-02-13T16:02:37Z</time>
</trkpt>
<trkpt lat="52.332533" lon="4.561680">
<ele>6.9</ele>
<time>2026-02-13T16:02:37Z</time>
</trkpt>
<trkpt lat="52.332531" lon="4.561691">
<ele>6.9</ele>
<time>2026-02-13T16:02:38Z</time>
</trkpt>
<trkpt lat="52.332528" lon="4.561703">
<ele>6.9</ele>
<time>2026-02-13T16:02:38Z</time>
</trkpt>
<trkpt lat="52.332526" lon="4.561714">
<ele>6.9</ele>
<time>2026-02-13T16:02:39Z</time>
</trkpt>
<trkpt lat="52.332523" lon="4.561726">
<ele>6.9</ele>
<time>2026-02-13T16:02:39Z</time>
</trkpt>
<trkpt lat="52.332521" lon="4.561738">
<ele>6.9</ele>
<time>2026-02-13T16:02:40Z</time>
</trkpt>
<trkpt lat="52.332518" lon="4.561755">
<ele>7.2</ele>
<time>2026-02-13T16:02:41Z</time>
</trkpt>
<trkpt lat="52.332514" lon="4.561773">
<ele>7.2</ele>
<time>2026-02-13T16:02:41Z</time>
</trkpt>
<trkpt lat="52.332511" lon="4.561783">
<ele>7.3</ele>
<time>2026-02-13T16:02:42Z</time>
</trkpt>
<trkpt lat="52.332508" lon="4.561795">
<ele>7.3</ele>
<time>2026-02-13T16:02:42Z</time>
</trkpt>
<trkpt lat="52.332506" lon="4.561806">
<ele>7.3</ele>
<time>2026-02-13T16:02:43Z</time>
</trkpt>
<trkpt lat="52.332503" lon="4.561818">
<ele>7.3</ele>
<time>2026-02-13T16:02:43Z</time>
</trkpt>
<trkpt lat="52.332500" lon="4.561829">
<ele>7.1</ele>
<time>2026-02-13T16:02:44Z</time>
</trkpt>
<trkpt lat="52.332497" lon="4.561841">
<ele>7.1</ele>
<time>2026-02-13T16:02:44Z</time>
</trkpt>
<trkpt lat="52.332495" lon="4.561852">
<ele>7.4</ele>
<time>2026-02-13T16:02:45Z</time>
</trkpt>
<trkpt lat="52.332492" lon="4.561864">
<ele>7.4</ele>
<time>2026-02-13T16:02:45Z</time>
</trkpt>
<trkpt lat="52.332490" lon="4.561874">
<ele>7.4</ele>
<time>2026-02-13T16:02:46Z</time>
</trkpt>
<trkpt lat="52.332487" lon="4.561886">
<ele>7.4</ele>
<time>2026-02-13T16:02:46Z</time>
</trkpt>
<trkpt lat="52.332485" lon="4.561897">
<ele>7.5</ele>
<time>2026-02-13T16:02:47Z</time>
</trkpt>
<trkpt lat="52.332482" lon="4.561908">
<ele>7.5</ele>
<time>2026-02-13T16:02:47Z</time>
</trkpt>
<trkpt lat="52.332480" lon="4.561919">
<ele>7.4</ele>
<time>2026-02-13T16:02:48Z</time>
</trkpt>
<trkpt lat="52.332477" lon="4.561930">
<ele>7.4</ele>
<time>2026-02-13T16:02:48Z</time>
</trkpt>
<trkpt lat="52.332475" lon="4.561942">
<ele>7.5</ele>
<time>2026-02-13T16:02:49Z</time>
</trkpt>
<trkpt lat="52.332473" lon="4.561954">
<ele>7.5</ele>
<time>2026-02-13T16:02:49Z</time>
</trkpt>
<trkpt lat="52.332471" lon="4.561964">
<ele>7.6</ele>
<time>2026-02-13T16:02:50Z</time>
</trkpt>
<trkpt lat="52.332469" lon="4.561976">
<ele>7.6</ele>
<time>2026-02-13T16:02:50Z</time>
</trkpt>
<trkpt lat="52.332466" lon="4.561987">
<ele>7.6</ele>
<time>2026-02-13T16:02:51Z</time>
</trkpt>
<trkpt lat="52.332463" lon="4.562001">
<ele>7.6</ele>
<time>2026-02-13T16:02:51Z</time>
</trkpt>
<trkpt lat="52.332459" lon="4.562023">
<ele>7.6</ele>
<time>2026-02-13T16:02:52Z</time>
</trkpt>
<trkpt lat="52.332457" lon="4.562034">
<ele>7.7</ele>
<time>2026-02-13T16:02:53Z</time>
</trkpt>
<trkpt lat="52.332454" lon="4.562046">
<ele>7.7</ele>
<time>2026-02-13T16:02:53Z</time>
</trkpt>
<trkpt lat="52.332452" lon="4.562057">
<ele>8.0</ele>
<time>2026-02-13T16:02:54Z</time>
</trkpt>
<trkpt lat="52.332449" lon="4.562068">
<ele>8.0</ele>
<time>2026-02-13T16:02:54Z</time>
</trkpt>
<trkpt lat="52.332447" lon="4.562077">
<ele>8.1</ele>
<time>2026-02-13T16:02:55Z</time>
</trkpt>
<trkpt lat="52.332443" lon="4.562089">
<ele>8.1</ele>
<time>2026-02-13T16:02:55Z</time>
</trkpt>
<trkpt lat="52.332440" lon="4.562097">
<ele>8.5</ele>
<time>2026-02-13T16:02:56Z</time>
</trkpt>
<trkpt lat="52.332437" lon="4.562108">
<ele>8.5</ele>
<time>2026-02-13T16:02:56Z</time>
</trkpt>
<trkpt lat="52.332435" lon="4.562118">
<ele>8.8</ele>
<time>2026-02-13T16:02:57Z</time>
</trkpt>
<trkpt lat="52.332433" lon="4.562129">
<ele>8.8</ele>
<time>2026-02-13T16:02:57Z</time>
</trkpt>
<trkpt lat="52.332431" lon="4.562139">
<ele>8.7</ele>
<time>2026-02-13T16:02:58Z</time>
</trkpt>
<trkpt lat="52.332429" lon="4.562151">
<ele>8.7</ele>
<time>2026-02-13T16:02:58Z</time>
</trkpt>
<trkpt lat="52.332429" lon="4.562161">
<ele>8.7</ele>
<time>2026-02-13T16:02:59Z</time>
</trkpt>
<trkpt lat="52.332427" lon="4.562175">
<ele>8.7</ele>
<time>2026-02-13T16:02:59Z</time>
</trkpt>
<trkpt lat="52.332424" lon="4.562200">
<ele>8.9</ele>
<time>2026-02-13T16:03:00Z</time>
</trkpt>
<trkpt lat="52.332422" lon="4.562223">
<ele>8.8</ele>
<time>2026-02-13T16:03:01Z</time>
</trkpt>
<trkpt lat="52.332421" lon="4.562245">
<ele>8.8</ele>
<time>2026-02-13T16:03:02Z</time>
</trkpt>
<trkpt lat="52.332421" lon="4.562256">
<ele>8.7</ele>
<time>2026-02-13T16:03:03Z</time>
</trkpt>
<trkpt lat="52.332420" lon="4.562269">
<ele>8.7</ele>
<time>2026-02-13T16:03:03Z</time>
</trkpt>
<trkpt lat="52.332419" lon="4.562280">
<ele>8.8</ele>
<time>2026-02-13T16:03:04Z</time>
</trkpt>
<trkpt lat="52.332417" lon="4.562294">
<ele>8.8</ele>
<time>2026-02-13T16:03:04Z</time>
</trkpt>
<trkpt lat="52.332414" lon="4.562315">
<ele>8.9</ele>
<time>2026-02-13T16:03:05Z</time>
</trkpt>
<trkpt lat="52.332413" lon="4.562326">
<ele>8.9</ele>
<time>2026-02-13T16:03:06Z</time>
</trkpt>
<trkpt lat="52.332412" lon="4.562340">
<ele>8.9</ele>
<time>2026-02-13T16:03:06Z</time>
</trkpt>
<trkpt lat="52.332413" lon="4.562369">
<ele>8.6</ele>
<time>2026-02-13T16:03:08Z</time>
</trkpt>
<trkpt lat="52.332415" lon="4.562386">
<ele>8.6</ele>
<time>2026-02-13T16:03:08Z</time>
</trkpt>
<trkpt lat="52.332424" lon="4.562416">
<ele>8.5</ele>
<time>2026-02-13T16:03:09Z</time>
</trkpt>
<trkpt lat="52.332430" lon="4.562435">
<ele>8.8</ele>
<time>2026-02-13T16:03:10Z</time>
</trkpt>
<trkpt lat="52.332436" lon="4.562447">
<ele>8.9</ele>
<time>2026-02-13T16:03:11Z</time>
</trkpt>
<trkpt lat="52.332442" lon="4.562461">
<ele>8.9</ele>
<time>2026-02-13T16:03:12Z</time>
</trkpt>
<trkpt lat="52.332454" lon="4.562475">
<ele>8.9</ele>
<time>2026-02-13T16:03:12Z</time>
</trkpt>
<trkpt lat="52.332462" lon="4.562483">
<ele>9.1</ele>
<time>2026-02-13T16:03:13Z</time>
</trkpt>
<trkpt lat="52.332469" lon="4.562491">
<ele>9.1</ele>
<time>2026-02-13T16:03:14Z</time>
</trkpt>
<trkpt lat="52.332478" lon="4.562503">
<ele>9.1</ele>
<time>2026-02-13T16:03:14Z</time>
</trkpt>
<trkpt lat="52.332484" lon="4.562510">
<ele>8.8</ele>
<time>2026-02-13T16:03:15Z</time>
</trkpt>
<trkpt lat="52.332491" lon="4.562517">
<ele>8.9</ele>
<time>2026-02-13T16:03:16Z</time>
</trkpt>
<trkpt lat="52.332501" lon="4.562530">
<ele>8.9</ele>
<time>2026-02-13T16:03:16Z</time>
</trkpt>
<trkpt lat="52.332508" lon="4.562535">
<ele>8.9</ele>
<time>2026-02-13T16:03:17Z</time>
</trkpt>
<trkpt lat="52.332512" lon="4.562539">
<ele>9.4</ele>
<time>2026-02-13T16:03:18Z</time>
</trkpt>
<trkpt lat="52.332517" lon="4.562544">
<ele>9.4</ele>
<time>2026-02-13T16:03:18Z</time>
</trkpt>
<trkpt lat="52.332528" lon="4.562553">
<ele>9.8</ele>
<time>2026-02-13T16:03:19Z</time>
</trkpt>
<trkpt lat="52.332534" lon="4.562559">
<ele>9.8</ele>
<time>2026-02-13T16:03:20Z</time>
</trkpt>
<trkpt lat="52.332539" lon="4.562566">
<ele>9.3</ele>
<time>2026-02-13T16:03:20Z</time>
</trkpt>
<trkpt lat="52.332547" lon="4.562578">
<ele>9.4</ele>
<time>2026-02-13T16:03:21Z</time>
</trkpt>
<trkpt lat="52.332551" lon="4.562584">
<ele>9.7</ele>
<time>2026-02-13T16:03:22Z</time>
</trkpt>
<trkpt lat="52.332555" lon="4.562591">
<ele>9.7</ele>
<time>2026-02-13T16:03:22Z</time>
</trkpt>
<trkpt lat="52.332560" lon="4.562598">
<ele>10.1</ele>
<time>2026-02-13T16:03:23Z</time>
</trkpt>
<trkpt lat="52.332565" lon="4.562606">
<ele>10.1</ele>
<time>2026-02-13T16:03:23Z</time>
</trkpt>
<trkpt lat="52.332570" lon="4.562613">
<ele>10.3</ele>
<time>2026-02-13T16:03:24Z</time>
</trkpt>
<trkpt lat="52.332580" lon="4.562631">
<ele>10.3</ele>
<time>2026-02-13T16:03:25Z</time>
</trkpt>
<trkpt lat="52.332584" lon="4.562638">
<ele>10.4</ele>
<time>2026-02-13T16:03:25Z</time>
</trkpt>
<trkpt lat="52.332586" lon="4.562645">
<ele>10.6</ele>
<time>2026-02-13T16:03:26Z</time>
</trkpt>
<trkpt lat="52.332591" lon="4.562655">
<ele>10.6</ele>
<time>2026-02-13T16:03:26Z</time>
</trkpt>
<trkpt lat="52.332599" lon="4.562669">
<ele>10.7</ele>
<time>2026-02-13T16:03:27Z</time>
</trkpt>
<trkpt lat="52.332606" lon="4.562683">
<ele>10.7</ele>
<time>2026-02-13T16:03:28Z</time>
</trkpt>
<trkpt lat="52.332608" lon="4.562689">
<ele>10.7</ele>
<time>2026-02-13T16:03:29Z</time>
</trkpt>
<trkpt lat="52.332611" lon="4.562698">
<ele>10.7</ele>
<time>2026-02-13T16:03:29Z</time>
</trkpt>
<trkpt lat="52.332613" lon="4.562705">
<ele>10.7</ele>
<time>2026-02-13T16:03:30Z</time>
</trkpt>
<trkpt lat="52.332618" lon="4.562718">
<ele>10.7</ele>
<time>2026-02-13T16:03:30Z</time>
</trkpt>
<trkpt lat="52.332619" lon="4.562726">
<ele>10.6</ele>
<time>2026-02-13T16:03:31Z</time>
</trkpt>
<trkpt lat="52.332625" lon="4.562744">
<ele>10.6</ele>
<time>2026-02-13T16:03:32Z</time>
</trkpt>
<trkpt lat="52.332626" lon="4.562752">
<ele>10.8</ele>
<time>2026-02-13T16:03:32Z</time>
</trkpt>
<trkpt lat="52.332628" lon="4.562762">
<ele>10.7</ele>
<time>2026-02-13T16:03:33Z</time>
</trkpt>
<trkpt lat="52.332631" lon="4.562772">
<ele>10.7</ele>
<time>2026-02-13T16:03:33Z</time>
</trkpt>
<trkpt lat="52.332635" lon="4.562783">
<ele>10.7</ele>
<time>2026-02-13T16:03:34Z</time>
</trkpt>
<trkpt lat="52.332638" lon="4.562792">
<ele>10.9</ele>
<time>2026-02-13T16:03:34Z</time>
</trkpt>
<trkpt lat="52.332642" lon="4.562803">
<ele>10.9</ele>
<time>2026-02-13T16:03:35Z</time>
</trkpt>
<trkpt lat="52.332645" lon="4.562812">
<ele>11.1</ele>
<time>2026-02-13T16:03:35Z</time>
</trkpt>
<trkpt lat="52.332652" lon="4.562827">
<ele>11.2</ele>
<time>2026-02-13T16:03:36Z</time>
</trkpt>
<trkpt lat="52.332657" lon="4.562837">
<ele>11.2</ele>
<time>2026-02-13T16:03:37Z</time>
</trkpt>
<trkpt lat="52.332660" lon="4.562843">
<ele>11.1</ele>
<time>2026-02-13T16:03:37Z</time>
</trkpt>
<trkpt lat="52.332664" lon="4.562847">
<ele>11.2</ele>
<time>2026-02-13T16:03:38Z</time>
</trkpt>
<trkpt lat="52.332668" lon="4.562854">
<ele>11.2</ele>
<time>2026-02-13T16:03:38Z</time>
</trkpt>
<trkpt lat="52.332673" lon="4.562864">
<ele>11.2</ele>
<time>2026-02-13T16:03:39Z</time>
</trkpt>
<trkpt lat="52.332683" lon="4.562876">
<ele>11.7</ele>
<time>2026-02-13T16:03:40Z</time>
</trkpt>
<trkpt lat="52.332686" lon="4.562876">
<ele>12.1</ele>
<time>2026-02-13T16:03:41Z</time>
</trkpt>
<trkpt lat="52.332692" lon="4.562879">
<ele>12.1</ele>
<time>2026-02-13T16:03:41Z</time>
</trkpt>
<trkpt lat="52.332695" lon="4.562880">
<ele>12.3</ele>
<time>2026-02-13T16:03:42Z</time>
</trkpt>
<trkpt lat="52.332704" lon="4.562891">
<ele>12.3</ele>
<time>2026-02-13T16:03:42Z</time>
</trkpt>
<trkpt lat="52.332706" lon="4.562893">
<ele>12.5</ele>
<time>2026-02-13T16:03:43Z</time>
</trkpt>
<trkpt lat="52.332715" lon="4.562906">
<ele>12.2</ele>
<time>2026-02-13T16:03:44Z</time>
</trkpt>
<trkpt lat="52.332724" lon="4.562917">
<ele>12.6</ele>
<time>2026-02-13T16:03:45Z</time>
</trkpt>
<trkpt lat="52.332727" lon="4.562921">
<ele>12.7</ele>
<time>2026-02-13T16:03:45Z</time>
</trkpt>
<trkpt lat="52.332730" lon="4.562925">
<ele>12.5</ele>
<time>2026-02-13T16:03:46Z</time>
</trkpt>
<trkpt lat="52.332734" lon="4.562933">
<ele>12.5</ele>
<time>2026-02-13T16:03:46Z</time>
</trkpt>
<trkpt lat="52.332736" lon="4.562938">
<ele>13.1</ele>
<time>2026-02-13T16:03:47Z</time>
</trkpt>
<trkpt lat="52.332739" lon="4.562946">
<ele>13.1</ele>
<time>2026-02-13T16:03:47Z</time>
</trkpt>
<trkpt lat="52.332742" lon="4.562951">
<ele>13.4</ele>
<time>2026-02-13T16:03:48Z</time>
</trkpt>
<trkpt lat="52.332745" lon="4.562960">
<ele>13.4</ele>
<time>2026-02-13T16:03:49Z</time>
</trkpt>
<trkpt lat="52.332745" lon="4.562959">
<ele>13.5</ele>
<time>2026-02-13T16:03:49Z</time>
</trkpt>
<trkpt lat="52.332752" lon="4.562973">
<ele>13.3</ele>
<time>2026-02-13T16:03:50Z</time>
</trkpt>
<trkpt lat="52.332756" lon="4.562982">
<ele>13.0</ele>
<time>2026-02-13T16:03:51Z</time>
</trkpt>
<trkpt lat="52.332759" lon="4.562992">
<ele>13.0</ele>
<time>2026-02-13T16:03:51Z</time>
</trkpt>
<trkpt lat="52.332763" lon="4.563011">
<ele>13.4</ele>
<time>2026-02-13T16:03:52Z</time>
</trkpt>
<trkpt lat="52.332767" lon="4.563023">
<ele>13.6</ele>
<time>2026-02-13T16:03:54Z</time>
</trkpt>
<trkpt lat="52.332770" lon="4.563034">
<ele>13.6</ele>
<time>2026-02-13T16:03:54Z</time>
</trkpt>
<trkpt lat="52.332771" lon="4.563037">
<ele>13.8</ele>
<time>2026-02-13T16:03:55Z</time>
</trkpt>
<trkpt lat="52.332772" lon="4.563051">
<ele>13.8</ele>
<time>2026-02-13T16:03:55Z</time>
</trkpt>
<trkpt lat="52.332773" lon="4.563056">
<ele>14.0</ele>
<time>2026-02-13T16:03:56Z</time>
</trkpt>
<trkpt lat="52.332773" lon="4.563068">
<ele>14.0</ele>
<time>2026-02-13T16:03:56Z</time>
</trkpt>
<trkpt lat="52.332779" lon="4.563085">
<ele>13.9</ele>
<time>2026-02-13T16:03:57Z</time>
</trkpt>
<trkpt lat="52.332780" lon="4.563096">
<ele>13.9</ele>
<time>2026-02-13T16:03:58Z</time>
</trkpt>
<trkpt lat="52.332785" lon="4.563100">
<ele>13.7</ele>
<time>2026-02-13T16:03:58Z</time>
</trkpt>
<trkpt lat="52.332796" lon="4.563110">
<ele>13.7</ele>
<time>2026-02-13T16:04:00Z</time>
</trkpt>
<trkpt lat="52.332805" lon="4.563121">
<ele>13.9</ele>
<time>2026-02-13T16:04:00Z</time>
</trkpt>
<trkpt lat="52.332814" lon="4.563134">
<ele>13.7</ele>
<time>2026-02-13T16:04:02Z</time>
</trkpt>
<trkpt lat="52.332818" lon="4.563140">
<ele>13.4</ele>
<time>2026-02-13T16:04:02Z</time>
</trkpt>
<trkpt lat="52.332822" lon="4.563150">
<ele>13.4</ele>
<time>2026-02-13T16:04:03Z</time>
</trkpt>
<trkpt lat="52.332833" lon="4.563164">
<ele>13.7</ele>
<time>2026-02-13T16:04:04Z</time>
</trkpt>
<trkpt lat="52.332846" lon="4.563179">
<ele>13.6</ele>
<time>2026-02-13T16:04:05Z</time>
</trkpt>
<trkpt lat="52.332851" lon="4.563181">
<ele>13.4</ele>
<time>2026-02-13T16:04:05Z</time>
</trkpt>
<trkpt lat="52.332857" lon="4.563185">
<ele>13.1</ele>
<time>2026-02-13T16:04:06Z</time>
</trkpt>
<trkpt lat="52.332866" lon="4.563198">
<ele>12.9</ele>
<time>2026-02-13T16:04:07Z</time>
</trkpt>
<trkpt lat="52.332870" lon="4.563205">
<ele>12.9</ele>
<time>2026-02-13T16:04:07Z</time>
</trkpt>
<trkpt lat="52.332874" lon="4.563212">
<ele>13.2</ele>
<time>2026-02-13T16:04:08Z</time>
</trkpt>
<trkpt lat="52.332878" lon="4.563221">
<ele>13.2</ele>
<time>2026-02-13T16:04:08Z</time>
</trkpt>
<trkpt lat="52.332883" lon="4.563228">
<ele>13.3</ele>
<time>2026-02-13T16:04:09Z</time>
</trkpt>
<trkpt lat="52.332887" lon="4.563237">
<ele>13.3</ele>
<time>2026-02-13T16:04:09Z</time>
</trkpt>
<trkpt lat="52.332890" lon="4.563244">
<ele>13.4</ele>
<time>2026-02-13T16:04:10Z</time>
</trkpt>
<trkpt lat="52.332894" lon="4.563254">
<ele>13.4</ele>
<time>2026-02-13T16:04:10Z</time>
</trkpt>
<trkpt lat="52.332895" lon="4.563261">
<ele>13.6</ele>
<time>2026-02-13T16:04:11Z</time>
</trkpt>
<trkpt lat="52.332895" lon="4.563264">
<ele>13.6</ele>
<time>2026-02-13T16:04:11Z</time>
</trkpt>
<trkpt lat="52.332899" lon="4.563281">
<ele>13.7</ele>
<time>2026-02-13T16:04:12Z</time>
</trkpt>
<trkpt lat="52.332902" lon="4.563291">
<ele>13.7</ele>
<time>2026-02-13T16:04:12Z</time>
</trkpt>
<trkpt lat="52.332905" lon="4.563302">
<ele>13.2</ele>
<time>2026-02-13T16:04:13Z</time>
</trkpt>
<trkpt lat="52.332909" lon="4.563311">
<ele>13.7</ele>
<time>2026-02-13T16:04:14Z</time>
</trkpt>
<trkpt lat="52.332913" lon="4.563326">
<ele>13.7</ele>
<time>2026-02-13T16:04:14Z</time>
</trkpt>
<trkpt lat="52.332915" lon="4.563335">
<ele>13.7</ele>
<time>2026-02-13T16:04:15Z</time>
</trkpt>
<trkpt lat="52.332917" lon="4.563347">
<ele>13.7</ele>
<time>2026-02-13T16:04:16Z</time>
</trkpt>
<trkpt lat="52.332918" lon="4.563353">
<ele>13.9</ele>
<time>2026-02-13T16:04:16Z</time>
</trkpt>
<trkpt lat="52.332920" lon="4.563363">
<ele>13.9</ele>
<time>2026-02-13T16:04:17Z</time>
</trkpt>
<trkpt lat="52.332922" lon="4.563370">
<ele>14.4</ele>
<time>2026-02-13T16:04:17Z</time>
</trkpt>
<trkpt lat="52.332924" lon="4.563381">
<ele>14.4</ele>
<time>2026-02-13T16:04:18Z</time>
</trkpt>
<trkpt lat="52.332925" lon="4.563388">
<ele>14.3</ele>
<time>2026-02-13T16:04:18Z</time>
</trkpt>
<trkpt lat="52.332927" lon="4.563392">
<ele>14.0</ele>
<time>2026-02-13T16:04:19Z</time>
</trkpt>
<trkpt lat="52.332929" lon="4.563401">
<ele>14.0</ele>
<time>2026-02-13T16:04:19Z</time>
</trkpt>
<trkpt lat="52.332931" lon="4.563406">
<ele>13.6</ele>
<time>2026-02-13T16:04:20Z</time>
</trkpt>
<trkpt lat="52.332933" lon="4.563417">
<ele>13.6</ele>
<time>2026-02-13T16:04:20Z</time>
</trkpt>
<trkpt lat="52.332935" lon="4.563422">
<ele>13.6</ele>
<time>2026-02-13T16:04:21Z</time>
</trkpt>
<trkpt lat="52.332938" lon="4.563433">
<ele>13.6</ele>
<time>2026-02-13T16:04:21Z</time>
</trkpt>
<trkpt lat="52.332942" lon="4.563445">
<ele>13.7</ele>
<time>2026-02-13T16:04:22Z</time>
</trkpt>
<trkpt lat="52.332944" lon="4.563452">
<ele>13.4</ele>
<time>2026-02-13T16:04:23Z</time>
</trkpt>
<trkpt lat="52.332947" lon="4.563470">
<ele>13.4</ele>
<time>2026-02-13T16:04:24Z</time>
</trkpt>
<trkpt lat="52.332954" lon="4.563487">
<ele>13.0</ele>
<time>2026-02-13T16:04:25Z</time>
</trkpt>
<trkpt lat="52.332960" lon="4.563504">
<ele>12.5</ele>
<time>2026-02-13T16:04:26Z</time>
</trkpt>
<trkpt lat="52.332965" lon="4.563519">
<ele>12.5</ele>
<time>2026-02-13T16:04:26Z</time>
</trkpt>
<trkpt lat="52.332966" lon="4.563527">
<ele>12.2</ele>
<time>2026-02-13T16:04:27Z</time>
</trkpt>
<trkpt lat="52.332968" lon="4.563538">
<ele>12.2</ele>
<time>2026-02-13T16:04:27Z</time>
</trkpt>
<trkpt lat="52.332969" lon="4.563545">
<ele>11.9</ele>
<time>2026-02-13T16:04:28Z</time>
</trkpt>
<trkpt lat="52.332970" lon="4.563554">
<ele>11.9</ele>
<time>2026-02-13T16:04:28Z</time>
</trkpt>
<trkpt lat="52.332972" lon="4.563561">
<ele>11.9</ele>
<time>2026-02-13T16:04:29Z</time>
</trkpt>
<trkpt lat="52.332974" lon="4.563569">
<ele>11.9</ele>
<time>2026-02-13T16:04:30Z</time>
</trkpt>
<trkpt lat="52.332976" lon="4.563574">
<ele>11.7</ele>
<time>2026-02-13T16:04:30Z</time>
</trkpt>
<trkpt lat="52.332978" lon="4.563579">
<ele>11.4</ele>
<time>2026-02-13T16:04:31Z</time>
</trkpt>
<trkpt lat="52.332980" lon="4.563588">
<ele>11.4</ele>
<time>2026-02-13T16:04:31Z</time>
</trkpt>
<trkpt lat="52.332982" lon="4.563595">
<ele>11.5</ele>
<time>2026-02-13T16:04:32Z</time>
</trkpt>
<trkpt lat="52.332984" lon="4.563603">
<ele>11.5</ele>
<time>2026-02-13T16:04:32Z</time>
</trkpt>
<trkpt lat="52.332986" lon="4.563609">
<ele>11.5</ele>
<time>2026-02-13T16:04:33Z</time>
</trkpt>
<trkpt lat="52.332990" lon="4.563625">
<ele>11.5</ele>
<time>2026-02-13T16:04:33Z</time>
</trkpt>
<trkpt lat="52.332995" lon="4.563638">
<ele>10.7</ele>
<time>2026-02-13T16:04:35Z</time>
</trkpt>
<trkpt lat="52.332998" lon="4.563643">
<ele>10.9</ele>
<time>2026-02-13T16:04:36Z</time>
</trkpt>
<trkpt lat="52.332997" lon="4.563638">
<ele>10.3</ele>
<time>2026-02-13T16:04:37Z</time>
</trkpt>
<trkpt lat="52.332995" lon="4.563632">
<ele>10.3</ele>
<time>2026-02-13T16:04:38Z</time>
</trkpt>
<trkpt lat="52.332993" lon="4.563629">
<ele>10.3</ele>
<time>2026-02-13T16:04:38Z</time>
</trkpt>
<trkpt lat="52.332996" lon="4.563641">
<ele>10.2</ele>
<time>2026-02-13T16:04:40Z</time>
</trkpt>
<trkpt lat="52.332996" lon="4.563641">
<ele>10.2</ele>
<time>2026-02-13T16:04:40Z</time>
</trkpt>
<trkpt lat="52.332999" lon="4.563647">
<ele>10.2</ele>
<time>2026-02-13T16:04:41Z</time>
</trkpt>
<trkpt lat="52.333001" lon="4.563648">
<ele>9.9</ele>
<time>2026-02-13T16:04:42Z</time>
</trkpt>
<trkpt lat="52.333002" lon="4.563647">
<ele>10.0</ele>
<time>2026-02-13T16:04:43Z</time>
</trkpt>
<trkpt lat="52.333003" lon="4.563641">
<ele>10.1</ele>
<time>2026-02-13T16:04:44Z</time>
</trkpt>
<trkpt lat="52.333003" lon="4.563635">
<ele>10.3</ele>
<time>2026-02-13T16:04:45Z</time>
</trkpt>
<trkpt lat="52.333003" lon="4.563628">
<ele>10.4</ele>
<time>2026-02-13T16:04:46Z</time>
</trkpt>
<trkpt lat="52.333003" lon="4.563621">
<ele>10.4</ele>
<time>2026-02-13T16:04:47Z</time>
</trkpt>
<trkpt lat="52.333003" lon="4.563619">
<ele>10.4</ele>
<time>2026-02-13T16:04:47Z</time>
</trkpt>
<trkpt lat="52.333003" lon="4.563607">
<ele>10.2</ele>
<time>2026-02-13T16:04:49Z</time>
</trkpt>
<trkpt lat="52.333002" lon="4.563607">
<ele>10.2</ele>
<time>2026-02-13T16:04:49Z</time>
</trkpt>
<trkpt lat="52.333002" lon="4.563604">
<ele>9.9</ele>
<time>2026-02-13T16:04:50Z</time>
</trkpt>
<trkpt lat="52.333002" lon="4.563603">
<ele>9.9</ele>
<time>2026-02-13T16:04:50Z</time>
</trkpt>
<trkpt lat="52.333002" lon="4.563601">
<ele>10.2</ele>
<time>2026-02-13T16:04:51Z</time>
</trkpt>
<trkpt lat="52.333002" lon="4.563601">
<ele>10.2</ele>
<time>2026-02-13T16:04:52Z</time>
</trkpt>
<trkpt lat="52.333003" lon="4.563600">
<ele>10.2</ele>
<time>2026-02-13T16:04:52Z</time>
</trkpt>
<trkpt lat="52.333005" lon="4.563605">
<ele>10.3</ele>
<time>2026-02-13T16:04:53Z</time>
</trkpt>
<trkpt lat="52.333007" lon="4.563607">
<ele>10.3</ele>
<time>2026-02-13T16:04:53Z</time>
</trkpt>
<trkpt lat="52.333011" lon="4.563623">
<ele>10.2</ele>
<time>2026-02-13T16:04:54Z</time>
</trkpt>
<trkpt lat="52.333013" lon="4.563632">
<ele>10.2</ele>
<time>2026-02-13T16:04:55Z</time>
</trkpt>
<trkpt lat="52.333029" lon="4.563643">
<ele>9.9</ele>
<time>2026-02-13T16:04:55Z</time>
</trkpt>
<trkpt lat="52.333041" lon="4.563655">
<ele>9.5</ele>
<time>2026-02-13T16:04:56Z</time>
</trkpt>
<trkpt lat="52.333047" lon="4.563664">
<ele>9.5</ele>
<time>2026-02-13T16:04:56Z</time>
</trkpt>
<trkpt lat="52.333055" lon="4.563679">
<ele>8.8</ele>
<time>2026-02-13T16:04:57Z</time>
</trkpt>
<trkpt lat="52.333059" lon="4.563689">
<ele>8.8</ele>
<time>2026-02-13T16:04:57Z</time>
</trkpt>
<trkpt lat="52.333064" lon="4.563701">
<ele>7.7</ele>
<time>2026-02-13T16:04:58Z</time>
</trkpt>
<trkpt lat="52.333068" lon="4.563713">
<ele>7.7</ele>
<time>2026-02-13T16:04:58Z</time>
</trkpt>
<trkpt lat="52.333069" lon="4.563725">
<ele>7.6</ele>
<time>2026-02-13T16:04:59Z</time>
</trkpt>
<trkpt lat="52.333072" lon="4.563740">
<ele>7.5</ele>
<time>2026-02-13T16:05:00Z</time>
</trkpt>
<trkpt lat="52.333072" lon="4.563752">
<ele>7.4</ele>
<time>2026-02-13T16:05:00Z</time>
</trkpt>
<trkpt lat="52.333073" lon="4.563763">
<ele>7.4</ele>
<time>2026-02-13T16:05:01Z</time>
</trkpt>
<trkpt lat="52.333073" lon="4.563776">
<ele>7.2</ele>
<time>2026-02-13T16:05:01Z</time>
</trkpt>
<trkpt lat="52.333071" lon="4.563789">
<ele>7.0</ele>
<time>2026-02-13T16:05:02Z</time>
</trkpt>
<trkpt lat="52.333071" lon="4.563810">
<ele>7.0</ele>
<time>2026-02-13T16:05:02Z</time>
</trkpt>
<trkpt lat="52.333069" lon="4.563817">
<ele>6.8</ele>
<time>2026-02-13T16:05:03Z</time>
</trkpt>
<trkpt lat="52.333070" lon="4.563840">
<ele>6.7</ele>
<time>2026-02-13T16:05:04Z</time>
</trkpt>
<trkpt lat="52.333071" lon="4.563858">
<ele>6.8</ele>
<time>2026-02-13T16:05:05Z</time>
</trkpt>
<trkpt lat="52.333072" lon="4.563865">
<ele>6.6</ele>
<time>2026-02-13T16:05:05Z</time>
</trkpt>
<trkpt lat="52.333075" lon="4.563871">
<ele>6.4</ele>
<time>2026-02-13T16:05:06Z</time>
</trkpt>
<trkpt lat="52.333076" lon="4.563879">
<ele>6.4</ele>
<time>2026-02-13T16:05:06Z</time>
</trkpt>
<trkpt lat="52.333079" lon="4.563885">
<ele>6.1</ele>
<time>2026-02-13T16:05:07Z</time>
</trkpt>
<trkpt lat="52.333083" lon="4.563898">
<ele>5.9</ele>
<time>2026-02-13T16:05:08Z</time>
</trkpt>
<trkpt lat="52.333086" lon="4.563909">
<ele>5.9</ele>
<time>2026-02-13T16:05:08Z</time>
</trkpt>
<trkpt lat="52.333090" lon="4.563915">
<ele>5.7</ele>
<time>2026-02-13T16:05:09Z</time>
</trkpt>
<trkpt lat="52.333093" lon="4.563932">
<ele>5.7</ele>
<time>2026-02-13T16:05:09Z</time>
</trkpt>
<trkpt lat="52.333096" lon="4.563931">
<ele>5.3</ele>
<time>2026-02-13T16:05:10Z</time>
</trkpt>
<trkpt lat="52.333103" lon="4.563941">
<ele>5.1</ele>
<time>2026-02-13T16:05:11Z</time>
</trkpt>
<trkpt lat="52.333110" lon="4.563960">
<ele>4.7</ele>
<time>2026-02-13T16:05:12Z</time>
</trkpt>
<trkpt lat="52.333119" lon="4.563966">
<ele>4.6</ele>
<time>2026-02-13T16:05:13Z</time>
</trkpt>
<trkpt lat="52.333125" lon="4.563975">
<ele>4.6</ele>
<time>2026-02-13T16:05:13Z</time>
</trkpt>
<trkpt lat="52.333130" lon="4.563979">
<ele>4.5</ele>
<time>2026-02-13T16:05:14Z</time>
</trkpt>
<trkpt lat="52.333134" lon="4.563986">
<ele>4.5</ele>
<time>2026-02-13T16:05:14Z</time>
</trkpt>
<trkpt lat="52.333141" lon="4.563997">
<ele>4.3</ele>
<time>2026-02-13T16:05:15Z</time>
</trkpt>
<trkpt lat="52.333148" lon="4.564006">
<ele>4.0</ele>
<time>2026-02-13T16:05:16Z</time>
</trkpt>
<trkpt lat="52.333151" lon="4.564013">
<ele>4.0</ele>
<time>2026-02-13T16:05:16Z</time>
</trkpt>
<trkpt lat="52.333157" lon="4.564024">
<ele>3.7</ele>
<time>2026-02-13T16:05:17Z</time>
</trkpt>
<trkpt lat="52.333161" lon="4.564036">
<ele>3.4</ele>
<time>2026-02-13T16:05:18Z</time>
</trkpt>
<trkpt lat="52.333165" lon="4.564045">
<ele>3.4</ele>
<time>2026-02-13T16:05:18Z</time>
</trkpt>
<trkpt lat="52.333171" lon="4.564055">
<ele>2.7</ele>
<time>2026-02-13T16:05:19Z</time>
</trkpt>
<trkpt lat="52.333176" lon="4.564066">
<ele>2.9</ele>
<time>2026-02-13T16:05:20Z</time>
</trkpt>
<trkpt lat="52.333183" lon="4.564084">
<ele>2.9</ele>
<time>2026-02-13T16:05:20Z</time>
</trkpt>
<trkpt lat="52.333189" lon="4.564096">
<ele>2.9</ele>
<time>2026-02-13T16:05:21Z</time>
</trkpt>
<trkpt lat="52.333195" lon="4.564104">
<ele>2.8</ele>
<time>2026-02-13T16:05:22Z</time>
</trkpt>
<trkpt lat="52.333200" lon="4.564114">
<ele>2.8</ele>
<time>2026-02-13T16:05:23Z</time>
</trkpt>
<trkpt lat="52.333206" lon="4.564128">
<ele>2.8</ele>
<time>2026-02-13T16:05:23Z</time>
</trkpt>
<trkpt lat="52.333215" lon="4.564152">
<ele>2.7</ele>
<time>2026-02-13T16:05:24Z</time>
</trkpt>
<trkpt lat="52.333220" lon="4.564175">
<ele>2.4</ele>
<time>2026-02-13T16:05:26Z</time>
</trkpt>
<trkpt lat="52.333226" lon="4.564192">
<ele>2.3</ele>
<time>2026-02-13T16:05:27Z</time>
</trkpt>
<trkpt lat="52.333228" lon="4.564196">
<ele>2.5</ele>
<time>2026-02-13T16:05:27Z</time>
</trkpt>
<trkpt lat="52.333233" lon="4.564201">
<ele>2.2</ele>
<time>2026-02-13T16:05:28Z</time>
</trkpt>
<trkpt lat="52.333238" lon="4.564208">
<ele>2.2</ele>
<time>2026-02-13T16:05:28Z</time>
</trkpt>
<trkpt lat="52.333245" lon="4.564221">
<ele>2.2</ele>
<time>2026-02-13T16:05:29Z</time>
</trkpt>
<trkpt lat="52.333251" lon="4.564231">
<ele>2.3</ele>
<time>2026-02-13T16:05:30Z</time>
</trkpt>
<trkpt lat="52.333258" lon="4.564244">
<ele>2.2</ele>
<time>2026-02-13T16:05:31Z</time>
</trkpt>
<trkpt lat="52.333267" lon="4.564266">
<ele>2.2</ele>
<time>2026-02-13T16:05:31Z</time>
</trkpt>
<trkpt lat="52.333269" lon="4.564271">
<ele>2.3</ele>
<time>2026-02-13T16:05:32Z</time>
</trkpt>
<trkpt lat="52.333275" lon="4.564293">
<ele>2.4</ele>
<time>2026-02-13T16:05:33Z</time>
</trkpt>
<trkpt lat="52.333277" lon="4.564302">
<ele>2.6</ele>
<time>2026-02-13T16:05:33Z</time>
</trkpt>
<trkpt lat="52.333280" lon="4.564314">
<ele>2.6</ele>
<time>2026-02-13T16:05:34Z</time>
</trkpt>
<trkpt lat="52.333283" lon="4.564330">
<ele>2.8</ele>
<time>2026-02-13T16:05:35Z</time>
</trkpt>
<trkpt lat="52.333285" lon="4.564350">
<ele>2.8</ele>
<time>2026-02-13T16:05:35Z</time>
</trkpt>
<trkpt lat="52.333287" lon="4.564370">
<ele>2.8</ele>
<time>2026-02-13T16:05:36Z</time>
</trkpt>
<trkpt lat="52.333289" lon="4.564381">
<ele>3.3</ele>
<time>2026-02-13T16:05:37Z</time>
</trkpt>
<trkpt lat="52.333293" lon="4.564396">
<ele>3.4</ele>
<time>2026-02-13T16:05:38Z</time>
</trkpt>
<trkpt lat="52.333295" lon="4.564411">
<ele>3.4</ele>
<time>2026-02-13T16:05:38Z</time>
</trkpt>
<trkpt lat="52.333302" lon="4.564435">
<ele>3.5</ele>
<time>2026-02-13T16:05:39Z</time>
</trkpt>
<trkpt lat="52.333310" lon="4.564450">
<ele>3.7</ele>
<time>2026-02-13T16:05:40Z</time>
</trkpt>
<trkpt lat="52.333312" lon="4.564462">
<ele>3.8</ele>
<time>2026-02-13T16:05:41Z</time>
</trkpt>
<trkpt lat="52.333317" lon="4.564470">
<ele>3.8</ele>
<time>2026-02-13T16:05:41Z</time>
</trkpt>
<trkpt lat="52.333328" lon="4.564488">
<ele>4.0</ele>
<time>2026-02-13T16:05:42Z</time>
</trkpt>
<trkpt lat="52.333337" lon="4.564499">
<ele>4.0</ele>
<time>2026-02-13T16:05:43Z</time>
</trkpt>
<trkpt lat="52.333344" lon="4.564512">
<ele>4.0</ele>
<time>2026-02-13T16:05:44Z</time>
</trkpt>
<trkpt lat="52.333348" lon="4.564526">
<ele>4.0</ele>
<time>2026-02-13T16:05:44Z</time>
</trkpt>
<trkpt lat="52.333351" lon="4.564538">
<ele>4.1</ele>
<time>2026-02-13T16:05:45Z</time>
</trkpt>
<trkpt lat="52.333354" lon="4.564561">
<ele>3.9</ele>
<time>2026-02-13T16:05:46Z</time>
</trkpt>
<trkpt lat="52.333357" lon="4.564584">
<ele>3.8</ele>
<time>2026-02-13T16:05:47Z</time>
</trkpt>
<trkpt lat="52.333359" lon="4.564592">
<ele>3.8</ele>
<time>2026-02-13T16:05:47Z</time>
</trkpt>
<trkpt lat="52.333362" lon="4.564599">
<ele>3.7</ele>
<time>2026-02-13T16:05:48Z</time>
</trkpt>
<trkpt lat="52.333365" lon="4.564610">
<ele>3.7</ele>
<time>2026-02-13T16:05:48Z</time>
</trkpt>
<trkpt lat="52.333368" lon="4.564633">
<ele>3.8</ele>
<time>2026-02-13T16:05:49Z</time>
</trkpt>
<trkpt lat="52.333370" lon="4.564645">
<ele>3.8</ele>
<time>2026-02-13T16:05:50Z</time>
</trkpt>
<trkpt lat="52.333371" lon="4.564663">
<ele>3.9</ele>
<time>2026-02-13T16:05:51Z</time>
</trkpt>
<trkpt lat="52.333372" lon="4.564689">
<ele>3.9</ele>
<time>2026-02-13T16:05:51Z</time>
</trkpt>
<trkpt lat="52.333371" lon="4.564705">
<ele>4.1</ele>
<time>2026-02-13T16:05:52Z</time>
</trkpt>
<trkpt lat="52.333371" lon="4.564717">
<ele>4.2</ele>
<time>2026-02-13T16:05:53Z</time>
</trkpt>
<trkpt lat="52.333369" lon="4.564731">
<ele>4.2</ele>
<time>2026-02-13T16:05:54Z</time>
</trkpt>
<trkpt lat="52.333366" lon="4.564750">
<ele>4.2</ele>
<time>2026-02-13T16:05:54Z</time>
</trkpt>
<trkpt lat="52.333369" lon="4.564763">
<ele>4.1</ele>
<time>2026-02-13T16:05:55Z</time>
</trkpt>
<trkpt lat="52.333372" lon="4.564775">
<ele>4.3</ele>
<time>2026-02-13T16:05:56Z</time>
</trkpt>
<trkpt lat="52.333369" lon="4.564793">
<ele>4.4</ele>
<time>2026-02-13T16:05:57Z</time>
</trkpt>
<trkpt lat="52.333370" lon="4.564805">
<ele>4.2</ele>
<time>2026-02-13T16:05:57Z</time>
</trkpt>
<trkpt lat="52.333375" lon="4.564814">
<ele>4.3</ele>
<time>2026-02-13T16:05:58Z</time>
</trkpt>
<trkpt lat="52.333376" lon="4.564825">
<ele>4.3</ele>
<time>2026-02-13T16:05:58Z</time>
</trkpt>
<trkpt lat="52.333380" lon="4.564848">
<ele>4.6</ele>
<time>2026-02-13T16:05:59Z</time>
</trkpt>
<trkpt lat="52.333387" lon="4.564857">
<ele>4.4</ele>
<time>2026-02-13T16:06:00Z</time>
</trkpt>
<trkpt lat="52.333393" lon="4.564877">
<ele>4.3</ele>
<time>2026-02-13T16:06:01Z</time>
</trkpt>
<trkpt lat="52.333396" lon="4.564900">
<ele>4.3</ele>
<time>2026-02-13T16:06:01Z</time>
</trkpt>
<trkpt lat="52.333398" lon="4.564903">
<ele>4.5</ele>
<time>2026-02-13T16:06:02Z</time>
</trkpt>
<trkpt lat="52.333399" lon="4.564917">
<ele>4.5</ele>
<time>2026-02-13T16:06:02Z</time>
</trkpt>
<trkpt lat="52.333403" lon="4.564934">
<ele>4.5</ele>
<time>2026-02-13T16:06:03Z</time>
</trkpt>
<trkpt lat="52.333406" lon="4.564944">
<ele>4.5</ele>
<time>2026-02-13T16:06:04Z</time>
</trkpt>
<trkpt lat="52.333408" lon="4.564956">
<ele>4.5</ele>
<time>2026-02-13T16:06:04Z</time>
</trkpt>
<trkpt lat="52.333411" lon="4.564965">
<ele>4.4</ele>
<time>2026-02-13T16:06:05Z</time>
</trkpt>
<trkpt lat="52.333413" lon="4.564978">
<ele>4.4</ele>
<time>2026-02-13T16:06:05Z</time>
</trkpt>
<trkpt lat="52.333415" lon="4.564986">
<ele>4.7</ele>
<time>2026-02-13T16:06:06Z</time>
</trkpt>
<trkpt lat="52.333418" lon="4.565000">
<ele>4.7</ele>
<time>2026-02-13T16:06:06Z</time>
</trkpt>
<trkpt lat="52.333420" lon="4.565010">
<ele>4.9</ele>
<time>2026-02-13T16:06:07Z</time>
</trkpt>
<trkpt lat="52.333423" lon="4.565028">
<ele>5.0</ele>
<time>2026-02-13T16:06:08Z</time>
</trkpt>
<trkpt lat="52.333425" lon="4.565042">
<ele>5.0</ele>
<time>2026-02-13T16:06:08Z</time>
</trkpt>
<trkpt lat="52.333426" lon="4.565052">
<ele>5.1</ele>
<time>2026-02-13T16:06:09Z</time>
</trkpt>
<trkpt lat="52.333431" lon="4.565076">
<ele>5.3</ele>
<time>2026-02-13T16:06:10Z</time>
</trkpt>
<trkpt lat="52.333436" lon="4.565093">
<ele>5.6</ele>
<time>2026-02-13T16:06:11Z</time>
</trkpt>
<trkpt lat="52.333440" lon="4.565102">
<ele>5.6</ele>
<time>2026-02-13T16:06:11Z</time>
</trkpt>
<trkpt lat="52.333444" lon="4.565109">
<ele>5.7</ele>
<time>2026-02-13T16:06:12Z</time>
</trkpt>
<trkpt lat="52.333448" lon="4.565120">
<ele>5.7</ele>
<time>2026-02-13T16:06:12Z</time>
</trkpt>
<trkpt lat="52.333455" lon="4.565139">
<ele>5.8</ele>
<time>2026-02-13T16:06:13Z</time>
</trkpt>
<trkpt lat="52.333459" lon="4.565147">
<ele>5.9</ele>
<time>2026-02-13T16:06:14Z</time>
</trkpt>
<trkpt lat="52.333464" lon="4.565159">
<ele>5.9</ele>
<time>2026-02-13T16:06:14Z</time>
</trkpt>
<trkpt lat="52.333470" lon="4.565171">
<ele>5.8</ele>
<time>2026-02-13T16:06:15Z</time>
</trkpt>
<trkpt lat="52.333475" lon="4.565181">
<ele>5.8</ele>
<time>2026-02-13T16:06:15Z</time>
</trkpt>
<trkpt lat="52.333483" lon="4.565203">
<ele>5.9</ele>
<time>2026-02-13T16:06:16Z</time>
</trkpt>
<trkpt lat="52.333485" lon="4.565212">
<ele>5.7</ele>
<time>2026-02-13T16:06:17Z</time>
</trkpt>
<trkpt lat="52.333490" lon="4.565231">
<ele>5.7</ele>
<time>2026-02-13T16:06:18Z</time>
</trkpt>
<trkpt lat="52.333491" lon="4.565241">
<ele>5.7</ele>
<time>2026-02-13T16:06:18Z</time>
</trkpt>
<trkpt lat="52.333494" lon="4.565254">
<ele>5.7</ele>
<time>2026-02-13T16:06:19Z</time>
</trkpt>
<trkpt lat="52.333499" lon="4.565273">
<ele>5.9</ele>
<time>2026-02-13T16:06:20Z</time>
</trkpt>
<trkpt lat="52.333501" lon="4.565283">
<ele>5.9</ele>
<time>2026-02-13T16:06:21Z</time>
</trkpt>
<trkpt lat="52.333505" lon="4.565291">
<ele>5.9</ele>
<time>2026-02-13T16:06:21Z</time>
</trkpt>
<trkpt lat="52.333511" lon="4.565307">
<ele>6.0</ele>
<time>2026-02-13T16:06:22Z</time>
</trkpt>
<trkpt lat="52.333518" lon="4.565325">
<ele>6.0</ele>
<time>2026-02-13T16:06:23Z</time>
</trkpt>
<trkpt lat="52.333522" lon="4.565338">
<ele>6.0</ele>
<time>2026-02-13T16:06:24Z</time>
</trkpt>
<trkpt lat="52.333525" lon="4.565352">
<ele>6.1</ele>
<time>2026-02-13T16:06:25Z</time>
</trkpt>
<trkpt lat="52.333529" lon="4.565365">
<ele>6.1</ele>
<time>2026-02-13T16:06:25Z</time>
</trkpt>
<trkpt lat="52.333531" lon="4.565380">
<ele>6.2</ele>
<time>2026-02-13T16:06:26Z</time>
</trkpt>
<trkpt lat="52.333533" lon="4.565391">
<ele>6.2</ele>
<time>2026-02-13T16:06:26Z</time>
</trkpt>
<trkpt lat="52.333535" lon="4.565408">
<ele>6.4</ele>
<time>2026-02-13T16:06:27Z</time>
</trkpt>
<trkpt lat="52.333535" lon="4.565422">
<ele>6.5</ele>
<time>2026-02-13T16:06:28Z</time>
</trkpt>
<trkpt lat="52.333537" lon="4.565438">
<ele>6.5</ele>
<time>2026-02-13T16:06:28Z</time>
</trkpt>
<trkpt lat="52.333539" lon="4.565461">
<ele>6.1</ele>
<time>2026-02-13T16:06:29Z</time>
</trkpt>
<trkpt lat="52.333541" lon="4.565466">
<ele>6.1</ele>
<time>2026-02-13T16:06:29Z</time>
</trkpt>
<trkpt lat="52.333544" lon="4.565484">
<ele>6.3</ele>
<time>2026-02-13T16:06:30Z</time>
</trkpt>
<trkpt lat="52.333544" lon="4.565496">
<ele>6.1</ele>
<time>2026-02-13T16:06:31Z</time>
</trkpt>
<trkpt lat="52.333547" lon="4.565507">
<ele>6.1</ele>
<time>2026-02-13T16:06:31Z</time>
</trkpt>
<trkpt lat="52.333547" lon="4.565519">
<ele>6.0</ele>
<time>2026-02-13T16:06:32Z</time>
</trkpt>
<trkpt lat="52.333550" lon="4.565532">
<ele>6.1</ele>
<time>2026-02-13T16:06:33Z</time>
</trkpt>
<trkpt lat="52.333553" lon="4.565553">
<ele>6.1</ele>
<time>2026-02-13T16:06:34Z</time>
</trkpt>
<trkpt lat="52.333555" lon="4.565564">
<ele>6.1</ele>
<time>2026-02-13T16:06:34Z</time>
</trkpt>
<trkpt lat="52.333556" lon="4.565574">
<ele>6.1</ele>
<time>2026-02-13T16:06:35Z</time>
</trkpt>
<trkpt lat="52.333557" lon="4.565592">
<ele>6.1</ele>
<time>2026-02-13T16:06:35Z</time>
</trkpt>
<trkpt lat="52.333557" lon="4.565598">
<ele>5.9</ele>
<time>2026-02-13T16:06:36Z</time>
</trkpt>
<trkpt lat="52.333561" lon="4.565623">
<ele>5.9</ele>
<time>2026-02-13T16:06:36Z</time>
</trkpt>
<trkpt lat="52.333565" lon="4.565645">
<ele>6.0</ele>
<time>2026-02-13T16:06:38Z</time>
</trkpt>
<trkpt lat="52.333568" lon="4.565663">
<ele>6.1</ele>
<time>2026-02-13T16:06:39Z</time>
</trkpt>
<trkpt lat="52.333570" lon="4.565670">
<ele>6.3</ele>
<time>2026-02-13T16:06:39Z</time>
</trkpt>
<trkpt lat="52.333577" lon="4.565695">
<ele>6.4</ele>
<time>2026-02-13T16:06:41Z</time>
</trkpt>
<trkpt lat="52.333583" lon="4.565712">
<ele>6.5</ele>
<time>2026-02-13T16:06:42Z</time>
</trkpt>
<trkpt lat="52.333590" lon="4.565732">
<ele>6.5</ele>
<time>2026-02-13T16:06:43Z</time>
</trkpt>
<trkpt lat="52.333593" lon="4.565742">
<ele>6.2</ele>
<time>2026-02-13T16:06:43Z</time>
</trkpt>
<trkpt lat="52.333596" lon="4.565762">
<ele>6.4</ele>
<time>2026-02-13T16:06:44Z</time>
</trkpt>
<trkpt lat="52.333599" lon="4.565781">
<ele>6.5</ele>
<time>2026-02-13T16:06:45Z</time>
</trkpt>
<trkpt lat="52.333598" lon="4.565806">
<ele>6.5</ele>
<time>2026-02-13T16:06:46Z</time>
</trkpt>
<trkpt lat="52.333595" lon="4.565817">
<ele>6.6</ele>
<time>2026-02-13T16:06:46Z</time>
</trkpt>
<trkpt lat="52.333589" lon="4.565837">
<ele>6.6</ele>
<time>2026-02-13T16:06:47Z</time>
</trkpt>
<trkpt lat="52.333584" lon="4.565845">
<ele>6.7</ele>
<time>2026-02-13T16:06:48Z</time>
</trkpt>
<trkpt lat="52.333583" lon="4.565856">
<ele>6.7</ele>
<time>2026-02-13T16:06:48Z</time>
</trkpt>
<trkpt lat="52.333577" lon="4.565872">
<ele>6.8</ele>
<time>2026-02-13T16:06:49Z</time>
</trkpt>
<trkpt lat="52.333573" lon="4.565881">
<ele>6.8</ele>
<time>2026-02-13T16:06:50Z</time>
</trkpt>
<trkpt lat="52.333573" lon="4.565886">
<ele>6.9</ele>
<time>2026-02-13T16:06:50Z</time>
</trkpt>
<trkpt lat="52.333572" lon="4.565916">
<ele>6.8</ele>
<time>2026-02-13T16:06:51Z</time>
</trkpt>
<trkpt lat="52.333572" lon="4.565937">
<ele>7.2</ele>
<time>2026-02-13T16:06:53Z</time>
</trkpt>
<trkpt lat="52.333573" lon="4.565957">
<ele>7.5</ele>
<time>2026-02-13T16:06:53Z</time>
</trkpt>
<trkpt lat="52.333573" lon="4.565982">
<ele>7.8</ele>
<time>2026-02-13T16:06:55Z</time>
</trkpt>
<trkpt lat="52.333570" lon="4.566004">
<ele>8.2</ele>
<time>2026-02-13T16:06:56Z</time>
</trkpt>
<trkpt lat="52.333567" lon="4.566021">
<ele>8.2</ele>
<time>2026-02-13T16:06:56Z</time>
</trkpt>
<trkpt lat="52.333565" lon="4.566025">
<ele>8.1</ele>
<time>2026-02-13T16:06:57Z</time>
</trkpt>
<trkpt lat="52.333564" lon="4.566034">
<ele>8.1</ele>
<time>2026-02-13T16:06:57Z</time>
</trkpt>
<trkpt lat="52.333562" lon="4.566041">
<ele>7.8</ele>
<time>2026-02-13T16:06:58Z</time>
</trkpt>
<trkpt lat="52.333559" lon="4.566052">
<ele>7.8</ele>
<time>2026-02-13T16:06:58Z</time>
</trkpt>
<trkpt lat="52.333552" lon="4.566070">
<ele>8.0</ele>
<time>2026-02-13T16:06:59Z</time>
</trkpt>
<trkpt lat="52.333547" lon="4.566084">
<ele>8.0</ele>
<time>2026-02-13T16:07:00Z</time>
</trkpt>
<trkpt lat="52.333544" lon="4.566093">
<ele>8.0</ele>
<time>2026-02-13T16:07:01Z</time>
</trkpt>
<trkpt lat="52.333542" lon="4.566108">
<ele>8.0</ele>
<time>2026-02-13T16:07:01Z</time>
</trkpt>
<trkpt lat="52.333542" lon="4.566117">
<ele>8.0</ele>
<time>2026-02-13T16:07:02Z</time>
</trkpt>
<trkpt lat="52.333542" lon="4.566125">
<ele>7.9</ele>
<time>2026-02-13T16:07:03Z</time>
</trkpt>
<trkpt lat="52.333543" lon="4.566146">
<ele>7.9</ele>
<time>2026-02-13T16:07:03Z</time>
</trkpt>
<trkpt lat="52.333542" lon="4.566160">
<ele>7.5</ele>
<time>2026-02-13T16:07:05Z</time>
</trkpt>
<trkpt lat="52.333541" lon="4.566171">
<ele>7.3</ele>
<time>2026-02-13T16:07:05Z</time>
</trkpt>
<trkpt lat="52.333542" lon="4.566179">
<ele>7.4</ele>
<time>2026-02-13T16:07:06Z</time>
</trkpt>
<trkpt lat="52.333543" lon="4.566188">
<ele>7.4</ele>
<time>2026-02-13T16:07:06Z</time>
</trkpt>
<trkpt lat="52.333546" lon="4.566205">
<ele>7.3</ele>
<time>2026-02-13T16:07:07Z</time>
</trkpt>
<trkpt lat="52.333548" lon="4.566212">
<ele>7.3</ele>
<time>2026-02-13T16:07:08Z</time>
</trkpt>
<trkpt lat="52.333550" lon="4.566224">
<ele>7.3</ele>
<time>2026-02-13T16:07:08Z</time>
</trkpt>
<trkpt lat="52.333552" lon="4.566232">
<ele>7.0</ele>
<time>2026-02-13T16:07:09Z</time>
</trkpt>
<trkpt lat="52.333555" lon="4.566245">
<ele>7.0</ele>
<time>2026-02-13T16:07:10Z</time>
</trkpt>
<trkpt lat="52.333558" lon="4.566257">
<ele>6.4</ele>
<time>2026-02-13T16:07:10Z</time>
</trkpt>
<trkpt lat="52.333562" lon="4.566277">
<ele>6.1</ele>
<time>2026-02-13T16:07:11Z</time>
</trkpt>
<trkpt lat="52.333565" lon="4.566289">
<ele>6.1</ele>
<time>2026-02-13T16:07:12Z</time>
</trkpt>
<trkpt lat="52.333569" lon="4.566306">
<ele>5.4</ele>
<time>2026-02-13T16:07:13Z</time>
</trkpt>
<trkpt lat="52.333573" lon="4.566323">
<ele>5.5</ele>
<time>2026-02-13T16:07:14Z</time>
</trkpt>
<trkpt lat="52.333574" lon="4.566330">
<ele>5.1</ele>
<time>2026-02-13T16:07:14Z</time>
</trkpt>
<trkpt lat="52.333574" lon="4.566336">
<ele>5.0</ele>
<time>2026-02-13T16:07:15Z</time>
</trkpt>
<trkpt lat="52.333575" lon="4.566344">
<ele>5.0</ele>
<time>2026-02-13T16:07:15Z</time>
</trkpt>
<trkpt lat="52.333576" lon="4.566355">
<ele>4.6</ele>
<time>2026-02-13T16:07:16Z</time>
</trkpt>
<trkpt lat="52.333578" lon="4.566370">
<ele>4.6</ele>
<time>2026-02-13T16:07:17Z</time>
</trkpt>
<trkpt lat="52.333579" lon="4.566385">
<ele>4.6</ele>
<time>2026-02-13T16:07:17Z</time>
</trkpt>
<trkpt lat="52.333577" lon="4.566402">
<ele>4.3</ele>
<time>2026-02-13T16:07:18Z</time>
</trkpt>
<trkpt lat="52.333577" lon="4.566415">
<ele>4.0</ele>
<time>2026-02-13T16:07:19Z</time>
</trkpt>
<trkpt lat="52.333576" lon="4.566429">
<ele>4.0</ele>
<time>2026-02-13T16:07:19Z</time>
</trkpt>
<trkpt lat="52.333574" lon="4.566441">
<ele>3.7</ele>
<time>2026-02-13T16:07:20Z</time>
</trkpt>
<trkpt lat="52.333572" lon="4.566459">
<ele>3.7</ele>
<time>2026-02-13T16:07:21Z</time>
</trkpt>
<trkpt lat="52.333571" lon="4.566473">
<ele>3.7</ele>
<time>2026-02-13T16:07:21Z</time>
</trkpt>
<trkpt lat="52.333569" lon="4.566486">
<ele>3.5</ele>
<time>2026-02-13T16:07:22Z</time>
</trkpt>
<trkpt lat="52.333568" lon="4.566503">
<ele>3.3</ele>
<time>2026-02-13T16:07:23Z</time>
</trkpt>
<trkpt lat="52.333567" lon="4.566517">
<ele>3.3</ele>
<time>2026-02-13T16:07:23Z</time>
</trkpt>
<trkpt lat="52.333564" lon="4.566535">
<ele>3.4</ele>
<time>2026-02-13T16:07:24Z</time>
</trkpt>
<trkpt lat="52.333560" lon="4.566544">
<ele>3.2</ele>
<time>2026-02-13T16:07:25Z</time>
</trkpt>
<trkpt lat="52.333559" lon="4.566560">
<ele>3.2</ele>
<time>2026-02-13T16:07:25Z</time>
</trkpt>
<trkpt lat="52.333556" lon="4.566572">
<ele>3.1</ele>
<time>2026-02-13T16:07:26Z</time>
</trkpt>
<trkpt lat="52.333553" lon="4.566579">
<ele>3.0</ele>
<time>2026-02-13T16:07:27Z</time>
</trkpt>
<trkpt lat="52.333554" lon="4.566594">
<ele>3.0</ele>
<time>2026-02-13T16:07:27Z</time>
</trkpt>
<trkpt lat="52.333552" lon="4.566607">
<ele>2.9</ele>
<time>2026-02-13T16:07:28Z</time>
</trkpt>
<trkpt lat="52.333551" lon="4.566624">
<ele>3.0</ele>
<time>2026-02-13T16:07:29Z</time>
</trkpt>
<trkpt lat="52.333550" lon="4.566629">
<ele>3.4</ele>
<time>2026-02-13T16:07:30Z</time>
</trkpt>
<trkpt lat="52.333552" lon="4.566639">
<ele>3.4</ele>
<time>2026-02-13T16:07:30Z</time>
</trkpt>
<trkpt lat="52.333550" lon="4.566657">
<ele>3.4</ele>
<time>2026-02-13T16:07:31Z</time>
</trkpt>
<trkpt lat="52.333546" lon="4.566666">
<ele>3.3</ele>
<time>2026-02-13T16:07:32Z</time>
</trkpt>
<trkpt lat="52.333544" lon="4.566685">
<ele>3.3</ele>
<time>2026-02-13T16:07:32Z</time>
</trkpt>
<trkpt lat="52.333539" lon="4.566683">
<ele>3.4</ele>
<time>2026-02-13T16:07:33Z</time>
</trkpt>
<trkpt lat="52.333537" lon="4.566693">
<ele>3.4</ele>
<time>2026-02-13T16:07:33Z</time>
</trkpt>
<trkpt lat="52.333530" lon="4.566698">
<ele>3.2</ele>
<time>2026-02-13T16:07:34Z</time>
</trkpt>
<trkpt lat="52.333529" lon="4.566709">
<ele>3.2</ele>
<time>2026-02-13T16:07:35Z</time>
</trkpt>
<trkpt lat="52.333526" lon="4.566714">
<ele>2.9</ele>
<time>2026-02-13T16:07:35Z</time>
</trkpt>
<trkpt lat="52.333522" lon="4.566720">
<ele>3.1</ele>
<time>2026-02-13T16:07:36Z</time>
</trkpt>
<trkpt lat="52.333521" lon="4.566732">
<ele>3.1</ele>
<time>2026-02-13T16:07:36Z</time>
</trkpt>
<trkpt lat="52.333516" lon="4.566739">
<ele>3.0</ele>
<time>2026-02-13T16:07:37Z</time>
</trkpt>
<trkpt lat="52.333512" lon="4.566748">
<ele>3.1</ele>
<time>2026-02-13T16:07:38Z</time>
</trkpt>
<trkpt lat="52.333510" lon="4.566762">
<ele>3.1</ele>
<time>2026-02-13T16:07:38Z</time>
</trkpt>
<trkpt lat="52.333508" lon="4.566769">
<ele>3.1</ele>
<time>2026-02-13T16:07:39Z</time>
</trkpt>
<trkpt lat="52.333509" lon="4.566787">
<ele>3.1</ele>
<time>2026-02-13T16:07:40Z</time>
</trkpt>
<trkpt lat="52.333514" lon="4.566796">
<ele>2.8</ele>
<time>2026-02-13T16:07:41Z</time>
</trkpt>
<trkpt lat="52.333523" lon="4.566802">
<ele>2.7</ele>
<time>2026-02-13T16:07:41Z</time>
</trkpt>
<trkpt lat="52.333535" lon="4.566805">
<ele>2.4</ele>
<time>2026-02-13T16:07:42Z</time>
</trkpt>
<trkpt lat="52.333543" lon="4.566810">
<ele>2.5</ele>
<time>2026-02-13T16:07:43Z</time>
</trkpt>
<trkpt lat="52.333549" lon="4.566810">
<ele>2.3</ele>
<time>2026-02-13T16:07:43Z</time>
</trkpt>
<trkpt lat="52.333556" lon="4.566813">
<ele>2.3</ele>
<time>2026-02-13T16:07:44Z</time>
</trkpt>
<trkpt lat="52.333568" lon="4.566821">
<ele>2.3</ele>
<time>2026-02-13T16:07:45Z</time>
</trkpt>
<trkpt lat="52.333575" lon="4.566829">
<ele>2.4</ele>
<time>2026-02-13T16:07:45Z</time>
</trkpt>
<trkpt lat="52.333589" lon="4.566842">
<ele>2.5</ele>
<time>2026-02-13T16:07:46Z</time>
</trkpt>
<trkpt lat="52.333604" lon="4.566845">
<ele>2.4</ele>
<time>2026-02-13T16:07:47Z</time>
</trkpt>
<trkpt lat="52.333610" lon="4.566845">
<ele>2.4</ele>
<time>2026-02-13T16:07:48Z</time>
</trkpt>
<trkpt lat="52.333617" lon="4.566853">
<ele>2.4</ele>
<time>2026-02-13T16:07:48Z</time>
</trkpt>
<trkpt lat="52.333632" lon="4.566861">
<ele>2.6</ele>
<time>2026-02-13T16:07:50Z</time>
</trkpt>
<trkpt lat="52.333641" lon="4.566868">
<ele>2.6</ele>
<time>2026-02-13T16:07:50Z</time>
</trkpt>
<trkpt lat="52.333648" lon="4.566870">
<ele>2.8</ele>
<time>2026-02-13T16:07:51Z</time>
</trkpt>
<trkpt lat="52.333658" lon="4.566874">
<ele>3.2</ele>
<time>2026-02-13T16:07:52Z</time>
</trkpt>
<trkpt lat="52.333671" lon="4.566878">
<ele>3.0</ele>
<time>2026-02-13T16:07:53Z</time>
</trkpt>
<trkpt lat="52.333682" lon="4.566882">
<ele>3.0</ele>
<time>2026-02-13T16:07:53Z</time>
</trkpt>
<trkpt lat="52.333694" lon="4.566885">
<ele>3.2</ele>
<time>2026-02-13T16:07:54Z</time>
</trkpt>
<trkpt lat="52.333698" lon="4.566888">
<ele>3.2</ele>
<time>2026-02-13T16:07:54Z</time>
</trkpt>
<trkpt lat="52.333702" lon="4.566889">
<ele>3.2</ele>
<time>2026-02-13T16:07:55Z</time>
</trkpt>
<trkpt lat="52.333708" lon="4.566893">
<ele>3.2</ele>
<time>2026-02-13T16:07:55Z</time>
</trkpt>
<trkpt lat="52.333715" lon="4.566895">
<ele>3.1</ele>
<time>2026-02-13T16:07:56Z</time>
</trkpt>
<trkpt lat="52.333724" lon="4.566901">
<ele>3.1</ele>
<time>2026-02-13T16:07:57Z</time>
</trkpt>
<trkpt lat="52.333736" lon="4.566905">
<ele>3.3</ele>
<time>2026-02-13T16:07:57Z</time>
</trkpt>
<trkpt lat="52.333751" lon="4.566909">
<ele>3.3</ele>
<time>2026-02-13T16:07:59Z</time>
</trkpt>
<trkpt lat="52.333763" lon="4.566919">
<ele>3.4</ele>
<time>2026-02-13T16:07:59Z</time>
</trkpt>
<trkpt lat="52.333775" lon="4.566929">
<ele>3.5</ele>
<time>2026-02-13T16:08:00Z</time>
</trkpt>
<trkpt lat="52.333782" lon="4.566935">
<ele>3.5</ele>
<time>2026-02-13T16:08:01Z</time>
</trkpt>
<trkpt lat="52.333793" lon="4.566946">
<ele>3.5</ele>
<time>2026-02-13T16:08:01Z</time>
</trkpt>
<trkpt lat="52.333795" lon="4.566949">
<ele>3.5</ele>
<time>2026-02-13T16:08:02Z</time>
</trkpt>
<trkpt lat="52.333801" lon="4.566954">
<ele>3.5</ele>
<time>2026-02-13T16:08:02Z</time>
</trkpt>
<trkpt lat="52.333805" lon="4.566962">
<ele>3.5</ele>
<time>2026-02-13T16:08:03Z</time>
</trkpt>
<trkpt lat="52.333812" lon="4.566969">
<ele>3.5</ele>
<time>2026-02-13T16:08:03Z</time>
</trkpt>
<trkpt lat="52.333818" lon="4.566978">
<ele>3.4</ele>
<time>2026-02-13T16:08:04Z</time>
</trkpt>
<trkpt lat="52.333825" lon="4.566988">
<ele>3.5</ele>
<time>2026-02-13T16:08:05Z</time>
</trkpt>
<trkpt lat="52.333833" lon="4.567004">
<ele>3.6</ele>
<time>2026-02-13T16:08:06Z</time>
</trkpt>
<trkpt lat="52.333843" lon="4.567019">
<ele>3.6</ele>
<time>2026-02-13T16:08:06Z</time>
</trkpt>
<trkpt lat="52.333847" lon="4.567029">
<ele>3.8</ele>
<time>2026-02-13T16:08:07Z</time>
</trkpt>
<trkpt lat="52.333852" lon="4.567038">
<ele>3.8</ele>
<time>2026-02-13T16:08:07Z</time>
</trkpt>
<trkpt lat="52.333856" lon="4.567047">
<ele>3.7</ele>
<time>2026-02-13T16:08:08Z</time>
</trkpt>
<trkpt lat="52.333866" lon="4.567062">
<ele>3.7</ele>
<time>2026-02-13T16:08:08Z</time>
</trkpt>
<trkpt lat="52.333867" lon="4.567065">
<ele>3.8</ele>
<time>2026-02-13T16:08:09Z</time>
</trkpt>
<trkpt lat="52.333874" lon="4.567075">
<ele>3.8</ele>
<time>2026-02-13T16:08:10Z</time>
</trkpt>
<trkpt lat="52.333884" lon="4.567088">
<ele>3.8</ele>
<time>2026-02-13T16:08:10Z</time>
</trkpt>
<trkpt lat="52.333889" lon="4.567097">
<ele>3.8</ele>
<time>2026-02-13T16:08:11Z</time>
</trkpt>
<trkpt lat="52.333895" lon="4.567105">
<ele>3.8</ele>
<time>2026-02-13T16:08:12Z</time>
</trkpt>
<trkpt lat="52.333903" lon="4.567118">
<ele>3.7</ele>
<time>2026-02-13T16:08:12Z</time>
</trkpt>
<trkpt lat="52.333909" lon="4.567125">
<ele>3.6</ele>
<time>2026-02-13T16:08:13Z</time>
</trkpt>
<trkpt lat="52.333916" lon="4.567133">
<ele>3.6</ele>
<time>2026-02-13T16:08:14Z</time>
</trkpt>
<trkpt lat="52.333926" lon="4.567146">
<ele>4.0</ele>
<time>2026-02-13T16:08:15Z</time>
</trkpt>
<trkpt lat="52.333936" lon="4.567158">
<ele>4.0</ele>
<time>2026-02-13T16:08:15Z</time>
</trkpt>
<trkpt lat="52.333943" lon="4.567163">
<ele>4.2</ele>
<time>2026-02-13T16:08:16Z</time>
</trkpt>
<trkpt lat="52.333950" lon="4.567169">
<ele>4.2</ele>
<time>2026-02-13T16:08:17Z</time>
</trkpt>
<trkpt lat="52.333955" lon="4.567172">
<ele>4.5</ele>
<time>2026-02-13T16:08:17Z</time>
</trkpt>
<trkpt lat="52.333961" lon="4.567176">
<ele>4.4</ele>
<time>2026-02-13T16:08:18Z</time>
</trkpt>
<trkpt lat="52.333967" lon="4.567182">
<ele>4.4</ele>
<time>2026-02-13T16:08:18Z</time>
</trkpt>
<trkpt lat="52.333973" lon="4.567186">
<ele>4.7</ele>
<time>2026-02-13T16:08:19Z</time>
</trkpt>
<trkpt lat="52.333979" lon="4.567191">
<ele>4.7</ele>
<time>2026-02-13T16:08:19Z</time>
</trkpt>
<trkpt lat="52.333985" lon="4.567196">
<ele>4.9</ele>
<time>2026-02-13T16:08:20Z</time>
</trkpt>
<trkpt lat="52.333991" lon="4.567202">
<ele>4.9</ele>
<time>2026-02-13T16:08:20Z</time>
</trkpt>
<trkpt lat="52.333997" lon="4.567209">
<ele>4.9</ele>
<time>2026-02-13T16:08:21Z</time>
</trkpt>
<trkpt lat="52.334002" lon="4.567214">
<ele>5.0</ele>
<time>2026-02-13T16:08:21Z</time>
</trkpt>
<trkpt lat="52.334008" lon="4.567221">
<ele>5.0</ele>
<time>2026-02-13T16:08:22Z</time>
</trkpt>
<trkpt lat="52.334013" lon="4.567228">
<ele>5.0</ele>
<time>2026-02-13T16:08:22Z</time>
</trkpt>
<trkpt lat="52.334020" lon="4.567236">
<ele>5.0</ele>
<time>2026-02-13T16:08:23Z</time>
</trkpt>
<trkpt lat="52.334028" lon="4.567248">
<ele>4.9</ele>
<time>2026-02-13T16:08:23Z</time>
</trkpt>
<trkpt lat="52.334032" lon="4.567253">
<ele>4.9</ele>
<time>2026-02-13T16:08:24Z</time>
</trkpt>
<trkpt lat="52.334038" lon="4.567261">
<ele>4.7</ele>
<time>2026-02-13T16:08:24Z</time>
</trkpt>
<trkpt lat="52.334045" lon="4.567267">
<ele>4.7</ele>
<time>2026-02-13T16:08:25Z</time>
</trkpt>
<trkpt lat="52.334050" lon="4.567274">
<ele>4.7</ele>
<time>2026-02-13T16:08:26Z</time>
</trkpt>
<trkpt lat="52.334057" lon="4.567281">
<ele>4.7</ele>
<time>2026-02-13T16:08:26Z</time>
</trkpt>
<trkpt lat="52.334063" lon="4.567287">
<ele>4.9</ele>
<time>2026-02-13T16:08:27Z</time>
</trkpt>
<trkpt lat="52.334068" lon="4.567292">
<ele>4.9</ele>
<time>2026-02-13T16:08:27Z</time>
</trkpt>
<trkpt lat="52.334073" lon="4.567296">
<ele>4.9</ele>
<time>2026-02-13T16:08:28Z</time>
</trkpt>
<trkpt lat="52.334080" lon="4.567302">
<ele>4.9</ele>
<time>2026-02-13T16:08:28Z</time>
</trkpt>
<trkpt lat="52.334085" lon="4.567308">
<ele>4.9</ele>
<time>2026-02-13T16:08:29Z</time>
</trkpt>
<trkpt lat="52.334094" lon="4.567316">
<ele>5.0</ele>
<time>2026-02-13T16:08:30Z</time>
</trkpt>
<trkpt lat="52.334106" lon="4.567327">
<ele>5.0</ele>
<time>2026-02-13T16:08:30Z</time>
</trkpt>
<trkpt lat="52.334109" lon="4.567328">
<ele>5.1</ele>
<time>2026-02-13T16:08:31Z</time>
</trkpt>
<trkpt lat="52.334118" lon="4.567333">
<ele>5.3</ele>
<time>2026-02-13T16:08:32Z</time>
</trkpt>
<trkpt lat="52.334127" lon="4.567339">
<ele>5.3</ele>
<time>2026-02-13T16:08:32Z</time>
</trkpt>
<trkpt lat="52.334135" lon="4.567343">
<ele>5.0</ele>
<time>2026-02-13T16:08:33Z</time>
</trkpt>
<trkpt lat="52.334141" lon="4.567346">
<ele>5.0</ele>
<time>2026-02-13T16:08:33Z</time>
</trkpt>
<trkpt lat="52.334147" lon="4.567350">
<ele>4.9</ele>
<time>2026-02-13T16:08:34Z</time>
</trkpt>
<trkpt lat="52.334153" lon="4.567353">
<ele>4.9</ele>
<time>2026-02-13T16:08:34Z</time>
</trkpt>
<trkpt lat="52.334159" lon="4.567357">
<ele>4.9</ele>
<time>2026-02-13T16:08:35Z</time>
</trkpt>
<trkpt lat="52.334165" lon="4.567359">
<ele>4.9</ele>
<time>2026-02-13T16:08:35Z</time>
</trkpt>
<trkpt lat="52.334177" lon="4.567368">
<ele>5.0</ele>
<time>2026-02-13T16:08:37Z</time>
</trkpt>
<trkpt lat="52.334182" lon="4.567375">
<ele>4.7</ele>
<time>2026-02-13T16:08:37Z</time>
</trkpt>
<trkpt lat="52.334189" lon="4.567384">
<ele>4.6</ele>
<time>2026-02-13T16:08:38Z</time>
</trkpt>
<trkpt lat="52.334197" lon="4.567393">
<ele>4.6</ele>
<time>2026-02-13T16:08:38Z</time>
</trkpt>
<trkpt lat="52.334202" lon="4.567398">
<ele>4.4</ele>
<time>2026-02-13T16:08:39Z</time>
</trkpt>
<trkpt lat="52.334209" lon="4.567403">
<ele>4.2</ele>
<time>2026-02-13T16:08:40Z</time>
</trkpt>
<trkpt lat="52.334215" lon="4.567407">
<ele>4.2</ele>
<time>2026-02-13T16:08:40Z</time>
</trkpt>
<trkpt lat="52.334220" lon="4.567411">
<ele>3.9</ele>
<time>2026-02-13T16:08:41Z</time>
</trkpt>
<trkpt lat="52.334227" lon="4.567416">
<ele>3.9</ele>
<time>2026-02-13T16:08:41Z</time>
</trkpt>
<trkpt lat="52.334232" lon="4.567420">
<ele>3.5</ele>
<time>2026-02-13T16:08:42Z</time>
</trkpt>
<trkpt lat="52.334239" lon="4.567425">
<ele>3.5</ele>
<time>2026-02-13T16:08:42Z</time>
</trkpt>
<trkpt lat="52.334244" lon="4.567428">
<ele>3.3</ele>
<time>2026-02-13T16:08:43Z</time>
</trkpt>
<trkpt lat="52.334250" lon="4.567431">
<ele>3.3</ele>
<time>2026-02-13T16:08:43Z</time>
</trkpt>
<trkpt lat="52.334257" lon="4.567435">
<ele>3.2</ele>
<time>2026-02-13T16:08:44Z</time>
</trkpt>
<trkpt lat="52.334269" lon="4.567442">
<ele>3.2</ele>
<time>2026-02-13T16:08:44Z</time>
</trkpt>
<trkpt lat="52.334276" lon="4.567445">
<ele>3.1</ele>
<time>2026-02-13T16:08:45Z</time>
</trkpt>
<trkpt lat="52.334282" lon="4.567448">
<ele>3.1</ele>
<time>2026-02-13T16:08:45Z</time>
</trkpt>
<trkpt lat="52.334288" lon="4.567450">
<ele>3.1</ele>
<time>2026-02-13T16:08:46Z</time>
</trkpt>
<trkpt lat="52.334296" lon="4.567454">
<ele>3.1</ele>
<time>2026-02-13T16:08:47Z</time>
</trkpt>
<trkpt lat="52.334308" lon="4.567458">
<ele>3.0</ele>
<time>2026-02-13T16:08:47Z</time>
</trkpt>
<trkpt lat="52.334314" lon="4.567458">
<ele>3.2</ele>
<time>2026-02-13T16:08:48Z</time>
</trkpt>
<trkpt lat="52.334321" lon="4.567461">
<ele>3.2</ele>
<time>2026-02-13T16:08:48Z</time>
</trkpt>
<trkpt lat="52.334334" lon="4.567466">
<ele>3.1</ele>
<time>2026-02-13T16:08:49Z</time>
</trkpt>
<trkpt lat="52.334341" lon="4.567467">
<ele>3.2</ele>
<time>2026-02-13T16:08:50Z</time>
</trkpt>
<trkpt lat="52.334348" lon="4.567470">
<ele>3.2</ele>
<time>2026-02-13T16:08:50Z</time>
</trkpt>
<trkpt lat="52.334354" lon="4.567471">
<ele>3.4</ele>
<time>2026-02-13T16:08:51Z</time>
</trkpt>
<trkpt lat="52.334362" lon="4.567473">
<ele>3.4</ele>
<time>2026-02-13T16:08:51Z</time>
</trkpt>
<trkpt lat="52.334374" lon="4.567478">
<ele>3.3</ele>
<time>2026-02-13T16:08:52Z</time>
</trkpt>
<trkpt lat="52.334377" lon="4.567480">
<ele>3.0</ele>
<time>2026-02-13T16:08:53Z</time>
</trkpt>
<trkpt lat="52.334382" lon="4.567483">
<ele>3.0</ele>
<time>2026-02-13T16:08:53Z</time>
</trkpt>
<trkpt lat="52.334388" lon="4.567488">
<ele>3.0</ele>
<time>2026-02-13T16:08:54Z</time>
</trkpt>
<trkpt lat="52.334394" lon="4.567492">
<ele>3.2</ele>
<time>2026-02-13T16:08:54Z</time>
</trkpt>
<trkpt lat="52.334400" lon="4.567495">
<ele>3.6</ele>
<time>2026-02-13T16:08:55Z</time>
</trkpt>
<trkpt lat="52.334408" lon="4.567499">
<ele>3.6</ele>
<time>2026-02-13T16:08:55Z</time>
</trkpt>
<trkpt lat="52.334413" lon="4.567501">
<ele>3.8</ele>
<time>2026-02-13T16:08:56Z</time>
</trkpt>
<trkpt lat="52.334421" lon="4.567505">
<ele>3.8</ele>
<time>2026-02-13T16:08:56Z</time>
</trkpt>
<trkpt lat="52.334433" lon="4.567509">
<ele>3.9</ele>
<time>2026-02-13T16:08:57Z</time>
</trkpt>
<trkpt lat="52.334440" lon="4.567513">
<ele>4.2</ele>
<time>2026-02-13T16:08:58Z</time>
</trkpt>
<trkpt lat="52.334447" lon="4.567517">
<ele>4.2</ele>
<time>2026-02-13T16:08:58Z</time>
</trkpt>
<trkpt lat="52.334452" lon="4.567521">
<ele>4.3</ele>
<time>2026-02-13T16:08:59Z</time>
</trkpt>
<trkpt lat="52.334464" lon="4.567528">
<ele>4.3</ele>
<time>2026-02-13T16:08:59Z</time>
</trkpt>
<trkpt lat="52.334466" lon="4.567530">
<ele>4.4</ele>
<time>2026-02-13T16:09:00Z</time>
</trkpt>
<trkpt lat="52.334472" lon="4.567533">
<ele>4.4</ele>
<time>2026-02-13T16:09:00Z</time>
</trkpt>
<trkpt lat="52.334477" lon="4.567535">
<ele>4.9</ele>
<time>2026-02-13T16:09:01Z</time>
</trkpt>
<trkpt lat="52.334485" lon="4.567539">
<ele>4.9</ele>
<time>2026-02-13T16:09:01Z</time>
</trkpt>
<trkpt lat="52.334490" lon="4.567541">
<ele>4.5</ele>
<time>2026-02-13T16:09:02Z</time>
</trkpt>
<trkpt lat="52.334498" lon="4.567544">
<ele>4.5</ele>
<time>2026-02-13T16:09:02Z</time>
</trkpt>
<trkpt lat="52.334511" lon="4.567551">
<ele>4.8</ele>
<time>2026-02-13T16:09:04Z</time>
</trkpt>
<trkpt lat="52.334523" lon="4.567558">
<ele>5.2</ele>
<time>2026-02-13T16:09:05Z</time>
</trkpt>
<trkpt lat="52.334535" lon="4.567567">
<ele>5.4</ele>
<time>2026-02-13T16:09:06Z</time>
</trkpt>
<trkpt lat="52.334541" lon="4.567571">
<ele>5.4</ele>
<time>2026-02-13T16:09:06Z</time>
</trkpt>
<trkpt lat="52.334554" lon="4.567577">
<ele>5.5</ele>
<time>2026-02-13T16:09:07Z</time>
</trkpt>
<trkpt lat="52.334561" lon="4.567581">
<ele>5.5</ele>
<time>2026-02-13T16:09:08Z</time>
</trkpt>
<trkpt lat="52.334573" lon="4.567587">
<ele>5.6</ele>
<time>2026-02-13T16:09:09Z</time>
</trkpt>
<trkpt lat="52.334579" lon="4.567590">
<ele>5.7</ele>
<time>2026-02-13T16:09:09Z</time>
</trkpt>
<trkpt lat="52.334585" lon="4.567592">
<ele>5.6</ele>
<time>2026-02-13T16:09:10Z</time>
</trkpt>
<trkpt lat="52.334597" lon="4.567597">
<ele>5.7</ele>
<time>2026-02-13T16:09:11Z</time>
</trkpt>
<trkpt lat="52.334605" lon="4.567601">
<ele>5.7</ele>
<time>2026-02-13T16:09:11Z</time>
</trkpt>
<trkpt lat="52.334610" lon="4.567604">
<ele>5.8</ele>
<time>2026-02-13T16:09:12Z</time>
</trkpt>
<trkpt lat="52.334616" lon="4.567607">
<ele>5.8</ele>
<time>2026-02-13T16:09:12Z</time>
</trkpt>
<trkpt lat="52.334623" lon="4.567611">
<ele>6.1</ele>
<time>2026-02-13T16:09:13Z</time>
</trkpt>
<trkpt lat="52.334629" lon="4.567616">
<ele>6.1</ele>
<time>2026-02-13T16:09:13Z</time>
</trkpt>
<trkpt lat="52.334635" lon="4.567621">
<ele>6.1</ele>
<time>2026-02-13T16:09:14Z</time>
</trkpt>
<trkpt lat="52.334641" lon="4.567626">
<ele>6.1</ele>
<time>2026-02-13T16:09:14Z</time>
</trkpt>
<trkpt lat="52.334646" lon="4.567632">
<ele>6.1</ele>
<time>2026-02-13T16:09:15Z</time>
</trkpt>
<trkpt lat="52.334654" lon="4.567638">
<ele>6.1</ele>
<time>2026-02-13T16:09:15Z</time>
</trkpt>
<trkpt lat="52.334663" lon="4.567644">
<ele>6.1</ele>
<time>2026-02-13T16:09:16Z</time>
</trkpt>
<trkpt lat="52.334672" lon="4.567651">
<ele>6.5</ele>
<time>2026-02-13T16:09:17Z</time>
</trkpt>
<trkpt lat="52.334679" lon="4.567653">
<ele>6.5</ele>
<time>2026-02-13T16:09:17Z</time>
</trkpt>
<trkpt lat="52.334684" lon="4.567656">
<ele>6.2</ele>
<time>2026-02-13T16:09:18Z</time>
</trkpt>
<trkpt lat="52.334691" lon="4.567660">
<ele>6.2</ele>
<time>2026-02-13T16:09:18Z</time>
</trkpt>
<trkpt lat="52.334697" lon="4.567666">
<ele>6.0</ele>
<time>2026-02-13T16:09:19Z</time>
</trkpt>
<trkpt lat="52.334704" lon="4.567672">
<ele>6.0</ele>
<time>2026-02-13T16:09:19Z</time>
</trkpt>
<trkpt lat="52.334709" lon="4.567678">
<ele>6.2</ele>
<time>2026-02-13T16:09:20Z</time>
</trkpt>
<trkpt lat="52.334715" lon="4.567684">
<ele>6.2</ele>
<time>2026-02-13T16:09:20Z</time>
</trkpt>
<trkpt lat="52.334720" lon="4.567690">
<ele>6.1</ele>
<time>2026-02-13T16:09:21Z</time>
</trkpt>
<trkpt lat="52.334733" lon="4.567699">
<ele>6.1</ele>
<time>2026-02-13T16:09:21Z</time>
</trkpt>
<trkpt lat="52.334734" lon="4.567702">
<ele>5.9</ele>
<time>2026-02-13T16:09:22Z</time>
</trkpt>
<trkpt lat="52.334740" lon="4.567706">
<ele>5.9</ele>
<time>2026-02-13T16:09:22Z</time>
</trkpt>
<trkpt lat="52.334746" lon="4.567714">
<ele>5.4</ele>
<time>2026-02-13T16:09:23Z</time>
</trkpt>
<trkpt lat="52.334756" lon="4.567727">
<ele>5.5</ele>
<time>2026-02-13T16:09:24Z</time>
</trkpt>
<trkpt lat="52.334763" lon="4.567736">
<ele>5.5</ele>
<time>2026-02-13T16:09:24Z</time>
</trkpt>
<trkpt lat="52.334774" lon="4.567752">
<ele>5.5</ele>
<time>2026-02-13T16:09:25Z</time>
</trkpt>
<trkpt lat="52.334781" lon="4.567763">
<ele>5.6</ele>
<time>2026-02-13T16:09:26Z</time>
</trkpt>
<trkpt lat="52.334788" lon="4.567774">
<ele>5.5</ele>
<time>2026-02-13T16:09:27Z</time>
</trkpt>
<trkpt lat="52.334796" lon="4.567786">
<ele>5.5</ele>
<time>2026-02-13T16:09:27Z</time>
</trkpt>
<trkpt lat="52.334801" lon="4.567794">
<ele>5.5</ele>
<time>2026-02-13T16:09:28Z</time>
</trkpt>
<trkpt lat="52.334808" lon="4.567806">
<ele>5.4</ele>
<time>2026-02-13T16:09:29Z</time>
</trkpt>
<trkpt lat="52.334814" lon="4.567817">
<ele>5.4</ele>
<time>2026-02-13T16:09:29Z</time>
</trkpt>
<trkpt lat="52.334817" lon="4.567827">
<ele>5.7</ele>
<time>2026-02-13T16:09:30Z</time>
</trkpt>
<trkpt lat="52.334822" lon="4.567839">
<ele>5.4</ele>
<time>2026-02-13T16:09:31Z</time>
</trkpt>
<trkpt lat="52.334829" lon="4.567855">
<ele>5.4</ele>
<time>2026-02-13T16:09:31Z</time>
</trkpt>
<trkpt lat="52.334832" lon="4.567867">
<ele>5.4</ele>
<time>2026-02-13T16:09:32Z</time>
</trkpt>
<trkpt lat="52.334836" lon="4.567883">
<ele>5.1</ele>
<time>2026-02-13T16:09:33Z</time>
</trkpt>
<trkpt lat="52.334839" lon="4.567898">
<ele>5.1</ele>
<time>2026-02-13T16:09:33Z</time>
</trkpt>
<trkpt lat="52.334841" lon="4.567909">
<ele>5.1</ele>
<time>2026-02-13T16:09:34Z</time>
</trkpt>
<trkpt lat="52.334844" lon="4.567918">
<ele>5.1</ele>
<time>2026-02-13T16:09:34Z</time>
</trkpt>
<trkpt lat="52.334847" lon="4.567928">
<ele>4.9</ele>
<time>2026-02-13T16:09:35Z</time>
</trkpt>
<trkpt lat="52.334852" lon="4.567938">
<ele>4.9</ele>
<time>2026-02-13T16:09:35Z</time>
</trkpt>
<trkpt lat="52.334859" lon="4.567947">
<ele>4.9</ele>
<time>2026-02-13T16:09:36Z</time>
</trkpt>
<trkpt lat="52.334863" lon="4.567953">
<ele>4.9</ele>
<time>2026-02-13T16:09:36Z</time>
</trkpt>
<trkpt lat="52.334870" lon="4.567956">
<ele>4.6</ele>
<time>2026-02-13T16:09:37Z</time>
</trkpt>
<trkpt lat="52.334879" lon="4.567960">
<ele>4.1</ele>
<time>2026-02-13T16:09:38Z</time>
</trkpt>
<trkpt lat="52.334889" lon="4.567963">
<ele>4.1</ele>
<time>2026-02-13T16:09:38Z</time>
</trkpt>
<trkpt lat="52.334896" lon="4.567960">
<ele>3.7</ele>
<time>2026-02-13T16:09:39Z</time>
</trkpt>
<trkpt lat="52.334904" lon="4.567962">
<ele>3.7</ele>
<time>2026-02-13T16:09:39Z</time>
</trkpt>
<trkpt lat="52.334912" lon="4.567959">
<ele>3.1</ele>
<time>2026-02-13T16:09:40Z</time>
</trkpt>
<trkpt lat="52.334921" lon="4.567959">
<ele>3.0</ele>
<time>2026-02-13T16:09:41Z</time>
</trkpt>
<trkpt lat="52.334930" lon="4.567962">
<ele>3.0</ele>
<time>2026-02-13T16:09:41Z</time>
</trkpt>
<trkpt lat="52.334944" lon="4.567961">
<ele>3.1</ele>
<time>2026-02-13T16:09:42Z</time>
</trkpt>
<trkpt lat="52.334964" lon="4.567962">
<ele>3.1</ele>
<time>2026-02-13T16:09:43Z</time>
</trkpt>
<trkpt lat="52.334968" lon="4.567962">
<ele>3.1</ele>
<time>2026-02-13T16:09:44Z</time>
</trkpt>
<trkpt lat="52.334976" lon="4.567964">
<ele>3.4</ele>
<time>2026-02-13T16:09:45Z</time>
</trkpt>
<trkpt lat="52.334987" lon="4.567966">
<ele>3.4</ele>
<time>2026-02-13T16:09:45Z</time>
</trkpt>
<trkpt lat="52.335000" lon="4.567967">
<ele>3.4</ele>
<time>2026-02-13T16:09:46Z</time>
</trkpt>
<trkpt lat="52.335006" lon="4.567966">
<ele>3.4</ele>
<time>2026-02-13T16:09:47Z</time>
</trkpt>
<trkpt lat="52.335014" lon="4.567967">
<ele>3.4</ele>
<time>2026-02-13T16:09:47Z</time>
</trkpt>
<trkpt lat="52.335020" lon="4.567967">
<ele>3.3</ele>
<time>2026-02-13T16:09:48Z</time>
</trkpt>
<trkpt lat="52.335027" lon="4.567968">
<ele>3.3</ele>
<time>2026-02-13T16:09:48Z</time>
</trkpt>
<trkpt lat="52.335033" lon="4.567970">
<ele>3.7</ele>
<time>2026-02-13T16:09:49Z</time>
</trkpt>
<trkpt lat="52.335040" lon="4.567971">
<ele>3.7</ele>
<time>2026-02-13T16:09:49Z</time>
</trkpt>
<trkpt lat="52.335053" lon="4.567975">
<ele>3.7</ele>
<time>2026-02-13T16:09:50Z</time>
</trkpt>
<trkpt lat="52.335057" lon="4.567976">
<ele>3.7</ele>
<time>2026-02-13T16:09:50Z</time>
</trkpt>
<trkpt lat="52.335068" lon="4.567982">
<ele>3.7</ele>
<time>2026-02-13T16:09:51Z</time>
</trkpt>
<trkpt lat="52.335074" lon="4.567986">
<ele>3.4</ele>
<time>2026-02-13T16:09:52Z</time>
</trkpt>
<trkpt lat="52.335081" lon="4.567989">
<ele>3.6</ele>
<time>2026-02-13T16:09:53Z</time>
</trkpt>
<trkpt lat="52.335095" lon="4.567991">
<ele>3.6</ele>
<time>2026-02-13T16:09:53Z</time>
</trkpt>
<trkpt lat="52.335101" lon="4.567993">
<ele>3.8</ele>
<time>2026-02-13T16:09:54Z</time>
</trkpt>
<trkpt lat="52.335108" lon="4.567993">
<ele>3.8</ele>
<time>2026-02-13T16:09:55Z</time>
</trkpt>
<trkpt lat="52.335116" lon="4.567994">
<ele>4.0</ele>
<time>2026-02-13T16:09:55Z</time>
</trkpt>
<trkpt lat="52.335122" lon="4.567994">
<ele>4.1</ele>
<time>2026-02-13T16:09:56Z</time>
</trkpt>
<trkpt lat="52.335130" lon="4.567994">
<ele>4.1</ele>
<time>2026-02-13T16:09:56Z</time>
</trkpt>
<trkpt lat="52.335143" lon="4.567993">
<ele>4.0</ele>
<time>2026-02-13T16:09:57Z</time>
</trkpt>
<trkpt lat="52.335151" lon="4.567994">
<ele>4.0</ele>
<time>2026-02-13T16:09:58Z</time>
</trkpt>
<trkpt lat="52.335162" lon="4.567994">
<ele>4.6</ele>
<time>2026-02-13T16:09:59Z</time>
</trkpt>
<trkpt lat="52.335171" lon="4.567994">
<ele>4.6</ele>
<time>2026-02-13T16:09:59Z</time>
</trkpt>
<trkpt lat="52.335177" lon="4.567996">
<ele>4.4</ele>
<time>2026-02-13T16:10:00Z</time>
</trkpt>
<trkpt lat="52.335185" lon="4.567997">
<ele>4.4</ele>
<time>2026-02-13T16:10:00Z</time>
</trkpt>
<trkpt lat="52.335191" lon="4.567996">
<ele>4.7</ele>
<time>2026-02-13T16:10:01Z</time>
</trkpt>
<trkpt lat="52.335199" lon="4.567995">
<ele>4.7</ele>
<time>2026-02-13T16:10:01Z</time>
</trkpt>
<trkpt lat="52.335205" lon="4.567993">
<ele>4.5</ele>
<time>2026-02-13T16:10:02Z</time>
</trkpt>
<trkpt lat="52.335213" lon="4.567992">
<ele>4.5</ele>
<time>2026-02-13T16:10:03Z</time>
</trkpt>
<trkpt lat="52.335218" lon="4.567991">
<ele>4.7</ele>
<time>2026-02-13T16:10:03Z</time>
</trkpt>
<trkpt lat="52.335226" lon="4.567989">
<ele>4.7</ele>
<time>2026-02-13T16:10:04Z</time>
</trkpt>
<trkpt lat="52.335233" lon="4.567986">
<ele>4.8</ele>
<time>2026-02-13T16:10:04Z</time>
</trkpt>
<trkpt lat="52.335246" lon="4.567980">
<ele>4.8</ele>
<time>2026-02-13T16:10:05Z</time>
</trkpt>
<trkpt lat="52.335252" lon="4.567977">
<ele>4.8</ele>
<time>2026-02-13T16:10:06Z</time>
</trkpt>
<trkpt lat="52.335257" lon="4.567974">
<ele>4.9</ele>
<time>2026-02-13T16:10:06Z</time>
</trkpt>
<trkpt lat="52.335264" lon="4.567970">
<ele>4.7</ele>
<time>2026-02-13T16:10:07Z</time>
</trkpt>
<trkpt lat="52.335277" lon="4.567965">
<ele>4.7</ele>
<time>2026-02-13T16:10:08Z</time>
</trkpt>
<trkpt lat="52.335283" lon="4.567963">
<ele>4.5</ele>
<time>2026-02-13T16:10:08Z</time>
</trkpt>
<trkpt lat="52.335289" lon="4.567959">
<ele>4.5</ele>
<time>2026-02-13T16:10:09Z</time>
</trkpt>
<trkpt lat="52.335294" lon="4.567954">
<ele>4.4</ele>
<time>2026-02-13T16:10:09Z</time>
</trkpt>
<trkpt lat="52.335298" lon="4.567949">
<ele>4.4</ele>
<time>2026-02-13T16:10:10Z</time>
</trkpt>
<trkpt lat="52.335303" lon="4.567943">
<ele>4.4</ele>
<time>2026-02-13T16:10:10Z</time>
</trkpt>
<trkpt lat="52.335308" lon="4.567937">
<ele>4.3</ele>
<time>2026-02-13T16:10:11Z</time>
</trkpt>
<trkpt lat="52.335314" lon="4.567931">
<ele>4.3</ele>
<time>2026-02-13T16:10:11Z</time>
</trkpt>
<trkpt lat="52.335320" lon="4.567924">
<ele>4.1</ele>
<time>2026-02-13T16:10:12Z</time>
</trkpt>
<trkpt lat="52.335331" lon="4.567917">
<ele>4.3</ele>
<time>2026-02-13T16:10:12Z</time>
</trkpt>
<trkpt lat="52.335334" lon="4.567918">
<ele>4.1</ele>
<time>2026-02-13T16:10:13Z</time>
</trkpt>
<trkpt lat="52.335340" lon="4.567914">
<ele>4.1</ele>
<time>2026-02-13T16:10:13Z</time>
</trkpt>
<trkpt lat="52.335347" lon="4.567911">
<ele>4.1</ele>
<time>2026-02-13T16:10:14Z</time>
</trkpt>
<trkpt lat="52.335353" lon="4.567905">
<ele>4.1</ele>
<time>2026-02-13T16:10:14Z</time>
</trkpt>
<trkpt lat="52.335362" lon="4.567905">
<ele>3.9</ele>
<time>2026-02-13T16:10:15Z</time>
</trkpt>
<trkpt lat="52.335369" lon="4.567904">
<ele>3.9</ele>
<time>2026-02-13T16:10:15Z</time>
</trkpt>
<trkpt lat="52.335380" lon="4.567909">
<ele>3.6</ele>
<time>2026-02-13T16:10:16Z</time>
</trkpt>
<trkpt lat="52.335389" lon="4.567915">
<ele>3.3</ele>
<time>2026-02-13T16:10:17Z</time>
</trkpt>
<trkpt lat="52.335395" lon="4.567920">
<ele>3.3</ele>
<time>2026-02-13T16:10:17Z</time>
</trkpt>
<trkpt lat="52.335401" lon="4.567930">
<ele>3.4</ele>
<time>2026-02-13T16:10:18Z</time>
</trkpt>
<trkpt lat="52.335411" lon="4.567945">
<ele>3.4</ele>
<time>2026-02-13T16:10:18Z</time>
</trkpt>
<trkpt lat="52.335414" lon="4.567965">
<ele>3.2</ele>
<time>2026-02-13T16:10:19Z</time>
</trkpt>
<trkpt lat="52.335416" lon="4.567987">
<ele>3.2</ele>
<time>2026-02-13T16:10:20Z</time>
</trkpt>
<trkpt lat="52.335416" lon="4.567997">
<ele>3.2</ele>
<time>2026-02-13T16:10:20Z</time>
</trkpt>
<trkpt lat="52.335416" lon="4.568011">
<ele>3.1</ele>
<time>2026-02-13T16:10:21Z</time>
</trkpt>
<trkpt lat="52.335417" lon="4.568026">
<ele>3.1</ele>
<time>2026-02-13T16:10:21Z</time>
</trkpt>
<trkpt lat="52.335418" lon="4.568038">
<ele>3.1</ele>
<time>2026-02-13T16:10:22Z</time>
</trkpt>
<trkpt lat="52.335418" lon="4.568052">
<ele>3.0</ele>
<time>2026-02-13T16:10:22Z</time>
</trkpt>
<trkpt lat="52.335417" lon="4.568064">
<ele>2.9</ele>
<time>2026-02-13T16:10:23Z</time>
</trkpt>
<trkpt lat="52.335418" lon="4.568078">
<ele>2.9</ele>
<time>2026-02-13T16:10:23Z</time>
</trkpt>
<trkpt lat="52.335420" lon="4.568103">
<ele>3.0</ele>
<time>2026-02-13T16:10:24Z</time>
</trkpt>
<trkpt lat="52.335424" lon="4.568126">
<ele>2.9</ele>
<time>2026-02-13T16:10:25Z</time>
</trkpt>
<trkpt lat="52.335425" lon="4.568151">
<ele>3.0</ele>
<time>2026-02-13T16:10:26Z</time>
</trkpt>
<trkpt lat="52.335424" lon="4.568187">
<ele>3.1</ele>
<time>2026-02-13T16:10:27Z</time>
</trkpt>
<trkpt lat="52.335421" lon="4.568198">
<ele>3.1</ele>
<time>2026-02-13T16:10:28Z</time>
</trkpt>
<trkpt lat="52.335421" lon="4.568211">
<ele>3.1</ele>
<time>2026-02-13T16:10:28Z</time>
</trkpt>
<trkpt lat="52.335420" lon="4.568223">
<ele>2.8</ele>
<time>2026-02-13T16:10:29Z</time>
</trkpt>
<trkpt lat="52.335420" lon="4.568237">
<ele>2.8</ele>
<time>2026-02-13T16:10:30Z</time>
</trkpt>
<trkpt lat="52.335413" lon="4.568259">
<ele>2.9</ele>
<time>2026-02-13T16:10:31Z</time>
</trkpt>
<trkpt lat="52.335409" lon="4.568282">
<ele>2.9</ele>
<time>2026-02-13T16:10:31Z</time>
</trkpt>
<trkpt lat="52.335404" lon="4.568306">
<ele>2.8</ele>
<time>2026-02-13T16:10:33Z</time>
</trkpt>
<trkpt lat="52.335397" lon="4.568327">
<ele>2.5</ele>
<time>2026-02-13T16:10:34Z</time>
</trkpt>
<trkpt lat="52.335395" lon="4.568339">
<ele>2.5</ele>
<time>2026-02-13T16:10:34Z</time>
</trkpt>
<trkpt lat="52.335393" lon="4.568351">
<ele>2.5</ele>
<time>2026-02-13T16:10:35Z</time>
</trkpt>
<trkpt lat="52.335392" lon="4.568367">
<ele>2.5</ele>
<time>2026-02-13T16:10:36Z</time>
</trkpt>
<trkpt lat="52.335390" lon="4.568388">
<ele>2.5</ele>
<time>2026-02-13T16:10:37Z</time>
</trkpt>
<trkpt lat="52.335387" lon="4.568396">
<ele>2.4</ele>
<time>2026-02-13T16:10:37Z</time>
</trkpt>
<trkpt lat="52.335383" lon="4.568406">
<ele>2.4</ele>
<time>2026-02-13T16:10:38Z</time>
</trkpt>
<trkpt lat="52.335380" lon="4.568414">
<ele>2.9</ele>
<time>2026-02-13T16:10:38Z</time>
</trkpt>
<trkpt lat="52.335379" lon="4.568425">
<ele>3.1</ele>
<time>2026-02-13T16:10:39Z</time>
</trkpt>
<trkpt lat="52.335378" lon="4.568437">
<ele>3.1</ele>
<time>2026-02-13T16:10:39Z</time>
</trkpt>
<trkpt lat="52.335385" lon="4.568455">
<ele>2.8</ele>
<time>2026-02-13T16:10:41Z</time>
</trkpt>
<trkpt lat="52.335390" lon="4.568469">
<ele>3.1</ele>
<time>2026-02-13T16:10:41Z</time>
</trkpt>
<trkpt lat="52.335387" lon="4.568474">
<ele>3.1</ele>
<time>2026-02-13T16:10:42Z</time>
</trkpt>
<trkpt lat="52.335383" lon="4.568482">
<ele>3.3</ele>
<time>2026-02-13T16:10:43Z</time>
</trkpt>
<trkpt lat="52.335379" lon="4.568490">
<ele>3.3</ele>
<time>2026-02-13T16:10:43Z</time>
</trkpt>
<trkpt lat="52.335375" lon="4.568497">
<ele>3.3</ele>
<time>2026-02-13T16:10:44Z</time>
</trkpt>
<trkpt lat="52.335372" lon="4.568506">
<ele>3.3</ele>
<time>2026-02-13T16:10:44Z</time>
</trkpt>
<trkpt lat="52.335367" lon="4.568514">
<ele>3.3</ele>
<time>2026-02-13T16:10:45Z</time>
</trkpt>
<trkpt lat="52.335360" lon="4.568527">
<ele>3.2</ele>
<time>2026-02-13T16:10:46Z</time>
</trkpt>
<trkpt lat="52.335355" lon="4.568535">
<ele>3.2</ele>
<time>2026-02-13T16:10:46Z</time>
</trkpt>
<trkpt lat="52.335344" lon="4.568547">
<ele>3.3</ele>
<time>2026-02-13T16:10:47Z</time>
</trkpt>
<trkpt lat="52.335336" lon="4.568552">
<ele>3.4</ele>
<time>2026-02-13T16:10:48Z</time>
</trkpt>
<trkpt lat="52.335324" lon="4.568561">
<ele>3.1</ele>
<time>2026-02-13T16:10:49Z</time>
</trkpt>
<trkpt lat="52.335317" lon="4.568566">
<ele>3.1</ele>
<time>2026-02-13T16:10:49Z</time>
</trkpt>
<trkpt lat="52.335311" lon="4.568569">
<ele>3.0</ele>
<time>2026-02-13T16:10:50Z</time>
</trkpt>
<trkpt lat="52.335305" lon="4.568574">
<ele>3.0</ele>
<time>2026-02-13T16:10:50Z</time>
</trkpt>
<trkpt lat="52.335297" lon="4.568583">
<ele>2.8</ele>
<time>2026-02-13T16:10:51Z</time>
</trkpt>
<trkpt lat="52.335289" lon="4.568590">
<ele>2.8</ele>
<time>2026-02-13T16:10:52Z</time>
</trkpt>
<trkpt lat="52.335282" lon="4.568598">
<ele>2.8</ele>
<time>2026-02-13T16:10:52Z</time>
</trkpt>
<trkpt lat="52.335273" lon="4.568615">
<ele>2.7</ele>
<time>2026-02-13T16:10:53Z</time>
</trkpt>
<trkpt lat="52.335271" lon="4.568626">
<ele>2.7</ele>
<time>2026-02-13T16:10:54Z</time>
</trkpt>
<trkpt lat="52.335268" lon="4.568639">
<ele>2.7</ele>
<time>2026-02-13T16:10:54Z</time>
</trkpt>
<trkpt lat="52.335267" lon="4.568650">
<ele>2.7</ele>
<time>2026-02-13T16:10:55Z</time>
</trkpt>
<trkpt lat="52.335265" lon="4.568664">
<ele>2.7</ele>
<time>2026-02-13T16:10:55Z</time>
</trkpt>
<trkpt lat="52.335262" lon="4.568686">
<ele>3.0</ele>
<time>2026-02-13T16:10:56Z</time>
</trkpt>
<trkpt lat="52.335260" lon="4.568693">
<ele>3.0</ele>
<time>2026-02-13T16:10:56Z</time>
</trkpt>
<trkpt lat="52.335259" lon="4.568707">
<ele>2.9</ele>
<time>2026-02-13T16:10:57Z</time>
</trkpt>
<trkpt lat="52.335256" lon="4.568725">
<ele>2.5</ele>
<time>2026-02-13T16:10:58Z</time>
</trkpt>
<trkpt lat="52.335254" lon="4.568741">
<ele>2.5</ele>
<time>2026-02-13T16:10:58Z</time>
</trkpt>
<trkpt lat="52.335251" lon="4.568764">
<ele>2.7</ele>
<time>2026-02-13T16:10:59Z</time>
</trkpt>
<trkpt lat="52.335250" lon="4.568779">
<ele>2.5</ele>
<time>2026-02-13T16:11:00Z</time>
</trkpt>
<trkpt lat="52.335248" lon="4.568797">
<ele>2.3</ele>
<time>2026-02-13T16:11:01Z</time>
</trkpt>
<trkpt lat="52.335246" lon="4.568811">
<ele>2.3</ele>
<time>2026-02-13T16:11:01Z</time>
</trkpt>
<trkpt lat="52.335247" lon="4.568823">
<ele>2.3</ele>
<time>2026-02-13T16:11:02Z</time>
</trkpt>
<trkpt lat="52.335245" lon="4.568835">
<ele>2.3</ele>
<time>2026-02-13T16:11:02Z</time>
</trkpt>
<trkpt lat="52.335246" lon="4.568845">
<ele>2.0</ele>
<time>2026-02-13T16:11:03Z</time>
</trkpt>
<trkpt lat="52.335242" lon="4.568867">
<ele>2.0</ele>
<time>2026-02-13T16:11:03Z</time>
</trkpt>
<trkpt lat="52.335241" lon="4.568882">
<ele>2.0</ele>
<time>2026-02-13T16:11:04Z</time>
</trkpt>
<trkpt lat="52.335239" lon="4.568902">
<ele>2.2</ele>
<time>2026-02-13T16:11:05Z</time>
</trkpt>
<trkpt lat="52.335239" lon="4.568912">
<ele>1.9</ele>
<time>2026-02-13T16:11:06Z</time>
</trkpt>
<trkpt lat="52.335237" lon="4.568924">
<ele>1.9</ele>
<time>2026-02-13T16:11:06Z</time>
</trkpt>
<trkpt lat="52.335236" lon="4.568934">
<ele>2.0</ele>
<time>2026-02-13T16:11:07Z</time>
</trkpt>
<trkpt lat="52.335233" lon="4.568947">
<ele>2.0</ele>
<time>2026-02-13T16:11:07Z</time>
</trkpt>
<trkpt lat="52.335227" lon="4.568968">
<ele>1.9</ele>
<time>2026-02-13T16:11:08Z</time>
</trkpt>
<trkpt lat="52.335222" lon="4.568982">
<ele>1.4</ele>
<time>2026-02-13T16:11:09Z</time>
</trkpt>
<trkpt lat="52.335216" lon="4.568997">
<ele>1.4</ele>
<time>2026-02-13T16:11:10Z</time>
</trkpt>
<trkpt lat="52.335209" lon="4.569019">
<ele>1.4</ele>
<time>2026-02-13T16:11:10Z</time>
</trkpt>
<trkpt lat="52.335203" lon="4.569031">
<ele>1.3</ele>
<time>2026-02-13T16:11:11Z</time>
</trkpt>
<trkpt lat="52.335195" lon="4.569049">
<ele>1.5</ele>
<time>2026-02-13T16:11:12Z</time>
</trkpt>
<trkpt lat="52.335186" lon="4.569068">
<ele>1.4</ele>
<time>2026-02-13T16:11:13Z</time>
</trkpt>
<trkpt lat="52.335181" lon="4.569080">
<ele>1.3</ele>
<time>2026-02-13T16:11:14Z</time>
</trkpt>
<trkpt lat="52.335174" lon="4.569095">
<ele>1.1</ele>
<time>2026-02-13T16:11:15Z</time>
</trkpt>
<trkpt lat="52.335170" lon="4.569107">
<ele>1.1</ele>
<time>2026-02-13T16:11:15Z</time>
</trkpt>
<trkpt lat="52.335166" lon="4.569118">
<ele>1.1</ele>
<time>2026-02-13T16:11:16Z</time>
</trkpt>
<trkpt lat="52.335163" lon="4.569136">
<ele>1.2</ele>
<time>2026-02-13T16:11:17Z</time>
</trkpt>
<trkpt lat="52.335162" lon="4.569145">
<ele>1.2</ele>
<time>2026-02-13T16:11:17Z</time>
</trkpt>
<trkpt lat="52.335160" lon="4.569164">
<ele>1.2</ele>
<time>2026-02-13T16:11:18Z</time>
</trkpt>
<trkpt lat="52.335159" lon="4.569175">
<ele>1.2</ele>
<time>2026-02-13T16:11:18Z</time>
</trkpt>
<trkpt lat="52.335158" lon="4.569187">
<ele>1.2</ele>
<time>2026-02-13T16:11:19Z</time>
</trkpt>
<trkpt lat="52.335157" lon="4.569206">
<ele>0.7</ele>
<time>2026-02-13T16:11:20Z</time>
</trkpt>
<trkpt lat="52.335156" lon="4.569225">
<ele>0.7</ele>
<time>2026-02-13T16:11:20Z</time>
</trkpt>
<trkpt lat="52.335160" lon="4.569249">
<ele>0.7</ele>
<time>2026-02-13T16:11:21Z</time>
</trkpt>
<trkpt lat="52.335165" lon="4.569259">
<ele>0.7</ele>
<time>2026-02-13T16:11:22Z</time>
</trkpt>
<trkpt lat="52.335169" lon="4.569271">
<ele>0.7</ele>
<time>2026-02-13T16:11:22Z</time>
</trkpt>
<trkpt lat="52.335176" lon="4.569278">
<ele>0.7</ele>
<time>2026-02-13T16:11:23Z</time>
</trkpt>
<trkpt lat="52.335182" lon="4.569288">
<ele>0.7</ele>
<time>2026-02-13T16:11:23Z</time>
</trkpt>
<trkpt lat="52.335190" lon="4.569295">
<ele>0.7</ele>
<time>2026-02-13T16:11:24Z</time>
</trkpt>
<trkpt lat="52.335197" lon="4.569302">
<ele>0.7</ele>
<time>2026-02-13T16:11:24Z</time>
</trkpt>
<trkpt lat="52.335205" lon="4.569308">
<ele>1.0</ele>
<time>2026-02-13T16:11:25Z</time>
</trkpt>
<trkpt lat="52.335212" lon="4.569314">
<ele>1.0</ele>
<time>2026-02-13T16:11:25Z</time>
</trkpt>
<trkpt lat="52.335221" lon="4.569318">
<ele>0.9</ele>
<time>2026-02-13T16:11:26Z</time>
</trkpt>
<trkpt lat="52.335228" lon="4.569325">
<ele>0.9</ele>
<time>2026-02-13T16:11:26Z</time>
</trkpt>
<trkpt lat="52.335236" lon="4.569330">
<ele>0.7</ele>
<time>2026-02-13T16:11:27Z</time>
</trkpt>
<trkpt lat="52.335243" lon="4.569335">
<ele>0.7</ele>
<time>2026-02-13T16:11:27Z</time>
</trkpt>
<trkpt lat="52.335250" lon="4.569340">
<ele>0.9</ele>
<time>2026-02-13T16:11:28Z</time>
</trkpt>
<trkpt lat="52.335258" lon="4.569345">
<ele>0.9</ele>
<time>2026-02-13T16:11:28Z</time>
</trkpt>
<trkpt lat="52.335266" lon="4.569350">
<ele>0.9</ele>
<time>2026-02-13T16:11:29Z</time>
</trkpt>
<trkpt lat="52.335280" lon="4.569359">
<ele>0.9</ele>
<time>2026-02-13T16:11:29Z</time>
</trkpt>
<trkpt lat="52.335283" lon="4.569363">
<ele>0.9</ele>
<time>2026-02-13T16:11:30Z</time>
</trkpt>
<trkpt lat="52.335288" lon="4.569368">
<ele>0.9</ele>
<time>2026-02-13T16:11:30Z</time>
</trkpt>
<trkpt lat="52.335297" lon="4.569374">
<ele>1.0</ele>
<time>2026-02-13T16:11:31Z</time>
</trkpt>
<trkpt lat="52.335310" lon="4.569385">
<ele>0.9</ele>
<time>2026-02-13T16:11:32Z</time>
</trkpt>
<trkpt lat="52.335316" lon="4.569389">
<ele>0.9</ele>
<time>2026-02-13T16:11:32Z</time>
</trkpt>
<trkpt lat="52.335327" lon="4.569393">
<ele>0.9</ele>
<time>2026-02-13T16:11:33Z</time>
</trkpt>
<trkpt lat="52.335335" lon="4.569395">
<ele>1.1</ele>
<time>2026-02-13T16:11:34Z</time>
</trkpt>
<trkpt lat="52.335350" lon="4.569398">
<ele>0.9</ele>
<time>2026-02-13T16:11:35Z</time>
</trkpt>
<trkpt lat="52.335365" lon="4.569405">
<ele>1.2</ele>
<time>2026-02-13T16:11:36Z</time>
</trkpt>
<trkpt lat="52.335375" lon="4.569411">
<ele>1.2</ele>
<time>2026-02-13T16:11:36Z</time>
</trkpt>
<trkpt lat="52.335387" lon="4.569420">
<ele>1.2</ele>
<time>2026-02-13T16:11:37Z</time>
</trkpt>
<trkpt lat="52.335398" lon="4.569425">
<ele>1.2</ele>
<time>2026-02-13T16:11:38Z</time>
</trkpt>
<trkpt lat="52.335409" lon="4.569443">
<ele>1.0</ele>
<time>2026-02-13T16:11:39Z</time>
</trkpt>
<trkpt lat="52.335421" lon="4.569462">
<ele>0.9</ele>
<time>2026-02-13T16:11:40Z</time>
</trkpt>
<trkpt lat="52.335431" lon="4.569477">
<ele>0.9</ele>
<time>2026-02-13T16:11:40Z</time>
</trkpt>
<trkpt lat="52.335442" lon="4.569496">
<ele>1.2</ele>
<time>2026-02-13T16:11:41Z</time>
</trkpt>
<trkpt lat="52.335453" lon="4.569512">
<ele>1.2</ele>
<time>2026-02-13T16:11:42Z</time>
</trkpt>
<trkpt lat="52.335458" lon="4.569518">
<ele>1.2</ele>
<time>2026-02-13T16:11:43Z</time>
</trkpt>
<trkpt lat="52.335469" lon="4.569530">
<ele>1.1</ele>
<time>2026-02-13T16:11:44Z</time>
</trkpt>
<trkpt lat="52.335476" lon="4.569544">
<ele>1.1</ele>
<time>2026-02-13T16:11:44Z</time>
</trkpt>
<trkpt lat="52.335481" lon="4.569552">
<ele>1.2</ele>
<time>2026-02-13T16:11:45Z</time>
</trkpt>
<trkpt lat="52.335491" lon="4.569564">
<ele>1.5</ele>
<time>2026-02-13T16:11:46Z</time>
</trkpt>
<trkpt lat="52.335500" lon="4.569574">
<ele>1.5</ele>
<time>2026-02-13T16:11:46Z</time>
</trkpt>
<trkpt lat="52.335515" lon="4.569582">
<ele>1.6</ele>
<time>2026-02-13T16:11:47Z</time>
</trkpt>
<trkpt lat="52.335527" lon="4.569595">
<ele>1.2</ele>
<time>2026-02-13T16:11:48Z</time>
</trkpt>
<trkpt lat="52.335537" lon="4.569610">
<ele>1.2</ele>
<time>2026-02-13T16:11:49Z</time>
</trkpt>
<trkpt lat="52.335544" lon="4.569619">
<ele>1.2</ele>
<time>2026-02-13T16:11:50Z</time>
</trkpt>
<trkpt lat="52.335548" lon="4.569625">
<ele>1.2</ele>
<time>2026-02-13T16:11:50Z</time>
</trkpt>
<trkpt lat="52.335552" lon="4.569632">
<ele>1.2</ele>
<time>2026-02-13T16:11:51Z</time>
</trkpt>
<trkpt lat="52.335558" lon="4.569641">
<ele>1.2</ele>
<time>2026-02-13T16:11:51Z</time>
</trkpt>
<trkpt lat="52.335568" lon="4.569658">
<ele>1.1</ele>
<time>2026-02-13T16:11:52Z</time>
</trkpt>
<trkpt lat="52.335573" lon="4.569666">
<ele>1.1</ele>
<time>2026-02-13T16:11:53Z</time>
</trkpt>
<trkpt lat="52.335580" lon="4.569675">
<ele>1.2</ele>
<time>2026-02-13T16:11:53Z</time>
</trkpt>
<trkpt lat="52.335592" lon="4.569688">
<ele>1.4</ele>
<time>2026-02-13T16:11:54Z</time>
</trkpt>
<trkpt lat="52.335603" lon="4.569698">
<ele>1.2</ele>
<time>2026-02-13T16:11:55Z</time>
</trkpt>
<trkpt lat="52.335609" lon="4.569705">
<ele>0.9</ele>
<time>2026-02-13T16:11:56Z</time>
</trkpt>
<trkpt lat="52.335626" lon="4.569720">
<ele>0.9</ele>
<time>2026-02-13T16:11:56Z</time>
</trkpt>
<trkpt lat="52.335634" lon="4.569731">
<ele>1.2</ele>
<time>2026-02-13T16:11:57Z</time>
</trkpt>
<trkpt lat="52.335646" lon="4.569746">
<ele>1.3</ele>
<time>2026-02-13T16:11:58Z</time>
</trkpt>
<trkpt lat="52.335652" lon="4.569754">
<ele>1.0</ele>
<time>2026-02-13T16:11:59Z</time>
</trkpt>
<trkpt lat="52.335658" lon="4.569762">
<ele>1.0</ele>
<time>2026-02-13T16:11:59Z</time>
</trkpt>
<trkpt lat="52.335665" lon="4.569771">
<ele>1.0</ele>
<time>2026-02-13T16:12:00Z</time>
</trkpt>
<trkpt lat="52.335671" lon="4.569781">
<ele>1.1</ele>
<time>2026-02-13T16:12:01Z</time>
</trkpt>
<trkpt lat="52.335679" lon="4.569793">
<ele>1.1</ele>
<time>2026-02-13T16:12:01Z</time>
</trkpt>
<trkpt lat="52.335684" lon="4.569801">
<ele>1.0</ele>
<time>2026-02-13T16:12:02Z</time>
</trkpt>
<trkpt lat="52.335690" lon="4.569808">
<ele>1.0</ele>
<time>2026-02-13T16:12:02Z</time>
</trkpt>
<trkpt lat="52.335695" lon="4.569816">
<ele>1.1</ele>
<time>2026-02-13T16:12:03Z</time>
</trkpt>
<trkpt lat="52.335703" lon="4.569826">
<ele>0.7</ele>
<time>2026-02-13T16:12:04Z</time>
</trkpt>
<trkpt lat="52.335712" lon="4.569836">
<ele>0.7</ele>
<time>2026-02-13T16:12:04Z</time>
</trkpt>
<trkpt lat="52.335717" lon="4.569842">
<ele>1.0</ele>
<time>2026-02-13T16:12:05Z</time>
</trkpt>
<trkpt lat="52.335723" lon="4.569849">
<ele>1.0</ele>
<time>2026-02-13T16:12:05Z</time>
</trkpt>
<trkpt lat="52.335734" lon="4.569864">
<ele>1.0</ele>
<time>2026-02-13T16:12:06Z</time>
</trkpt>
<trkpt lat="52.335739" lon="4.569870">
<ele>0.7</ele>
<time>2026-02-13T16:12:07Z</time>
</trkpt>
<trkpt lat="52.335746" lon="4.569876">
<ele>0.7</ele>
<time>2026-02-13T16:12:07Z</time>
</trkpt>
<trkpt lat="52.335751" lon="4.569884">
<ele>0.8</ele>
<time>2026-02-13T16:12:08Z</time>
</trkpt>
<trkpt lat="52.335758" lon="4.569890">
<ele>0.8</ele>
<time>2026-02-13T16:12:08Z</time>
</trkpt>
<trkpt lat="52.335764" lon="4.569896">
<ele>0.7</ele>
<time>2026-02-13T16:12:09Z</time>
</trkpt>
<trkpt lat="52.335771" lon="4.569902">
<ele>0.7</ele>
<time>2026-02-13T16:12:09Z</time>
</trkpt>
<trkpt lat="52.335778" lon="4.569910">
<ele>1.0</ele>
<time>2026-02-13T16:12:10Z</time>
</trkpt>
<trkpt lat="52.335790" lon="4.569923">
<ele>1.0</ele>
<time>2026-02-13T16:12:11Z</time>
</trkpt>
<trkpt lat="52.335796" lon="4.569930">
<ele>1.0</ele>
<time>2026-02-13T16:12:11Z</time>
</trkpt>
<trkpt lat="52.335801" lon="4.569939">
<ele>1.0</ele>
<time>2026-02-13T16:12:12Z</time>
</trkpt>
<trkpt lat="52.335807" lon="4.569947">
<ele>1.0</ele>
<time>2026-02-13T16:12:12Z</time>
</trkpt>
<trkpt lat="52.335812" lon="4.569956">
<ele>0.9</ele>
<time>2026-02-13T16:12:13Z</time>
</trkpt>
<trkpt lat="52.335818" lon="4.569963">
<ele>0.9</ele>
<time>2026-02-13T16:12:13Z</time>
</trkpt>
<trkpt lat="52.335824" lon="4.569971">
<ele>0.9</ele>
<time>2026-02-13T16:12:14Z</time>
</trkpt>
<trkpt lat="52.335838" lon="4.569987">
<ele>1.0</ele>
<time>2026-02-13T16:12:15Z</time>
</trkpt>
<trkpt lat="52.335842" lon="4.569994">
<ele>1.2</ele>
<time>2026-02-13T16:12:15Z</time>
</trkpt>
<trkpt lat="52.335852" lon="4.570007">
<ele>1.3</ele>
<time>2026-02-13T16:12:16Z</time>
</trkpt>
<trkpt lat="52.335858" lon="4.570017">
<ele>1.3</ele>
<time>2026-02-13T16:12:17Z</time>
</trkpt>
<trkpt lat="52.335869" lon="4.570031">
<ele>1.3</ele>
<time>2026-02-13T16:12:18Z</time>
</trkpt>
<trkpt lat="52.335884" lon="4.570050">
<ele>0.9</ele>
<time>2026-02-13T16:12:19Z</time>
</trkpt>
<trkpt lat="52.335897" lon="4.570064">
<ele>0.9</ele>
<time>2026-02-13T16:12:20Z</time>
</trkpt>
<trkpt lat="52.335912" lon="4.570072">
<ele>0.9</ele>
<time>2026-02-13T16:12:21Z</time>
</trkpt>
<trkpt lat="52.335926" lon="4.570083">
<ele>0.8</ele>
<time>2026-02-13T16:12:22Z</time>
</trkpt>
<trkpt lat="52.335934" lon="4.570091">
<ele>0.8</ele>
<time>2026-02-13T16:12:22Z</time>
</trkpt>
<trkpt lat="52.335940" lon="4.570096">
<ele>1.1</ele>
<time>2026-02-13T16:12:23Z</time>
</trkpt>
<trkpt lat="52.335947" lon="4.570100">
<ele>1.1</ele>
<time>2026-02-13T16:12:23Z</time>
</trkpt>
<trkpt lat="52.335960" lon="4.570112">
<ele>1.0</ele>
<time>2026-02-13T16:12:24Z</time>
</trkpt>
<trkpt lat="52.335966" lon="4.570121">
<ele>0.8</ele>
<time>2026-02-13T16:12:25Z</time>
</trkpt>
<trkpt lat="52.335972" lon="4.570126">
<ele>0.8</ele>
<time>2026-02-13T16:12:25Z</time>
</trkpt>
<trkpt lat="52.335978" lon="4.570135">
<ele>1.0</ele>
<time>2026-02-13T16:12:26Z</time>
</trkpt>
<trkpt lat="52.335985" lon="4.570139">
<ele>1.0</ele>
<time>2026-02-13T16:12:26Z</time>
</trkpt>
<trkpt lat="52.335991" lon="4.570147">
<ele>1.2</ele>
<time>2026-02-13T16:12:27Z</time>
</trkpt>
<trkpt lat="52.336002" lon="4.570160">
<ele>1.0</ele>
<time>2026-02-13T16:12:28Z</time>
</trkpt>
<trkpt lat="52.336011" lon="4.570168">
<ele>1.0</ele>
<time>2026-02-13T16:12:28Z</time>
</trkpt>
<trkpt lat="52.336016" lon="4.570177">
<ele>1.1</ele>
<time>2026-02-13T16:12:29Z</time>
</trkpt>
<trkpt lat="52.336023" lon="4.570182">
<ele>1.1</ele>
<time>2026-02-13T16:12:29Z</time>
</trkpt>
<trkpt lat="52.336028" lon="4.570192">
<ele>1.2</ele>
<time>2026-02-13T16:12:30Z</time>
</trkpt>
<trkpt lat="52.336044" lon="4.570204">
<ele>1.4</ele>
<time>2026-02-13T16:12:31Z</time>
</trkpt>
<trkpt lat="52.336052" lon="4.570218">
<ele>1.2</ele>
<time>2026-02-13T16:12:32Z</time>
</trkpt>
<trkpt lat="52.336057" lon="4.570228">
<ele>1.2</ele>
<time>2026-02-13T16:12:32Z</time>
</trkpt>
<trkpt lat="52.336062" lon="4.570234">
<ele>1.2</ele>
<time>2026-02-13T16:12:33Z</time>
</trkpt>
<trkpt lat="52.336073" lon="4.570249">
<ele>0.8</ele>
<time>2026-02-13T16:12:34Z</time>
</trkpt>
<trkpt lat="52.336078" lon="4.570260">
<ele>1.1</ele>
<time>2026-02-13T16:12:34Z</time>
</trkpt>
<trkpt lat="52.336082" lon="4.570269">
<ele>1.0</ele>
<time>2026-02-13T16:12:35Z</time>
</trkpt>
<trkpt lat="52.336093" lon="4.570282">
<ele>1.0</ele>
<time>2026-02-13T16:12:36Z</time>
</trkpt>
<trkpt lat="52.336097" lon="4.570294">
<ele>0.7</ele>
<time>2026-02-13T16:12:36Z</time>
</trkpt>
<trkpt lat="52.336103" lon="4.570302">
<ele>0.7</ele>
<time>2026-02-13T16:12:37Z</time>
</trkpt>
<trkpt lat="52.336108" lon="4.570313">
<ele>0.9</ele>
<time>2026-02-13T16:12:37Z</time>
</trkpt>
<trkpt lat="52.336114" lon="4.570321">
<ele>0.9</ele>
<time>2026-02-13T16:12:37Z</time>
</trkpt>
<trkpt lat="52.336128" lon="4.570342">
<ele>0.9</ele>
<time>2026-02-13T16:12:39Z</time>
</trkpt>
<trkpt lat="52.336136" lon="4.570353">
<ele>1.2</ele>
<time>2026-02-13T16:12:39Z</time>
</trkpt>
<trkpt lat="52.336141" lon="4.570359">
<ele>1.2</ele>
<time>2026-02-13T16:12:40Z</time>
</trkpt>
<trkpt lat="52.336148" lon="4.570365">
<ele>1.2</ele>
<time>2026-02-13T16:12:40Z</time>
</trkpt>
<trkpt lat="52.336154" lon="4.570370">
<ele>1.2</ele>
<time>2026-02-13T16:12:41Z</time>
</trkpt>
<trkpt lat="52.336160" lon="4.570374">
<ele>1.2</ele>
<time>2026-02-13T16:12:41Z</time>
</trkpt>
<trkpt lat="52.336178" lon="4.570388">
<ele>1.4</ele>
<time>2026-02-13T16:12:43Z</time>
</trkpt>
<trkpt lat="52.336191" lon="4.570400">
<ele>1.2</ele>
<time>2026-02-13T16:12:44Z</time>
</trkpt>
<trkpt lat="52.336202" lon="4.570412">
<ele>1.6</ele>
<time>2026-02-13T16:12:45Z</time>
</trkpt>
<trkpt lat="52.336209" lon="4.570421">
<ele>1.7</ele>
<time>2026-02-13T16:12:45Z</time>
</trkpt>
<trkpt lat="52.336219" lon="4.570428">
<ele>1.2</ele>
<time>2026-02-13T16:12:46Z</time>
</trkpt>
<trkpt lat="52.336231" lon="4.570439">
<ele>1.2</ele>
<time>2026-02-13T16:12:47Z</time>
</trkpt>
<trkpt lat="52.336243" lon="4.570457">
<ele>1.2</ele>
<time>2026-02-13T16:12:48Z</time>
</trkpt>
<trkpt lat="52.336249" lon="4.570468">
<ele>1.3</ele>
<time>2026-02-13T16:12:49Z</time>
</trkpt>
<trkpt lat="52.336256" lon="4.570475">
<ele>1.3</ele>
<time>2026-02-13T16:12:49Z</time>
</trkpt>
<trkpt lat="52.336262" lon="4.570485">
<ele>1.3</ele>
<time>2026-02-13T16:12:50Z</time>
</trkpt>
<trkpt lat="52.336269" lon="4.570492">
<ele>1.3</ele>
<time>2026-02-13T16:12:50Z</time>
</trkpt>
<trkpt lat="52.336275" lon="4.570502">
<ele>1.4</ele>
<time>2026-02-13T16:12:51Z</time>
</trkpt>
<trkpt lat="52.336282" lon="4.570509">
<ele>1.4</ele>
<time>2026-02-13T16:12:51Z</time>
</trkpt>
<trkpt lat="52.336294" lon="4.570525">
<ele>1.5</ele>
<time>2026-02-13T16:12:52Z</time>
</trkpt>
<trkpt lat="52.336300" lon="4.570535">
<ele>1.6</ele>
<time>2026-02-13T16:12:53Z</time>
</trkpt>
<trkpt lat="52.336307" lon="4.570543">
<ele>1.6</ele>
<time>2026-02-13T16:12:53Z</time>
</trkpt>
<trkpt lat="52.336312" lon="4.570552">
<ele>1.4</ele>
<time>2026-02-13T16:12:54Z</time>
</trkpt>
<trkpt lat="52.336325" lon="4.570570">
<ele>1.4</ele>
<time>2026-02-13T16:12:55Z</time>
</trkpt>
<trkpt lat="52.336335" lon="4.570588">
<ele>1.6</ele>
<time>2026-02-13T16:12:56Z</time>
</trkpt>
<trkpt lat="52.336342" lon="4.570604">
<ele>1.5</ele>
<time>2026-02-13T16:12:57Z</time>
</trkpt>
<trkpt lat="52.336346" lon="4.570613">
<ele>1.5</ele>
<time>2026-02-13T16:12:57Z</time>
</trkpt>
<trkpt lat="52.336350" lon="4.570622">
<ele>1.5</ele>
<time>2026-02-13T16:12:58Z</time>
</trkpt>
<trkpt lat="52.336356" lon="4.570638">
<ele>1.5</ele>
<time>2026-02-13T16:12:58Z</time>
</trkpt>
<trkpt lat="52.336363" lon="4.570652">
<ele>1.6</ele>
<time>2026-02-13T16:12:59Z</time>
</trkpt>
<trkpt lat="52.336366" lon="4.570658">
<ele>1.6</ele>
<time>2026-02-13T16:13:00Z</time>
</trkpt>
<trkpt lat="52.336370" lon="4.570663">
<ele>1.5</ele>
<time>2026-02-13T16:13:00Z</time>
</trkpt>
<trkpt lat="52.336372" lon="4.570663">
<ele>1.5</ele>
<time>2026-02-13T16:13:00Z</time>
</trkpt>
<trkpt lat="52.336379" lon="4.570667">
<ele>1.5</ele>
<time>2026-02-13T16:13:01Z</time>
</trkpt>
<trkpt lat="52.336390" lon="4.570678">
<ele>1.2</ele>
<time>2026-02-13T16:13:02Z</time>
</trkpt>
<trkpt lat="52.336405" lon="4.570693">
<ele>1.5</ele>
<time>2026-02-13T16:13:03Z</time>
</trkpt>
<trkpt lat="52.336415" lon="4.570709">
<ele>1.5</ele>
<time>2026-02-13T16:13:03Z</time>
</trkpt>
<trkpt lat="52.336423" lon="4.570718">
<ele>1.5</ele>
<time>2026-02-13T16:13:04Z</time>
</trkpt>
<trkpt lat="52.336431" lon="4.570729">
<ele>1.2</ele>
<time>2026-02-13T16:13:05Z</time>
</trkpt>
<trkpt lat="52.336445" lon="4.570754">
<ele>1.4</ele>
<time>2026-02-13T16:13:06Z</time>
</trkpt>
<trkpt lat="52.336452" lon="4.570766">
<ele>1.4</ele>
<time>2026-02-13T16:13:06Z</time>
</trkpt>
<trkpt lat="52.336464" lon="4.570783">
<ele>1.7</ele>
<time>2026-02-13T16:13:08Z</time>
</trkpt>
<trkpt lat="52.336475" lon="4.570792">
<ele>1.7</ele>
<time>2026-02-13T16:13:08Z</time>
</trkpt>
<trkpt lat="52.336482" lon="4.570797">
<ele>1.8</ele>
<time>2026-02-13T16:13:09Z</time>
</trkpt>
<trkpt lat="52.336491" lon="4.570808">
<ele>1.8</ele>
<time>2026-02-13T16:13:10Z</time>
</trkpt>
<trkpt lat="52.336501" lon="4.570827">
<ele>1.9</ele>
<time>2026-02-13T16:13:11Z</time>
</trkpt>
<trkpt lat="52.336509" lon="4.570846">
<ele>1.8</ele>
<time>2026-02-13T16:13:12Z</time>
</trkpt>
<trkpt lat="52.336519" lon="4.570864">
<ele>1.9</ele>
<time>2026-02-13T16:13:13Z</time>
</trkpt>
<trkpt lat="52.336528" lon="4.570881">
<ele>2.1</ele>
<time>2026-02-13T16:13:14Z</time>
</trkpt>
<trkpt lat="52.336539" lon="4.570906">
<ele>2.0</ele>
<time>2026-02-13T16:13:15Z</time>
</trkpt>
<trkpt lat="52.336550" lon="4.570922">
<ele>1.6</ele>
<time>2026-02-13T16:13:16Z</time>
</trkpt>
<trkpt lat="52.336557" lon="4.570929">
<ele>1.6</ele>
<time>2026-02-13T16:13:16Z</time>
</trkpt>
<trkpt lat="52.336570" lon="4.570947">
<ele>1.5</ele>
<time>2026-02-13T16:13:18Z</time>
</trkpt>
<trkpt lat="52.336578" lon="4.570957">
<ele>1.6</ele>
<time>2026-02-13T16:13:18Z</time>
</trkpt>
<trkpt lat="52.336587" lon="4.570965">
<ele>1.5</ele>
<time>2026-02-13T16:13:19Z</time>
</trkpt>
<trkpt lat="52.336592" lon="4.570970">
<ele>1.5</ele>
<time>2026-02-13T16:13:20Z</time>
</trkpt>
<trkpt lat="52.336599" lon="4.570976">
<ele>1.6</ele>
<time>2026-02-13T16:13:20Z</time>
</trkpt>
<trkpt lat="52.336603" lon="4.570983">
<ele>1.6</ele>
<time>2026-02-13T16:13:21Z</time>
</trkpt>
<trkpt lat="52.336610" lon="4.570992">
<ele>1.7</ele>
<time>2026-02-13T16:13:21Z</time>
</trkpt>
<trkpt lat="52.336615" lon="4.571001">
<ele>1.7</ele>
<time>2026-02-13T16:13:22Z</time>
</trkpt>
<trkpt lat="52.336627" lon="4.571018">
<ele>1.8</ele>
<time>2026-02-13T16:13:22Z</time>
</trkpt>
<trkpt lat="52.336636" lon="4.571025">
<ele>1.7</ele>
<time>2026-02-13T16:13:23Z</time>
</trkpt>
<trkpt lat="52.336642" lon="4.571033">
<ele>1.7</ele>
<time>2026-02-13T16:13:23Z</time>
</trkpt>
<trkpt lat="52.336651" lon="4.571042">
<ele>1.8</ele>
<time>2026-02-13T16:13:24Z</time>
</trkpt>
<trkpt lat="52.336656" lon="4.571049">
<ele>1.8</ele>
<time>2026-02-13T16:13:24Z</time>
</trkpt>
<trkpt lat="52.336663" lon="4.571056">
<ele>1.9</ele>
<time>2026-02-13T16:13:25Z</time>
</trkpt>
<trkpt lat="52.336669" lon="4.571064">
<ele>1.9</ele>
<time>2026-02-13T16:13:25Z</time>
</trkpt>
<trkpt lat="52.336676" lon="4.571070">
<ele>1.6</ele>
<time>2026-02-13T16:13:26Z</time>
</trkpt>
<trkpt lat="52.336683" lon="4.571078">
<ele>1.6</ele>
<time>2026-02-13T16:13:26Z</time>
</trkpt>
<trkpt lat="52.336696" lon="4.571094">
<ele>1.7</ele>
<time>2026-02-13T16:13:27Z</time>
</trkpt>
<trkpt lat="52.336701" lon="4.571105">
<ele>1.7</ele>
<time>2026-02-13T16:13:28Z</time>
</trkpt>
<trkpt lat="52.336708" lon="4.571123">
<ele>1.7</ele>
<time>2026-02-13T16:13:29Z</time>
</trkpt>
<trkpt lat="52.336717" lon="4.571138">
<ele>1.6</ele>
<time>2026-02-13T16:13:29Z</time>
</trkpt>
<trkpt lat="52.336728" lon="4.571149">
<ele>1.6</ele>
<time>2026-02-13T16:13:30Z</time>
</trkpt>
<trkpt lat="52.336735" lon="4.571156">
<ele>1.7</ele>
<time>2026-02-13T16:13:31Z</time>
</trkpt>
<trkpt lat="52.336741" lon="4.571163">
<ele>1.7</ele>
<time>2026-02-13T16:13:31Z</time>
</trkpt>
<trkpt lat="52.336755" lon="4.571173">
<ele>1.5</ele>
<time>2026-02-13T16:13:32Z</time>
</trkpt>
<trkpt lat="52.336769" lon="4.571185">
<ele>1.5</ele>
<time>2026-02-13T16:13:33Z</time>
</trkpt>
<trkpt lat="52.336782" lon="4.571196">
<ele>1.2</ele>
<time>2026-02-13T16:13:34Z</time>
</trkpt>
<trkpt lat="52.336789" lon="4.571202">
<ele>1.3</ele>
<time>2026-02-13T16:13:35Z</time>
</trkpt>
<trkpt lat="52.336797" lon="4.571207">
<ele>1.3</ele>
<time>2026-02-13T16:13:35Z</time>
</trkpt>
<trkpt lat="52.336804" lon="4.571213">
<ele>1.3</ele>
<time>2026-02-13T16:13:36Z</time>
</trkpt>
<trkpt lat="52.336811" lon="4.571218">
<ele>1.3</ele>
<time>2026-02-13T16:13:36Z</time>
</trkpt>
<trkpt lat="52.336817" lon="4.571224">
<ele>1.6</ele>
<time>2026-02-13T16:13:37Z</time>
</trkpt>
<trkpt lat="52.336829" lon="4.571234">
<ele>1.6</ele>
<time>2026-02-13T16:13:37Z</time>
</trkpt>
<trkpt lat="52.336831" lon="4.571240">
<ele>1.8</ele>
<time>2026-02-13T16:13:38Z</time>
</trkpt>
<trkpt lat="52.336836" lon="4.571246">
<ele>1.8</ele>
<time>2026-02-13T16:13:38Z</time>
</trkpt>
<trkpt lat="52.336843" lon="4.571252">
<ele>1.9</ele>
<time>2026-02-13T16:13:39Z</time>
</trkpt>
<trkpt lat="52.336856" lon="4.571266">
<ele>1.9</ele>
<time>2026-02-13T16:13:40Z</time>
</trkpt>
<trkpt lat="52.336868" lon="4.571277">
<ele>1.9</ele>
<time>2026-02-13T16:13:41Z</time>
</trkpt>
<trkpt lat="52.336878" lon="4.571284">
<ele>2.0</ele>
<time>2026-02-13T16:13:42Z</time>
</trkpt>
<trkpt lat="52.336885" lon="4.571287">
<ele>2.0</ele>
<time>2026-02-13T16:13:42Z</time>
</trkpt>
<trkpt lat="52.336892" lon="4.571295">
<ele>2.2</ele>
<time>2026-02-13T16:13:43Z</time>
</trkpt>
<trkpt lat="52.336898" lon="4.571304">
<ele>2.2</ele>
<time>2026-02-13T16:13:43Z</time>
</trkpt>
<trkpt lat="52.336905" lon="4.571312">
<ele>2.3</ele>
<time>2026-02-13T16:13:44Z</time>
</trkpt>
<trkpt lat="52.336917" lon="4.571328">
<ele>2.3</ele>
<time>2026-02-13T16:13:45Z</time>
</trkpt>
<trkpt lat="52.336924" lon="4.571338">
<ele>1.8</ele>
<time>2026-02-13T16:13:45Z</time>
</trkpt>
<trkpt lat="52.336931" lon="4.571347">
<ele>1.8</ele>
<time>2026-02-13T16:13:46Z</time>
</trkpt>
<trkpt lat="52.336939" lon="4.571355">
<ele>1.8</ele>
<time>2026-02-13T16:13:46Z</time>
</trkpt>
<trkpt lat="52.336947" lon="4.571365">
<ele>1.9</ele>
<time>2026-02-13T16:13:47Z</time>
</trkpt>
<trkpt lat="52.336960" lon="4.571380">
<ele>1.9</ele>
<time>2026-02-13T16:13:48Z</time>
</trkpt>
<trkpt lat="52.336976" lon="4.571395">
<ele>1.7</ele>
<time>2026-02-13T16:13:49Z</time>
</trkpt>
<trkpt lat="52.336992" lon="4.571407">
<ele>1.8</ele>
<time>2026-02-13T16:13:49Z</time>
</trkpt>
<trkpt lat="52.336998" lon="4.571413">
<ele>1.9</ele>
<time>2026-02-13T16:13:50Z</time>
</trkpt>
<trkpt lat="52.337007" lon="4.571421">
<ele>2.1</ele>
<time>2026-02-13T16:13:51Z</time>
</trkpt>
<trkpt lat="52.337018" lon="4.571432">
<ele>2.1</ele>
<time>2026-02-13T16:13:51Z</time>
</trkpt>
<trkpt lat="52.337025" lon="4.571439">
<ele>2.0</ele>
<time>2026-02-13T16:13:52Z</time>
</trkpt>
<trkpt lat="52.337032" lon="4.571446">
<ele>2.0</ele>
<time>2026-02-13T16:13:52Z</time>
</trkpt>
<trkpt lat="52.337040" lon="4.571453">
<ele>2.2</ele>
<time>2026-02-13T16:13:53Z</time>
</trkpt>
<trkpt lat="52.337050" lon="4.571463">
<ele>2.2</ele>
<time>2026-02-13T16:13:54Z</time>
</trkpt>
<trkpt lat="52.337061" lon="4.571473">
<ele>2.2</ele>
<time>2026-02-13T16:13:54Z</time>
</trkpt>
<trkpt lat="52.337067" lon="4.571480">
<ele>2.0</ele>
<time>2026-02-13T16:13:55Z</time>
</trkpt>
<trkpt lat="52.337074" lon="4.571488">
<ele>2.0</ele>
<time>2026-02-13T16:13:55Z</time>
</trkpt>
<trkpt lat="52.337081" lon="4.571494">
<ele>2.0</ele>
<time>2026-02-13T16:13:56Z</time>
</trkpt>
<trkpt lat="52.337087" lon="4.571500">
<ele>2.0</ele>
<time>2026-02-13T16:13:56Z</time>
</trkpt>
<trkpt lat="52.337093" lon="4.571507">
<ele>2.2</ele>
<time>2026-02-13T16:13:57Z</time>
</trkpt>
<trkpt lat="52.337099" lon="4.571513">
<ele>2.2</ele>
<time>2026-02-13T16:13:57Z</time>
</trkpt>
<trkpt lat="52.337105" lon="4.571519">
<ele>2.3</ele>
<time>2026-02-13T16:13:58Z</time>
</trkpt>
<trkpt lat="52.337118" lon="4.571535">
<ele>2.3</ele>
<time>2026-02-13T16:13:59Z</time>
</trkpt>
<trkpt lat="52.337123" lon="4.571541">
<ele>2.3</ele>
<time>2026-02-13T16:13:59Z</time>
</trkpt>
<trkpt lat="52.337128" lon="4.571546">
<ele>2.3</ele>
<time>2026-02-13T16:14:00Z</time>
</trkpt>
<trkpt lat="52.337134" lon="4.571553">
<ele>2.3</ele>
<time>2026-02-13T16:14:00Z</time>
</trkpt>
<trkpt lat="52.337140" lon="4.571556">
<ele>2.5</ele>
<time>2026-02-13T16:14:01Z</time>
</trkpt>
<trkpt lat="52.337151" lon="4.571568">
<ele>2.5</ele>
<time>2026-02-13T16:14:01Z</time>
</trkpt>
<trkpt lat="52.337154" lon="4.571569">
<ele>2.3</ele>
<time>2026-02-13T16:14:02Z</time>
</trkpt>
<trkpt lat="52.337167" lon="4.571583">
<ele>2.5</ele>
<time>2026-02-13T16:14:03Z</time>
</trkpt>
<trkpt lat="52.337179" lon="4.571595">
<ele>2.3</ele>
<time>2026-02-13T16:14:04Z</time>
</trkpt>
<trkpt lat="52.337189" lon="4.571608">
<ele>2.5</ele>
<time>2026-02-13T16:14:05Z</time>
</trkpt>
<trkpt lat="52.337195" lon="4.571618">
<ele>2.9</ele>
<time>2026-02-13T16:14:06Z</time>
</trkpt>
<trkpt lat="52.337203" lon="4.571630">
<ele>3.0</ele>
<time>2026-02-13T16:14:07Z</time>
</trkpt>
<trkpt lat="52.337212" lon="4.571638">
<ele>3.1</ele>
<time>2026-02-13T16:14:07Z</time>
</trkpt>
<trkpt lat="52.337225" lon="4.571653">
<ele>3.2</ele>
<time>2026-02-13T16:14:08Z</time>
</trkpt>
<trkpt lat="52.337237" lon="4.571671">
<ele>3.2</ele>
<time>2026-02-13T16:14:09Z</time>
</trkpt>
<trkpt lat="52.337246" lon="4.571685">
<ele>3.1</ele>
<time>2026-02-13T16:14:10Z</time>
</trkpt>
<trkpt lat="52.337255" lon="4.571699">
<ele>3.1</ele>
<time>2026-02-13T16:14:11Z</time>
</trkpt>
<trkpt lat="52.337261" lon="4.571714">
<ele>3.3</ele>
<time>2026-02-13T16:14:11Z</time>
</trkpt>
<trkpt lat="52.337268" lon="4.571733">
<ele>3.5</ele>
<time>2026-02-13T16:14:12Z</time>
</trkpt>
<trkpt lat="52.337270" lon="4.571739">
<ele>3.5</ele>
<time>2026-02-13T16:14:13Z</time>
</trkpt>
<trkpt lat="52.337281" lon="4.571759">
<ele>3.5</ele>
<time>2026-02-13T16:14:13Z</time>
</trkpt>
<trkpt lat="52.337292" lon="4.571778">
<ele>2.9</ele>
<time>2026-02-13T16:14:15Z</time>
</trkpt>
<trkpt lat="52.337298" lon="4.571787">
<ele>2.9</ele>
<time>2026-02-13T16:14:15Z</time>
</trkpt>
<trkpt lat="52.337307" lon="4.571805">
<ele>2.8</ele>
<time>2026-02-13T16:14:16Z</time>
</trkpt>
<trkpt lat="52.337312" lon="4.571828">
<ele>2.5</ele>
<time>2026-02-13T16:14:17Z</time>
</trkpt>
<trkpt lat="52.337315" lon="4.571842">
<ele>2.5</ele>
<time>2026-02-13T16:14:18Z</time>
</trkpt>
<trkpt lat="52.337317" lon="4.571858">
<ele>2.6</ele>
<time>2026-02-13T16:14:19Z</time>
</trkpt>
<trkpt lat="52.337321" lon="4.571874">
<ele>2.6</ele>
<time>2026-02-13T16:14:19Z</time>
</trkpt>
<trkpt lat="52.337328" lon="4.571896">
<ele>2.7</ele>
<time>2026-02-13T16:14:20Z</time>
</trkpt>
<trkpt lat="52.337335" lon="4.571916">
<ele>2.6</ele>
<time>2026-02-13T16:14:21Z</time>
</trkpt>
<trkpt lat="52.337342" lon="4.571938">
<ele>2.7</ele>
<time>2026-02-13T16:14:22Z</time>
</trkpt>
<trkpt lat="52.337344" lon="4.571949">
<ele>2.6</ele>
<time>2026-02-13T16:14:23Z</time>
</trkpt>
<trkpt lat="52.337350" lon="4.571972">
<ele>2.6</ele>
<time>2026-02-13T16:14:24Z</time>
</trkpt>
<trkpt lat="52.337355" lon="4.571994">
<ele>2.3</ele>
<time>2026-02-13T16:14:25Z</time>
</trkpt>
<trkpt lat="52.337361" lon="4.572010">
<ele>2.3</ele>
<time>2026-02-13T16:14:26Z</time>
</trkpt>
<trkpt lat="52.337366" lon="4.572018">
<ele>2.3</ele>
<time>2026-02-13T16:14:26Z</time>
</trkpt>
<trkpt lat="52.337371" lon="4.572029">
<ele>2.5</ele>
<time>2026-02-13T16:14:27Z</time>
</trkpt>
<trkpt lat="52.337376" lon="4.572042">
<ele>2.4</ele>
<time>2026-02-13T16:14:27Z</time>
</trkpt>
<trkpt lat="52.337378" lon="4.572053">
<ele>2.3</ele>
<time>2026-02-13T16:14:28Z</time>
</trkpt>
<trkpt lat="52.337383" lon="4.572073">
<ele>2.3</ele>
<time>2026-02-13T16:14:29Z</time>
</trkpt>
<trkpt lat="52.337386" lon="4.572082">
<ele>2.3</ele>
<time>2026-02-13T16:14:29Z</time>
</trkpt>
<trkpt lat="52.337390" lon="4.572094">
<ele>2.3</ele>
<time>2026-02-13T16:14:30Z</time>
</trkpt>
<trkpt lat="52.337393" lon="4.572102">
<ele>2.4</ele>
<time>2026-02-13T16:14:30Z</time>
</trkpt>
<trkpt lat="52.337396" lon="4.572113">
<ele>2.2</ele>
<time>2026-02-13T16:14:31Z</time>
</trkpt>
<trkpt lat="52.337402" lon="4.572135">
<ele>2.3</ele>
<time>2026-02-13T16:14:32Z</time>
</trkpt>
<trkpt lat="52.337405" lon="4.572147">
<ele>2.3</ele>
<time>2026-02-13T16:14:32Z</time>
</trkpt>
<trkpt lat="52.337412" lon="4.572164">
<ele>2.0</ele>
<time>2026-02-13T16:14:33Z</time>
</trkpt>
<trkpt lat="52.337414" lon="4.572177">
<ele>1.9</ele>
<time>2026-02-13T16:14:34Z</time>
</trkpt>
<trkpt lat="52.337418" lon="4.572202">
<ele>2.3</ele>
<time>2026-02-13T16:14:35Z</time>
</trkpt>
<trkpt lat="52.337421" lon="4.572225">
<ele>2.4</ele>
<time>2026-02-13T16:14:36Z</time>
</trkpt>
<trkpt lat="52.337424" lon="4.572248">
<ele>2.3</ele>
<time>2026-02-13T16:14:37Z</time>
</trkpt>
<trkpt lat="52.337429" lon="4.572270">
<ele>2.3</ele>
<time>2026-02-13T16:14:38Z</time>
</trkpt>
<trkpt lat="52.337436" lon="4.572296">
<ele>2.2</ele>
<time>2026-02-13T16:14:39Z</time>
</trkpt>
<trkpt lat="52.337440" lon="4.572314">
<ele>2.4</ele>
<time>2026-02-13T16:14:40Z</time>
</trkpt>
<trkpt lat="52.337445" lon="4.572331">
<ele>2.4</ele>
<time>2026-02-13T16:14:40Z</time>
</trkpt>
<trkpt lat="52.337447" lon="4.572342">
<ele>2.6</ele>
<time>2026-02-13T16:14:41Z</time>
</trkpt>
<trkpt lat="52.337451" lon="4.572352">
<ele>2.6</ele>
<time>2026-02-13T16:14:41Z</time>
</trkpt>
<trkpt lat="52.337453" lon="4.572362">
<ele>2.7</ele>
<time>2026-02-13T16:14:42Z</time>
</trkpt>
<trkpt lat="52.337457" lon="4.572379">
<ele>2.2</ele>
<time>2026-02-13T16:14:43Z</time>
</trkpt>
<trkpt lat="52.337460" lon="4.572403">
<ele>2.2</ele>
<time>2026-02-13T16:14:44Z</time>
</trkpt>
<trkpt lat="52.337464" lon="4.572420">
<ele>2.2</ele>
<time>2026-02-13T16:14:44Z</time>
</trkpt>
<trkpt lat="52.337462" lon="4.572447">
<ele>2.3</ele>
<time>2026-02-13T16:14:45Z</time>
</trkpt>
<trkpt lat="52.337461" lon="4.572460">
<ele>2.2</ele>
<time>2026-02-13T16:14:46Z</time>
</trkpt>
<trkpt lat="52.337463" lon="4.572491">
<ele>2.3</ele>
<time>2026-02-13T16:14:47Z</time>
</trkpt>
<trkpt lat="52.337465" lon="4.572514">
<ele>2.2</ele>
<time>2026-02-13T16:14:48Z</time>
</trkpt>
<trkpt lat="52.337469" lon="4.572538">
<ele>2.3</ele>
<time>2026-02-13T16:14:49Z</time>
</trkpt>
<trkpt lat="52.337475" lon="4.572560">
<ele>2.3</ele>
<time>2026-02-13T16:14:50Z</time>
</trkpt>
<trkpt lat="52.337479" lon="4.572569">
<ele>2.3</ele>
<time>2026-02-13T16:14:50Z</time>
</trkpt>
<trkpt lat="52.337484" lon="4.572599">
<ele>2.4</ele>
<time>2026-02-13T16:14:52Z</time>
</trkpt>
<trkpt lat="52.337489" lon="4.572611">
<ele>2.4</ele>
<time>2026-02-13T16:14:52Z</time>
</trkpt>
<trkpt lat="52.337492" lon="4.572623">
<ele>2.4</ele>
<time>2026-02-13T16:14:53Z</time>
</trkpt>
<trkpt lat="52.337496" lon="4.572641">
<ele>2.6</ele>
<time>2026-02-13T16:14:53Z</time>
</trkpt>
<trkpt lat="52.337500" lon="4.572664">
<ele>2.4</ele>
<time>2026-02-13T16:14:54Z</time>
</trkpt>
<trkpt lat="52.337504" lon="4.572704">
<ele>2.4</ele>
<time>2026-02-13T16:14:56Z</time>
</trkpt>
<trkpt lat="52.337505" lon="4.572716">
<ele>2.5</ele>
<time>2026-02-13T16:14:56Z</time>
</trkpt>
<trkpt lat="52.337509" lon="4.572740">
<ele>2.3</ele>
<time>2026-02-13T16:14:57Z</time>
</trkpt>
<trkpt lat="52.337510" lon="4.572752">
<ele>2.3</ele>
<time>2026-02-13T16:14:58Z</time>
</trkpt>
<trkpt lat="52.337515" lon="4.572775">
<ele>2.3</ele>
<time>2026-02-13T16:14:58Z</time>
</trkpt>
<trkpt lat="52.337516" lon="4.572786">
<ele>2.4</ele>
<time>2026-02-13T16:14:59Z</time>
</trkpt>
<trkpt lat="52.337520" lon="4.572804">
<ele>2.3</ele>
<time>2026-02-13T16:15:00Z</time>
</trkpt>
<trkpt lat="52.337522" lon="4.572820">
<ele>2.2</ele>
<time>2026-02-13T16:15:00Z</time>
</trkpt>
<trkpt lat="52.337523" lon="4.572830">
<ele>2.2</ele>
<time>2026-02-13T16:15:01Z</time>
</trkpt>
<trkpt lat="52.337528" lon="4.572841">
<ele>2.0</ele>
<time>2026-02-13T16:15:02Z</time>
</trkpt>
<trkpt lat="52.337531" lon="4.572859">
<ele>2.0</ele>
<time>2026-02-13T16:15:02Z</time>
</trkpt>
<trkpt lat="52.337534" lon="4.572882">
<ele>1.8</ele>
<time>2026-02-13T16:15:03Z</time>
</trkpt>
<trkpt lat="52.337534" lon="4.572907">
<ele>2.0</ele>
<time>2026-02-13T16:15:04Z</time>
</trkpt>
<trkpt lat="52.337534" lon="4.572931">
<ele>2.0</ele>
<time>2026-02-13T16:15:05Z</time>
</trkpt>
<trkpt lat="52.337535" lon="4.572942">
<ele>1.9</ele>
<time>2026-02-13T16:15:06Z</time>
</trkpt>
<trkpt lat="52.337537" lon="4.572955">
<ele>1.9</ele>
<time>2026-02-13T16:15:06Z</time>
</trkpt>
<trkpt lat="52.337540" lon="4.572978">
<ele>1.9</ele>
<time>2026-02-13T16:15:07Z</time>
</trkpt>
<trkpt lat="52.337543" lon="4.573001">
<ele>1.8</ele>
<time>2026-02-13T16:15:08Z</time>
</trkpt>
<trkpt lat="52.337546" lon="4.573024">
<ele>1.9</ele>
<time>2026-02-13T16:15:09Z</time>
</trkpt>
<trkpt lat="52.337547" lon="4.573037">
<ele>2.2</ele>
<time>2026-02-13T16:15:10Z</time>
</trkpt>
<trkpt lat="52.337550" lon="4.573059">
<ele>2.2</ele>
<time>2026-02-13T16:15:11Z</time>
</trkpt>
<trkpt lat="52.337554" lon="4.573083">
<ele>2.2</ele>
<time>2026-02-13T16:15:12Z</time>
</trkpt>
<trkpt lat="52.337555" lon="4.573105">
<ele>1.8</ele>
<time>2026-02-13T16:15:13Z</time>
</trkpt>
<trkpt lat="52.337557" lon="4.573126">
<ele>1.9</ele>
<time>2026-02-13T16:15:14Z</time>
</trkpt>
<trkpt lat="52.337558" lon="4.573142">
<ele>1.6</ele>
<time>2026-02-13T16:15:14Z</time>
</trkpt>
<trkpt lat="52.337559" lon="4.573159">
<ele>1.6</ele>
<time>2026-02-13T16:15:15Z</time>
</trkpt>
<trkpt lat="52.337560" lon="4.573181">
<ele>1.7</ele>
<time>2026-02-13T16:15:16Z</time>
</trkpt>
<trkpt lat="52.337560" lon="4.573193">
<ele>1.9</ele>
<time>2026-02-13T16:15:17Z</time>
</trkpt>
<trkpt lat="52.337558" lon="4.573204">
<ele>1.9</ele>
<time>2026-02-13T16:15:17Z</time>
</trkpt>
<trkpt lat="52.337557" lon="4.573227">
<ele>1.9</ele>
<time>2026-02-13T16:15:18Z</time>
</trkpt>
<trkpt lat="52.337559" lon="4.573238">
<ele>2.0</ele>
<time>2026-02-13T16:15:19Z</time>
</trkpt>
<trkpt lat="52.337559" lon="4.573252">
<ele>2.0</ele>
<time>2026-02-13T16:15:19Z</time>
</trkpt>
<trkpt lat="52.337557" lon="4.573268">
<ele>2.2</ele>
<time>2026-02-13T16:15:20Z</time>
</trkpt>
<trkpt lat="52.337561" lon="4.573289">
<ele>2.2</ele>
<time>2026-02-13T16:15:21Z</time>
</trkpt>
<trkpt lat="52.337566" lon="4.573301">
<ele>2.5</ele>
<time>2026-02-13T16:15:21Z</time>
</trkpt>
<trkpt lat="52.337572" lon="4.573313">
<ele>2.4</ele>
<time>2026-02-13T16:15:22Z</time>
</trkpt>
<trkpt lat="52.337577" lon="4.573337">
<ele>2.4</ele>
<time>2026-02-13T16:15:22Z</time>
</trkpt>
<trkpt lat="52.337578" lon="4.573345">
<ele>2.3</ele>
<time>2026-02-13T16:15:23Z</time>
</trkpt>
<trkpt lat="52.337581" lon="4.573354">
<ele>2.3</ele>
<time>2026-02-13T16:15:23Z</time>
</trkpt>
<trkpt lat="52.337585" lon="4.573365">
<ele>2.2</ele>
<time>2026-02-13T16:15:24Z</time>
</trkpt>
<trkpt lat="52.337592" lon="4.573389">
<ele>2.3</ele>
<time>2026-02-13T16:15:25Z</time>
</trkpt>
<trkpt lat="52.337599" lon="4.573413">
<ele>2.4</ele>
<time>2026-02-13T16:15:26Z</time>
</trkpt>
<trkpt lat="52.337603" lon="4.573437">
<ele>2.4</ele>
<time>2026-02-13T16:15:26Z</time>
</trkpt>
<trkpt lat="52.337607" lon="4.573447">
<ele>2.2</ele>
<time>2026-02-13T16:15:27Z</time>
</trkpt>
<trkpt lat="52.337610" lon="4.573459">
<ele>2.2</ele>
<time>2026-02-13T16:15:27Z</time>
</trkpt>
<trkpt lat="52.337614" lon="4.573470">
<ele>2.4</ele>
<time>2026-02-13T16:15:28Z</time>
</trkpt>
<trkpt lat="52.337617" lon="4.573484">
<ele>2.4</ele>
<time>2026-02-13T16:15:29Z</time>
</trkpt>
<trkpt lat="52.337622" lon="4.573507">
<ele>2.2</ele>
<time>2026-02-13T16:15:30Z</time>
</trkpt>
<trkpt lat="52.337627" lon="4.573529">
<ele>2.2</ele>
<time>2026-02-13T16:15:31Z</time>
</trkpt>
<trkpt lat="52.337630" lon="4.573551">
<ele>2.2</ele>
<time>2026-02-13T16:15:31Z</time>
</trkpt>
<trkpt lat="52.337631" lon="4.573573">
<ele>2.1</ele>
<time>2026-02-13T16:15:32Z</time>
</trkpt>
<trkpt lat="52.337632" lon="4.573585">
<ele>2.2</ele>
<time>2026-02-13T16:15:33Z</time>
</trkpt>
<trkpt lat="52.337633" lon="4.573598">
<ele>2.2</ele>
<time>2026-02-13T16:15:33Z</time>
</trkpt>
<trkpt lat="52.337633" lon="4.573610">
<ele>2.3</ele>
<time>2026-02-13T16:15:34Z</time>
</trkpt>
<trkpt lat="52.337635" lon="4.573630">
<ele>2.1</ele>
<time>2026-02-13T16:15:35Z</time>
</trkpt>
<trkpt lat="52.337635" lon="4.573648">
<ele>2.1</ele>
<time>2026-02-13T16:15:35Z</time>
</trkpt>
<trkpt lat="52.337635" lon="4.573659">
<ele>2.0</ele>
<time>2026-02-13T16:15:36Z</time>
</trkpt>
<trkpt lat="52.337634" lon="4.573672">
<ele>2.0</ele>
<time>2026-02-13T16:15:36Z</time>
</trkpt>
<trkpt lat="52.337633" lon="4.573683">
<ele>2.1</ele>
<time>2026-02-13T16:15:37Z</time>
</trkpt>
<trkpt lat="52.337632" lon="4.573696">
<ele>2.1</ele>
<time>2026-02-13T16:15:37Z</time>
</trkpt>
<trkpt lat="52.337634" lon="4.573708">
<ele>2.1</ele>
<time>2026-02-13T16:15:38Z</time>
</trkpt>
<trkpt lat="52.337633" lon="4.573726">
<ele>2.1</ele>
<time>2026-02-13T16:15:38Z</time>
</trkpt>
<trkpt lat="52.337638" lon="4.573754">
<ele>2.4</ele>
<time>2026-02-13T16:15:40Z</time>
</trkpt>
<trkpt lat="52.337639" lon="4.573784">
<ele>2.4</ele>
<time>2026-02-13T16:15:41Z</time>
</trkpt>
<trkpt lat="52.337642" lon="4.573796">
<ele>2.1</ele>
<time>2026-02-13T16:15:41Z</time>
</trkpt>
<trkpt lat="52.337646" lon="4.573809">
<ele>2.0</ele>
<time>2026-02-13T16:15:42Z</time>
</trkpt>
<trkpt lat="52.337645" lon="4.573820">
<ele>2.0</ele>
<time>2026-02-13T16:15:42Z</time>
</trkpt>
<trkpt lat="52.337649" lon="4.573829">
<ele>2.1</ele>
<time>2026-02-13T16:15:43Z</time>
</trkpt>
<trkpt lat="52.337648" lon="4.573841">
<ele>2.1</ele>
<time>2026-02-13T16:15:43Z</time>
</trkpt>
<trkpt lat="52.337652" lon="4.573851">
<ele>1.8</ele>
<time>2026-02-13T16:15:44Z</time>
</trkpt>
<trkpt lat="52.337651" lon="4.573875">
<ele>1.9</ele>
<time>2026-02-13T16:15:45Z</time>
</trkpt>
<trkpt lat="52.337655" lon="4.573897">
<ele>2.0</ele>
<time>2026-02-13T16:15:46Z</time>
</trkpt>
<trkpt lat="52.337661" lon="4.573913">
<ele>2.0</ele>
<time>2026-02-13T16:15:47Z</time>
</trkpt>
<trkpt lat="52.337667" lon="4.573928">
<ele>2.0</ele>
<time>2026-02-13T16:15:48Z</time>
</trkpt>
<trkpt lat="52.337672" lon="4.573937">
<ele>2.2</ele>
<time>2026-02-13T16:15:48Z</time>
</trkpt>
<trkpt lat="52.337681" lon="4.573953">
<ele>2.2</ele>
<time>2026-02-13T16:15:49Z</time>
</trkpt>
<trkpt lat="52.337687" lon="4.573962">
<ele>2.2</ele>
<time>2026-02-13T16:15:50Z</time>
</trkpt>
<trkpt lat="52.337698" lon="4.573985">
<ele>2.4</ele>
<time>2026-02-13T16:15:51Z</time>
</trkpt>
<trkpt lat="52.337708" lon="4.574010">
<ele>2.3</ele>
<time>2026-02-13T16:15:52Z</time>
</trkpt>
<trkpt lat="52.337713" lon="4.574029">
<ele>2.4</ele>
<time>2026-02-13T16:15:52Z</time>
</trkpt>
<trkpt lat="52.337717" lon="4.574041">
<ele>2.2</ele>
<time>2026-02-13T16:15:53Z</time>
</trkpt>
<trkpt lat="52.337723" lon="4.574060">
<ele>2.1</ele>
<time>2026-02-13T16:15:53Z</time>
</trkpt>
<trkpt lat="52.337725" lon="4.574075">
<ele>2.1</ele>
<time>2026-02-13T16:15:54Z</time>
</trkpt>
<trkpt lat="52.337730" lon="4.574085">
<ele>2.1</ele>
<time>2026-02-13T16:15:54Z</time>
</trkpt>
<trkpt lat="52.337732" lon="4.574097">
<ele>2.1</ele>
<time>2026-02-13T16:15:55Z</time>
</trkpt>
<trkpt lat="52.337736" lon="4.574107">
<ele>2.1</ele>
<time>2026-02-13T16:15:55Z</time>
</trkpt>
<trkpt lat="52.337739" lon="4.574120">
<ele>1.8</ele>
<time>2026-02-13T16:15:56Z</time>
</trkpt>
<trkpt lat="52.337742" lon="4.574136">
<ele>2.0</ele>
<time>2026-02-13T16:15:57Z</time>
</trkpt>
<trkpt lat="52.337752" lon="4.574162">
<ele>2.1</ele>
<time>2026-02-13T16:15:58Z</time>
</trkpt>
<trkpt lat="52.337753" lon="4.574177">
<ele>1.8</ele>
<time>2026-02-13T16:15:58Z</time>
</trkpt>
<trkpt lat="52.337753" lon="4.574191">
<ele>1.8</ele>
<time>2026-02-13T16:15:59Z</time>
</trkpt>
<trkpt lat="52.337755" lon="4.574203">
<ele>1.8</ele>
<time>2026-02-13T16:15:59Z</time>
</trkpt>
<trkpt lat="52.337754" lon="4.574216">
<ele>1.8</ele>
<time>2026-02-13T16:16:00Z</time>
</trkpt>
<trkpt lat="52.337755" lon="4.574233">
<ele>1.8</ele>
<time>2026-02-13T16:16:00Z</time>
</trkpt>
<trkpt lat="52.337757" lon="4.574253">
<ele>1.7</ele>
<time>2026-02-13T16:16:01Z</time>
</trkpt>
<trkpt lat="52.337759" lon="4.574266">
<ele>1.8</ele>
<time>2026-02-13T16:16:02Z</time>
</trkpt>
<trkpt lat="52.337760" lon="4.574278">
<ele>1.8</ele>
<time>2026-02-13T16:16:02Z</time>
</trkpt>
<trkpt lat="52.337764" lon="4.574290">
<ele>1.9</ele>
<time>2026-02-13T16:16:03Z</time>
</trkpt>
<trkpt lat="52.337766" lon="4.574303">
<ele>1.9</ele>
<time>2026-02-13T16:16:03Z</time>
</trkpt>
<trkpt lat="52.337772" lon="4.574324">
<ele>1.9</ele>
<time>2026-02-13T16:16:04Z</time>
</trkpt>
<trkpt lat="52.337774" lon="4.574336">
<ele>1.9</ele>
<time>2026-02-13T16:16:05Z</time>
</trkpt>
<trkpt lat="52.337780" lon="4.574361">
<ele>1.8</ele>
<time>2026-02-13T16:16:06Z</time>
</trkpt>
<trkpt lat="52.337785" lon="4.574382">
<ele>1.7</ele>
<time>2026-02-13T16:16:07Z</time>
</trkpt>
<trkpt lat="52.337791" lon="4.574398">
<ele>2.1</ele>
<time>2026-02-13T16:16:08Z</time>
</trkpt>
<trkpt lat="52.337795" lon="4.574409">
<ele>2.1</ele>
<time>2026-02-13T16:16:08Z</time>
</trkpt>
<trkpt lat="52.337799" lon="4.574429">
<ele>2.1</ele>
<time>2026-02-13T16:16:09Z</time>
</trkpt>
<trkpt lat="52.337797" lon="4.574441">
<ele>2.1</ele>
<time>2026-02-13T16:16:10Z</time>
</trkpt>
<trkpt lat="52.337799" lon="4.574451">
<ele>1.9</ele>
<time>2026-02-13T16:16:10Z</time>
</trkpt>
<trkpt lat="52.337802" lon="4.574460">
<ele>1.7</ele>
<time>2026-02-13T16:16:11Z</time>
</trkpt>
<trkpt lat="52.337804" lon="4.574471">
<ele>1.7</ele>
<time>2026-02-13T16:16:11Z</time>
</trkpt>
<trkpt lat="52.337808" lon="4.574482">
<ele>1.9</ele>
<time>2026-02-13T16:16:12Z</time>
</trkpt>
<trkpt lat="52.337811" lon="4.574493">
<ele>1.9</ele>
<time>2026-02-13T16:16:12Z</time>
</trkpt>
<trkpt lat="52.337813" lon="4.574506">
<ele>1.9</ele>
<time>2026-02-13T16:16:13Z</time>
</trkpt>
<trkpt lat="52.337819" lon="4.574515">
<ele>1.5</ele>
<time>2026-02-13T16:16:13Z</time>
</trkpt>
<trkpt lat="52.337821" lon="4.574528">
<ele>1.5</ele>
<time>2026-02-13T16:16:14Z</time>
</trkpt>
<trkpt lat="52.337826" lon="4.574535">
<ele>1.6</ele>
<time>2026-02-13T16:16:14Z</time>
</trkpt>
<trkpt lat="52.337829" lon="4.574548">
<ele>1.6</ele>
<time>2026-02-13T16:16:15Z</time>
</trkpt>
<trkpt lat="52.337834" lon="4.574556">
<ele>1.8</ele>
<time>2026-02-13T16:16:15Z</time>
</trkpt>
<trkpt lat="52.337840" lon="4.574568">
<ele>1.7</ele>
<time>2026-02-13T16:16:16Z</time>
</trkpt>
<trkpt lat="52.337849" lon="4.574596">
<ele>1.8</ele>
<time>2026-02-13T16:16:17Z</time>
</trkpt>
<trkpt lat="52.337856" lon="4.574612">
<ele>2.1</ele>
<time>2026-02-13T16:16:18Z</time>
</trkpt>
<trkpt lat="52.337863" lon="4.574634">
<ele>2.2</ele>
<time>2026-02-13T16:16:19Z</time>
</trkpt>
<trkpt lat="52.337870" lon="4.574657">
<ele>2.1</ele>
<time>2026-02-13T16:16:20Z</time>
</trkpt>
<trkpt lat="52.337879" lon="4.574678">
<ele>2.1</ele>
<time>2026-02-13T16:16:21Z</time>
</trkpt>
<trkpt lat="52.337885" lon="4.574697">
<ele>2.1</ele>
<time>2026-02-13T16:16:21Z</time>
</trkpt>
<trkpt lat="52.337890" lon="4.574706">
<ele>1.9</ele>
<time>2026-02-13T16:16:22Z</time>
</trkpt>
<trkpt lat="52.337896" lon="4.574720">
<ele>1.8</ele>
<time>2026-02-13T16:16:23Z</time>
</trkpt>
<trkpt lat="52.337903" lon="4.574738">
<ele>1.8</ele>
<time>2026-02-13T16:16:23Z</time>
</trkpt>
<trkpt lat="52.337913" lon="4.574763">
<ele>1.4</ele>
<time>2026-02-13T16:16:25Z</time>
</trkpt>
<trkpt lat="52.337921" lon="4.574785">
<ele>1.6</ele>
<time>2026-02-13T16:16:26Z</time>
</trkpt>
<trkpt lat="52.337924" lon="4.574804">
<ele>1.6</ele>
<time>2026-02-13T16:16:26Z</time>
</trkpt>
<trkpt lat="52.337927" lon="4.574814">
<ele>1.7</ele>
<time>2026-02-13T16:16:27Z</time>
</trkpt>
<trkpt lat="52.337930" lon="4.574837">
<ele>1.7</ele>
<time>2026-02-13T16:16:27Z</time>
</trkpt>
<trkpt lat="52.337934" lon="4.574838">
<ele>1.4</ele>
<time>2026-02-13T16:16:28Z</time>
</trkpt>
<trkpt lat="52.337941" lon="4.574852">
<ele>1.3</ele>
<time>2026-02-13T16:16:29Z</time>
</trkpt>
<trkpt lat="52.337952" lon="4.574870">
<ele>1.2</ele>
<time>2026-02-13T16:16:30Z</time>
</trkpt>
<trkpt lat="52.337965" lon="4.574886">
<ele>1.4</ele>
<time>2026-02-13T16:16:31Z</time>
</trkpt>
<trkpt lat="52.337978" lon="4.574908">
<ele>1.4</ele>
<time>2026-02-13T16:16:32Z</time>
</trkpt>
<trkpt lat="52.337985" lon="4.574913">
<ele>1.4</ele>
<time>2026-02-13T16:16:32Z</time>
</trkpt>
<trkpt lat="52.337993" lon="4.574916">
<ele>1.3</ele>
<time>2026-02-13T16:16:33Z</time>
</trkpt>
<trkpt lat="52.338004" lon="4.574929">
<ele>1.4</ele>
<time>2026-02-13T16:16:34Z</time>
</trkpt>
<trkpt lat="52.338012" lon="4.574938">
<ele>1.4</ele>
<time>2026-02-13T16:16:34Z</time>
</trkpt>
<trkpt lat="52.338018" lon="4.574944">
<ele>1.3</ele>
<time>2026-02-13T16:16:35Z</time>
</trkpt>
<trkpt lat="52.338024" lon="4.574951">
<ele>1.3</ele>
<time>2026-02-13T16:16:35Z</time>
</trkpt>
<trkpt lat="52.338030" lon="4.574959">
<ele>1.3</ele>
<time>2026-02-13T16:16:36Z</time>
</trkpt>
<trkpt lat="52.338038" lon="4.574965">
<ele>1.7</ele>
<time>2026-02-13T16:16:36Z</time>
</trkpt>
<trkpt lat="52.338046" lon="4.574974">
<ele>1.7</ele>
<time>2026-02-13T16:16:37Z</time>
</trkpt>
<trkpt lat="52.338058" lon="4.574986">
<ele>1.6</ele>
<time>2026-02-13T16:16:38Z</time>
</trkpt>
<trkpt lat="52.338065" lon="4.574993">
<ele>1.6</ele>
<time>2026-02-13T16:16:38Z</time>
</trkpt>
<trkpt lat="52.338070" lon="4.574998">
<ele>1.5</ele>
<time>2026-02-13T16:16:39Z</time>
</trkpt>
<trkpt lat="52.338078" lon="4.575006">
<ele>1.5</ele>
<time>2026-02-13T16:16:40Z</time>
</trkpt>
<trkpt lat="52.338080" lon="4.575003">
<ele>1.2</ele>
<time>2026-02-13T16:16:40Z</time>
</trkpt>
<trkpt lat="52.338082" lon="4.575003">
<ele>1.2</ele>
<time>2026-02-13T16:16:41Z</time>
</trkpt>
<trkpt lat="52.338100" lon="4.575009">
<ele>1.2</ele>
<time>2026-02-13T16:16:42Z</time>
</trkpt>
<trkpt lat="52.338119" lon="4.575011">
<ele>0.8</ele>
<time>2026-02-13T16:16:43Z</time>
</trkpt>
<trkpt lat="52.338131" lon="4.575015">
<ele>0.8</ele>
<time>2026-02-13T16:16:43Z</time>
</trkpt>
<trkpt lat="52.338139" lon="4.575023">
<ele>1.1</ele>
<time>2026-02-13T16:16:44Z</time>
</trkpt>
<trkpt lat="52.338145" lon="4.575029">
<ele>1.1</ele>
<time>2026-02-13T16:16:44Z</time>
</trkpt>
<trkpt lat="52.338158" lon="4.575042">
<ele>1.0</ele>
<time>2026-02-13T16:16:45Z</time>
</trkpt>
<trkpt lat="52.338166" lon="4.575047">
<ele>1.1</ele>
<time>2026-02-13T16:16:46Z</time>
</trkpt>
<trkpt lat="52.338172" lon="4.575053">
<ele>1.1</ele>
<time>2026-02-13T16:16:46Z</time>
</trkpt>
<trkpt lat="52.338180" lon="4.575057">
<ele>1.5</ele>
<time>2026-02-13T16:16:47Z</time>
</trkpt>
<trkpt lat="52.338187" lon="4.575062">
<ele>1.5</ele>
<time>2026-02-13T16:16:47Z</time>
</trkpt>
<trkpt lat="52.338196" lon="4.575065">
<ele>1.7</ele>
<time>2026-02-13T16:16:48Z</time>
</trkpt>
<trkpt lat="52.338203" lon="4.575070">
<ele>1.7</ele>
<time>2026-02-13T16:16:48Z</time>
</trkpt>
<trkpt lat="52.338211" lon="4.575073">
<ele>1.8</ele>
<time>2026-02-13T16:16:49Z</time>
</trkpt>
<trkpt lat="52.338217" lon="4.575077">
<ele>1.8</ele>
<time>2026-02-13T16:16:49Z</time>
</trkpt>
<trkpt lat="52.338225" lon="4.575079">
<ele>1.9</ele>
<time>2026-02-13T16:16:50Z</time>
</trkpt>
<trkpt lat="52.338232" lon="4.575083">
<ele>1.9</ele>
<time>2026-02-13T16:16:50Z</time>
</trkpt>
<trkpt lat="52.338250" lon="4.575092">
<ele>1.8</ele>
<time>2026-02-13T16:16:51Z</time>
</trkpt>
<trkpt lat="52.338254" lon="4.575092">
<ele>1.9</ele>
<time>2026-02-13T16:16:52Z</time>
</trkpt>
<trkpt lat="52.338260" lon="4.575095">
<ele>1.9</ele>
<time>2026-02-13T16:16:52Z</time>
</trkpt>
<trkpt lat="52.338267" lon="4.575095">
<ele>2.0</ele>
<time>2026-02-13T16:16:53Z</time>
</trkpt>
<trkpt lat="52.338280" lon="4.575099">
<ele>1.8</ele>
<time>2026-02-13T16:16:54Z</time>
</trkpt>
<trkpt lat="52.338292" lon="4.575102">
<ele>2.1</ele>
<time>2026-02-13T16:16:55Z</time>
</trkpt>
<trkpt lat="52.338303" lon="4.575104">
<ele>2.1</ele>
<time>2026-02-13T16:16:55Z</time>
</trkpt>
<trkpt lat="52.338311" lon="4.575102">
<ele>2.3</ele>
<time>2026-02-13T16:16:56Z</time>
</trkpt>
<trkpt lat="52.338322" lon="4.575099">
<ele>2.0</ele>
<time>2026-02-13T16:16:57Z</time>
</trkpt>
<trkpt lat="52.338332" lon="4.575099">
<ele>2.0</ele>
<time>2026-02-13T16:16:57Z</time>
</trkpt>
<trkpt lat="52.338346" lon="4.575099">
<ele>2.0</ele>
<time>2026-02-13T16:16:58Z</time>
</trkpt>
<trkpt lat="52.338361" lon="4.575100">
<ele>2.0</ele>
<time>2026-02-13T16:16:59Z</time>
</trkpt>
<trkpt lat="52.338369" lon="4.575102">
<ele>2.2</ele>
<time>2026-02-13T16:17:00Z</time>
</trkpt>
<trkpt lat="52.338384" lon="4.575104">
<ele>2.1</ele>
<time>2026-02-13T16:17:01Z</time>
</trkpt>
<trkpt lat="52.338391" lon="4.575108">
<ele>2.1</ele>
<time>2026-02-13T16:17:01Z</time>
</trkpt>
<trkpt lat="52.338398" lon="4.575113">
<ele>2.1</ele>
<time>2026-02-13T16:17:02Z</time>
</trkpt>
<trkpt lat="52.338405" lon="4.575115">
<ele>2.1</ele>
<time>2026-02-13T16:17:02Z</time>
</trkpt>
<trkpt lat="52.338412" lon="4.575117">
<ele>2.1</ele>
<time>2026-02-13T16:17:03Z</time>
</trkpt>
<trkpt lat="52.338426" lon="4.575119">
<ele>2.1</ele>
<time>2026-02-13T16:17:03Z</time>
</trkpt>
<trkpt lat="52.338428" lon="4.575120">
<ele>1.9</ele>
<time>2026-02-13T16:17:04Z</time>
</trkpt>
<trkpt lat="52.338444" lon="4.575121">
<ele>1.8</ele>
<time>2026-02-13T16:17:05Z</time>
</trkpt>
<trkpt lat="52.338458" lon="4.575122">
<ele>2.2</ele>
<time>2026-02-13T16:17:06Z</time>
</trkpt>
<trkpt lat="52.338468" lon="4.575124">
<ele>2.1</ele>
<time>2026-02-13T16:17:07Z</time>
</trkpt>
<trkpt lat="52.338475" lon="4.575126">
<ele>2.1</ele>
<time>2026-02-13T16:17:07Z</time>
</trkpt>
<trkpt lat="52.338482" lon="4.575127">
<ele>2.1</ele>
<time>2026-02-13T16:17:08Z</time>
</trkpt>
<trkpt lat="52.338490" lon="4.575128">
<ele>2.0</ele>
<time>2026-02-13T16:17:08Z</time>
</trkpt>
<trkpt lat="52.338498" lon="4.575129">
<ele>1.8</ele>
<time>2026-02-13T16:17:09Z</time>
</trkpt>
<trkpt lat="52.338513" lon="4.575131">
<ele>1.8</ele>
<time>2026-02-13T16:17:10Z</time>
</trkpt>
<trkpt lat="52.338521" lon="4.575132">
<ele>1.8</ele>
<time>2026-02-13T16:17:10Z</time>
</trkpt>
<trkpt lat="52.338530" lon="4.575133">
<ele>1.4</ele>
<time>2026-02-13T16:17:11Z</time>
</trkpt>
<trkpt lat="52.338544" lon="4.575134">
<ele>1.4</ele>
<time>2026-02-13T16:17:11Z</time>
</trkpt>
<trkpt lat="52.338552" lon="4.575136">
<ele>1.5</ele>
<time>2026-02-13T16:17:12Z</time>
</trkpt>
<trkpt lat="52.338564" lon="4.575138">
<ele>1.7</ele>
<time>2026-02-13T16:17:13Z</time>
</trkpt>
<trkpt lat="52.338574" lon="4.575138">
<ele>1.8</ele>
<time>2026-02-13T16:17:13Z</time>
</trkpt>
<trkpt lat="52.338581" lon="4.575136">
<ele>1.6</ele>
<time>2026-02-13T16:17:14Z</time>
</trkpt>
<trkpt lat="52.338594" lon="4.575135">
<ele>1.7</ele>
<time>2026-02-13T16:17:15Z</time>
</trkpt>
<trkpt lat="52.338610" lon="4.575134">
<ele>1.9</ele>
<time>2026-02-13T16:17:16Z</time>
</trkpt>
<trkpt lat="52.338620" lon="4.575135">
<ele>2.1</ele>
<time>2026-02-13T16:17:16Z</time>
</trkpt>
<trkpt lat="52.338628" lon="4.575134">
<ele>2.3</ele>
<time>2026-02-13T16:17:17Z</time>
</trkpt>
<trkpt lat="52.338636" lon="4.575134">
<ele>2.3</ele>
<time>2026-02-13T16:17:17Z</time>
</trkpt>
<trkpt lat="52.338644" lon="4.575132">
<ele>2.3</ele>
<time>2026-02-13T16:17:18Z</time>
</trkpt>
<trkpt lat="52.338652" lon="4.575130">
<ele>2.3</ele>
<time>2026-02-13T16:17:18Z</time>
</trkpt>
<trkpt lat="52.338661" lon="4.575128">
<ele>2.4</ele>
<time>2026-02-13T16:17:19Z</time>
</trkpt>
<trkpt lat="52.338669" lon="4.575126">
<ele>2.4</ele>
<time>2026-02-13T16:17:19Z</time>
</trkpt>
<trkpt lat="52.338677" lon="4.575124">
<ele>2.3</ele>
<time>2026-02-13T16:17:20Z</time>
</trkpt>
<trkpt lat="52.338689" lon="4.575121">
<ele>2.4</ele>
<time>2026-02-13T16:17:21Z</time>
</trkpt>
<trkpt lat="52.338698" lon="4.575118">
<ele>2.4</ele>
<time>2026-02-13T16:17:22Z</time>
</trkpt>
<trkpt lat="52.338717" lon="4.575111">
<ele>2.7</ele>
<time>2026-02-13T16:17:22Z</time>
</trkpt>
<trkpt lat="52.338723" lon="4.575110">
<ele>2.4</ele>
<time>2026-02-13T16:17:23Z</time>
</trkpt>
<trkpt lat="52.338731" lon="4.575106">
<ele>2.4</ele>
<time>2026-02-13T16:17:23Z</time>
</trkpt>
<trkpt lat="52.338738" lon="4.575105">
<ele>2.5</ele>
<time>2026-02-13T16:17:24Z</time>
</trkpt>
<trkpt lat="52.338753" lon="4.575099">
<ele>2.5</ele>
<time>2026-02-13T16:17:25Z</time>
</trkpt>
<trkpt lat="52.338765" lon="4.575097">
<ele>2.6</ele>
<time>2026-02-13T16:17:26Z</time>
</trkpt>
<trkpt lat="52.338780" lon="4.575090">
<ele>2.4</ele>
<time>2026-02-13T16:17:27Z</time>
</trkpt>
<trkpt lat="52.338787" lon="4.575089">
<ele>2.5</ele>
<time>2026-02-13T16:17:27Z</time>
</trkpt>
<trkpt lat="52.338801" lon="4.575089">
<ele>2.5</ele>
<time>2026-02-13T16:17:28Z</time>
</trkpt>
<trkpt lat="52.338808" lon="4.575086">
<ele>2.5</ele>
<time>2026-02-13T16:17:29Z</time>
</trkpt>
<trkpt lat="52.338817" lon="4.575083">
<ele>2.5</ele>
<time>2026-02-13T16:17:29Z</time>
</trkpt>
<trkpt lat="52.338835" lon="4.575070">
<ele>2.6</ele>
<time>2026-02-13T16:17:31Z</time>
</trkpt>
<trkpt lat="52.338845" lon="4.575063">
<ele>2.6</ele>
<time>2026-02-13T16:17:31Z</time>
</trkpt>
<trkpt lat="52.338857" lon="4.575051">
<ele>2.7</ele>
<time>2026-02-13T16:17:32Z</time>
</trkpt>
<trkpt lat="52.338865" lon="4.575044">
<ele>2.7</ele>
<time>2026-02-13T16:17:33Z</time>
</trkpt>
<trkpt lat="52.338877" lon="4.575033">
<ele>2.8</ele>
<time>2026-02-13T16:17:34Z</time>
</trkpt>
<trkpt lat="52.338883" lon="4.575026">
<ele>3.2</ele>
<time>2026-02-13T16:17:34Z</time>
</trkpt>
<trkpt lat="52.338890" lon="4.575020">
<ele>3.2</ele>
<time>2026-02-13T16:17:35Z</time>
</trkpt>
<trkpt lat="52.338902" lon="4.575007">
<ele>3.1</ele>
<time>2026-02-13T16:17:35Z</time>
</trkpt>
<trkpt lat="52.338915" lon="4.574994">
<ele>3.1</ele>
<time>2026-02-13T16:17:37Z</time>
</trkpt>
<trkpt lat="52.338927" lon="4.574980">
<ele>3.0</ele>
<time>2026-02-13T16:17:38Z</time>
</trkpt>
<trkpt lat="52.338934" lon="4.574973">
<ele>3.2</ele>
<time>2026-02-13T16:17:38Z</time>
</trkpt>
<trkpt lat="52.338941" lon="4.574966">
<ele>2.9</ele>
<time>2026-02-13T16:17:39Z</time>
</trkpt>
<trkpt lat="52.338954" lon="4.574958">
<ele>2.9</ele>
<time>2026-02-13T16:17:39Z</time>
</trkpt>
<trkpt lat="52.338970" lon="4.574956">
<ele>2.8</ele>
<time>2026-02-13T16:17:40Z</time>
</trkpt>
<trkpt lat="52.338985" lon="4.574949">
<ele>2.7</ele>
<time>2026-02-13T16:17:41Z</time>
</trkpt>
<trkpt lat="52.338993" lon="4.574944">
<ele>2.8</ele>
<time>2026-02-13T16:17:42Z</time>
</trkpt>
<trkpt lat="52.339002" lon="4.574940">
<ele>2.6</ele>
<time>2026-02-13T16:17:43Z</time>
</trkpt>
<trkpt lat="52.339010" lon="4.574937">
<ele>2.6</ele>
<time>2026-02-13T16:17:43Z</time>
</trkpt>
<trkpt lat="52.339018" lon="4.574934">
<ele>2.8</ele>
<time>2026-02-13T16:17:44Z</time>
</trkpt>
<trkpt lat="52.339025" lon="4.574932">
<ele>2.8</ele>
<time>2026-02-13T16:17:44Z</time>
</trkpt>
<trkpt lat="52.339033" lon="4.574930">
<ele>2.9</ele>
<time>2026-02-13T16:17:45Z</time>
</trkpt>
<trkpt lat="52.339052" lon="4.574924">
<ele>3.0</ele>
<time>2026-02-13T16:17:46Z</time>
</trkpt>
<trkpt lat="52.339062" lon="4.574924">
<ele>3.0</ele>
<time>2026-02-13T16:17:46Z</time>
</trkpt>
<trkpt lat="52.339069" lon="4.574925">
<ele>3.0</ele>
<time>2026-02-13T16:17:47Z</time>
</trkpt>
<trkpt lat="52.339079" lon="4.574925">
<ele>2.8</ele>
<time>2026-02-13T16:17:48Z</time>
</trkpt>
<trkpt lat="52.339090" lon="4.574926">
<ele>2.8</ele>
<time>2026-02-13T16:17:48Z</time>
</trkpt>
<trkpt lat="52.339098" lon="4.574925">
<ele>2.9</ele>
<time>2026-02-13T16:17:49Z</time>
</trkpt>
<trkpt lat="52.339105" lon="4.574927">
<ele>2.9</ele>
<time>2026-02-13T16:17:49Z</time>
</trkpt>
<trkpt lat="52.339119" lon="4.574925">
<ele>2.6</ele>
<time>2026-02-13T16:17:50Z</time>
</trkpt>
<trkpt lat="52.339129" lon="4.574921">
<ele>2.6</ele>
<time>2026-02-13T16:17:51Z</time>
</trkpt>
<trkpt lat="52.339141" lon="4.574917">
<ele>2.1</ele>
<time>2026-02-13T16:17:52Z</time>
</trkpt>
<trkpt lat="52.339153" lon="4.574914">
<ele>2.1</ele>
<time>2026-02-13T16:17:52Z</time>
</trkpt>
<trkpt lat="52.339176" lon="4.574905">
<ele>2.1</ele>
<time>2026-02-13T16:17:54Z</time>
</trkpt>
<trkpt lat="52.339185" lon="4.574899">
<ele>2.4</ele>
<time>2026-02-13T16:17:54Z</time>
</trkpt>
<trkpt lat="52.339194" lon="4.574893">
<ele>2.1</ele>
<time>2026-02-13T16:17:55Z</time>
</trkpt>
<trkpt lat="52.339201" lon="4.574889">
<ele>2.1</ele>
<time>2026-02-13T16:17:55Z</time>
</trkpt>
<trkpt lat="52.339208" lon="4.574886">
<ele>2.0</ele>
<time>2026-02-13T16:17:56Z</time>
</trkpt>
<trkpt lat="52.339216" lon="4.574882">
<ele>2.0</ele>
<time>2026-02-13T16:17:56Z</time>
</trkpt>
<trkpt lat="52.339224" lon="4.574880">
<ele>2.0</ele>
<time>2026-02-13T16:17:57Z</time>
</trkpt>
<trkpt lat="52.339231" lon="4.574877">
<ele>2.0</ele>
<time>2026-02-13T16:17:57Z</time>
</trkpt>
<trkpt lat="52.339239" lon="4.574876">
<ele>2.0</ele>
<time>2026-02-13T16:17:58Z</time>
</trkpt>
<trkpt lat="52.339254" lon="4.574871">
<ele>2.0</ele>
<time>2026-02-13T16:17:59Z</time>
</trkpt>
<trkpt lat="52.339268" lon="4.574868">
<ele>2.1</ele>
<time>2026-02-13T16:18:00Z</time>
</trkpt>
<trkpt lat="52.339269" lon="4.574868">
<ele>2.0</ele>
<time>2026-02-13T16:18:00Z</time>
</trkpt>
<trkpt lat="52.339270" lon="4.574868">
<ele>2.0</ele>
<time>2026-02-13T16:18:01Z</time>
</trkpt>
<trkpt lat="52.339274" lon="4.574869">
<ele>2.0</ele>
<time>2026-02-13T16:18:01Z</time>
</trkpt>
<trkpt lat="52.339280" lon="4.574871">
<ele>1.9</ele>
<time>2026-02-13T16:18:02Z</time>
</trkpt>
<trkpt lat="52.339291" lon="4.574875">
<ele>2.5</ele>
<time>2026-02-13T16:18:03Z</time>
</trkpt>
<trkpt lat="52.339300" lon="4.574878">
<ele>2.5</ele>
<time>2026-02-13T16:18:03Z</time>
</trkpt>
<trkpt lat="52.339307" lon="4.574880">
<ele>2.3</ele>
<time>2026-02-13T16:18:04Z</time>
</trkpt>
<trkpt lat="52.339321" lon="4.574885">
<ele>2.3</ele>
<time>2026-02-13T16:18:04Z</time>
</trkpt>
<trkpt lat="52.339324" lon="4.574885">
<ele>2.3</ele>
<time>2026-02-13T16:18:05Z</time>
</trkpt>
<trkpt lat="52.339340" lon="4.574890">
<ele>2.3</ele>
<time>2026-02-13T16:18:06Z</time>
</trkpt>
<trkpt lat="52.339354" lon="4.574893">
<ele>2.2</ele>
<time>2026-02-13T16:18:07Z</time>
</trkpt>
<trkpt lat="52.339364" lon="4.574892">
<ele>2.0</ele>
<time>2026-02-13T16:18:08Z</time>
</trkpt>
<trkpt lat="52.339370" lon="4.574891">
<ele>2.0</ele>
<time>2026-02-13T16:18:08Z</time>
</trkpt>
<trkpt lat="52.339377" lon="4.574889">
<ele>2.0</ele>
<time>2026-02-13T16:18:09Z</time>
</trkpt>
<trkpt lat="52.339384" lon="4.574888">
<ele>2.0</ele>
<time>2026-02-13T16:18:09Z</time>
</trkpt>
<trkpt lat="52.339392" lon="4.574888">
<ele>2.0</ele>
<time>2026-02-13T16:18:10Z</time>
</trkpt>
<trkpt lat="52.339410" lon="4.574886">
<ele>2.0</ele>
<time>2026-02-13T16:18:11Z</time>
</trkpt>
<trkpt lat="52.339422" lon="4.574885">
<ele>2.0</ele>
<time>2026-02-13T16:18:11Z</time>
</trkpt>
<trkpt lat="52.339432" lon="4.574888">
<ele>1.9</ele>
<time>2026-02-13T16:18:12Z</time>
</trkpt>
<trkpt lat="52.339447" lon="4.574896">
<ele>2.1</ele>
<time>2026-02-13T16:18:13Z</time>
</trkpt>
<trkpt lat="52.339466" lon="4.574904">
<ele>2.3</ele>
<time>2026-02-13T16:18:14Z</time>
</trkpt>
<trkpt lat="52.339481" lon="4.574914">
<ele>2.6</ele>
<time>2026-02-13T16:18:15Z</time>
</trkpt>
<trkpt lat="52.339497" lon="4.574925">
<ele>2.6</ele>
<time>2026-02-13T16:18:16Z</time>
</trkpt>
<trkpt lat="52.339505" lon="4.574934">
<ele>2.6</ele>
<time>2026-02-13T16:18:16Z</time>
</trkpt>
<trkpt lat="52.339513" lon="4.574941">
<ele>2.5</ele>
<time>2026-02-13T16:18:17Z</time>
</trkpt>
<trkpt lat="52.339522" lon="4.574951">
<ele>2.7</ele>
<time>2026-02-13T16:18:18Z</time>
</trkpt>
<trkpt lat="52.339532" lon="4.574965">
<ele>2.7</ele>
<time>2026-02-13T16:18:18Z</time>
</trkpt>
<trkpt lat="52.339540" lon="4.574973">
<ele>2.5</ele>
<time>2026-02-13T16:18:19Z</time>
</trkpt>
<trkpt lat="52.339550" lon="4.574982">
<ele>2.7</ele>
<time>2026-02-13T16:18:20Z</time>
</trkpt>
<trkpt lat="52.339561" lon="4.574996">
<ele>2.7</ele>
<time>2026-02-13T16:18:20Z</time>
</trkpt>
<trkpt lat="52.339569" lon="4.575001">
<ele>2.3</ele>
<time>2026-02-13T16:18:21Z</time>
</trkpt>
<trkpt lat="52.339579" lon="4.575016">
<ele>2.2</ele>
<time>2026-02-13T16:18:22Z</time>
</trkpt>
<trkpt lat="52.339590" lon="4.575022">
<ele>2.4</ele>
<time>2026-02-13T16:18:23Z</time>
</trkpt>
<trkpt lat="52.339601" lon="4.575033">
<ele>2.3</ele>
<time>2026-02-13T16:18:24Z</time>
</trkpt>
<trkpt lat="52.339611" lon="4.575042">
<ele>2.3</ele>
<time>2026-02-13T16:18:24Z</time>
</trkpt>
<trkpt lat="52.339615" lon="4.575048">
<ele>2.2</ele>
<time>2026-02-13T16:18:25Z</time>
</trkpt>
<trkpt lat="52.339622" lon="4.575057">
<ele>2.2</ele>
<time>2026-02-13T16:18:25Z</time>
</trkpt>
<trkpt lat="52.339624" lon="4.575064">
<ele>2.3</ele>
<time>2026-02-13T16:18:26Z</time>
</trkpt>
<trkpt lat="52.339634" lon="4.575078">
<ele>2.3</ele>
<time>2026-02-13T16:18:27Z</time>
</trkpt>
<trkpt lat="52.339638" lon="4.575086">
<ele>2.3</ele>
<time>2026-02-13T16:18:27Z</time>
</trkpt>
<trkpt lat="52.339642" lon="4.575092">
<ele>2.4</ele>
<time>2026-02-13T16:18:28Z</time>
</trkpt>
<trkpt lat="52.339647" lon="4.575103">
<ele>2.4</ele>
<time>2026-02-13T16:18:28Z</time>
</trkpt>
<trkpt lat="52.339661" lon="4.575125">
<ele>2.3</ele>
<time>2026-02-13T16:18:30Z</time>
</trkpt>
<trkpt lat="52.339671" lon="4.575138">
<ele>2.2</ele>
<time>2026-02-13T16:18:31Z</time>
</trkpt>
<trkpt lat="52.339677" lon="4.575143">
<ele>2.2</ele>
<time>2026-02-13T16:18:31Z</time>
</trkpt>
<trkpt lat="52.339682" lon="4.575146">
<ele>2.7</ele>
<time>2026-02-13T16:18:32Z</time>
</trkpt>
<trkpt lat="52.339688" lon="4.575152">
<ele>2.7</ele>
<time>2026-02-13T16:18:32Z</time>
</trkpt>
<trkpt lat="52.339693" lon="4.575158">
<ele>2.6</ele>
<time>2026-02-13T16:18:33Z</time>
</trkpt>
<trkpt lat="52.339699" lon="4.575164">
<ele>2.6</ele>
<time>2026-02-13T16:18:33Z</time>
</trkpt>
<trkpt lat="52.339703" lon="4.575170">
<ele>2.6</ele>
<time>2026-02-13T16:18:34Z</time>
</trkpt>
<trkpt lat="52.339712" lon="4.575183">
<ele>2.5</ele>
<time>2026-02-13T16:18:35Z</time>
</trkpt>
<trkpt lat="52.339718" lon="4.575191">
<ele>2.5</ele>
<time>2026-02-13T16:18:35Z</time>
</trkpt>
<trkpt lat="52.339723" lon="4.575199">
<ele>2.5</ele>
<time>2026-02-13T16:18:36Z</time>
</trkpt>
<trkpt lat="52.339734" lon="4.575220">
<ele>2.4</ele>
<time>2026-02-13T16:18:37Z</time>
</trkpt>
<trkpt lat="52.339738" lon="4.575236">
<ele>2.3</ele>
<time>2026-02-13T16:18:38Z</time>
</trkpt>
<trkpt lat="52.339738" lon="4.575248">
<ele>2.2</ele>
<time>2026-02-13T16:18:38Z</time>
</trkpt>
<trkpt lat="52.339744" lon="4.575255">
<ele>2.2</ele>
<time>2026-02-13T16:18:39Z</time>
</trkpt>
<trkpt lat="52.339752" lon="4.575281">
<ele>2.1</ele>
<time>2026-02-13T16:18:40Z</time>
</trkpt>
<trkpt lat="52.339758" lon="4.575307">
<ele>2.0</ele>
<time>2026-02-13T16:18:41Z</time>
</trkpt>
<trkpt lat="52.339761" lon="4.575329">
<ele>2.2</ele>
<time>2026-02-13T16:18:41Z</time>
</trkpt>
<trkpt lat="52.339764" lon="4.575349">
<ele>2.2</ele>
<time>2026-02-13T16:18:42Z</time>
</trkpt>
<trkpt lat="52.339771" lon="4.575358">
<ele>2.2</ele>
<time>2026-02-13T16:18:42Z</time>
</trkpt>
<trkpt lat="52.339781" lon="4.575382">
<ele>2.3</ele>
<time>2026-02-13T16:18:43Z</time>
</trkpt>
<trkpt lat="52.339785" lon="4.575396">
<ele>2.5</ele>
<time>2026-02-13T16:18:44Z</time>
</trkpt>
<trkpt lat="52.339789" lon="4.575406">
<ele>2.5</ele>
<time>2026-02-13T16:18:44Z</time>
</trkpt>
<trkpt lat="52.339801" lon="4.575436">
<ele>2.4</ele>
<time>2026-02-13T16:18:46Z</time>
</trkpt>
<trkpt lat="52.339805" lon="4.575450">
<ele>2.2</ele>
<time>2026-02-13T16:18:46Z</time>
</trkpt>
<trkpt lat="52.339810" lon="4.575471">
<ele>2.5</ele>
<time>2026-02-13T16:18:47Z</time>
</trkpt>
<trkpt lat="52.339811" lon="4.575481">
<ele>2.3</ele>
<time>2026-02-13T16:18:48Z</time>
</trkpt>
<trkpt lat="52.339818" lon="4.575509">
<ele>2.5</ele>
<time>2026-02-13T16:18:49Z</time>
</trkpt>
<trkpt lat="52.339824" lon="4.575535">
<ele>2.4</ele>
<time>2026-02-13T16:18:50Z</time>
</trkpt>
<trkpt lat="52.339826" lon="4.575552">
<ele>2.0</ele>
<time>2026-02-13T16:18:50Z</time>
</trkpt>
<trkpt lat="52.339823" lon="4.575571">
<ele>2.1</ele>
<time>2026-02-13T16:18:51Z</time>
</trkpt>
<trkpt lat="52.339820" lon="4.575593">
<ele>2.4</ele>
<time>2026-02-13T16:18:52Z</time>
</trkpt>
<trkpt lat="52.339818" lon="4.575602">
<ele>1.9</ele>
<time>2026-02-13T16:18:53Z</time>
</trkpt>
<trkpt lat="52.339817" lon="4.575613">
<ele>1.9</ele>
<time>2026-02-13T16:18:53Z</time>
</trkpt>
<trkpt lat="52.339818" lon="4.575624">
<ele>1.8</ele>
<time>2026-02-13T16:18:54Z</time>
</trkpt>
<trkpt lat="52.339817" lon="4.575643">
<ele>1.8</ele>
<time>2026-02-13T16:18:55Z</time>
</trkpt>
<trkpt lat="52.339816" lon="4.575657">
<ele>1.8</ele>
<time>2026-02-13T16:18:55Z</time>
</trkpt>
<trkpt lat="52.339816" lon="4.575668">
<ele>1.9</ele>
<time>2026-02-13T16:18:56Z</time>
</trkpt>
<trkpt lat="52.339813" lon="4.575689">
<ele>1.9</ele>
<time>2026-02-13T16:18:56Z</time>
</trkpt>
<trkpt lat="52.339814" lon="4.575695">
<ele>2.0</ele>
<time>2026-02-13T16:18:57Z</time>
</trkpt>
<trkpt lat="52.339813" lon="4.575705">
<ele>2.0</ele>
<time>2026-02-13T16:18:57Z</time>
</trkpt>
<trkpt lat="52.339813" lon="4.575717">
<ele>1.9</ele>
<time>2026-02-13T16:18:58Z</time>
</trkpt>
<trkpt lat="52.339812" lon="4.575730">
<ele>1.9</ele>
<time>2026-02-13T16:18:58Z</time>
</trkpt>
<trkpt lat="52.339810" lon="4.575743">
<ele>1.9</ele>
<time>2026-02-13T16:18:59Z</time>
</trkpt>
<trkpt lat="52.339808" lon="4.575775">
<ele>1.8</ele>
<time>2026-02-13T16:19:00Z</time>
</trkpt>
<trkpt lat="52.339809" lon="4.575800">
<ele>1.7</ele>
<time>2026-02-13T16:19:01Z</time>
</trkpt>
<trkpt lat="52.339813" lon="4.575816">
<ele>2.1</ele>
<time>2026-02-13T16:19:02Z</time>
</trkpt>
<trkpt lat="52.339816" lon="4.575826">
<ele>2.1</ele>
<time>2026-02-13T16:19:02Z</time>
</trkpt>
<trkpt lat="52.339817" lon="4.575839">
<ele>2.1</ele>
<time>2026-02-13T16:19:03Z</time>
</trkpt>
<trkpt lat="52.339820" lon="4.575865">
<ele>2.0</ele>
<time>2026-02-13T16:19:04Z</time>
</trkpt>
<trkpt lat="52.339821" lon="4.575894">
<ele>1.6</ele>
<time>2026-02-13T16:19:05Z</time>
</trkpt>
<trkpt lat="52.339818" lon="4.575920">
<ele>1.7</ele>
<time>2026-02-13T16:19:06Z</time>
</trkpt>
<trkpt lat="52.339815" lon="4.575940">
<ele>1.4</ele>
<time>2026-02-13T16:19:07Z</time>
</trkpt>
<trkpt lat="52.339809" lon="4.575957">
<ele>1.4</ele>
<time>2026-02-13T16:19:07Z</time>
</trkpt>
<trkpt lat="52.339807" lon="4.575971">
<ele>1.4</ele>
<time>2026-02-13T16:19:08Z</time>
</trkpt>
<trkpt lat="52.339802" lon="4.575992">
<ele>1.6</ele>
<time>2026-02-13T16:19:09Z</time>
</trkpt>
<trkpt lat="52.339798" lon="4.576018">
<ele>1.6</ele>
<time>2026-02-13T16:19:10Z</time>
</trkpt>
<trkpt lat="52.339794" lon="4.576046">
<ele>1.7</ele>
<time>2026-02-13T16:19:11Z</time>
</trkpt>
<trkpt lat="52.339793" lon="4.576058">
<ele>1.9</ele>
<time>2026-02-13T16:19:11Z</time>
</trkpt>
<trkpt lat="52.339792" lon="4.576071">
<ele>1.9</ele>
<time>2026-02-13T16:19:12Z</time>
</trkpt>
<trkpt lat="52.339789" lon="4.576076">
<ele>1.9</ele>
<time>2026-02-13T16:19:12Z</time>
</trkpt>
<trkpt lat="52.339793" lon="4.576085">
<ele>2.2</ele>
<time>2026-02-13T16:19:13Z</time>
</trkpt>
<trkpt lat="52.339795" lon="4.576092">
<ele>2.2</ele>
<time>2026-02-13T16:19:14Z</time>
</trkpt>
<trkpt lat="52.339801" lon="4.576115">
<ele>2.2</ele>
<time>2026-02-13T16:19:15Z</time>
</trkpt>
<trkpt lat="52.339803" lon="4.576134">
<ele>2.2</ele>
<time>2026-02-13T16:19:15Z</time>
</trkpt>
<trkpt lat="52.339806" lon="4.576154">
<ele>2.5</ele>
<time>2026-02-13T16:19:16Z</time>
</trkpt>
<trkpt lat="52.339806" lon="4.576171">
<ele>2.5</ele>
<time>2026-02-13T16:19:16Z</time>
</trkpt>
<trkpt lat="52.339804" lon="4.576209">
<ele>2.5</ele>
<time>2026-02-13T16:19:18Z</time>
</trkpt>
<trkpt lat="52.339805" lon="4.576239">
<ele>2.5</ele>
<time>2026-02-13T16:19:19Z</time>
</trkpt>
<trkpt lat="52.339805" lon="4.576265">
<ele>2.1</ele>
<time>2026-02-13T16:19:20Z</time>
</trkpt>
<trkpt lat="52.339804" lon="4.576295">
<ele>2.1</ele>
<time>2026-02-13T16:19:21Z</time>
</trkpt>
<trkpt lat="52.339801" lon="4.576321">
<ele>2.5</ele>
<time>2026-02-13T16:19:22Z</time>
</trkpt>
<trkpt lat="52.339797" lon="4.576339">
<ele>1.9</ele>
<time>2026-02-13T16:19:23Z</time>
</trkpt>
<trkpt lat="52.339792" lon="4.576353">
<ele>1.9</ele>
<time>2026-02-13T16:19:23Z</time>
</trkpt>
<trkpt lat="52.339787" lon="4.576366">
<ele>1.8</ele>
<time>2026-02-13T16:19:24Z</time>
</trkpt>
<trkpt lat="52.339776" lon="4.576390">
<ele>2.0</ele>
<time>2026-02-13T16:19:25Z</time>
</trkpt>
<trkpt lat="52.339769" lon="4.576412">
<ele>2.1</ele>
<time>2026-02-13T16:19:26Z</time>
</trkpt>
<trkpt lat="52.339767" lon="4.576435">
<ele>2.0</ele>
<time>2026-02-13T16:19:27Z</time>
</trkpt>
<trkpt lat="52.339772" lon="4.576446">
<ele>1.9</ele>
<time>2026-02-13T16:19:27Z</time>
</trkpt>
<trkpt lat="52.339776" lon="4.576459">
<ele>1.9</ele>
<time>2026-02-13T16:19:28Z</time>
</trkpt>
<trkpt lat="52.339779" lon="4.576471">
<ele>1.7</ele>
<time>2026-02-13T16:19:29Z</time>
</trkpt>
<trkpt lat="52.339777" lon="4.576497">
<ele>1.6</ele>
<time>2026-02-13T16:19:30Z</time>
</trkpt>
<trkpt lat="52.339781" lon="4.576521">
<ele>1.8</ele>
<time>2026-02-13T16:19:31Z</time>
</trkpt>
<trkpt lat="52.339787" lon="4.576547">
<ele>1.8</ele>
<time>2026-02-13T16:19:32Z</time>
</trkpt>
<trkpt lat="52.339794" lon="4.576564">
<ele>1.8</ele>
<time>2026-02-13T16:19:32Z</time>
</trkpt>
<trkpt lat="52.339807" lon="4.576589">
<ele>1.7</ele>
<time>2026-02-13T16:19:33Z</time>
</trkpt>
<trkpt lat="52.339817" lon="4.576605">
<ele>1.5</ele>
<time>2026-02-13T16:19:34Z</time>
</trkpt>
<trkpt lat="52.339823" lon="4.576623">
<ele>1.4</ele>
<time>2026-02-13T16:19:35Z</time>
</trkpt>
<trkpt lat="52.339832" lon="4.576644">
<ele>1.4</ele>
<time>2026-02-13T16:19:36Z</time>
</trkpt>
<trkpt lat="52.339844" lon="4.576663">
<ele>1.0</ele>
<time>2026-02-13T16:19:37Z</time>
</trkpt>
<trkpt lat="52.339855" lon="4.576673">
<ele>1.2</ele>
<time>2026-02-13T16:19:37Z</time>
</trkpt>
<trkpt lat="52.339877" lon="4.576684">
<ele>1.2</ele>
<time>2026-02-13T16:19:38Z</time>
</trkpt>
<trkpt lat="52.339907" lon="4.576704">
<ele>1.0</ele>
<time>2026-02-13T16:19:40Z</time>
</trkpt>
<trkpt lat="52.339926" lon="4.576716">
<ele>1.2</ele>
<time>2026-02-13T16:19:41Z</time>
</trkpt>
<trkpt lat="52.339945" lon="4.576725">
<ele>1.4</ele>
<time>2026-02-13T16:19:42Z</time>
</trkpt>
<trkpt lat="52.339954" lon="4.576726">
<ele>1.4</ele>
<time>2026-02-13T16:19:42Z</time>
</trkpt>
<trkpt lat="52.339971" lon="4.576730">
<ele>1.3</ele>
<time>2026-02-13T16:19:43Z</time>
</trkpt>
<trkpt lat="52.339979" lon="4.576733">
<ele>1.3</ele>
<time>2026-02-13T16:19:44Z</time>
</trkpt>
<trkpt lat="52.339986" lon="4.576740">
<ele>1.3</ele>
<time>2026-02-13T16:19:44Z</time>
</trkpt>
<trkpt lat="52.339994" lon="4.576750">
<ele>1.0</ele>
<time>2026-02-13T16:19:45Z</time>
</trkpt>
<trkpt lat="52.340010" lon="4.576753">
<ele>0.9</ele>
<time>2026-02-13T16:19:46Z</time>
</trkpt>
<trkpt lat="52.340028" lon="4.576758">
<ele>1.0</ele>
<time>2026-02-13T16:19:47Z</time>
</trkpt>
<trkpt lat="52.340039" lon="4.576761">
<ele>1.0</ele>
<time>2026-02-13T16:19:47Z</time>
</trkpt>
<trkpt lat="52.340051" lon="4.576769">
<ele>0.6</ele>
<time>2026-02-13T16:19:48Z</time>
</trkpt>
<trkpt lat="52.340059" lon="4.576777">
<ele>0.5</ele>
<time>2026-02-13T16:19:49Z</time>
</trkpt>
<trkpt lat="52.340072" lon="4.576793">
<ele>0.5</ele>
<time>2026-02-13T16:19:50Z</time>
</trkpt>
<trkpt lat="52.340087" lon="4.576810">
<ele>0.9</ele>
<time>2026-02-13T16:19:51Z</time>
</trkpt>
<trkpt lat="52.340101" lon="4.576817">
<ele>0.3</ele>
<time>2026-02-13T16:19:52Z</time>
</trkpt>
<trkpt lat="52.340117" lon="4.576824">
<ele>0.2</ele>
<time>2026-02-13T16:19:53Z</time>
</trkpt>
<trkpt lat="52.340133" lon="4.576835">
<ele>0.3</ele>
<time>2026-02-13T16:19:54Z</time>
</trkpt>
<trkpt lat="52.340149" lon="4.576841">
<ele>0.4</ele>
<time>2026-02-13T16:19:55Z</time>
</trkpt>
<trkpt lat="52.340165" lon="4.576851">
<ele>0.3</ele>
<time>2026-02-13T16:19:56Z</time>
</trkpt>
<trkpt lat="52.340180" lon="4.576861">
<ele>0.3</ele>
<time>2026-02-13T16:19:57Z</time>
</trkpt>
<trkpt lat="52.340194" lon="4.576870">
<ele>0.3</ele>
<time>2026-02-13T16:19:58Z</time>
</trkpt>
<trkpt lat="52.340206" lon="4.576878">
<ele>0.2</ele>
<time>2026-02-13T16:19:58Z</time>
</trkpt>
<trkpt lat="52.340212" lon="4.576883">
<ele>0.6</ele>
<time>2026-02-13T16:19:59Z</time>
</trkpt>
<trkpt lat="52.340220" lon="4.576888">
<ele>0.6</ele>
<time>2026-02-13T16:19:59Z</time>
</trkpt>
<trkpt lat="52.340226" lon="4.576894">
<ele>0.5</ele>
<time>2026-02-13T16:20:00Z</time>
</trkpt>
<trkpt lat="52.340236" lon="4.576903">
<ele>0.5</ele>
<time>2026-02-13T16:20:01Z</time>
</trkpt>
<trkpt lat="52.340246" lon="4.576912">
<ele>0.5</ele>
<time>2026-02-13T16:20:01Z</time>
</trkpt>
<trkpt lat="52.340252" lon="4.576916">
<ele>0.4</ele>
<time>2026-02-13T16:20:02Z</time>
</trkpt>
<trkpt lat="52.340261" lon="4.576924">
<ele>0.1</ele>
<time>2026-02-13T16:20:03Z</time>
</trkpt>
<trkpt lat="52.340274" lon="4.576931">
<ele>0.2</ele>
<time>2026-02-13T16:20:04Z</time>
</trkpt>
<trkpt lat="52.340288" lon="4.576937">
<ele>-0.2</ele>
<time>2026-02-13T16:20:05Z</time>
</trkpt>
<trkpt lat="52.340301" lon="4.576945">
<ele>-0.2</ele>
<time>2026-02-13T16:20:06Z</time>
</trkpt>
<trkpt lat="52.340313" lon="4.576955">
<ele>0.0</ele>
<time>2026-02-13T16:20:07Z</time>
</trkpt>
<trkpt lat="52.340326" lon="4.576966">
<ele>-0.1</ele>
<time>2026-02-13T16:20:08Z</time>
</trkpt>
<trkpt lat="52.340339" lon="4.576978">
<ele>-0.1</ele>
<time>2026-02-13T16:20:09Z</time>
</trkpt>
<trkpt lat="52.340349" lon="4.576986">
<ele>-0.1</ele>
<time>2026-02-13T16:20:09Z</time>
</trkpt>
<trkpt lat="52.340356" lon="4.576991">
<ele>0.2</ele>
<time>2026-02-13T16:20:10Z</time>
</trkpt>
<trkpt lat="52.340362" lon="4.576997">
<ele>0.2</ele>
<time>2026-02-13T16:20:10Z</time>
</trkpt>
<trkpt lat="52.340369" lon="4.577001">
<ele>0.4</ele>
<time>2026-02-13T16:20:11Z</time>
</trkpt>
<trkpt lat="52.340375" lon="4.577007">
<ele>0.4</ele>
<time>2026-02-13T16:20:11Z</time>
</trkpt>
<trkpt lat="52.340381" lon="4.577011">
<ele>0.4</ele>
<time>2026-02-13T16:20:12Z</time>
</trkpt>
<trkpt lat="52.340388" lon="4.577018">
<ele>0.4</ele>
<time>2026-02-13T16:20:12Z</time>
</trkpt>
<trkpt lat="52.340394" lon="4.577021">
<ele>0.4</ele>
<time>2026-02-13T16:20:13Z</time>
</trkpt>
<trkpt lat="52.340400" lon="4.577028">
<ele>0.4</ele>
<time>2026-02-13T16:20:13Z</time>
</trkpt>
<trkpt lat="52.340406" lon="4.577032">
<ele>0.6</ele>
<time>2026-02-13T16:20:14Z</time>
</trkpt>
<trkpt lat="52.340413" lon="4.577039">
<ele>0.6</ele>
<time>2026-02-13T16:20:14Z</time>
</trkpt>
<trkpt lat="52.340418" lon="4.577042">
<ele>0.4</ele>
<time>2026-02-13T16:20:15Z</time>
</trkpt>
<trkpt lat="52.340430" lon="4.577057">
<ele>0.4</ele>
<time>2026-02-13T16:20:16Z</time>
</trkpt>
<trkpt lat="52.340441" lon="4.577072">
<ele>0.7</ele>
<time>2026-02-13T16:20:17Z</time>
</trkpt>
<trkpt lat="52.340445" lon="4.577078">
<ele>0.3</ele>
<time>2026-02-13T16:20:17Z</time>
</trkpt>
<trkpt lat="52.340448" lon="4.577083">
<ele>0.4</ele>
<time>2026-02-13T16:20:18Z</time>
</trkpt>
<trkpt lat="52.340456" lon="4.577095">
<ele>0.5</ele>
<time>2026-02-13T16:20:19Z</time>
</trkpt>
<trkpt lat="52.340464" lon="4.577105">
<ele>0.5</ele>
<time>2026-02-13T16:20:19Z</time>
</trkpt>
<trkpt lat="52.340481" lon="4.577112">
<ele>0.3</ele>
<time>2026-02-13T16:20:21Z</time>
</trkpt>
<trkpt lat="52.340489" lon="4.577116">
<ele>0.3</ele>
<time>2026-02-13T16:20:21Z</time>
</trkpt>
<trkpt lat="52.340497" lon="4.577123">
<ele>0.2</ele>
<time>2026-02-13T16:20:22Z</time>
</trkpt>
<trkpt lat="52.340507" lon="4.577132">
<ele>0.3</ele>
<time>2026-02-13T16:20:23Z</time>
</trkpt>
<trkpt lat="52.340513" lon="4.577136">
<ele>0.4</ele>
<time>2026-02-13T16:20:23Z</time>
</trkpt>
<trkpt lat="52.340520" lon="4.577140">
<ele>0.4</ele>
<time>2026-02-13T16:20:24Z</time>
</trkpt>
<trkpt lat="52.340528" lon="4.577145">
<ele>0.4</ele>
<time>2026-02-13T16:20:24Z</time>
</trkpt>
<trkpt lat="52.340541" lon="4.577151">
<ele>0.4</ele>
<time>2026-02-13T16:20:25Z</time>
</trkpt>
<trkpt lat="52.340553" lon="4.577156">
<ele>0.4</ele>
<time>2026-02-13T16:20:26Z</time>
</trkpt>
<trkpt lat="52.340559" lon="4.577162">
<ele>0.2</ele>
<time>2026-02-13T16:20:27Z</time>
</trkpt>
<trkpt lat="52.340572" lon="4.577173">
<ele>0.2</ele>
<time>2026-02-13T16:20:28Z</time>
</trkpt>
<trkpt lat="52.340583" lon="4.577186">
<ele>0.6</ele>
<time>2026-02-13T16:20:29Z</time>
</trkpt>
<trkpt lat="52.340596" lon="4.577198">
<ele>0.6</ele>
<time>2026-02-13T16:20:30Z</time>
</trkpt>
<trkpt lat="52.340602" lon="4.577208">
<ele>0.5</ele>
<time>2026-02-13T16:20:30Z</time>
</trkpt>
<trkpt lat="52.340608" lon="4.577215">
<ele>0.5</ele>
<time>2026-02-13T16:20:31Z</time>
</trkpt>
<trkpt lat="52.340625" lon="4.577226">
<ele>0.1</ele>
<time>2026-02-13T16:20:32Z</time>
</trkpt>
<trkpt lat="52.340631" lon="4.577230">
<ele>0.2</ele>
<time>2026-02-13T16:20:32Z</time>
</trkpt>
<trkpt lat="52.340643" lon="4.577235">
<ele>0.2</ele>
<time>2026-02-13T16:20:33Z</time>
</trkpt>
<trkpt lat="52.340650" lon="4.577237">
<ele>0.2</ele>
<time>2026-02-13T16:20:33Z</time>
</trkpt>
<trkpt lat="52.340666" lon="4.577240">
<ele>-0.2</ele>
<time>2026-02-13T16:20:34Z</time>
</trkpt>
<trkpt lat="52.340673" lon="4.577242">
<ele>-0.2</ele>
<time>2026-02-13T16:20:35Z</time>
</trkpt>
<trkpt lat="52.340680" lon="4.577246">
<ele>-0.2</ele>
<time>2026-02-13T16:20:35Z</time>
</trkpt>
<trkpt lat="52.340687" lon="4.577254">
<ele>0.1</ele>
<time>2026-02-13T16:20:36Z</time>
</trkpt>
<trkpt lat="52.340694" lon="4.577263">
<ele>-0.1</ele>
<time>2026-02-13T16:20:37Z</time>
</trkpt>
<trkpt lat="52.340706" lon="4.577272">
<ele>-0.1</ele>
<time>2026-02-13T16:20:37Z</time>
</trkpt>
<trkpt lat="52.340722" lon="4.577288">
<ele>0.1</ele>
<time>2026-02-13T16:20:39Z</time>
</trkpt>
<trkpt lat="52.340738" lon="4.577301">
<ele>0.1</ele>
<time>2026-02-13T16:20:40Z</time>
</trkpt>
<trkpt lat="52.340746" lon="4.577309">
<ele>0.3</ele>
<time>2026-02-13T16:20:40Z</time>
</trkpt>
<trkpt lat="52.340760" lon="4.577319">
<ele>0.3</ele>
<time>2026-02-13T16:20:41Z</time>
</trkpt>
<trkpt lat="52.340775" lon="4.577329">
<ele>0.2</ele>
<time>2026-02-13T16:20:42Z</time>
</trkpt>
<trkpt lat="52.340793" lon="4.577344">
<ele>0.3</ele>
<time>2026-02-13T16:20:44Z</time>
</trkpt>
<trkpt lat="52.340805" lon="4.577361">
<ele>-0.1</ele>
<time>2026-02-13T16:20:45Z</time>
</trkpt>
<trkpt lat="52.340810" lon="4.577371">
<ele>0.2</ele>
<time>2026-02-13T16:20:45Z</time>
</trkpt>
<trkpt lat="52.340815" lon="4.577379">
<ele>-0.2</ele>
<time>2026-02-13T16:20:46Z</time>
</trkpt>
<trkpt lat="52.340820" lon="4.577388">
<ele>-0.2</ele>
<time>2026-02-13T16:20:46Z</time>
</trkpt>
<trkpt lat="52.340827" lon="4.577400">
<ele>-0.2</ele>
<time>2026-02-13T16:20:47Z</time>
</trkpt>
<trkpt lat="52.340834" lon="4.577412">
<ele>-0.1</ele>
<time>2026-02-13T16:20:48Z</time>
</trkpt>
<trkpt lat="52.340845" lon="4.577434">
<ele>-0.1</ele>
<time>2026-02-13T16:20:49Z</time>
</trkpt>
<trkpt lat="52.340855" lon="4.577449">
<ele>-0.3</ele>
<time>2026-02-13T16:20:50Z</time>
</trkpt>
<trkpt lat="52.340861" lon="4.577455">
<ele>-0.4</ele>
<time>2026-02-13T16:20:50Z</time>
</trkpt>
<trkpt lat="52.340874" lon="4.577464">
<ele>-0.4</ele>
<time>2026-02-13T16:20:51Z</time>
</trkpt>
<trkpt lat="52.340884" lon="4.577470">
<ele>-0.1</ele>
<time>2026-02-13T16:20:52Z</time>
</trkpt>
<trkpt lat="52.340899" lon="4.577484">
<ele>-0.1</ele>
<time>2026-02-13T16:20:53Z</time>
</trkpt>
<trkpt lat="52.340915" lon="4.577495">
<ele>-0.1</ele>
<time>2026-02-13T16:20:54Z</time>
</trkpt>
<trkpt lat="52.340928" lon="4.577504">
<ele>-0.1</ele>
<time>2026-02-13T16:20:55Z</time>
</trkpt>
<trkpt lat="52.340934" lon="4.577512">
<ele>-0.1</ele>
<time>2026-02-13T16:20:55Z</time>
</trkpt>
<trkpt lat="52.340941" lon="4.577518">
<ele>-0.2</ele>
<time>2026-02-13T16:20:56Z</time>
</trkpt>
<trkpt lat="52.340950" lon="4.577523">
<ele>-0.2</ele>
<time>2026-02-13T16:20:56Z</time>
</trkpt>
<trkpt lat="52.340957" lon="4.577528">
<ele>-0.1</ele>
<time>2026-02-13T16:20:57Z</time>
</trkpt>
<trkpt lat="52.340969" lon="4.577538">
<ele>0.2</ele>
<time>2026-02-13T16:20:58Z</time>
</trkpt>
<trkpt lat="52.340981" lon="4.577552">
<ele>0.2</ele>
<time>2026-02-13T16:20:59Z</time>
</trkpt>
<trkpt lat="52.340996" lon="4.577567">
<ele>0.2</ele>
<time>2026-02-13T16:21:00Z</time>
</trkpt>
<trkpt lat="52.341004" lon="4.577579">
<ele>0.2</ele>
<time>2026-02-13T16:21:01Z</time>
</trkpt>
<trkpt lat="52.341009" lon="4.577591">
<ele>0.0</ele>
<time>2026-02-13T16:21:01Z</time>
</trkpt>
<trkpt lat="52.341013" lon="4.577602">
<ele>0.0</ele>
<time>2026-02-13T16:21:02Z</time>
</trkpt>
<trkpt lat="52.341025" lon="4.577622">
<ele>0.0</ele>
<time>2026-02-13T16:21:03Z</time>
</trkpt>
<trkpt lat="52.341035" lon="4.577639">
<ele>-0.3</ele>
<time>2026-02-13T16:21:04Z</time>
</trkpt>
<trkpt lat="52.341043" lon="4.577655">
<ele>-0.1</ele>
<time>2026-02-13T16:21:05Z</time>
</trkpt>
<trkpt lat="52.341050" lon="4.577672">
<ele>-0.1</ele>
<time>2026-02-13T16:21:06Z</time>
</trkpt>
<trkpt lat="52.341057" lon="4.577688">
<ele>-0.2</ele>
<time>2026-02-13T16:21:07Z</time>
</trkpt>
<trkpt lat="52.341068" lon="4.577705">
<ele>0.1</ele>
<time>2026-02-13T16:21:08Z</time>
</trkpt>
<trkpt lat="52.341080" lon="4.577722">
<ele>0.3</ele>
<time>2026-02-13T16:21:09Z</time>
</trkpt>
<trkpt lat="52.341090" lon="4.577738">
<ele>0.3</ele>
<time>2026-02-13T16:21:10Z</time>
</trkpt>
<trkpt lat="52.341099" lon="4.577754">
<ele>0.3</ele>
<time>2026-02-13T16:21:11Z</time>
</trkpt>
<trkpt lat="52.341100" lon="4.577762">
<ele>0.3</ele>
<time>2026-02-13T16:21:11Z</time>
</trkpt>
<trkpt lat="52.341104" lon="4.577774">
<ele>0.2</ele>
<time>2026-02-13T16:21:12Z</time>
</trkpt>
<trkpt lat="52.341108" lon="4.577781">
<ele>0.2</ele>
<time>2026-02-13T16:21:12Z</time>
</trkpt>
<trkpt lat="52.341112" lon="4.577789">
<ele>0.2</ele>
<time>2026-02-13T16:21:13Z</time>
</trkpt>
<trkpt lat="52.341121" lon="4.577800">
<ele>0.2</ele>
<time>2026-02-13T16:21:14Z</time>
</trkpt>
<trkpt lat="52.341129" lon="4.577816">
<ele>0.5</ele>
<time>2026-02-13T16:21:15Z</time>
</trkpt>
<trkpt lat="52.341137" lon="4.577831">
<ele>0.1</ele>
<time>2026-02-13T16:21:16Z</time>
</trkpt>
<trkpt lat="52.341140" lon="4.577841">
<ele>0.2</ele>
<time>2026-02-13T16:21:16Z</time>
</trkpt>
<trkpt lat="52.341144" lon="4.577853">
<ele>0.2</ele>
<time>2026-02-13T16:21:17Z</time>
</trkpt>
<trkpt lat="52.341151" lon="4.577868">
<ele>0.0</ele>
<time>2026-02-13T16:21:18Z</time>
</trkpt>
<trkpt lat="52.341160" lon="4.577879">
<ele>0.0</ele>
<time>2026-02-13T16:21:18Z</time>
</trkpt>
<trkpt lat="52.341174" lon="4.577900">
<ele>-0.1</ele>
<time>2026-02-13T16:21:20Z</time>
</trkpt>
<trkpt lat="52.341180" lon="4.577918">
<ele>0.1</ele>
<time>2026-02-13T16:21:21Z</time>
</trkpt>
<trkpt lat="52.341185" lon="4.577930">
<ele>0.1</ele>
<time>2026-02-13T16:21:21Z</time>
</trkpt>
<trkpt lat="52.341188" lon="4.577941">
<ele>0.0</ele>
<time>2026-02-13T16:21:22Z</time>
</trkpt>
<trkpt lat="52.341193" lon="4.577949">
<ele>0.0</ele>
<time>2026-02-13T16:21:22Z</time>
</trkpt>
<trkpt lat="52.341203" lon="4.577966">
<ele>0.0</ele>
<time>2026-02-13T16:21:23Z</time>
</trkpt>
<trkpt lat="52.341207" lon="4.577975">
<ele>0.0</ele>
<time>2026-02-13T16:21:24Z</time>
</trkpt>
<trkpt lat="52.341215" lon="4.577991">
<ele>-0.1</ele>
<time>2026-02-13T16:21:25Z</time>
</trkpt>
<trkpt lat="52.341226" lon="4.578011">
<ele>0.3</ele>
<time>2026-02-13T16:21:26Z</time>
</trkpt>
<trkpt lat="52.341233" lon="4.578023">
<ele>0.3</ele>
<time>2026-02-13T16:21:26Z</time>
</trkpt>
<trkpt lat="52.341238" lon="4.578033">
<ele>0.2</ele>
<time>2026-02-13T16:21:27Z</time>
</trkpt>
<trkpt lat="52.341244" lon="4.578041">
<ele>0.2</ele>
<time>2026-02-13T16:21:27Z</time>
</trkpt>
<trkpt lat="52.341249" lon="4.578052">
<ele>0.2</ele>
<time>2026-02-13T16:21:28Z</time>
</trkpt>
<trkpt lat="52.341255" lon="4.578061">
<ele>0.2</ele>
<time>2026-02-13T16:21:28Z</time>
</trkpt>
<trkpt lat="52.341262" lon="4.578069">
<ele>0.2</ele>
<time>2026-02-13T16:21:29Z</time>
</trkpt>
<trkpt lat="52.341274" lon="4.578089">
<ele>-0.2</ele>
<time>2026-02-13T16:21:30Z</time>
</trkpt>
<trkpt lat="52.341281" lon="4.578110">
<ele>-0.1</ele>
<time>2026-02-13T16:21:31Z</time>
</trkpt>
<trkpt lat="52.341294" lon="4.578131">
<ele>-0.1</ele>
<time>2026-02-13T16:21:32Z</time>
</trkpt>
<trkpt lat="52.341298" lon="4.578140">
<ele>-0.4</ele>
<time>2026-02-13T16:21:32Z</time>
</trkpt>
<trkpt lat="52.341302" lon="4.578152">
<ele>-0.4</ele>
<time>2026-02-13T16:21:33Z</time>
</trkpt>
<trkpt lat="52.341307" lon="4.578163">
<ele>-0.4</ele>
<time>2026-02-13T16:21:33Z</time>
</trkpt>
<trkpt lat="52.341316" lon="4.578181">
<ele>-0.1</ele>
<time>2026-02-13T16:21:34Z</time>
</trkpt>
<trkpt lat="52.341322" lon="4.578191">
<ele>-0.1</ele>
<time>2026-02-13T16:21:35Z</time>
</trkpt>
<trkpt lat="52.341332" lon="4.578212">
<ele>-0.1</ele>
<time>2026-02-13T16:21:36Z</time>
</trkpt>
<trkpt lat="52.341340" lon="4.578225">
<ele>-0.1</ele>
<time>2026-02-13T16:21:36Z</time>
</trkpt>
<trkpt lat="52.341348" lon="4.578242">
<ele>0.2</ele>
<time>2026-02-13T16:21:37Z</time>
</trkpt>
<trkpt lat="52.341353" lon="4.578249">
<ele>0.2</ele>
<time>2026-02-13T16:21:38Z</time>
</trkpt>
<trkpt lat="52.341358" lon="4.578260">
<ele>0.4</ele>
<time>2026-02-13T16:21:38Z</time>
</trkpt>
<trkpt lat="52.341364" lon="4.578269">
<ele>0.4</ele>
<time>2026-02-13T16:21:39Z</time>
</trkpt>
<trkpt lat="52.341375" lon="4.578291">
<ele>0.4</ele>
<time>2026-02-13T16:21:40Z</time>
</trkpt>
<trkpt lat="52.341384" lon="4.578308">
<ele>0.3</ele>
<time>2026-02-13T16:21:41Z</time>
</trkpt>
<trkpt lat="52.341387" lon="4.578323">
<ele>0.3</ele>
<time>2026-02-13T16:21:42Z</time>
</trkpt>
<trkpt lat="52.341390" lon="4.578339">
<ele>0.2</ele>
<time>2026-02-13T16:21:42Z</time>
</trkpt>
<trkpt lat="52.341399" lon="4.578370">
<ele>0.3</ele>
<time>2026-02-13T16:21:44Z</time>
</trkpt>
<trkpt lat="52.341405" lon="4.578390">
<ele>0.1</ele>
<time>2026-02-13T16:21:44Z</time>
</trkpt>
<trkpt lat="52.341408" lon="4.578413">
<ele>0.1</ele>
<time>2026-02-13T16:21:45Z</time>
</trkpt>
<trkpt lat="52.341414" lon="4.578425">
<ele>0.2</ele>
<time>2026-02-13T16:21:46Z</time>
</trkpt>
<trkpt lat="52.341416" lon="4.578437">
<ele>0.2</ele>
<time>2026-02-13T16:21:46Z</time>
</trkpt>
<trkpt lat="52.341428" lon="4.578464">
<ele>-0.1</ele>
<time>2026-02-13T16:21:48Z</time>
</trkpt>
<trkpt lat="52.341439" lon="4.578478">
<ele>-0.1</ele>
<time>2026-02-13T16:21:48Z</time>
</trkpt>
<trkpt lat="52.341449" lon="4.578485">
<ele>-0.2</ele>
<time>2026-02-13T16:21:49Z</time>
</trkpt>
<trkpt lat="52.341459" lon="4.578494">
<ele>-0.1</ele>
<time>2026-02-13T16:21:50Z</time>
</trkpt>
<trkpt lat="52.341470" lon="4.578506">
<ele>-0.1</ele>
<time>2026-02-13T16:21:50Z</time>
</trkpt>
<trkpt lat="52.341480" lon="4.578515">
<ele>0.1</ele>
<time>2026-02-13T16:21:51Z</time>
</trkpt>
<trkpt lat="52.341486" lon="4.578523">
<ele>0.0</ele>
<time>2026-02-13T16:21:52Z</time>
</trkpt>
<trkpt lat="52.341496" lon="4.578532">
<ele>0.0</ele>
<time>2026-02-13T16:21:52Z</time>
</trkpt>
<trkpt lat="52.341506" lon="4.578549">
<ele>0.1</ele>
<time>2026-02-13T16:21:53Z</time>
</trkpt>
<trkpt lat="52.341515" lon="4.578568">
<ele>0.0</ele>
<time>2026-02-13T16:21:54Z</time>
</trkpt>
<trkpt lat="52.341525" lon="4.578588">
<ele>0.2</ele>
<time>2026-02-13T16:21:55Z</time>
</trkpt>
<trkpt lat="52.341529" lon="4.578599">
<ele>0.4</ele>
<time>2026-02-13T16:21:56Z</time>
</trkpt>
<trkpt lat="52.341535" lon="4.578608">
<ele>0.4</ele>
<time>2026-02-13T16:21:56Z</time>
</trkpt>
<trkpt lat="52.341540" lon="4.578619">
<ele>0.4</ele>
<time>2026-02-13T16:21:57Z</time>
</trkpt>
<trkpt lat="52.341545" lon="4.578628">
<ele>0.4</ele>
<time>2026-02-13T16:21:57Z</time>
</trkpt>
<trkpt lat="52.341554" lon="4.578649">
<ele>0.4</ele>
<time>2026-02-13T16:21:58Z</time>
</trkpt>
<trkpt lat="52.341558" lon="4.578660">
<ele>-0.1</ele>
<time>2026-02-13T16:21:59Z</time>
</trkpt>
<trkpt lat="52.341563" lon="4.578667">
<ele>-0.1</ele>
<time>2026-02-13T16:21:59Z</time>
</trkpt>
<trkpt lat="52.341570" lon="4.578679">
<ele>0.1</ele>
<time>2026-02-13T16:22:00Z</time>
</trkpt>
<trkpt lat="52.341579" lon="4.578692">
<ele>-0.3</ele>
<time>2026-02-13T16:22:01Z</time>
</trkpt>
<trkpt lat="52.341585" lon="4.578701">
<ele>-0.3</ele>
<time>2026-02-13T16:22:01Z</time>
</trkpt>
<trkpt lat="52.341589" lon="4.578709">
<ele>-0.3</ele>
<time>2026-02-13T16:22:02Z</time>
</trkpt>
<trkpt lat="52.341594" lon="4.578719">
<ele>-0.3</ele>
<time>2026-02-13T16:22:02Z</time>
</trkpt>
<trkpt lat="52.341600" lon="4.578728">
<ele>-0.3</ele>
<time>2026-02-13T16:22:03Z</time>
</trkpt>
<trkpt lat="52.341604" lon="4.578737">
<ele>0.0</ele>
<time>2026-02-13T16:22:03Z</time>
</trkpt>
<trkpt lat="52.341610" lon="4.578747">
<ele>0.0</ele>
<time>2026-02-13T16:22:04Z</time>
</trkpt>
<trkpt lat="52.341613" lon="4.578755">
<ele>-0.2</ele>
<time>2026-02-13T16:22:04Z</time>
</trkpt>
<trkpt lat="52.341618" lon="4.578765">
<ele>-0.2</ele>
<time>2026-02-13T16:22:05Z</time>
</trkpt>
<trkpt lat="52.341628" lon="4.578784">
<ele>-0.2</ele>
<time>2026-02-13T16:22:06Z</time>
</trkpt>
<trkpt lat="52.341631" lon="4.578793">
<ele>0.1</ele>
<time>2026-02-13T16:22:06Z</time>
</trkpt>
<trkpt lat="52.341636" lon="4.578802">
<ele>0.1</ele>
<time>2026-02-13T16:22:07Z</time>
</trkpt>
<trkpt lat="52.341639" lon="4.578811">
<ele>0.2</ele>
<time>2026-02-13T16:22:07Z</time>
</trkpt>
<trkpt lat="52.341644" lon="4.578820">
<ele>0.2</ele>
<time>2026-02-13T16:22:08Z</time>
</trkpt>
<trkpt lat="52.341648" lon="4.578828">
<ele>0.2</ele>
<time>2026-02-13T16:22:08Z</time>
</trkpt>
<trkpt lat="52.341653" lon="4.578838">
<ele>0.2</ele>
<time>2026-02-13T16:22:09Z</time>
</trkpt>
<trkpt lat="52.341663" lon="4.578855">
<ele>0.2</ele>
<time>2026-02-13T16:22:10Z</time>
</trkpt>
<trkpt lat="52.341667" lon="4.578863">
<ele>0.0</ele>
<time>2026-02-13T16:22:10Z</time>
</trkpt>
<trkpt lat="52.341673" lon="4.578873">
<ele>0.0</ele>
<time>2026-02-13T16:22:11Z</time>
</trkpt>
<trkpt lat="52.341683" lon="4.578890">
<ele>0.0</ele>
<time>2026-02-13T16:22:11Z</time>
</trkpt>
<trkpt lat="52.341689" lon="4.578899">
<ele>0.0</ele>
<time>2026-02-13T16:22:12Z</time>
</trkpt>
<trkpt lat="52.341695" lon="4.578909">
<ele>0.0</ele>
<time>2026-02-13T16:22:12Z</time>
</trkpt>
<trkpt lat="52.341699" lon="4.578917">
<ele>-0.2</ele>
<time>2026-02-13T16:22:13Z</time>
</trkpt>
<trkpt lat="52.341705" lon="4.578927">
<ele>-0.2</ele>
<time>2026-02-13T16:22:13Z</time>
</trkpt>
<trkpt lat="52.341712" lon="4.578938">
<ele>-0.1</ele>
<time>2026-02-13T16:22:14Z</time>
</trkpt>
<trkpt lat="52.341716" lon="4.578946">
<ele>-0.1</ele>
<time>2026-02-13T16:22:14Z</time>
</trkpt>
<trkpt lat="52.341722" lon="4.578952">
<ele>-0.1</ele>
<time>2026-02-13T16:22:15Z</time>
</trkpt>
<trkpt lat="52.341728" lon="4.578961">
<ele>-0.1</ele>
<time>2026-02-13T16:22:15Z</time>
</trkpt>
<trkpt lat="52.341734" lon="4.578968">
<ele>-0.3</ele>
<time>2026-02-13T16:22:16Z</time>
</trkpt>
<trkpt lat="52.341740" lon="4.578976">
<ele>-0.3</ele>
<time>2026-02-13T16:22:16Z</time>
</trkpt>
<trkpt lat="52.341745" lon="4.578982">
<ele>-0.3</ele>
<time>2026-02-13T16:22:17Z</time>
</trkpt>
<trkpt lat="52.341751" lon="4.578991">
<ele>-0.3</ele>
<time>2026-02-13T16:22:17Z</time>
</trkpt>
<trkpt lat="52.341756" lon="4.578996">
<ele>-0.4</ele>
<time>2026-02-13T16:22:18Z</time>
</trkpt>
<trkpt lat="52.341762" lon="4.579005">
<ele>-0.4</ele>
<time>2026-02-13T16:22:18Z</time>
</trkpt>
<trkpt lat="52.341767" lon="4.579014">
<ele>-0.3</ele>
<time>2026-02-13T16:22:19Z</time>
</trkpt>
<trkpt lat="52.341772" lon="4.579023">
<ele>-0.3</ele>
<time>2026-02-13T16:22:19Z</time>
</trkpt>
<trkpt lat="52.341777" lon="4.579033">
<ele>-0.1</ele>
<time>2026-02-13T16:22:20Z</time>
</trkpt>
<trkpt lat="52.341784" lon="4.579046">
<ele>-0.1</ele>
<time>2026-02-13T16:22:21Z</time>
</trkpt>
<trkpt lat="52.341793" lon="4.579061">
<ele>-0.1</ele>
<time>2026-02-13T16:22:21Z</time>
</trkpt>
<trkpt lat="52.341797" lon="4.579068">
<ele>0.0</ele>
<time>2026-02-13T16:22:22Z</time>
</trkpt>
<trkpt lat="52.341802" lon="4.579077">
<ele>0.0</ele>
<time>2026-02-13T16:22:22Z</time>
</trkpt>
<trkpt lat="52.341805" lon="4.579086">
<ele>0.1</ele>
<time>2026-02-13T16:22:23Z</time>
</trkpt>
<trkpt lat="52.341812" lon="4.579099">
<ele>0.3</ele>
<time>2026-02-13T16:22:24Z</time>
</trkpt>
<trkpt lat="52.341819" lon="4.579113">
<ele>0.3</ele>
<time>2026-02-13T16:22:24Z</time>
</trkpt>
<trkpt lat="52.341823" lon="4.579123">
<ele>0.5</ele>
<time>2026-02-13T16:22:25Z</time>
</trkpt>
<trkpt lat="52.341830" lon="4.579141">
<ele>0.6</ele>
<time>2026-02-13T16:22:26Z</time>
</trkpt>
<trkpt lat="52.341834" lon="4.579150">
<ele>0.6</ele>
<time>2026-02-13T16:22:26Z</time>
</trkpt>
<trkpt lat="52.341840" lon="4.579167">
<ele>0.5</ele>
<time>2026-02-13T16:22:27Z</time>
</trkpt>
<trkpt lat="52.341844" lon="4.579176">
<ele>0.4</ele>
<time>2026-02-13T16:22:28Z</time>
</trkpt>
<trkpt lat="52.341851" lon="4.579191">
<ele>0.3</ele>
<time>2026-02-13T16:22:29Z</time>
</trkpt>
<trkpt lat="52.341860" lon="4.579211">
<ele>0.0</ele>
<time>2026-02-13T16:22:30Z</time>
</trkpt>
<trkpt lat="52.341866" lon="4.579227">
<ele>0.0</ele>
<time>2026-02-13T16:22:30Z</time>
</trkpt>
<trkpt lat="52.341870" lon="4.579237">
<ele>0.1</ele>
<time>2026-02-13T16:22:31Z</time>
</trkpt>
<trkpt lat="52.341875" lon="4.579247">
<ele>0.1</ele>
<time>2026-02-13T16:22:31Z</time>
</trkpt>
<trkpt lat="52.341879" lon="4.579257">
<ele>0.2</ele>
<time>2026-02-13T16:22:32Z</time>
</trkpt>
<trkpt lat="52.341883" lon="4.579268">
<ele>0.2</ele>
<time>2026-02-13T16:22:32Z</time>
</trkpt>
<trkpt lat="52.341888" lon="4.579275">
<ele>0.1</ele>
<time>2026-02-13T16:22:33Z</time>
</trkpt>
<trkpt lat="52.341893" lon="4.579286">
<ele>0.1</ele>
<time>2026-02-13T16:22:33Z</time>
</trkpt>
<trkpt lat="52.341904" lon="4.579303">
<ele>0.1</ele>
<time>2026-02-13T16:22:34Z</time>
</trkpt>
<trkpt lat="52.341908" lon="4.579309">
<ele>0.5</ele>
<time>2026-02-13T16:22:35Z</time>
</trkpt>
<trkpt lat="52.341914" lon="4.579320">
<ele>0.5</ele>
<time>2026-02-13T16:22:35Z</time>
</trkpt>
<trkpt lat="52.341918" lon="4.579326">
<ele>0.6</ele>
<time>2026-02-13T16:22:36Z</time>
</trkpt>
<trkpt lat="52.341923" lon="4.579335">
<ele>0.6</ele>
<time>2026-02-13T16:22:36Z</time>
</trkpt>
<trkpt lat="52.341927" lon="4.579344">
<ele>0.6</ele>
<time>2026-02-13T16:22:37Z</time>
</trkpt>
<trkpt lat="52.341936" lon="4.579359">
<ele>0.5</ele>
<time>2026-02-13T16:22:38Z</time>
</trkpt>
<trkpt lat="52.341941" lon="4.579370">
<ele>0.5</ele>
<time>2026-02-13T16:22:38Z</time>
</trkpt>
<trkpt lat="52.341954" lon="4.579392">
<ele>0.4</ele>
<time>2026-02-13T16:22:40Z</time>
</trkpt>
<trkpt lat="52.341961" lon="4.579400">
<ele>0.4</ele>
<time>2026-02-13T16:22:40Z</time>
</trkpt>
<trkpt lat="52.341977" lon="4.579422">
<ele>0.7</ele>
<time>2026-02-13T16:22:42Z</time>
</trkpt>
<trkpt lat="52.341987" lon="4.579439">
<ele>0.3</ele>
<time>2026-02-13T16:22:43Z</time>
</trkpt>
<trkpt lat="52.341997" lon="4.579461">
<ele>0.4</ele>
<time>2026-02-13T16:22:44Z</time>
</trkpt>
<trkpt lat="52.342000" lon="4.579469">
<ele>0.4</ele>
<time>2026-02-13T16:22:44Z</time>
</trkpt>
<trkpt lat="52.342008" lon="4.579486">
<ele>0.1</ele>
<time>2026-02-13T16:22:45Z</time>
</trkpt>
<trkpt lat="52.342013" lon="4.579494">
<ele>0.1</ele>
<time>2026-02-13T16:22:46Z</time>
</trkpt>
<trkpt lat="52.342018" lon="4.579502">
<ele>0.1</ele>
<time>2026-02-13T16:22:46Z</time>
</trkpt>
<trkpt lat="52.342023" lon="4.579510">
<ele>0.0</ele>
<time>2026-02-13T16:22:47Z</time>
</trkpt>
<trkpt lat="52.342036" lon="4.579526">
<ele>0.1</ele>
<time>2026-02-13T16:22:48Z</time>
</trkpt>
<trkpt lat="52.342048" lon="4.579536">
<ele>0.2</ele>
<time>2026-02-13T16:22:49Z</time>
</trkpt>
<trkpt lat="52.342063" lon="4.579550">
<ele>0.2</ele>
<time>2026-02-13T16:22:50Z</time>
</trkpt>
<trkpt lat="52.342073" lon="4.579557">
<ele>0.2</ele>
<time>2026-02-13T16:22:50Z</time>
</trkpt>
<trkpt lat="52.342087" lon="4.579566">
<ele>0.2</ele>
<time>2026-02-13T16:22:52Z</time>
</trkpt>
<trkpt lat="52.342093" lon="4.579573">
<ele>0.1</ele>
<time>2026-02-13T16:22:52Z</time>
</trkpt>
<trkpt lat="52.342100" lon="4.579578">
<ele>0.1</ele>
<time>2026-02-13T16:22:52Z</time>
</trkpt>
<trkpt lat="52.342112" lon="4.579594">
<ele>0.5</ele>
<time>2026-02-13T16:22:53Z</time>
</trkpt>
<trkpt lat="52.342118" lon="4.579606">
<ele>0.4</ele>
<time>2026-02-13T16:22:54Z</time>
</trkpt>
<trkpt lat="52.342125" lon="4.579612">
<ele>0.4</ele>
<time>2026-02-13T16:22:54Z</time>
</trkpt>
<trkpt lat="52.342137" lon="4.579629">
<ele>0.4</ele>
<time>2026-02-13T16:22:55Z</time>
</trkpt>
<trkpt lat="52.342150" lon="4.579645">
<ele>0.5</ele>
<time>2026-02-13T16:22:56Z</time>
</trkpt>
<trkpt lat="52.342162" lon="4.579664">
<ele>0.5</ele>
<time>2026-02-13T16:22:57Z</time>
</trkpt>
<trkpt lat="52.342178" lon="4.579690">
<ele>0.1</ele>
<time>2026-02-13T16:22:58Z</time>
</trkpt>
<trkpt lat="52.342190" lon="4.579708">
<ele>-0.2</ele>
<time>2026-02-13T16:23:00Z</time>
</trkpt>
<trkpt lat="52.342197" lon="4.579719">
<ele>-0.1</ele>
<time>2026-02-13T16:23:00Z</time>
</trkpt>
<trkpt lat="52.342208" lon="4.579738">
<ele>0.0</ele>
<time>2026-02-13T16:23:01Z</time>
</trkpt>
<trkpt lat="52.342214" lon="4.579743">
<ele>-0.3</ele>
<time>2026-02-13T16:23:02Z</time>
</trkpt>
<trkpt lat="52.342220" lon="4.579750">
<ele>-0.3</ele>
<time>2026-02-13T16:23:02Z</time>
</trkpt>
<trkpt lat="52.342232" lon="4.579761">
<ele>-0.1</ele>
<time>2026-02-13T16:23:03Z</time>
</trkpt>
<trkpt lat="52.342238" lon="4.579768">
<ele>0.2</ele>
<time>2026-02-13T16:23:04Z</time>
</trkpt>
<trkpt lat="52.342244" lon="4.579775">
<ele>0.2</ele>
<time>2026-02-13T16:23:05Z</time>
</trkpt>
<trkpt lat="52.342253" lon="4.579788">
<ele>0.2</ele>
<time>2026-02-13T16:23:05Z</time>
</trkpt>
<trkpt lat="52.342262" lon="4.579795">
<ele>0.2</ele>
<time>2026-02-13T16:23:06Z</time>
</trkpt>
<trkpt lat="52.342270" lon="4.579803">
<ele>0.2</ele>
<time>2026-02-13T16:23:07Z</time>
</trkpt>
<trkpt lat="52.342284" lon="4.579823">
<ele>0.5</ele>
<time>2026-02-13T16:23:08Z</time>
</trkpt>
<trkpt lat="52.342291" lon="4.579830">
<ele>0.3</ele>
<time>2026-02-13T16:23:08Z</time>
</trkpt>
<trkpt lat="52.342298" lon="4.579836">
<ele>0.1</ele>
<time>2026-02-13T16:23:09Z</time>
</trkpt>
<trkpt lat="52.342306" lon="4.579844">
<ele>0.3</ele>
<time>2026-02-13T16:23:10Z</time>
</trkpt>
<trkpt lat="52.342321" lon="4.579861">
<ele>0.3</ele>
<time>2026-02-13T16:23:10Z</time>
</trkpt>
<trkpt lat="52.342325" lon="4.579859">
<ele>0.0</ele>
<time>2026-02-13T16:23:11Z</time>
</trkpt>
<trkpt lat="52.342335" lon="4.579864">
<ele>0.0</ele>
<time>2026-02-13T16:23:12Z</time>
</trkpt>
<trkpt lat="52.342351" lon="4.579880">
<ele>0.0</ele>
<time>2026-02-13T16:23:13Z</time>
</trkpt>
<trkpt lat="52.342365" lon="4.579889">
<ele>0.1</ele>
<time>2026-02-13T16:23:14Z</time>
</trkpt>
<trkpt lat="52.342383" lon="4.579886">
<ele>-0.2</ele>
<time>2026-02-13T16:23:15Z</time>
</trkpt>
<trkpt lat="52.342396" lon="4.579889">
<ele>-0.2</ele>
<time>2026-02-13T16:23:15Z</time>
</trkpt>
<trkpt lat="52.342412" lon="4.579890">
<ele>-0.3</ele>
<time>2026-02-13T16:23:16Z</time>
</trkpt>
<trkpt lat="52.342425" lon="4.579889">
<ele>-0.1</ele>
<time>2026-02-13T16:23:17Z</time>
</trkpt>
<trkpt lat="52.342441" lon="4.579888">
<ele>-0.1</ele>
<time>2026-02-13T16:23:18Z</time>
</trkpt>
<trkpt lat="52.342454" lon="4.579888">
<ele>-0.1</ele>
<time>2026-02-13T16:23:18Z</time>
</trkpt>
<trkpt lat="52.342466" lon="4.579883">
<ele>-0.2</ele>
<time>2026-02-13T16:23:19Z</time>
</trkpt>
<trkpt lat="52.342475" lon="4.579883">
<ele>-0.2</ele>
<time>2026-02-13T16:23:19Z</time>
</trkpt>
<trkpt lat="52.342486" lon="4.579880">
<ele>-0.1</ele>
<time>2026-02-13T16:23:20Z</time>
</trkpt>
<trkpt lat="52.342504" lon="4.579882">
<ele>-0.1</ele>
<time>2026-02-13T16:23:21Z</time>
</trkpt>
<trkpt lat="52.342512" lon="4.579879">
<ele>-0.3</ele>
<time>2026-02-13T16:23:21Z</time>
</trkpt>
<trkpt lat="52.342518" lon="4.579874">
<ele>0.3</ele>
<time>2026-02-13T16:23:22Z</time>
</trkpt>
<trkpt lat="52.342525" lon="4.579873">
<ele>0.3</ele>
<time>2026-02-13T16:23:22Z</time>
</trkpt>
<trkpt lat="52.342530" lon="4.579870">
<ele>0.1</ele>
<time>2026-02-13T16:23:23Z</time>
</trkpt>
<trkpt lat="52.342545" lon="4.579869">
<ele>0.1</ele>
<time>2026-02-13T16:23:24Z</time>
</trkpt>
<trkpt lat="52.342555" lon="4.579868">
<ele>0.1</ele>
<time>2026-02-13T16:23:24Z</time>
</trkpt>
<trkpt lat="52.342563" lon="4.579868">
<ele>0.4</ele>
<time>2026-02-13T16:23:25Z</time>
</trkpt>
<trkpt lat="52.342568" lon="4.579869">
<ele>0.3</ele>
<time>2026-02-13T16:23:26Z</time>
</trkpt>
<trkpt lat="52.342575" lon="4.579869">
<ele>0.3</ele>
<time>2026-02-13T16:23:26Z</time>
</trkpt>
<trkpt lat="52.342585" lon="4.579868">
<ele>0.0</ele>
<time>2026-02-13T16:23:27Z</time>
</trkpt>
<trkpt lat="52.342589" lon="4.579867">
<ele>-0.1</ele>
<time>2026-02-13T16:23:28Z</time>
</trkpt>
<trkpt lat="52.342594" lon="4.579864">
<ele>-0.1</ele>
<time>2026-02-13T16:23:28Z</time>
</trkpt>
<trkpt lat="52.342600" lon="4.579861">
<ele>-0.1</ele>
<time>2026-02-13T16:23:29Z</time>
</trkpt>
<trkpt lat="52.342602" lon="4.579859">
<ele>-0.5</ele>
<time>2026-02-13T16:23:29Z</time>
</trkpt>
<trkpt lat="52.342608" lon="4.579855">
<ele>-0.5</ele>
<time>2026-02-13T16:23:30Z</time>
</trkpt>
<trkpt lat="52.342613" lon="4.579853">
<ele>-0.2</ele>
<time>2026-02-13T16:23:30Z</time>
</trkpt>
<trkpt lat="52.342626" lon="4.579848">
<ele>-0.2</ele>
<time>2026-02-13T16:23:31Z</time>
</trkpt>
<trkpt lat="52.342629" lon="4.579850">
<ele>-0.4</ele>
<time>2026-02-13T16:23:31Z</time>
</trkpt>
<trkpt lat="52.342637" lon="4.579848">
<ele>-0.2</ele>
<time>2026-02-13T16:23:32Z</time>
</trkpt>
<trkpt lat="52.342653" lon="4.579847">
<ele>-0.2</ele>
<time>2026-02-13T16:23:33Z</time>
</trkpt>
<trkpt lat="52.342666" lon="4.579857">
<ele>0.1</ele>
<time>2026-02-13T16:23:34Z</time>
</trkpt>
<trkpt lat="52.342674" lon="4.579872">
<ele>0.1</ele>
<time>2026-02-13T16:23:34Z</time>
</trkpt>
<trkpt lat="52.342677" lon="4.579880">
<ele>0.4</ele>
<time>2026-02-13T16:23:35Z</time>
</trkpt>
<trkpt lat="52.342683" lon="4.579885">
<ele>0.4</ele>
<time>2026-02-13T16:23:35Z</time>
</trkpt>
<trkpt lat="52.342688" lon="4.579892">
<ele>0.8</ele>
<time>2026-02-13T16:23:36Z</time>
</trkpt>
<trkpt lat="52.342694" lon="4.579895">
<ele>0.8</ele>
<time>2026-02-13T16:23:36Z</time>
</trkpt>
<trkpt lat="52.342700" lon="4.579900">
<ele>0.5</ele>
<time>2026-02-13T16:23:37Z</time>
</trkpt>
<trkpt lat="52.342707" lon="4.579904">
<ele>0.5</ele>
<time>2026-02-13T16:23:37Z</time>
</trkpt>
<trkpt lat="52.342715" lon="4.579910">
<ele>0.2</ele>
<time>2026-02-13T16:23:38Z</time>
</trkpt>
<trkpt lat="52.342724" lon="4.579915">
<ele>0.3</ele>
<time>2026-02-13T16:23:39Z</time>
</trkpt>
<trkpt lat="52.342737" lon="4.579921">
<ele>0.3</ele>
<time>2026-02-13T16:23:39Z</time>
</trkpt>
<trkpt lat="52.342746" lon="4.579924">
<ele>0.0</ele>
<time>2026-02-13T16:23:40Z</time>
</trkpt>
<trkpt lat="52.342755" lon="4.579927">
<ele>0.0</ele>
<time>2026-02-13T16:23:40Z</time>
</trkpt>
<trkpt lat="52.342762" lon="4.579929">
<ele>0.1</ele>
<time>2026-02-13T16:23:41Z</time>
</trkpt>
<trkpt lat="52.342775" lon="4.579933">
<ele>0.1</ele>
<time>2026-02-13T16:23:42Z</time>
</trkpt>
<trkpt lat="52.342783" lon="4.579934">
<ele>0.2</ele>
<time>2026-02-13T16:23:42Z</time>
</trkpt>
<trkpt lat="52.342796" lon="4.579932">
<ele>0.0</ele>
<time>2026-02-13T16:23:43Z</time>
</trkpt>
<trkpt lat="52.342811" lon="4.579931">
<ele>0.4</ele>
<time>2026-02-13T16:23:44Z</time>
</trkpt>
<trkpt lat="52.342833" lon="4.579934">
<ele>-0.1</ele>
<time>2026-02-13T16:23:45Z</time>
</trkpt>
<trkpt lat="52.342853" lon="4.579945">
<ele>0.0</ele>
<time>2026-02-13T16:23:46Z</time>
</trkpt>
<trkpt lat="52.342868" lon="4.579951">
<ele>0.0</ele>
<time>2026-02-13T16:23:46Z</time>
</trkpt>
<trkpt lat="52.342887" lon="4.579964">
<ele>-0.1</ele>
<time>2026-02-13T16:23:47Z</time>
</trkpt>
<trkpt lat="52.342896" lon="4.579974">
<ele>-0.1</ele>
<time>2026-02-13T16:23:48Z</time>
</trkpt>
<trkpt lat="52.342909" lon="4.579983">
<ele>-0.2</ele>
<time>2026-02-13T16:23:49Z</time>
</trkpt>
<trkpt lat="52.342925" lon="4.579992">
<ele>-0.4</ele>
<time>2026-02-13T16:23:50Z</time>
</trkpt>
<trkpt lat="52.342941" lon="4.580001">
<ele>0.1</ele>
<time>2026-02-13T16:23:51Z</time>
</trkpt>
<trkpt lat="52.342956" lon="4.580012">
<ele>0.0</ele>
<time>2026-02-13T16:23:52Z</time>
</trkpt>
<trkpt lat="52.342966" lon="4.580026">
<ele>-0.1</ele>
<time>2026-02-13T16:23:53Z</time>
</trkpt>
<trkpt lat="52.342975" lon="4.580035">
<ele>-0.1</ele>
<time>2026-02-13T16:23:53Z</time>
</trkpt>
<trkpt lat="52.342979" lon="4.580040">
<ele>0.0</ele>
<time>2026-02-13T16:23:54Z</time>
</trkpt>
<trkpt lat="52.342990" lon="4.580052">
<ele>0.0</ele>
<time>2026-02-13T16:23:55Z</time>
</trkpt>
<trkpt lat="52.342997" lon="4.580062">
<ele>-0.2</ele>
<time>2026-02-13T16:23:56Z</time>
</trkpt>
<trkpt lat="52.343005" lon="4.580070">
<ele>-0.2</ele>
<time>2026-02-13T16:23:56Z</time>
</trkpt>
<trkpt lat="52.343008" lon="4.580078">
<ele>-0.3</ele>
<time>2026-02-13T16:23:57Z</time>
</trkpt>
<trkpt lat="52.343016" lon="4.580088">
<ele>-0.7</ele>
<time>2026-02-13T16:23:58Z</time>
</trkpt>
<trkpt lat="52.343029" lon="4.580097">
<ele>0.0</ele>
<time>2026-02-13T16:23:59Z</time>
</trkpt>
<trkpt lat="52.343042" lon="4.580105">
<ele>0.2</ele>
<time>2026-02-13T16:24:00Z</time>
</trkpt>
<trkpt lat="52.343055" lon="4.580110">
<ele>0.1</ele>
<time>2026-02-13T16:24:01Z</time>
</trkpt>
<trkpt lat="52.343067" lon="4.580117">
<ele>0.2</ele>
<time>2026-02-13T16:24:02Z</time>
</trkpt>
<trkpt lat="52.343077" lon="4.580120">
<ele>0.2</ele>
<time>2026-02-13T16:24:02Z</time>
</trkpt>
<trkpt lat="52.343090" lon="4.580124">
<ele>0.3</ele>
<time>2026-02-13T16:24:03Z</time>
</trkpt>
<trkpt lat="52.343092" lon="4.580126">
<ele>0.4</ele>
<time>2026-02-13T16:24:04Z</time>
</trkpt>
<trkpt lat="52.343104" lon="4.580130">
<ele>0.4</ele>
<time>2026-02-13T16:24:04Z</time>
</trkpt>
<trkpt lat="52.343102" lon="4.580131">
<ele>0.7</ele>
<time>2026-02-13T16:24:05Z</time>
</trkpt>
<trkpt lat="52.343115" lon="4.580137">
<ele>0.6</ele>
<time>2026-02-13T16:24:06Z</time>
</trkpt>
<trkpt lat="52.343119" lon="4.580140">
<ele>0.4</ele>
<time>2026-02-13T16:24:06Z</time>
</trkpt>
<trkpt lat="52.343124" lon="4.580146">
<ele>0.5</ele>
<time>2026-02-13T16:24:07Z</time>
</trkpt>
<trkpt lat="52.343132" lon="4.580153">
<ele>0.1</ele>
<time>2026-02-13T16:24:08Z</time>
</trkpt>
<trkpt lat="52.343136" lon="4.580156">
<ele>0.1</ele>
<time>2026-02-13T16:24:09Z</time>
</trkpt>
<trkpt lat="52.343137" lon="4.580163">
<ele>0.1</ele>
<time>2026-02-13T16:24:09Z</time>
</trkpt>
<trkpt lat="52.343141" lon="4.580167">
<ele>0.1</ele>
<time>2026-02-13T16:24:10Z</time>
</trkpt>
<trkpt lat="52.343143" lon="4.580175">
<ele>-0.1</ele>
<time>2026-02-13T16:24:10Z</time>
</trkpt>
<trkpt lat="52.343147" lon="4.580180">
<ele>-0.1</ele>
<time>2026-02-13T16:24:11Z</time>
</trkpt>
<trkpt lat="52.343153" lon="4.580189">
<ele>-0.1</ele>
<time>2026-02-13T16:24:11Z</time>
</trkpt>
<trkpt lat="52.343164" lon="4.580201">
<ele>-0.1</ele>
<time>2026-02-13T16:24:11Z</time>
</trkpt>
<trkpt lat="52.343168" lon="4.580206">
<ele>0.0</ele>
<time>2026-02-13T16:24:12Z</time>
</trkpt>
<trkpt lat="52.343177" lon="4.580215">
<ele>0.0</ele>
<time>2026-02-13T16:24:13Z</time>
</trkpt>
<trkpt lat="52.343188" lon="4.580223">
<ele>0.0</ele>
<time>2026-02-13T16:24:13Z</time>
</trkpt>
<trkpt lat="52.343202" lon="4.580229">
<ele>-0.1</ele>
<time>2026-02-13T16:24:14Z</time>
</trkpt>
<trkpt lat="52.343211" lon="4.580227">
<ele>-0.4</ele>
<time>2026-02-13T16:24:15Z</time>
</trkpt>
<trkpt lat="52.343219" lon="4.580225">
<ele>-0.4</ele>
<time>2026-02-13T16:24:15Z</time>
</trkpt>
<trkpt lat="52.343229" lon="4.580224">
<ele>-0.5</ele>
<time>2026-02-13T16:24:16Z</time>
</trkpt>
<trkpt lat="52.343237" lon="4.580224">
<ele>-0.5</ele>
<time>2026-02-13T16:24:16Z</time>
</trkpt>
<trkpt lat="52.343243" lon="4.580226">
<ele>-0.6</ele>
<time>2026-02-13T16:24:17Z</time>
</trkpt>
<trkpt lat="52.343250" lon="4.580226">
<ele>-0.6</ele>
<time>2026-02-13T16:24:17Z</time>
</trkpt>
<trkpt lat="52.343258" lon="4.580229">
<ele>-0.7</ele>
<time>2026-02-13T16:24:18Z</time>
</trkpt>
<trkpt lat="52.343266" lon="4.580230">
<ele>-0.7</ele>
<time>2026-02-13T16:24:18Z</time>
</trkpt>
<trkpt lat="52.343278" lon="4.580238">
<ele>-0.9</ele>
<time>2026-02-13T16:24:19Z</time>
</trkpt>
<trkpt lat="52.343284" lon="4.580239">
<ele>-0.9</ele>
<time>2026-02-13T16:24:19Z</time>
</trkpt>
<trkpt lat="52.343301" lon="4.580251">
<ele>-0.3</ele>
<time>2026-02-13T16:24:20Z</time>
</trkpt>
<trkpt lat="52.343313" lon="4.580263">
<ele>-0.4</ele>
<time>2026-02-13T16:24:21Z</time>
</trkpt>
<trkpt lat="52.343322" lon="4.580268">
<ele>-0.4</ele>
<time>2026-02-13T16:24:21Z</time>
</trkpt>
<trkpt lat="52.343332" lon="4.580280">
<ele>-0.3</ele>
<time>2026-02-13T16:24:22Z</time>
</trkpt>
<trkpt lat="52.343340" lon="4.580284">
<ele>-0.3</ele>
<time>2026-02-13T16:24:22Z</time>
</trkpt>
<trkpt lat="52.343347" lon="4.580290">
<ele>-0.2</ele>
<time>2026-02-13T16:24:23Z</time>
</trkpt>
<trkpt lat="52.343353" lon="4.580295">
<ele>-0.2</ele>
<time>2026-02-13T16:24:23Z</time>
</trkpt>
<trkpt lat="52.343366" lon="4.580305">
<ele>-0.1</ele>
<time>2026-02-13T16:24:24Z</time>
</trkpt>
<trkpt lat="52.343376" lon="4.580310">
<ele>-0.3</ele>
<time>2026-02-13T16:24:25Z</time>
</trkpt>
<trkpt lat="52.343383" lon="4.580314">
<ele>-0.3</ele>
<time>2026-02-13T16:24:25Z</time>
</trkpt>
<trkpt lat="52.343393" lon="4.580319">
<ele>-0.5</ele>
<time>2026-02-13T16:24:26Z</time>
</trkpt>
<trkpt lat="52.343400" lon="4.580322">
<ele>-0.5</ele>
<time>2026-02-13T16:24:26Z</time>
</trkpt>
<trkpt lat="52.343409" lon="4.580325">
<ele>-0.7</ele>
<time>2026-02-13T16:24:27Z</time>
</trkpt>
<trkpt lat="52.343418" lon="4.580329">
<ele>-0.7</ele>
<time>2026-02-13T16:24:27Z</time>
</trkpt>
<trkpt lat="52.343433" lon="4.580337">
<ele>0.0</ele>
<time>2026-02-13T16:24:28Z</time>
</trkpt>
<trkpt lat="52.343442" lon="4.580343">
<ele>-0.1</ele>
<time>2026-02-13T16:24:29Z</time>
</trkpt>
<trkpt lat="52.343449" lon="4.580349">
<ele>-0.1</ele>
<time>2026-02-13T16:24:29Z</time>
</trkpt>
<trkpt lat="52.343465" lon="4.580360">
<ele>-0.2</ele>
<time>2026-02-13T16:24:30Z</time>
</trkpt>
<trkpt lat="52.343475" lon="4.580364">
<ele>-0.1</ele>
<time>2026-02-13T16:24:31Z</time>
</trkpt>
<trkpt lat="52.343483" lon="4.580369">
<ele>-0.1</ele>
<time>2026-02-13T16:24:31Z</time>
</trkpt>
<trkpt lat="52.343491" lon="4.580372">
<ele>0.0</ele>
<time>2026-02-13T16:24:32Z</time>
</trkpt>
<trkpt lat="52.343499" lon="4.580377">
<ele>0.0</ele>
<time>2026-02-13T16:24:32Z</time>
</trkpt>
<trkpt lat="52.343507" lon="4.580380">
<ele>0.4</ele>
<time>2026-02-13T16:24:33Z</time>
</trkpt>
<trkpt lat="52.343514" lon="4.580386">
<ele>0.4</ele>
<time>2026-02-13T16:24:33Z</time>
</trkpt>
<trkpt lat="52.343522" lon="4.580389">
<ele>0.4</ele>
<time>2026-02-13T16:24:34Z</time>
</trkpt>
<trkpt lat="52.343529" lon="4.580394">
<ele>0.4</ele>
<time>2026-02-13T16:24:34Z</time>
</trkpt>
<trkpt lat="52.343536" lon="4.580395">
<ele>0.2</ele>
<time>2026-02-13T16:24:35Z</time>
</trkpt>
<trkpt lat="52.343542" lon="4.580399">
<ele>0.2</ele>
<time>2026-02-13T16:24:35Z</time>
</trkpt>
<trkpt lat="52.343549" lon="4.580400">
<ele>0.4</ele>
<time>2026-02-13T16:24:36Z</time>
</trkpt>
<trkpt lat="52.343556" lon="4.580405">
<ele>0.4</ele>
<time>2026-02-13T16:24:36Z</time>
</trkpt>
<trkpt lat="52.343563" lon="4.580407">
<ele>-0.1</ele>
<time>2026-02-13T16:24:37Z</time>
</trkpt>
<trkpt lat="52.343570" lon="4.580412">
<ele>-0.1</ele>
<time>2026-02-13T16:24:37Z</time>
</trkpt>
<trkpt lat="52.343576" lon="4.580415">
<ele>0.0</ele>
<time>2026-02-13T16:24:38Z</time>
</trkpt>
<trkpt lat="52.343583" lon="4.580420">
<ele>0.0</ele>
<time>2026-02-13T16:24:38Z</time>
</trkpt>
<trkpt lat="52.343588" lon="4.580422">
<ele>-0.3</ele>
<time>2026-02-13T16:24:39Z</time>
</trkpt>
<trkpt lat="52.343601" lon="4.580430">
<ele>-0.3</ele>
<time>2026-02-13T16:24:39Z</time>
</trkpt>
<trkpt lat="52.343603" lon="4.580430">
<ele>-0.2</ele>
<time>2026-02-13T16:24:40Z</time>
</trkpt>
<trkpt lat="52.343608" lon="4.580435">
<ele>-0.2</ele>
<time>2026-02-13T16:24:40Z</time>
</trkpt>
<trkpt lat="52.343612" lon="4.580439">
<ele>0.0</ele>
<time>2026-02-13T16:24:41Z</time>
</trkpt>
<trkpt lat="52.343618" lon="4.580445">
<ele>0.0</ele>
<time>2026-02-13T16:24:41Z</time>
</trkpt>
<trkpt lat="52.343624" lon="4.580450">
<ele>0.0</ele>
<time>2026-02-13T16:24:42Z</time>
</trkpt>
<trkpt lat="52.343630" lon="4.580456">
<ele>0.0</ele>
<time>2026-02-13T16:24:42Z</time>
</trkpt>
<trkpt lat="52.343636" lon="4.580462">
<ele>-0.1</ele>
<time>2026-02-13T16:24:43Z</time>
</trkpt>
<trkpt lat="52.343643" lon="4.580468">
<ele>-0.1</ele>
<time>2026-02-13T16:24:43Z</time>
</trkpt>
<trkpt lat="52.343648" lon="4.580472">
<ele>-0.3</ele>
<time>2026-02-13T16:24:44Z</time>
</trkpt>
<trkpt lat="52.343654" lon="4.580477">
<ele>-0.3</ele>
<time>2026-02-13T16:24:44Z</time>
</trkpt>
<trkpt lat="52.343660" lon="4.580479">
<ele>-0.4</ele>
<time>2026-02-13T16:24:45Z</time>
</trkpt>
<trkpt lat="52.343667" lon="4.580483">
<ele>-0.4</ele>
<time>2026-02-13T16:24:45Z</time>
</trkpt>
<trkpt lat="52.343674" lon="4.580488">
<ele>-0.4</ele>
<time>2026-02-13T16:24:46Z</time>
</trkpt>
<trkpt lat="52.343681" lon="4.580487">
<ele>-0.4</ele>
<time>2026-02-13T16:24:46Z</time>
</trkpt>
<trkpt lat="52.343689" lon="4.580491">
<ele>-0.4</ele>
<time>2026-02-13T16:24:47Z</time>
</trkpt>
<trkpt lat="52.343694" lon="4.580492">
<ele>-0.4</ele>
<time>2026-02-13T16:24:47Z</time>
</trkpt>
<trkpt lat="52.343701" lon="4.580495">
<ele>-0.4</ele>
<time>2026-02-13T16:24:48Z</time>
</trkpt>
<trkpt lat="52.343706" lon="4.580498">
<ele>-0.6</ele>
<time>2026-02-13T16:24:48Z</time>
</trkpt>
<trkpt lat="52.343709" lon="4.580499">
<ele>0.0</ele>
<time>2026-02-13T16:24:49Z</time>
</trkpt>
<trkpt lat="52.343719" lon="4.580506">
<ele>0.0</ele>
<time>2026-02-13T16:24:50Z</time>
</trkpt>
<trkpt lat="52.343729" lon="4.580513">
<ele>0.0</ele>
<time>2026-02-13T16:24:51Z</time>
</trkpt>
<trkpt lat="52.343738" lon="4.580520">
<ele>0.0</ele>
<time>2026-02-13T16:24:51Z</time>
</trkpt>
<trkpt lat="52.343745" lon="4.580527">
<ele>0.2</ele>
<time>2026-02-13T16:24:52Z</time>
</trkpt>
<trkpt lat="52.343752" lon="4.580532">
<ele>0.2</ele>
<time>2026-02-13T16:24:53Z</time>
</trkpt>
<trkpt lat="52.343767" lon="4.580543">
<ele>0.0</ele>
<time>2026-02-13T16:24:53Z</time>
</trkpt>
<trkpt lat="52.343776" lon="4.580546">
<ele>0.0</ele>
<time>2026-02-13T16:24:54Z</time>
</trkpt>
<trkpt lat="52.343786" lon="4.580549">
<ele>-0.1</ele>
<time>2026-02-13T16:24:55Z</time>
</trkpt>
<trkpt lat="52.343804" lon="4.580557">
<ele>-0.2</ele>
<time>2026-02-13T16:24:56Z</time>
</trkpt>
<trkpt lat="52.343817" lon="4.580565">
<ele>-0.2</ele>
<time>2026-02-13T16:24:57Z</time>
</trkpt>
<trkpt lat="52.343826" lon="4.580571">
<ele>-0.1</ele>
<time>2026-02-13T16:24:57Z</time>
</trkpt>
<trkpt lat="52.343831" lon="4.580575">
<ele>0.0</ele>
<time>2026-02-13T16:24:58Z</time>
</trkpt>
<trkpt lat="52.343837" lon="4.580576">
<ele>0.0</ele>
<time>2026-02-13T16:24:58Z</time>
</trkpt>
<trkpt lat="52.343844" lon="4.580580">
<ele>-0.3</ele>
<time>2026-02-13T16:24:59Z</time>
</trkpt>
<trkpt lat="52.343856" lon="4.580581">
<ele>-0.3</ele>
<time>2026-02-13T16:25:00Z</time>
</trkpt>
<trkpt lat="52.343868" lon="4.580588">
<ele>-0.1</ele>
<time>2026-02-13T16:25:01Z</time>
</trkpt>
<trkpt lat="52.343880" lon="4.580597">
<ele>-0.1</ele>
<time>2026-02-13T16:25:01Z</time>
</trkpt>
<trkpt lat="52.343888" lon="4.580607">
<ele>0.2</ele>
<time>2026-02-13T16:25:02Z</time>
</trkpt>
<trkpt lat="52.343900" lon="4.580618">
<ele>0.2</ele>
<time>2026-02-13T16:25:02Z</time>
</trkpt>
<trkpt lat="52.343903" lon="4.580626">
<ele>0.2</ele>
<time>2026-02-13T16:25:03Z</time>
</trkpt>
<trkpt lat="52.343913" lon="4.580635">
<ele>0.2</ele>
<time>2026-02-13T16:25:04Z</time>
</trkpt>
<trkpt lat="52.343923" lon="4.580646">
<ele>0.1</ele>
<time>2026-02-13T16:25:04Z</time>
</trkpt>
<trkpt lat="52.343928" lon="4.580654">
<ele>0.2</ele>
<time>2026-02-13T16:25:05Z</time>
</trkpt>
<trkpt lat="52.343935" lon="4.580662">
<ele>0.2</ele>
<time>2026-02-13T16:25:05Z</time>
</trkpt>
<trkpt lat="52.343940" lon="4.580670">
<ele>-0.1</ele>
<time>2026-02-13T16:25:06Z</time>
</trkpt>
<trkpt lat="52.343947" lon="4.580680">
<ele>-0.3</ele>
<time>2026-02-13T16:25:07Z</time>
</trkpt>
<trkpt lat="52.343955" lon="4.580690">
<ele>-0.3</ele>
<time>2026-02-13T16:25:07Z</time>
</trkpt>
<trkpt lat="52.343956" lon="4.580692">
<ele>-0.6</ele>
<time>2026-02-13T16:25:08Z</time>
</trkpt>
<trkpt lat="52.343960" lon="4.580700">
<ele>-0.6</ele>
<time>2026-02-13T16:25:08Z</time>
</trkpt>
<trkpt lat="52.343962" lon="4.580701">
<ele>-0.4</ele>
<time>2026-02-13T16:25:09Z</time>
</trkpt>
<trkpt lat="52.343966" lon="4.580708">
<ele>-0.4</ele>
<time>2026-02-13T16:25:09Z</time>
</trkpt>
<trkpt lat="52.343970" lon="4.580710">
<ele>-0.3</ele>
<time>2026-02-13T16:25:10Z</time>
</trkpt>
<trkpt lat="52.343975" lon="4.580717">
<ele>-0.3</ele>
<time>2026-02-13T16:25:10Z</time>
</trkpt>
<trkpt lat="52.343980" lon="4.580719">
<ele>0.4</ele>
<time>2026-02-13T16:25:11Z</time>
</trkpt>
<trkpt lat="52.343985" lon="4.580726">
<ele>0.4</ele>
<time>2026-02-13T16:25:11Z</time>
</trkpt>
<trkpt lat="52.343990" lon="4.580727">
<ele>0.6</ele>
<time>2026-02-13T16:25:12Z</time>
</trkpt>
<trkpt lat="52.343999" lon="4.580740">
<ele>0.6</ele>
<time>2026-02-13T16:25:13Z</time>
</trkpt>
<trkpt lat="52.344006" lon="4.580743">
<ele>0.3</ele>
<time>2026-02-13T16:25:13Z</time>
</trkpt>
<trkpt lat="52.344015" lon="4.580742">
<ele>0.2</ele>
<time>2026-02-13T16:25:14Z</time>
</trkpt>
<trkpt lat="52.344021" lon="4.580748">
<ele>0.2</ele>
<time>2026-02-13T16:25:14Z</time>
</trkpt>
<trkpt lat="52.344030" lon="4.580747">
<ele>-0.7</ele>
<time>2026-02-13T16:25:15Z</time>
</trkpt>
<trkpt lat="52.344038" lon="4.580753">
<ele>-0.7</ele>
<time>2026-02-13T16:25:15Z</time>
</trkpt>
<trkpt lat="52.344053" lon="4.580756">
<ele>-0.1</ele>
<time>2026-02-13T16:25:16Z</time>
</trkpt>
<trkpt lat="52.344061" lon="4.580753">
<ele>0.2</ele>
<time>2026-02-13T16:25:17Z</time>
</trkpt>
<trkpt lat="52.344069" lon="4.580754">
<ele>0.2</ele>
<time>2026-02-13T16:25:17Z</time>
</trkpt>
<trkpt lat="52.344077" lon="4.580755">
<ele>0.5</ele>
<time>2026-02-13T16:25:18Z</time>
</trkpt>
<trkpt lat="52.344085" lon="4.580757">
<ele>0.5</ele>
<time>2026-02-13T16:25:18Z</time>
</trkpt>
<trkpt lat="52.344099" lon="4.580762">
<ele>0.1</ele>
<time>2026-02-13T16:25:19Z</time>
</trkpt>
<trkpt lat="52.344109" lon="4.580764">
<ele>0.0</ele>
<time>2026-02-13T16:25:20Z</time>
</trkpt>
<trkpt lat="52.344117" lon="4.580766">
<ele>0.0</ele>
<time>2026-02-13T16:25:20Z</time>
</trkpt>
<trkpt lat="52.344127" lon="4.580769">
<ele>0.2</ele>
<time>2026-02-13T16:25:21Z</time>
</trkpt>
<trkpt lat="52.344136" lon="4.580770">
<ele>0.2</ele>
<time>2026-02-13T16:25:21Z</time>
</trkpt>
<trkpt lat="52.344148" lon="4.580774">
<ele>0.0</ele>
<time>2026-02-13T16:25:22Z</time>
</trkpt>
<trkpt lat="52.344165" lon="4.580783">
<ele>0.0</ele>
<time>2026-02-13T16:25:23Z</time>
</trkpt>
<trkpt lat="52.344173" lon="4.580790">
<ele>0.1</ele>
<time>2026-02-13T16:25:23Z</time>
</trkpt>
<trkpt lat="52.344181" lon="4.580799">
<ele>-0.1</ele>
<time>2026-02-13T16:25:24Z</time>
</trkpt>
<trkpt lat="52.344186" lon="4.580808">
<ele>-0.1</ele>
<time>2026-02-13T16:25:24Z</time>
</trkpt>
<trkpt lat="52.344193" lon="4.580814">
<ele>-0.2</ele>
<time>2026-02-13T16:25:25Z</time>
</trkpt>
<trkpt lat="52.344199" lon="4.580821">
<ele>-0.2</ele>
<time>2026-02-13T16:25:25Z</time>
</trkpt>
<trkpt lat="52.344207" lon="4.580825">
<ele>0.1</ele>
<time>2026-02-13T16:25:26Z</time>
</trkpt>
<trkpt lat="52.344212" lon="4.580829">
<ele>0.1</ele>
<time>2026-02-13T16:25:26Z</time>
</trkpt>
<trkpt lat="52.344218" lon="4.580828">
<ele>0.4</ele>
<time>2026-02-13T16:25:27Z</time>
</trkpt>
<trkpt lat="52.344224" lon="4.580819">
<ele>0.4</ele>
<time>2026-02-13T16:25:27Z</time>
</trkpt>
<trkpt lat="52.344233" lon="4.580825">
<ele>-0.1</ele>
<time>2026-02-13T16:25:28Z</time>
</trkpt>
<trkpt lat="52.344241" lon="4.580826">
<ele>-0.1</ele>
<time>2026-02-13T16:25:28Z</time>
</trkpt>
<trkpt lat="52.344264" lon="4.580836">
<ele>0.5</ele>
<time>2026-02-13T16:25:30Z</time>
</trkpt>
<trkpt lat="52.344275" lon="4.580841">
<ele>0.7</ele>
<time>2026-02-13T16:25:30Z</time>
</trkpt>
<trkpt lat="52.344283" lon="4.580844">
<ele>0.7</ele>
<time>2026-02-13T16:25:31Z</time>
</trkpt>
<trkpt lat="52.344294" lon="4.580855">
<ele>0.6</ele>
<time>2026-02-13T16:25:31Z</time>
</trkpt>
<trkpt lat="52.344301" lon="4.580860">
<ele>0.6</ele>
<time>2026-02-13T16:25:32Z</time>
</trkpt>
<trkpt lat="52.344312" lon="4.580873">
<ele>0.7</ele>
<time>2026-02-13T16:25:33Z</time>
</trkpt>
<trkpt lat="52.344327" lon="4.580887">
<ele>0.6</ele>
<time>2026-02-13T16:25:33Z</time>
</trkpt>
<trkpt lat="52.344340" lon="4.580898">
<ele>1.0</ele>
<time>2026-02-13T16:25:34Z</time>
</trkpt>
<trkpt lat="52.344353" lon="4.580913">
<ele>1.2</ele>
<time>2026-02-13T16:25:35Z</time>
</trkpt>
<trkpt lat="52.344367" lon="4.580927">
<ele>0.7</ele>
<time>2026-02-13T16:25:36Z</time>
</trkpt>
<trkpt lat="52.344375" lon="4.580935">
<ele>0.2</ele>
<time>2026-02-13T16:25:37Z</time>
</trkpt>
<trkpt lat="52.344383" lon="4.580944">
<ele>0.5</ele>
<time>2026-02-13T16:25:38Z</time>
</trkpt>
<trkpt lat="52.344397" lon="4.580958">
<ele>0.8</ele>
<time>2026-02-13T16:25:38Z</time>
</trkpt>
<trkpt lat="52.344407" lon="4.580975">
<ele>1.2</ele>
<time>2026-02-13T16:25:40Z</time>
</trkpt>
<trkpt lat="52.344412" lon="4.580985">
<ele>1.4</ele>
<time>2026-02-13T16:25:40Z</time>
</trkpt>
<trkpt lat="52.344413" lon="4.580991">
<ele>1.3</ele>
<time>2026-02-13T16:25:41Z</time>
</trkpt>
<trkpt lat="52.344418" lon="4.580995">
<ele>1.3</ele>
<time>2026-02-13T16:25:41Z</time>
</trkpt>
<trkpt lat="52.344420" lon="4.581002">
<ele>1.2</ele>
<time>2026-02-13T16:25:42Z</time>
</trkpt>
<trkpt lat="52.344425" lon="4.581010">
<ele>0.2</ele>
<time>2026-02-13T16:25:43Z</time>
</trkpt>
<trkpt lat="52.344433" lon="4.581021">
<ele>0.2</ele>
<time>2026-02-13T16:25:43Z</time>
</trkpt>
<trkpt lat="52.344441" lon="4.581036">
<ele>0.8</ele>
<time>2026-02-13T16:25:44Z</time>
</trkpt>
<trkpt lat="52.344444" lon="4.581040">
<ele>0.8</ele>
<time>2026-02-13T16:25:44Z</time>
</trkpt>
<trkpt lat="52.344456" lon="4.581058">
<ele>1.2</ele>
<time>2026-02-13T16:25:46Z</time>
</trkpt>
<trkpt lat="52.344465" lon="4.581074">
<ele>0.7</ele>
<time>2026-02-13T16:25:47Z</time>
</trkpt>
<trkpt lat="52.344468" lon="4.581085">
<ele>0.9</ele>
<time>2026-02-13T16:25:47Z</time>
</trkpt>
<trkpt lat="52.344468" lon="4.581092">
<ele>0.9</ele>
<time>2026-02-13T16:25:48Z</time>
</trkpt>
<trkpt lat="52.344471" lon="4.581100">
<ele>0.9</ele>
<time>2026-02-13T16:25:48Z</time>
</trkpt>
<trkpt lat="52.344471" lon="4.581111">
<ele>0.9</ele>
<time>2026-02-13T16:25:49Z</time>
</trkpt>
<trkpt lat="52.344474" lon="4.581122">
<ele>0.9</ele>
<time>2026-02-13T16:25:49Z</time>
</trkpt>
<trkpt lat="52.344475" lon="4.581138">
<ele>1.0</ele>
<time>2026-02-13T16:25:50Z</time>
</trkpt>
<trkpt lat="52.344478" lon="4.581158">
<ele>0.5</ele>
<time>2026-02-13T16:25:50Z</time>
</trkpt>
<trkpt lat="52.344479" lon="4.581167">
<ele>0.6</ele>
<time>2026-02-13T16:25:51Z</time>
</trkpt>
<trkpt lat="52.344483" lon="4.581188">
<ele>0.6</ele>
<time>2026-02-13T16:25:52Z</time>
</trkpt>
<trkpt lat="52.344487" lon="4.581214">
<ele>1.2</ele>
<time>2026-02-13T16:25:53Z</time>
</trkpt>
<trkpt lat="52.344490" lon="4.581229">
<ele>1.2</ele>
<time>2026-02-13T16:25:53Z</time>
</trkpt>
<trkpt lat="52.344493" lon="4.581243">
<ele>1.3</ele>
<time>2026-02-13T16:25:54Z</time>
</trkpt>
<trkpt lat="52.344498" lon="4.581254">
<ele>1.3</ele>
<time>2026-02-13T16:25:54Z</time>
</trkpt>
<trkpt lat="52.344500" lon="4.581270">
<ele>0.8</ele>
<time>2026-02-13T16:25:55Z</time>
</trkpt>
<trkpt lat="52.344506" lon="4.581293">
<ele>1.1</ele>
<time>2026-02-13T16:25:56Z</time>
</trkpt>
<trkpt lat="52.344507" lon="4.581305">
<ele>1.1</ele>
<time>2026-02-13T16:25:56Z</time>
</trkpt>
<trkpt lat="52.344510" lon="4.581315">
<ele>1.2</ele>
<time>2026-02-13T16:25:57Z</time>
</trkpt>
<trkpt lat="52.344516" lon="4.581332">
<ele>0.8</ele>
<time>2026-02-13T16:25:58Z</time>
</trkpt>
<trkpt lat="52.344519" lon="4.581348">
<ele>0.8</ele>
<time>2026-02-13T16:25:58Z</time>
</trkpt>
<trkpt lat="52.344522" lon="4.581368">
<ele>1.1</ele>
<time>2026-02-13T16:25:59Z</time>
</trkpt>
<trkpt lat="52.344526" lon="4.581391">
<ele>1.0</ele>
<time>2026-02-13T16:26:00Z</time>
</trkpt>
<trkpt lat="52.344530" lon="4.581402">
<ele>1.3</ele>
<time>2026-02-13T16:26:01Z</time>
</trkpt>
<trkpt lat="52.344536" lon="4.581424">
<ele>1.1</ele>
<time>2026-02-13T16:26:01Z</time>
</trkpt>
<trkpt lat="52.344540" lon="4.581429">
<ele>0.7</ele>
<time>2026-02-13T16:26:02Z</time>
</trkpt>
<trkpt lat="52.344547" lon="4.581452">
<ele>0.4</ele>
<time>2026-02-13T16:26:03Z</time>
</trkpt>
<trkpt lat="52.344550" lon="4.581462">
<ele>0.4</ele>
<time>2026-02-13T16:26:03Z</time>
</trkpt>
<trkpt lat="52.344556" lon="4.581475">
<ele>0.3</ele>
<time>2026-02-13T16:26:04Z</time>
</trkpt>
<trkpt lat="52.344560" lon="4.581493">
<ele>0.4</ele>
<time>2026-02-13T16:26:05Z</time>
</trkpt>
<trkpt lat="52.344562" lon="4.581504">
<ele>0.4</ele>
<time>2026-02-13T16:26:05Z</time>
</trkpt>
<trkpt lat="52.344566" lon="4.581513">
<ele>0.7</ele>
<time>2026-02-13T16:26:06Z</time>
</trkpt>
<trkpt lat="52.344569" lon="4.581522">
<ele>0.7</ele>
<time>2026-02-13T16:26:06Z</time>
</trkpt>
<trkpt lat="52.344572" lon="4.581532">
<ele>0.7</ele>
<time>2026-02-13T16:26:07Z</time>
</trkpt>
<trkpt lat="52.344579" lon="4.581539">
<ele>0.9</ele>
<time>2026-02-13T16:26:07Z</time>
</trkpt>
<trkpt lat="52.344584" lon="4.581547">
<ele>0.9</ele>
<time>2026-02-13T16:26:08Z</time>
</trkpt>
<trkpt lat="52.344589" lon="4.581555">
<ele>0.9</ele>
<time>2026-02-13T16:26:08Z</time>
</trkpt>
<trkpt lat="52.344592" lon="4.581565">
<ele>0.9</ele>
<time>2026-02-13T16:26:09Z</time>
</trkpt>
<trkpt lat="52.344597" lon="4.581572">
<ele>0.7</ele>
<time>2026-02-13T16:26:09Z</time>
</trkpt>
<trkpt lat="52.344603" lon="4.581580">
<ele>0.8</ele>
<time>2026-02-13T16:26:10Z</time>
</trkpt>
<trkpt lat="52.344616" lon="4.581600">
<ele>0.8</ele>
<time>2026-02-13T16:26:11Z</time>
</trkpt>
<trkpt lat="52.344626" lon="4.581610">
<ele>0.8</ele>
<time>2026-02-13T16:26:11Z</time>
</trkpt>
<trkpt lat="52.344633" lon="4.581614">
<ele>0.6</ele>
<time>2026-02-13T16:26:12Z</time>
</trkpt>
<trkpt lat="52.344639" lon="4.581621">
<ele>0.6</ele>
<time>2026-02-13T16:26:13Z</time>
</trkpt>
<trkpt lat="52.344646" lon="4.581625">
<ele>0.7</ele>
<time>2026-02-13T16:26:13Z</time>
</trkpt>
<trkpt lat="52.344655" lon="4.581629">
<ele>0.6</ele>
<time>2026-02-13T16:26:14Z</time>
</trkpt>
<trkpt lat="52.344671" lon="4.581633">
<ele>0.4</ele>
<time>2026-02-13T16:26:15Z</time>
</trkpt>
<trkpt lat="52.344689" lon="4.581639">
<ele>0.9</ele>
<time>2026-02-13T16:26:16Z</time>
</trkpt>
<trkpt lat="52.344704" lon="4.581640">
<ele>0.4</ele>
<time>2026-02-13T16:26:17Z</time>
</trkpt>
<trkpt lat="52.344717" lon="4.581636">
<ele>0.2</ele>
<time>2026-02-13T16:26:18Z</time>
</trkpt>
<trkpt lat="52.344725" lon="4.581635">
<ele>0.2</ele>
<time>2026-02-13T16:26:18Z</time>
</trkpt>
<trkpt lat="52.344736" lon="4.581637">
<ele>0.0</ele>
<time>2026-02-13T16:26:19Z</time>
</trkpt>
<trkpt lat="52.344742" lon="4.581638">
<ele>0.0</ele>
<time>2026-02-13T16:26:19Z</time>
</trkpt>
<trkpt lat="52.344751" lon="4.581639">
<ele>-0.1</ele>
<time>2026-02-13T16:26:20Z</time>
</trkpt>
<trkpt lat="52.344760" lon="4.581640">
<ele>-0.1</ele>
<time>2026-02-13T16:26:20Z</time>
</trkpt>
<trkpt lat="52.344768" lon="4.581639">
<ele>0.2</ele>
<time>2026-02-13T16:26:21Z</time>
</trkpt>
<trkpt lat="52.344776" lon="4.581640">
<ele>0.2</ele>
<time>2026-02-13T16:26:21Z</time>
</trkpt>
<trkpt lat="52.344785" lon="4.581637">
<ele>1.0</ele>
<time>2026-02-13T16:26:22Z</time>
</trkpt>
<trkpt lat="52.344794" lon="4.581637">
<ele>1.0</ele>
<time>2026-02-13T16:26:22Z</time>
</trkpt>
<trkpt lat="52.344802" lon="4.581635">
<ele>0.1</ele>
<time>2026-02-13T16:26:23Z</time>
</trkpt>
<trkpt lat="52.344813" lon="4.581635">
<ele>0.6</ele>
<time>2026-02-13T16:26:24Z</time>
</trkpt>
<trkpt lat="52.344823" lon="4.581639">
<ele>0.6</ele>
<time>2026-02-13T16:26:24Z</time>
</trkpt>
<trkpt lat="52.344831" lon="4.581639">
<ele>0.6</ele>
<time>2026-02-13T16:26:25Z</time>
</trkpt>
<trkpt lat="52.344842" lon="4.581638">
<ele>0.5</ele>
<time>2026-02-13T16:26:26Z</time>
</trkpt>
<trkpt lat="52.344853" lon="4.581638">
<ele>0.5</ele>
<time>2026-02-13T16:26:26Z</time>
</trkpt>
<trkpt lat="52.344860" lon="4.581635">
<ele>0.8</ele>
<time>2026-02-13T16:26:27Z</time>
</trkpt>
<trkpt lat="52.344868" lon="4.581635">
<ele>0.8</ele>
<time>2026-02-13T16:26:27Z</time>
</trkpt>
<trkpt lat="52.344875" lon="4.581634">
<ele>0.7</ele>
<time>2026-02-13T16:26:28Z</time>
</trkpt>
<trkpt lat="52.344884" lon="4.581636">
<ele>0.7</ele>
<time>2026-02-13T16:26:28Z</time>
</trkpt>
<trkpt lat="52.344896" lon="4.581638">
<ele>0.9</ele>
<time>2026-02-13T16:26:29Z</time>
</trkpt>
<trkpt lat="52.344902" lon="4.581636">
<ele>0.6</ele>
<time>2026-02-13T16:26:30Z</time>
</trkpt>
<trkpt lat="52.344910" lon="4.581637">
<ele>0.6</ele>
<time>2026-02-13T16:26:30Z</time>
</trkpt>
<trkpt lat="52.344917" lon="4.581634">
<ele>0.4</ele>
<time>2026-02-13T16:26:31Z</time>
</trkpt>
<trkpt lat="52.344924" lon="4.581635">
<ele>0.4</ele>
<time>2026-02-13T16:26:31Z</time>
</trkpt>
<trkpt lat="52.344932" lon="4.581633">
<ele>0.3</ele>
<time>2026-02-13T16:26:32Z</time>
</trkpt>
<trkpt lat="52.344941" lon="4.581633">
<ele>0.3</ele>
<time>2026-02-13T16:26:32Z</time>
</trkpt>
<trkpt lat="52.344948" lon="4.581632">
<ele>0.5</ele>
<time>2026-02-13T16:26:33Z</time>
</trkpt>
<trkpt lat="52.344960" lon="4.581633">
<ele>0.7</ele>
<time>2026-02-13T16:26:34Z</time>
</trkpt>
<trkpt lat="52.344972" lon="4.581637">
<ele>1.0</ele>
<time>2026-02-13T16:26:35Z</time>
</trkpt>
<trkpt lat="52.344982" lon="4.581640">
<ele>1.0</ele>
<time>2026-02-13T16:26:35Z</time>
</trkpt>
<trkpt lat="52.344988" lon="4.581643">
<ele>1.1</ele>
<time>2026-02-13T16:26:36Z</time>
</trkpt>
<trkpt lat="52.345000" lon="4.581648">
<ele>0.8</ele>
<time>2026-02-13T16:26:37Z</time>
</trkpt>
<trkpt lat="52.345009" lon="4.581652">
<ele>0.8</ele>
<time>2026-02-13T16:26:37Z</time>
</trkpt>
<trkpt lat="52.345014" lon="4.581657">
<ele>0.8</ele>
<time>2026-02-13T16:26:38Z</time>
</trkpt>
<trkpt lat="52.345021" lon="4.581664">
<ele>0.8</ele>
<time>2026-02-13T16:26:38Z</time>
</trkpt>
<trkpt lat="52.345024" lon="4.581668">
<ele>1.0</ele>
<time>2026-02-13T16:26:39Z</time>
</trkpt>
<trkpt lat="52.345035" lon="4.581678">
<ele>1.1</ele>
<time>2026-02-13T16:26:40Z</time>
</trkpt>
<trkpt lat="52.345045" lon="4.581690">
<ele>0.7</ele>
<time>2026-02-13T16:26:41Z</time>
</trkpt>
<trkpt lat="52.345054" lon="4.581697">
<ele>1.0</ele>
<time>2026-02-13T16:26:42Z</time>
</trkpt>
<trkpt lat="52.345063" lon="4.581697">
<ele>0.8</ele>
<time>2026-02-13T16:26:43Z</time>
</trkpt>
<trkpt lat="52.345067" lon="4.581692">
<ele>0.9</ele>
<time>2026-02-13T16:26:43Z</time>
</trkpt>
<trkpt lat="52.345072" lon="4.581690">
<ele>0.9</ele>
<time>2026-02-13T16:26:44Z</time>
</trkpt>
<trkpt lat="52.345076" lon="4.581695">
<ele>0.9</ele>
<time>2026-02-13T16:26:44Z</time>
</trkpt>
<trkpt lat="52.345083" lon="4.581696">
<ele>1.0</ele>
<time>2026-02-13T16:26:45Z</time>
</trkpt>
<trkpt lat="52.345090" lon="4.581699">
<ele>1.0</ele>
<time>2026-02-13T16:26:45Z</time>
</trkpt>
<trkpt lat="52.345096" lon="4.581701">
<ele>1.4</ele>
<time>2026-02-13T16:26:46Z</time>
</trkpt>
<trkpt lat="52.345106" lon="4.581708">
<ele>0.5</ele>
<time>2026-02-13T16:26:46Z</time>
</trkpt>
<trkpt lat="52.345116" lon="4.581713">
<ele>0.2</ele>
<time>2026-02-13T16:26:47Z</time>
</trkpt>
<trkpt lat="52.345124" lon="4.581718">
<ele>0.2</ele>
<time>2026-02-13T16:26:48Z</time>
</trkpt>
<trkpt lat="52.345138" lon="4.581721">
<ele>0.3</ele>
<time>2026-02-13T16:26:49Z</time>
</trkpt>
<trkpt lat="52.345149" lon="4.581720">
<ele>0.9</ele>
<time>2026-02-13T16:26:49Z</time>
</trkpt>
<trkpt lat="52.345156" lon="4.581723">
<ele>0.9</ele>
<time>2026-02-13T16:26:50Z</time>
</trkpt>
<trkpt lat="52.345166" lon="4.581721">
<ele>0.7</ele>
<time>2026-02-13T16:26:50Z</time>
</trkpt>
<trkpt lat="52.345174" lon="4.581723">
<ele>0.7</ele>
<time>2026-02-13T16:26:51Z</time>
</trkpt>
<trkpt lat="52.345184" lon="4.581722">
<ele>0.8</ele>
<time>2026-02-13T16:26:51Z</time>
</trkpt>
<trkpt lat="52.345192" lon="4.581725">
<ele>0.8</ele>
<time>2026-02-13T16:26:51Z</time>
</trkpt>
<trkpt lat="52.345208" lon="4.581728">
<ele>0.9</ele>
<time>2026-02-13T16:26:52Z</time>
</trkpt>
<trkpt lat="52.345212" lon="4.581730">
<ele>0.9</ele>
<time>2026-02-13T16:26:52Z</time>
</trkpt>
<trkpt lat="52.345222" lon="4.581731">
<ele>1.3</ele>
<time>2026-02-13T16:26:53Z</time>
</trkpt>
<trkpt lat="52.345229" lon="4.581734">
<ele>1.3</ele>
<time>2026-02-13T16:26:53Z</time>
</trkpt>
<trkpt lat="52.345240" lon="4.581736">
<ele>1.1</ele>
<time>2026-02-13T16:26:54Z</time>
</trkpt>
<trkpt lat="52.345248" lon="4.581738">
<ele>1.1</ele>
<time>2026-02-13T16:26:54Z</time>
</trkpt>
<trkpt lat="52.345258" lon="4.581742">
<ele>1.5</ele>
<time>2026-02-13T16:26:55Z</time>
</trkpt>
<trkpt lat="52.345271" lon="4.581750">
<ele>1.5</ele>
<time>2026-02-13T16:26:56Z</time>
</trkpt>
<trkpt lat="52.345282" lon="4.581755">
<ele>1.3</ele>
<time>2026-02-13T16:26:56Z</time>
</trkpt>
<trkpt lat="52.345302" lon="4.581757">
<ele>1.4</ele>
<time>2026-02-13T16:26:57Z</time>
</trkpt>
<trkpt lat="52.345313" lon="4.581758">
<ele>1.2</ele>
<time>2026-02-13T16:26:58Z</time>
</trkpt>
<trkpt lat="52.345321" lon="4.581762">
<ele>1.2</ele>
<time>2026-02-13T16:26:58Z</time>
</trkpt>
<trkpt lat="52.345339" lon="4.581774">
<ele>0.7</ele>
<time>2026-02-13T16:26:59Z</time>
</trkpt>
<trkpt lat="52.345357" lon="4.581790">
<ele>0.7</ele>
<time>2026-02-13T16:27:00Z</time>
</trkpt>
<trkpt lat="52.345366" lon="4.581799">
<ele>1.2</ele>
<time>2026-02-13T16:27:01Z</time>
</trkpt>
<trkpt lat="52.345379" lon="4.581808">
<ele>1.0</ele>
<time>2026-02-13T16:27:02Z</time>
</trkpt>
<trkpt lat="52.345393" lon="4.581819">
<ele>1.3</ele>
<time>2026-02-13T16:27:03Z</time>
</trkpt>
<trkpt lat="52.345400" lon="4.581825">
<ele>1.1</ele>
<time>2026-02-13T16:27:03Z</time>
</trkpt>
<trkpt lat="52.345408" lon="4.581832">
<ele>1.2</ele>
<time>2026-02-13T16:27:04Z</time>
</trkpt>
<trkpt lat="52.345416" lon="4.581839">
<ele>1.3</ele>
<time>2026-02-13T16:27:05Z</time>
</trkpt>
<trkpt lat="52.345426" lon="4.581845">
<ele>1.3</ele>
<time>2026-02-13T16:27:05Z</time>
</trkpt>
<trkpt lat="52.345438" lon="4.581852">
<ele>1.0</ele>
<time>2026-02-13T16:27:06Z</time>
</trkpt>
<trkpt lat="52.345444" lon="4.581856">
<ele>1.2</ele>
<time>2026-02-13T16:27:07Z</time>
</trkpt>
<trkpt lat="52.345451" lon="4.581859">
<ele>1.2</ele>
<time>2026-02-13T16:27:07Z</time>
</trkpt>
<trkpt lat="52.345457" lon="4.581860">
<ele>1.2</ele>
<time>2026-02-13T16:27:08Z</time>
</trkpt>
<trkpt lat="52.345464" lon="4.581863">
<ele>1.2</ele>
<time>2026-02-13T16:27:08Z</time>
</trkpt>
<trkpt lat="52.345471" lon="4.581865">
<ele>1.4</ele>
<time>2026-02-13T16:27:09Z</time>
</trkpt>
<trkpt lat="52.345482" lon="4.581869">
<ele>1.3</ele>
<time>2026-02-13T16:27:10Z</time>
</trkpt>
<trkpt lat="52.345496" lon="4.581875">
<ele>1.5</ele>
<time>2026-02-13T16:27:10Z</time>
</trkpt>
<trkpt lat="52.345499" lon="4.581876">
<ele>1.4</ele>
<time>2026-02-13T16:27:11Z</time>
</trkpt>
<trkpt lat="52.345512" lon="4.581881">
<ele>1.4</ele>
<time>2026-02-13T16:27:12Z</time>
</trkpt>
<trkpt lat="52.345526" lon="4.581886">
<ele>1.5</ele>
<time>2026-02-13T16:27:13Z</time>
</trkpt>
<trkpt lat="52.345531" lon="4.581888">
<ele>1.5</ele>
<time>2026-02-13T16:27:13Z</time>
</trkpt>
<trkpt lat="52.345536" lon="4.581891">
<ele>1.3</ele>
<time>2026-02-13T16:27:14Z</time>
</trkpt>
<trkpt lat="52.345544" lon="4.581893">
<ele>1.5</ele>
<time>2026-02-13T16:27:15Z</time>
</trkpt>
<trkpt lat="52.345553" lon="4.581897">
<ele>1.5</ele>
<time>2026-02-13T16:27:15Z</time>
</trkpt>
<trkpt lat="52.345564" lon="4.581906">
<ele>0.9</ele>
<time>2026-02-13T16:27:16Z</time>
</trkpt>
<trkpt lat="52.345573" lon="4.581916">
<ele>0.9</ele>
<time>2026-02-13T16:27:17Z</time>
</trkpt>
<trkpt lat="52.345579" lon="4.581920">
<ele>0.9</ele>
<time>2026-02-13T16:27:17Z</time>
</trkpt>
<trkpt lat="52.345585" lon="4.581930">
<ele>1.3</ele>
<time>2026-02-13T16:27:18Z</time>
</trkpt>
<trkpt lat="52.345594" lon="4.581942">
<ele>1.0</ele>
<time>2026-02-13T16:27:19Z</time>
</trkpt>
<trkpt lat="52.345597" lon="4.581955">
<ele>1.0</ele>
<time>2026-02-13T16:27:19Z</time>
</trkpt>
<trkpt lat="52.345600" lon="4.581966">
<ele>0.9</ele>
<time>2026-02-13T16:27:20Z</time>
</trkpt>
<trkpt lat="52.345606" lon="4.581974">
<ele>0.9</ele>
<time>2026-02-13T16:27:20Z</time>
</trkpt>
<trkpt lat="52.345609" lon="4.581986">
<ele>1.2</ele>
<time>2026-02-13T16:27:21Z</time>
</trkpt>
<trkpt lat="52.345614" lon="4.581993">
<ele>1.2</ele>
<time>2026-02-13T16:27:21Z</time>
</trkpt>
<trkpt lat="52.345622" lon="4.582009">
<ele>1.2</ele>
<time>2026-02-13T16:27:22Z</time>
</trkpt>
<trkpt lat="52.345627" lon="4.582026">
<ele>1.3</ele>
<time>2026-02-13T16:27:23Z</time>
</trkpt>
<trkpt lat="52.345628" lon="4.582040">
<ele>1.6</ele>
<time>2026-02-13T16:27:24Z</time>
</trkpt>
<trkpt lat="52.345634" lon="4.582047">
<ele>1.4</ele>
<time>2026-02-13T16:27:25Z</time>
</trkpt>
<trkpt lat="52.345631" lon="4.582045">
<ele>1.4</ele>
<time>2026-02-13T16:27:26Z</time>
</trkpt>
<trkpt lat="52.345627" lon="4.582043">
<ele>1.0</ele>
<time>2026-02-13T16:27:27Z</time>
</trkpt>
<trkpt lat="52.345623" lon="4.582046">
<ele>1.4</ele>
<time>2026-02-13T16:27:28Z</time>
</trkpt>
<trkpt lat="52.345620" lon="4.582050">
<ele>1.3</ele>
<time>2026-02-13T16:27:29Z</time>
</trkpt>
<trkpt lat="52.345617" lon="4.582053">
<ele>1.3</ele>
<time>2026-02-13T16:27:30Z</time>
</trkpt>
<trkpt lat="52.345616" lon="4.582054">
<ele>1.4</ele>
<time>2026-02-13T16:27:30Z</time>
</trkpt>
<trkpt lat="52.345612" lon="4.582056">
<ele>1.4</ele>
<time>2026-02-13T16:27:32Z</time>
</trkpt>
<trkpt lat="52.345610" lon="4.582056">
<ele>1.6</ele>
<time>2026-02-13T16:27:33Z</time>
</trkpt>
<trkpt lat="52.345609" lon="4.582057">
<ele>1.5</ele>
<time>2026-02-13T16:27:34Z</time>
</trkpt>
<trkpt lat="52.345608" lon="4.582058">
<ele>1.7</ele>
<time>2026-02-13T16:27:35Z</time>
</trkpt>
<trkpt lat="52.345607" lon="4.582058">
<ele>1.7</ele>
<time>2026-02-13T16:27:36Z</time>
</trkpt>
<trkpt lat="52.345607" lon="4.582059">
<ele>1.8</ele>
<time>2026-02-13T16:27:36Z</time>
</trkpt>
<trkpt lat="52.345606" lon="4.582059">
<ele>2.0</ele>
<time>2026-02-13T16:27:37Z</time>
</trkpt>
<trkpt lat="52.345606" lon="4.582059">
<ele>1.9</ele>
<time>2026-02-13T16:27:38Z</time>
</trkpt>
<trkpt lat="52.345606" lon="4.582059">
<ele>2.5</ele>
<time>2026-02-13T16:27:39Z</time>
</trkpt>
<trkpt lat="52.345606" lon="4.582059">
<ele>2.1</ele>
<time>2026-02-13T16:27:40Z</time>
</trkpt>
<trkpt lat="52.345605" lon="4.582058">
<ele>2.4</ele>
<time>2026-02-13T16:27:41Z</time>
</trkpt>
<trkpt lat="52.345605" lon="4.582059">
<ele>2.3</ele>
<time>2026-02-13T16:27:42Z</time>
</trkpt>
<trkpt lat="52.345605" lon="4.582059">
<ele>1.8</ele>
<time>2026-02-13T16:27:43Z</time>
</trkpt>
<trkpt lat="52.345604" lon="4.582059">
<ele>2.4</ele>
<time>2026-02-13T16:27:44Z</time>
</trkpt>
<trkpt lat="52.345604" lon="4.582060">
<ele>2.3</ele>
<time>2026-02-13T16:27:45Z</time>
</trkpt>
<trkpt lat="52.345604" lon="4.582060">
<ele>1.7</ele>
<time>2026-02-13T16:27:46Z</time>
</trkpt>
<trkpt lat="52.345604" lon="4.582060">
<ele>1.6</ele>
<time>2026-02-13T16:27:47Z</time>
</trkpt>
<trkpt lat="52.345603" lon="4.582060">
<ele>1.5</ele>
<time>2026-02-13T16:27:48Z</time>
</trkpt>
<trkpt lat="52.345603" lon="4.582060">
<ele>1.3</ele>
<time>2026-02-13T16:27:49Z</time>
</trkpt>
<trkpt lat="52.345603" lon="4.582060">
<ele>1.4</ele>
<time>2026-02-13T16:27:50Z</time>
</trkpt>
<trkpt lat="52.345603" lon="4.582060">
<ele>1.5</ele>
<time>2026-02-13T16:27:51Z</time>
</trkpt>
<trkpt lat="52.345603" lon="4.582061">
<ele>2.1</ele>
<time>2026-02-13T16:27:52Z</time>
</trkpt>
<trkpt lat="52.345603" lon="4.582061">
<ele>1.5</ele>
<time>2026-02-13T16:27:53Z</time>
</trkpt>
<trkpt lat="52.345603" lon="4.582061">
<ele>1.8</ele>
<time>2026-02-13T16:27:54Z</time>
</trkpt>
<trkpt lat="52.345603" lon="4.582060">
<ele>1.7</ele>
<time>2026-02-13T16:27:55Z</time>
</trkpt>
<trkpt lat="52.345603" lon="4.582060">
<ele>2.0</ele>
<time>2026-02-13T16:27:56Z</time>
</trkpt>
<trkpt lat="52.345603" lon="4.582060">
<ele>1.9</ele>
<time>2026-02-13T16:27:57Z</time>
</trkpt>
<trkpt lat="52.345603" lon="4.582060">
<ele>2.0</ele>
<time>2026-02-13T16:27:58Z</time>
</trkpt>
<trkpt lat="52.345603" lon="4.582061">
<ele>2.1</ele>
<time>2026-02-13T16:27:59Z</time>
</trkpt>
<trkpt lat="52.345602" lon="4.582060">
<ele>2.4</ele>
<time>2026-02-13T16:28:00Z</time>
</trkpt>
<trkpt lat="52.345602" lon="4.582060">
<ele>1.7</ele>
<time>2026-02-13T16:28:01Z</time>
</trkpt>
<trkpt lat="52.345602" lon="4.582060">
<ele>2.5</ele>
<time>2026-02-13T16:28:02Z</time>
</trkpt>
<trkpt lat="52.345602" lon="4.582060">
<ele>2.0</ele>
<time>2026-02-13T16:28:03Z</time>
</trkpt>
<trkpt lat="52.345602" lon="4.582060">
<ele>2.0</ele>
<time>2026-02-13T16:28:04Z</time>
</trkpt>
<trkpt lat="52.345602" lon="4.582060">
<ele>2.6</ele>
<time>2026-02-13T16:28:05Z</time>
</trkpt>
<trkpt lat="52.345602" lon="4.582059">
<ele>2.5</ele>
<time>2026-02-13T16:28:06Z</time>
</trkpt>
<trkpt lat="52.345602" lon="4.582060">
<ele>2.4</ele>
<time>2026-02-13T16:28:07Z</time>
</trkpt>
<trkpt lat="52.345602" lon="4.582060">
<ele>2.8</ele>
<time>2026-02-13T16:28:08Z</time>
</trkpt>
<trkpt lat="52.345602" lon="4.582060">
<ele>2.5</ele>
<time>2026-02-13T16:28:09Z</time>
</trkpt>
<trkpt lat="52.345602" lon="4.582060">
<ele>2.4</ele>
<time>2026-02-13T16:28:10Z</time>
</trkpt>
<trkpt lat="52.345602" lon="4.582060">
<ele>2.2</ele>
<time>2026-02-13T16:28:11Z</time>
</trkpt>
<trkpt lat="52.345603" lon="4.582061">
<ele>2.8</ele>
<time>2026-02-13T16:28:12Z</time>
</trkpt>
<trkpt lat="52.345603" lon="4.582061">
<ele>1.8</ele>
<time>2026-02-13T16:28:13Z</time>
</trkpt>
<trkpt lat="52.345603" lon="4.582062">
<ele>1.3</ele>
<time>2026-02-13T16:28:14Z</time>
</trkpt>
<trkpt lat="52.345603" lon="4.582062">
<ele>1.7</ele>
<time>2026-02-13T16:28:15Z</time>
</trkpt>
<trkpt lat="52.345603" lon="4.582062">
<ele>1.6</ele>
<time>2026-02-13T16:28:16Z</time>
</trkpt>
<trkpt lat="52.345603" lon="4.582063">
<ele>1.6</ele>
<time>2026-02-13T16:28:17Z</time>
</trkpt>
<trkpt lat="52.345603" lon="4.582063">
<ele>2.2</ele>
<time>2026-02-13T16:28:18Z</time>
</trkpt>
<trkpt lat="52.345603" lon="4.582064">
<ele>2.2</ele>
<time>2026-02-13T16:28:19Z</time>
</trkpt>
<trkpt lat="52.345603" lon="4.582064">
<ele>1.9</ele>
<time>2026-02-13T16:28:20Z</time>
</trkpt>
<trkpt lat="52.345603" lon="4.582065">
<ele>2.1</ele>
<time>2026-02-13T16:28:21Z</time>
</trkpt>
<trkpt lat="52.345603" lon="4.582065">
<ele>2.0</ele>
<time>2026-02-13T16:28:22Z</time>
</trkpt>
<trkpt lat="52.345603" lon="4.582065">
<ele>1.9</ele>
<time>2026-02-13T16:28:23Z</time>
</trkpt>
<trkpt lat="52.345603" lon="4.582065">
<ele>2.2</ele>
<time>2026-02-13T16:28:24Z</time>
</trkpt>
<trkpt lat="52.345603" lon="4.582065">
<ele>2.0</ele>
<time>2026-02-13T16:28:25Z</time>
</trkpt>
<trkpt lat="52.345603" lon="4.582065">
<ele>2.9</ele>
<time>2026-02-13T16:28:26Z</time>
</trkpt>
<trkpt lat="52.345603" lon="4.582066">
<ele>2.9</ele>
<time>2026-02-13T16:28:27Z</time>
</trkpt>
<trkpt lat="52.345603" lon="4.582066">
<ele>2.8</ele>
<time>2026-02-13T16:28:28Z</time>
</trkpt>
<trkpt lat="52.345603" lon="4.582067">
<ele>1.8</ele>
<time>2026-02-13T16:28:29Z</time>
</trkpt>
<trkpt lat="52.345603" lon="4.582067">
<ele>1.9</ele>
<time>2026-02-13T16:28:30Z</time>
</trkpt>
<trkpt lat="52.345603" lon="4.582067">
<ele>2.3</ele>
<time>2026-02-13T16:28:31Z</time>
</trkpt>
<trkpt lat="52.345603" lon="4.582067">
<ele>2.7</ele>
<time>2026-02-13T16:28:32Z</time>
</trkpt>
<trkpt lat="52.345603" lon="4.582067">
<ele>2.9</ele>
<time>2026-02-13T16:28:33Z</time>
</trkpt>
<trkpt lat="52.345603" lon="4.582066">
<ele>3.0</ele>
<time>2026-02-13T16:28:34Z</time>
</trkpt>
<trkpt lat="52.345603" lon="4.582066">
<ele>2.8</ele>
<time>2026-02-13T16:28:35Z</time>
</trkpt>
<trkpt lat="52.345603" lon="4.582066">
<ele>2.7</ele>
<time>2026-02-13T16:28:36Z</time>
</trkpt>
<trkpt lat="52.345603" lon="4.582066">
<ele>2.9</ele>
<time>2026-02-13T16:28:37Z</time>
</trkpt>
<trkpt lat="52.345603" lon="4.582066">
<ele>3.1</ele>
<time>2026-02-13T16:28:38Z</time>
</trkpt>
<trkpt lat="52.345603" lon="4.582066">
<ele>2.3</ele>
<time>2026-02-13T16:28:39Z</time>
</trkpt>
<trkpt lat="52.345603" lon="4.582066">
<ele>2.7</ele>
<time>2026-02-13T16:28:40Z</time>
</trkpt>
<trkpt lat="52.345603" lon="4.582066">
<ele>2.5</ele>
<time>2026-02-13T16:28:41Z</time>
</trkpt>
<trkpt lat="52.345603" lon="4.582066">
<ele>2.8</ele>
<time>2026-02-13T16:28:42Z</time>
</trkpt>
<trkpt lat="52.345603" lon="4.582066">
<ele>2.0</ele>
<time>2026-02-13T16:28:43Z</time>
</trkpt>
<trkpt lat="52.345603" lon="4.582066">
<ele>2.7</ele>
<time>2026-02-13T16:28:44Z</time>
</trkpt>
<trkpt lat="52.345603" lon="4.582066">
<ele>2.3</ele>
<time>2026-02-13T16:28:45Z</time>
</trkpt>
<trkpt lat="52.345603" lon="4.582066">
<ele>2.7</ele>
<time>2026-02-13T16:28:46Z</time>
</trkpt>
<trkpt lat="52.345603" lon="4.582066">
<ele>2.7</ele>
<time>2026-02-13T16:28:47Z</time>
</trkpt>
<trkpt lat="52.345603" lon="4.582066">
<ele>2.4</ele>
<time>2026-02-13T16:28:48Z</time>
</trkpt>
<trkpt lat="52.345603" lon="4.582066">
<ele>2.6</ele>
<time>2026-02-13T16:28:49Z</time>
</trkpt>
<trkpt lat="52.345603" lon="4.582066">
<ele>2.3</ele>
<time>2026-02-13T16:28:50Z</time>
</trkpt>
<trkpt lat="52.345603" lon="4.582066">
<ele>3.2</ele>
<time>2026-02-13T16:28:51Z</time>
</trkpt>
<trkpt lat="52.345603" lon="4.582066">
<ele>3.2</ele>
<time>2026-02-13T16:28:52Z</time>
</trkpt>
<trkpt lat="52.345603" lon="4.582066">
<ele>3.1</ele>
<time>2026-02-13T16:28:53Z</time>
</trkpt>
<trkpt lat="52.345603" lon="4.582066">
<ele>3.5</ele>
<time>2026-02-13T16:28:54Z</time>
</trkpt>
<trkpt lat="52.345603" lon="4.582066">
<ele>4.8</ele>
<time>2026-02-13T16:28:55Z</time>
</trkpt>
<trkpt lat="52.345603" lon="4.582066">
<ele>4.8</ele>
<time>2026-02-13T16:28:56Z</time>
</trkpt>
<trkpt lat="52.345603" lon="4.582066">
<ele>4.1</ele>
<time>2026-02-13T16:28:57Z</time>
</trkpt>
<trkpt lat="52.345603" lon="4.582066">
<ele>4.1</ele>
<time>2026-02-13T16:28:58Z</time>
</trkpt>
<trkpt lat="52.345602" lon="4.582066">
<ele>2.9</ele>
<time>2026-02-13T16:28:59Z</time>
</trkpt>
<trkpt lat="52.345602" lon="4.582066">
<ele>3.1</ele>
<time>2026-02-13T16:29:00Z</time>
</trkpt>
<trkpt lat="52.345602" lon="4.582066">
<ele>3.7</ele>
<time>2026-02-13T16:29:01Z</time>
</trkpt>
<trkpt lat="52.345601" lon="4.582070">
<ele>3.3</ele>
<time>2026-02-13T16:29:02Z</time>
</trkpt>
<trkpt lat="52.345604" lon="4.582066">
<ele>3.1</ele>
<time>2026-02-13T16:29:03Z</time>
</trkpt>
<trkpt lat="52.345604" lon="4.582062">
<ele>3.1</ele>
<time>2026-02-13T16:29:04Z</time>
</trkpt>
<trkpt lat="52.345602" lon="4.582059">
<ele>2.9</ele>
<time>2026-02-13T16:29:05Z</time>
</trkpt>
<trkpt lat="52.345601" lon="4.582057">
<ele>2.3</ele>
<time>2026-02-13T16:29:06Z</time>
</trkpt>
<trkpt lat="52.345600" lon="4.582054">
<ele>2.4</ele>
<time>2026-02-13T16:29:07Z</time>
</trkpt>
<trkpt lat="52.345599" lon="4.582053">
<ele>2.4</ele>
<time>2026-02-13T16:29:08Z</time>
</trkpt>
<trkpt lat="52.345599" lon="4.582053">
<ele>2.5</ele>
<time>2026-02-13T16:29:09Z</time>
</trkpt>
<trkpt lat="52.345599" lon="4.582053">
<ele>2.5</ele>
<time>2026-02-13T16:29:10Z</time>
</trkpt>
<trkpt lat="52.345599" lon="4.582053">
<ele>2.5</ele>
<time>2026-02-13T16:29:11Z</time>
</trkpt>
<trkpt lat="52.345599" lon="4.582053">
<ele>2.7</ele>
<time>2026-02-13T16:29:12Z</time>
</trkpt>
<trkpt lat="52.345599" lon="4.582053">
<ele>2.5</ele>
<time>2026-02-13T16:29:13Z</time>
</trkpt>
<trkpt lat="52.345599" lon="4.582053">
<ele>2.9</ele>
<time>2026-02-13T16:29:14Z</time>
</trkpt>
<trkpt lat="52.345600" lon="4.582053">
<ele>3.7</ele>
<time>2026-02-13T16:29:15Z</time>
</trkpt>
<trkpt lat="52.345599" lon="4.582052">
<ele>3.3</ele>
<time>2026-02-13T16:29:16Z</time>
</trkpt>
<trkpt lat="52.345597" lon="4.582051">
<ele>4.7</ele>
<time>2026-02-13T16:29:17Z</time>
</trkpt>
</trkseg>
</trk>
</gpx>
